<?xml version='1.0' encoding='UTF-8'?><gpx version="1.1" creator="JPX - https://github.com/jenetics/jpx" xmlns="http://www.topografix.com/GPX/1/1"><trk><trkseg><trkpt lat="33.5428169" lon="9.9672127"><ele>367.5714285714286</ele><time>2026-04-20T07:26:00.999Z</time></trkpt><trkpt lat="33.5428838" lon="9.9671904"><ele>367.1428571428571</ele><time>2026-04-20T07:26:02.999Z</time></trkpt><trkpt lat="33.542946" lon="9.9672159"><ele>366.7142857142857</ele><time>2026-04-20T07:26:04.999Z</time></trkpt><trkpt lat="33.5429838" lon="9.9672836"><ele>366.28571428571433</ele><time>2026-04-20T07:26:06.999Z</time></trkpt><trkpt lat="33.5429904" lon="9.967364"><ele>365.8571428571429</ele><time>2026-04-20T07:26:08.999Z</time></trkpt><trkpt lat="33.5429929" lon="9.9674491"><ele>365.42857142857144</ele><time>2026-04-20T07:26:10.999Z</time></trkpt><trkpt lat="33.5430147" lon="9.9675494"><ele>365.0</ele><time>2026-04-20T07:26:13.999Z</time></trkpt><trkpt lat="33.5430669" lon="9.9675984"><ele>365.0</ele><time>2026-04-20T07:26:43.999Z</time></trkpt><trkpt lat="33.5431644" lon="9.9676383"><ele>365.0</ele><time>2026-04-20T07:26:45.999Z</time></trkpt><trkpt lat="33.5432365" lon="9.9676376"><ele>365.0</ele><time>2026-04-20T07:26:46.999Z</time></trkpt><trkpt lat="33.5433139" lon="9.9676216"><ele>365.0</ele><time>2026-04-20T07:26:47.999Z</time></trkpt><trkpt lat="33.5433976" lon="9.9676097"><ele>365.0</ele><time>2026-04-20T07:26:48.999Z</time></trkpt><trkpt lat="33.5434834" lon="9.9675905"><ele>365.0</ele><time>2026-04-20T07:26:49.999Z</time></trkpt><trkpt lat="33.5435673" lon="9.9675726"><ele>365.0</ele><time>2026-04-20T07:26:50.999Z</time></trkpt><trkpt lat="33.5436582" lon="9.9675551"><ele>365.0</ele><time>2026-04-20T07:26:51.999Z</time></trkpt><trkpt lat="33.5437463" lon="9.9675287"><ele>365.0</ele><time>2026-04-20T07:26:52.999Z</time></trkpt><trkpt lat="33.5438297" lon="9.9674936"><ele>365.0</ele><time>2026-04-20T07:26:53.999Z</time></trkpt><trkpt lat="33.5439129" lon="9.9674346"><ele>365.0</ele><time>2026-04-20T07:26:54.998Z</time></trkpt><trkpt lat="33.5439903" lon="9.9673737"><ele>365.5</ele><time>2026-04-20T07:26:55.999Z</time></trkpt><trkpt lat="33.5440594" lon="9.9673188"><ele>366.0</ele><time>2026-04-20T07:26:56.999Z</time></trkpt><trkpt lat="33.5441334" lon="9.9672702"><ele>366.5</ele><time>2026-04-20T07:26:57.999Z</time></trkpt><trkpt lat="33.5442175" lon="9.9672412"><ele>367.0</ele><time>2026-04-20T07:26:58.999Z</time></trkpt><trkpt lat="33.5443082" lon="9.9672383"><ele>367.5</ele><time>2026-04-20T07:26:59.999Z</time></trkpt><trkpt lat="33.544396" lon="9.967249"><ele>368.0</ele><time>2026-04-20T07:27:00.999Z</time></trkpt><trkpt lat="33.5445557" lon="9.9673319"><ele>369.1666666666667</ele><time>2026-04-20T07:27:02.999Z</time></trkpt><trkpt lat="33.5446271" lon="9.9673919"><ele>370.33333333333337</ele><time>2026-04-20T07:27:03.999Z</time></trkpt><trkpt lat="33.5446973" lon="9.9674445"><ele>371.5</ele><time>2026-04-20T07:27:04.999Z</time></trkpt><trkpt lat="33.5447708" lon="9.9674869"><ele>372.6666666666667</ele><time>2026-04-20T07:27:05.999Z</time></trkpt><trkpt lat="33.5448441" lon="9.9675219"><ele>373.8333333333333</ele><time>2026-04-20T07:27:06.999Z</time></trkpt><trkpt lat="33.544921" lon="9.9675629"><ele>375.0</ele><time>2026-04-20T07:27:07.999Z</time></trkpt><trkpt lat="33.544985" lon="9.9675924"><ele>375.0</ele><time>2026-04-20T07:27:08.999Z</time></trkpt><trkpt lat="33.5450508" lon="9.9676237"><ele>375.0</ele><time>2026-04-20T07:27:09.999Z</time></trkpt><trkpt lat="33.5451446" lon="9.9676587"><ele>375.0</ele><time>2026-04-20T07:27:11.999Z</time></trkpt><trkpt lat="33.5452617" lon="9.96766"><ele>375.0</ele><time>2026-04-20T07:27:28.999Z</time></trkpt><trkpt lat="33.5453417" lon="9.9676767"><ele>375.0</ele><time>2026-04-20T07:27:39.999Z</time></trkpt><trkpt lat="33.5454183" lon="9.9676367"><ele>376.0</ele><time>2026-04-20T07:27:41.999Z</time></trkpt><trkpt lat="33.545515" lon="9.9675867"><ele>377.0</ele><time>2026-04-20T07:27:43.999Z</time></trkpt><trkpt lat="33.5456133" lon="9.9675567"><ele>378.0</ele><time>2026-04-20T07:27:45.999Z</time></trkpt><trkpt lat="33.54572" lon="9.9675617"><ele>379.0</ele><time>2026-04-20T07:27:47.999Z</time></trkpt><trkpt lat="33.5458267" lon="9.9676167"><ele>380.0</ele><time>2026-04-20T07:27:49.999Z</time></trkpt><trkpt lat="33.5459333" lon="9.9676917"><ele>380.0</ele><time>2026-04-20T07:27:51.999Z</time></trkpt><trkpt lat="33.5459917" lon="9.9677267"><ele>380.0</ele><time>2026-04-20T07:27:52.999Z</time></trkpt><trkpt lat="33.5460467" lon="9.9677683"><ele>380.0</ele><time>2026-04-20T07:27:53.999Z</time></trkpt><trkpt lat="33.5461017" lon="9.967815"><ele>380.0</ele><time>2026-04-20T07:27:54.999Z</time></trkpt><trkpt lat="33.5461533" lon="9.96786"><ele>380.0</ele><time>2026-04-20T07:27:55.999Z</time></trkpt><trkpt lat="33.546225" lon="9.9679833"><ele>380.0</ele><time>2026-04-20T07:27:57.999Z</time></trkpt><trkpt lat="33.5462617" lon="9.9680517"><ele>380.5</ele><time>2026-04-20T07:27:58.999Z</time></trkpt><trkpt lat="33.5463083" lon="9.96812"><ele>381.0</ele><time>2026-04-20T07:27:59.999Z</time></trkpt><trkpt lat="33.546345" lon="9.9681983"><ele>381.5</ele><time>2026-04-20T07:28:00.999Z</time></trkpt><trkpt lat="33.5463883" lon="9.96828"><ele>382.0</ele><time>2026-04-20T07:28:01.999Z</time></trkpt><trkpt lat="33.5464317" lon="9.9683667"><ele>382.5</ele><time>2026-04-20T07:28:02.999Z</time></trkpt><trkpt lat="33.5464733" lon="9.9684567"><ele>383.0</ele><time>2026-04-20T07:28:03.999Z</time></trkpt><trkpt lat="33.5465183" lon="9.9685483"><ele>384.5</ele><time>2026-04-20T07:28:04.999Z</time></trkpt><trkpt lat="33.5465667" lon="9.9686317"><ele>386.0</ele><time>2026-04-20T07:28:05.999Z</time></trkpt><trkpt lat="33.5466167" lon="9.9687133"><ele>387.5</ele><time>2026-04-20T07:28:06.999Z</time></trkpt><trkpt lat="33.5466683" lon="9.96879"><ele>389.0</ele><time>2026-04-20T07:28:07.999Z</time></trkpt><trkpt lat="33.5467117" lon="9.968865"><ele>390.49999999999994</ele><time>2026-04-20T07:28:08.999Z</time></trkpt><trkpt lat="33.5467567" lon="9.96893"><ele>392.0</ele><time>2026-04-20T07:28:09.999Z</time></trkpt><trkpt lat="33.5468017" lon="9.9690067"><ele>392.0</ele><time>2026-04-20T07:28:10.999Z</time></trkpt><trkpt lat="33.5468633" lon="9.9690817"><ele>392.0</ele><time>2026-04-20T07:28:11.999Z</time></trkpt><trkpt lat="33.546935" lon="9.9691533"><ele>392.0</ele><time>2026-04-20T07:28:12.999Z</time></trkpt><trkpt lat="33.5470067" lon="9.9692083"><ele>392.0</ele><time>2026-04-20T07:28:13.999Z</time></trkpt><trkpt lat="33.5470983" lon="9.9692567"><ele>392.0</ele><time>2026-04-20T07:28:14.999Z</time></trkpt><trkpt lat="33.5471933" lon="9.9692933"><ele>395.6</ele><time>2026-04-20T07:28:15.999Z</time></trkpt><trkpt lat="33.5472967" lon="9.9693217"><ele>399.20000000000005</ele><time>2026-04-20T07:28:16.999Z</time></trkpt><trkpt lat="33.5474033" lon="9.969345"><ele>402.8</ele><time>2026-04-20T07:28:17.999Z</time></trkpt><trkpt lat="33.5475117" lon="9.9693717"><ele>406.4</ele><time>2026-04-20T07:28:18.999Z</time></trkpt><trkpt lat="33.5476283" lon="9.9693983"><ele>410.0</ele><time>2026-04-20T07:28:19.999Z</time></trkpt><trkpt lat="33.5477517" lon="9.969415"><ele>410.0</ele><time>2026-04-20T07:28:20.999Z</time></trkpt><trkpt lat="33.54787" lon="9.969425"><ele>410.0</ele><time>2026-04-20T07:28:21.999Z</time></trkpt><trkpt lat="33.5479867" lon="9.969425"><ele>410.0</ele><time>2026-04-20T07:28:22.999Z</time></trkpt><trkpt lat="33.548115" lon="9.9694233"><ele>410.0</ele><time>2026-04-20T07:28:23.999Z</time></trkpt><trkpt lat="33.548235" lon="9.96942"><ele>410.25</ele><time>2026-04-20T07:28:24.999Z</time></trkpt><trkpt lat="33.5483667" lon="9.969415"><ele>410.5</ele><time>2026-04-20T07:28:25.999Z</time></trkpt><trkpt lat="33.5484917" lon="9.969405"><ele>410.75</ele><time>2026-04-20T07:28:26.999Z</time></trkpt><trkpt lat="33.54861" lon="9.9694033"><ele>411.0</ele><time>2026-04-20T07:28:27.999Z</time></trkpt><trkpt lat="33.548725" lon="9.9693983"><ele>409.0</ele><time>2026-04-20T07:28:28.999Z</time></trkpt><trkpt lat="33.5488367" lon="9.9694067"><ele>407.0</ele><time>2026-04-20T07:28:29.999Z</time></trkpt><trkpt lat="33.5489533" lon="9.9694283"><ele>405.0</ele><time>2026-04-20T07:28:30.999Z</time></trkpt><trkpt lat="33.54907" lon="9.9694667"><ele>403.0</ele><time>2026-04-20T07:28:31.999Z</time></trkpt><trkpt lat="33.54918" lon="9.9695333"><ele>403.0</ele><time>2026-04-20T07:28:32.999Z</time></trkpt><trkpt lat="33.5492917" lon="9.9696"><ele>403.0</ele><time>2026-04-20T07:28:33.999Z</time></trkpt><trkpt lat="33.5494" lon="9.9696733"><ele>403.0</ele><time>2026-04-20T07:28:34.999Z</time></trkpt><trkpt lat="33.549505" lon="9.9697567"><ele>403.0</ele><time>2026-04-20T07:28:35.999Z</time></trkpt><trkpt lat="33.5496083" lon="9.969845"><ele>402.0</ele><time>2026-04-20T07:28:36.999Z</time></trkpt><trkpt lat="33.5497133" lon="9.96993"><ele>401.0</ele><time>2026-04-20T07:28:37.999Z</time></trkpt><trkpt lat="33.5498167" lon="9.97002"><ele>400.0</ele><time>2026-04-20T07:28:38.999Z</time></trkpt><trkpt lat="33.5499233" lon="9.970105"><ele>399.0</ele><time>2026-04-20T07:28:39.999Z</time></trkpt><trkpt lat="33.550025" lon="9.970165"><ele>395.0</ele><time>2026-04-20T07:28:40.999Z</time></trkpt><trkpt lat="33.5501283" lon="9.9702117"><ele>391.0</ele><time>2026-04-20T07:28:41.999Z</time></trkpt><trkpt lat="33.550225" lon="9.9702483"><ele>387.0</ele><time>2026-04-20T07:28:42.999Z</time></trkpt><trkpt lat="33.5503217" lon="9.970285"><ele>383.0</ele><time>2026-04-20T07:28:43.999Z</time></trkpt><trkpt lat="33.55041" lon="9.97032"><ele>379.0</ele><time>2026-04-20T07:28:44.999Z</time></trkpt><trkpt lat="33.5504917" lon="9.97036"><ele>379.0</ele><time>2026-04-20T07:28:45.999Z</time></trkpt><trkpt lat="33.5505683" lon="9.9703983"><ele>379.0</ele><time>2026-04-20T07:28:46.999Z</time></trkpt><trkpt lat="33.5506483" lon="9.97044"><ele>379.0</ele><time>2026-04-20T07:28:47.999Z</time></trkpt><trkpt lat="33.550725" lon="9.97048"><ele>379.0</ele><time>2026-04-20T07:28:48.999Z</time></trkpt><trkpt lat="33.550805" lon="9.9705267"><ele>379.0</ele><time>2026-04-20T07:28:49.999Z</time></trkpt><trkpt lat="33.5508817" lon="9.970585"><ele>379.0</ele><time>2026-04-20T07:28:50.999Z</time></trkpt><trkpt lat="33.5509633" lon="9.9706433"><ele>379.0</ele><time>2026-04-20T07:28:51.999Z</time></trkpt><trkpt lat="33.551045" lon="9.9707"><ele>379.0</ele><time>2026-04-20T07:28:52.999Z</time></trkpt><trkpt lat="33.5511267" lon="9.970755"><ele>379.0</ele><time>2026-04-20T07:28:53.999Z</time></trkpt><trkpt lat="33.551205" lon="9.9708133"><ele>379.0</ele><time>2026-04-20T07:28:54.999Z</time></trkpt><trkpt lat="33.551295" lon="9.970865"><ele>379.0</ele><time>2026-04-20T07:28:55.999Z</time></trkpt><trkpt lat="33.55139" lon="9.9708967"><ele>379.0</ele><time>2026-04-20T07:28:56.999Z</time></trkpt><trkpt lat="33.5514867" lon="9.9709133"><ele>379.0</ele><time>2026-04-20T07:28:57.999Z</time></trkpt><trkpt lat="33.55158" lon="9.9709167"><ele>379.0</ele><time>2026-04-20T07:28:58.999Z</time></trkpt><trkpt lat="33.5516817" lon="9.9709067"><ele>379.0</ele><time>2026-04-20T07:28:59.999Z</time></trkpt><trkpt lat="33.5517817" lon="9.97087"><ele>379.0</ele><time>2026-04-20T07:29:00.999Z</time></trkpt><trkpt lat="33.55188" lon="9.970835"><ele>379.0</ele><time>2026-04-20T07:29:01.999Z</time></trkpt><trkpt lat="33.5519767" lon="9.9708367"><ele>379.0</ele><time>2026-04-20T07:29:02.999Z</time></trkpt><trkpt lat="33.552075" lon="9.97088"><ele>379.0</ele><time>2026-04-20T07:29:03.999Z</time></trkpt><trkpt lat="33.55215" lon="9.97097"><ele>379.0</ele><time>2026-04-20T07:29:04.999Z</time></trkpt><trkpt lat="33.5522083" lon="9.971075"><ele>379.0</ele><time>2026-04-20T07:29:05.999Z</time></trkpt><trkpt lat="33.5522567" lon="9.9711767"><ele>376.16666666666663</ele><time>2026-04-20T07:29:06.999Z</time></trkpt><trkpt lat="33.5523083" lon="9.97127"><ele>373.3333333333333</ele><time>2026-04-20T07:29:07.999Z</time></trkpt><trkpt lat="33.5523783" lon="9.9713517"><ele>370.5</ele><time>2026-04-20T07:29:08.999Z</time></trkpt><trkpt lat="33.5524567" lon="9.971405"><ele>367.6666666666667</ele><time>2026-04-20T07:29:09.999Z</time></trkpt><trkpt lat="33.5525317" lon="9.9714033"><ele>364.83333333333337</ele><time>2026-04-20T07:29:10.999Z</time></trkpt><trkpt lat="33.5526083" lon="9.971375"><ele>362.0</ele><time>2026-04-20T07:29:11.999Z</time></trkpt><trkpt lat="33.5526667" lon="9.97132"><ele>362.0</ele><time>2026-04-20T07:29:12.999Z</time></trkpt><trkpt lat="33.552695" lon="9.971235"><ele>362.0</ele><time>2026-04-20T07:29:13.999Z</time></trkpt><trkpt lat="33.55271" lon="9.9711417"><ele>362.0</ele><time>2026-04-20T07:29:14.999Z</time></trkpt><trkpt lat="33.55272" lon="9.9710417"><ele>362.0</ele><time>2026-04-20T07:29:15.999Z</time></trkpt><trkpt lat="33.55273" lon="9.97093"><ele>362.0</ele><time>2026-04-20T07:29:16.999Z</time></trkpt><trkpt lat="33.5527367" lon="9.9708217"><ele>362.0</ele><time>2026-04-20T07:29:17.999Z</time></trkpt><trkpt lat="33.5527433" lon="9.97071"><ele>363.33333333333337</ele><time>2026-04-20T07:29:18.999Z</time></trkpt><trkpt lat="33.5527583" lon="9.9706067"><ele>364.6666666666667</ele><time>2026-04-20T07:29:19.999Z</time></trkpt><trkpt lat="33.5527867" lon="9.9705117"><ele>366.0</ele><time>2026-04-20T07:29:20.999Z</time></trkpt><trkpt lat="33.5528283" lon="9.970435"><ele>367.3333333333333</ele><time>2026-04-20T07:29:21.999Z</time></trkpt><trkpt lat="33.5528933" lon="9.9703633"><ele>368.66666666666663</ele><time>2026-04-20T07:29:22.999Z</time></trkpt><trkpt lat="33.55298" lon="9.970315"><ele>370.0</ele><time>2026-04-20T07:29:23.999Z</time></trkpt><trkpt lat="33.553075" lon="9.9702767"><ele>365.8</ele><time>2026-04-20T07:29:24.999Z</time></trkpt><trkpt lat="33.55318" lon="9.970265"><ele>361.6</ele><time>2026-04-20T07:29:25.999Z</time></trkpt><trkpt lat="33.5532917" lon="9.9702567"><ele>357.4</ele><time>2026-04-20T07:29:26.999Z</time></trkpt><trkpt lat="33.553405" lon="9.9702583"><ele>353.2</ele><time>2026-04-20T07:29:27.999Z</time></trkpt><trkpt lat="33.5535217" lon="9.9702783"><ele>349.0</ele><time>2026-04-20T07:29:28.999Z</time></trkpt><trkpt lat="33.5536367" lon="9.970315"><ele>347.75</ele><time>2026-04-20T07:29:29.999Z</time></trkpt><trkpt lat="33.55376" lon="9.97035"><ele>346.5</ele><time>2026-04-20T07:29:30.999Z</time></trkpt><trkpt lat="33.553885" lon="9.9704067"><ele>345.25</ele><time>2026-04-20T07:29:31.999Z</time></trkpt><trkpt lat="33.5539967" lon="9.9704733"><ele>344.0</ele><time>2026-04-20T07:29:32.999Z</time></trkpt><trkpt lat="33.5541133" lon="9.9705417"><ele>344.0</ele><time>2026-04-20T07:29:33.999Z</time></trkpt><trkpt lat="33.554245" lon="9.9706117"><ele>344.0</ele><time>2026-04-20T07:29:34.999Z</time></trkpt><trkpt lat="33.554375" lon="9.9706867"><ele>344.0</ele><time>2026-04-20T07:29:35.999Z</time></trkpt><trkpt lat="33.5544983" lon="9.97077"><ele>344.0</ele><time>2026-04-20T07:29:36.999Z</time></trkpt><trkpt lat="33.5546183" lon="9.9708483"><ele>342.5</ele><time>2026-04-20T07:29:37.999Z</time></trkpt><trkpt lat="33.554735" lon="9.9709383"><ele>341.0</ele><time>2026-04-20T07:29:38.999Z</time></trkpt><trkpt lat="33.5548433" lon="9.9710333"><ele>339.5</ele><time>2026-04-20T07:29:39.999Z</time></trkpt><trkpt lat="33.5549583" lon="9.9711167"><ele>338.0</ele><time>2026-04-20T07:29:40.999Z</time></trkpt><trkpt lat="33.5550767" lon="9.9712"><ele>338.0</ele><time>2026-04-20T07:29:41.999Z</time></trkpt><trkpt lat="33.555215" lon="9.9712667"><ele>338.0</ele><time>2026-04-20T07:29:42.999Z</time></trkpt><trkpt lat="33.5553533" lon="9.9713333"><ele>338.0</ele><time>2026-04-20T07:29:43.999Z</time></trkpt><trkpt lat="33.5554917" lon="9.97139"><ele>338.0</ele><time>2026-04-20T07:29:44.999Z</time></trkpt><trkpt lat="33.5556417" lon="9.97144"><ele>338.6666666666667</ele><time>2026-04-20T07:29:45.999Z</time></trkpt><trkpt lat="33.555785" lon="9.9714883"><ele>339.3333333333333</ele><time>2026-04-20T07:29:46.999Z</time></trkpt><trkpt lat="33.5559383" lon="9.97154"><ele>340.0</ele><time>2026-04-20T07:29:47.999Z</time></trkpt><trkpt lat="33.5560967" lon="9.9715667"><ele>339.66666666666663</ele><time>2026-04-20T07:29:48.999Z</time></trkpt><trkpt lat="33.5562517" lon="9.9715833"><ele>339.3333333333333</ele><time>2026-04-20T07:29:49.999Z</time></trkpt><trkpt lat="33.5564083" lon="9.9716"><ele>339.0</ele><time>2026-04-20T07:29:50.999Z</time></trkpt><trkpt lat="33.5565617" lon="9.9716383"><ele>339.0</ele><time>2026-04-20T07:29:51.999Z</time></trkpt><trkpt lat="33.55672" lon="9.971675"><ele>339.0</ele><time>2026-04-20T07:29:52.999Z</time></trkpt><trkpt lat="33.5568783" lon="9.9716967"><ele>339.0</ele><time>2026-04-20T07:29:53.999Z</time></trkpt><trkpt lat="33.55703" lon="9.9716817"><ele>337.25</ele><time>2026-04-20T07:29:54.999Z</time></trkpt><trkpt lat="33.557165" lon="9.971625"><ele>335.5</ele><time>2026-04-20T07:29:55.999Z</time></trkpt><trkpt lat="33.55728" lon="9.9715317"><ele>333.75</ele><time>2026-04-20T07:29:56.999Z</time></trkpt><trkpt lat="33.5573683" lon="9.9714217"><ele>332.0</ele><time>2026-04-20T07:29:57.999Z</time></trkpt><trkpt lat="33.5574383" lon="9.9712883"><ele>332.0</ele><time>2026-04-20T07:29:58.999Z</time></trkpt><trkpt lat="33.5574983" lon="9.9711433"><ele>332.0</ele><time>2026-04-20T07:29:59.999Z</time></trkpt><trkpt lat="33.55756" lon="9.9710033"><ele>332.0</ele><time>2026-04-20T07:30:00.999Z</time></trkpt><trkpt lat="33.5576383" lon="9.970875"><ele>332.0</ele><time>2026-04-20T07:30:01.999Z</time></trkpt><trkpt lat="33.5577217" lon="9.9707483"><ele>331.0</ele><time>2026-04-20T07:30:02.999Z</time></trkpt><trkpt lat="33.55781" lon="9.970625"><ele>330.0</ele><time>2026-04-20T07:30:03.999Z</time></trkpt><trkpt lat="33.5579117" lon="9.9705283"><ele>329.0</ele><time>2026-04-20T07:30:04.999Z</time></trkpt><trkpt lat="33.5580183" lon="9.9704517"><ele>328.0</ele><time>2026-04-20T07:30:05.999Z</time></trkpt><trkpt lat="33.5581217" lon="9.97042"><ele>326.25</ele><time>2026-04-20T07:30:06.999Z</time></trkpt><trkpt lat="33.5582267" lon="9.97044"><ele>324.5</ele><time>2026-04-20T07:30:07.999Z</time></trkpt><trkpt lat="33.5583417" lon="9.97046"><ele>322.75</ele><time>2026-04-20T07:30:08.999Z</time></trkpt><trkpt lat="33.55846" lon="9.9704617"><ele>321.0</ele><time>2026-04-20T07:30:09.999Z</time></trkpt><trkpt lat="33.5585717" lon="9.97043"><ele>321.0</ele><time>2026-04-20T07:30:10.999Z</time></trkpt><trkpt lat="33.5586867" lon="9.9703717"><ele>321.0</ele><time>2026-04-20T07:30:11.999Z</time></trkpt><trkpt lat="33.5587967" lon="9.97031"><ele>321.0</ele><time>2026-04-20T07:30:12.999Z</time></trkpt><trkpt lat="33.558925" lon="9.9702733"><ele>321.0</ele><time>2026-04-20T07:30:13.999Z</time></trkpt><trkpt lat="33.5590667" lon="9.97026"><ele>319.25</ele><time>2026-04-20T07:30:14.999Z</time></trkpt><trkpt lat="33.559215" lon="9.97026"><ele>317.5</ele><time>2026-04-20T07:30:15.999Z</time></trkpt><trkpt lat="33.5593667" lon="9.9702567"><ele>315.75</ele><time>2026-04-20T07:30:16.999Z</time></trkpt><trkpt lat="33.559515" lon="9.9702583"><ele>314.0</ele><time>2026-04-20T07:30:17.999Z</time></trkpt><trkpt lat="33.5596633" lon="9.9702583"><ele>313.6666666666667</ele><time>2026-04-20T07:30:18.999Z</time></trkpt><trkpt lat="33.5598083" lon="9.97027"><ele>313.3333333333333</ele><time>2026-04-20T07:30:19.999Z</time></trkpt><trkpt lat="33.5599583" lon="9.9703067"><ele>313.0</ele><time>2026-04-20T07:30:20.999Z</time></trkpt><trkpt lat="33.5601033" lon="9.9703633"><ele>313.0</ele><time>2026-04-20T07:30:21.999Z</time></trkpt><trkpt lat="33.560245" lon="9.9704483"><ele>313.0</ele><time>2026-04-20T07:30:22.999Z</time></trkpt><trkpt lat="33.5603917" lon="9.9705367"><ele>313.0</ele><time>2026-04-20T07:30:23.999Z</time></trkpt><trkpt lat="33.5605367" lon="9.9706167"><ele>312.0</ele><time>2026-04-20T07:30:24.999Z</time></trkpt><trkpt lat="33.560675" lon="9.970665"><ele>311.0</ele><time>2026-04-20T07:30:25.999Z</time></trkpt><trkpt lat="33.5608233" lon="9.9706733"><ele>310.0</ele><time>2026-04-20T07:30:26.999Z</time></trkpt><trkpt lat="33.5609533" lon="9.9706483"><ele>309.0</ele><time>2026-04-20T07:30:27.999Z</time></trkpt><trkpt lat="33.5610733" lon="9.9706083"><ele>309.0</ele><time>2026-04-20T07:30:28.999Z</time></trkpt><trkpt lat="33.561185" lon="9.9706033"><ele>309.0</ele><time>2026-04-20T07:30:29.999Z</time></trkpt><trkpt lat="33.5612933" lon="9.9706367"><ele>309.0</ele><time>2026-04-20T07:30:30.999Z</time></trkpt><trkpt lat="33.5613933" lon="9.9706933"><ele>309.0</ele><time>2026-04-20T07:30:31.999Z</time></trkpt><trkpt lat="33.56151" lon="9.9707533"><ele>308.0</ele><time>2026-04-20T07:30:32.999Z</time></trkpt><trkpt lat="33.5616333" lon="9.9707883"><ele>307.0</ele><time>2026-04-20T07:30:33.999Z</time></trkpt><trkpt lat="33.56177" lon="9.9708167"><ele>306.0</ele><time>2026-04-20T07:30:34.999Z</time></trkpt><trkpt lat="33.5619233" lon="9.9708283"><ele>305.0</ele><time>2026-04-20T07:30:35.999Z</time></trkpt><trkpt lat="33.562075" lon="9.970815"><ele>304.5</ele><time>2026-04-20T07:30:36.999Z</time></trkpt><trkpt lat="33.562215" lon="9.97079"><ele>304.0</ele><time>2026-04-20T07:30:37.999Z</time></trkpt><trkpt lat="33.5623333" lon="9.9707383"><ele>303.5</ele><time>2026-04-20T07:30:38.999Z</time></trkpt><trkpt lat="33.5624317" lon="9.9706717"><ele>303.0</ele><time>2026-04-20T07:30:39.999Z</time></trkpt><trkpt lat="33.5625117" lon="9.9706067"><ele>303.0</ele><time>2026-04-20T07:30:40.999Z</time></trkpt><trkpt lat="33.5625867" lon="9.9705783"><ele>303.0</ele><time>2026-04-20T07:30:41.999Z</time></trkpt><trkpt lat="33.5626633" lon="9.97061"><ele>303.0</ele><time>2026-04-20T07:30:42.999Z</time></trkpt><trkpt lat="33.56273" lon="9.970685"><ele>303.0</ele><time>2026-04-20T07:30:43.999Z</time></trkpt><trkpt lat="33.56279" lon="9.97078"><ele>303.0</ele><time>2026-04-20T07:30:44.999Z</time></trkpt><trkpt lat="33.5628633" lon="9.9708667"><ele>303.4</ele><time>2026-04-20T07:30:45.999Z</time></trkpt><trkpt lat="33.56294" lon="9.9709117"><ele>303.8</ele><time>2026-04-20T07:30:46.999Z</time></trkpt><trkpt lat="33.5630233" lon="9.970935"><ele>304.2</ele><time>2026-04-20T07:30:47.999Z</time></trkpt><trkpt lat="33.5631083" lon="9.97091"><ele>304.6</ele><time>2026-04-20T07:30:48.999Z</time></trkpt><trkpt lat="33.5631933" lon="9.970855"><ele>305.0</ele><time>2026-04-20T07:30:49.999Z</time></trkpt><trkpt lat="33.5632817" lon="9.97078"><ele>303.5</ele><time>2026-04-20T07:30:50.999Z</time></trkpt><trkpt lat="33.5633767" lon="9.9706983"><ele>302.0</ele><time>2026-04-20T07:30:51.999Z</time></trkpt><trkpt lat="33.5634833" lon="9.97061"><ele>300.5</ele><time>2026-04-20T07:30:52.999Z</time></trkpt><trkpt lat="33.5636033" lon="9.9705317"><ele>299.0</ele><time>2026-04-20T07:30:53.999Z</time></trkpt><trkpt lat="33.5637033" lon="9.9704333"><ele>298.75</ele><time>2026-04-20T07:30:54.999Z</time></trkpt><trkpt lat="33.5637817" lon="9.970315"><ele>298.5</ele><time>2026-04-20T07:30:55.999Z</time></trkpt><trkpt lat="33.5638183" lon="9.9701767"><ele>298.25</ele><time>2026-04-20T07:30:56.999Z</time></trkpt><trkpt lat="33.56384" lon="9.97004"><ele>298.0</ele><time>2026-04-20T07:30:57.999Z</time></trkpt><trkpt lat="33.56386" lon="9.9699033"><ele>297.0</ele><time>2026-04-20T07:30:58.999Z</time></trkpt><trkpt lat="33.5638867" lon="9.9697767"><ele>296.0</ele><time>2026-04-20T07:30:59.999Z</time></trkpt><trkpt lat="33.563925" lon="9.9696517"><ele>295.0</ele><time>2026-04-20T07:31:00.999Z</time></trkpt><trkpt lat="33.5639817" lon="9.9695417"><ele>294.0</ele><time>2026-04-20T07:31:01.999Z</time></trkpt><trkpt lat="33.5640583" lon="9.9694567"><ele>293.0</ele><time>2026-04-20T07:31:02.999Z</time></trkpt><trkpt lat="33.5641533" lon="9.969395"><ele>293.0</ele><time>2026-04-20T07:31:03.999Z</time></trkpt><trkpt lat="33.5642633" lon="9.9693583"><ele>293.0</ele><time>2026-04-20T07:31:04.999Z</time></trkpt><trkpt lat="33.5643833" lon="9.969355"><ele>293.0</ele><time>2026-04-20T07:31:05.999Z</time></trkpt><trkpt lat="33.5645233" lon="9.9693883"><ele>293.0</ele><time>2026-04-20T07:31:06.999Z</time></trkpt><trkpt lat="33.5646533" lon="9.9694417"><ele>291.0</ele><time>2026-04-20T07:31:07.999Z</time></trkpt><trkpt lat="33.5647917" lon="9.9695067"><ele>289.0</ele><time>2026-04-20T07:31:08.999Z</time></trkpt><trkpt lat="33.5649233" lon="9.9695683"><ele>287.0</ele><time>2026-04-20T07:31:09.999Z</time></trkpt><trkpt lat="33.5650633" lon="9.969605"><ele>285.0</ele><time>2026-04-20T07:31:10.999Z</time></trkpt><trkpt lat="33.5651983" lon="9.9696283"><ele>285.0</ele><time>2026-04-20T07:31:11.999Z</time></trkpt><trkpt lat="33.565325" lon="9.96962"><ele>285.0</ele><time>2026-04-20T07:31:12.999Z</time></trkpt><trkpt lat="33.56545" lon="9.9695967"><ele>285.0</ele><time>2026-04-20T07:31:13.999Z</time></trkpt><trkpt lat="33.56557" lon="9.969535"><ele>285.0</ele><time>2026-04-20T07:31:14.999Z</time></trkpt><trkpt lat="33.5656767" lon="9.969445"><ele>283.5</ele><time>2026-04-20T07:31:15.999Z</time></trkpt><trkpt lat="33.56578" lon="9.9693517"><ele>282.0</ele><time>2026-04-20T07:31:16.999Z</time></trkpt><trkpt lat="33.5658883" lon="9.969275"><ele>280.5</ele><time>2026-04-20T07:31:17.999Z</time></trkpt><trkpt lat="33.566005" lon="9.9692167"><ele>279.0</ele><time>2026-04-20T07:31:18.999Z</time></trkpt><trkpt lat="33.566125" lon="9.9691883"><ele>277.5</ele><time>2026-04-20T07:31:19.999Z</time></trkpt><trkpt lat="33.5662583" lon="9.9691817"><ele>276.0</ele><time>2026-04-20T07:31:20.999Z</time></trkpt><trkpt lat="33.566395" lon="9.969195"><ele>274.5</ele><time>2026-04-20T07:31:21.999Z</time></trkpt><trkpt lat="33.5665367" lon="9.9692267"><ele>273.0</ele><time>2026-04-20T07:31:22.999Z</time></trkpt><trkpt lat="33.56668" lon="9.9692667"><ele>273.0</ele><time>2026-04-20T07:31:23.999Z</time></trkpt><trkpt lat="33.5668283" lon="9.9693183"><ele>273.0</ele><time>2026-04-20T07:31:24.999Z</time></trkpt><trkpt lat="33.5669783" lon="9.969375"><ele>273.0</ele><time>2026-04-20T07:31:25.999Z</time></trkpt><trkpt lat="33.56713" lon="9.96944"><ele>270.0</ele><time>2026-04-20T07:31:26.999Z</time></trkpt><trkpt lat="33.56729" lon="9.9695183"><ele>267.0</ele><time>2026-04-20T07:31:27.999Z</time></trkpt><trkpt lat="33.5674517" lon="9.9695917"><ele>264.0</ele><time>2026-04-20T07:31:28.999Z</time></trkpt><trkpt lat="33.5676167" lon="9.9696867"><ele>264.0</ele><time>2026-04-20T07:31:29.999Z</time></trkpt><trkpt lat="33.5677767" lon="9.969785"><ele>264.0</ele><time>2026-04-20T07:31:30.999Z</time></trkpt><trkpt lat="33.5679317" lon="9.9698767"><ele>264.0</ele><time>2026-04-20T07:31:31.999Z</time></trkpt><trkpt lat="33.5680867" lon="9.969975"><ele>262.6666666666667</ele><time>2026-04-20T07:31:32.999Z</time></trkpt><trkpt lat="33.56825" lon="9.9700667"><ele>261.33333333333337</ele><time>2026-04-20T07:31:33.999Z</time></trkpt><trkpt lat="33.5684233" lon="9.9701583"><ele>260.0</ele><time>2026-04-20T07:31:34.999Z</time></trkpt><trkpt lat="33.5685933" lon="9.970235"><ele>258.6666666666667</ele><time>2026-04-20T07:31:35.999Z</time></trkpt><trkpt lat="33.568765" lon="9.9702983"><ele>257.3333333333333</ele><time>2026-04-20T07:31:36.999Z</time></trkpt><trkpt lat="33.5689417" lon="9.9703317"><ele>256.0</ele><time>2026-04-20T07:31:37.999Z</time></trkpt><trkpt lat="33.5691283" lon="9.9703483"><ele>256.0</ele><time>2026-04-20T07:31:38.999Z</time></trkpt><trkpt lat="33.5693117" lon="9.9703483"><ele>256.0</ele><time>2026-04-20T07:31:39.999Z</time></trkpt><trkpt lat="33.5694967" lon="9.9703633"><ele>256.0</ele><time>2026-04-20T07:31:40.999Z</time></trkpt><trkpt lat="33.569685" lon="9.9703983"><ele>256.0</ele><time>2026-04-20T07:31:41.999Z</time></trkpt><trkpt lat="33.5698517" lon="9.9704667"><ele>256.0</ele><time>2026-04-20T07:31:42.999Z</time></trkpt><trkpt lat="33.570015" lon="9.9705533"><ele>256.0</ele><time>2026-04-20T07:31:43.999Z</time></trkpt><trkpt lat="33.5701783" lon="9.9706617"><ele>256.0</ele><time>2026-04-20T07:31:44.999Z</time></trkpt><trkpt lat="33.570345" lon="9.970785"><ele>256.0</ele><time>2026-04-20T07:31:45.999Z</time></trkpt><trkpt lat="33.570515" lon="9.9709167"><ele>256.0</ele><time>2026-04-20T07:31:46.999Z</time></trkpt><trkpt lat="33.570685" lon="9.97105"><ele>254.66666666666666</ele><time>2026-04-20T07:31:47.999Z</time></trkpt><trkpt lat="33.570815" lon="9.9711567"><ele>253.33333333333331</ele><time>2026-04-20T07:31:48.999Z</time></trkpt><trkpt lat="33.5709917" lon="9.9713167"><ele>252.0</ele><time>2026-04-20T07:31:49.999Z</time></trkpt><trkpt lat="33.5711733" lon="9.97145"><ele>252.0</ele><time>2026-04-20T07:31:50.999Z</time></trkpt><trkpt lat="33.5713583" lon="9.9715733"><ele>252.0</ele><time>2026-04-20T07:31:51.999Z</time></trkpt><trkpt lat="33.57155" lon="9.971685"><ele>252.0</ele><time>2026-04-20T07:31:52.999Z</time></trkpt><trkpt lat="33.5717283" lon="9.971775"><ele>252.0</ele><time>2026-04-20T07:31:53.999Z</time></trkpt><trkpt lat="33.5719133" lon="9.9718567"><ele>252.0</ele><time>2026-04-20T07:31:54.999Z</time></trkpt><trkpt lat="33.5721017" lon="9.971945"><ele>252.0</ele><time>2026-04-20T07:31:55.999Z</time></trkpt><trkpt lat="33.5722967" lon="9.97203"><ele>251.0</ele><time>2026-04-20T07:31:56.999Z</time></trkpt><trkpt lat="33.5724783" lon="9.9721183"><ele>250.0</ele><time>2026-04-20T07:31:57.999Z</time></trkpt><trkpt lat="33.5726583" lon="9.9721967"><ele>249.0</ele><time>2026-04-20T07:31:58.999Z</time></trkpt><trkpt lat="33.5728367" lon="9.9722717"><ele>248.33333333333331</ele><time>2026-04-20T07:31:59.999Z</time></trkpt><trkpt lat="33.5730133" lon="9.9723467"><ele>247.66666666666666</ele><time>2026-04-20T07:32:00.999Z</time></trkpt><trkpt lat="33.5732" lon="9.9723917"><ele>247.0</ele><time>2026-04-20T07:32:01.999Z</time></trkpt><trkpt lat="33.573395" lon="9.972415"><ele>247.0</ele><time>2026-04-20T07:32:02.999Z</time></trkpt><trkpt lat="33.5735833" lon="9.972395"><ele>247.0</ele><time>2026-04-20T07:32:03.999Z</time></trkpt><trkpt lat="33.5737717" lon="9.97235"><ele>247.0</ele><time>2026-04-20T07:32:04.999Z</time></trkpt><trkpt lat="33.5739417" lon="9.97227"><ele>248.0</ele><time>2026-04-20T07:32:05.999Z</time></trkpt><trkpt lat="33.5741033" lon="9.9721733"><ele>249.0</ele><time>2026-04-20T07:32:06.999Z</time></trkpt><trkpt lat="33.5742633" lon="9.9720667"><ele>250.0</ele><time>2026-04-20T07:32:07.999Z</time></trkpt><trkpt lat="33.57442" lon="9.9719817"><ele>248.66666666666666</ele><time>2026-04-20T07:32:08.999Z</time></trkpt><trkpt lat="33.57458" lon="9.9719217"><ele>247.33333333333331</ele><time>2026-04-20T07:32:09.999Z</time></trkpt><trkpt lat="33.5747383" lon="9.97191"><ele>246.0</ele><time>2026-04-20T07:32:10.999Z</time></trkpt><trkpt lat="33.5748917" lon="9.9719417"><ele>246.0</ele><time>2026-04-20T07:32:11.999Z</time></trkpt><trkpt lat="33.57503" lon="9.9720233"><ele>246.0</ele><time>2026-04-20T07:32:12.999Z</time></trkpt><trkpt lat="33.57516" lon="9.9721333"><ele>246.0</ele><time>2026-04-20T07:32:13.999Z</time></trkpt><trkpt lat="33.5752783" lon="9.9722517"><ele>243.66666666666669</ele><time>2026-04-20T07:32:14.999Z</time></trkpt><trkpt lat="33.5754" lon="9.972395"><ele>241.33333333333334</ele><time>2026-04-20T07:32:15.999Z</time></trkpt><trkpt lat="33.5755233" lon="9.9725467"><ele>239.0</ele><time>2026-04-20T07:32:16.999Z</time></trkpt><trkpt lat="33.5756567" lon="9.9726833"><ele>239.0</ele><time>2026-04-20T07:32:17.999Z</time></trkpt><trkpt lat="33.5757883" lon="9.97283"><ele>239.0</ele><time>2026-04-20T07:32:18.999Z</time></trkpt><trkpt lat="33.57592" lon="9.9729833"><ele>239.0</ele><time>2026-04-20T07:32:19.999Z</time></trkpt><trkpt lat="33.576055" lon="9.97314"><ele>239.0</ele><time>2026-04-20T07:32:20.999Z</time></trkpt><trkpt lat="33.5761967" lon="9.973295"><ele>239.0</ele><time>2026-04-20T07:32:21.999Z</time></trkpt><trkpt lat="33.5763417" lon="9.9734483"><ele>239.0</ele><time>2026-04-20T07:32:22.999Z</time></trkpt><trkpt lat="33.576485" lon="9.9735983"><ele>237.66666666666669</ele><time>2026-04-20T07:32:23.999Z</time></trkpt><trkpt lat="33.57662" lon="9.97375"><ele>236.33333333333331</ele><time>2026-04-20T07:32:24.999Z</time></trkpt><trkpt lat="33.5767567" lon="9.9739083"><ele>235.0</ele><time>2026-04-20T07:32:25.999Z</time></trkpt><trkpt lat="33.5769033" lon="9.9740583"><ele>235.0</ele><time>2026-04-20T07:32:26.999Z</time></trkpt><trkpt lat="33.5770567" lon="9.9742133"><ele>235.0</ele><time>2026-04-20T07:32:27.999Z</time></trkpt><trkpt lat="33.5772117" lon="9.97435"><ele>235.0</ele><time>2026-04-20T07:32:28.999Z</time></trkpt><trkpt lat="33.5773667" lon="9.9744833"><ele>235.0</ele><time>2026-04-20T07:32:29.999Z</time></trkpt><trkpt lat="33.5775283" lon="9.97461"><ele>235.0</ele><time>2026-04-20T07:32:30.999Z</time></trkpt><trkpt lat="33.5777017" lon="9.9747333"><ele>235.0</ele><time>2026-04-20T07:32:31.999Z</time></trkpt><trkpt lat="33.5778717" lon="9.9748467"><ele>235.0</ele><time>2026-04-20T07:32:32.999Z</time></trkpt><trkpt lat="33.5780383" lon="9.97496"><ele>235.0</ele><time>2026-04-20T07:32:33.999Z</time></trkpt><trkpt lat="33.578205" lon="9.9750683"><ele>235.0</ele><time>2026-04-20T07:32:34.999Z</time></trkpt><trkpt lat="33.5783733" lon="9.97517"><ele>235.66666666666666</ele><time>2026-04-20T07:32:35.999Z</time></trkpt><trkpt lat="33.5785433" lon="9.97528"><ele>236.33333333333331</ele><time>2026-04-20T07:32:36.999Z</time></trkpt><trkpt lat="33.578715" lon="9.9753967"><ele>237.0</ele><time>2026-04-20T07:32:37.999Z</time></trkpt><trkpt lat="33.5788917" lon="9.9755167"><ele>235.33333333333331</ele><time>2026-04-20T07:32:38.998Z</time></trkpt><trkpt lat="33.5790633" lon="9.975625"><ele>233.66666666666666</ele><time>2026-04-20T07:32:39.998Z</time></trkpt><trkpt lat="33.57923" lon="9.9757333"><ele>232.0</ele><time>2026-04-20T07:32:40.998Z</time></trkpt><trkpt lat="33.57939" lon="9.9758517"><ele>231.0</ele><time>2026-04-20T07:32:41.998Z</time></trkpt><trkpt lat="33.579555" lon="9.9759567"><ele>230.0</ele><time>2026-04-20T07:32:42.998Z</time></trkpt><trkpt lat="33.57973" lon="9.9760567"><ele>229.0</ele><time>2026-04-20T07:32:43.998Z</time></trkpt><trkpt lat="33.5799" lon="9.9761783"><ele>229.0</ele><time>2026-04-20T07:32:44.998Z</time></trkpt><trkpt lat="33.5800617" lon="9.9763117"><ele>229.0</ele><time>2026-04-20T07:32:45.998Z</time></trkpt><trkpt lat="33.5802133" lon="9.9764633"><ele>229.0</ele><time>2026-04-20T07:32:46.998Z</time></trkpt><trkpt lat="33.5803683" lon="9.976625"><ele>227.66666666666666</ele><time>2026-04-20T07:32:47.998Z</time></trkpt><trkpt lat="33.5805117" lon="9.9767883"><ele>226.33333333333331</ele><time>2026-04-20T07:32:48.998Z</time></trkpt><trkpt lat="33.580655" lon="9.97695"><ele>225.0</ele><time>2026-04-20T07:32:49.998Z</time></trkpt><trkpt lat="33.5807883" lon="9.9771267"><ele>225.0</ele><time>2026-04-20T07:32:50.998Z</time></trkpt><trkpt lat="33.5809167" lon="9.977315"><ele>225.0</ele><time>2026-04-20T07:32:51.998Z</time></trkpt><trkpt lat="33.581025" lon="9.9775083"><ele>225.0</ele><time>2026-04-20T07:32:52.998Z</time></trkpt><trkpt lat="33.5811267" lon="9.9776967"><ele>225.33333333333331</ele><time>2026-04-20T07:32:53.998Z</time></trkpt><trkpt lat="33.5812317" lon="9.9778883"><ele>225.66666666666666</ele><time>2026-04-20T07:32:54.998Z</time></trkpt><trkpt lat="33.5813367" lon="9.9780767"><ele>226.0</ele><time>2026-04-20T07:32:55.998Z</time></trkpt><trkpt lat="33.5814517" lon="9.9782717"><ele>226.33333333333331</ele><time>2026-04-20T07:32:56.998Z</time></trkpt><trkpt lat="33.5815683" lon="9.97846"><ele>226.66666666666669</ele><time>2026-04-20T07:32:57.998Z</time></trkpt><trkpt lat="33.5816883" lon="9.97865"><ele>227.0</ele><time>2026-04-20T07:32:58.998Z</time></trkpt><trkpt lat="33.5818117" lon="9.97884"><ele>227.0</ele><time>2026-04-20T07:32:59.998Z</time></trkpt><trkpt lat="33.5819283" lon="9.9790333"><ele>227.0</ele><time>2026-04-20T07:33:00.998Z</time></trkpt><trkpt lat="33.5820417" lon="9.9792233"><ele>227.0</ele><time>2026-04-20T07:33:01.998Z</time></trkpt><trkpt lat="33.5821517" lon="9.9794133"><ele>226.66666666666669</ele><time>2026-04-20T07:33:02.998Z</time></trkpt><trkpt lat="33.5822667" lon="9.9795933"><ele>226.33333333333331</ele><time>2026-04-20T07:33:03.998Z</time></trkpt><trkpt lat="33.5823783" lon="9.9797867"><ele>226.0</ele><time>2026-04-20T07:33:04.998Z</time></trkpt><trkpt lat="33.5824933" lon="9.9799783"><ele>224.66666666666666</ele><time>2026-04-20T07:33:05.998Z</time></trkpt><trkpt lat="33.5826083" lon="9.9801633"><ele>223.33333333333331</ele><time>2026-04-20T07:33:06.998Z</time></trkpt><trkpt lat="33.58272" lon="9.9803417"><ele>222.0</ele><time>2026-04-20T07:33:07.998Z</time></trkpt><trkpt lat="33.58283" lon="9.9805217"><ele>222.0</ele><time>2026-04-20T07:33:08.998Z</time></trkpt><trkpt lat="33.5829367" lon="9.9806983"><ele>222.0</ele><time>2026-04-20T07:33:09.998Z</time></trkpt><trkpt lat="33.583045" lon="9.9808783"><ele>222.0</ele><time>2026-04-20T07:33:10.998Z</time></trkpt><trkpt lat="33.5831483" lon="9.9810533"><ele>222.0</ele><time>2026-04-20T07:33:11.998Z</time></trkpt><trkpt lat="33.5832533" lon="9.9812217"><ele>222.0</ele><time>2026-04-20T07:33:12.998Z</time></trkpt><trkpt lat="33.5833583" lon="9.9813917"><ele>222.0</ele><time>2026-04-20T07:33:13.998Z</time></trkpt><trkpt lat="33.58346" lon="9.9815717"><ele>221.66666666666669</ele><time>2026-04-20T07:33:14.998Z</time></trkpt><trkpt lat="33.58356" lon="9.9817383"><ele>221.33333333333334</ele><time>2026-04-20T07:33:15.998Z</time></trkpt><trkpt lat="33.5836617" lon="9.9818933"><ele>221.0</ele><time>2026-04-20T07:33:16.998Z</time></trkpt><trkpt lat="33.583785" lon="9.9820433"><ele>222.0</ele><time>2026-04-20T07:33:17.998Z</time></trkpt><trkpt lat="33.5839283" lon="9.9821683"><ele>223.0</ele><time>2026-04-20T07:33:18.998Z</time></trkpt><trkpt lat="33.58408" lon="9.98227"><ele>224.0</ele><time>2026-04-20T07:33:19.999Z</time></trkpt><trkpt lat="33.58424" lon="9.9823367"><ele>224.0</ele><time>2026-04-20T07:33:20.998Z</time></trkpt><trkpt lat="33.5844083" lon="9.9823917"><ele>224.0</ele><time>2026-04-20T07:33:21.998Z</time></trkpt><trkpt lat="33.5845867" lon="9.9824233"><ele>224.0</ele><time>2026-04-20T07:33:22.998Z</time></trkpt><trkpt lat="33.58477" lon="9.9824517"><ele>224.33333333333334</ele><time>2026-04-20T07:33:23.998Z</time></trkpt><trkpt lat="33.584955" lon="9.9824833"><ele>224.66666666666669</ele><time>2026-04-20T07:33:24.998Z</time></trkpt><trkpt lat="33.5851333" lon="9.982505"><ele>225.0</ele><time>2026-04-20T07:33:25.998Z</time></trkpt><trkpt lat="33.585325" lon="9.9825383"><ele>226.0</ele><time>2026-04-20T07:33:26.998Z</time></trkpt><trkpt lat="33.585505" lon="9.9825533"><ele>227.0</ele><time>2026-04-20T07:33:27.998Z</time></trkpt><trkpt lat="33.5856783" lon="9.9825517"><ele>228.0</ele><time>2026-04-20T07:33:28.998Z</time></trkpt><trkpt lat="33.585855" lon="9.98251"><ele>230.66666666666669</ele><time>2026-04-20T07:33:29.998Z</time></trkpt><trkpt lat="33.5860217" lon="9.9824583"><ele>233.33333333333334</ele><time>2026-04-20T07:33:30.998Z</time></trkpt><trkpt lat="33.5861833" lon="9.98239"><ele>236.0</ele><time>2026-04-20T07:33:31.998Z</time></trkpt><trkpt lat="33.58635" lon="9.9823083"><ele>236.66666666666669</ele><time>2026-04-20T07:33:32.998Z</time></trkpt><trkpt lat="33.5865117" lon="9.9822317"><ele>237.33333333333331</ele><time>2026-04-20T07:33:33.998Z</time></trkpt><trkpt lat="33.58668" lon="9.9821583"><ele>238.0</ele><time>2026-04-20T07:33:34.998Z</time></trkpt><trkpt lat="33.5868533" lon="9.982105"><ele>239.0</ele><time>2026-04-20T07:33:35.998Z</time></trkpt><trkpt lat="33.5870283" lon="9.98207"><ele>240.0</ele><time>2026-04-20T07:33:36.998Z</time></trkpt><trkpt lat="33.5872017" lon="9.9820417"><ele>241.0</ele><time>2026-04-20T07:33:37.998Z</time></trkpt><trkpt lat="33.5873767" lon="9.9820383"><ele>241.0</ele><time>2026-04-20T07:33:38.998Z</time></trkpt><trkpt lat="33.587555" lon="9.9820667"><ele>241.0</ele><time>2026-04-20T07:33:39.998Z</time></trkpt><trkpt lat="33.58774" lon="9.9821167"><ele>241.0</ele><time>2026-04-20T07:33:40.998Z</time></trkpt><trkpt lat="33.58792" lon="9.98219"><ele>241.66666666666666</ele><time>2026-04-20T07:33:41.998Z</time></trkpt><trkpt lat="33.5880967" lon="9.9822767"><ele>242.33333333333331</ele><time>2026-04-20T07:33:42.998Z</time></trkpt><trkpt lat="33.588265" lon="9.9823867"><ele>243.0</ele><time>2026-04-20T07:33:43.998Z</time></trkpt><trkpt lat="33.588425" lon="9.9825083"><ele>242.0</ele><time>2026-04-20T07:33:44.998Z</time></trkpt><trkpt lat="33.5885917" lon="9.9826317"><ele>241.0</ele><time>2026-04-20T07:33:45.998Z</time></trkpt><trkpt lat="33.588765" lon="9.9827617"><ele>240.0</ele><time>2026-04-20T07:33:46.998Z</time></trkpt><trkpt lat="33.5889417" lon="9.98289"><ele>240.0</ele><time>2026-04-20T07:33:47.998Z</time></trkpt><trkpt lat="33.5891183" lon="9.9830283"><ele>240.0</ele><time>2026-04-20T07:33:48.998Z</time></trkpt><trkpt lat="33.589295" lon="9.983165"><ele>240.0</ele><time>2026-04-20T07:33:49.998Z</time></trkpt><trkpt lat="33.5894733" lon="9.9832983"><ele>240.0</ele><time>2026-04-20T07:33:50.998Z</time></trkpt><trkpt lat="33.5896583" lon="9.9834317"><ele>240.0</ele><time>2026-04-20T07:33:51.998Z</time></trkpt><trkpt lat="33.5898383" lon="9.98357"><ele>240.0</ele><time>2026-04-20T07:33:52.998Z</time></trkpt><trkpt lat="33.5900133" lon="9.9837133"><ele>240.0</ele><time>2026-04-20T07:33:53.998Z</time></trkpt><trkpt lat="33.5901917" lon="9.9838517"><ele>240.0</ele><time>2026-04-20T07:33:54.998Z</time></trkpt><trkpt lat="33.59036" lon="9.984015"><ele>240.0</ele><time>2026-04-20T07:33:55.998Z</time></trkpt><trkpt lat="33.5905233" lon="9.9841917"><ele>236.33333333333331</ele><time>2026-04-20T07:33:56.998Z</time></trkpt><trkpt lat="33.5906783" lon="9.9843733"><ele>232.66666666666666</ele><time>2026-04-20T07:33:57.998Z</time></trkpt><trkpt lat="33.5908367" lon="9.98456"><ele>229.0</ele><time>2026-04-20T07:33:58.998Z</time></trkpt><trkpt lat="33.5909833" lon="9.984745"><ele>229.0</ele><time>2026-04-20T07:33:59.998Z</time></trkpt><trkpt lat="33.591135" lon="9.9849317"><ele>229.0</ele><time>2026-04-20T07:34:00.998Z</time></trkpt><trkpt lat="33.5912967" lon="9.98511"><ele>229.0</ele><time>2026-04-20T07:34:01.998Z</time></trkpt><trkpt lat="33.5914583" lon="9.98529"><ele>228.33333333333331</ele><time>2026-04-20T07:34:02.998Z</time></trkpt><trkpt lat="33.5916233" lon="9.9854567"><ele>227.66666666666669</ele><time>2026-04-20T07:34:03.998Z</time></trkpt><trkpt lat="33.59179" lon="9.9856267"><ele>227.0</ele><time>2026-04-20T07:34:04.998Z</time></trkpt><trkpt lat="33.5919517" lon="9.9857967"><ele>225.33333333333334</ele><time>2026-04-20T07:34:05.998Z</time></trkpt><trkpt lat="33.5921167" lon="9.985965"><ele>223.66666666666669</ele><time>2026-04-20T07:34:06.998Z</time></trkpt><trkpt lat="33.5922817" lon="9.9861483"><ele>222.0</ele><time>2026-04-20T07:34:07.998Z</time></trkpt><trkpt lat="33.5924367" lon="9.9863283"><ele>222.0</ele><time>2026-04-20T07:34:08.998Z</time></trkpt><trkpt lat="33.5925967" lon="9.9865067"><ele>222.0</ele><time>2026-04-20T07:34:09.998Z</time></trkpt><trkpt lat="33.5927533" lon="9.9866817"><ele>222.0</ele><time>2026-04-20T07:34:10.998Z</time></trkpt><trkpt lat="33.5929083" lon="9.9868517"><ele>221.33333333333331</ele><time>2026-04-20T07:34:11.998Z</time></trkpt><trkpt lat="33.5930683" lon="9.9870233"><ele>220.66666666666666</ele><time>2026-04-20T07:34:12.998Z</time></trkpt><trkpt lat="33.5932433" lon="9.9871767"><ele>220.0</ele><time>2026-04-20T07:34:13.998Z</time></trkpt><trkpt lat="33.5934283" lon="9.98731"><ele>220.0</ele><time>2026-04-20T07:34:14.998Z</time></trkpt><trkpt lat="33.593625" lon="9.987425"><ele>220.0</ele><time>2026-04-20T07:34:15.998Z</time></trkpt><trkpt lat="33.5938283" lon="9.9875317"><ele>220.0</ele><time>2026-04-20T07:34:16.998Z</time></trkpt><trkpt lat="33.5940267" lon="9.9876117"><ele>220.0</ele><time>2026-04-20T07:34:17.998Z</time></trkpt><trkpt lat="33.5942333" lon="9.9876717"><ele>220.0</ele><time>2026-04-20T07:34:18.998Z</time></trkpt><trkpt lat="33.5944433" lon="9.9877017"><ele>220.0</ele><time>2026-04-20T07:34:19.998Z</time></trkpt><trkpt lat="33.59465" lon="9.9877133"><ele>220.0</ele><time>2026-04-20T07:34:20.998Z</time></trkpt><trkpt lat="33.59487" lon="9.9877067"><ele>220.0</ele><time>2026-04-20T07:34:21.998Z</time></trkpt><trkpt lat="33.595085" lon="9.9876933"><ele>220.0</ele><time>2026-04-20T07:34:22.998Z</time></trkpt><trkpt lat="33.5952933" lon="9.9876667"><ele>218.0</ele><time>2026-04-20T07:34:23.998Z</time></trkpt><trkpt lat="33.5954933" lon="9.9876267"><ele>216.0</ele><time>2026-04-20T07:34:24.998Z</time></trkpt><trkpt lat="33.5956817" lon="9.9875917"><ele>214.0</ele><time>2026-04-20T07:34:25.998Z</time></trkpt><trkpt lat="33.5958667" lon="9.9875667"><ele>214.0</ele><time>2026-04-20T07:34:26.998Z</time></trkpt><trkpt lat="33.59604" lon="9.98754"><ele>214.0</ele><time>2026-04-20T07:34:27.998Z</time></trkpt><trkpt lat="33.5962083" lon="9.9875183"><ele>214.0</ele><time>2026-04-20T07:34:28.998Z</time></trkpt><trkpt lat="33.5963667" lon="9.9874867"><ele>214.33333333333331</ele><time>2026-04-20T07:34:29.998Z</time></trkpt><trkpt lat="33.5965267" lon="9.9874567"><ele>214.66666666666669</ele><time>2026-04-20T07:34:30.998Z</time></trkpt><trkpt lat="33.5966833" lon="9.9874217"><ele>215.0</ele><time>2026-04-20T07:34:31.998Z</time></trkpt><trkpt lat="33.59684" lon="9.9873883"><ele>215.0</ele><time>2026-04-20T07:34:32.998Z</time></trkpt><trkpt lat="33.59699" lon="9.9873583"><ele>215.0</ele><time>2026-04-20T07:34:33.998Z</time></trkpt><trkpt lat="33.5971383" lon="9.98733"><ele>215.0</ele><time>2026-04-20T07:34:34.998Z</time></trkpt><trkpt lat="33.5972917" lon="9.9873117"><ele>213.66666666666669</ele><time>2026-04-20T07:34:35.998Z</time></trkpt><trkpt lat="33.5974433" lon="9.9872933"><ele>212.33333333333331</ele><time>2026-04-20T07:34:36.998Z</time></trkpt><trkpt lat="33.5975983" lon="9.9872783"><ele>211.0</ele><time>2026-04-20T07:34:37.998Z</time></trkpt><trkpt lat="33.5977567" lon="9.9872633"><ele>211.66666666666666</ele><time>2026-04-20T07:34:38.998Z</time></trkpt><trkpt lat="33.597915" lon="9.9872517"><ele>212.33333333333331</ele><time>2026-04-20T07:34:39.998Z</time></trkpt><trkpt lat="33.5980767" lon="9.987255"><ele>213.0</ele><time>2026-04-20T07:34:40.998Z</time></trkpt><trkpt lat="33.598245" lon="9.98726"><ele>213.0</ele><time>2026-04-20T07:34:41.998Z</time></trkpt><trkpt lat="33.59842" lon="9.98727"><ele>213.0</ele><time>2026-04-20T07:34:42.998Z</time></trkpt><trkpt lat="33.5985933" lon="9.9872933"><ele>213.0</ele><time>2026-04-20T07:34:43.998Z</time></trkpt><trkpt lat="33.5987733" lon="9.9873217"><ele>211.0</ele><time>2026-04-20T07:34:44.998Z</time></trkpt><trkpt lat="33.5989467" lon="9.9873583"><ele>209.0</ele><time>2026-04-20T07:34:45.998Z</time></trkpt><trkpt lat="33.5991233" lon="9.9874083"><ele>207.0</ele><time>2026-04-20T07:34:46.998Z</time></trkpt><trkpt lat="33.5992983" lon="9.9874533"><ele>206.0</ele><time>2026-04-20T07:34:47.998Z</time></trkpt><trkpt lat="33.5994783" lon="9.9875133"><ele>205.0</ele><time>2026-04-20T07:34:48.998Z</time></trkpt><trkpt lat="33.5996583" lon="9.987585"><ele>204.0</ele><time>2026-04-20T07:34:49.998Z</time></trkpt><trkpt lat="33.5998283" lon="9.9876717"><ele>201.33333333333331</ele><time>2026-04-20T07:34:50.998Z</time></trkpt><trkpt lat="33.6" lon="9.9877683"><ele>198.66666666666666</ele><time>2026-04-20T07:34:51.998Z</time></trkpt><trkpt lat="33.6001717" lon="9.9878683"><ele>196.0</ele><time>2026-04-20T07:34:52.998Z</time></trkpt><trkpt lat="33.600345" lon="9.9879767"><ele>194.66666666666666</ele><time>2026-04-20T07:34:53.998Z</time></trkpt><trkpt lat="33.6005233" lon="9.9880917"><ele>193.33333333333331</ele><time>2026-04-20T07:34:54.998Z</time></trkpt><trkpt lat="33.600695" lon="9.98823"><ele>192.0</ele><time>2026-04-20T07:34:55.998Z</time></trkpt><trkpt lat="33.6008583" lon="9.98839"><ele>192.0</ele><time>2026-04-20T07:34:56.998Z</time></trkpt><trkpt lat="33.6010183" lon="9.988555"><ele>192.0</ele><time>2026-04-20T07:34:57.998Z</time></trkpt><trkpt lat="33.60118" lon="9.98873"><ele>192.0</ele><time>2026-04-20T07:34:58.998Z</time></trkpt><trkpt lat="33.60134" lon="9.9889117"><ele>190.66666666666666</ele><time>2026-04-20T07:34:59.998Z</time></trkpt><trkpt lat="33.60149" lon="9.9890967"><ele>189.33333333333331</ele><time>2026-04-20T07:35:00.998Z</time></trkpt><trkpt lat="33.6016417" lon="9.9892933"><ele>188.0</ele><time>2026-04-20T07:35:01.998Z</time></trkpt><trkpt lat="33.60177" lon="9.9894933"><ele>188.0</ele><time>2026-04-20T07:35:02.998Z</time></trkpt><trkpt lat="33.6019017" lon="9.98972"><ele>188.0</ele><time>2026-04-20T07:35:03.998Z</time></trkpt><trkpt lat="33.6020267" lon="9.9899517"><ele>185.5</ele><time>2026-04-20T07:35:04.998Z</time></trkpt><trkpt lat="33.6021533" lon="9.9901817"><ele>183.0</ele><time>2026-04-20T07:35:05.998Z</time></trkpt><trkpt lat="33.6022733" lon="9.9904083"><ele>183.0</ele><time>2026-04-20T07:35:06.998Z</time></trkpt><trkpt lat="33.602385" lon="9.9906233"><ele>183.0</ele><time>2026-04-20T07:35:07.998Z</time></trkpt><trkpt lat="33.6024833" lon="9.9908217"><ele>183.0</ele><time>2026-04-20T07:35:08.998Z</time></trkpt><trkpt lat="33.6025783" lon="9.9910133"><ele>182.66666666666666</ele><time>2026-04-20T07:35:09.998Z</time></trkpt><trkpt lat="33.6026667" lon="9.9911833"><ele>182.33333333333331</ele><time>2026-04-20T07:35:10.998Z</time></trkpt><trkpt lat="33.6027783" lon="9.99133"><ele>182.0</ele><time>2026-04-20T07:35:11.998Z</time></trkpt><trkpt lat="33.60291" lon="9.99145"><ele>182.0</ele><time>2026-04-20T07:35:12.998Z</time></trkpt><trkpt lat="33.6030667" lon="9.9915517"><ele>182.0</ele><time>2026-04-20T07:35:13.998Z</time></trkpt><trkpt lat="33.6032367" lon="9.9916383"><ele>182.0</ele><time>2026-04-20T07:35:14.998Z</time></trkpt><trkpt lat="33.6034067" lon="9.991735"><ele>181.33333333333331</ele><time>2026-04-20T07:35:15.998Z</time></trkpt><trkpt lat="33.6035833" lon="9.9918333"><ele>180.66666666666666</ele><time>2026-04-20T07:35:16.998Z</time></trkpt><trkpt lat="33.6037667" lon="9.9919417"><ele>180.0</ele><time>2026-04-20T07:35:17.998Z</time></trkpt><trkpt lat="33.603955" lon="9.9920533"><ele>180.0</ele><time>2026-04-20T07:35:18.998Z</time></trkpt><trkpt lat="33.604145" lon="9.9921683"><ele>180.0</ele><time>2026-04-20T07:35:19.998Z</time></trkpt><trkpt lat="33.6043333" lon="9.9922883"><ele>180.0</ele><time>2026-04-20T07:35:20.998Z</time></trkpt><trkpt lat="33.6045317" lon="9.9924067"><ele>179.33333333333334</ele><time>2026-04-20T07:35:21.998Z</time></trkpt><trkpt lat="33.6047383" lon="9.99251"><ele>178.66666666666669</ele><time>2026-04-20T07:35:22.998Z</time></trkpt><trkpt lat="33.60495" lon="9.9925983"><ele>178.0</ele><time>2026-04-20T07:35:23.998Z</time></trkpt><trkpt lat="33.6051617" lon="9.9926617"><ele>178.0</ele><time>2026-04-20T07:35:24.998Z</time></trkpt><trkpt lat="33.605375" lon="9.992695"><ele>178.0</ele><time>2026-04-20T07:35:25.998Z</time></trkpt><trkpt lat="33.6056033" lon="9.9927167"><ele>178.0</ele><time>2026-04-20T07:35:26.998Z</time></trkpt><trkpt lat="33.6058333" lon="9.99274"><ele>178.0</ele><time>2026-04-20T07:35:27.998Z</time></trkpt><trkpt lat="33.606065" lon="9.992765"><ele>178.0</ele><time>2026-04-20T07:35:28.998Z</time></trkpt><trkpt lat="33.6062917" lon="9.9927917"><ele>179.5</ele><time>2026-04-20T07:35:29.998Z</time></trkpt><trkpt lat="33.6065183" lon="9.9928317"><ele>181.0</ele><time>2026-04-20T07:35:30.998Z</time></trkpt><trkpt lat="33.60675" lon="9.9928733"><ele>181.0</ele><time>2026-04-20T07:35:31.998Z</time></trkpt><trkpt lat="33.6069767" lon="9.992925"><ele>181.0</ele><time>2026-04-20T07:35:32.998Z</time></trkpt><trkpt lat="33.607205" lon="9.9929867"><ele>181.5</ele><time>2026-04-20T07:35:33.998Z</time></trkpt><trkpt lat="33.60743" lon="9.9930417"><ele>182.0</ele><time>2026-04-20T07:35:34.998Z</time></trkpt><trkpt lat="33.60766" lon="9.9931067"><ele>183.0</ele><time>2026-04-20T07:35:35.998Z</time></trkpt><trkpt lat="33.6078833" lon="9.9931683"><ele>184.0</ele><time>2026-04-20T07:35:36.998Z</time></trkpt><trkpt lat="33.60811" lon="9.99324"><ele>184.0</ele><time>2026-04-20T07:35:37.998Z</time></trkpt><trkpt lat="33.608335" lon="9.9933217"><ele>184.0</ele><time>2026-04-20T07:35:38.998Z</time></trkpt><trkpt lat="33.6085567" lon="9.993415"><ele>186.5</ele><time>2026-04-20T07:35:39.998Z</time></trkpt><trkpt lat="33.6087717" lon="9.993525"><ele>189.0</ele><time>2026-04-20T07:35:40.998Z</time></trkpt><trkpt lat="33.6089833" lon="9.9936467"><ele>189.0</ele><time>2026-04-20T07:35:41.998Z</time></trkpt><trkpt lat="33.60918" lon="9.9937767"><ele>189.0</ele><time>2026-04-20T07:35:42.998Z</time></trkpt><trkpt lat="33.6093683" lon="9.99391"><ele>189.0</ele><time>2026-04-20T07:35:43.998Z</time></trkpt><trkpt lat="33.6095633" lon="9.9940433"><ele>189.66666666666666</ele><time>2026-04-20T07:35:44.998Z</time></trkpt><trkpt lat="33.609755" lon="9.994165"><ele>190.33333333333331</ele><time>2026-04-20T07:35:45.998Z</time></trkpt><trkpt lat="33.6099433" lon="9.99428"><ele>191.0</ele><time>2026-04-20T07:35:46.998Z</time></trkpt><trkpt lat="33.6101267" lon="9.994405"><ele>191.0</ele><time>2026-04-20T07:35:47.998Z</time></trkpt><trkpt lat="33.610315" lon="9.99454"><ele>191.0</ele><time>2026-04-20T07:35:48.998Z</time></trkpt><trkpt lat="33.6104883" lon="9.994685"><ele>191.0</ele><time>2026-04-20T07:35:49.998Z</time></trkpt><trkpt lat="33.6106583" lon="9.99485"><ele>191.33333333333331</ele><time>2026-04-20T07:35:50.998Z</time></trkpt><trkpt lat="33.6107983" lon="9.995005"><ele>191.66666666666666</ele><time>2026-04-20T07:35:51.998Z</time></trkpt><trkpt lat="33.61093" lon="9.995155"><ele>192.0</ele><time>2026-04-20T07:35:52.998Z</time></trkpt><trkpt lat="33.6110633" lon="9.9952917"><ele>193.0</ele><time>2026-04-20T07:35:53.998Z</time></trkpt><trkpt lat="33.6111917" lon="9.9954267"><ele>194.0</ele><time>2026-04-20T07:35:54.998Z</time></trkpt><trkpt lat="33.6113017" lon="9.9955767"><ele>195.0</ele><time>2026-04-20T07:35:55.998Z</time></trkpt><trkpt lat="33.611395" lon="9.9957317"><ele>194.66666666666669</ele><time>2026-04-20T07:35:56.998Z</time></trkpt><trkpt lat="33.611465" lon="9.9958933"><ele>194.33333333333334</ele><time>2026-04-20T07:35:57.998Z</time></trkpt><trkpt lat="33.6115233" lon="9.9960717"><ele>194.0</ele><time>2026-04-20T07:35:58.998Z</time></trkpt><trkpt lat="33.61157" lon="9.9962517"><ele>194.0</ele><time>2026-04-20T07:35:59.998Z</time></trkpt><trkpt lat="33.6116183" lon="9.9964417"><ele>194.0</ele><time>2026-04-20T07:36:00.998Z</time></trkpt><trkpt lat="33.6116683" lon="9.9966417"><ele>194.0</ele><time>2026-04-20T07:36:01.998Z</time></trkpt><trkpt lat="33.6117217" lon="9.9968367"><ele>193.0</ele><time>2026-04-20T07:36:02.998Z</time></trkpt><trkpt lat="33.6117933" lon="9.997025"><ele>192.0</ele><time>2026-04-20T07:36:03.998Z</time></trkpt><trkpt lat="33.6118783" lon="9.9972117"><ele>191.0</ele><time>2026-04-20T07:36:04.998Z</time></trkpt><trkpt lat="33.6119717" lon="9.997395"><ele>191.33333333333331</ele><time>2026-04-20T07:36:05.998Z</time></trkpt><trkpt lat="33.61207" lon="9.9975733"><ele>191.66666666666666</ele><time>2026-04-20T07:36:06.998Z</time></trkpt><trkpt lat="33.6121817" lon="9.99775"><ele>192.0</ele><time>2026-04-20T07:36:07.998Z</time></trkpt><trkpt lat="33.6123067" lon="9.9979183"><ele>192.0</ele><time>2026-04-20T07:36:08.998Z</time></trkpt><trkpt lat="33.612445" lon="9.998075"><ele>192.0</ele><time>2026-04-20T07:36:09.998Z</time></trkpt><trkpt lat="33.6125867" lon="9.9982267"><ele>192.0</ele><time>2026-04-20T07:36:10.998Z</time></trkpt><trkpt lat="33.61274" lon="9.9983683"><ele>191.33333333333334</ele><time>2026-04-20T07:36:11.998Z</time></trkpt><trkpt lat="33.61289" lon="9.9984983"><ele>190.66666666666669</ele><time>2026-04-20T07:36:12.998Z</time></trkpt><trkpt lat="33.6130417" lon="9.9986183"><ele>190.0</ele><time>2026-04-20T07:36:13.998Z</time></trkpt><trkpt lat="33.6131817" lon="9.9987283"><ele>190.0</ele><time>2026-04-20T07:36:14.998Z</time></trkpt><trkpt lat="33.61332" lon="9.9988267"><ele>190.0</ele><time>2026-04-20T07:36:15.998Z</time></trkpt><trkpt lat="33.6134533" lon="9.9989233"><ele>190.0</ele><time>2026-04-20T07:36:16.998Z</time></trkpt><trkpt lat="33.6135833" lon="9.9990283"><ele>189.66666666666669</ele><time>2026-04-20T07:36:17.998Z</time></trkpt><trkpt lat="33.613715" lon="9.9991367"><ele>189.33333333333334</ele><time>2026-04-20T07:36:18.998Z</time></trkpt><trkpt lat="33.6138433" lon="9.999235"><ele>189.0</ele><time>2026-04-20T07:36:19.998Z</time></trkpt><trkpt lat="33.613965" lon="9.9993167"><ele>189.0</ele><time>2026-04-20T07:36:20.998Z</time></trkpt><trkpt lat="33.6140783" lon="9.9993967"><ele>189.0</ele><time>2026-04-20T07:36:21.998Z</time></trkpt><trkpt lat="33.614195" lon="9.99946"><ele>189.0</ele><time>2026-04-20T07:36:22.998Z</time></trkpt><trkpt lat="33.614315" lon="9.9995233"><ele>189.0</ele><time>2026-04-20T07:36:23.998Z</time></trkpt><trkpt lat="33.614435" lon="9.9995817"><ele>188.5</ele><time>2026-04-20T07:36:24.998Z</time></trkpt><trkpt lat="33.6145633" lon="9.999625"><ele>188.0</ele><time>2026-04-20T07:36:25.998Z</time></trkpt><trkpt lat="33.6147033" lon="9.9996533"><ele>187.5</ele><time>2026-04-20T07:36:26.998Z</time></trkpt><trkpt lat="33.6148517" lon="9.9996683"><ele>187.0</ele><time>2026-04-20T07:36:27.998Z</time></trkpt><trkpt lat="33.6150033" lon="9.9996633"><ele>187.0</ele><time>2026-04-20T07:36:28.998Z</time></trkpt><trkpt lat="33.615165" lon="9.9996483"><ele>187.0</ele><time>2026-04-20T07:36:29.998Z</time></trkpt><trkpt lat="33.615325" lon="9.9996283"><ele>187.0</ele><time>2026-04-20T07:36:30.998Z</time></trkpt><trkpt lat="33.6154917" lon="9.9996083"><ele>186.33333333333334</ele><time>2026-04-20T07:36:31.998Z</time></trkpt><trkpt lat="33.6156583" lon="9.99961"><ele>185.66666666666666</ele><time>2026-04-20T07:36:32.998Z</time></trkpt><trkpt lat="33.615825" lon="9.9996267"><ele>185.0</ele><time>2026-04-20T07:36:33.998Z</time></trkpt><trkpt lat="33.6159917" lon="9.9996783"><ele>185.33333333333331</ele><time>2026-04-20T07:36:34.998Z</time></trkpt><trkpt lat="33.616155" lon="9.9997567"><ele>185.66666666666666</ele><time>2026-04-20T07:36:35.998Z</time></trkpt><trkpt lat="33.6163217" lon="9.9998617"><ele>186.0</ele><time>2026-04-20T07:36:36.998Z</time></trkpt><trkpt lat="33.616465" lon="9.999985"><ele>186.0</ele><time>2026-04-20T07:36:37.999Z</time></trkpt><trkpt lat="33.6166133" lon="10.0001183"><ele>186.0</ele><time>2026-04-20T07:36:38.998Z</time></trkpt><trkpt lat="33.6167583" lon="10.00025"><ele>186.0</ele><time>2026-04-20T07:36:39.998Z</time></trkpt><trkpt lat="33.616905" lon="10.0003933"><ele>184.33333333333334</ele><time>2026-04-20T07:36:40.998Z</time></trkpt><trkpt lat="33.6170533" lon="10.0005317"><ele>182.66666666666669</ele><time>2026-04-20T07:36:41.998Z</time></trkpt><trkpt lat="33.617205" lon="10.000665"><ele>181.0</ele><time>2026-04-20T07:36:42.998Z</time></trkpt><trkpt lat="33.61736" lon="10.0008067"><ele>181.33333333333334</ele><time>2026-04-20T07:36:43.998Z</time></trkpt><trkpt lat="33.61751" lon="10.0009417"><ele>181.66666666666666</ele><time>2026-04-20T07:36:44.998Z</time></trkpt><trkpt lat="33.6176617" lon="10.00108"><ele>182.0</ele><time>2026-04-20T07:36:45.998Z</time></trkpt><trkpt lat="33.6178233" lon="10.001215"><ele>182.0</ele><time>2026-04-20T07:36:46.998Z</time></trkpt><trkpt lat="33.6179883" lon="10.0013433"><ele>182.0</ele><time>2026-04-20T07:36:47.998Z</time></trkpt><trkpt lat="33.61815" lon="10.0014633"><ele>182.0</ele><time>2026-04-20T07:36:48.998Z</time></trkpt><trkpt lat="33.6183233" lon="10.001575"><ele>182.33333333333331</ele><time>2026-04-20T07:36:49.998Z</time></trkpt><trkpt lat="33.6184933" lon="10.0016883"><ele>182.66666666666666</ele><time>2026-04-20T07:36:50.998Z</time></trkpt><trkpt lat="33.6186717" lon="10.00179"><ele>183.0</ele><time>2026-04-20T07:36:51.998Z</time></trkpt><trkpt lat="33.61886" lon="10.0018833"><ele>181.66666666666666</ele><time>2026-04-20T07:36:52.998Z</time></trkpt><trkpt lat="33.6190467" lon="10.001965"><ele>180.33333333333331</ele><time>2026-04-20T07:36:53.998Z</time></trkpt><trkpt lat="33.6192417" lon="10.0020417"><ele>179.0</ele><time>2026-04-20T07:36:54.998Z</time></trkpt><trkpt lat="33.6194383" lon="10.002105"><ele>178.33333333333331</ele><time>2026-04-20T07:36:55.998Z</time></trkpt><trkpt lat="33.6196483" lon="10.00215"><ele>177.66666666666666</ele><time>2026-04-20T07:36:56.998Z</time></trkpt><trkpt lat="33.619865" lon="10.0021883"><ele>177.0</ele><time>2026-04-20T07:36:57.998Z</time></trkpt><trkpt lat="33.62008" lon="10.002215"><ele>177.0</ele><time>2026-04-20T07:36:58.998Z</time></trkpt><trkpt lat="33.6203" lon="10.0022283"><ele>177.0</ele><time>2026-04-20T07:36:59.998Z</time></trkpt><trkpt lat="33.62052" lon="10.00223"><ele>177.0</ele><time>2026-04-20T07:37:00.998Z</time></trkpt><trkpt lat="33.6207483" lon="10.0022233"><ele>174.5</ele><time>2026-04-20T07:37:01.998Z</time></trkpt><trkpt lat="33.620975" lon="10.0022183"><ele>172.0</ele><time>2026-04-20T07:37:02.998Z</time></trkpt><trkpt lat="33.62121" lon="10.0022067"><ele>170.5</ele><time>2026-04-20T07:37:03.998Z</time></trkpt><trkpt lat="33.6214433" lon="10.0021883"><ele>169.0</ele><time>2026-04-20T07:37:04.998Z</time></trkpt><trkpt lat="33.62168" lon="10.0021733"><ele>169.0</ele><time>2026-04-20T07:37:05.998Z</time></trkpt><trkpt lat="33.6219183" lon="10.0021667"><ele>169.0</ele><time>2026-04-20T07:37:06.998Z</time></trkpt><trkpt lat="33.6221567" lon="10.0021533"><ele>168.5</ele><time>2026-04-20T07:37:07.998Z</time></trkpt><trkpt lat="33.6223917" lon="10.002145"><ele>168.0</ele><time>2026-04-20T07:37:08.998Z</time></trkpt><trkpt lat="33.6226217" lon="10.002135"><ele>165.5</ele><time>2026-04-20T07:37:09.998Z</time></trkpt><trkpt lat="33.6228533" lon="10.0021283"><ele>163.0</ele><time>2026-04-20T07:37:10.998Z</time></trkpt><trkpt lat="33.6230883" lon="10.0021233"><ele>163.0</ele><time>2026-04-20T07:37:11.998Z</time></trkpt><trkpt lat="33.6233167" lon="10.0021367"><ele>163.0</ele><time>2026-04-20T07:37:12.998Z</time></trkpt><trkpt lat="33.623535" lon="10.0022"><ele>162.33333333333334</ele><time>2026-04-20T07:37:13.998Z</time></trkpt><trkpt lat="33.6237317" lon="10.0023167"><ele>161.66666666666666</ele><time>2026-04-20T07:37:14.998Z</time></trkpt><trkpt lat="33.6239083" lon="10.0024633"><ele>161.0</ele><time>2026-04-20T07:37:15.998Z</time></trkpt><trkpt lat="33.6240717" lon="10.002625"><ele>161.0</ele><time>2026-04-20T07:37:16.998Z</time></trkpt><trkpt lat="33.6242233" lon="10.0028017"><ele>161.0</ele><time>2026-04-20T07:37:17.998Z</time></trkpt><trkpt lat="33.6243867" lon="10.0029583"><ele>161.0</ele><time>2026-04-20T07:37:18.998Z</time></trkpt><trkpt lat="33.6245533" lon="10.0031083"><ele>161.33333333333331</ele><time>2026-04-20T07:37:19.998Z</time></trkpt><trkpt lat="33.6247333" lon="10.00324"><ele>161.66666666666666</ele><time>2026-04-20T07:37:20.998Z</time></trkpt><trkpt lat="33.6249267" lon="10.00335"><ele>162.0</ele><time>2026-04-20T07:37:21.998Z</time></trkpt><trkpt lat="33.6251267" lon="10.0034467"><ele>162.33333333333334</ele><time>2026-04-20T07:37:22.998Z</time></trkpt><trkpt lat="33.62533" lon="10.003525"><ele>162.66666666666669</ele><time>2026-04-20T07:37:23.998Z</time></trkpt><trkpt lat="33.6255433" lon="10.0036"><ele>163.0</ele><time>2026-04-20T07:37:24.998Z</time></trkpt><trkpt lat="33.6257617" lon="10.0036683"><ele>163.0</ele><time>2026-04-20T07:37:25.998Z</time></trkpt><trkpt lat="33.6259833" lon="10.0037283"><ele>163.0</ele><time>2026-04-20T07:37:26.998Z</time></trkpt><trkpt lat="33.6262" lon="10.0037867"><ele>163.0</ele><time>2026-04-20T07:37:27.998Z</time></trkpt><trkpt lat="33.6264167" lon="10.0038367"><ele>162.66666666666669</ele><time>2026-04-20T07:37:28.998Z</time></trkpt><trkpt lat="33.626625" lon="10.0038733"><ele>162.33333333333334</ele><time>2026-04-20T07:37:29.998Z</time></trkpt><trkpt lat="33.6268417" lon="10.0038933"><ele>162.0</ele><time>2026-04-20T07:37:30.998Z</time></trkpt><trkpt lat="33.62707" lon="10.0039217"><ele>161.0</ele><time>2026-04-20T07:37:31.998Z</time></trkpt><trkpt lat="33.6272917" lon="10.003945"><ele>160.0</ele><time>2026-04-20T07:37:32.998Z</time></trkpt><trkpt lat="33.6275167" lon="10.0039683"><ele>159.0</ele><time>2026-04-20T07:37:33.998Z</time></trkpt><trkpt lat="33.6277417" lon="10.0039767"><ele>158.33333333333334</ele><time>2026-04-20T07:37:34.998Z</time></trkpt><trkpt lat="33.627965" lon="10.0039983"><ele>157.66666666666669</ele><time>2026-04-20T07:37:35.998Z</time></trkpt><trkpt lat="33.6281867" lon="10.004025"><ele>157.0</ele><time>2026-04-20T07:37:36.998Z</time></trkpt><trkpt lat="33.6284117" lon="10.0040467"><ele>157.0</ele><time>2026-04-20T07:37:37.998Z</time></trkpt><trkpt lat="33.6286317" lon="10.004075"><ele>157.0</ele><time>2026-04-20T07:37:38.998Z</time></trkpt><trkpt lat="33.62885" lon="10.0040967"><ele>157.0</ele><time>2026-04-20T07:37:39.998Z</time></trkpt><trkpt lat="33.62907" lon="10.004115"><ele>157.5</ele><time>2026-04-20T07:37:40.998Z</time></trkpt><trkpt lat="33.6292967" lon="10.0041433"><ele>158.0</ele><time>2026-04-20T07:37:41.998Z</time></trkpt><trkpt lat="33.6295183" lon="10.0041633"><ele>158.0</ele><time>2026-04-20T07:37:42.998Z</time></trkpt><trkpt lat="33.629745" lon="10.0041967"><ele>158.0</ele><time>2026-04-20T07:37:43.998Z</time></trkpt><trkpt lat="33.6299667" lon="10.004225"><ele>158.0</ele><time>2026-04-20T07:37:44.998Z</time></trkpt><trkpt lat="33.6301867" lon="10.00425"><ele>158.0</ele><time>2026-04-20T07:37:45.998Z</time></trkpt><trkpt lat="33.6304083" lon="10.0042717"><ele>158.0</ele><time>2026-04-20T07:37:46.998Z</time></trkpt><trkpt lat="33.6306333" lon="10.004295"><ele>157.0</ele><time>2026-04-20T07:37:47.998Z</time></trkpt><trkpt lat="33.6308533" lon="10.00431"><ele>156.0</ele><time>2026-04-20T07:37:48.998Z</time></trkpt><trkpt lat="33.6310717" lon="10.0043367"><ele>155.0</ele><time>2026-04-20T07:37:49.998Z</time></trkpt><trkpt lat="33.6312967" lon="10.0043667"><ele>154.0</ele><time>2026-04-20T07:37:50.998Z</time></trkpt><trkpt lat="33.6315233" lon="10.0044"><ele>153.0</ele><time>2026-04-20T07:37:51.998Z</time></trkpt><trkpt lat="33.6317483" lon="10.004445"><ele>153.0</ele><time>2026-04-20T07:37:52.998Z</time></trkpt><trkpt lat="33.63197" lon="10.0045067"><ele>153.0</ele><time>2026-04-20T07:37:53.998Z</time></trkpt><trkpt lat="33.63219" lon="10.00457"><ele>152.5</ele><time>2026-04-20T07:37:54.998Z</time></trkpt><trkpt lat="33.6324083" lon="10.0046417"><ele>152.0</ele><time>2026-04-20T07:37:55.998Z</time></trkpt><trkpt lat="33.6326267" lon="10.0047133"><ele>150.5</ele><time>2026-04-20T07:37:56.998Z</time></trkpt><trkpt lat="33.6328433" lon="10.0047883"><ele>149.0</ele><time>2026-04-20T07:37:57.998Z</time></trkpt><trkpt lat="33.6330617" lon="10.0048667"><ele>149.0</ele><time>2026-04-20T07:37:58.998Z</time></trkpt><trkpt lat="33.6332717" lon="10.0049483"><ele>149.0</ele><time>2026-04-20T07:37:59.998Z</time></trkpt><trkpt lat="33.6334833" lon="10.0050367"><ele>149.0</ele><time>2026-04-20T07:38:00.998Z</time></trkpt><trkpt lat="33.63369" lon="10.005125"><ele>150.0</ele><time>2026-04-20T07:38:01.998Z</time></trkpt><trkpt lat="33.6338883" lon="10.0052333"><ele>151.0</ele><time>2026-04-20T07:38:02.998Z</time></trkpt><trkpt lat="33.6340917" lon="10.0053467"><ele>152.0</ele><time>2026-04-20T07:38:03.998Z</time></trkpt><trkpt lat="33.6342867" lon="10.00547"><ele>152.33333333333331</ele><time>2026-04-20T07:38:04.998Z</time></trkpt><trkpt lat="33.634475" lon="10.0055933"><ele>152.66666666666666</ele><time>2026-04-20T07:38:05.998Z</time></trkpt><trkpt lat="33.6346633" lon="10.0057267"><ele>153.0</ele><time>2026-04-20T07:38:06.998Z</time></trkpt><trkpt lat="33.6348417" lon="10.0058617"><ele>153.0</ele><time>2026-04-20T07:38:07.998Z</time></trkpt><trkpt lat="33.6350283" lon="10.00599"><ele>153.0</ele><time>2026-04-20T07:38:08.998Z</time></trkpt><trkpt lat="33.6352217" lon="10.0061117"><ele>153.0</ele><time>2026-04-20T07:38:09.998Z</time></trkpt><trkpt lat="33.6354083" lon="10.00624"><ele>152.33333333333334</ele><time>2026-04-20T07:38:10.998Z</time></trkpt><trkpt lat="33.6355967" lon="10.0063683"><ele>151.66666666666669</ele><time>2026-04-20T07:38:11.998Z</time></trkpt><trkpt lat="33.635785" lon="10.0064983"><ele>151.0</ele><time>2026-04-20T07:38:12.998Z</time></trkpt><trkpt lat="33.635975" lon="10.0066233"><ele>152.0</ele><time>2026-04-20T07:38:13.998Z</time></trkpt><trkpt lat="33.636165" lon="10.00676"><ele>153.0</ele><time>2026-04-20T07:38:14.998Z</time></trkpt><trkpt lat="33.63636" lon="10.0068883"><ele>154.0</ele><time>2026-04-20T07:38:15.998Z</time></trkpt><trkpt lat="33.6365567" lon="10.00701"><ele>154.0</ele><time>2026-04-20T07:38:16.998Z</time></trkpt><trkpt lat="33.63675" lon="10.007135"><ele>154.0</ele><time>2026-04-20T07:38:17.998Z</time></trkpt><trkpt lat="33.6369467" lon="10.0072533"><ele>154.0</ele><time>2026-04-20T07:38:18.998Z</time></trkpt><trkpt lat="33.6371383" lon="10.0073583"><ele>153.66666666666669</ele><time>2026-04-20T07:38:19.998Z</time></trkpt><trkpt lat="33.63734" lon="10.0074533"><ele>153.33333333333334</ele><time>2026-04-20T07:38:20.998Z</time></trkpt><trkpt lat="33.6375417" lon="10.00754"><ele>153.0</ele><time>2026-04-20T07:38:21.998Z</time></trkpt><trkpt lat="33.6377517" lon="10.0076283"><ele>152.33333333333334</ele><time>2026-04-20T07:38:22.998Z</time></trkpt><trkpt lat="33.637965" lon="10.0077117"><ele>151.66666666666669</ele><time>2026-04-20T07:38:23.998Z</time></trkpt><trkpt lat="33.638175" lon="10.007785"><ele>151.0</ele><time>2026-04-20T07:38:24.998Z</time></trkpt><trkpt lat="33.6383967" lon="10.0078683"><ele>151.0</ele><time>2026-04-20T07:38:25.998Z</time></trkpt><trkpt lat="33.638615" lon="10.0079567"><ele>151.0</ele><time>2026-04-20T07:38:26.998Z</time></trkpt><trkpt lat="33.63883" lon="10.008045"><ele>150.0</ele><time>2026-04-20T07:38:27.998Z</time></trkpt><trkpt lat="33.639045" lon="10.00814"><ele>149.0</ele><time>2026-04-20T07:38:28.998Z</time></trkpt><trkpt lat="33.6392633" lon="10.00823"><ele>148.5</ele><time>2026-04-20T07:38:29.998Z</time></trkpt><trkpt lat="33.6394767" lon="10.00832"><ele>148.0</ele><time>2026-04-20T07:38:30.998Z</time></trkpt><trkpt lat="33.639695" lon="10.0084083"><ele>148.0</ele><time>2026-04-20T07:38:31.998Z</time></trkpt><trkpt lat="33.63991" lon="10.0085067"><ele>148.0</ele><time>2026-04-20T07:38:32.998Z</time></trkpt><trkpt lat="33.6401183" lon="10.0086017"><ele>146.5</ele><time>2026-04-20T07:38:33.998Z</time></trkpt><trkpt lat="33.6403333" lon="10.0086917"><ele>145.0</ele><time>2026-04-20T07:38:34.998Z</time></trkpt><trkpt lat="33.64055" lon="10.008785"><ele>145.0</ele><time>2026-04-20T07:38:35.998Z</time></trkpt><trkpt lat="33.6407633" lon="10.0088667"><ele>145.0</ele><time>2026-04-20T07:38:36.998Z</time></trkpt><trkpt lat="33.6409867" lon="10.0089533"><ele>145.5</ele><time>2026-04-20T07:38:37.998Z</time></trkpt><trkpt lat="33.6412033" lon="10.0090417"><ele>146.0</ele><time>2026-04-20T07:38:38.998Z</time></trkpt><trkpt lat="33.6414183" lon="10.0091367"><ele>146.5</ele><time>2026-04-20T07:38:39.998Z</time></trkpt><trkpt lat="33.6416317" lon="10.0092233"><ele>147.0</ele><time>2026-04-20T07:38:40.998Z</time></trkpt><trkpt lat="33.6418467" lon="10.0093067"><ele>146.66666666666666</ele><time>2026-04-20T07:38:41.998Z</time></trkpt><trkpt lat="33.6420583" lon="10.0093933"><ele>146.33333333333331</ele><time>2026-04-20T07:38:42.998Z</time></trkpt><trkpt lat="33.6422717" lon="10.0094783"><ele>146.0</ele><time>2026-04-20T07:38:43.998Z</time></trkpt><trkpt lat="33.6424817" lon="10.00957"><ele>146.0</ele><time>2026-04-20T07:38:44.998Z</time></trkpt><trkpt lat="33.64269" lon="10.0096533"><ele>146.0</ele><time>2026-04-20T07:38:45.998Z</time></trkpt><trkpt lat="33.6428983" lon="10.009735"><ele>146.0</ele><time>2026-04-20T07:38:46.998Z</time></trkpt><trkpt lat="33.6431083" lon="10.009825"><ele>146.0</ele><time>2026-04-20T07:38:47.998Z</time></trkpt><trkpt lat="33.6433183" lon="10.0099167"><ele>146.0</ele><time>2026-04-20T07:38:48.998Z</time></trkpt><trkpt lat="33.6435267" lon="10.01"><ele>146.0</ele><time>2026-04-20T07:38:49.998Z</time></trkpt><trkpt lat="33.6437383" lon="10.0100833"><ele>147.0</ele><time>2026-04-20T07:38:50.998Z</time></trkpt><trkpt lat="33.6439533" lon="10.01017"><ele>148.0</ele><time>2026-04-20T07:38:51.998Z</time></trkpt><trkpt lat="33.644175" lon="10.0102533"><ele>148.0</ele><time>2026-04-20T07:38:52.998Z</time></trkpt><trkpt lat="33.6443883" lon="10.0103367"><ele>148.0</ele><time>2026-04-20T07:38:53.998Z</time></trkpt><trkpt lat="33.6446017" lon="10.0104167"><ele>148.0</ele><time>2026-04-20T07:38:54.998Z</time></trkpt><trkpt lat="33.64482" lon="10.010485"><ele>146.66666666666669</ele><time>2026-04-20T07:38:55.998Z</time></trkpt><trkpt lat="33.6450417" lon="10.010535"><ele>145.33333333333334</ele><time>2026-04-20T07:38:56.998Z</time></trkpt><trkpt lat="33.6452617" lon="10.0105717"><ele>144.0</ele><time>2026-04-20T07:38:57.998Z</time></trkpt><trkpt lat="33.6454883" lon="10.0106117"><ele>143.0</ele><time>2026-04-20T07:38:58.998Z</time></trkpt><trkpt lat="33.6457167" lon="10.010635"><ele>142.0</ele><time>2026-04-20T07:38:59.998Z</time></trkpt><trkpt lat="33.6459467" lon="10.0106383"><ele>141.0</ele><time>2026-04-20T07:39:00.998Z</time></trkpt><trkpt lat="33.6461767" lon="10.010655"><ele>140.0</ele><time>2026-04-20T07:39:01.998Z</time></trkpt><trkpt lat="33.6464083" lon="10.01067"><ele>140.0</ele><time>2026-04-20T07:39:02.998Z</time></trkpt><trkpt lat="33.6466367" lon="10.0106767"><ele>140.0</ele><time>2026-04-20T07:39:03.998Z</time></trkpt><trkpt lat="33.64687" lon="10.0106933"><ele>139.5</ele><time>2026-04-20T07:39:04.998Z</time></trkpt><trkpt lat="33.6471017" lon="10.0107067"><ele>139.0</ele><time>2026-04-20T07:39:05.998Z</time></trkpt><trkpt lat="33.6473383" lon="10.0107217"><ele>139.0</ele><time>2026-04-20T07:39:06.998Z</time></trkpt><trkpt lat="33.647575" lon="10.0107383"><ele>139.0</ele><time>2026-04-20T07:39:07.998Z</time></trkpt><trkpt lat="33.647815" lon="10.0107467"><ele>140.5</ele><time>2026-04-20T07:39:08.998Z</time></trkpt><trkpt lat="33.6480517" lon="10.0107617"><ele>142.0</ele><time>2026-04-20T07:39:09.998Z</time></trkpt><trkpt lat="33.648295" lon="10.01078"><ele>142.0</ele><time>2026-04-20T07:39:10.998Z</time></trkpt><trkpt lat="33.6485317" lon="10.0108017"><ele>142.0</ele><time>2026-04-20T07:39:11.998Z</time></trkpt><trkpt lat="33.6487667" lon="10.010815"><ele>140.5</ele><time>2026-04-20T07:39:12.998Z</time></trkpt><trkpt lat="33.6490017" lon="10.010825"><ele>139.0</ele><time>2026-04-20T07:39:13.998Z</time></trkpt><trkpt lat="33.6492333" lon="10.0108467"><ele>138.0</ele><time>2026-04-20T07:39:14.998Z</time></trkpt><trkpt lat="33.64947" lon="10.0108817"><ele>137.0</ele><time>2026-04-20T07:39:15.998Z</time></trkpt><trkpt lat="33.6497017" lon="10.0109"><ele>137.0</ele><time>2026-04-20T07:39:16.998Z</time></trkpt><trkpt lat="33.6499317" lon="10.0109233"><ele>137.0</ele><time>2026-04-20T07:39:17.998Z</time></trkpt><trkpt lat="33.6501633" lon="10.0109567"><ele>137.5</ele><time>2026-04-20T07:39:18.998Z</time></trkpt><trkpt lat="33.6503933" lon="10.010985"><ele>138.0</ele><time>2026-04-20T07:39:19.998Z</time></trkpt><trkpt lat="33.6506167" lon="10.01101"><ele>138.0</ele><time>2026-04-20T07:39:20.998Z</time></trkpt><trkpt lat="33.650835" lon="10.0110367"><ele>138.0</ele><time>2026-04-20T07:39:21.998Z</time></trkpt><trkpt lat="33.6510517" lon="10.0110667"><ele>138.0</ele><time>2026-04-20T07:39:22.998Z</time></trkpt><trkpt lat="33.6512683" lon="10.0111017"><ele>137.33333333333334</ele><time>2026-04-20T07:39:23.998Z</time></trkpt><trkpt lat="33.6514883" lon="10.0111383"><ele>136.66666666666669</ele><time>2026-04-20T07:39:24.998Z</time></trkpt><trkpt lat="33.6516967" lon="10.0111817"><ele>136.0</ele><time>2026-04-20T07:39:25.998Z</time></trkpt><trkpt lat="33.6519117" lon="10.0112217"><ele>135.33333333333334</ele><time>2026-04-20T07:39:26.998Z</time></trkpt><trkpt lat="33.652115" lon="10.0112633"><ele>134.66666666666666</ele><time>2026-04-20T07:39:27.998Z</time></trkpt><trkpt lat="33.6523183" lon="10.0113067"><ele>134.0</ele><time>2026-04-20T07:39:28.998Z</time></trkpt><trkpt lat="33.6525217" lon="10.0113517"><ele>134.0</ele><time>2026-04-20T07:39:29.998Z</time></trkpt><trkpt lat="33.6527283" lon="10.0113867"><ele>134.0</ele><time>2026-04-20T07:39:30.998Z</time></trkpt><trkpt lat="33.652925" lon="10.0114233"><ele>134.0</ele><time>2026-04-20T07:39:31.998Z</time></trkpt><trkpt lat="33.6531117" lon="10.0114533"><ele>134.0</ele><time>2026-04-20T07:39:32.998Z</time></trkpt><trkpt lat="33.6532883" lon="10.0114833"><ele>134.0</ele><time>2026-04-20T07:39:33.998Z</time></trkpt><trkpt lat="33.6534567" lon="10.01152"><ele>134.0</ele><time>2026-04-20T07:39:34.998Z</time></trkpt><trkpt lat="33.6536067" lon="10.0115583"><ele>134.75</ele><time>2026-04-20T07:39:35.998Z</time></trkpt><trkpt lat="33.6537517" lon="10.0115983"><ele>135.5</ele><time>2026-04-20T07:39:36.998Z</time></trkpt><trkpt lat="33.6538867" lon="10.0116283"><ele>136.25</ele><time>2026-04-20T07:39:37.998Z</time></trkpt><trkpt lat="33.654005" lon="10.0116533"><ele>137.0</ele><time>2026-04-20T07:39:38.998Z</time></trkpt><trkpt lat="33.6541133" lon="10.0116783"><ele>137.0</ele><time>2026-04-20T07:39:39.998Z</time></trkpt><trkpt lat="33.6542083" lon="10.0117"><ele>137.0</ele><time>2026-04-20T07:39:40.998Z</time></trkpt><trkpt lat="33.6542833" lon="10.0117233"><ele>137.0</ele><time>2026-04-20T07:39:41.998Z</time></trkpt><trkpt lat="33.6543467" lon="10.01175"><ele>137.0</ele><time>2026-04-20T07:39:42.998Z</time></trkpt><trkpt lat="33.6544167" lon="10.011855"><ele>137.0</ele><time>2026-04-20T07:39:44.998Z</time></trkpt><trkpt lat="33.6544383" lon="10.0119567"><ele>137.0</ele><time>2026-04-20T07:39:46.998Z</time></trkpt><trkpt lat="33.6544433" lon="10.012035"><ele>137.0</ele><time>2026-04-20T07:39:48.998Z</time></trkpt><trkpt lat="33.6545067" lon="10.01207"><ele>137.0</ele><time>2026-04-20T07:39:51.998Z</time></trkpt><trkpt lat="33.654435" lon="10.0121017"><ele>137.0</ele><time>2026-04-20T07:46:17.997Z</time></trkpt><trkpt lat="33.654415" lon="10.012005"><ele>137.0</ele><time>2026-04-20T07:46:19.997Z</time></trkpt><trkpt lat="33.6543967" lon="10.01188"><ele>137.0</ele><time>2026-04-20T07:46:21.997Z</time></trkpt><trkpt lat="33.65438" lon="10.011805"><ele>137.0</ele><time>2026-04-20T07:46:22.997Z</time></trkpt><trkpt lat="33.6543317" lon="10.0117117"><ele>137.0</ele><time>2026-04-20T07:46:24.997Z</time></trkpt><trkpt lat="33.654225" lon="10.0116617"><ele>137.0</ele><time>2026-04-20T07:46:26.997Z</time></trkpt><trkpt lat="33.6541517" lon="10.0116467"><ele>137.0</ele><time>2026-04-20T07:46:27.997Z</time></trkpt><trkpt lat="33.6540633" lon="10.01163"><ele>137.0</ele><time>2026-04-20T07:46:28.997Z</time></trkpt><trkpt lat="33.6539583" lon="10.0116067"><ele>137.0</ele><time>2026-04-20T07:46:29.997Z</time></trkpt><trkpt lat="33.6538467" lon="10.0115833"><ele>137.0</ele><time>2026-04-20T07:46:30.997Z</time></trkpt><trkpt lat="33.653725" lon="10.0115583"><ele>137.0</ele><time>2026-04-20T07:46:31.997Z</time></trkpt><trkpt lat="33.653605" lon="10.0115317"><ele>137.0</ele><time>2026-04-20T07:46:32.997Z</time></trkpt><trkpt lat="33.6534783" lon="10.0115"><ele>137.0</ele><time>2026-04-20T07:46:33.997Z</time></trkpt><trkpt lat="33.6533467" lon="10.0114717"><ele>136.25</ele><time>2026-04-20T07:46:34.997Z</time></trkpt><trkpt lat="33.6532167" lon="10.0114433"><ele>135.5</ele><time>2026-04-20T07:46:35.997Z</time></trkpt><trkpt lat="33.65308" lon="10.011415"><ele>134.75</ele><time>2026-04-20T07:46:36.997Z</time></trkpt><trkpt lat="33.652945" lon="10.0113917"><ele>134.0</ele><time>2026-04-20T07:46:37.997Z</time></trkpt><trkpt lat="33.6528033" lon="10.0113617"><ele>134.0</ele><time>2026-04-20T07:46:38.997Z</time></trkpt><trkpt lat="33.6526567" lon="10.0113267"><ele>134.0</ele><time>2026-04-20T07:46:39.997Z</time></trkpt><trkpt lat="33.6525067" lon="10.0112967"><ele>134.0</ele><time>2026-04-20T07:46:40.997Z</time></trkpt><trkpt lat="33.6523517" lon="10.0112683"><ele>134.0</ele><time>2026-04-20T07:46:41.997Z</time></trkpt><trkpt lat="33.6521967" lon="10.0112383"><ele>134.0</ele><time>2026-04-20T07:46:42.997Z</time></trkpt><trkpt lat="33.6520467" lon="10.0112117"><ele>134.0</ele><time>2026-04-20T07:46:43.997Z</time></trkpt><trkpt lat="33.65189" lon="10.01119"><ele>134.66666666666666</ele><time>2026-04-20T07:46:44.997Z</time></trkpt><trkpt lat="33.651735" lon="10.0111667"><ele>135.33333333333334</ele><time>2026-04-20T07:46:45.997Z</time></trkpt><trkpt lat="33.6515667" lon="10.011135"><ele>136.0</ele><time>2026-04-20T07:46:46.997Z</time></trkpt><trkpt lat="33.6513983" lon="10.0111"><ele>136.0</ele><time>2026-04-20T07:46:47.997Z</time></trkpt><trkpt lat="33.6512383" lon="10.0110733"><ele>136.0</ele><time>2026-04-20T07:46:48.997Z</time></trkpt><trkpt lat="33.6510733" lon="10.01105"><ele>136.0</ele><time>2026-04-20T07:46:49.997Z</time></trkpt><trkpt lat="33.6508933" lon="10.011015"><ele>136.66666666666669</ele><time>2026-04-20T07:46:50.997Z</time></trkpt><trkpt lat="33.65072" lon="10.0109883"><ele>137.33333333333334</ele><time>2026-04-20T07:46:51.997Z</time></trkpt><trkpt lat="33.6505383" lon="10.010965"><ele>138.0</ele><time>2026-04-20T07:46:52.997Z</time></trkpt><trkpt lat="33.65036" lon="10.0109433"><ele>137.66666666666666</ele><time>2026-04-20T07:46:53.997Z</time></trkpt><trkpt lat="33.65018" lon="10.010915"><ele>137.33333333333331</ele><time>2026-04-20T07:46:54.997Z</time></trkpt><trkpt lat="33.6500017" lon="10.010895"><ele>137.0</ele><time>2026-04-20T07:46:55.997Z</time></trkpt><trkpt lat="33.6498267" lon="10.01088"><ele>137.0</ele><time>2026-04-20T07:46:56.997Z</time></trkpt><trkpt lat="33.649645" lon="10.0108567"><ele>137.0</ele><time>2026-04-20T07:46:57.997Z</time></trkpt><trkpt lat="33.6494617" lon="10.01084"><ele>137.0</ele><time>2026-04-20T07:46:58.997Z</time></trkpt><trkpt lat="33.64928" lon="10.0108217"><ele>137.66666666666666</ele><time>2026-04-20T07:46:59.997Z</time></trkpt><trkpt lat="33.6491017" lon="10.0108167"><ele>138.33333333333334</ele><time>2026-04-20T07:47:00.997Z</time></trkpt><trkpt lat="33.6489183" lon="10.0108"><ele>139.0</ele><time>2026-04-20T07:47:01.997Z</time></trkpt><trkpt lat="33.6487283" lon="10.0107717"><ele>140.0</ele><time>2026-04-20T07:47:02.997Z</time></trkpt><trkpt lat="33.6485433" lon="10.0107633"><ele>141.0</ele><time>2026-04-20T07:47:03.997Z</time></trkpt><trkpt lat="33.648365" lon="10.0107517"><ele>142.0</ele><time>2026-04-20T07:47:04.997Z</time></trkpt><trkpt lat="33.64817" lon="10.0107317"><ele>142.0</ele><time>2026-04-20T07:47:05.997Z</time></trkpt><trkpt lat="33.647975" lon="10.010725"><ele>142.0</ele><time>2026-04-20T07:47:06.997Z</time></trkpt><trkpt lat="33.64778" lon="10.0107083"><ele>142.0</ele><time>2026-04-20T07:47:07.997Z</time></trkpt><trkpt lat="33.6475817" lon="10.01069"><ele>141.0</ele><time>2026-04-20T07:47:08.997Z</time></trkpt><trkpt lat="33.6473833" lon="10.0106767"><ele>140.0</ele><time>2026-04-20T07:47:09.997Z</time></trkpt><trkpt lat="33.64719" lon="10.0106683"><ele>139.0</ele><time>2026-04-20T07:47:10.997Z</time></trkpt><trkpt lat="33.6469917" lon="10.0106633"><ele>139.33333333333334</ele><time>2026-04-20T07:47:11.997Z</time></trkpt><trkpt lat="33.64679" lon="10.010645"><ele>139.66666666666666</ele><time>2026-04-20T07:47:12.997Z</time></trkpt><trkpt lat="33.646585" lon="10.0106333"><ele>140.0</ele><time>2026-04-20T07:47:13.997Z</time></trkpt><trkpt lat="33.646375" lon="10.0106183"><ele>140.0</ele><time>2026-04-20T07:47:14.997Z</time></trkpt><trkpt lat="33.6461733" lon="10.0106017"><ele>140.0</ele><time>2026-04-20T07:47:15.997Z</time></trkpt><trkpt lat="33.6459667" lon="10.0105883"><ele>140.0</ele><time>2026-04-20T07:47:16.997Z</time></trkpt><trkpt lat="33.6457633" lon="10.0105733"><ele>140.66666666666666</ele><time>2026-04-20T07:47:17.997Z</time></trkpt><trkpt lat="33.6455633" lon="10.01056"><ele>141.33333333333334</ele><time>2026-04-20T07:47:18.997Z</time></trkpt><trkpt lat="33.6453567" lon="10.0105333"><ele>142.0</ele><time>2026-04-20T07:47:19.997Z</time></trkpt><trkpt lat="33.6451567" lon="10.010505"><ele>142.66666666666669</ele><time>2026-04-20T07:47:20.997Z</time></trkpt><trkpt lat="33.6449617" lon="10.01046"><ele>143.33333333333334</ele><time>2026-04-20T07:47:21.997Z</time></trkpt><trkpt lat="33.64477" lon="10.010415"><ele>144.0</ele><time>2026-04-20T07:47:22.997Z</time></trkpt><trkpt lat="33.644565" lon="10.0103517"><ele>145.33333333333334</ele><time>2026-04-20T07:47:23.997Z</time></trkpt><trkpt lat="33.6443467" lon="10.0102733"><ele>146.66666666666669</ele><time>2026-04-20T07:47:24.997Z</time></trkpt><trkpt lat="33.6441383" lon="10.010195"><ele>148.0</ele><time>2026-04-20T07:47:25.997Z</time></trkpt><trkpt lat="33.64393" lon="10.01011"><ele>148.0</ele><time>2026-04-20T07:47:26.997Z</time></trkpt><trkpt lat="33.643725" lon="10.0100283"><ele>148.0</ele><time>2026-04-20T07:47:27.997Z</time></trkpt><trkpt lat="33.643525" lon="10.0099467"><ele>148.0</ele><time>2026-04-20T07:47:28.997Z</time></trkpt><trkpt lat="33.6433217" lon="10.0098667"><ele>147.33333333333334</ele><time>2026-04-20T07:47:29.997Z</time></trkpt><trkpt lat="33.6431183" lon="10.00979"><ele>146.66666666666666</ele><time>2026-04-20T07:47:30.997Z</time></trkpt><trkpt lat="33.6429133" lon="10.009715"><ele>146.0</ele><time>2026-04-20T07:47:31.997Z</time></trkpt><trkpt lat="33.6427083" lon="10.009635"><ele>146.0</ele><time>2026-04-20T07:47:32.997Z</time></trkpt><trkpt lat="33.6425017" lon="10.0095517"><ele>146.0</ele><time>2026-04-20T07:47:33.997Z</time></trkpt><trkpt lat="33.6423033" lon="10.00948"><ele>146.0</ele><time>2026-04-20T07:47:34.997Z</time></trkpt><trkpt lat="33.6420933" lon="10.0093833"><ele>146.0</ele><time>2026-04-20T07:47:35.997Z</time></trkpt><trkpt lat="33.6418833" lon="10.0092933"><ele>146.0</ele><time>2026-04-20T07:47:36.997Z</time></trkpt><trkpt lat="33.641675" lon="10.0092017"><ele>146.0</ele><time>2026-04-20T07:47:37.997Z</time></trkpt><trkpt lat="33.64146" lon="10.0090983"><ele>146.0</ele><time>2026-04-20T07:47:38.997Z</time></trkpt><trkpt lat="33.6412433" lon="10.009"><ele>146.0</ele><time>2026-04-20T07:47:39.997Z</time></trkpt><trkpt lat="33.6410367" lon="10.00892"><ele>146.0</ele><time>2026-04-20T07:47:40.997Z</time></trkpt><trkpt lat="33.6408283" lon="10.008845"><ele>145.66666666666666</ele><time>2026-04-20T07:47:41.997Z</time></trkpt><trkpt lat="33.6406233" lon="10.0087633"><ele>145.33333333333334</ele><time>2026-04-20T07:47:42.997Z</time></trkpt><trkpt lat="33.6404183" lon="10.00868"><ele>145.0</ele><time>2026-04-20T07:47:43.997Z</time></trkpt><trkpt lat="33.6402" lon="10.00859"><ele>146.0</ele><time>2026-04-20T07:47:44.997Z</time></trkpt><trkpt lat="33.6399917" lon="10.0085067"><ele>147.0</ele><time>2026-04-20T07:47:45.997Z</time></trkpt><trkpt lat="33.6397817" lon="10.0084217"><ele>148.0</ele><time>2026-04-20T07:47:46.997Z</time></trkpt><trkpt lat="33.6395733" lon="10.0083367"><ele>148.5</ele><time>2026-04-20T07:47:47.997Z</time></trkpt><trkpt lat="33.6393617" lon="10.0082467"><ele>149.0</ele><time>2026-04-20T07:47:48.997Z</time></trkpt><trkpt lat="33.6391483" lon="10.0081533"><ele>149.0</ele><time>2026-04-20T07:47:49.997Z</time></trkpt><trkpt lat="33.63893" lon="10.0080617"><ele>149.0</ele><time>2026-04-20T07:47:50.997Z</time></trkpt><trkpt lat="33.63872" lon="10.0079717"><ele>150.0</ele><time>2026-04-20T07:47:51.997Z</time></trkpt><trkpt lat="33.6385017" lon="10.007885"><ele>151.0</ele><time>2026-04-20T07:47:52.997Z</time></trkpt><trkpt lat="33.63829" lon="10.0077983"><ele>151.0</ele><time>2026-04-20T07:47:53.997Z</time></trkpt><trkpt lat="33.6380783" lon="10.0077167"><ele>151.0</ele><time>2026-04-20T07:47:54.997Z</time></trkpt><trkpt lat="33.63787" lon="10.0076317"><ele>151.0</ele><time>2026-04-20T07:47:55.997Z</time></trkpt><trkpt lat="33.6376617" lon="10.00755"><ele>151.66666666666669</ele><time>2026-04-20T07:47:56.997Z</time></trkpt><trkpt lat="33.63746" lon="10.0074767"><ele>152.33333333333334</ele><time>2026-04-20T07:47:57.997Z</time></trkpt><trkpt lat="33.637245" lon="10.0073883"><ele>153.0</ele><time>2026-04-20T07:47:58.997Z</time></trkpt><trkpt lat="33.637035" lon="10.007285"><ele>153.33333333333334</ele><time>2026-04-20T07:47:59.997Z</time></trkpt><trkpt lat="33.6368367" lon="10.0071733"><ele>153.66666666666669</ele><time>2026-04-20T07:48:00.997Z</time></trkpt><trkpt lat="33.6366417" lon="10.0070417"><ele>154.0</ele><time>2026-04-20T07:48:01.997Z</time></trkpt><trkpt lat="33.6364617" lon="10.0069167"><ele>154.0</ele><time>2026-04-20T07:48:02.997Z</time></trkpt><trkpt lat="33.6362767" lon="10.0067817"><ele>154.0</ele><time>2026-04-20T07:48:03.997Z</time></trkpt><trkpt lat="33.6360867" lon="10.0066517"><ele>154.0</ele><time>2026-04-20T07:48:04.997Z</time></trkpt><trkpt lat="33.6358983" lon="10.0065117"><ele>153.0</ele><time>2026-04-20T07:48:05.998Z</time></trkpt><trkpt lat="33.635705" lon="10.00637"><ele>152.0</ele><time>2026-04-20T07:48:06.997Z</time></trkpt><trkpt lat="33.63551" lon="10.00624"><ele>151.0</ele><time>2026-04-20T07:48:07.997Z</time></trkpt><trkpt lat="33.6353133" lon="10.0061083"><ele>150.66666666666669</ele><time>2026-04-20T07:48:08.997Z</time></trkpt><trkpt lat="33.6351267" lon="10.0059733"><ele>150.33333333333334</ele><time>2026-04-20T07:48:09.997Z</time></trkpt><trkpt lat="33.63493" lon="10.0058383"><ele>150.0</ele><time>2026-04-20T07:48:10.997Z</time></trkpt><trkpt lat="33.6347367" lon="10.0057"><ele>150.0</ele><time>2026-04-20T07:48:11.997Z</time></trkpt><trkpt lat="33.6345367" lon="10.00557"><ele>150.0</ele><time>2026-04-20T07:48:12.997Z</time></trkpt><trkpt lat="33.6343333" lon="10.00545"><ele>151.0</ele><time>2026-04-20T07:48:13.997Z</time></trkpt><trkpt lat="33.6341267" lon="10.0053367"><ele>152.0</ele><time>2026-04-20T07:48:14.997Z</time></trkpt><trkpt lat="33.6339167" lon="10.0052267"><ele>152.0</ele><time>2026-04-20T07:48:15.997Z</time></trkpt><trkpt lat="33.6337017" lon="10.0051267"><ele>152.0</ele><time>2026-04-20T07:48:16.997Z</time></trkpt><trkpt lat="33.6334817" lon="10.005035"><ele>150.5</ele><time>2026-04-20T07:48:17.997Z</time></trkpt><trkpt lat="33.6332683" lon="10.00496"><ele>149.0</ele><time>2026-04-20T07:48:18.997Z</time></trkpt><trkpt lat="33.6330433" lon="10.00488"><ele>149.0</ele><time>2026-04-20T07:48:19.997Z</time></trkpt><trkpt lat="33.6328267" lon="10.004795"><ele>149.0</ele><time>2026-04-20T07:48:20.997Z</time></trkpt><trkpt lat="33.6326083" lon="10.0047083"><ele>150.0</ele><time>2026-04-20T07:48:21.997Z</time></trkpt><trkpt lat="33.6323917" lon="10.0046233"><ele>151.0</ele><time>2026-04-20T07:48:22.997Z</time></trkpt><trkpt lat="33.6321783" lon="10.00456"><ele>152.0</ele><time>2026-04-20T07:48:23.997Z</time></trkpt><trkpt lat="33.63195" lon="10.0044867"><ele>152.5</ele><time>2026-04-20T07:48:24.997Z</time></trkpt><trkpt lat="33.631725" lon="10.0044333"><ele>153.0</ele><time>2026-04-20T07:48:25.997Z</time></trkpt><trkpt lat="33.631495" lon="10.00439"><ele>153.0</ele><time>2026-04-20T07:48:26.997Z</time></trkpt><trkpt lat="33.6312767" lon="10.0043583"><ele>153.0</ele><time>2026-04-20T07:48:27.997Z</time></trkpt><trkpt lat="33.6310533" lon="10.004325"><ele>153.0</ele><time>2026-04-20T07:48:28.997Z</time></trkpt><trkpt lat="33.63083" lon="10.004295"><ele>153.66666666666666</ele><time>2026-04-20T07:48:29.997Z</time></trkpt><trkpt lat="33.6306067" lon="10.0042683"><ele>154.33333333333331</ele><time>2026-04-20T07:48:30.997Z</time></trkpt><trkpt lat="33.6303833" lon="10.0042383"><ele>155.0</ele><time>2026-04-20T07:48:31.997Z</time></trkpt><trkpt lat="33.6301583" lon="10.0042167"><ele>156.5</ele><time>2026-04-20T07:48:32.997Z</time></trkpt><trkpt lat="33.6299317" lon="10.0041967"><ele>158.0</ele><time>2026-04-20T07:48:33.997Z</time></trkpt><trkpt lat="33.6297033" lon="10.0041733"><ele>158.0</ele><time>2026-04-20T07:48:34.997Z</time></trkpt><trkpt lat="33.62948" lon="10.0041567"><ele>158.0</ele><time>2026-04-20T07:48:35.997Z</time></trkpt><trkpt lat="33.6292567" lon="10.00413"><ele>158.0</ele><time>2026-04-20T07:48:36.997Z</time></trkpt><trkpt lat="33.629025" lon="10.0041067"><ele>158.0</ele><time>2026-04-20T07:48:37.997Z</time></trkpt><trkpt lat="33.6287967" lon="10.0040783"><ele>158.0</ele><time>2026-04-20T07:48:38.997Z</time></trkpt><trkpt lat="33.628565" lon="10.0040533"><ele>157.5</ele><time>2026-04-20T07:48:39.997Z</time></trkpt><trkpt lat="33.6283333" lon="10.0040233"><ele>157.0</ele><time>2026-04-20T07:48:40.997Z</time></trkpt><trkpt lat="33.6281033" lon="10.0039933"><ele>157.0</ele><time>2026-04-20T07:48:41.997Z</time></trkpt><trkpt lat="33.62787" lon="10.0039683"><ele>157.0</ele><time>2026-04-20T07:48:42.997Z</time></trkpt><trkpt lat="33.6276417" lon="10.0039517"><ele>158.0</ele><time>2026-04-20T07:48:43.997Z</time></trkpt><trkpt lat="33.6274167" lon="10.0039283"><ele>159.0</ele><time>2026-04-20T07:48:44.997Z</time></trkpt><trkpt lat="33.6271867" lon="10.003905"><ele>160.5</ele><time>2026-04-20T07:48:45.997Z</time></trkpt><trkpt lat="33.62696" lon="10.0038767"><ele>162.0</ele><time>2026-04-20T07:48:46.997Z</time></trkpt><trkpt lat="33.62673" lon="10.0038417"><ele>162.0</ele><time>2026-04-20T07:48:47.997Z</time></trkpt><trkpt lat="33.6265083" lon="10.003805"><ele>162.0</ele><time>2026-04-20T07:48:48.997Z</time></trkpt><trkpt lat="33.6262867" lon="10.0037533"><ele>162.33333333333334</ele><time>2026-04-20T07:48:49.997Z</time></trkpt><trkpt lat="33.62607" lon="10.0037033"><ele>162.66666666666669</ele><time>2026-04-20T07:48:50.997Z</time></trkpt><trkpt lat="33.6258633" lon="10.0036517"><ele>163.0</ele><time>2026-04-20T07:48:51.997Z</time></trkpt><trkpt lat="33.6256383" lon="10.003595"><ele>163.0</ele><time>2026-04-20T07:48:52.997Z</time></trkpt><trkpt lat="33.6254167" lon="10.0035317"><ele>163.0</ele><time>2026-04-20T07:48:53.997Z</time></trkpt><trkpt lat="33.6251833" lon="10.0034433"><ele>162.5</ele><time>2026-04-20T07:48:54.997Z</time></trkpt><trkpt lat="33.62497" lon="10.0033417"><ele>162.0</ele><time>2026-04-20T07:48:55.997Z</time></trkpt><trkpt lat="33.6247683" lon="10.0032233"><ele>161.5</ele><time>2026-04-20T07:48:56.997Z</time></trkpt><trkpt lat="33.6245733" lon="10.0030867"><ele>161.0</ele><time>2026-04-20T07:48:57.997Z</time></trkpt><trkpt lat="33.6243767" lon="10.00293"><ele>161.0</ele><time>2026-04-20T07:48:58.997Z</time></trkpt><trkpt lat="33.6242033" lon="10.0027517"><ele>161.0</ele><time>2026-04-20T07:48:59.997Z</time></trkpt><trkpt lat="33.62406" lon="10.0025683"><ele>161.0</ele><time>2026-04-20T07:49:00.997Z</time></trkpt><trkpt lat="33.6239017" lon="10.0024017"><ele>161.0</ele><time>2026-04-20T07:49:01.997Z</time></trkpt><trkpt lat="33.6237317" lon="10.0022683"><ele>161.0</ele><time>2026-04-20T07:49:02.997Z</time></trkpt><trkpt lat="33.62354" lon="10.0021667"><ele>161.0</ele><time>2026-04-20T07:49:03.997Z</time></trkpt><trkpt lat="33.6233267" lon="10.0020883"><ele>161.66666666666666</ele><time>2026-04-20T07:49:04.997Z</time></trkpt><trkpt lat="33.6231083" lon="10.002055"><ele>162.33333333333334</ele><time>2026-04-20T07:49:05.997Z</time></trkpt><trkpt lat="33.6228933" lon="10.002065"><ele>163.0</ele><time>2026-04-20T07:49:06.997Z</time></trkpt><trkpt lat="33.6226733" lon="10.0020783"><ele>164.66666666666669</ele><time>2026-04-20T07:49:07.997Z</time></trkpt><trkpt lat="33.6224517" lon="10.002085"><ele>166.33333333333334</ele><time>2026-04-20T07:49:08.997Z</time></trkpt><trkpt lat="33.6222283" lon="10.00209"><ele>168.0</ele><time>2026-04-20T07:49:09.997Z</time></trkpt><trkpt lat="33.6220183" lon="10.002105"><ele>168.33333333333334</ele><time>2026-04-20T07:49:10.997Z</time></trkpt><trkpt lat="33.6218183" lon="10.0021167"><ele>168.66666666666669</ele><time>2026-04-20T07:49:11.997Z</time></trkpt><trkpt lat="33.6216133" lon="10.002135"><ele>169.0</ele><time>2026-04-20T07:49:12.997Z</time></trkpt><trkpt lat="33.6214017" lon="10.00215"><ele>169.0</ele><time>2026-04-20T07:49:13.997Z</time></trkpt><trkpt lat="33.621195" lon="10.0021667"><ele>169.0</ele><time>2026-04-20T07:49:14.997Z</time></trkpt><trkpt lat="33.6209833" lon="10.00218"><ele>169.0</ele><time>2026-04-20T07:49:15.997Z</time></trkpt><trkpt lat="33.6207733" lon="10.00219"><ele>170.0</ele><time>2026-04-20T07:49:16.997Z</time></trkpt><trkpt lat="33.6205583" lon="10.0022083"><ele>171.0</ele><time>2026-04-20T07:49:17.997Z</time></trkpt><trkpt lat="33.62035" lon="10.0022033"><ele>172.0</ele><time>2026-04-20T07:49:18.997Z</time></trkpt><trkpt lat="33.620145" lon="10.0022017"><ele>173.66666666666669</ele><time>2026-04-20T07:49:19.996Z</time></trkpt><trkpt lat="33.6199367" lon="10.0021783"><ele>175.33333333333334</ele><time>2026-04-20T07:49:20.996Z</time></trkpt><trkpt lat="33.6197333" lon="10.0021367"><ele>177.0</ele><time>2026-04-20T07:49:21.996Z</time></trkpt><trkpt lat="33.619505" lon="10.00208"><ele>178.0</ele><time>2026-04-20T07:49:22.996Z</time></trkpt><trkpt lat="33.61928" lon="10.0020117"><ele>179.0</ele><time>2026-04-20T07:49:23.996Z</time></trkpt><trkpt lat="33.6190617" lon="10.00193"><ele>179.0</ele><time>2026-04-20T07:49:24.996Z</time></trkpt><trkpt lat="33.61885" lon="10.0018467"><ele>179.0</ele><time>2026-04-20T07:49:25.996Z</time></trkpt><trkpt lat="33.61864" lon="10.001735"><ele>180.5</ele><time>2026-04-20T07:49:26.996Z</time></trkpt><trkpt lat="33.6184283" lon="10.0016183"><ele>182.0</ele><time>2026-04-20T07:49:27.996Z</time></trkpt><trkpt lat="33.618225" lon="10.0014933"><ele>182.0</ele><time>2026-04-20T07:49:28.996Z</time></trkpt><trkpt lat="33.6180367" lon="10.001355"><ele>182.0</ele><time>2026-04-20T07:49:29.996Z</time></trkpt><trkpt lat="33.6178483" lon="10.0012083"><ele>182.0</ele><time>2026-04-20T07:49:30.996Z</time></trkpt><trkpt lat="33.6176733" lon="10.0010533"><ele>181.66666666666666</ele><time>2026-04-20T07:49:31.996Z</time></trkpt><trkpt lat="33.61749" lon="10.0008933"><ele>181.33333333333334</ele><time>2026-04-20T07:49:32.996Z</time></trkpt><trkpt lat="33.6173183" lon="10.0007283"><ele>181.0</ele><time>2026-04-20T07:49:33.996Z</time></trkpt><trkpt lat="33.6171483" lon="10.00056"><ele>182.66666666666669</ele><time>2026-04-20T07:49:34.996Z</time></trkpt><trkpt lat="33.6169667" lon="10.0004"><ele>184.33333333333334</ele><time>2026-04-20T07:49:35.996Z</time></trkpt><trkpt lat="33.6167883" lon="10.000245"><ele>186.0</ele><time>2026-04-20T07:49:36.996Z</time></trkpt><trkpt lat="33.6166217" lon="10.0000817"><ele>186.0</ele><time>2026-04-20T07:49:37.996Z</time></trkpt><trkpt lat="33.6164417" lon="9.9999283"><ele>186.0</ele><time>2026-04-20T07:49:38.996Z</time></trkpt><trkpt lat="33.61626" lon="9.99979"><ele>186.0</ele><time>2026-04-20T07:49:39.996Z</time></trkpt><trkpt lat="33.6160767" lon="9.999675"><ele>185.66666666666666</ele><time>2026-04-20T07:49:40.996Z</time></trkpt><trkpt lat="33.615885" lon="9.9995767"><ele>185.33333333333331</ele><time>2026-04-20T07:49:41.996Z</time></trkpt><trkpt lat="33.6156667" lon="9.9995383"><ele>185.0</ele><time>2026-04-20T07:49:42.996Z</time></trkpt><trkpt lat="33.6154583" lon="9.9995467"><ele>185.66666666666666</ele><time>2026-04-20T07:49:43.996Z</time></trkpt><trkpt lat="33.6152417" lon="9.999555"><ele>186.33333333333334</ele><time>2026-04-20T07:49:44.996Z</time></trkpt><trkpt lat="33.6150317" lon="9.9995783"><ele>187.0</ele><time>2026-04-20T07:49:45.996Z</time></trkpt><trkpt lat="33.61483" lon="9.9996"><ele>187.0</ele><time>2026-04-20T07:49:46.996Z</time></trkpt><trkpt lat="33.6146317" lon="9.999585"><ele>187.0</ele><time>2026-04-20T07:49:47.996Z</time></trkpt><trkpt lat="33.6144383" lon="9.9995417"><ele>187.0</ele><time>2026-04-20T07:49:48.996Z</time></trkpt><trkpt lat="33.6142383" lon="9.9994583"><ele>187.66666666666669</ele><time>2026-04-20T07:49:49.996Z</time></trkpt><trkpt lat="33.6140517" lon="9.999345"><ele>188.33333333333334</ele><time>2026-04-20T07:49:50.996Z</time></trkpt><trkpt lat="33.61387" lon="9.99922"><ele>189.0</ele><time>2026-04-20T07:49:51.996Z</time></trkpt><trkpt lat="33.6136867" lon="9.9990783"><ele>189.33333333333334</ele><time>2026-04-20T07:49:52.996Z</time></trkpt><trkpt lat="33.6135167" lon="9.998935"><ele>189.66666666666669</ele><time>2026-04-20T07:49:53.996Z</time></trkpt><trkpt lat="33.613345" lon="9.9988017"><ele>190.0</ele><time>2026-04-20T07:49:54.996Z</time></trkpt><trkpt lat="33.6131717" lon="9.9986667"><ele>190.0</ele><time>2026-04-20T07:49:55.996Z</time></trkpt><trkpt lat="33.6129967" lon="9.99852"><ele>190.0</ele><time>2026-04-20T07:49:56.996Z</time></trkpt><trkpt lat="33.6128133" lon="9.9983767"><ele>190.0</ele><time>2026-04-20T07:49:57.996Z</time></trkpt><trkpt lat="33.6126383" lon="9.99823"><ele>190.66666666666669</ele><time>2026-04-20T07:49:58.996Z</time></trkpt><trkpt lat="33.6124717" lon="9.9980667"><ele>191.33333333333334</ele><time>2026-04-20T07:49:59.996Z</time></trkpt><trkpt lat="33.6123167" lon="9.997885"><ele>192.0</ele><time>2026-04-20T07:50:00.996Z</time></trkpt><trkpt lat="33.6121767" lon="9.997695"><ele>192.0</ele><time>2026-04-20T07:50:01.996Z</time></trkpt><trkpt lat="33.612045" lon="9.9974917"><ele>192.0</ele><time>2026-04-20T07:50:02.996Z</time></trkpt><trkpt lat="33.611935" lon="9.9972817"><ele>192.0</ele><time>2026-04-20T07:50:03.996Z</time></trkpt><trkpt lat="33.6118417" lon="9.9970583"><ele>191.66666666666666</ele><time>2026-04-20T07:50:04.996Z</time></trkpt><trkpt lat="33.6117583" lon="9.99682"><ele>191.33333333333331</ele><time>2026-04-20T07:50:05.996Z</time></trkpt><trkpt lat="33.61169" lon="9.9965817"><ele>191.0</ele><time>2026-04-20T07:50:06.996Z</time></trkpt><trkpt lat="33.6116183" lon="9.9963467"><ele>192.0</ele><time>2026-04-20T07:50:07.996Z</time></trkpt><trkpt lat="33.6115467" lon="9.9961067"><ele>193.0</ele><time>2026-04-20T07:50:08.996Z</time></trkpt><trkpt lat="33.6114533" lon="9.995875"><ele>194.0</ele><time>2026-04-20T07:50:09.996Z</time></trkpt><trkpt lat="33.6113383" lon="9.9956583"><ele>194.33333333333334</ele><time>2026-04-20T07:50:10.996Z</time></trkpt><trkpt lat="33.6111983" lon="9.995445"><ele>194.66666666666669</ele><time>2026-04-20T07:50:11.996Z</time></trkpt><trkpt lat="33.611045" lon="9.9952567"><ele>195.0</ele><time>2026-04-20T07:50:12.996Z</time></trkpt><trkpt lat="33.610885" lon="9.995075"><ele>195.33333333333331</ele><time>2026-04-20T07:50:13.996Z</time></trkpt><trkpt lat="33.6107217" lon="9.9948983"><ele>195.66666666666666</ele><time>2026-04-20T07:50:14.996Z</time></trkpt><trkpt lat="33.6105467" lon="9.9947283"><ele>196.0</ele><time>2026-04-20T07:50:15.996Z</time></trkpt><trkpt lat="33.61038" lon="9.9945767"><ele>194.33333333333331</ele><time>2026-04-20T07:50:16.996Z</time></trkpt><trkpt lat="33.61022" lon="9.994435"><ele>192.66666666666666</ele><time>2026-04-20T07:50:17.996Z</time></trkpt><trkpt lat="33.6100667" lon="9.994315"><ele>191.0</ele><time>2026-04-20T07:50:18.996Z</time></trkpt><trkpt lat="33.6099133" lon="9.994215"><ele>191.66666666666666</ele><time>2026-04-20T07:50:19.996Z</time></trkpt><trkpt lat="33.6097633" lon="9.9941217"><ele>192.33333333333331</ele><time>2026-04-20T07:50:20.996Z</time></trkpt><trkpt lat="33.6096183" lon="9.9940317"><ele>193.0</ele><time>2026-04-20T07:50:21.996Z</time></trkpt><trkpt lat="33.60947" lon="9.993935"><ele>191.66666666666666</ele><time>2026-04-20T07:50:22.996Z</time></trkpt><trkpt lat="33.60933" lon="9.9938383"><ele>190.33333333333331</ele><time>2026-04-20T07:50:23.996Z</time></trkpt><trkpt lat="33.6091783" lon="9.9937383"><ele>189.0</ele><time>2026-04-20T07:50:24.996Z</time></trkpt><trkpt lat="33.6090267" lon="9.9936433"><ele>189.0</ele><time>2026-04-20T07:50:25.996Z</time></trkpt><trkpt lat="33.6088683" lon="9.9935517"><ele>189.0</ele><time>2026-04-20T07:50:26.996Z</time></trkpt><trkpt lat="33.608715" lon="9.99348"><ele>189.0</ele><time>2026-04-20T07:50:27.996Z</time></trkpt><trkpt lat="33.60855" lon="9.9934033"><ele>187.33333333333334</ele><time>2026-04-20T07:50:28.996Z</time></trkpt><trkpt lat="33.6083767" lon="9.9933233"><ele>185.66666666666669</ele><time>2026-04-20T07:50:29.996Z</time></trkpt><trkpt lat="33.608205" lon="9.993265"><ele>184.0</ele><time>2026-04-20T07:50:30.996Z</time></trkpt><trkpt lat="33.6080317" lon="9.993205"><ele>184.0</ele><time>2026-04-20T07:50:31.996Z</time></trkpt><trkpt lat="33.60786" lon="9.9931483"><ele>184.0</ele><time>2026-04-20T07:50:32.996Z</time></trkpt><trkpt lat="33.6076917" lon="9.993095"><ele>184.0</ele><time>2026-04-20T07:50:33.996Z</time></trkpt><trkpt lat="33.60752" lon="9.993045"><ele>183.33333333333334</ele><time>2026-04-20T07:50:34.996Z</time></trkpt><trkpt lat="33.6073567" lon="9.9930067"><ele>182.66666666666666</ele><time>2026-04-20T07:50:35.996Z</time></trkpt><trkpt lat="33.6071933" lon="9.9929617"><ele>182.0</ele><time>2026-04-20T07:50:36.996Z</time></trkpt><trkpt lat="33.6070333" lon="9.9929133"><ele>181.66666666666666</ele><time>2026-04-20T07:50:37.996Z</time></trkpt><trkpt lat="33.6068733" lon="9.992875"><ele>181.33333333333334</ele><time>2026-04-20T07:50:38.996Z</time></trkpt><trkpt lat="33.606715" lon="9.99283"><ele>181.0</ele><time>2026-04-20T07:50:39.996Z</time></trkpt><trkpt lat="33.6065533" lon="9.9927933"><ele>181.0</ele><time>2026-04-20T07:50:40.996Z</time></trkpt><trkpt lat="33.6063933" lon="9.9927617"><ele>181.0</ele><time>2026-04-20T07:50:41.996Z</time></trkpt><trkpt lat="33.6062333" lon="9.992735"><ele>181.0</ele><time>2026-04-20T07:50:42.996Z</time></trkpt><trkpt lat="33.6060783" lon="9.9927217"><ele>180.0</ele><time>2026-04-20T07:50:43.996Z</time></trkpt><trkpt lat="33.60592" lon="9.9927117"><ele>179.0</ele><time>2026-04-20T07:50:44.996Z</time></trkpt><trkpt lat="33.60577" lon="9.9926983"><ele>178.0</ele><time>2026-04-20T07:50:45.996Z</time></trkpt><trkpt lat="33.6056117" lon="9.99268"><ele>178.0</ele><time>2026-04-20T07:50:46.996Z</time></trkpt><trkpt lat="33.6054533" lon="9.992665"><ele>178.0</ele><time>2026-04-20T07:50:47.996Z</time></trkpt><trkpt lat="33.6052933" lon="9.9926517"><ele>178.0</ele><time>2026-04-20T07:50:48.996Z</time></trkpt><trkpt lat="33.6051367" lon="9.9926317"><ele>178.0</ele><time>2026-04-20T07:50:49.996Z</time></trkpt><trkpt lat="33.604985" lon="9.9926"><ele>178.0</ele><time>2026-04-20T07:50:50.996Z</time></trkpt><trkpt lat="33.60483" lon="9.9925517"><ele>178.0</ele><time>2026-04-20T07:50:51.996Z</time></trkpt><trkpt lat="33.6046817" lon="9.9924783"><ele>178.66666666666669</ele><time>2026-04-20T07:50:52.996Z</time></trkpt><trkpt lat="33.6045417" lon="9.9924"><ele>179.33333333333334</ele><time>2026-04-20T07:50:53.996Z</time></trkpt><trkpt lat="33.6044083" lon="9.992315"><ele>180.0</ele><time>2026-04-20T07:50:54.996Z</time></trkpt><trkpt lat="33.604275" lon="9.9922283"><ele>180.0</ele><time>2026-04-20T07:50:55.996Z</time></trkpt><trkpt lat="33.604135" lon="9.9921483"><ele>180.0</ele><time>2026-04-20T07:50:56.996Z</time></trkpt><trkpt lat="33.604005" lon="9.99207"><ele>180.0</ele><time>2026-04-20T07:50:57.996Z</time></trkpt><trkpt lat="33.6038683" lon="9.9919933"><ele>180.0</ele><time>2026-04-20T07:50:58.996Z</time></trkpt><trkpt lat="33.60374" lon="9.9919267"><ele>180.0</ele><time>2026-04-20T07:50:59.996Z</time></trkpt><trkpt lat="33.60361" lon="9.9918517"><ele>180.0</ele><time>2026-04-20T07:51:00.996Z</time></trkpt><trkpt lat="33.603485" lon="9.99179"><ele>180.0</ele><time>2026-04-20T07:51:01.996Z</time></trkpt><trkpt lat="33.6033667" lon="9.99172"><ele>180.5</ele><time>2026-04-20T07:51:02.996Z</time></trkpt><trkpt lat="33.6032367" lon="9.9916533"><ele>181.0</ele><time>2026-04-20T07:51:03.996Z</time></trkpt><trkpt lat="33.6031133" lon="9.99158"><ele>181.5</ele><time>2026-04-20T07:51:04.996Z</time></trkpt><trkpt lat="33.6029983" lon="9.9915083"><ele>182.0</ele><time>2026-04-20T07:51:05.996Z</time></trkpt><trkpt lat="33.6028967" lon="9.991425"><ele>181.8</ele><time>2026-04-20T07:51:06.996Z</time></trkpt><trkpt lat="33.602815" lon="9.99135"><ele>181.6</ele><time>2026-04-20T07:51:07.996Z</time></trkpt><trkpt lat="33.6027417" lon="9.9912667"><ele>181.4</ele><time>2026-04-20T07:51:08.996Z</time></trkpt><trkpt lat="33.6026917" lon="9.991185"><ele>181.20000000000002</ele><time>2026-04-20T07:51:09.996Z</time></trkpt><trkpt lat="33.6026483" lon="9.9910933"><ele>181.0</ele><time>2026-04-20T07:51:10.996Z</time></trkpt><trkpt lat="33.602605" lon="9.991"><ele>181.0</ele><time>2026-04-20T07:51:11.996Z</time></trkpt><trkpt lat="33.602565" lon="9.9909117"><ele>181.0</ele><time>2026-04-20T07:51:12.996Z</time></trkpt><trkpt lat="33.6025283" lon="9.990825"><ele>181.0</ele><time>2026-04-20T07:51:13.996Z</time></trkpt><trkpt lat="33.6024883" lon="9.9907467"><ele>181.0</ele><time>2026-04-20T07:51:14.996Z</time></trkpt><trkpt lat="33.6024517" lon="9.99067"><ele>181.0</ele><time>2026-04-20T07:51:15.996Z</time></trkpt><trkpt lat="33.60242" lon="9.9906033"><ele>181.0</ele><time>2026-04-20T07:51:16.996Z</time></trkpt><trkpt lat="33.6023667" lon="9.9904833"><ele>181.33333333333334</ele><time>2026-04-20T07:51:18.996Z</time></trkpt><trkpt lat="33.6023183" lon="9.9903733"><ele>181.66666666666669</ele><time>2026-04-20T07:51:20.996Z</time></trkpt><trkpt lat="33.6022767" lon="9.9902767"><ele>182.0</ele><time>2026-04-20T07:51:22.996Z</time></trkpt><trkpt lat="33.60223" lon="9.99018"><ele>182.33333333333334</ele><time>2026-04-20T07:51:24.996Z</time></trkpt><trkpt lat="33.60218" lon="9.9900817"><ele>182.66666666666666</ele><time>2026-04-20T07:51:26.996Z</time></trkpt><trkpt lat="33.602145" lon="9.990015"><ele>183.0</ele><time>2026-04-20T07:51:27.996Z</time></trkpt><trkpt lat="33.602095" lon="9.9899317"><ele>183.5</ele><time>2026-04-20T07:51:28.996Z</time></trkpt><trkpt lat="33.6020383" lon="9.9898283"><ele>184.0</ele><time>2026-04-20T07:51:29.996Z</time></trkpt><trkpt lat="33.6019767" lon="9.9897167"><ele>184.5</ele><time>2026-04-20T07:51:30.996Z</time></trkpt><trkpt lat="33.601905" lon="9.9895967"><ele>185.0</ele><time>2026-04-20T07:51:31.996Z</time></trkpt><trkpt lat="33.6018167" lon="9.9894667"><ele>185.66666666666666</ele><time>2026-04-20T07:51:32.996Z</time></trkpt><trkpt lat="33.6017083" lon="9.9893283"><ele>186.33333333333334</ele><time>2026-04-20T07:51:33.996Z</time></trkpt><trkpt lat="33.6015983" lon="9.9891833"><ele>187.0</ele><time>2026-04-20T07:51:34.996Z</time></trkpt><trkpt lat="33.6014767" lon="9.9890283"><ele>187.0</ele><time>2026-04-20T07:51:35.996Z</time></trkpt><trkpt lat="33.6013533" lon="9.98888"><ele>187.0</ele><time>2026-04-20T07:51:36.996Z</time></trkpt><trkpt lat="33.601225" lon="9.9887333"><ele>187.0</ele><time>2026-04-20T07:51:37.996Z</time></trkpt><trkpt lat="33.601095" lon="9.9885867"><ele>188.33333333333334</ele><time>2026-04-20T07:51:38.996Z</time></trkpt><trkpt lat="33.6009533" lon="9.9884333"><ele>189.66666666666666</ele><time>2026-04-20T07:51:39.996Z</time></trkpt><trkpt lat="33.6008" lon="9.9882833"><ele>191.0</ele><time>2026-04-20T07:51:40.996Z</time></trkpt><trkpt lat="33.60064" lon="9.9881367"><ele>191.0</ele><time>2026-04-20T07:51:41.996Z</time></trkpt><trkpt lat="33.6004783" lon="9.98801"><ele>191.0</ele><time>2026-04-20T07:51:42.996Z</time></trkpt><trkpt lat="33.60031" lon="9.987895"><ele>191.0</ele><time>2026-04-20T07:51:43.996Z</time></trkpt><trkpt lat="33.6001367" lon="9.98779"><ele>192.66666666666666</ele><time>2026-04-20T07:51:44.996Z</time></trkpt><trkpt lat="33.59996" lon="9.987695"><ele>194.33333333333331</ele><time>2026-04-20T07:51:45.996Z</time></trkpt><trkpt lat="33.59978" lon="9.987615"><ele>196.0</ele><time>2026-04-20T07:51:46.996Z</time></trkpt><trkpt lat="33.5996017" lon="9.9875383"><ele>199.66666666666666</ele><time>2026-04-20T07:51:47.996Z</time></trkpt><trkpt lat="33.5994167" lon="9.9874683"><ele>203.33333333333331</ele><time>2026-04-20T07:51:48.996Z</time></trkpt><trkpt lat="33.599225" lon="9.987415"><ele>207.0</ele><time>2026-04-20T07:51:49.996Z</time></trkpt><trkpt lat="33.599035" lon="9.9873667"><ele>207.0</ele><time>2026-04-20T07:51:50.996Z</time></trkpt><trkpt lat="33.59885" lon="9.987335"><ele>207.0</ele><time>2026-04-20T07:51:51.996Z</time></trkpt><trkpt lat="33.5986617" lon="9.9873083"><ele>207.0</ele><time>2026-04-20T07:51:52.996Z</time></trkpt><trkpt lat="33.598465" lon="9.98728"><ele>209.0</ele><time>2026-04-20T07:51:53.996Z</time></trkpt><trkpt lat="33.598265" lon="9.987255"><ele>211.0</ele><time>2026-04-20T07:51:54.996Z</time></trkpt><trkpt lat="33.598045" lon="9.9872217"><ele>213.0</ele><time>2026-04-20T07:51:55.996Z</time></trkpt><trkpt lat="33.5978433" lon="9.987215"><ele>212.33333333333331</ele><time>2026-04-20T07:51:56.996Z</time></trkpt><trkpt lat="33.5976317" lon="9.98722"><ele>211.66666666666666</ele><time>2026-04-20T07:51:57.996Z</time></trkpt><trkpt lat="33.5974217" lon="9.98724"><ele>211.0</ele><time>2026-04-20T07:51:58.996Z</time></trkpt><trkpt lat="33.5972167" lon="9.9872717"><ele>211.0</ele><time>2026-04-20T07:51:59.996Z</time></trkpt><trkpt lat="33.59701" lon="9.98731"><ele>211.0</ele><time>2026-04-20T07:52:00.996Z</time></trkpt><trkpt lat="33.5968" lon="9.987355"><ele>211.0</ele><time>2026-04-20T07:52:01.996Z</time></trkpt><trkpt lat="33.5965917" lon="9.9874033"><ele>212.0</ele><time>2026-04-20T07:52:02.996Z</time></trkpt><trkpt lat="33.5963733" lon="9.9874467"><ele>213.0</ele><time>2026-04-20T07:52:03.996Z</time></trkpt><trkpt lat="33.5961633" lon="9.9874967"><ele>214.0</ele><time>2026-04-20T07:52:04.996Z</time></trkpt><trkpt lat="33.595955" lon="9.9875383"><ele>214.0</ele><time>2026-04-20T07:52:05.996Z</time></trkpt><trkpt lat="33.595735" lon="9.9875667"><ele>214.0</ele><time>2026-04-20T07:52:06.996Z</time></trkpt><trkpt lat="33.595515" lon="9.9876017"><ele>214.0</ele><time>2026-04-20T07:52:07.996Z</time></trkpt><trkpt lat="33.595305" lon="9.98764"><ele>216.0</ele><time>2026-04-20T07:52:08.996Z</time></trkpt><trkpt lat="33.5950917" lon="9.98767"><ele>218.0</ele><time>2026-04-20T07:52:09.996Z</time></trkpt><trkpt lat="33.59488" lon="9.9876917"><ele>220.0</ele><time>2026-04-20T07:52:10.996Z</time></trkpt><trkpt lat="33.5946667" lon="9.9876967"><ele>220.0</ele><time>2026-04-20T07:52:11.996Z</time></trkpt><trkpt lat="33.59445" lon="9.9876783"><ele>220.0</ele><time>2026-04-20T07:52:12.996Z</time></trkpt><trkpt lat="33.594235" lon="9.9876467"><ele>220.0</ele><time>2026-04-20T07:52:13.996Z</time></trkpt><trkpt lat="33.5940267" lon="9.9876067"><ele>220.0</ele><time>2026-04-20T07:52:14.996Z</time></trkpt><trkpt lat="33.5938183" lon="9.98753"><ele>220.0</ele><time>2026-04-20T07:52:15.996Z</time></trkpt><trkpt lat="33.5936217" lon="9.9874117"><ele>220.0</ele><time>2026-04-20T07:52:16.996Z</time></trkpt><trkpt lat="33.593435" lon="9.9872817"><ele>220.0</ele><time>2026-04-20T07:52:17.996Z</time></trkpt><trkpt lat="33.593245" lon="9.9871383"><ele>220.0</ele><time>2026-04-20T07:52:18.996Z</time></trkpt><trkpt lat="33.59307" lon="9.986985"><ele>220.0</ele><time>2026-04-20T07:52:19.996Z</time></trkpt><trkpt lat="33.5929" lon="9.9868233"><ele>220.66666666666666</ele><time>2026-04-20T07:52:20.996Z</time></trkpt><trkpt lat="33.5927417" lon="9.98664"><ele>221.33333333333331</ele><time>2026-04-20T07:52:21.996Z</time></trkpt><trkpt lat="33.5925883" lon="9.9864517"><ele>222.0</ele><time>2026-04-20T07:52:22.996Z</time></trkpt><trkpt lat="33.5924417" lon="9.9862817"><ele>222.0</ele><time>2026-04-20T07:52:23.996Z</time></trkpt><trkpt lat="33.592295" lon="9.9861083"><ele>222.0</ele><time>2026-04-20T07:52:24.996Z</time></trkpt><trkpt lat="33.5921383" lon="9.9859417"><ele>222.0</ele><time>2026-04-20T07:52:25.996Z</time></trkpt><trkpt lat="33.5919817" lon="9.9857867"><ele>223.66666666666669</ele><time>2026-04-20T07:52:26.996Z</time></trkpt><trkpt lat="33.5918133" lon="9.9856383"><ele>225.33333333333334</ele><time>2026-04-20T07:52:27.996Z</time></trkpt><trkpt lat="33.5916483" lon="9.98548"><ele>227.0</ele><time>2026-04-20T07:52:28.996Z</time></trkpt><trkpt lat="33.5914783" lon="9.9853033"><ele>227.0</ele><time>2026-04-20T07:52:29.996Z</time></trkpt><trkpt lat="33.5913133" lon="9.9851167"><ele>227.0</ele><time>2026-04-20T07:52:30.996Z</time></trkpt><trkpt lat="33.5911583" lon="9.9849267"><ele>227.0</ele><time>2026-04-20T07:52:31.996Z</time></trkpt><trkpt lat="33.591005" lon="9.9847333"><ele>227.66666666666669</ele><time>2026-04-20T07:52:32.996Z</time></trkpt><trkpt lat="33.5908583" lon="9.9845433"><ele>228.33333333333331</ele><time>2026-04-20T07:52:33.996Z</time></trkpt><trkpt lat="33.5907167" lon="9.9843617"><ele>229.0</ele><time>2026-04-20T07:52:34.996Z</time></trkpt><trkpt lat="33.5905617" lon="9.9841883"><ele>227.33333333333331</ele><time>2026-04-20T07:52:35.996Z</time></trkpt><trkpt lat="33.590405" lon="9.9840183"><ele>225.66666666666669</ele><time>2026-04-20T07:52:36.996Z</time></trkpt><trkpt lat="33.590245" lon="9.9838567"><ele>224.0</ele><time>2026-04-20T07:52:37.996Z</time></trkpt><trkpt lat="33.5900733" lon="9.9837067"><ele>228.66666666666669</ele><time>2026-04-20T07:52:38.996Z</time></trkpt><trkpt lat="33.589895" lon="9.9835667"><ele>233.33333333333331</ele><time>2026-04-20T07:52:39.996Z</time></trkpt><trkpt lat="33.58972" lon="9.9834317"><ele>238.0</ele><time>2026-04-20T07:52:40.996Z</time></trkpt><trkpt lat="33.5895433" lon="9.9833"><ele>238.66666666666666</ele><time>2026-04-20T07:52:41.996Z</time></trkpt><trkpt lat="33.589365" lon="9.9831733"><ele>239.33333333333331</ele><time>2026-04-20T07:52:42.996Z</time></trkpt><trkpt lat="33.58919" lon="9.9830467"><ele>240.0</ele><time>2026-04-20T07:52:43.996Z</time></trkpt><trkpt lat="33.5890083" lon="9.98291"><ele>240.0</ele><time>2026-04-20T07:52:44.996Z</time></trkpt><trkpt lat="33.588825" lon="9.9827817"><ele>240.0</ele><time>2026-04-20T07:52:45.996Z</time></trkpt><trkpt lat="33.5886483" lon="9.982655"><ele>240.0</ele><time>2026-04-20T07:52:46.996Z</time></trkpt><trkpt lat="33.5884733" lon="9.9825283"><ele>241.0</ele><time>2026-04-20T07:52:47.996Z</time></trkpt><trkpt lat="33.5883083" lon="9.9824067"><ele>242.0</ele><time>2026-04-20T07:52:48.996Z</time></trkpt><trkpt lat="33.5881383" lon="9.9822967"><ele>243.0</ele><time>2026-04-20T07:52:49.996Z</time></trkpt><trkpt lat="33.587955" lon="9.982195"><ele>242.33333333333331</ele><time>2026-04-20T07:52:50.996Z</time></trkpt><trkpt lat="33.5877683" lon="9.9821017"><ele>241.66666666666666</ele><time>2026-04-20T07:52:51.996Z</time></trkpt><trkpt lat="33.587565" lon="9.9820333"><ele>241.0</ele><time>2026-04-20T07:52:52.996Z</time></trkpt><trkpt lat="33.5873667" lon="9.9819883"><ele>241.0</ele><time>2026-04-20T07:52:53.996Z</time></trkpt><trkpt lat="33.58716" lon="9.981985"><ele>241.0</ele><time>2026-04-20T07:52:54.996Z</time></trkpt><trkpt lat="33.586965" lon="9.9820183"><ele>241.0</ele><time>2026-04-20T07:52:55.996Z</time></trkpt><trkpt lat="33.58677" lon="9.98207"><ele>240.0</ele><time>2026-04-20T07:52:56.996Z</time></trkpt><trkpt lat="33.5865833" lon="9.9821267"><ele>239.0</ele><time>2026-04-20T07:52:57.996Z</time></trkpt><trkpt lat="33.5864" lon="9.9821983"><ele>238.0</ele><time>2026-04-20T07:52:58.996Z</time></trkpt><trkpt lat="33.5862283" lon="9.98228"><ele>237.33333333333331</ele><time>2026-04-20T07:52:59.996Z</time></trkpt><trkpt lat="33.5860533" lon="9.9823583"><ele>236.66666666666669</ele><time>2026-04-20T07:53:00.996Z</time></trkpt><trkpt lat="33.5858883" lon="9.9824283"><ele>236.0</ele><time>2026-04-20T07:53:01.996Z</time></trkpt><trkpt lat="33.5857117" lon="9.9824717"><ele>236.0</ele><time>2026-04-20T07:53:02.996Z</time></trkpt><trkpt lat="33.5855283" lon="9.98249"><ele>236.0</ele><time>2026-04-20T07:53:03.996Z</time></trkpt><trkpt lat="33.5853367" lon="9.9824833"><ele>236.0</ele><time>2026-04-20T07:53:04.996Z</time></trkpt><trkpt lat="33.5851317" lon="9.9824667"><ele>233.33333333333334</ele><time>2026-04-20T07:53:05.996Z</time></trkpt><trkpt lat="33.5849333" lon="9.9824433"><ele>230.66666666666669</ele><time>2026-04-20T07:53:06.996Z</time></trkpt><trkpt lat="33.5847317" lon="9.982415"><ele>228.0</ele><time>2026-04-20T07:53:07.996Z</time></trkpt><trkpt lat="33.58454" lon="9.9823817"><ele>226.66666666666669</ele><time>2026-04-20T07:53:08.996Z</time></trkpt><trkpt lat="33.58436" lon="9.98235"><ele>225.33333333333334</ele><time>2026-04-20T07:53:09.996Z</time></trkpt><trkpt lat="33.5841917" lon="9.9823033"><ele>224.0</ele><time>2026-04-20T07:53:10.996Z</time></trkpt><trkpt lat="33.5840433" lon="9.98224"><ele>224.0</ele><time>2026-04-20T07:53:11.996Z</time></trkpt><trkpt lat="33.5839133" lon="9.9821617"><ele>224.0</ele><time>2026-04-20T07:53:12.996Z</time></trkpt><trkpt lat="33.5837967" lon="9.9820567"><ele>224.0</ele><time>2026-04-20T07:53:13.996Z</time></trkpt><trkpt lat="33.583705" lon="9.98194"><ele>224.0</ele><time>2026-04-20T07:53:14.996Z</time></trkpt><trkpt lat="33.583655" lon="9.9818367"><ele>223.66666666666669</ele><time>2026-04-20T07:53:15.996Z</time></trkpt><trkpt lat="33.5836117" lon="9.981735"><ele>223.33333333333334</ele><time>2026-04-20T07:53:16.996Z</time></trkpt><trkpt lat="33.5835733" lon="9.9816517"><ele>223.0</ele><time>2026-04-20T07:53:17.995Z</time></trkpt><trkpt lat="33.583515" lon="9.98154"><ele>222.66666666666669</ele><time>2026-04-20T07:53:19.995Z</time></trkpt><trkpt lat="33.5834767" lon="9.9814767"><ele>222.33333333333334</ele><time>2026-04-20T07:53:22.995Z</time></trkpt><trkpt lat="33.5833967" lon="9.9815033"><ele>222.0</ele><time>2026-04-20T07:54:15.995Z</time></trkpt><trkpt lat="33.5832783" lon="9.9815783"><ele>222.0</ele><time>2026-04-20T07:54:17.995Z</time></trkpt><trkpt lat="33.5832033" lon="9.9816167"><ele>222.0</ele><time>2026-04-20T07:54:18.995Z</time></trkpt><trkpt lat="33.5831183" lon="9.9816633"><ele>222.0</ele><time>2026-04-20T07:54:19.995Z</time></trkpt><trkpt lat="33.5830317" lon="9.98171"><ele>222.0</ele><time>2026-04-20T07:54:20.995Z</time></trkpt><trkpt lat="33.5829533" lon="9.981775"><ele>222.0</ele><time>2026-04-20T07:54:21.995Z</time></trkpt><trkpt lat="33.58288" lon="9.98185"><ele>221.6</ele><time>2026-04-20T07:54:22.995Z</time></trkpt><trkpt lat="33.5828217" lon="9.9819367"><ele>221.2</ele><time>2026-04-20T07:54:23.995Z</time></trkpt><trkpt lat="33.5827717" lon="9.98203"><ele>220.8</ele><time>2026-04-20T07:54:24.995Z</time></trkpt><trkpt lat="33.5827267" lon="9.9821367"><ele>220.4</ele><time>2026-04-20T07:54:25.995Z</time></trkpt><trkpt lat="33.5826867" lon="9.9822567"><ele>220.0</ele><time>2026-04-20T07:54:26.995Z</time></trkpt><trkpt lat="33.5826533" lon="9.98238"><ele>220.75</ele><time>2026-04-20T07:54:27.995Z</time></trkpt><trkpt lat="33.5826317" lon="9.9825167"><ele>221.5</ele><time>2026-04-20T07:54:28.995Z</time></trkpt><trkpt lat="33.582615" lon="9.9826667"><ele>222.25</ele><time>2026-04-20T07:54:29.995Z</time></trkpt><trkpt lat="33.5826183" lon="9.98284"><ele>223.0</ele><time>2026-04-20T07:54:30.995Z</time></trkpt><trkpt lat="33.582635" lon="9.9830217"><ele>223.0</ele><time>2026-04-20T07:54:31.995Z</time></trkpt><trkpt lat="33.5826617" lon="9.9831867"><ele>223.0</ele><time>2026-04-20T07:54:32.995Z</time></trkpt><trkpt lat="33.5826983" lon="9.983345"><ele>223.0</ele><time>2026-04-20T07:54:33.995Z</time></trkpt><trkpt lat="33.5827317" lon="9.9834867"><ele>223.0</ele><time>2026-04-20T07:54:34.995Z</time></trkpt><trkpt lat="33.5827567" lon="9.9836267"><ele>222.8</ele><time>2026-04-20T07:54:35.995Z</time></trkpt><trkpt lat="33.5827617" lon="9.9837517"><ele>222.60000000000002</ele><time>2026-04-20T07:54:36.995Z</time></trkpt><trkpt lat="33.5827517" lon="9.983865"><ele>222.39999999999998</ele><time>2026-04-20T07:54:37.995Z</time></trkpt><trkpt lat="33.5827267" lon="9.9839717"><ele>222.2</ele><time>2026-04-20T07:54:38.995Z</time></trkpt><trkpt lat="33.5826883" lon="9.9840867"><ele>222.0</ele><time>2026-04-20T07:54:39.995Z</time></trkpt><trkpt lat="33.5826483" lon="9.984195"><ele>221.0</ele><time>2026-04-20T07:54:40.995Z</time></trkpt><trkpt lat="33.5826033" lon="9.9843033"><ele>220.0</ele><time>2026-04-20T07:54:41.995Z</time></trkpt><trkpt lat="33.5825567" lon="9.98442"><ele>219.0</ele><time>2026-04-20T07:54:42.995Z</time></trkpt><trkpt lat="33.5825133" lon="9.9845367"><ele>218.0</ele><time>2026-04-20T07:54:43.995Z</time></trkpt><trkpt lat="33.582475" lon="9.9846533"><ele>217.0</ele><time>2026-04-20T07:54:44.995Z</time></trkpt><trkpt lat="33.58243" lon="9.9847717"><ele>217.0</ele><time>2026-04-20T07:54:45.995Z</time></trkpt><trkpt lat="33.582385" lon="9.98489"><ele>217.0</ele><time>2026-04-20T07:54:46.995Z</time></trkpt><trkpt lat="33.582345" lon="9.9850133"><ele>217.0</ele><time>2026-04-20T07:54:47.995Z</time></trkpt><trkpt lat="33.5823033" lon="9.9851367"><ele>217.0</ele><time>2026-04-20T07:54:48.995Z</time></trkpt><trkpt lat="33.5822617" lon="9.985265"><ele>217.0</ele><time>2026-04-20T07:54:49.995Z</time></trkpt><trkpt lat="33.5822183" lon="9.9853917"><ele>217.5</ele><time>2026-04-20T07:54:50.995Z</time></trkpt><trkpt lat="33.5821617" lon="9.9855133"><ele>218.0</ele><time>2026-04-20T07:54:51.995Z</time></trkpt><trkpt lat="33.58208" lon="9.9856183"><ele>218.5</ele><time>2026-04-20T07:54:52.995Z</time></trkpt><trkpt lat="33.58199" lon="9.9857233"><ele>219.0</ele><time>2026-04-20T07:54:53.995Z</time></trkpt><trkpt lat="33.5818833" lon="9.985805"><ele>218.5</ele><time>2026-04-20T07:54:54.995Z</time></trkpt><trkpt lat="33.5817733" lon="9.9858867"><ele>218.0</ele><time>2026-04-20T07:54:55.995Z</time></trkpt><trkpt lat="33.5816567" lon="9.9859567"><ele>217.5</ele><time>2026-04-20T07:54:56.995Z</time></trkpt><trkpt lat="33.5815383" lon="9.9860267"><ele>217.0</ele><time>2026-04-20T07:54:57.995Z</time></trkpt><trkpt lat="33.5814233" lon="9.9861067"><ele>217.0</ele><time>2026-04-20T07:54:58.995Z</time></trkpt><trkpt lat="33.5812933" lon="9.9861733"><ele>217.0</ele><time>2026-04-20T07:54:59.995Z</time></trkpt><trkpt lat="33.5811617" lon="9.98625"><ele>217.0</ele><time>2026-04-20T07:55:00.995Z</time></trkpt><trkpt lat="33.5810383" lon="9.986335"><ele>217.0</ele><time>2026-04-20T07:55:01.995Z</time></trkpt><trkpt lat="33.5809117" lon="9.9864267"><ele>216.33333333333331</ele><time>2026-04-20T07:55:02.995Z</time></trkpt><trkpt lat="33.58079" lon="9.9865383"><ele>215.66666666666669</ele><time>2026-04-20T07:55:03.995Z</time></trkpt><trkpt lat="33.5806717" lon="9.9866583"><ele>215.0</ele><time>2026-04-20T07:55:04.995Z</time></trkpt><trkpt lat="33.58056" lon="9.9867967"><ele>215.0</ele><time>2026-04-20T07:55:05.995Z</time></trkpt><trkpt lat="33.58045" lon="9.986935"><ele>215.0</ele><time>2026-04-20T07:55:06.995Z</time></trkpt><trkpt lat="33.5803383" lon="9.9870783"><ele>215.0</ele><time>2026-04-20T07:55:07.995Z</time></trkpt><trkpt lat="33.58023" lon="9.9872283"><ele>214.66666666666669</ele><time>2026-04-20T07:55:08.995Z</time></trkpt><trkpt lat="33.5801133" lon="9.987385"><ele>214.33333333333331</ele><time>2026-04-20T07:55:09.995Z</time></trkpt><trkpt lat="33.58" lon="9.98755"><ele>214.0</ele><time>2026-04-20T07:55:10.995Z</time></trkpt><trkpt lat="33.579885" lon="9.9877117"><ele>214.0</ele><time>2026-04-20T07:55:11.995Z</time></trkpt><trkpt lat="33.579765" lon="9.9878717"><ele>214.0</ele><time>2026-04-20T07:55:12.995Z</time></trkpt><trkpt lat="33.5796367" lon="9.9880383"><ele>214.0</ele><time>2026-04-20T07:55:13.995Z</time></trkpt><trkpt lat="33.5795117" lon="9.9882083"><ele>217.0</ele><time>2026-04-20T07:55:14.995Z</time></trkpt><trkpt lat="33.5793983" lon="9.988385"><ele>220.0</ele><time>2026-04-20T07:55:15.995Z</time></trkpt><trkpt lat="33.5792883" lon="9.9885567"><ele>223.0</ele><time>2026-04-20T07:55:16.995Z</time></trkpt><trkpt lat="33.5791783" lon="9.988735"><ele>223.0</ele><time>2026-04-20T07:55:17.995Z</time></trkpt><trkpt lat="33.57907" lon="9.9889133"><ele>223.0</ele><time>2026-04-20T07:55:18.995Z</time></trkpt><trkpt lat="33.5789633" lon="9.98908"><ele>223.0</ele><time>2026-04-20T07:55:19.995Z</time></trkpt><trkpt lat="33.57884" lon="9.9892417"><ele>222.0</ele><time>2026-04-20T07:55:20.995Z</time></trkpt><trkpt lat="33.5787117" lon="9.9893917"><ele>221.0</ele><time>2026-04-20T07:55:21.995Z</time></trkpt><trkpt lat="33.5785783" lon="9.989535"><ele>220.0</ele><time>2026-04-20T07:55:22.995Z</time></trkpt><trkpt lat="33.578435" lon="9.9896817"><ele>221.0</ele><time>2026-04-20T07:55:23.995Z</time></trkpt><trkpt lat="33.5782867" lon="9.98982"><ele>222.0</ele><time>2026-04-20T07:55:24.995Z</time></trkpt><trkpt lat="33.5781433" lon="9.9899583"><ele>223.0</ele><time>2026-04-20T07:55:25.995Z</time></trkpt><trkpt lat="33.5780017" lon="9.9900917"><ele>223.0</ele><time>2026-04-20T07:55:26.995Z</time></trkpt><trkpt lat="33.5778583" lon="9.9902333"><ele>223.0</ele><time>2026-04-20T07:55:27.995Z</time></trkpt><trkpt lat="33.5777233" lon="9.9903733"><ele>223.0</ele><time>2026-04-20T07:55:28.995Z</time></trkpt><trkpt lat="33.577595" lon="9.99051"><ele>225.66666666666666</ele><time>2026-04-20T07:55:29.995Z</time></trkpt><trkpt lat="33.5774817" lon="9.9906683"><ele>228.33333333333331</ele><time>2026-04-20T07:55:30.995Z</time></trkpt><trkpt lat="33.57738" lon="9.9908183"><ele>231.0</ele><time>2026-04-20T07:55:31.995Z</time></trkpt><trkpt lat="33.5773" lon="9.9909883"><ele>232.0</ele><time>2026-04-20T07:55:32.995Z</time></trkpt><trkpt lat="33.577255" lon="9.9911783"><ele>233.0</ele><time>2026-04-20T07:55:33.995Z</time></trkpt><trkpt lat="33.5772267" lon="9.9913783"><ele>234.0</ele><time>2026-04-20T07:55:34.995Z</time></trkpt><trkpt lat="33.5772" lon="9.99158"><ele>232.5</ele><time>2026-04-20T07:55:35.995Z</time></trkpt><trkpt lat="33.5771467" lon="9.9917583"><ele>231.0</ele><time>2026-04-20T07:55:36.995Z</time></trkpt><trkpt lat="33.5770667" lon="9.99192"><ele>229.5</ele><time>2026-04-20T07:55:37.995Z</time></trkpt><trkpt lat="33.5769833" lon="9.9920433"><ele>228.0</ele><time>2026-04-20T07:55:38.995Z</time></trkpt><trkpt lat="33.5768733" lon="9.9921483"><ele>227.0</ele><time>2026-04-20T07:55:39.995Z</time></trkpt><trkpt lat="33.5767367" lon="9.9922233"><ele>226.0</ele><time>2026-04-20T07:55:40.995Z</time></trkpt><trkpt lat="33.576595" lon="9.992295"><ele>225.0</ele><time>2026-04-20T07:55:41.995Z</time></trkpt><trkpt lat="33.5764417" lon="9.9923617"><ele>225.0</ele><time>2026-04-20T07:55:42.995Z</time></trkpt><trkpt lat="33.5762767" lon="9.99243"><ele>225.0</ele><time>2026-04-20T07:55:43.995Z</time></trkpt><trkpt lat="33.5761217" lon="9.9925167"><ele>225.0</ele><time>2026-04-20T07:55:44.995Z</time></trkpt><trkpt lat="33.5759533" lon="9.992605"><ele>220.66666666666669</ele><time>2026-04-20T07:55:45.995Z</time></trkpt><trkpt lat="33.5758117" lon="9.9926967"><ele>216.33333333333334</ele><time>2026-04-20T07:55:46.995Z</time></trkpt><trkpt lat="33.5756867" lon="9.9928183"><ele>212.0</ele><time>2026-04-20T07:55:47.995Z</time></trkpt><trkpt lat="33.5755883" lon="9.9929517"><ele>212.0</ele><time>2026-04-20T07:55:48.995Z</time></trkpt><trkpt lat="33.575515" lon="9.9931067"><ele>212.0</ele><time>2026-04-20T07:55:49.995Z</time></trkpt><trkpt lat="33.5754483" lon="9.99327"><ele>212.0</ele><time>2026-04-20T07:55:50.995Z</time></trkpt><trkpt lat="33.5753983" lon="9.9934567"><ele>212.66666666666669</ele><time>2026-04-20T07:55:51.995Z</time></trkpt><trkpt lat="33.5753483" lon="9.9936317"><ele>213.33333333333331</ele><time>2026-04-20T07:55:52.995Z</time></trkpt><trkpt lat="33.5752967" lon="9.993815"><ele>214.0</ele><time>2026-04-20T07:55:53.995Z</time></trkpt><trkpt lat="33.57525" lon="9.9940083"><ele>215.66666666666666</ele><time>2026-04-20T07:55:54.995Z</time></trkpt><trkpt lat="33.5752067" lon="9.9942"><ele>217.33333333333331</ele><time>2026-04-20T07:55:55.995Z</time></trkpt><trkpt lat="33.5751417" lon="9.9943667"><ele>219.0</ele><time>2026-04-20T07:55:56.995Z</time></trkpt><trkpt lat="33.57506" lon="9.9945083"><ele>219.0</ele><time>2026-04-20T07:55:57.995Z</time></trkpt><trkpt lat="33.5749767" lon="9.994615"><ele>219.0</ele><time>2026-04-20T07:55:58.995Z</time></trkpt><trkpt lat="33.574865" lon="9.994685"><ele>219.0</ele><time>2026-04-20T07:55:59.995Z</time></trkpt><trkpt lat="33.57473" lon="9.9947333"><ele>219.0</ele><time>2026-04-20T07:56:00.995Z</time></trkpt><trkpt lat="33.574585" lon="9.9947667"><ele>220.0</ele><time>2026-04-20T07:56:01.995Z</time></trkpt><trkpt lat="33.5744383" lon="9.994805"><ele>221.0</ele><time>2026-04-20T07:56:02.995Z</time></trkpt><trkpt lat="33.574285" lon="9.9948467"><ele>222.0</ele><time>2026-04-20T07:56:03.995Z</time></trkpt><trkpt lat="33.5741317" lon="9.9948867"><ele>222.0</ele><time>2026-04-20T07:56:04.995Z</time></trkpt><trkpt lat="33.5739733" lon="9.9949217"><ele>222.0</ele><time>2026-04-20T07:56:05.995Z</time></trkpt><trkpt lat="33.5738117" lon="9.9949567"><ele>222.0</ele><time>2026-04-20T07:56:06.995Z</time></trkpt><trkpt lat="33.57365" lon="9.9949983"><ele>223.33333333333331</ele><time>2026-04-20T07:56:07.995Z</time></trkpt><trkpt lat="33.5734933" lon="9.9950433"><ele>224.66666666666666</ele><time>2026-04-20T07:56:08.995Z</time></trkpt><trkpt lat="33.57335" lon="9.9951017"><ele>226.0</ele><time>2026-04-20T07:56:09.995Z</time></trkpt><trkpt lat="33.5732033" lon="9.9951483"><ele>226.0</ele><time>2026-04-20T07:56:10.995Z</time></trkpt><trkpt lat="33.573055" lon="9.995175"><ele>226.0</ele><time>2026-04-20T07:56:11.995Z</time></trkpt><trkpt lat="33.5729033" lon="9.9951933"><ele>226.0</ele><time>2026-04-20T07:56:12.995Z</time></trkpt><trkpt lat="33.5727467" lon="9.9952133"><ele>228.25</ele><time>2026-04-20T07:56:13.995Z</time></trkpt><trkpt lat="33.5725983" lon="9.99524"><ele>230.5</ele><time>2026-04-20T07:56:14.995Z</time></trkpt><trkpt lat="33.5724583" lon="9.9952783"><ele>232.75</ele><time>2026-04-20T07:56:15.995Z</time></trkpt><trkpt lat="33.5723383" lon="9.9953583"><ele>235.0</ele><time>2026-04-20T07:56:16.995Z</time></trkpt><trkpt lat="33.5722233" lon="9.995435"><ele>235.0</ele><time>2026-04-20T07:56:17.995Z</time></trkpt><trkpt lat="33.5721183" lon="9.995515"><ele>235.0</ele><time>2026-04-20T07:56:18.995Z</time></trkpt><trkpt lat="33.5720033" lon="9.9955833"><ele>235.0</ele><time>2026-04-20T07:56:19.995Z</time></trkpt><trkpt lat="33.5718917" lon="9.9956533"><ele>235.0</ele><time>2026-04-20T07:56:20.995Z</time></trkpt><trkpt lat="33.5717733" lon="9.9957067"><ele>235.25</ele><time>2026-04-20T07:56:21.995Z</time></trkpt><trkpt lat="33.571645" lon="9.9957583"><ele>235.5</ele><time>2026-04-20T07:56:22.995Z</time></trkpt><trkpt lat="33.571525" lon="9.9958117"><ele>235.75</ele><time>2026-04-20T07:56:23.995Z</time></trkpt><trkpt lat="33.571415" lon="9.995905"><ele>236.0</ele><time>2026-04-20T07:56:24.995Z</time></trkpt><trkpt lat="33.5713183" lon="9.9960217"><ele>236.0</ele><time>2026-04-20T07:56:25.995Z</time></trkpt><trkpt lat="33.5712233" lon="9.99614"><ele>236.0</ele><time>2026-04-20T07:56:26.995Z</time></trkpt><trkpt lat="33.5711333" lon="9.9962667"><ele>236.0</ele><time>2026-04-20T07:56:27.995Z</time></trkpt><trkpt lat="33.5710383" lon="9.99638"><ele>236.0</ele><time>2026-04-20T07:56:28.995Z</time></trkpt><trkpt lat="33.5709217" lon="9.9964633"><ele>236.0</ele><time>2026-04-20T07:56:29.995Z</time></trkpt><trkpt lat="33.5707833" lon="9.996505"><ele>236.0</ele><time>2026-04-20T07:56:30.995Z</time></trkpt><trkpt lat="33.5706433" lon="9.9965283"><ele>236.0</ele><time>2026-04-20T07:56:31.995Z</time></trkpt><trkpt lat="33.5704967" lon="9.996545"><ele>236.0</ele><time>2026-04-20T07:56:32.995Z</time></trkpt><trkpt lat="33.5703433" lon="9.9965617"><ele>235.66666666666669</ele><time>2026-04-20T07:56:33.995Z</time></trkpt><trkpt lat="33.57019" lon="9.9965717"><ele>235.33333333333331</ele><time>2026-04-20T07:56:34.995Z</time></trkpt><trkpt lat="33.5700367" lon="9.9965983"><ele>235.0</ele><time>2026-04-20T07:56:35.995Z</time></trkpt><trkpt lat="33.5698783" lon="9.9966183"><ele>235.0</ele><time>2026-04-20T07:56:36.995Z</time></trkpt><trkpt lat="33.56972" lon="9.99665"><ele>235.0</ele><time>2026-04-20T07:56:37.995Z</time></trkpt><trkpt lat="33.5695617" lon="9.99669"><ele>235.0</ele><time>2026-04-20T07:56:38.995Z</time></trkpt><trkpt lat="33.5694033" lon="9.9967467"><ele>235.66666666666666</ele><time>2026-04-20T07:56:39.995Z</time></trkpt><trkpt lat="33.5692517" lon="9.9968133"><ele>236.33333333333331</ele><time>2026-04-20T07:56:40.995Z</time></trkpt><trkpt lat="33.569105" lon="9.996895"><ele>237.0</ele><time>2026-04-20T07:56:41.995Z</time></trkpt><trkpt lat="33.5689617" lon="9.996985"><ele>237.0</ele><time>2026-04-20T07:56:42.995Z</time></trkpt><trkpt lat="33.5688117" lon="9.997065"><ele>237.0</ele><time>2026-04-20T07:56:43.995Z</time></trkpt><trkpt lat="33.5686667" lon="9.9971383"><ele>237.0</ele><time>2026-04-20T07:56:44.995Z</time></trkpt><trkpt lat="33.5685233" lon="9.99721"><ele>237.0</ele><time>2026-04-20T07:56:45.995Z</time></trkpt><trkpt lat="33.56838" lon="9.9972383"><ele>237.0</ele><time>2026-04-20T07:56:46.995Z</time></trkpt><trkpt lat="33.5682383" lon="9.9972317"><ele>237.0</ele><time>2026-04-20T07:56:47.995Z</time></trkpt><trkpt lat="33.5680983" lon="9.997175"><ele>237.0</ele><time>2026-04-20T07:56:48.995Z</time></trkpt><trkpt lat="33.5679583" lon="9.9971167"><ele>237.33333333333331</ele><time>2026-04-20T07:56:49.995Z</time></trkpt><trkpt lat="33.5678167" lon="9.997045"><ele>237.66666666666666</ele><time>2026-04-20T07:56:50.995Z</time></trkpt><trkpt lat="33.5676767" lon="9.9969783"><ele>238.0</ele><time>2026-04-20T07:56:51.995Z</time></trkpt><trkpt lat="33.5675267" lon="9.99693"><ele>238.0</ele><time>2026-04-20T07:56:52.995Z</time></trkpt><trkpt lat="33.5673817" lon="9.9969017"><ele>238.0</ele><time>2026-04-20T07:56:53.995Z</time></trkpt><trkpt lat="33.5672317" lon="9.9968933"><ele>238.0</ele><time>2026-04-20T07:56:54.995Z</time></trkpt><trkpt lat="33.5670817" lon="9.9969"><ele>238.0</ele><time>2026-04-20T07:56:55.995Z</time></trkpt><trkpt lat="33.566925" lon="9.9969133"><ele>237.66666666666666</ele><time>2026-04-20T07:56:56.995Z</time></trkpt><trkpt lat="33.5667567" lon="9.99694"><ele>237.33333333333331</ele><time>2026-04-20T07:56:57.995Z</time></trkpt><trkpt lat="33.5666" lon="9.9969717"><ele>237.0</ele><time>2026-04-20T07:56:58.995Z</time></trkpt><trkpt lat="33.5664317" lon="9.997005"><ele>237.0</ele><time>2026-04-20T07:56:59.995Z</time></trkpt><trkpt lat="33.5662583" lon="9.9970417"><ele>237.0</ele><time>2026-04-20T07:57:00.995Z</time></trkpt><trkpt lat="33.5660883" lon="9.9970783"><ele>237.0</ele><time>2026-04-20T07:57:01.995Z</time></trkpt><trkpt lat="33.5659233" lon="9.99712"><ele>237.33333333333331</ele><time>2026-04-20T07:57:02.995Z</time></trkpt><trkpt lat="33.5657617" lon="9.9971617"><ele>237.66666666666666</ele><time>2026-04-20T07:57:03.994Z</time></trkpt><trkpt lat="33.5656017" lon="9.9971933"><ele>238.0</ele><time>2026-04-20T07:57:04.994Z</time></trkpt><trkpt lat="33.565435" lon="9.997225"><ele>236.33333333333331</ele><time>2026-04-20T07:57:05.994Z</time></trkpt><trkpt lat="33.5652717" lon="9.9972633"><ele>234.66666666666669</ele><time>2026-04-20T07:57:06.994Z</time></trkpt><trkpt lat="33.5651167" lon="9.9973283"><ele>233.0</ele><time>2026-04-20T07:57:07.994Z</time></trkpt><trkpt lat="33.5649767" lon="9.9974183"><ele>234.33333333333334</ele><time>2026-04-20T07:57:08.994Z</time></trkpt><trkpt lat="33.5648433" lon="9.9975383"><ele>235.66666666666669</ele><time>2026-04-20T07:57:09.994Z</time></trkpt><trkpt lat="33.56472" lon="9.9976717"><ele>237.0</ele><time>2026-04-20T07:57:10.994Z</time></trkpt><trkpt lat="33.5645983" lon="9.9978117"><ele>236.0</ele><time>2026-04-20T07:57:11.994Z</time></trkpt><trkpt lat="33.56449" lon="9.997965"><ele>235.0</ele><time>2026-04-20T07:57:12.994Z</time></trkpt><trkpt lat="33.564395" lon="9.998125"><ele>234.0</ele><time>2026-04-20T07:57:13.994Z</time></trkpt><trkpt lat="33.564315" lon="9.9983017"><ele>237.0</ele><time>2026-04-20T07:57:14.994Z</time></trkpt><trkpt lat="33.56425" lon="9.998475"><ele>240.0</ele><time>2026-04-20T07:57:15.994Z</time></trkpt><trkpt lat="33.5641867" lon="9.998645"><ele>243.0</ele><time>2026-04-20T07:57:16.994Z</time></trkpt><trkpt lat="33.56411" lon="9.99879"><ele>243.0</ele><time>2026-04-20T07:57:17.994Z</time></trkpt><trkpt lat="33.564015" lon="9.99889"><ele>243.0</ele><time>2026-04-20T07:57:18.994Z</time></trkpt><trkpt lat="33.5639017" lon="9.9989717"><ele>243.0</ele><time>2026-04-20T07:57:19.994Z</time></trkpt><trkpt lat="33.56379" lon="9.999035"><ele>243.0</ele><time>2026-04-20T07:57:20.994Z</time></trkpt><trkpt lat="33.56369" lon="9.9990767"><ele>243.5</ele><time>2026-04-20T07:57:21.994Z</time></trkpt><trkpt lat="33.563595" lon="9.99911"><ele>244.0</ele><time>2026-04-20T07:57:22.994Z</time></trkpt><trkpt lat="33.563505" lon="9.99914"><ele>244.5</ele><time>2026-04-20T07:57:23.994Z</time></trkpt><trkpt lat="33.5634233" lon="9.9991617"><ele>245.0</ele><time>2026-04-20T07:57:24.994Z</time></trkpt><trkpt lat="33.56335" lon="9.9991817"><ele>245.5</ele><time>2026-04-20T07:57:25.994Z</time></trkpt><trkpt lat="33.5632733" lon="9.99922"><ele>246.0</ele><time>2026-04-20T07:57:27.994Z</time></trkpt><trkpt lat="33.5633233" lon="9.9992783"><ele>246.0</ele><time>2026-04-20T07:57:56.994Z</time></trkpt><trkpt lat="33.5634183" lon="9.9992433"><ele>246.00000000000003</ele><time>2026-04-20T07:57:58.994Z</time></trkpt><trkpt lat="33.563535" lon="9.9991883"><ele>246.00000000000003</ele><time>2026-04-20T07:58:00.994Z</time></trkpt><trkpt lat="33.5636083" lon="9.9991567"><ele>246.0</ele><time>2026-04-20T07:58:01.994Z</time></trkpt><trkpt lat="33.563685" lon="9.999125"><ele>246.0</ele><time>2026-04-20T07:58:02.994Z</time></trkpt><trkpt lat="33.5637617" lon="9.9990867"><ele>245.4</ele><time>2026-04-20T07:58:03.994Z</time></trkpt><trkpt lat="33.5638433" lon="9.9990483"><ele>244.8</ele><time>2026-04-20T07:58:04.994Z</time></trkpt><trkpt lat="33.5639267" lon="9.9990033"><ele>244.20000000000002</ele><time>2026-04-20T07:58:05.994Z</time></trkpt><trkpt lat="33.5640217" lon="9.9989583"><ele>243.60000000000002</ele><time>2026-04-20T07:58:06.994Z</time></trkpt><trkpt lat="33.5641167" lon="9.9988967"><ele>243.0</ele><time>2026-04-20T07:58:07.994Z</time></trkpt><trkpt lat="33.5641933" lon="9.99881"><ele>243.0</ele><time>2026-04-20T07:58:08.994Z</time></trkpt><trkpt lat="33.564255" lon="9.9987"><ele>243.0</ele><time>2026-04-20T07:58:09.994Z</time></trkpt><trkpt lat="33.56431" lon="9.998585"><ele>243.0</ele><time>2026-04-20T07:58:10.994Z</time></trkpt><trkpt lat="33.5643533" lon="9.9984733"><ele>243.0</ele><time>2026-04-20T07:58:11.994Z</time></trkpt><trkpt lat="33.5643817" lon="9.99838"><ele>243.0</ele><time>2026-04-20T07:58:12.994Z</time></trkpt><trkpt lat="33.5644017" lon="9.99829"><ele>242.0</ele><time>2026-04-20T07:58:13.994Z</time></trkpt><trkpt lat="33.5644217" lon="9.998215"><ele>241.0</ele><time>2026-04-20T07:58:14.994Z</time></trkpt><trkpt lat="33.5644667" lon="9.99809"><ele>240.0</ele><time>2026-04-20T07:58:16.994Z</time></trkpt><trkpt lat="33.5645267" lon="9.99796"><ele>239.0</ele><time>2026-04-20T07:58:18.994Z</time></trkpt><trkpt lat="33.5645767" lon="9.9979033"><ele>238.0</ele><time>2026-04-20T07:58:19.994Z</time></trkpt><trkpt lat="33.5646283" lon="9.9978533"><ele>237.0</ele><time>2026-04-20T07:58:20.994Z</time></trkpt><trkpt lat="33.564705" lon="9.9977717"><ele>236.99999999999997</ele><time>2026-04-20T07:58:22.994Z</time></trkpt><trkpt lat="33.5647517" lon="9.9977017"><ele>237.0</ele><time>2026-04-20T07:58:24.994Z</time></trkpt><trkpt lat="33.5646667" lon="9.9977033"><ele>236.99999999999997</ele><time>2026-04-20T07:58:28.994Z</time></trkpt><trkpt lat="33.564615" lon="9.997755"><ele>236.99999999999997</ele><time>2026-04-20T07:58:29.994Z</time></trkpt><trkpt lat="33.5645617" lon="9.9978133"><ele>237.0</ele><time>2026-04-20T07:58:30.994Z</time></trkpt><trkpt lat="33.5645083" lon="9.9978783"><ele>236.99999999999997</ele><time>2026-04-20T07:58:31.994Z</time></trkpt><trkpt lat="33.5644633" lon="9.9979483"><ele>236.99999999999997</ele><time>2026-04-20T07:58:32.994Z</time></trkpt><trkpt lat="33.56442" lon="9.9980083"><ele>236.57142857142856</ele><time>2026-04-20T07:58:33.994Z</time></trkpt><trkpt lat="33.56439" lon="9.9980783"><ele>236.14285714285714</ele><time>2026-04-20T07:58:34.994Z</time></trkpt><trkpt lat="33.5643583" lon="9.998145"><ele>235.71428571428572</ele><time>2026-04-20T07:58:35.994Z</time></trkpt><trkpt lat="33.564335" lon="9.9982217"><ele>235.28571428571428</ele><time>2026-04-20T07:58:36.994Z</time></trkpt><trkpt lat="33.5643117" lon="9.9982933"><ele>234.8571428571429</ele><time>2026-04-20T07:58:37.994Z</time></trkpt><trkpt lat="33.564285" lon="9.9983683"><ele>234.42857142857144</ele><time>2026-04-20T07:58:38.994Z</time></trkpt><trkpt lat="33.56426" lon="9.9984517"><ele>234.0</ele><time>2026-04-20T07:58:39.994Z</time></trkpt><trkpt lat="33.56421" lon="9.9985867"><ele>235.2857142857143</ele><time>2026-04-20T07:58:41.994Z</time></trkpt><trkpt lat="33.56417" lon="9.9986483"><ele>236.5714285714286</ele><time>2026-04-20T07:58:43.994Z</time></trkpt><trkpt lat="33.5641417" lon="9.9985783"><ele>237.85714285714286</ele><time>2026-04-20T07:58:48.994Z</time></trkpt><trkpt lat="33.564145" lon="9.998495"><ele>239.14285714285717</ele><time>2026-04-20T07:58:50.994Z</time></trkpt><trkpt lat="33.564095" lon="9.9984233"><ele>240.42857142857144</ele><time>2026-04-20T07:58:52.994Z</time></trkpt><trkpt lat="33.5640317" lon="9.9983883"><ele>241.71428571428572</ele><time>2026-04-20T07:58:54.994Z</time></trkpt><trkpt lat="33.5639517" lon="9.9983833"><ele>243.0</ele><time>2026-04-20T07:59:07.994Z</time></trkpt><trkpt lat="33.5638633" lon="9.998435"><ele>243.0</ele><time>2026-04-20T07:59:09.994Z</time></trkpt><trkpt lat="33.5638117" lon="9.99848"><ele>243.0</ele><time>2026-04-20T07:59:10.994Z</time></trkpt><trkpt lat="33.5637583" lon="9.9985233"><ele>243.0</ele><time>2026-04-20T07:59:11.994Z</time></trkpt><trkpt lat="33.5636933" lon="9.9985717"><ele>243.0</ele><time>2026-04-20T07:59:12.994Z</time></trkpt><trkpt lat="33.5636267" lon="9.9986217"><ele>243.0</ele><time>2026-04-20T07:59:13.994Z</time></trkpt><trkpt lat="33.56356" lon="9.9986767"><ele>243.0</ele><time>2026-04-20T07:59:14.994Z</time></trkpt><trkpt lat="33.563485" lon="9.9987367"><ele>242.0</ele><time>2026-04-20T07:59:15.994Z</time></trkpt><trkpt lat="33.5634217" lon="9.9988117"><ele>241.0</ele><time>2026-04-20T07:59:16.994Z</time></trkpt><trkpt lat="33.5633567" lon="9.998885"><ele>240.0</ele><time>2026-04-20T07:59:17.994Z</time></trkpt><trkpt lat="33.5632817" lon="9.9989583"><ele>239.0</ele><time>2026-04-20T07:59:18.994Z</time></trkpt><trkpt lat="33.5632083" lon="9.9990167"><ele>238.0</ele><time>2026-04-20T07:59:19.994Z</time></trkpt><trkpt lat="33.56313" lon="9.9990717"><ele>237.99999999999997</ele><time>2026-04-20T07:59:20.994Z</time></trkpt><trkpt lat="33.563055" lon="9.9991267"><ele>238.0</ele><time>2026-04-20T07:59:21.994Z</time></trkpt><trkpt lat="33.562975" lon="9.9991817"><ele>238.0</ele><time>2026-04-20T07:59:22.994Z</time></trkpt><trkpt lat="33.5629017" lon="9.9992367"><ele>238.0</ele><time>2026-04-20T07:59:23.994Z</time></trkpt><trkpt lat="33.5628333" lon="9.9992933"><ele>237.99999999999997</ele><time>2026-04-20T07:59:24.994Z</time></trkpt><trkpt lat="33.56277" lon="9.9993533"><ele>238.0</ele><time>2026-04-20T07:59:25.994Z</time></trkpt><trkpt lat="33.5627033" lon="9.9994017"><ele>237.33333333333331</ele><time>2026-04-20T07:59:26.994Z</time></trkpt><trkpt lat="33.5626417" lon="9.9994517"><ele>236.66666666666666</ele><time>2026-04-20T07:59:27.994Z</time></trkpt><trkpt lat="33.562575" lon="9.99951"><ele>236.0</ele><time>2026-04-20T07:59:28.994Z</time></trkpt><trkpt lat="33.5625117" lon="9.9995783"><ele>235.33333333333331</ele><time>2026-04-20T07:59:29.994Z</time></trkpt><trkpt lat="33.5624433" lon="9.9996567"><ele>234.66666666666666</ele><time>2026-04-20T07:59:30.994Z</time></trkpt><trkpt lat="33.5623917" lon="9.99974"><ele>234.0</ele><time>2026-04-20T07:59:31.994Z</time></trkpt><trkpt lat="33.562335" lon="9.9997983"><ele>234.0</ele><time>2026-04-20T07:59:32.994Z</time></trkpt><trkpt lat="33.56224" lon="9.9998217"><ele>233.99999999999997</ele><time>2026-04-20T07:59:34.994Z</time></trkpt><trkpt lat="33.5621517" lon="9.99977"><ele>233.99999999999997</ele><time>2026-04-20T07:59:36.994Z</time></trkpt><trkpt lat="33.5620783" lon="9.999775"><ele>234.0</ele><time>2026-04-20T07:59:38.994Z</time></trkpt><trkpt lat="33.5620133" lon="9.99984"><ele>234.0</ele><time>2026-04-20T07:59:40.994Z</time></trkpt><trkpt lat="33.5619517" lon="9.9999333"><ele>233.0</ele><time>2026-04-20T07:59:42.994Z</time></trkpt><trkpt lat="33.561885" lon="10.0000517"><ele>232.0</ele><time>2026-04-20T07:59:44.994Z</time></trkpt><trkpt lat="33.5618483" lon="10.0001217"><ele>231.0</ele><time>2026-04-20T07:59:45.994Z</time></trkpt><trkpt lat="33.5618133" lon="10.0002033"><ele>230.0</ele><time>2026-04-20T07:59:46.994Z</time></trkpt><trkpt lat="33.56178" lon="10.0003033"><ele>229.0</ele><time>2026-04-20T07:59:47.994Z</time></trkpt><trkpt lat="33.5617433" lon="10.0003933"><ele>228.0</ele><time>2026-04-20T07:59:48.994Z</time></trkpt><trkpt lat="33.5617033" lon="10.0004683"><ele>228.0</ele><time>2026-04-20T07:59:49.994Z</time></trkpt><trkpt lat="33.5616533" lon="10.0005283"><ele>228.0</ele><time>2026-04-20T07:59:50.994Z</time></trkpt><trkpt lat="33.5615917" lon="10.0005833"><ele>228.0</ele><time>2026-04-20T07:59:51.994Z</time></trkpt><trkpt lat="33.5615317" lon="10.0006283"><ele>228.0</ele><time>2026-04-20T07:59:52.994Z</time></trkpt><trkpt lat="33.5614233" lon="10.0006383"><ele>228.0</ele><time>2026-04-20T07:59:54.994Z</time></trkpt><trkpt lat="33.5613233" lon="10.00056"><ele>228.0</ele><time>2026-04-20T07:59:56.994Z</time></trkpt><trkpt lat="33.5612783" lon="10.000485"><ele>228.0</ele><time>2026-04-20T07:59:57.994Z</time></trkpt><trkpt lat="33.5612383" lon="10.0003983"><ele>228.0</ele><time>2026-04-20T07:59:58.994Z</time></trkpt><trkpt lat="33.5611883" lon="10.0003083"><ele>228.0</ele><time>2026-04-20T07:59:59.994Z</time></trkpt><trkpt lat="33.5611417" lon="10.0002283"><ele>228.0</ele><time>2026-04-20T08:00:00.994Z</time></trkpt><trkpt lat="33.5610967" lon="10.0001567"><ele>228.0</ele><time>2026-04-20T08:00:01.994Z</time></trkpt><trkpt lat="33.5610067" lon="10.000075"><ele>228.0</ele><time>2026-04-20T08:00:03.994Z</time></trkpt><trkpt lat="33.5609033" lon="10.00006"><ele>229.0</ele><time>2026-04-20T08:00:05.994Z</time></trkpt><trkpt lat="33.5608283" lon="10.0001517"><ele>230.0</ele><time>2026-04-20T08:00:07.994Z</time></trkpt><trkpt lat="33.5607517" lon="10.000255"><ele>231.0</ele><time>2026-04-20T08:00:09.994Z</time></trkpt><trkpt lat="33.5607083" lon="10.00032"><ele>232.0</ele><time>2026-04-20T08:00:10.994Z</time></trkpt><trkpt lat="33.560665" lon="10.0003817"><ele>233.0</ele><time>2026-04-20T08:00:11.994Z</time></trkpt><trkpt lat="33.5606233" lon="10.0004617"><ele>234.0</ele><time>2026-04-20T08:00:12.994Z</time></trkpt><trkpt lat="33.5605817" lon="10.0005467"><ele>234.0</ele><time>2026-04-20T08:00:13.994Z</time></trkpt><trkpt lat="33.560545" lon="10.0006283"><ele>234.0</ele><time>2026-04-20T08:00:14.994Z</time></trkpt><trkpt lat="33.5605" lon="10.000705"><ele>234.0</ele><time>2026-04-20T08:00:15.994Z</time></trkpt><trkpt lat="33.5604483" lon="10.0007817"><ele>234.0</ele><time>2026-04-20T08:00:16.994Z</time></trkpt><trkpt lat="33.5603883" lon="10.0008567"><ele>234.0</ele><time>2026-04-20T08:00:17.994Z</time></trkpt><trkpt lat="33.5603133" lon="10.00093"><ele>234.0</ele><time>2026-04-20T08:00:18.994Z</time></trkpt><trkpt lat="33.560235" lon="10.0009967"><ele>234.6</ele><time>2026-04-20T08:00:19.994Z</time></trkpt><trkpt lat="33.560155" lon="10.001065"><ele>235.2</ele><time>2026-04-20T08:00:20.994Z</time></trkpt><trkpt lat="33.5600783" lon="10.00113"><ele>235.79999999999998</ele><time>2026-04-20T08:00:21.994Z</time></trkpt><trkpt lat="33.5600083" lon="10.0012033"><ele>236.39999999999998</ele><time>2026-04-20T08:00:22.994Z</time></trkpt><trkpt lat="33.5599383" lon="10.0012767"><ele>237.0</ele><time>2026-04-20T08:00:23.994Z</time></trkpt><trkpt lat="33.55987" lon="10.0013633"><ele>237.0</ele><time>2026-04-20T08:00:24.994Z</time></trkpt><trkpt lat="33.559805" lon="10.0014417"><ele>237.0</ele><time>2026-04-20T08:00:25.994Z</time></trkpt><trkpt lat="33.55972" lon="10.001515"><ele>237.0</ele><time>2026-04-20T08:00:26.994Z</time></trkpt><trkpt lat="33.5596383" lon="10.0015967"><ele>237.0</ele><time>2026-04-20T08:00:27.994Z</time></trkpt><trkpt lat="33.55956" lon="10.0016733"><ele>237.0</ele><time>2026-04-20T08:00:28.994Z</time></trkpt><trkpt lat="33.55949" lon="10.0017583"><ele>237.6</ele><time>2026-04-20T08:00:29.994Z</time></trkpt><trkpt lat="33.5594233" lon="10.0018567"><ele>238.2</ele><time>2026-04-20T08:00:30.994Z</time></trkpt><trkpt lat="33.5593533" lon="10.00195"><ele>238.8</ele><time>2026-04-20T08:00:31.994Z</time></trkpt><trkpt lat="33.5592883" lon="10.0020483"><ele>239.4</ele><time>2026-04-20T08:00:32.994Z</time></trkpt><trkpt lat="33.5592433" lon="10.0021367"><ele>240.0</ele><time>2026-04-20T08:00:33.994Z</time></trkpt><trkpt lat="33.5592" lon="10.0022217"><ele>240.0</ele><time>2026-04-20T08:00:34.994Z</time></trkpt><trkpt lat="33.5591633" lon="10.0023267"><ele>240.0</ele><time>2026-04-20T08:00:35.994Z</time></trkpt><trkpt lat="33.5591317" lon="10.00243"><ele>240.0</ele><time>2026-04-20T08:00:36.994Z</time></trkpt><trkpt lat="33.559095" lon="10.0025333"><ele>240.0</ele><time>2026-04-20T08:00:37.994Z</time></trkpt><trkpt lat="33.5590567" lon="10.002635"><ele>240.0</ele><time>2026-04-20T08:00:38.994Z</time></trkpt><trkpt lat="33.5590017" lon="10.0027267"><ele>238.6</ele><time>2026-04-20T08:00:39.994Z</time></trkpt><trkpt lat="33.558945" lon="10.0028117"><ele>237.2</ele><time>2026-04-20T08:00:40.994Z</time></trkpt><trkpt lat="33.5588883" lon="10.0029"><ele>235.8</ele><time>2026-04-20T08:00:41.994Z</time></trkpt><trkpt lat="33.55883" lon="10.0029883"><ele>234.4</ele><time>2026-04-20T08:00:42.994Z</time></trkpt><trkpt lat="33.5587633" lon="10.0030733"><ele>233.0</ele><time>2026-04-20T08:00:43.994Z</time></trkpt><trkpt lat="33.558705" lon="10.003155"><ele>233.33333333333334</ele><time>2026-04-20T08:00:44.993Z</time></trkpt><trkpt lat="33.55865" lon="10.0032383"><ele>233.66666666666669</ele><time>2026-04-20T08:00:45.993Z</time></trkpt><trkpt lat="33.5585967" lon="10.0033233"><ele>234.0</ele><time>2026-04-20T08:00:46.993Z</time></trkpt><trkpt lat="33.5585433" lon="10.0034033"><ele>234.33333333333331</ele><time>2026-04-20T08:00:47.993Z</time></trkpt><trkpt lat="33.5584917" lon="10.0034867"><ele>234.66666666666666</ele><time>2026-04-20T08:00:48.993Z</time></trkpt><trkpt lat="33.558445" lon="10.00358"><ele>235.0</ele><time>2026-04-20T08:00:49.993Z</time></trkpt><trkpt lat="33.5583967" lon="10.0036733"><ele>235.0</ele><time>2026-04-20T08:00:50.993Z</time></trkpt><trkpt lat="33.55834" lon="10.0037717"><ele>235.0</ele><time>2026-04-20T08:00:51.993Z</time></trkpt><trkpt lat="33.558285" lon="10.0038817"><ele>235.0</ele><time>2026-04-20T08:00:52.993Z</time></trkpt><trkpt lat="33.5582217" lon="10.0039867"><ele>235.0</ele><time>2026-04-20T08:00:53.993Z</time></trkpt><trkpt lat="33.558155" lon="10.0040833"><ele>235.0</ele><time>2026-04-20T08:00:54.993Z</time></trkpt><trkpt lat="33.558095" lon="10.00419"><ele>235.6</ele><time>2026-04-20T08:00:55.993Z</time></trkpt><trkpt lat="33.5580333" lon="10.004295"><ele>236.2</ele><time>2026-04-20T08:00:56.993Z</time></trkpt><trkpt lat="33.5579617" lon="10.0043917"><ele>236.8</ele><time>2026-04-20T08:00:57.993Z</time></trkpt><trkpt lat="33.557895" lon="10.0044867"><ele>237.4</ele><time>2026-04-20T08:00:58.993Z</time></trkpt><trkpt lat="33.5578317" lon="10.0045933"><ele>238.0</ele><time>2026-04-20T08:00:59.993Z</time></trkpt><trkpt lat="33.5577617" lon="10.0046967"><ele>238.16666666666666</ele><time>2026-04-20T08:01:00.993Z</time></trkpt><trkpt lat="33.5577133" lon="10.0048067"><ele>238.33333333333331</ele><time>2026-04-20T08:01:01.993Z</time></trkpt><trkpt lat="33.557665" lon="10.0049133"><ele>238.5</ele><time>2026-04-20T08:01:02.993Z</time></trkpt><trkpt lat="33.557625" lon="10.0050033"><ele>238.66666666666669</ele><time>2026-04-20T08:01:03.993Z</time></trkpt><trkpt lat="33.5576067" lon="10.0050933"><ele>238.83333333333334</ele><time>2026-04-20T08:01:04.993Z</time></trkpt><trkpt lat="33.5575933" lon="10.005185"><ele>239.0</ele><time>2026-04-20T08:01:05.993Z</time></trkpt><trkpt lat="33.5575833" lon="10.0052917"><ele>239.50000000000003</ele><time>2026-04-20T08:01:06.993Z</time></trkpt><trkpt lat="33.55757" lon="10.0053983"><ele>240.0</ele><time>2026-04-20T08:01:07.993Z</time></trkpt><trkpt lat="33.5575417" lon="10.0054917"><ele>240.5</ele><time>2026-04-20T08:01:08.993Z</time></trkpt><trkpt lat="33.5574917" lon="10.00558"><ele>241.0</ele><time>2026-04-20T08:01:09.993Z</time></trkpt><trkpt lat="33.557445" lon="10.00567"><ele>241.50000000000003</ele><time>2026-04-20T08:01:10.993Z</time></trkpt><trkpt lat="33.5573883" lon="10.005745"><ele>242.0</ele><time>2026-04-20T08:01:11.993Z</time></trkpt><trkpt lat="33.557325" lon="10.0058183"><ele>243.33333333333334</ele><time>2026-04-20T08:01:12.993Z</time></trkpt><trkpt lat="33.55726" lon="10.00588"><ele>244.66666666666669</ele><time>2026-04-20T08:01:13.993Z</time></trkpt><trkpt lat="33.5572" lon="10.0059383"><ele>246.0</ele><time>2026-04-20T08:01:14.993Z</time></trkpt><trkpt lat="33.5571383" lon="10.0059917"><ele>247.33333333333331</ele><time>2026-04-20T08:01:15.993Z</time></trkpt><trkpt lat="33.557085" lon="10.00605"><ele>248.66666666666666</ele><time>2026-04-20T08:01:16.993Z</time></trkpt><trkpt lat="33.5570433" lon="10.00612"><ele>250.0</ele><time>2026-04-20T08:01:17.993Z</time></trkpt><trkpt lat="33.5570183" lon="10.0062017"><ele>250.0</ele><time>2026-04-20T08:01:18.993Z</time></trkpt><trkpt lat="33.5570033" lon="10.00628"><ele>250.0</ele><time>2026-04-20T08:01:19.993Z</time></trkpt><trkpt lat="33.5569983" lon="10.00642"><ele>250.0</ele><time>2026-04-20T08:01:21.993Z</time></trkpt><trkpt lat="33.5570583" lon="10.00653"><ele>250.0</ele><time>2026-04-20T08:01:23.993Z</time></trkpt><trkpt lat="33.5570817" lon="10.0066633"><ele>250.0</ele><time>2026-04-20T08:01:25.993Z</time></trkpt><trkpt lat="33.5570583" lon="10.0067717"><ele>253.16666666666666</ele><time>2026-04-20T08:01:27.993Z</time></trkpt><trkpt lat="33.557" lon="10.0068567"><ele>256.3333333333333</ele><time>2026-04-20T08:01:29.993Z</time></trkpt><trkpt lat="33.5569083" lon="10.0069667"><ele>259.5</ele><time>2026-04-20T08:01:31.993Z</time></trkpt><trkpt lat="33.556865" lon="10.0070417"><ele>262.6666666666667</ele><time>2026-04-20T08:01:32.993Z</time></trkpt><trkpt lat="33.556835" lon="10.00712"><ele>265.83333333333337</ele><time>2026-04-20T08:01:33.993Z</time></trkpt><trkpt lat="33.556815" lon="10.0072067"><ele>269.0</ele><time>2026-04-20T08:01:34.993Z</time></trkpt><trkpt lat="33.5568017" lon="10.0073017"><ele>269.0</ele><time>2026-04-20T08:01:35.993Z</time></trkpt><trkpt lat="33.5568017" lon="10.0073883"><ele>269.0</ele><time>2026-04-20T08:01:36.993Z</time></trkpt><trkpt lat="33.5568133" lon="10.007465"><ele>269.0</ele><time>2026-04-20T08:01:37.993Z</time></trkpt><trkpt lat="33.55685" lon="10.00753"><ele>269.0</ele><time>2026-04-20T08:01:38.993Z</time></trkpt><trkpt lat="33.5569" lon="10.0075833"><ele>269.0</ele><time>2026-04-20T08:01:39.993Z</time></trkpt><trkpt lat="33.5569567" lon="10.0076417"><ele>269.0</ele><time>2026-04-20T08:01:40.993Z</time></trkpt><trkpt lat="33.5570017" lon="10.007695"><ele>269.0</ele><time>2026-04-20T08:01:41.993Z</time></trkpt><trkpt lat="33.5570333" lon="10.0078117"><ele>271.4</ele><time>2026-04-20T08:01:43.993Z</time></trkpt><trkpt lat="33.5570083" lon="10.0079233"><ele>273.79999999999995</ele><time>2026-04-20T08:01:45.993Z</time></trkpt><trkpt lat="33.5569317" lon="10.00803"><ele>276.20000000000005</ele><time>2026-04-20T08:01:47.993Z</time></trkpt><trkpt lat="33.5568717" lon="10.0080883"><ele>278.6</ele><time>2026-04-20T08:01:48.993Z</time></trkpt><trkpt lat="33.5567933" lon="10.0081467"><ele>281.0</ele><time>2026-04-20T08:01:49.993Z</time></trkpt><trkpt lat="33.5567167" lon="10.0082217"><ele>281.0</ele><time>2026-04-20T08:01:50.993Z</time></trkpt><trkpt lat="33.55664" lon="10.0082983"><ele>281.0</ele><time>2026-04-20T08:01:51.993Z</time></trkpt><trkpt lat="33.5565533" lon="10.00838"><ele>281.0</ele><time>2026-04-20T08:01:52.993Z</time></trkpt><trkpt lat="33.5564733" lon="10.008475"><ele>281.0</ele><time>2026-04-20T08:01:53.993Z</time></trkpt><trkpt lat="33.556395" lon="10.008565"><ele>281.0</ele><time>2026-04-20T08:01:54.993Z</time></trkpt><trkpt lat="33.55633" lon="10.0086267"><ele>282.5</ele><time>2026-04-20T08:01:55.993Z</time></trkpt><trkpt lat="33.556275" lon="10.0086667"><ele>284.0</ele><time>2026-04-20T08:01:56.993Z</time></trkpt><trkpt lat="33.556215" lon="10.0086983"><ele>285.5</ele><time>2026-04-20T08:01:57.993Z</time></trkpt><trkpt lat="33.5561467" lon="10.008725"><ele>287.0</ele><time>2026-04-20T08:01:58.993Z</time></trkpt><trkpt lat="33.5560767" lon="10.0087533"><ele>288.5</ele><time>2026-04-20T08:01:59.993Z</time></trkpt><trkpt lat="33.5559917" lon="10.0087783"><ele>290.0</ele><time>2026-04-20T08:02:00.993Z</time></trkpt><trkpt lat="33.5559" lon="10.0087983"><ele>290.0</ele><time>2026-04-20T08:02:01.993Z</time></trkpt><trkpt lat="33.5558033" lon="10.0088133"><ele>290.0</ele><time>2026-04-20T08:02:02.993Z</time></trkpt><trkpt lat="33.5557117" lon="10.0088167"><ele>290.0</ele><time>2026-04-20T08:02:03.993Z</time></trkpt><trkpt lat="33.5556183" lon="10.0088017"><ele>290.0</ele><time>2026-04-20T08:02:04.993Z</time></trkpt><trkpt lat="33.5555167" lon="10.0087783"><ele>290.0</ele><time>2026-04-20T08:02:05.993Z</time></trkpt><trkpt lat="33.5554233" lon="10.0087483"><ele>289.33333333333337</ele><time>2026-04-20T08:02:06.993Z</time></trkpt><trkpt lat="33.5553367" lon="10.0087217"><ele>288.6666666666667</ele><time>2026-04-20T08:02:07.993Z</time></trkpt><trkpt lat="33.5552633" lon="10.008695"><ele>288.0</ele><time>2026-04-20T08:02:08.993Z</time></trkpt><trkpt lat="33.555195" lon="10.0086783"><ele>287.3333333333333</ele><time>2026-04-20T08:02:09.993Z</time></trkpt><trkpt lat="33.555115" lon="10.0086667"><ele>286.66666666666663</ele><time>2026-04-20T08:02:11.993Z</time></trkpt><trkpt lat="33.5550383" lon="10.008655"><ele>286.0</ele><time>2026-04-20T08:02:14.993Z</time></trkpt><trkpt lat="33.5549533" lon="10.0085933"><ele>286.0</ele><time>2026-04-20T08:18:53.988Z</time></trkpt><trkpt lat="33.5548533" lon="10.0085983"><ele>286.0</ele><time>2026-04-20T08:18:55.988Z</time></trkpt><trkpt lat="33.5547517" lon="10.00861"><ele>286.0</ele><time>2026-04-20T08:18:57.988Z</time></trkpt><trkpt lat="33.5546367" lon="10.008615"><ele>286.0</ele><time>2026-04-20T08:18:59.988Z</time></trkpt><trkpt lat="33.55457" lon="10.00863"><ele>286.0</ele><time>2026-04-20T08:19:00.988Z</time></trkpt><trkpt lat="33.554495" lon="10.0086483"><ele>284.16666666666663</ele><time>2026-04-20T08:19:01.988Z</time></trkpt><trkpt lat="33.5544167" lon="10.00867"><ele>282.3333333333333</ele><time>2026-04-20T08:19:02.988Z</time></trkpt><trkpt lat="33.5543433" lon="10.0087083"><ele>280.5</ele><time>2026-04-20T08:19:03.988Z</time></trkpt><trkpt lat="33.5542833" lon="10.0087583"><ele>278.6666666666667</ele><time>2026-04-20T08:19:04.988Z</time></trkpt><trkpt lat="33.5542317" lon="10.0088233"><ele>276.83333333333337</ele><time>2026-04-20T08:19:05.988Z</time></trkpt><trkpt lat="33.5541967" lon="10.0088933"><ele>275.0</ele><time>2026-04-20T08:19:06.988Z</time></trkpt><trkpt lat="33.5541733" lon="10.0089767"><ele>275.0</ele><time>2026-04-20T08:19:07.988Z</time></trkpt><trkpt lat="33.5541617" lon="10.0090617"><ele>275.0</ele><time>2026-04-20T08:19:08.988Z</time></trkpt><trkpt lat="33.5541533" lon="10.0091433"><ele>275.0</ele><time>2026-04-20T08:19:09.988Z</time></trkpt><trkpt lat="33.55414" lon="10.0092183"><ele>275.0</ele><time>2026-04-20T08:19:10.988Z</time></trkpt><trkpt lat="33.5540883" lon="10.0093517"><ele>275.0</ele><time>2026-04-20T08:19:12.988Z</time></trkpt><trkpt lat="33.5540467" lon="10.0094233"><ele>275.0</ele><time>2026-04-20T08:19:13.988Z</time></trkpt><trkpt lat="33.553995" lon="10.0094933"><ele>276.0</ele><time>2026-04-20T08:19:14.988Z</time></trkpt><trkpt lat="33.5539383" lon="10.00957"><ele>277.0</ele><time>2026-04-20T08:19:15.988Z</time></trkpt><trkpt lat="33.5538833" lon="10.00965"><ele>278.0</ele><time>2026-04-20T08:19:16.988Z</time></trkpt><trkpt lat="33.55383" lon="10.0097333"><ele>279.0</ele><time>2026-04-20T08:19:17.988Z</time></trkpt><trkpt lat="33.5537833" lon="10.00981"><ele>280.0</ele><time>2026-04-20T08:19:18.988Z</time></trkpt><trkpt lat="33.5537333" lon="10.0098783"><ele>281.0</ele><time>2026-04-20T08:19:19.988Z</time></trkpt><trkpt lat="33.5536783" lon="10.0099383"><ele>284.6</ele><time>2026-04-20T08:19:20.988Z</time></trkpt><trkpt lat="33.5536167" lon="10.0099933"><ele>288.20000000000005</ele><time>2026-04-20T08:19:21.988Z</time></trkpt><trkpt lat="33.5535533" lon="10.0100367"><ele>291.79999999999995</ele><time>2026-04-20T08:19:22.988Z</time></trkpt><trkpt lat="33.5534467" lon="10.01009"><ele>295.4</ele><time>2026-04-20T08:19:24.988Z</time></trkpt><trkpt lat="33.5533283" lon="10.0100983"><ele>299.0</ele><time>2026-04-20T08:19:26.988Z</time></trkpt><trkpt lat="33.5532583" lon="10.01009"><ele>299.0</ele><time>2026-04-20T08:19:27.988Z</time></trkpt><trkpt lat="33.5531733" lon="10.0100767"><ele>299.0</ele><time>2026-04-20T08:19:28.988Z</time></trkpt><trkpt lat="33.5530967" lon="10.01007"><ele>299.0</ele><time>2026-04-20T08:19:29.988Z</time></trkpt><trkpt lat="33.553025" lon="10.010085"><ele>299.0</ele><time>2026-04-20T08:19:30.988Z</time></trkpt><trkpt lat="33.5529633" lon="10.01011"><ele>299.0</ele><time>2026-04-20T08:19:31.988Z</time></trkpt><trkpt lat="33.55289" lon="10.0101433"><ele>299.0</ele><time>2026-04-20T08:19:32.988Z</time></trkpt><trkpt lat="33.552815" lon="10.01019"><ele>296.6666666666667</ele><time>2026-04-20T08:19:33.988Z</time></trkpt><trkpt lat="33.55274" lon="10.0102433"><ele>294.33333333333337</ele><time>2026-04-20T08:19:34.988Z</time></trkpt><trkpt lat="33.5526617" lon="10.0103"><ele>292.0</ele><time>2026-04-20T08:19:35.988Z</time></trkpt><trkpt lat="33.5525833" lon="10.0103667"><ele>289.6666666666667</ele><time>2026-04-20T08:19:36.988Z</time></trkpt><trkpt lat="33.5525133" lon="10.0104283"><ele>287.3333333333333</ele><time>2026-04-20T08:19:37.988Z</time></trkpt><trkpt lat="33.5524433" lon="10.0104833"><ele>285.0</ele><time>2026-04-20T08:19:38.988Z</time></trkpt><trkpt lat="33.552375" lon="10.010535"><ele>285.0</ele><time>2026-04-20T08:19:39.988Z</time></trkpt><trkpt lat="33.55231" lon="10.0105883"><ele>285.0</ele><time>2026-04-20T08:19:40.987Z</time></trkpt><trkpt lat="33.5522483" lon="10.010645"><ele>285.0</ele><time>2026-04-20T08:19:41.987Z</time></trkpt><trkpt lat="33.5521633" lon="10.010735"><ele>285.0</ele><time>2026-04-20T08:19:43.987Z</time></trkpt><trkpt lat="33.552085" lon="10.010845"><ele>285.0</ele><time>2026-04-20T08:19:45.987Z</time></trkpt><trkpt lat="33.5520533" lon="10.0110017"><ele>287.2</ele><time>2026-04-20T08:19:47.987Z</time></trkpt><trkpt lat="33.5520483" lon="10.0111067"><ele>289.4</ele><time>2026-04-20T08:19:48.987Z</time></trkpt><trkpt lat="33.55204" lon="10.0112317"><ele>291.6</ele><time>2026-04-20T08:19:49.987Z</time></trkpt><trkpt lat="33.552035" lon="10.0113683"><ele>293.8</ele><time>2026-04-20T08:19:50.987Z</time></trkpt><trkpt lat="33.552025" lon="10.0115167"><ele>296.0</ele><time>2026-04-20T08:19:51.987Z</time></trkpt><trkpt lat="33.5520317" lon="10.0116783"><ele>296.5</ele><time>2026-04-20T08:19:52.987Z</time></trkpt><trkpt lat="33.552035" lon="10.01183"><ele>297.0</ele><time>2026-04-20T08:19:53.987Z</time></trkpt><trkpt lat="33.5520383" lon="10.0119767"><ele>297.5</ele><time>2026-04-20T08:19:54.987Z</time></trkpt><trkpt lat="33.5520417" lon="10.0121167"><ele>298.0</ele><time>2026-04-20T08:19:55.987Z</time></trkpt><trkpt lat="33.5520483" lon="10.0122317"><ele>298.0</ele><time>2026-04-20T08:19:56.987Z</time></trkpt><trkpt lat="33.55205" lon="10.0123233"><ele>298.0</ele><time>2026-04-20T08:19:57.987Z</time></trkpt><trkpt lat="33.552035" lon="10.0123967"><ele>298.0</ele><time>2026-04-20T08:19:58.987Z</time></trkpt><trkpt lat="33.55201" lon="10.0124783"><ele>298.0</ele><time>2026-04-20T08:19:59.987Z</time></trkpt><trkpt lat="33.55198" lon="10.01257"><ele>298.0</ele><time>2026-04-20T08:20:00.987Z</time></trkpt><trkpt lat="33.551965" lon="10.0126567"><ele>298.0</ele><time>2026-04-20T08:20:01.987Z</time></trkpt><trkpt lat="33.5519583" lon="10.0127417"><ele>298.0</ele><time>2026-04-20T08:20:02.987Z</time></trkpt><trkpt lat="33.5519417" lon="10.01284"><ele>298.8</ele><time>2026-04-20T08:20:03.987Z</time></trkpt><trkpt lat="33.5519167" lon="10.0129467"><ele>299.6</ele><time>2026-04-20T08:20:04.987Z</time></trkpt><trkpt lat="33.55189" lon="10.0130467"><ele>300.4</ele><time>2026-04-20T08:20:05.987Z</time></trkpt><trkpt lat="33.55184" lon="10.01313"><ele>301.2</ele><time>2026-04-20T08:20:06.987Z</time></trkpt><trkpt lat="33.55177" lon="10.0132117"><ele>302.0</ele><time>2026-04-20T08:20:07.987Z</time></trkpt><trkpt lat="33.5516883" lon="10.0132883"><ele>302.8</ele><time>2026-04-20T08:20:08.987Z</time></trkpt><trkpt lat="33.5516133" lon="10.0133733"><ele>303.6</ele><time>2026-04-20T08:20:09.987Z</time></trkpt><trkpt lat="33.5515367" lon="10.01346"><ele>304.40000000000003</ele><time>2026-04-20T08:20:10.987Z</time></trkpt><trkpt lat="33.551465" lon="10.0135517"><ele>305.2</ele><time>2026-04-20T08:20:11.987Z</time></trkpt><trkpt lat="33.5514083" lon="10.0136533"><ele>306.0</ele><time>2026-04-20T08:20:12.987Z</time></trkpt><trkpt lat="33.5513517" lon="10.01373"><ele>306.0</ele><time>2026-04-20T08:20:13.987Z</time></trkpt><trkpt lat="33.5513033" lon="10.0137883"><ele>306.0</ele><time>2026-04-20T08:20:14.987Z</time></trkpt><trkpt lat="33.551245" lon="10.01384"><ele>306.0</ele><time>2026-04-20T08:20:15.987Z</time></trkpt><trkpt lat="33.55118" lon="10.0138883"><ele>306.0</ele><time>2026-04-20T08:20:16.987Z</time></trkpt><trkpt lat="33.55111" lon="10.0139433"><ele>306.0</ele><time>2026-04-20T08:20:17.987Z</time></trkpt><trkpt lat="33.55103" lon="10.014"><ele>306.0</ele><time>2026-04-20T08:20:18.987Z</time></trkpt><trkpt lat="33.5509467" lon="10.0140633"><ele>306.1666666666667</ele><time>2026-04-20T08:20:19.987Z</time></trkpt><trkpt lat="33.5508817" lon="10.01413"><ele>306.3333333333333</ele><time>2026-04-20T08:20:20.987Z</time></trkpt><trkpt lat="33.5508383" lon="10.0141883"><ele>306.5</ele><time>2026-04-20T08:20:21.987Z</time></trkpt><trkpt lat="33.5508033" lon="10.0143"><ele>306.66666666666663</ele><time>2026-04-20T08:20:23.987Z</time></trkpt><trkpt lat="33.55081" lon="10.0144217"><ele>306.8333333333333</ele><time>2026-04-20T08:20:25.987Z</time></trkpt><trkpt lat="33.5508233" lon="10.0145017"><ele>307.0</ele><time>2026-04-20T08:20:26.987Z</time></trkpt><trkpt lat="33.5508383" lon="10.0145917"><ele>308.2</ele><time>2026-04-20T08:20:27.987Z</time></trkpt><trkpt lat="33.55086" lon="10.0146933"><ele>309.4</ele><time>2026-04-20T08:20:28.987Z</time></trkpt><trkpt lat="33.5508867" lon="10.0148033"><ele>310.6</ele><time>2026-04-20T08:20:29.987Z</time></trkpt><trkpt lat="33.5509233" lon="10.0149183"><ele>311.8</ele><time>2026-04-20T08:20:30.987Z</time></trkpt><trkpt lat="33.550965" lon="10.0150333"><ele>313.0</ele><time>2026-04-20T08:20:31.987Z</time></trkpt><trkpt lat="33.5510083" lon="10.01516"><ele>313.0</ele><time>2026-04-20T08:20:32.987Z</time></trkpt><trkpt lat="33.551055" lon="10.01531"><ele>313.0</ele><time>2026-04-20T08:20:33.987Z</time></trkpt><trkpt lat="33.5511017" lon="10.0154533"><ele>313.0</ele><time>2026-04-20T08:20:34.987Z</time></trkpt><trkpt lat="33.5511383" lon="10.0155733"><ele>313.0</ele><time>2026-04-20T08:20:35.987Z</time></trkpt><trkpt lat="33.55117" lon="10.01569"><ele>313.0</ele><time>2026-04-20T08:20:36.987Z</time></trkpt><trkpt lat="33.5511883" lon="10.0158167"><ele>313.0</ele><time>2026-04-20T08:20:37.987Z</time></trkpt><trkpt lat="33.5511967" lon="10.0159383"><ele>313.0</ele><time>2026-04-20T08:20:38.987Z</time></trkpt><trkpt lat="33.5512017" lon="10.0160383"><ele>313.0</ele><time>2026-04-20T08:20:39.987Z</time></trkpt><trkpt lat="33.5511983" lon="10.0161217"><ele>313.0</ele><time>2026-04-20T08:20:40.987Z</time></trkpt><trkpt lat="33.5511517" lon="10.0162367"><ele>312.5</ele><time>2026-04-20T08:20:42.987Z</time></trkpt><trkpt lat="33.55104" lon="10.0163417"><ele>312.0</ele><time>2026-04-20T08:20:44.987Z</time></trkpt><trkpt lat="33.55096" lon="10.016415"><ele>311.5</ele><time>2026-04-20T08:20:45.987Z</time></trkpt><trkpt lat="33.5508683" lon="10.016515"><ele>311.0</ele><time>2026-04-20T08:20:46.987Z</time></trkpt><trkpt lat="33.5507783" lon="10.0166267"><ele>311.75</ele><time>2026-04-20T08:20:47.987Z</time></trkpt><trkpt lat="33.5506917" lon="10.016755"><ele>312.5</ele><time>2026-04-20T08:20:48.987Z</time></trkpt><trkpt lat="33.5506167" lon="10.016885"><ele>313.25</ele><time>2026-04-20T08:20:49.987Z</time></trkpt><trkpt lat="33.5505617" lon="10.0170017"><ele>314.0</ele><time>2026-04-20T08:20:50.987Z</time></trkpt><trkpt lat="33.5505183" lon="10.01712"><ele>314.0</ele><time>2026-04-20T08:20:51.987Z</time></trkpt><trkpt lat="33.55049" lon="10.017235"><ele>314.0</ele><time>2026-04-20T08:20:52.987Z</time></trkpt><trkpt lat="33.5504733" lon="10.0173367"><ele>314.0</ele><time>2026-04-20T08:20:53.987Z</time></trkpt><trkpt lat="33.55048" lon="10.0174333"><ele>314.0</ele><time>2026-04-20T08:20:54.987Z</time></trkpt><trkpt lat="33.5505033" lon="10.01754"><ele>314.0</ele><time>2026-04-20T08:20:55.987Z</time></trkpt><trkpt lat="33.5505417" lon="10.0176433"><ele>315.0</ele><time>2026-04-20T08:20:56.987Z</time></trkpt><trkpt lat="33.550595" lon="10.0177267"><ele>316.0</ele><time>2026-04-20T08:20:57.987Z</time></trkpt><trkpt lat="33.55066" lon="10.0177867"><ele>317.0</ele><time>2026-04-20T08:20:58.987Z</time></trkpt><trkpt lat="33.5507333" lon="10.017825"><ele>318.0</ele><time>2026-04-20T08:20:59.987Z</time></trkpt><trkpt lat="33.5508083" lon="10.0178533"><ele>319.0</ele><time>2026-04-20T08:21:00.987Z</time></trkpt><trkpt lat="33.5508733" lon="10.01789"><ele>320.0</ele><time>2026-04-20T08:21:01.987Z</time></trkpt><trkpt lat="33.550925" lon="10.01795"><ele>320.0</ele><time>2026-04-20T08:21:02.987Z</time></trkpt><trkpt lat="33.5509633" lon="10.01803"><ele>320.0</ele><time>2026-04-20T08:21:03.987Z</time></trkpt><trkpt lat="33.55099" lon="10.0181233"><ele>320.0</ele><time>2026-04-20T08:21:04.987Z</time></trkpt><trkpt lat="33.5510217" lon="10.01823"><ele>320.0</ele><time>2026-04-20T08:21:05.987Z</time></trkpt><trkpt lat="33.5510567" lon="10.01834"><ele>320.0</ele><time>2026-04-20T08:21:06.987Z</time></trkpt><trkpt lat="33.5511033" lon="10.0184517"><ele>320.0</ele><time>2026-04-20T08:21:07.987Z</time></trkpt><trkpt lat="33.5511467" lon="10.01858"><ele>320.0</ele><time>2026-04-20T08:21:08.987Z</time></trkpt><trkpt lat="33.5511867" lon="10.0187083"><ele>320.0</ele><time>2026-04-20T08:21:09.987Z</time></trkpt><trkpt lat="33.55122" lon="10.0188417"><ele>320.0</ele><time>2026-04-20T08:21:10.987Z</time></trkpt><trkpt lat="33.5512383" lon="10.0189617"><ele>320.0</ele><time>2026-04-20T08:21:11.987Z</time></trkpt><trkpt lat="33.5512267" lon="10.0190817"><ele>321.0</ele><time>2026-04-20T08:21:12.987Z</time></trkpt><trkpt lat="33.5512067" lon="10.0192017"><ele>322.0</ele><time>2026-04-20T08:21:13.987Z</time></trkpt><trkpt lat="33.5511867" lon="10.0193367"><ele>323.0</ele><time>2026-04-20T08:21:14.987Z</time></trkpt><trkpt lat="33.5511617" lon="10.01947"><ele>324.0</ele><time>2026-04-20T08:21:15.987Z</time></trkpt><trkpt lat="33.5511433" lon="10.0195867"><ele>325.0</ele><time>2026-04-20T08:21:16.987Z</time></trkpt><trkpt lat="33.5511317" lon="10.019695"><ele>325.0</ele><time>2026-04-20T08:21:17.987Z</time></trkpt><trkpt lat="33.55112" lon="10.0198033"><ele>325.0</ele><time>2026-04-20T08:21:18.987Z</time></trkpt><trkpt lat="33.5511" lon="10.0199183"><ele>325.0</ele><time>2026-04-20T08:21:19.987Z</time></trkpt><trkpt lat="33.55108" lon="10.0200483"><ele>325.0</ele><time>2026-04-20T08:21:20.987Z</time></trkpt><trkpt lat="33.5510583" lon="10.0201783"><ele>325.0</ele><time>2026-04-20T08:21:21.987Z</time></trkpt><trkpt lat="33.5510517" lon="10.0203033"><ele>325.4</ele><time>2026-04-20T08:21:22.987Z</time></trkpt><trkpt lat="33.55106" lon="10.020415"><ele>325.8</ele><time>2026-04-20T08:21:23.987Z</time></trkpt><trkpt lat="33.55108" lon="10.02053"><ele>326.20000000000005</ele><time>2026-04-20T08:21:24.987Z</time></trkpt><trkpt lat="33.55111" lon="10.0206533"><ele>326.6</ele><time>2026-04-20T08:21:25.987Z</time></trkpt><trkpt lat="33.5511317" lon="10.0207767"><ele>327.0</ele><time>2026-04-20T08:21:26.987Z</time></trkpt><trkpt lat="33.551135" lon="10.0208883"><ele>327.3333333333333</ele><time>2026-04-20T08:21:27.987Z</time></trkpt><trkpt lat="33.5511267" lon="10.0209917"><ele>327.6666666666667</ele><time>2026-04-20T08:21:28.987Z</time></trkpt><trkpt lat="33.5511033" lon="10.0210767"><ele>328.0</ele><time>2026-04-20T08:21:29.987Z</time></trkpt><trkpt lat="33.5510433" lon="10.0211933"><ele>328.33333333333337</ele><time>2026-04-20T08:21:31.987Z</time></trkpt><trkpt lat="33.5509783" lon="10.0212967"><ele>328.6666666666667</ele><time>2026-04-20T08:21:33.987Z</time></trkpt><trkpt lat="33.55094" lon="10.02136"><ele>329.0</ele><time>2026-04-20T08:21:34.987Z</time></trkpt><trkpt lat="33.5508933" lon="10.0214367"><ele>329.0</ele><time>2026-04-20T08:21:35.987Z</time></trkpt><trkpt lat="33.550845" lon="10.0215233"><ele>329.0</ele><time>2026-04-20T08:21:36.987Z</time></trkpt><trkpt lat="33.55081" lon="10.0216267"><ele>329.0</ele><time>2026-04-20T08:21:37.987Z</time></trkpt><trkpt lat="33.55079" lon="10.02172"><ele>329.0</ele><time>2026-04-20T08:21:38.987Z</time></trkpt><trkpt lat="33.5507767" lon="10.0218017"><ele>329.0</ele><time>2026-04-20T08:21:39.987Z</time></trkpt><trkpt lat="33.5507633" lon="10.0218883"><ele>329.0</ele><time>2026-04-20T08:21:40.987Z</time></trkpt><trkpt lat="33.5507017" lon="10.0220183"><ele>329.5</ele><time>2026-04-20T08:21:42.987Z</time></trkpt><trkpt lat="33.5506483" lon="10.0220783"><ele>330.0</ele><time>2026-04-20T08:21:43.987Z</time></trkpt><trkpt lat="33.5505783" lon="10.0221533"><ele>330.5</ele><time>2026-04-20T08:21:44.987Z</time></trkpt><trkpt lat="33.5505083" lon="10.0222267"><ele>331.0</ele><time>2026-04-20T08:21:45.987Z</time></trkpt><trkpt lat="33.5504433" lon="10.022295"><ele>331.5</ele><time>2026-04-20T08:21:46.987Z</time></trkpt><trkpt lat="33.5503767" lon="10.02235"><ele>332.0</ele><time>2026-04-20T08:21:47.987Z</time></trkpt><trkpt lat="33.550295" lon="10.0224117"><ele>332.6</ele><time>2026-04-20T08:21:48.987Z</time></trkpt><trkpt lat="33.5502183" lon="10.0224933"><ele>333.20000000000005</ele><time>2026-04-20T08:21:49.987Z</time></trkpt><trkpt lat="33.550145" lon="10.0225733"><ele>333.8</ele><time>2026-04-20T08:21:50.987Z</time></trkpt><trkpt lat="33.5500767" lon="10.0226583"><ele>334.4</ele><time>2026-04-20T08:21:51.987Z</time></trkpt><trkpt lat="33.55001" lon="10.0227317"><ele>335.0</ele><time>2026-04-20T08:21:52.987Z</time></trkpt><trkpt lat="33.5499417" lon="10.0228"><ele>335.0</ele><time>2026-04-20T08:21:53.987Z</time></trkpt><trkpt lat="33.5498817" lon="10.0228633"><ele>335.0</ele><time>2026-04-20T08:21:54.987Z</time></trkpt><trkpt lat="33.5498333" lon="10.022925"><ele>335.0</ele><time>2026-04-20T08:21:55.987Z</time></trkpt><trkpt lat="33.54978" lon="10.023045"><ele>335.0</ele><time>2026-04-20T08:21:57.987Z</time></trkpt><trkpt lat="33.549775" lon="10.0231217"><ele>335.0</ele><time>2026-04-20T08:21:58.987Z</time></trkpt><trkpt lat="33.5497767" lon="10.0232067"><ele>335.0</ele><time>2026-04-20T08:21:59.987Z</time></trkpt><trkpt lat="33.549785" lon="10.023315"><ele>335.4</ele><time>2026-04-20T08:22:00.987Z</time></trkpt><trkpt lat="33.5498017" lon="10.0234383"><ele>335.8</ele><time>2026-04-20T08:22:01.987Z</time></trkpt><trkpt lat="33.549815" lon="10.02357"><ele>336.20000000000005</ele><time>2026-04-20T08:22:02.987Z</time></trkpt><trkpt lat="33.5498383" lon="10.02369"><ele>336.6</ele><time>2026-04-20T08:22:03.987Z</time></trkpt><trkpt lat="33.5498683" lon="10.0238067"><ele>337.0</ele><time>2026-04-20T08:22:04.987Z</time></trkpt><trkpt lat="33.5498967" lon="10.0239033"><ele>337.0</ele><time>2026-04-20T08:22:05.987Z</time></trkpt><trkpt lat="33.5498983" lon="10.0240033"><ele>337.0</ele><time>2026-04-20T08:22:06.987Z</time></trkpt><trkpt lat="33.5498917" lon="10.0241167"><ele>337.0</ele><time>2026-04-20T08:22:07.987Z</time></trkpt><trkpt lat="33.5498617" lon="10.0242367"><ele>337.0</ele><time>2026-04-20T08:22:08.987Z</time></trkpt><trkpt lat="33.549825" lon="10.0243667"><ele>337.0</ele><time>2026-04-20T08:22:09.987Z</time></trkpt><trkpt lat="33.5497817" lon="10.02449"><ele>336.40000000000003</ele><time>2026-04-20T08:22:10.987Z</time></trkpt><trkpt lat="33.54973" lon="10.0245883"><ele>335.8</ele><time>2026-04-20T08:22:11.987Z</time></trkpt><trkpt lat="33.5496833" lon="10.0246567"><ele>335.2</ele><time>2026-04-20T08:22:12.987Z</time></trkpt><trkpt lat="33.5496317" lon="10.0247033"><ele>334.6</ele><time>2026-04-20T08:22:13.987Z</time></trkpt><trkpt lat="33.54954" lon="10.0247983"><ele>334.0</ele><time>2026-04-20T08:22:15.987Z</time></trkpt><trkpt lat="33.5494783" lon="10.0249267"><ele>333.2</ele><time>2026-04-20T08:22:17.987Z</time></trkpt><trkpt lat="33.54946" lon="10.0250267"><ele>332.4</ele><time>2026-04-20T08:22:18.987Z</time></trkpt><trkpt lat="33.5494517" lon="10.025155"><ele>331.6</ele><time>2026-04-20T08:22:19.987Z</time></trkpt><trkpt lat="33.5494483" lon="10.0252967"><ele>330.8</ele><time>2026-04-20T08:22:20.987Z</time></trkpt><trkpt lat="33.549455" lon="10.0254383"><ele>330.0</ele><time>2026-04-20T08:22:21.987Z</time></trkpt><trkpt lat="33.5494767" lon="10.0255733"><ele>330.0</ele><time>2026-04-20T08:22:22.987Z</time></trkpt><trkpt lat="33.5494967" lon="10.0256883"><ele>330.0</ele><time>2026-04-20T08:22:23.987Z</time></trkpt><trkpt lat="33.5495117" lon="10.0257833"><ele>330.0</ele><time>2026-04-20T08:22:24.987Z</time></trkpt><trkpt lat="33.54951" lon="10.0258717"><ele>330.0</ele><time>2026-04-20T08:22:25.987Z</time></trkpt><trkpt lat="33.54949" lon="10.0259567"><ele>330.0</ele><time>2026-04-20T08:22:26.987Z</time></trkpt><trkpt lat="33.5494667" lon="10.0260617"><ele>330.0</ele><time>2026-04-20T08:22:27.987Z</time></trkpt><trkpt lat="33.5494533" lon="10.0261833"><ele>330.8</ele><time>2026-04-20T08:22:28.987Z</time></trkpt><trkpt lat="33.5494417" lon="10.0263"><ele>331.6</ele><time>2026-04-20T08:22:29.987Z</time></trkpt><trkpt lat="33.54942" lon="10.0264167"><ele>332.4</ele><time>2026-04-20T08:22:30.987Z</time></trkpt><trkpt lat="33.5494033" lon="10.02653"><ele>333.2</ele><time>2026-04-20T08:22:31.987Z</time></trkpt><trkpt lat="33.54938" lon="10.02664"><ele>334.0</ele><time>2026-04-20T08:22:32.987Z</time></trkpt><trkpt lat="33.549355" lon="10.0267433"><ele>336.0</ele><time>2026-04-20T08:22:33.987Z</time></trkpt><trkpt lat="33.5493267" lon="10.0268467"><ele>338.0</ele><time>2026-04-20T08:22:34.987Z</time></trkpt><trkpt lat="33.5493" lon="10.0269483"><ele>340.0</ele><time>2026-04-20T08:22:35.987Z</time></trkpt><trkpt lat="33.5492667" lon="10.02703"><ele>342.0</ele><time>2026-04-20T08:22:36.987Z</time></trkpt><trkpt lat="33.5491983" lon="10.02712"><ele>344.0</ele><time>2026-04-20T08:22:38.987Z</time></trkpt><trkpt lat="33.54911" lon="10.0271667"><ele>344.0</ele><time>2026-04-20T08:22:40.987Z</time></trkpt><trkpt lat="33.5489733" lon="10.0272133"><ele>344.0</ele><time>2026-04-20T08:22:42.987Z</time></trkpt><trkpt lat="33.5488833" lon="10.0272417"><ele>344.0</ele><time>2026-04-20T08:22:43.986Z</time></trkpt><trkpt lat="33.5487933" lon="10.0272733"><ele>344.0</ele><time>2026-04-20T08:22:44.986Z</time></trkpt><trkpt lat="33.5487033" lon="10.027315"><ele>344.0</ele><time>2026-04-20T08:22:45.986Z</time></trkpt><trkpt lat="33.548615" lon="10.02736"><ele>343.5</ele><time>2026-04-20T08:22:46.986Z</time></trkpt><trkpt lat="33.5485417" lon="10.0274233"><ele>343.0</ele><time>2026-04-20T08:22:47.986Z</time></trkpt><trkpt lat="33.548475" lon="10.0275033"><ele>342.5</ele><time>2026-04-20T08:22:48.986Z</time></trkpt><trkpt lat="33.5484217" lon="10.027585"><ele>342.0</ele><time>2026-04-20T08:22:49.986Z</time></trkpt><trkpt lat="33.5483767" lon="10.0276567"><ele>341.5</ele><time>2026-04-20T08:22:50.986Z</time></trkpt><trkpt lat="33.548325" lon="10.0277133"><ele>341.0</ele><time>2026-04-20T08:22:51.986Z</time></trkpt><trkpt lat="33.54825" lon="10.02777"><ele>342.4</ele><time>2026-04-20T08:22:52.986Z</time></trkpt><trkpt lat="33.54816" lon="10.027825"><ele>343.8</ele><time>2026-04-20T08:22:53.986Z</time></trkpt><trkpt lat="33.548055" lon="10.02788"><ele>345.2</ele><time>2026-04-20T08:22:54.986Z</time></trkpt><trkpt lat="33.5479667" lon="10.027935"><ele>346.59999999999997</ele><time>2026-04-20T08:22:55.986Z</time></trkpt><trkpt lat="33.5478983" lon="10.0279767"><ele>348.0</ele><time>2026-04-20T08:22:56.986Z</time></trkpt><trkpt lat="33.5478083" lon="10.02805"><ele>348.1666666666667</ele><time>2026-04-20T08:22:58.986Z</time></trkpt><trkpt lat="33.5476933" lon="10.02809"><ele>348.3333333333333</ele><time>2026-04-20T08:23:00.986Z</time></trkpt><trkpt lat="33.54761" lon="10.0281167"><ele>348.5</ele><time>2026-04-20T08:23:01.986Z</time></trkpt><trkpt lat="33.5475217" lon="10.0281383"><ele>348.66666666666663</ele><time>2026-04-20T08:23:02.986Z</time></trkpt><trkpt lat="33.5474417" lon="10.0281633"><ele>348.8333333333333</ele><time>2026-04-20T08:23:03.986Z</time></trkpt><trkpt lat="33.5473783" lon="10.0281883"><ele>349.0</ele><time>2026-04-20T08:23:04.986Z</time></trkpt><trkpt lat="33.54729" lon="10.0282567"><ele>349.0</ele><time>2026-04-20T08:23:06.986Z</time></trkpt><trkpt lat="33.5472533" lon="10.0283267"><ele>349.0</ele><time>2026-04-20T08:23:07.986Z</time></trkpt><trkpt lat="33.547215" lon="10.0283983"><ele>349.0</ele><time>2026-04-20T08:23:08.986Z</time></trkpt><trkpt lat="33.5471717" lon="10.0284767"><ele>349.0</ele><time>2026-04-20T08:23:09.986Z</time></trkpt><trkpt lat="33.5471183" lon="10.0285483"><ele>349.0</ele><time>2026-04-20T08:23:10.986Z</time></trkpt><trkpt lat="33.54705" lon="10.0286183"><ele>349.0</ele><time>2026-04-20T08:23:11.986Z</time></trkpt><trkpt lat="33.546975" lon="10.0286683"><ele>349.0</ele><time>2026-04-20T08:23:12.986Z</time></trkpt><trkpt lat="33.5469" lon="10.0286967"><ele>349.0</ele><time>2026-04-20T08:23:13.986Z</time></trkpt><trkpt lat="33.54677" lon="10.028695"><ele>349.0</ele><time>2026-04-20T08:23:15.986Z</time></trkpt><trkpt lat="33.5466467" lon="10.0286783"><ele>349.0</ele><time>2026-04-20T08:23:17.986Z</time></trkpt><trkpt lat="33.5465783" lon="10.028695"><ele>349.0</ele><time>2026-04-20T08:23:18.986Z</time></trkpt><trkpt lat="33.5464967" lon="10.0287117"><ele>349.0</ele><time>2026-04-20T08:23:19.986Z</time></trkpt><trkpt lat="33.5464183" lon="10.0287133"><ele>349.0</ele><time>2026-04-20T08:23:20.986Z</time></trkpt><trkpt lat="33.5463333" lon="10.0287"><ele>349.0</ele><time>2026-04-20T08:23:21.986Z</time></trkpt><trkpt lat="33.5462417" lon="10.028675"><ele>349.0</ele><time>2026-04-20T08:23:22.986Z</time></trkpt><trkpt lat="33.5461433" lon="10.0286467"><ele>349.0</ele><time>2026-04-20T08:23:23.986Z</time></trkpt><trkpt lat="33.5460567" lon="10.0286383"><ele>349.0</ele><time>2026-04-20T08:23:24.986Z</time></trkpt><trkpt lat="33.54598" lon="10.0286567"><ele>349.6</ele><time>2026-04-20T08:23:25.986Z</time></trkpt><trkpt lat="33.5459" lon="10.0286867"><ele>350.2</ele><time>2026-04-20T08:23:26.986Z</time></trkpt><trkpt lat="33.545805" lon="10.0287217"><ele>350.8</ele><time>2026-04-20T08:23:27.986Z</time></trkpt><trkpt lat="33.5457133" lon="10.028775"><ele>351.40000000000003</ele><time>2026-04-20T08:23:28.986Z</time></trkpt><trkpt lat="33.5456367" lon="10.02884"><ele>352.0</ele><time>2026-04-20T08:23:29.986Z</time></trkpt><trkpt lat="33.5455717" lon="10.028915"><ele>352.0</ele><time>2026-04-20T08:23:30.986Z</time></trkpt><trkpt lat="33.5455133" lon="10.0290033"><ele>352.0</ele><time>2026-04-20T08:23:31.986Z</time></trkpt><trkpt lat="33.54545" lon="10.0290983"><ele>352.0</ele><time>2026-04-20T08:23:32.986Z</time></trkpt><trkpt lat="33.545385" lon="10.0292"><ele>352.0</ele><time>2026-04-20T08:23:33.986Z</time></trkpt><trkpt lat="33.5453233" lon="10.0292917"><ele>352.0</ele><time>2026-04-20T08:23:34.986Z</time></trkpt><trkpt lat="33.545275" lon="10.02937"><ele>352.66666666666663</ele><time>2026-04-20T08:23:35.986Z</time></trkpt><trkpt lat="33.54523" lon="10.0294283"><ele>353.3333333333333</ele><time>2026-04-20T08:23:36.986Z</time></trkpt><trkpt lat="33.5451733" lon="10.029485"><ele>354.0</ele><time>2026-04-20T08:23:37.986Z</time></trkpt><trkpt lat="33.5451" lon="10.029515"><ele>354.6666666666667</ele><time>2026-04-20T08:23:38.986Z</time></trkpt><trkpt lat="33.5450283" lon="10.02954"><ele>355.33333333333337</ele><time>2026-04-20T08:23:39.986Z</time></trkpt><trkpt lat="33.5449483" lon="10.0295583"><ele>356.0</ele><time>2026-04-20T08:23:40.986Z</time></trkpt><trkpt lat="33.5448683" lon="10.0295983"><ele>356.0</ele><time>2026-04-20T08:23:41.986Z</time></trkpt><trkpt lat="33.5447883" lon="10.029645"><ele>356.0</ele><time>2026-04-20T08:23:42.986Z</time></trkpt><trkpt lat="33.54472" lon="10.029695"><ele>356.0</ele><time>2026-04-20T08:23:43.986Z</time></trkpt><trkpt lat="33.54465" lon="10.0297417"><ele>356.0</ele><time>2026-04-20T08:23:44.986Z</time></trkpt><trkpt lat="33.5445817" lon="10.0297917"><ele>356.0</ele><time>2026-04-20T08:23:45.986Z</time></trkpt><trkpt lat="33.54452" lon="10.02985"><ele>356.0</ele><time>2026-04-20T08:23:46.986Z</time></trkpt><trkpt lat="33.5444583" lon="10.029915"><ele>357.20000000000005</ele><time>2026-04-20T08:23:47.986Z</time></trkpt><trkpt lat="33.5443883" lon="10.0299783"><ele>358.40000000000003</ele><time>2026-04-20T08:23:48.986Z</time></trkpt><trkpt lat="33.5443117" lon="10.0300417"><ele>359.6</ele><time>2026-04-20T08:23:49.986Z</time></trkpt><trkpt lat="33.5442267" lon="10.0301033"><ele>360.8</ele><time>2026-04-20T08:23:50.986Z</time></trkpt><trkpt lat="33.54413" lon="10.030165"><ele>362.0</ele><time>2026-04-20T08:23:51.986Z</time></trkpt><trkpt lat="33.5440433" lon="10.0302433"><ele>362.0</ele><time>2026-04-20T08:23:52.986Z</time></trkpt><trkpt lat="33.5439583" lon="10.0303133"><ele>362.0</ele><time>2026-04-20T08:23:53.986Z</time></trkpt><trkpt lat="33.5438867" lon="10.030385"><ele>362.0</ele><time>2026-04-20T08:23:54.986Z</time></trkpt><trkpt lat="33.54382" lon="10.0304667"><ele>362.0</ele><time>2026-04-20T08:23:55.986Z</time></trkpt><trkpt lat="33.5437617" lon="10.03055"><ele>362.0</ele><time>2026-04-20T08:23:56.986Z</time></trkpt><trkpt lat="33.5436967" lon="10.0306283"><ele>361.33333333333337</ele><time>2026-04-20T08:23:57.986Z</time></trkpt><trkpt lat="33.543635" lon="10.0306933"><ele>360.6666666666667</ele><time>2026-04-20T08:23:58.986Z</time></trkpt><trkpt lat="33.5435783" lon="10.0307667"><ele>360.0</ele><time>2026-04-20T08:23:59.986Z</time></trkpt><trkpt lat="33.543525" lon="10.030845"><ele>359.3333333333333</ele><time>2026-04-20T08:24:00.986Z</time></trkpt><trkpt lat="33.54347" lon="10.0309383"><ele>358.66666666666663</ele><time>2026-04-20T08:24:01.986Z</time></trkpt><trkpt lat="33.543415" lon="10.0310367"><ele>358.0</ele><time>2026-04-20T08:24:02.986Z</time></trkpt><trkpt lat="33.5433717" lon="10.0311367"><ele>359.5</ele><time>2026-04-20T08:24:03.986Z</time></trkpt><trkpt lat="33.5433367" lon="10.0312383"><ele>361.0</ele><time>2026-04-20T08:24:04.986Z</time></trkpt><trkpt lat="33.5433217" lon="10.0313317"><ele>362.5</ele><time>2026-04-20T08:24:05.986Z</time></trkpt><trkpt lat="33.543325" lon="10.031415"><ele>364.0</ele><time>2026-04-20T08:24:06.986Z</time></trkpt><trkpt lat="33.543345" lon="10.0314967"><ele>365.5</ele><time>2026-04-20T08:24:07.986Z</time></trkpt><trkpt lat="33.5433783" lon="10.0315817"><ele>367.0</ele><time>2026-04-20T08:24:08.986Z</time></trkpt><trkpt lat="33.543405" lon="10.0316717"><ele>367.0</ele><time>2026-04-20T08:24:09.986Z</time></trkpt><trkpt lat="33.543425" lon="10.0317767"><ele>367.0</ele><time>2026-04-20T08:24:10.986Z</time></trkpt><trkpt lat="33.543445" lon="10.0318817"><ele>367.0</ele><time>2026-04-20T08:24:11.986Z</time></trkpt><trkpt lat="33.54348" lon="10.0319883"><ele>367.0</ele><time>2026-04-20T08:24:12.986Z</time></trkpt><trkpt lat="33.543525" lon="10.032085"><ele>367.0</ele><time>2026-04-20T08:24:13.986Z</time></trkpt><trkpt lat="33.5435783" lon="10.0321617"><ele>367.0</ele><time>2026-04-20T08:24:14.986Z</time></trkpt><trkpt lat="33.5436383" lon="10.0322283"><ele>367.0</ele><time>2026-04-20T08:24:15.986Z</time></trkpt><trkpt lat="33.543705" lon="10.0322867"><ele>367.0</ele><time>2026-04-20T08:24:16.986Z</time></trkpt><trkpt lat="33.5437783" lon="10.032335"><ele>367.0</ele><time>2026-04-20T08:24:17.986Z</time></trkpt><trkpt lat="33.543845" lon="10.0323633"><ele>367.0</ele><time>2026-04-20T08:24:18.986Z</time></trkpt><trkpt lat="33.5439567" lon="10.0324367"><ele>367.0</ele><time>2026-04-20T08:24:20.986Z</time></trkpt><trkpt lat="33.5440233" lon="10.032545"><ele>367.0</ele><time>2026-04-20T08:24:22.986Z</time></trkpt><trkpt lat="33.5440283" lon="10.03266"><ele>367.0</ele><time>2026-04-20T08:24:24.986Z</time></trkpt><trkpt lat="33.5439783" lon="10.0328"><ele>367.0</ele><time>2026-04-20T08:24:26.986Z</time></trkpt><trkpt lat="33.54394" lon="10.0328717"><ele>367.0</ele><time>2026-04-20T08:24:27.986Z</time></trkpt><trkpt lat="33.5439017" lon="10.0329517"><ele>367.0</ele><time>2026-04-20T08:24:28.986Z</time></trkpt><trkpt lat="33.5438633" lon="10.0330417"><ele>367.0</ele><time>2026-04-20T08:24:29.986Z</time></trkpt><trkpt lat="33.543835" lon="10.0331267"><ele>367.0</ele><time>2026-04-20T08:24:30.986Z</time></trkpt><trkpt lat="33.5438167" lon="10.0332183"><ele>367.0</ele><time>2026-04-20T08:24:31.986Z</time></trkpt><trkpt lat="33.5438" lon="10.0332933"><ele>367.0</ele><time>2026-04-20T08:24:32.986Z</time></trkpt><trkpt lat="33.5437817" lon="10.0333817"><ele>367.0</ele><time>2026-04-20T08:24:33.986Z</time></trkpt><trkpt lat="33.5437667" lon="10.0334717"><ele>367.0</ele><time>2026-04-20T08:24:34.986Z</time></trkpt><trkpt lat="33.5437483" lon="10.03357"><ele>367.16666666666663</ele><time>2026-04-20T08:24:35.986Z</time></trkpt><trkpt lat="33.543735" lon="10.0336567"><ele>367.3333333333333</ele><time>2026-04-20T08:24:36.986Z</time></trkpt><trkpt lat="33.5437283" lon="10.033735"><ele>367.5</ele><time>2026-04-20T08:24:37.986Z</time></trkpt><trkpt lat="33.54375" lon="10.0338733"><ele>367.6666666666667</ele><time>2026-04-20T08:24:39.986Z</time></trkpt><trkpt lat="33.54381" lon="10.0339933"><ele>367.83333333333337</ele><time>2026-04-20T08:24:41.986Z</time></trkpt><trkpt lat="33.5438533" lon="10.0340567"><ele>368.0</ele><time>2026-04-20T08:24:42.986Z</time></trkpt><trkpt lat="33.5439233" lon="10.0341483"><ele>368.33333333333337</ele><time>2026-04-20T08:24:44.986Z</time></trkpt><trkpt lat="33.5440217" lon="10.0342183"><ele>368.6666666666667</ele><time>2026-04-20T08:24:59.986Z</time></trkpt><trkpt lat="33.5440833" lon="10.0342517"><ele>369.0</ele><time>2026-04-20T08:25:00.986Z</time></trkpt><trkpt lat="33.5441433" lon="10.034285"><ele>369.3333333333333</ele><time>2026-04-20T08:25:01.986Z</time></trkpt><trkpt lat="33.5442317" lon="10.0343583"><ele>369.66666666666663</ele><time>2026-04-20T08:25:03.986Z</time></trkpt><trkpt lat="33.5442783" lon="10.0344267"><ele>370.0</ele><time>2026-04-20T08:25:05.986Z</time></trkpt><trkpt lat="33.544195" lon="10.0344433"><ele>370.0</ele><time>2026-04-20T08:25:09.986Z</time></trkpt><trkpt lat="33.5441067" lon="10.0344183"><ele>370.0</ele><time>2026-04-20T08:25:11.986Z</time></trkpt><trkpt lat="33.5439717" lon="10.034445"><ele>370.0</ele><time>2026-04-20T08:25:13.986Z</time></trkpt><trkpt lat="33.5438833" lon="10.0344533"><ele>370.0</ele><time>2026-04-20T08:25:14.986Z</time></trkpt><trkpt lat="33.543805" lon="10.0344567"><ele>370.0</ele><time>2026-04-20T08:25:15.986Z</time></trkpt><trkpt lat="33.5436867" lon="10.0344367"><ele>369.8333333333333</ele><time>2026-04-20T08:25:17.986Z</time></trkpt><trkpt lat="33.5435733" lon="10.0343717"><ele>369.66666666666663</ele><time>2026-04-20T08:25:19.986Z</time></trkpt><trkpt lat="33.5435083" lon="10.034335"><ele>369.5</ele><time>2026-04-20T08:25:20.986Z</time></trkpt><trkpt lat="33.5434383" lon="10.03431"><ele>369.3333333333333</ele><time>2026-04-20T08:25:21.986Z</time></trkpt><trkpt lat="33.5433667" lon="10.03432"><ele>369.1666666666667</ele><time>2026-04-20T08:25:22.986Z</time></trkpt><trkpt lat="33.5432933" lon="10.0343567"><ele>369.0</ele><time>2026-04-20T08:25:23.986Z</time></trkpt><trkpt lat="33.5432167" lon="10.0344033"><ele>369.0</ele><time>2026-04-20T08:25:24.986Z</time></trkpt><trkpt lat="33.5431517" lon="10.0344667"><ele>369.0</ele><time>2026-04-20T08:25:25.986Z</time></trkpt><trkpt lat="33.543105" lon="10.0345483"><ele>369.0</ele><time>2026-04-20T08:25:26.986Z</time></trkpt><trkpt lat="33.54307" lon="10.0346317"><ele>369.0</ele><time>2026-04-20T08:25:27.986Z</time></trkpt><trkpt lat="33.5430383" lon="10.0347017"><ele>369.0</ele><time>2026-04-20T08:25:28.986Z</time></trkpt><trkpt lat="33.5429567" lon="10.0347717"><ele>369.0</ele><time>2026-04-20T08:25:30.986Z</time></trkpt><trkpt lat="33.5428233" lon="10.034755"><ele>369.2</ele><time>2026-04-20T08:25:32.986Z</time></trkpt><trkpt lat="33.5427333" lon="10.0347633"><ele>369.4</ele><time>2026-04-20T08:25:33.986Z</time></trkpt><trkpt lat="33.5426267" lon="10.03479"><ele>369.6</ele><time>2026-04-20T08:25:34.986Z</time></trkpt><trkpt lat="33.542545" lon="10.0348267"><ele>369.8</ele><time>2026-04-20T08:25:35.986Z</time></trkpt><trkpt lat="33.5424933" lon="10.0348767"><ele>370.0</ele><time>2026-04-20T08:25:36.986Z</time></trkpt><trkpt lat="33.5424683" lon="10.035015"><ele>370.0</ele><time>2026-04-20T08:25:38.986Z</time></trkpt><trkpt lat="33.5424967" lon="10.0351"><ele>370.0</ele><time>2026-04-20T08:25:39.986Z</time></trkpt><trkpt lat="33.5425467" lon="10.0351883"><ele>370.0</ele><time>2026-04-20T08:25:40.986Z</time></trkpt><trkpt lat="33.5426033" lon="10.0352833"><ele>370.0</ele><time>2026-04-20T08:25:41.986Z</time></trkpt><trkpt lat="33.5426583" lon="10.0353667"><ele>370.0</ele><time>2026-04-20T08:25:42.986Z</time></trkpt><trkpt lat="33.5427" lon="10.03545"><ele>370.0</ele><time>2026-04-20T08:25:43.986Z</time></trkpt><trkpt lat="33.54273" lon="10.0355267"><ele>370.0</ele><time>2026-04-20T08:25:44.986Z</time></trkpt><trkpt lat="33.542745" lon="10.0356417"><ele>370.0</ele><time>2026-04-20T08:25:46.986Z</time></trkpt><trkpt lat="33.5426783" lon="10.03571"><ele>370.0</ele><time>2026-04-20T08:25:49.986Z</time></trkpt><trkpt lat="33.5425517" lon="10.035695"><ele>370.0</ele><time>2026-04-20T08:25:51.986Z</time></trkpt><trkpt lat="33.5424667" lon="10.0356967"><ele>370.0</ele><time>2026-04-20T08:25:52.986Z</time></trkpt><trkpt lat="33.5423683" lon="10.035705"><ele>370.0</ele><time>2026-04-20T08:25:53.986Z</time></trkpt><trkpt lat="33.5422667" lon="10.0357167"><ele>370.0</ele><time>2026-04-20T08:25:54.986Z</time></trkpt><trkpt lat="33.5421683" lon="10.0357433"><ele>370.0</ele><time>2026-04-20T08:25:55.986Z</time></trkpt><trkpt lat="33.5420867" lon="10.03577"><ele>370.0</ele><time>2026-04-20T08:25:56.986Z</time></trkpt><trkpt lat="33.54202" lon="10.0358183"><ele>370.0</ele><time>2026-04-20T08:25:57.986Z</time></trkpt><trkpt lat="33.5419633" lon="10.0358933"><ele>369.3333333333333</ele><time>2026-04-20T08:25:58.986Z</time></trkpt><trkpt lat="33.5419183" lon="10.03598"><ele>368.66666666666663</ele><time>2026-04-20T08:25:59.986Z</time></trkpt><trkpt lat="33.5418883" lon="10.0360767"><ele>368.0</ele><time>2026-04-20T08:26:00.986Z</time></trkpt><trkpt lat="33.5418617" lon="10.0361733"><ele>367.3333333333333</ele><time>2026-04-20T08:26:01.986Z</time></trkpt><trkpt lat="33.541825" lon="10.03626"><ele>366.6666666666667</ele><time>2026-04-20T08:26:02.986Z</time></trkpt><trkpt lat="33.541785" lon="10.0363333"><ele>366.0</ele><time>2026-04-20T08:26:03.986Z</time></trkpt><trkpt lat="33.5417333" lon="10.0364033"><ele>366.0</ele><time>2026-04-20T08:26:04.985Z</time></trkpt><trkpt lat="33.5416717" lon="10.0364767"><ele>366.0</ele><time>2026-04-20T08:26:05.985Z</time></trkpt><trkpt lat="33.5416083" lon="10.0365517"><ele>366.0</ele><time>2026-04-20T08:26:06.985Z</time></trkpt><trkpt lat="33.541545" lon="10.0366233"><ele>366.0</ele><time>2026-04-20T08:26:07.985Z</time></trkpt><trkpt lat="33.5414817" lon="10.03669"><ele>366.0</ele><time>2026-04-20T08:26:08.985Z</time></trkpt><trkpt lat="33.5414167" lon="10.036755"><ele>366.0</ele><time>2026-04-20T08:26:09.985Z</time></trkpt><trkpt lat="33.5413567" lon="10.0368133"><ele>367.3333333333333</ele><time>2026-04-20T08:26:10.985Z</time></trkpt><trkpt lat="33.541295" lon="10.0368667"><ele>368.6666666666667</ele><time>2026-04-20T08:26:11.985Z</time></trkpt><trkpt lat="33.5412533" lon="10.0369233"><ele>370.0</ele><time>2026-04-20T08:26:12.985Z</time></trkpt><trkpt lat="33.5411917" lon="10.0370283"><ele>371.33333333333337</ele><time>2026-04-20T08:26:14.985Z</time></trkpt><trkpt lat="33.5411383" lon="10.037085"><ele>372.6666666666667</ele><time>2026-04-20T08:26:15.985Z</time></trkpt><trkpt lat="33.5410817" lon="10.0371517"><ele>374.0</ele><time>2026-04-20T08:26:16.985Z</time></trkpt><trkpt lat="33.5410333" lon="10.0372267"><ele>374.6666666666667</ele><time>2026-04-20T08:26:17.985Z</time></trkpt><trkpt lat="33.5409983" lon="10.0372983"><ele>375.33333333333337</ele><time>2026-04-20T08:26:18.985Z</time></trkpt><trkpt lat="33.5409667" lon="10.0373667"><ele>376.0</ele><time>2026-04-20T08:26:19.985Z</time></trkpt><trkpt lat="33.5409" lon="10.03743"><ele>376.6666666666667</ele><time>2026-04-20T08:26:21.985Z</time></trkpt><trkpt lat="33.5407667" lon="10.03749"><ele>377.3333333333333</ele><time>2026-04-20T08:26:23.985Z</time></trkpt><trkpt lat="33.5407" lon="10.0375383"><ele>378.0</ele><time>2026-04-20T08:26:24.985Z</time></trkpt><trkpt lat="33.540645" lon="10.0376033"><ele>378.0</ele><time>2026-04-20T08:26:25.985Z</time></trkpt><trkpt lat="33.5405883" lon="10.0376533"><ele>378.0</ele><time>2026-04-20T08:26:26.985Z</time></trkpt><trkpt lat="33.54052" lon="10.0376967"><ele>378.0</ele><time>2026-04-20T08:26:27.985Z</time></trkpt><trkpt lat="33.540435" lon="10.0377333"><ele>378.0</ele><time>2026-04-20T08:26:28.985Z</time></trkpt><trkpt lat="33.5403583" lon="10.0377983"><ele>378.0</ele><time>2026-04-20T08:26:29.985Z</time></trkpt><trkpt lat="33.54028" lon="10.037875"><ele>378.0</ele><time>2026-04-20T08:26:30.985Z</time></trkpt><trkpt lat="33.5402083" lon="10.0379567"><ele>378.0</ele><time>2026-04-20T08:26:31.985Z</time></trkpt><trkpt lat="33.5401533" lon="10.0380267"><ele>378.0</ele><time>2026-04-20T08:26:32.985Z</time></trkpt><trkpt lat="33.5401267" lon="10.0381"><ele>378.0</ele><time>2026-04-20T08:26:33.985Z</time></trkpt><trkpt lat="33.5401133" lon="10.038175"><ele>378.0</ele><time>2026-04-20T08:26:34.985Z</time></trkpt><trkpt lat="33.5401067" lon="10.0382517"><ele>378.0</ele><time>2026-04-20T08:26:35.985Z</time></trkpt><trkpt lat="33.5401017" lon="10.0383317"><ele>378.0</ele><time>2026-04-20T08:26:36.985Z</time></trkpt><trkpt lat="33.5400883" lon="10.0384233"><ele>378.0</ele><time>2026-04-20T08:26:37.985Z</time></trkpt><trkpt lat="33.540075" lon="10.0385267"><ele>378.59999999999997</ele><time>2026-04-20T08:26:38.985Z</time></trkpt><trkpt lat="33.5400467" lon="10.0386367"><ele>379.2</ele><time>2026-04-20T08:26:39.985Z</time></trkpt><trkpt lat="33.540015" lon="10.0387483"><ele>379.8</ele><time>2026-04-20T08:26:40.985Z</time></trkpt><trkpt lat="33.5399917" lon="10.0388567"><ele>380.4</ele><time>2026-04-20T08:26:41.985Z</time></trkpt><trkpt lat="33.53998" lon="10.03896"><ele>381.0</ele><time>2026-04-20T08:26:42.985Z</time></trkpt><trkpt lat="33.5399883" lon="10.03905"><ele>381.0</ele><time>2026-04-20T08:26:43.985Z</time></trkpt><trkpt lat="33.54002" lon="10.03915"><ele>381.0</ele><time>2026-04-20T08:26:44.985Z</time></trkpt><trkpt lat="33.5400633" lon="10.0392367"><ele>381.0</ele><time>2026-04-20T08:26:45.985Z</time></trkpt><trkpt lat="33.5401133" lon="10.0393083"><ele>381.0</ele><time>2026-04-20T08:26:46.985Z</time></trkpt><trkpt lat="33.5401583" lon="10.0393633"><ele>381.0</ele><time>2026-04-20T08:26:47.985Z</time></trkpt><trkpt lat="33.5401817" lon="10.039445"><ele>381.0</ele><time>2026-04-20T08:26:49.985Z</time></trkpt><trkpt lat="33.54013" lon="10.03953"><ele>381.0</ele><time>2026-04-20T08:26:52.985Z</time></trkpt><trkpt lat="33.5400367" lon="10.039575"><ele>381.0</ele><time>2026-04-20T08:26:54.985Z</time></trkpt><trkpt lat="33.539915" lon="10.0395683"><ele>381.0</ele><time>2026-04-20T08:26:56.985Z</time></trkpt><trkpt lat="33.539845" lon="10.039545"><ele>381.0</ele><time>2026-04-20T08:26:57.985Z</time></trkpt><trkpt lat="33.5397633" lon="10.039515"><ele>381.0</ele><time>2026-04-20T08:26:58.985Z</time></trkpt><trkpt lat="33.539675" lon="10.0394817"><ele>381.0</ele><time>2026-04-20T08:26:59.985Z</time></trkpt><trkpt lat="33.5395917" lon="10.0394583"><ele>381.0</ele><time>2026-04-20T08:27:00.985Z</time></trkpt><trkpt lat="33.5395033" lon="10.0394633"><ele>381.0</ele><time>2026-04-20T08:27:01.985Z</time></trkpt><trkpt lat="33.5394233" lon="10.0394967"><ele>381.0</ele><time>2026-04-20T08:27:02.985Z</time></trkpt><trkpt lat="33.539355" lon="10.0395467"><ele>381.0</ele><time>2026-04-20T08:27:03.985Z</time></trkpt><trkpt lat="33.5392983" lon="10.0396133"><ele>381.0</ele><time>2026-04-20T08:27:04.985Z</time></trkpt><trkpt lat="33.5392483" lon="10.0397067"><ele>381.6666666666667</ele><time>2026-04-20T08:27:05.985Z</time></trkpt><trkpt lat="33.53921" lon="10.0398167"><ele>382.33333333333337</ele><time>2026-04-20T08:27:06.985Z</time></trkpt><trkpt lat="33.539185" lon="10.0399267"><ele>383.0</ele><time>2026-04-20T08:27:07.985Z</time></trkpt><trkpt lat="33.539165" lon="10.0400283"><ele>383.6666666666667</ele><time>2026-04-20T08:27:08.985Z</time></trkpt><trkpt lat="33.53915" lon="10.0401067"><ele>384.33333333333337</ele><time>2026-04-20T08:27:09.985Z</time></trkpt><trkpt lat="33.5390933" lon="10.040195"><ele>385.0</ele><time>2026-04-20T08:27:11.985Z</time></trkpt><trkpt lat="33.5389683" lon="10.0402167"><ele>385.6</ele><time>2026-04-20T08:27:13.985Z</time></trkpt><trkpt lat="33.5388767" lon="10.0402367"><ele>386.2</ele><time>2026-04-20T08:27:14.985Z</time></trkpt><trkpt lat="33.5387867" lon="10.0402683"><ele>386.79999999999995</ele><time>2026-04-20T08:27:15.985Z</time></trkpt><trkpt lat="33.5387183" lon="10.04032"><ele>387.4</ele><time>2026-04-20T08:27:16.985Z</time></trkpt><trkpt lat="33.538655" lon="10.0403967"><ele>388.0</ele><time>2026-04-20T08:27:17.985Z</time></trkpt><trkpt lat="33.5385933" lon="10.04051"><ele>388.0</ele><time>2026-04-20T08:27:18.985Z</time></trkpt><trkpt lat="33.53853" lon="10.0406433"><ele>388.0</ele><time>2026-04-20T08:27:19.985Z</time></trkpt><trkpt lat="33.5384633" lon="10.0407667"><ele>388.0</ele><time>2026-04-20T08:27:20.985Z</time></trkpt><trkpt lat="33.53839" lon="10.04088"><ele>388.0</ele><time>2026-04-20T08:27:21.985Z</time></trkpt><trkpt lat="33.5383267" lon="10.040985"><ele>389.0</ele><time>2026-04-20T08:27:22.985Z</time></trkpt><trkpt lat="33.53829" lon="10.0411"><ele>390.0</ele><time>2026-04-20T08:27:23.985Z</time></trkpt><trkpt lat="33.5382667" lon="10.0412417"><ele>391.0</ele><time>2026-04-20T08:27:24.985Z</time></trkpt><trkpt lat="33.538275" lon="10.0413883"><ele>392.0</ele><time>2026-04-20T08:27:25.985Z</time></trkpt><trkpt lat="33.5383133" lon="10.04151"><ele>391.99999999999994</ele><time>2026-04-20T08:27:26.985Z</time></trkpt><trkpt lat="33.5383633" lon="10.0415983"><ele>392.0</ele><time>2026-04-20T08:27:27.985Z</time></trkpt><trkpt lat="33.538405" lon="10.0416733"><ele>392.0</ele><time>2026-04-20T08:27:28.985Z</time></trkpt><trkpt lat="33.5384483" lon="10.041765"><ele>392.0</ele><time>2026-04-20T08:27:30.985Z</time></trkpt><trkpt lat="33.5384483" lon="10.0418617"><ele>391.99999999999994</ele><time>2026-04-20T08:27:32.985Z</time></trkpt><trkpt lat="33.53843" lon="10.042"><ele>392.0</ele><time>2026-04-20T08:27:34.985Z</time></trkpt><trkpt lat="33.53837" lon="10.0421183"><ele>391.99999999999994</ele><time>2026-04-20T08:27:36.985Z</time></trkpt><trkpt lat="33.5383083" lon="10.042185"><ele>392.0</ele><time>2026-04-20T08:27:37.985Z</time></trkpt><trkpt lat="33.5382467" lon="10.042255"><ele>392.0</ele><time>2026-04-20T08:27:38.985Z</time></trkpt><trkpt lat="33.5382" lon="10.0423283"><ele>392.0</ele><time>2026-04-20T08:27:39.985Z</time></trkpt><trkpt lat="33.5381783" lon="10.0424083"><ele>391.99999999999994</ele><time>2026-04-20T08:27:40.985Z</time></trkpt><trkpt lat="33.5381867" lon="10.042495"><ele>392.0</ele><time>2026-04-20T08:27:41.985Z</time></trkpt><trkpt lat="33.5382167" lon="10.04261"><ele>392.0</ele><time>2026-04-20T08:27:42.985Z</time></trkpt><trkpt lat="33.538255" lon="10.042745"><ele>392.0</ele><time>2026-04-20T08:27:43.985Z</time></trkpt><trkpt lat="33.538275" lon="10.0428933"><ele>392.0</ele><time>2026-04-20T08:27:44.985Z</time></trkpt><trkpt lat="33.5382833" lon="10.0430383"><ele>392.0</ele><time>2026-04-20T08:27:45.985Z</time></trkpt><trkpt lat="33.5382933" lon="10.043195"><ele>392.8</ele><time>2026-04-20T08:27:46.985Z</time></trkpt><trkpt lat="33.538325" lon="10.043335"><ele>393.6</ele><time>2026-04-20T08:27:47.985Z</time></trkpt><trkpt lat="33.538375" lon="10.0434583"><ele>394.40000000000003</ele><time>2026-04-20T08:27:48.985Z</time></trkpt><trkpt lat="33.5384317" lon="10.0435567"><ele>395.20000000000005</ele><time>2026-04-20T08:27:49.985Z</time></trkpt><trkpt lat="33.5384717" lon="10.0436217"><ele>396.0</ele><time>2026-04-20T08:27:50.985Z</time></trkpt><trkpt lat="33.538475" lon="10.0437033"><ele>396.0</ele><time>2026-04-20T08:27:52.985Z</time></trkpt><trkpt lat="33.538425" lon="10.04375"><ele>396.0</ele><time>2026-04-20T08:27:54.985Z</time></trkpt><trkpt lat="33.53832" lon="10.043815"><ele>396.0</ele><time>2026-04-20T08:27:56.985Z</time></trkpt><trkpt lat="33.5382517" lon="10.043865"><ele>396.0</ele><time>2026-04-20T08:27:57.985Z</time></trkpt><trkpt lat="33.538175" lon="10.0439217"><ele>396.0</ele><time>2026-04-20T08:27:58.985Z</time></trkpt><trkpt lat="33.5381017" lon="10.043985"><ele>396.0</ele><time>2026-04-20T08:27:59.985Z</time></trkpt><trkpt lat="33.5380367" lon="10.0440517"><ele>396.0</ele><time>2026-04-20T08:28:00.985Z</time></trkpt><trkpt lat="33.53799" lon="10.0441183"><ele>396.0</ele><time>2026-04-20T08:28:01.985Z</time></trkpt><trkpt lat="33.537955" lon="10.0441833"><ele>396.0</ele><time>2026-04-20T08:28:02.985Z</time></trkpt><trkpt lat="33.5379283" lon="10.044255"><ele>396.0</ele><time>2026-04-20T08:28:03.985Z</time></trkpt><trkpt lat="33.5379033" lon="10.0443283"><ele>396.0</ele><time>2026-04-20T08:28:04.985Z</time></trkpt><trkpt lat="33.537875" lon="10.0444133"><ele>396.0</ele><time>2026-04-20T08:28:05.985Z</time></trkpt><trkpt lat="33.5378317" lon="10.0445117"><ele>396.0</ele><time>2026-04-20T08:28:06.985Z</time></trkpt><trkpt lat="33.5377783" lon="10.044615"><ele>397.20000000000005</ele><time>2026-04-20T08:28:07.985Z</time></trkpt><trkpt lat="33.5377133" lon="10.0447283"><ele>398.40000000000003</ele><time>2026-04-20T08:28:08.985Z</time></trkpt><trkpt lat="33.5376433" lon="10.044815"><ele>399.6</ele><time>2026-04-20T08:28:09.985Z</time></trkpt><trkpt lat="33.537565" lon="10.044875"><ele>400.8</ele><time>2026-04-20T08:28:10.985Z</time></trkpt><trkpt lat="33.5374933" lon="10.0449333"><ele>402.0</ele><time>2026-04-20T08:28:11.985Z</time></trkpt><trkpt lat="33.5374217" lon="10.0449917"><ele>402.0</ele><time>2026-04-20T08:28:12.985Z</time></trkpt><trkpt lat="33.5373483" lon="10.0450617"><ele>402.0</ele><time>2026-04-20T08:28:13.985Z</time></trkpt><trkpt lat="33.5372717" lon="10.0451517"><ele>402.0</ele><time>2026-04-20T08:28:14.985Z</time></trkpt><trkpt lat="33.5372017" lon="10.0452567"><ele>402.0</ele><time>2026-04-20T08:28:15.985Z</time></trkpt><trkpt lat="33.5371467" lon="10.0453633"><ele>402.0</ele><time>2026-04-20T08:28:16.985Z</time></trkpt><trkpt lat="33.5371083" lon="10.045475"><ele>402.0</ele><time>2026-04-20T08:28:17.985Z</time></trkpt><trkpt lat="33.5370867" lon="10.0455933"><ele>402.0</ele><time>2026-04-20T08:28:18.985Z</time></trkpt><trkpt lat="33.537075" lon="10.04569"><ele>402.0</ele><time>2026-04-20T08:28:19.985Z</time></trkpt><trkpt lat="33.5370467" lon="10.0458167"><ele>402.0</ele><time>2026-04-20T08:28:21.985Z</time></trkpt><trkpt lat="33.5369833" lon="10.04588"><ele>402.0</ele><time>2026-04-20T08:28:23.985Z</time></trkpt><trkpt lat="33.5369183" lon="10.04597"><ele>403.0</ele><time>2026-04-20T08:28:25.985Z</time></trkpt><trkpt lat="33.536905" lon="10.0460967"><ele>404.0</ele><time>2026-04-20T08:28:27.985Z</time></trkpt><trkpt lat="33.5369417" lon="10.0462467"><ele>405.0</ele><time>2026-04-20T08:28:29.985Z</time></trkpt><trkpt lat="33.5369833" lon="10.0463433"><ele>406.0</ele><time>2026-04-20T08:28:30.985Z</time></trkpt><trkpt lat="33.5370483" lon="10.0464767"><ele>404.75</ele><time>2026-04-20T08:28:31.985Z</time></trkpt><trkpt lat="33.5371217" lon="10.0466267"><ele>403.5</ele><time>2026-04-20T08:28:32.985Z</time></trkpt><trkpt lat="33.5371817" lon="10.046775"><ele>402.25</ele><time>2026-04-20T08:28:33.985Z</time></trkpt><trkpt lat="33.5372383" lon="10.0468917"><ele>401.0</ele><time>2026-04-20T08:28:34.985Z</time></trkpt><trkpt lat="33.5372733" lon="10.0469817"><ele>401.0</ele><time>2026-04-20T08:28:35.985Z</time></trkpt><trkpt lat="33.537285" lon="10.047105"><ele>401.0</ele><time>2026-04-20T08:28:37.985Z</time></trkpt><trkpt lat="33.5372017" lon="10.04721"><ele>401.0</ele><time>2026-04-20T08:28:39.985Z</time></trkpt><trkpt lat="33.5371433" lon="10.04728"><ele>401.0</ele><time>2026-04-20T08:28:40.985Z</time></trkpt><trkpt lat="33.5370933" lon="10.0473717"><ele>401.0</ele><time>2026-04-20T08:28:41.985Z</time></trkpt><trkpt lat="33.5370567" lon="10.0474667"><ele>401.16666666666663</ele><time>2026-04-20T08:28:42.985Z</time></trkpt><trkpt lat="33.5370417" lon="10.04757"><ele>401.3333333333333</ele><time>2026-04-20T08:28:43.985Z</time></trkpt><trkpt lat="33.5370367" lon="10.0476717"><ele>401.5</ele><time>2026-04-20T08:28:44.985Z</time></trkpt><trkpt lat="33.5370467" lon="10.0477767"><ele>401.66666666666663</ele><time>2026-04-20T08:28:45.985Z</time></trkpt><trkpt lat="33.53706" lon="10.047885"><ele>401.8333333333333</ele><time>2026-04-20T08:28:46.985Z</time></trkpt><trkpt lat="33.5370767" lon="10.0479983"><ele>402.0</ele><time>2026-04-20T08:28:47.985Z</time></trkpt><trkpt lat="33.5370883" lon="10.04811"><ele>402.0</ele><time>2026-04-20T08:28:48.985Z</time></trkpt><trkpt lat="33.537095" lon="10.0482233"><ele>402.0</ele><time>2026-04-20T08:28:49.985Z</time></trkpt><trkpt lat="33.53708" lon="10.0483367"><ele>402.0</ele><time>2026-04-20T08:28:50.985Z</time></trkpt><trkpt lat="33.5370467" lon="10.048445"><ele>402.0</ele><time>2026-04-20T08:28:51.985Z</time></trkpt><trkpt lat="33.5370017" lon="10.0485417"><ele>402.0</ele><time>2026-04-20T08:28:52.985Z</time></trkpt><trkpt lat="33.5369483" lon="10.0486183"><ele>403.8333333333333</ele><time>2026-04-20T08:28:53.985Z</time></trkpt><trkpt lat="33.5368883" lon="10.0486667"><ele>405.66666666666663</ele><time>2026-04-20T08:28:54.985Z</time></trkpt><trkpt lat="33.536815" lon="10.04869"><ele>407.5</ele><time>2026-04-20T08:28:55.985Z</time></trkpt><trkpt lat="33.536735" lon="10.0486883"><ele>409.3333333333333</ele><time>2026-04-20T08:28:56.985Z</time></trkpt><trkpt lat="33.536645" lon="10.048695"><ele>411.16666666666663</ele><time>2026-04-20T08:28:57.985Z</time></trkpt><trkpt lat="33.53655" lon="10.0487017"><ele>413.0</ele><time>2026-04-20T08:28:58.985Z</time></trkpt><trkpt lat="33.536445" lon="10.0487217"><ele>413.0</ele><time>2026-04-20T08:28:59.985Z</time></trkpt><trkpt lat="33.53634" lon="10.0487633"><ele>413.0</ele><time>2026-04-20T08:29:00.985Z</time></trkpt><trkpt lat="33.53624" lon="10.0488133"><ele>413.0</ele><time>2026-04-20T08:29:01.985Z</time></trkpt><trkpt lat="33.5361633" lon="10.0488833"><ele>413.0</ele><time>2026-04-20T08:29:02.985Z</time></trkpt><trkpt lat="33.536105" lon="10.0489717"><ele>413.0</ele><time>2026-04-20T08:29:03.985Z</time></trkpt><trkpt lat="33.5360633" lon="10.0490667"><ele>414.0</ele><time>2026-04-20T08:29:04.985Z</time></trkpt><trkpt lat="33.536035" lon="10.0491833"><ele>415.0</ele><time>2026-04-20T08:29:05.985Z</time></trkpt><trkpt lat="33.536005" lon="10.049305"><ele>416.0</ele><time>2026-04-20T08:29:06.985Z</time></trkpt><trkpt lat="33.5359767" lon="10.0493983"><ele>417.0</ele><time>2026-04-20T08:29:07.985Z</time></trkpt><trkpt lat="33.5359217" lon="10.04952"><ele>418.0</ele><time>2026-04-20T08:29:09.985Z</time></trkpt><trkpt lat="33.5358933" lon="10.0495917"><ele>418.0</ele><time>2026-04-20T08:29:10.985Z</time></trkpt><trkpt lat="33.5358483" lon="10.0497333"><ele>418.0</ele><time>2026-04-20T08:29:12.985Z</time></trkpt><trkpt lat="33.535735" lon="10.0498033"><ele>418.0</ele><time>2026-04-20T08:29:14.985Z</time></trkpt><trkpt lat="33.5356733" lon="10.0498317"><ele>418.0</ele><time>2026-04-20T08:29:15.985Z</time></trkpt><trkpt lat="33.5356033" lon="10.0498633"><ele>418.0</ele><time>2026-04-20T08:29:16.985Z</time></trkpt><trkpt lat="33.53553" lon="10.04991"><ele>418.0</ele><time>2026-04-20T08:29:17.985Z</time></trkpt><trkpt lat="33.535455" lon="10.0499567"><ele>418.0</ele><time>2026-04-20T08:29:18.985Z</time></trkpt><trkpt lat="33.5353833" lon="10.0500017"><ele>418.0</ele><time>2026-04-20T08:29:19.985Z</time></trkpt><trkpt lat="33.535315" lon="10.05004"><ele>418.0</ele><time>2026-04-20T08:29:20.985Z</time></trkpt><trkpt lat="33.535255" lon="10.0500833"><ele>418.0</ele><time>2026-04-20T08:29:21.985Z</time></trkpt><trkpt lat="33.5351983" lon="10.0501267"><ele>418.0</ele><time>2026-04-20T08:29:22.985Z</time></trkpt><trkpt lat="33.535145" lon="10.0501783"><ele>418.0</ele><time>2026-04-20T08:29:23.985Z</time></trkpt><trkpt lat="33.5350917" lon="10.050235"><ele>416.4</ele><time>2026-04-20T08:29:24.985Z</time></trkpt><trkpt lat="33.5350267" lon="10.0503033"><ele>414.79999999999995</ele><time>2026-04-20T08:29:25.985Z</time></trkpt><trkpt lat="33.5349633" lon="10.0503883"><ele>413.2</ele><time>2026-04-20T08:29:26.985Z</time></trkpt><trkpt lat="33.5349033" lon="10.05048"><ele>411.6</ele><time>2026-04-20T08:29:27.985Z</time></trkpt><trkpt lat="33.5348517" lon="10.050575"><ele>410.0</ele><time>2026-04-20T08:29:28.985Z</time></trkpt><trkpt lat="33.5348067" lon="10.0506683"><ele>410.0</ele><time>2026-04-20T08:29:29.985Z</time></trkpt><trkpt lat="33.5347733" lon="10.0507517"><ele>410.0</ele><time>2026-04-20T08:29:30.985Z</time></trkpt><trkpt lat="33.534745" lon="10.05083"><ele>410.0</ele><time>2026-04-20T08:29:31.985Z</time></trkpt><trkpt lat="33.5346967" lon="10.05094"><ele>410.0</ele><time>2026-04-20T08:29:33.984Z</time></trkpt><trkpt lat="33.5346217" lon="10.0509983"><ele>410.0</ele><time>2026-04-20T08:29:35.984Z</time></trkpt><trkpt lat="33.5345067" lon="10.0510383"><ele>410.49999999999994</ele><time>2026-04-20T08:29:37.984Z</time></trkpt><trkpt lat="33.5344383" lon="10.0510867"><ele>411.0</ele><time>2026-04-20T08:29:38.984Z</time></trkpt><trkpt lat="33.5343833" lon="10.0511433"><ele>411.5</ele><time>2026-04-20T08:29:39.984Z</time></trkpt><trkpt lat="33.5343333" lon="10.0511967"><ele>412.0</ele><time>2026-04-20T08:29:40.984Z</time></trkpt><trkpt lat="33.5342717" lon="10.0512833"><ele>412.49999999999994</ele><time>2026-04-20T08:29:42.984Z</time></trkpt><trkpt lat="33.5341967" lon="10.0513133"><ele>413.0</ele><time>2026-04-20T08:29:44.984Z</time></trkpt><trkpt lat="33.5341133" lon="10.051345"><ele>412.99999999999994</ele><time>2026-04-20T08:29:46.984Z</time></trkpt><trkpt lat="33.5340233" lon="10.0514267"><ele>413.0</ele><time>2026-04-20T08:29:48.984Z</time></trkpt><trkpt lat="33.5339783" lon="10.0514883"><ele>413.0</ele><time>2026-04-20T08:29:49.984Z</time></trkpt><trkpt lat="33.5339167" lon="10.0515383"><ele>413.0</ele><time>2026-04-20T08:29:50.984Z</time></trkpt><trkpt lat="33.5338433" lon="10.0515883"><ele>412.99999999999994</ele><time>2026-04-20T08:29:51.984Z</time></trkpt><trkpt lat="33.5337617" lon="10.0516367"><ele>413.0</ele><time>2026-04-20T08:29:52.984Z</time></trkpt><trkpt lat="33.5336783" lon="10.0516733"><ele>412.4</ele><time>2026-04-20T08:29:53.984Z</time></trkpt><trkpt lat="33.533615" lon="10.0516917"><ele>411.79999999999995</ele><time>2026-04-20T08:29:54.984Z</time></trkpt><trkpt lat="33.5335117" lon="10.051725"><ele>411.2</ele><time>2026-04-20T08:29:56.984Z</time></trkpt><trkpt lat="33.5333983" lon="10.051745"><ele>410.6</ele><time>2026-04-20T08:29:58.984Z</time></trkpt><trkpt lat="33.5333217" lon="10.0517567"><ele>410.0</ele><time>2026-04-20T08:29:59.984Z</time></trkpt><trkpt lat="33.5332283" lon="10.0517667"><ele>410.0</ele><time>2026-04-20T08:30:00.984Z</time></trkpt><trkpt lat="33.533125" lon="10.05179"><ele>410.0</ele><time>2026-04-20T08:30:01.984Z</time></trkpt><trkpt lat="33.533015" lon="10.0518217"><ele>410.0</ele><time>2026-04-20T08:30:02.984Z</time></trkpt><trkpt lat="33.532905" lon="10.0518583"><ele>410.0</ele><time>2026-04-20T08:30:03.984Z</time></trkpt><trkpt lat="33.53279" lon="10.0518967"><ele>410.4</ele><time>2026-04-20T08:30:04.984Z</time></trkpt><trkpt lat="33.5326917" lon="10.0519383"><ele>410.8</ele><time>2026-04-20T08:30:05.984Z</time></trkpt><trkpt lat="33.53261" lon="10.0519783"><ele>411.20000000000005</ele><time>2026-04-20T08:30:06.984Z</time></trkpt><trkpt lat="33.5325467" lon="10.05202"><ele>411.6</ele><time>2026-04-20T08:30:07.984Z</time></trkpt><trkpt lat="33.5324583" lon="10.0521183"><ele>412.0</ele><time>2026-04-20T08:30:09.984Z</time></trkpt><trkpt lat="33.5324283" lon="10.0521867"><ele>412.00000000000006</ele><time>2026-04-20T08:30:10.984Z</time></trkpt><trkpt lat="33.5323933" lon="10.0522583"><ele>412.0</ele><time>2026-04-20T08:30:11.984Z</time></trkpt><trkpt lat="33.5323517" lon="10.0523383"><ele>412.0</ele><time>2026-04-20T08:30:12.984Z</time></trkpt><trkpt lat="33.5323017" lon="10.0524133"><ele>412.0</ele><time>2026-04-20T08:30:13.984Z</time></trkpt><trkpt lat="33.5322417" lon="10.0524617"><ele>412.00000000000006</ele><time>2026-04-20T08:30:14.984Z</time></trkpt><trkpt lat="33.53217" lon="10.0524983"><ele>412.0</ele><time>2026-04-20T08:30:15.984Z</time></trkpt><trkpt lat="33.532095" lon="10.0525117"><ele>414.0</ele><time>2026-04-20T08:30:16.984Z</time></trkpt><trkpt lat="33.5320233" lon="10.0525167"><ele>416.0</ele><time>2026-04-20T08:30:17.984Z</time></trkpt><trkpt lat="33.5319167" lon="10.0525367"><ele>418.0</ele><time>2026-04-20T08:30:19.984Z</time></trkpt><trkpt lat="33.5318133" lon="10.05257"><ele>420.0</ele><time>2026-04-20T08:30:21.984Z</time></trkpt><trkpt lat="33.5317" lon="10.052625"><ele>422.0</ele><time>2026-04-20T08:30:23.984Z</time></trkpt><trkpt lat="33.5316333" lon="10.0526633"><ele>421.99999999999994</ele><time>2026-04-20T08:30:24.984Z</time></trkpt><trkpt lat="33.5315583" lon="10.0527033"><ele>422.0</ele><time>2026-04-20T08:30:25.984Z</time></trkpt><trkpt lat="33.5314767" lon="10.0527317"><ele>422.0</ele><time>2026-04-20T08:30:26.984Z</time></trkpt><trkpt lat="33.5313983" lon="10.0527383"><ele>422.0</ele><time>2026-04-20T08:30:27.984Z</time></trkpt><trkpt lat="33.531295" lon="10.0527167"><ele>421.99999999999994</ele><time>2026-04-20T08:30:29.984Z</time></trkpt><trkpt lat="33.5312067" lon="10.0526717"><ele>422.0</ele><time>2026-04-20T08:30:38.984Z</time></trkpt><trkpt lat="33.5311417" lon="10.0526367"><ele>422.3333333333333</ele><time>2026-04-20T08:30:39.984Z</time></trkpt><trkpt lat="33.5310717" lon="10.0525967"><ele>422.66666666666663</ele><time>2026-04-20T08:30:40.984Z</time></trkpt><trkpt lat="33.5309917" lon="10.0525817"><ele>423.0</ele><time>2026-04-20T08:30:41.984Z</time></trkpt><trkpt lat="33.530925" lon="10.05258"><ele>423.33333333333337</ele><time>2026-04-20T08:30:42.984Z</time></trkpt><trkpt lat="33.5308417" lon="10.05263"><ele>423.6666666666667</ele><time>2026-04-20T08:30:44.984Z</time></trkpt><trkpt lat="33.5307633" lon="10.0526717"><ele>424.0</ele><time>2026-04-20T08:30:46.984Z</time></trkpt><trkpt lat="33.5306983" lon="10.0527483"><ele>424.0</ele><time>2026-04-20T08:30:48.984Z</time></trkpt><trkpt lat="33.5306333" lon="10.052885"><ele>424.0</ele><time>2026-04-20T08:30:50.984Z</time></trkpt><trkpt lat="33.5305867" lon="10.0529767"><ele>424.0</ele><time>2026-04-20T08:30:51.984Z</time></trkpt><trkpt lat="33.5305317" lon="10.0530783"><ele>424.0</ele><time>2026-04-20T08:30:52.984Z</time></trkpt><trkpt lat="33.5304633" lon="10.0531867"><ele>424.0</ele><time>2026-04-20T08:30:53.984Z</time></trkpt><trkpt lat="33.5304017" lon="10.0532933"><ele>424.33333333333337</ele><time>2026-04-20T08:30:54.984Z</time></trkpt><trkpt lat="33.5303517" lon="10.0533933"><ele>424.6666666666667</ele><time>2026-04-20T08:30:55.984Z</time></trkpt><trkpt lat="33.5303183" lon="10.05348"><ele>425.0</ele><time>2026-04-20T08:30:56.984Z</time></trkpt><trkpt lat="33.5303067" lon="10.0535733"><ele>425.33333333333337</ele><time>2026-04-20T08:30:57.984Z</time></trkpt><trkpt lat="33.5303083" lon="10.0536617"><ele>425.6666666666667</ele><time>2026-04-20T08:30:58.984Z</time></trkpt><trkpt lat="33.5303167" lon="10.053755"><ele>426.0</ele><time>2026-04-20T08:30:59.984Z</time></trkpt><trkpt lat="33.5303283" lon="10.0538417"><ele>426.0</ele><time>2026-04-20T08:31:00.984Z</time></trkpt><trkpt lat="33.5303383" lon="10.0539217"><ele>426.0</ele><time>2026-04-20T08:31:01.984Z</time></trkpt><trkpt lat="33.530325" lon="10.054035"><ele>426.0</ele><time>2026-04-20T08:31:03.984Z</time></trkpt><trkpt lat="33.5302567" lon="10.0541167"><ele>426.0</ele><time>2026-04-20T08:31:05.984Z</time></trkpt><trkpt lat="33.53021" lon="10.0541717"><ele>426.0</ele><time>2026-04-20T08:31:06.984Z</time></trkpt><trkpt lat="33.5301467" lon="10.0542433"><ele>426.0</ele><time>2026-04-20T08:31:07.984Z</time></trkpt><trkpt lat="33.5300917" lon="10.054325"><ele>426.3333333333333</ele><time>2026-04-20T08:31:08.984Z</time></trkpt><trkpt lat="33.5300583" lon="10.0544117"><ele>426.66666666666663</ele><time>2026-04-20T08:31:09.984Z</time></trkpt><trkpt lat="33.5300483" lon="10.054495"><ele>427.0</ele><time>2026-04-20T08:31:10.984Z</time></trkpt><trkpt lat="33.53007" lon="10.0545717"><ele>427.3333333333333</ele><time>2026-04-20T08:31:11.984Z</time></trkpt><trkpt lat="33.5301083" lon="10.0546517"><ele>427.66666666666663</ele><time>2026-04-20T08:31:12.984Z</time></trkpt><trkpt lat="33.5301383" lon="10.0547367"><ele>428.0</ele><time>2026-04-20T08:31:13.984Z</time></trkpt><trkpt lat="33.5301633" lon="10.0548283"><ele>428.0</ele><time>2026-04-20T08:31:14.984Z</time></trkpt><trkpt lat="33.530175" lon="10.0549233"><ele>427.99999999999994</ele><time>2026-04-20T08:31:15.984Z</time></trkpt><trkpt lat="33.5301783" lon="10.0550267"><ele>427.99999999999994</ele><time>2026-04-20T08:31:16.984Z</time></trkpt><trkpt lat="33.5301667" lon="10.0551317"><ele>428.0</ele><time>2026-04-20T08:31:17.984Z</time></trkpt><trkpt lat="33.530165" lon="10.0552533"><ele>428.0</ele><time>2026-04-20T08:31:18.984Z</time></trkpt><trkpt lat="33.5301733" lon="10.0553683"><ele>427.3333333333333</ele><time>2026-04-20T08:31:19.984Z</time></trkpt><trkpt lat="33.5301783" lon="10.0554883"><ele>426.66666666666663</ele><time>2026-04-20T08:31:20.984Z</time></trkpt><trkpt lat="33.5301733" lon="10.0556017"><ele>426.0</ele><time>2026-04-20T08:31:21.984Z</time></trkpt><trkpt lat="33.53015" lon="10.0556967"><ele>425.33333333333337</ele><time>2026-04-20T08:31:22.984Z</time></trkpt><trkpt lat="33.530115" lon="10.0557633"><ele>424.6666666666667</ele><time>2026-04-20T08:31:23.984Z</time></trkpt><trkpt lat="33.5300133" lon="10.0557883"><ele>424.0</ele><time>2026-04-20T08:31:25.984Z</time></trkpt><trkpt lat="33.5299067" lon="10.055725"><ele>424.0</ele><time>2026-04-20T08:31:27.984Z</time></trkpt><trkpt lat="33.5298183" lon="10.0556783"><ele>424.0</ele><time>2026-04-20T08:31:29.984Z</time></trkpt><trkpt lat="33.52972" lon="10.0556883"><ele>424.0</ele><time>2026-04-20T08:31:31.984Z</time></trkpt><trkpt lat="33.5296533" lon="10.0557033"><ele>424.0</ele><time>2026-04-20T08:31:32.984Z</time></trkpt><trkpt lat="33.5295867" lon="10.0557183"><ele>424.0</ele><time>2026-04-20T08:31:33.984Z</time></trkpt><trkpt lat="33.52947" lon="10.05575"><ele>423.0</ele><time>2026-04-20T08:31:35.984Z</time></trkpt><trkpt lat="33.5293717" lon="10.0558083"><ele>422.0</ele><time>2026-04-20T08:31:37.984Z</time></trkpt><trkpt lat="33.5292783" lon="10.0559117"><ele>421.0</ele><time>2026-04-20T08:31:39.984Z</time></trkpt><trkpt lat="33.5292317" lon="10.0559917"><ele>420.0</ele><time>2026-04-20T08:31:40.984Z</time></trkpt><trkpt lat="33.529185" lon="10.0560733"><ele>419.0</ele><time>2026-04-20T08:31:41.984Z</time></trkpt><trkpt lat="33.5291367" lon="10.0561433"><ele>419.0</ele><time>2026-04-20T08:31:42.984Z</time></trkpt><trkpt lat="33.5290467" lon="10.0562117"><ele>419.0</ele><time>2026-04-20T08:31:44.984Z</time></trkpt><trkpt lat="33.5289317" lon="10.0562383"><ele>419.0</ele><time>2026-04-20T08:31:46.984Z</time></trkpt><trkpt lat="33.5288233" lon="10.0562883"><ele>419.0</ele><time>2026-04-20T08:31:48.984Z</time></trkpt><trkpt lat="33.5287433" lon="10.0563567"><ele>419.0</ele><time>2026-04-20T08:31:50.984Z</time></trkpt><trkpt lat="33.52868" lon="10.0564617"><ele>418.3333333333333</ele><time>2026-04-20T08:31:52.984Z</time></trkpt><trkpt lat="33.5286233" lon="10.0566033"><ele>417.66666666666663</ele><time>2026-04-20T08:31:54.984Z</time></trkpt><trkpt lat="33.52861" lon="10.0566883"><ele>417.0</ele><time>2026-04-20T08:31:55.984Z</time></trkpt><trkpt lat="33.528605" lon="10.0567767"><ele>416.33333333333337</ele><time>2026-04-20T08:31:56.984Z</time></trkpt><trkpt lat="33.528595" lon="10.0568567"><ele>415.6666666666667</ele><time>2026-04-20T08:31:57.984Z</time></trkpt><trkpt lat="33.528585" lon="10.0569367"><ele>415.0</ele><time>2026-04-20T08:31:58.984Z</time></trkpt><trkpt lat="33.5285517" lon="10.0570717"><ele>416.8</ele><time>2026-04-20T08:32:00.984Z</time></trkpt><trkpt lat="33.52854" lon="10.0571867"><ele>418.6</ele><time>2026-04-20T08:32:02.984Z</time></trkpt><trkpt lat="33.528525" lon="10.0573467"><ele>420.4</ele><time>2026-04-20T08:32:04.984Z</time></trkpt><trkpt lat="33.5285017" lon="10.05744"><ele>422.2</ele><time>2026-04-20T08:32:05.984Z</time></trkpt><trkpt lat="33.5284667" lon="10.057525"><ele>424.0</ele><time>2026-04-20T08:32:06.984Z</time></trkpt><trkpt lat="33.5284183" lon="10.0575967"><ele>424.5714285714286</ele><time>2026-04-20T08:32:07.984Z</time></trkpt><trkpt lat="33.5283633" lon="10.0576533"><ele>425.1428571428571</ele><time>2026-04-20T08:32:08.984Z</time></trkpt><trkpt lat="33.5282967" lon="10.0576883"><ele>425.7142857142857</ele><time>2026-04-20T08:32:09.984Z</time></trkpt><trkpt lat="33.5282233" lon="10.0577167"><ele>426.28571428571433</ele><time>2026-04-20T08:32:10.984Z</time></trkpt><trkpt lat="33.5281517" lon="10.0577283"><ele>426.8571428571429</ele><time>2026-04-20T08:32:11.984Z</time></trkpt><trkpt lat="33.528075" lon="10.0577267"><ele>427.42857142857144</ele><time>2026-04-20T08:32:12.984Z</time></trkpt><trkpt lat="33.528" lon="10.0577117"><ele>428.0</ele><time>2026-04-20T08:32:13.984Z</time></trkpt><trkpt lat="33.5279267" lon="10.0576983"><ele>428.0</ele><time>2026-04-20T08:32:14.984Z</time></trkpt><trkpt lat="33.5278283" lon="10.0576667"><ele>427.99999999999994</ele><time>2026-04-20T08:32:16.984Z</time></trkpt><trkpt lat="33.5277583" lon="10.0576"><ele>427.99999999999994</ele><time>2026-04-20T08:32:18.984Z</time></trkpt><trkpt lat="33.527685" lon="10.057525"><ele>428.0</ele><time>2026-04-20T08:32:20.984Z</time></trkpt><trkpt lat="33.5275867" lon="10.0574817"><ele>428.0</ele><time>2026-04-20T08:32:22.984Z</time></trkpt><trkpt lat="33.527465" lon="10.0574767"><ele>428.0</ele><time>2026-04-20T08:32:24.984Z</time></trkpt><trkpt lat="33.52734" lon="10.0574933"><ele>427.99999999999994</ele><time>2026-04-20T08:32:26.984Z</time></trkpt><trkpt lat="33.5272783" lon="10.057525"><ele>427.99999999999994</ele><time>2026-04-20T08:32:27.984Z</time></trkpt><trkpt lat="33.5272217" lon="10.0575617"><ele>428.0</ele><time>2026-04-20T08:32:28.984Z</time></trkpt><trkpt lat="33.52712" lon="10.0576"><ele>428.0</ele><time>2026-04-20T08:32:30.984Z</time></trkpt><trkpt lat="33.52703" lon="10.057625"><ele>427.28571428571433</ele><time>2026-04-20T08:32:32.984Z</time></trkpt><trkpt lat="33.52695" lon="10.0576617"><ele>426.57142857142856</ele><time>2026-04-20T08:32:34.984Z</time></trkpt><trkpt lat="33.5268983" lon="10.0577133"><ele>425.8571428571429</ele><time>2026-04-20T08:32:37.984Z</time></trkpt><trkpt lat="33.5268417" lon="10.0577817"><ele>425.14285714285717</ele><time>2026-04-20T08:32:40.984Z</time></trkpt><trkpt lat="33.5268033" lon="10.05785"><ele>424.42857142857144</ele><time>2026-04-20T08:33:11.983Z</time></trkpt><trkpt lat="33.5267717" lon="10.057925"><ele>423.7142857142857</ele><time>2026-04-20T08:33:13.983Z</time></trkpt><trkpt lat="33.5267283" lon="10.058"><ele>423.0</ele><time>2026-04-20T08:33:15.983Z</time></trkpt><trkpt lat="33.5266617" lon="10.0580783"><ele>423.0</ele><time>2026-04-20T08:33:18.983Z</time></trkpt><trkpt lat="33.5265917" lon="10.0581"><ele>423.0</ele><time>2026-04-20T08:33:20.983Z</time></trkpt><trkpt lat="33.52651" lon="10.058095"><ele>423.0</ele><time>2026-04-20T08:33:22.983Z</time></trkpt><trkpt lat="33.526415" lon="10.0580683"><ele>423.0</ele><time>2026-04-20T08:33:24.983Z</time></trkpt><trkpt lat="33.5263133" lon="10.0580717"><ele>423.0</ele><time>2026-04-20T08:33:26.983Z</time></trkpt><trkpt lat="33.5262067" lon="10.0581183"><ele>423.1666666666667</ele><time>2026-04-20T08:33:28.983Z</time></trkpt><trkpt lat="33.5261433" lon="10.0581617"><ele>423.33333333333337</ele><time>2026-04-20T08:33:29.983Z</time></trkpt><trkpt lat="33.5260717" lon="10.0582133"><ele>423.5</ele><time>2026-04-20T08:33:30.983Z</time></trkpt><trkpt lat="33.5259983" lon="10.0582683"><ele>423.6666666666667</ele><time>2026-04-20T08:33:31.983Z</time></trkpt><trkpt lat="33.5259133" lon="10.0583317"><ele>423.83333333333337</ele><time>2026-04-20T08:33:32.983Z</time></trkpt><trkpt lat="33.5258267" lon="10.0584017"><ele>424.0</ele><time>2026-04-20T08:33:33.983Z</time></trkpt><trkpt lat="33.5257483" lon="10.0584917"><ele>424.0</ele><time>2026-04-20T08:33:34.983Z</time></trkpt><trkpt lat="33.525675" lon="10.05859"><ele>424.0</ele><time>2026-04-20T08:33:35.983Z</time></trkpt><trkpt lat="33.5256283" lon="10.0586833"><ele>424.0</ele><time>2026-04-20T08:33:36.983Z</time></trkpt><trkpt lat="33.5255717" lon="10.0587783"><ele>424.0</ele><time>2026-04-20T08:33:38.983Z</time></trkpt><trkpt lat="33.5254983" lon="10.0587367"><ele>424.0</ele><time>2026-04-20T08:33:53.983Z</time></trkpt><trkpt lat="33.5254333" lon="10.05869"><ele>424.4</ele><time>2026-04-20T08:33:59.983Z</time></trkpt><trkpt lat="33.5253433" lon="10.0586367"><ele>424.79999999999995</ele><time>2026-04-20T08:34:01.983Z</time></trkpt><trkpt lat="33.5252467" lon="10.058595"><ele>425.20000000000005</ele><time>2026-04-20T08:34:03.983Z</time></trkpt><trkpt lat="33.52517" lon="10.0585417"><ele>425.6</ele><time>2026-04-20T08:34:05.983Z</time></trkpt><trkpt lat="33.5251083" lon="10.0584617"><ele>426.0</ele><time>2026-04-20T08:34:07.983Z</time></trkpt><trkpt lat="33.5250617" lon="10.0583617"><ele>426.20000000000005</ele><time>2026-04-20T08:34:09.983Z</time></trkpt><trkpt lat="33.525005" lon="10.0582483"><ele>426.40000000000003</ele><time>2026-04-20T08:34:11.983Z</time></trkpt><trkpt lat="33.52492" lon="10.0581917"><ele>426.6</ele><time>2026-04-20T08:34:13.983Z</time></trkpt><trkpt lat="33.5248133" lon="10.05814"><ele>426.8</ele><time>2026-04-20T08:34:15.983Z</time></trkpt><trkpt lat="33.5247567" lon="10.058105"><ele>427.0</ele><time>2026-04-20T08:34:16.983Z</time></trkpt><trkpt lat="33.5247" lon="10.058065"><ele>427.00000000000006</ele><time>2026-04-20T08:34:17.983Z</time></trkpt><trkpt lat="33.5245883" lon="10.0579967"><ele>427.0</ele><time>2026-04-20T08:34:19.983Z</time></trkpt><trkpt lat="33.5245317" lon="10.0579567"><ele>427.0</ele><time>2026-04-20T08:34:20.983Z</time></trkpt><trkpt lat="33.5244633" lon="10.0579167"><ele>427.0</ele><time>2026-04-20T08:34:21.983Z</time></trkpt><trkpt lat="33.52439" lon="10.05787"><ele>427.00000000000006</ele><time>2026-04-20T08:34:22.983Z</time></trkpt><trkpt lat="33.52432" lon="10.05781"><ele>427.0</ele><time>2026-04-20T08:34:23.983Z</time></trkpt><trkpt lat="33.52425" lon="10.05775"><ele>427.00000000000006</ele><time>2026-04-20T08:34:24.983Z</time></trkpt><trkpt lat="33.52418" lon="10.05766"><ele>427.0</ele><time>2026-04-20T08:34:26.983Z</time></trkpt><trkpt lat="33.5241317" lon="10.057595"><ele>427.0</ele><time>2026-04-20T08:35:02.983Z</time></trkpt><trkpt lat="33.5240817" lon="10.057515"><ele>427.0</ele><time>2026-04-20T08:36:11.983Z</time></trkpt><trkpt lat="33.524025" lon="10.0574617"><ele>427.00000000000006</ele><time>2026-04-20T08:36:13.983Z</time></trkpt><trkpt lat="33.5239367" lon="10.0574433"><ele>427.0</ele><time>2026-04-20T08:36:15.983Z</time></trkpt><trkpt lat="33.52382" lon="10.0574283"><ele>427.00000000000006</ele><time>2026-04-20T08:36:17.983Z</time></trkpt><trkpt lat="33.5237467" lon="10.0574167"><ele>427.0</ele><time>2026-04-20T08:36:18.983Z</time></trkpt><trkpt lat="33.5236767" lon="10.0574067"><ele>427.0</ele><time>2026-04-20T08:36:19.983Z</time></trkpt><trkpt lat="33.523605" lon="10.0573967"><ele>427.0</ele><time>2026-04-20T08:36:20.983Z</time></trkpt><trkpt lat="33.5234883" lon="10.057385"><ele>427.00000000000006</ele><time>2026-04-20T08:36:22.983Z</time></trkpt><trkpt lat="33.5233883" lon="10.0573667"><ele>427.0</ele><time>2026-04-20T08:36:24.983Z</time></trkpt><trkpt lat="33.5232817" lon="10.0573183"><ele>427.00000000000006</ele><time>2026-04-20T08:36:26.983Z</time></trkpt><trkpt lat="33.52319" lon="10.057255"><ele>427.0</ele><time>2026-04-20T08:36:28.983Z</time></trkpt><trkpt lat="33.5231383" lon="10.0572117"><ele>427.0</ele><time>2026-04-20T08:36:29.983Z</time></trkpt><trkpt lat="33.5230767" lon="10.0571633"><ele>427.0</ele><time>2026-04-20T08:36:30.983Z</time></trkpt><trkpt lat="33.5230117" lon="10.057115"><ele>427.00000000000006</ele><time>2026-04-20T08:36:31.983Z</time></trkpt><trkpt lat="33.5229367" lon="10.0570817"><ele>427.0</ele><time>2026-04-20T08:36:32.982Z</time></trkpt><trkpt lat="33.5228483" lon="10.0570617"><ele>427.00000000000006</ele><time>2026-04-20T08:36:33.982Z</time></trkpt><trkpt lat="33.5227583" lon="10.05704"><ele>427.0</ele><time>2026-04-20T08:36:34.982Z</time></trkpt><trkpt lat="33.522675" lon="10.0570283"><ele>427.0</ele><time>2026-04-20T08:36:35.982Z</time></trkpt><trkpt lat="33.5225983" lon="10.0570317"><ele>427.0</ele><time>2026-04-20T08:36:36.982Z</time></trkpt><trkpt lat="33.52253" lon="10.0570467"><ele>427.00000000000006</ele><time>2026-04-20T08:36:37.982Z</time></trkpt><trkpt lat="33.5224183" lon="10.05707"><ele>427.0</ele><time>2026-04-20T08:36:39.982Z</time></trkpt><trkpt lat="33.5223217" lon="10.0570567"><ele>427.0</ele><time>2026-04-20T08:36:41.982Z</time></trkpt><trkpt lat="33.5222167" lon="10.0569917"><ele>427.00000000000006</ele><time>2026-04-20T08:36:43.982Z</time></trkpt><trkpt lat="33.5221117" lon="10.0569033"><ele>427.00000000000006</ele><time>2026-04-20T08:36:45.982Z</time></trkpt><trkpt lat="33.52205" lon="10.0568"><ele>427.0</ele><time>2026-04-20T08:36:47.982Z</time></trkpt><trkpt lat="33.522015" lon="10.0567283"><ele>427.0</ele><time>2026-04-20T08:36:48.982Z</time></trkpt><trkpt lat="33.521985" lon="10.0566433"><ele>426.7142857142857</ele><time>2026-04-20T08:36:49.982Z</time></trkpt><trkpt lat="33.5219483" lon="10.0565767"><ele>426.42857142857144</ele><time>2026-04-20T08:36:50.982Z</time></trkpt><trkpt lat="33.521905" lon="10.0565133"><ele>426.1428571428571</ele><time>2026-04-20T08:36:51.982Z</time></trkpt><trkpt lat="33.52186" lon="10.056455"><ele>425.8571428571429</ele><time>2026-04-20T08:36:52.982Z</time></trkpt><trkpt lat="33.5218067" lon="10.05639"><ele>425.57142857142856</ele><time>2026-04-20T08:36:53.982Z</time></trkpt><trkpt lat="33.5217517" lon="10.0563133"><ele>425.2857142857143</ele><time>2026-04-20T08:36:54.982Z</time></trkpt><trkpt lat="33.5216867" lon="10.0562433"><ele>425.0</ele><time>2026-04-20T08:36:55.982Z</time></trkpt><trkpt lat="33.5216233" lon="10.0561733"><ele>425.0</ele><time>2026-04-20T08:36:56.982Z</time></trkpt><trkpt lat="33.5215567" lon="10.0561"><ele>425.0</ele><time>2026-04-20T08:36:57.982Z</time></trkpt><trkpt lat="33.52149" lon="10.0560283"><ele>425.0</ele><time>2026-04-20T08:36:58.982Z</time></trkpt><trkpt lat="33.5214217" lon="10.0559667"><ele>425.0</ele><time>2026-04-20T08:36:59.982Z</time></trkpt><trkpt lat="33.52136" lon="10.0559033"><ele>425.0</ele><time>2026-04-20T08:37:00.982Z</time></trkpt><trkpt lat="33.5212633" lon="10.0558467"><ele>424.99999999999994</ele><time>2026-04-20T08:37:02.982Z</time></trkpt><trkpt lat="33.52114" lon="10.055825"><ele>425.0</ele><time>2026-04-20T08:37:04.982Z</time></trkpt><trkpt lat="33.5210683" lon="10.0558067"><ele>425.0</ele><time>2026-04-20T08:37:05.982Z</time></trkpt><trkpt lat="33.5209833" lon="10.0557767"><ele>425.0</ele><time>2026-04-20T08:37:06.982Z</time></trkpt><trkpt lat="33.52091" lon="10.0557433"><ele>424.99999999999994</ele><time>2026-04-20T08:37:07.982Z</time></trkpt><trkpt lat="33.5208367" lon="10.0557183"><ele>425.0</ele><time>2026-04-20T08:37:08.982Z</time></trkpt><trkpt lat="33.52075" lon="10.055705"><ele>424.99999999999994</ele><time>2026-04-20T08:37:10.982Z</time></trkpt><trkpt lat="33.520685" lon="10.0557383"><ele>425.0</ele><time>2026-04-20T08:37:12.982Z</time></trkpt><trkpt lat="33.5206133" lon="10.0557867"><ele>425.0</ele><time>2026-04-20T08:37:14.982Z</time></trkpt><trkpt lat="33.5205067" lon="10.0558083"><ele>425.0</ele><time>2026-04-20T08:37:16.982Z</time></trkpt><trkpt lat="33.5204333" lon="10.0558233"><ele>424.99999999999994</ele><time>2026-04-20T08:37:17.982Z</time></trkpt><trkpt lat="33.52035" lon="10.0558483"><ele>425.0</ele><time>2026-04-20T08:37:18.982Z</time></trkpt><trkpt lat="33.5202567" lon="10.0558767"><ele>426.25</ele><time>2026-04-20T08:37:19.982Z</time></trkpt><trkpt lat="33.5201567" lon="10.0559083"><ele>427.5</ele><time>2026-04-20T08:37:20.982Z</time></trkpt><trkpt lat="33.5200467" lon="10.0559317"><ele>428.75</ele><time>2026-04-20T08:37:21.982Z</time></trkpt><trkpt lat="33.5199333" lon="10.055955"><ele>430.0</ele><time>2026-04-20T08:37:22.982Z</time></trkpt><trkpt lat="33.5198133" lon="10.0559733"><ele>430.0</ele><time>2026-04-20T08:37:23.982Z</time></trkpt><trkpt lat="33.51969" lon="10.0559883"><ele>430.0</ele><time>2026-04-20T08:37:24.982Z</time></trkpt><trkpt lat="33.51958" lon="10.0559983"><ele>430.0</ele><time>2026-04-20T08:37:25.982Z</time></trkpt><trkpt lat="33.5194817" lon="10.0559883"><ele>430.0</ele><time>2026-04-20T08:37:26.982Z</time></trkpt><trkpt lat="33.5193933" lon="10.0559683"><ele>430.0</ele><time>2026-04-20T08:37:27.982Z</time></trkpt><trkpt lat="33.51932" lon="10.0559283"><ele>430.6</ele><time>2026-04-20T08:37:28.982Z</time></trkpt><trkpt lat="33.519255" lon="10.05588"><ele>431.2</ele><time>2026-04-20T08:37:29.982Z</time></trkpt><trkpt lat="33.5191933" lon="10.0558033"><ele>431.79999999999995</ele><time>2026-04-20T08:37:30.982Z</time></trkpt><trkpt lat="33.5191533" lon="10.0557033"><ele>432.4</ele><time>2026-04-20T08:37:31.982Z</time></trkpt><trkpt lat="33.5191133" lon="10.0555883"><ele>433.0</ele><time>2026-04-20T08:37:32.982Z</time></trkpt><trkpt lat="33.5190867" lon="10.05546"><ele>433.00000000000006</ele><time>2026-04-20T08:37:33.982Z</time></trkpt><trkpt lat="33.5190783" lon="10.0553267"><ele>433.0</ele><time>2026-04-20T08:37:34.982Z</time></trkpt><trkpt lat="33.519065" lon="10.0552217"><ele>433.0</ele><time>2026-04-20T08:37:35.982Z</time></trkpt><trkpt lat="33.5190533" lon="10.0551367"><ele>433.0</ele><time>2026-04-20T08:37:36.982Z</time></trkpt><trkpt lat="33.5190333" lon="10.055035"><ele>433.00000000000006</ele><time>2026-04-20T08:37:38.982Z</time></trkpt><trkpt lat="33.519005" lon="10.0549567"><ele>433.0</ele><time>2026-04-20T08:37:40.982Z</time></trkpt><trkpt lat="33.5189517" lon="10.0549033"><ele>433.00000000000006</ele><time>2026-04-20T08:37:42.982Z</time></trkpt><trkpt lat="33.5188783" lon="10.0548983"><ele>433.0</ele><time>2026-04-20T08:37:44.982Z</time></trkpt><trkpt lat="33.51879" lon="10.0549067"><ele>433.0</ele><time>2026-04-20T08:37:46.982Z</time></trkpt><trkpt lat="33.5186783" lon="10.0548933"><ele>433.0</ele><time>2026-04-20T08:37:48.982Z</time></trkpt><trkpt lat="33.5186083" lon="10.0548683"><ele>433.00000000000006</ele><time>2026-04-20T08:37:49.982Z</time></trkpt><trkpt lat="33.5185333" lon="10.05483"><ele>433.0</ele><time>2026-04-20T08:37:50.982Z</time></trkpt><trkpt lat="33.5184567" lon="10.054795"><ele>433.50000000000006</ele><time>2026-04-20T08:37:51.982Z</time></trkpt><trkpt lat="33.5183833" lon="10.054765"><ele>434.0</ele><time>2026-04-20T08:37:52.982Z</time></trkpt><trkpt lat="33.5183033" lon="10.0547383"><ele>434.5</ele><time>2026-04-20T08:37:53.982Z</time></trkpt><trkpt lat="33.5182167" lon="10.054725"><ele>435.0</ele><time>2026-04-20T08:37:54.982Z</time></trkpt><trkpt lat="33.5181217" lon="10.0547167"><ele>435.50000000000006</ele><time>2026-04-20T08:37:55.982Z</time></trkpt><trkpt lat="33.5180333" lon="10.05472"><ele>436.0</ele><time>2026-04-20T08:37:56.982Z</time></trkpt><trkpt lat="33.5179567" lon="10.0547083"><ele>436.6666666666667</ele><time>2026-04-20T08:37:57.982Z</time></trkpt><trkpt lat="33.5178917" lon="10.054695"><ele>437.33333333333337</ele><time>2026-04-20T08:37:58.982Z</time></trkpt><trkpt lat="33.517795" lon="10.0546583"><ele>438.0</ele><time>2026-04-20T08:38:00.982Z</time></trkpt><trkpt lat="33.5176983" lon="10.054585"><ele>438.66666666666663</ele><time>2026-04-20T08:38:02.982Z</time></trkpt><trkpt lat="33.5176417" lon="10.05455"><ele>439.3333333333333</ele><time>2026-04-20T08:38:03.982Z</time></trkpt><trkpt lat="33.5175817" lon="10.054515"><ele>440.0</ele><time>2026-04-20T08:38:04.982Z</time></trkpt><trkpt lat="33.5175" lon="10.0544767"><ele>439.99999999999994</ele><time>2026-04-20T08:38:05.982Z</time></trkpt><trkpt lat="33.5174217" lon="10.0544383"><ele>440.0</ele><time>2026-04-20T08:38:06.982Z</time></trkpt><trkpt lat="33.5173383" lon="10.0543767"><ele>440.0</ele><time>2026-04-20T08:38:07.982Z</time></trkpt><trkpt lat="33.5172683" lon="10.0543267"><ele>440.0</ele><time>2026-04-20T08:38:08.982Z</time></trkpt><trkpt lat="33.517205" lon="10.0542817"><ele>439.99999999999994</ele><time>2026-04-20T08:38:09.982Z</time></trkpt><trkpt lat="33.5171417" lon="10.054245"><ele>440.0</ele><time>2026-04-20T08:38:10.982Z</time></trkpt><trkpt lat="33.51703" lon="10.054205"><ele>439.99999999999994</ele><time>2026-04-20T08:38:12.982Z</time></trkpt><trkpt lat="33.51692" lon="10.054185"><ele>440.0</ele><time>2026-04-20T08:38:14.982Z</time></trkpt><trkpt lat="33.5168567" lon="10.0541817"><ele>440.0</ele><time>2026-04-20T08:38:15.982Z</time></trkpt><trkpt lat="33.51678" lon="10.05419"><ele>440.0</ele><time>2026-04-20T08:38:16.982Z</time></trkpt><trkpt lat="33.516695" lon="10.0542033"><ele>439.99999999999994</ele><time>2026-04-20T08:38:17.982Z</time></trkpt><trkpt lat="33.5166033" lon="10.05421"><ele>440.0</ele><time>2026-04-20T08:38:18.982Z</time></trkpt><trkpt lat="33.5165083" lon="10.0542167"><ele>440.0</ele><time>2026-04-20T08:38:19.982Z</time></trkpt><trkpt lat="33.5164317" lon="10.0542233"><ele>440.0</ele><time>2026-04-20T08:38:20.982Z</time></trkpt><trkpt lat="33.5163583" lon="10.05421"><ele>440.0</ele><time>2026-04-20T08:38:21.982Z</time></trkpt><trkpt lat="33.516275" lon="10.0541283"><ele>440.0</ele><time>2026-04-20T08:38:23.982Z</time></trkpt><trkpt lat="33.5162167" lon="10.0540367"><ele>440.0</ele><time>2026-04-20T08:38:25.982Z</time></trkpt><trkpt lat="33.5161533" lon="10.0539467"><ele>440.16666666666663</ele><time>2026-04-20T08:38:27.982Z</time></trkpt><trkpt lat="33.5160683" lon="10.0538633"><ele>440.3333333333333</ele><time>2026-04-20T08:38:29.982Z</time></trkpt><trkpt lat="33.5160133" lon="10.0538167"><ele>440.5</ele><time>2026-04-20T08:38:30.982Z</time></trkpt><trkpt lat="33.5159483" lon="10.0537783"><ele>440.66666666666663</ele><time>2026-04-20T08:38:31.982Z</time></trkpt><trkpt lat="33.5158817" lon="10.0537283"><ele>440.8333333333333</ele><time>2026-04-20T08:38:32.982Z</time></trkpt><trkpt lat="33.5158133" lon="10.053665"><ele>441.0</ele><time>2026-04-20T08:38:33.982Z</time></trkpt><trkpt lat="33.5157417" lon="10.0535933"><ele>441.0</ele><time>2026-04-20T08:38:34.982Z</time></trkpt><trkpt lat="33.5156783" lon="10.0535217"><ele>441.0</ele><time>2026-04-20T08:38:35.982Z</time></trkpt><trkpt lat="33.5156217" lon="10.053435"><ele>441.0</ele><time>2026-04-20T08:38:36.982Z</time></trkpt><trkpt lat="33.51557" lon="10.0533517"><ele>441.0</ele><time>2026-04-20T08:38:37.982Z</time></trkpt><trkpt lat="33.51552" lon="10.0532633"><ele>441.0</ele><time>2026-04-20T08:38:38.982Z</time></trkpt><trkpt lat="33.51548" lon="10.053185"><ele>441.0</ele><time>2026-04-20T08:38:39.982Z</time></trkpt><trkpt lat="33.515445" lon="10.0530867"><ele>440.0</ele><time>2026-04-20T08:38:40.982Z</time></trkpt><trkpt lat="33.5154183" lon="10.0529783"><ele>439.0</ele><time>2026-04-20T08:38:41.982Z</time></trkpt><trkpt lat="33.5154033" lon="10.0528667"><ele>438.0</ele><time>2026-04-20T08:38:42.982Z</time></trkpt><trkpt lat="33.51541" lon="10.0527483"><ele>437.0</ele><time>2026-04-20T08:38:43.982Z</time></trkpt><trkpt lat="33.5154217" lon="10.0526217"><ele>436.0</ele><time>2026-04-20T08:38:44.982Z</time></trkpt><trkpt lat="33.5154317" lon="10.0524917"><ele>437.4</ele><time>2026-04-20T08:38:45.982Z</time></trkpt><trkpt lat="33.51544" lon="10.0523683"><ele>438.8</ele><time>2026-04-20T08:38:46.982Z</time></trkpt><trkpt lat="33.51544" lon="10.0522467"><ele>440.19999999999993</ele><time>2026-04-20T08:38:47.982Z</time></trkpt><trkpt lat="33.5154333" lon="10.052125"><ele>441.59999999999997</ele><time>2026-04-20T08:38:48.982Z</time></trkpt><trkpt lat="33.515425" lon="10.0520083"><ele>443.0</ele><time>2026-04-20T08:38:49.982Z</time></trkpt><trkpt lat="33.5154217" lon="10.051895"><ele>442.99999999999994</ele><time>2026-04-20T08:38:50.982Z</time></trkpt><trkpt lat="33.5154267" lon="10.0517833"><ele>443.0</ele><time>2026-04-20T08:38:51.982Z</time></trkpt><trkpt lat="33.5154367" lon="10.0516817"><ele>443.0</ele><time>2026-04-20T08:38:52.982Z</time></trkpt><trkpt lat="33.515435" lon="10.0515883"><ele>443.0</ele><time>2026-04-20T08:38:53.982Z</time></trkpt><trkpt lat="33.5154233" lon="10.05151"><ele>442.99999999999994</ele><time>2026-04-20T08:38:54.982Z</time></trkpt><trkpt lat="33.51539" lon="10.051445"><ele>443.0</ele><time>2026-04-20T08:38:55.982Z</time></trkpt><trkpt lat="33.515335" lon="10.0513833"><ele>442.49999999999994</ele><time>2026-04-20T08:38:56.982Z</time></trkpt><trkpt lat="33.515275" lon="10.0513283"><ele>442.0</ele><time>2026-04-20T08:38:57.982Z</time></trkpt><trkpt lat="33.5152133" lon="10.0512867"><ele>441.5</ele><time>2026-04-20T08:38:58.982Z</time></trkpt><trkpt lat="33.5151567" lon="10.0512417"><ele>441.0</ele><time>2026-04-20T08:38:59.982Z</time></trkpt><trkpt lat="33.5151117" lon="10.0511867"><ele>440.49999999999994</ele><time>2026-04-20T08:39:00.982Z</time></trkpt><trkpt lat="33.5150283" lon="10.0510733"><ele>440.0</ele><time>2026-04-20T08:39:02.982Z</time></trkpt><trkpt lat="33.514975" lon="10.0510317"><ele>439.99999999999994</ele><time>2026-04-20T08:39:03.982Z</time></trkpt><trkpt lat="33.5149117" lon="10.050985"><ele>440.0</ele><time>2026-04-20T08:39:04.982Z</time></trkpt><trkpt lat="33.514845" lon="10.05093"><ele>440.0</ele><time>2026-04-20T08:39:05.982Z</time></trkpt><trkpt lat="33.5147833" lon="10.0508667"><ele>440.0</ele><time>2026-04-20T08:39:06.982Z</time></trkpt><trkpt lat="33.514735" lon="10.05081"><ele>439.99999999999994</ele><time>2026-04-20T08:39:07.982Z</time></trkpt><trkpt lat="33.51463" lon="10.0507333"><ele>440.0</ele><time>2026-04-20T08:39:09.982Z</time></trkpt><trkpt lat="33.51455" lon="10.0507017"><ele>439.4</ele><time>2026-04-20T08:39:10.982Z</time></trkpt><trkpt lat="33.514465" lon="10.0506467"><ele>438.8</ele><time>2026-04-20T08:39:11.982Z</time></trkpt><trkpt lat="33.51438" lon="10.05058"><ele>438.20000000000005</ele><time>2026-04-20T08:39:12.982Z</time></trkpt><trkpt lat="33.51431" lon="10.0504867"><ele>437.6</ele><time>2026-04-20T08:39:13.982Z</time></trkpt><trkpt lat="33.514255" lon="10.0504067"><ele>437.0</ele><time>2026-04-20T08:39:14.982Z</time></trkpt><trkpt lat="33.5142" lon="10.0503533"><ele>436.99999999999994</ele><time>2026-04-20T08:39:15.982Z</time></trkpt><trkpt lat="33.5141183" lon="10.050305"><ele>437.0</ele><time>2026-04-20T08:39:17.982Z</time></trkpt><trkpt lat="33.51402" lon="10.050265"><ele>437.0</ele><time>2026-04-20T08:39:19.982Z</time></trkpt><trkpt lat="33.5139467" lon="10.05023"><ele>437.0</ele><time>2026-04-20T08:39:20.982Z</time></trkpt><trkpt lat="33.5138667" lon="10.050195"><ele>436.99999999999994</ele><time>2026-04-20T08:39:21.982Z</time></trkpt><trkpt lat="33.5137817" lon="10.0501667"><ele>437.0</ele><time>2026-04-20T08:39:22.982Z</time></trkpt><trkpt lat="33.5137083" lon="10.0501483"><ele>437.2857142857143</ele><time>2026-04-20T08:39:23.982Z</time></trkpt><trkpt lat="33.51365" lon="10.0501167"><ele>437.5714285714286</ele><time>2026-04-20T08:39:24.982Z</time></trkpt><trkpt lat="33.5135833" lon="10.0500583"><ele>437.8571428571429</ele><time>2026-04-20T08:39:26.982Z</time></trkpt><trkpt lat="33.5135433" lon="10.04999"><ele>438.1428571428571</ele><time>2026-04-20T08:39:39.982Z</time></trkpt><trkpt lat="33.5134933" lon="10.04994"><ele>438.42857142857144</ele><time>2026-04-20T08:39:40.982Z</time></trkpt><trkpt lat="33.51344" lon="10.04988"><ele>438.7142857142857</ele><time>2026-04-20T08:39:41.982Z</time></trkpt><trkpt lat="33.5133833" lon="10.049815"><ele>439.0</ele><time>2026-04-20T08:39:42.982Z</time></trkpt><trkpt lat="33.5133317" lon="10.04976"><ele>439.2</ele><time>2026-04-20T08:39:43.982Z</time></trkpt><trkpt lat="33.5132767" lon="10.0497167"><ele>439.4</ele><time>2026-04-20T08:39:44.982Z</time></trkpt><trkpt lat="33.5131667" lon="10.0496933"><ele>439.6</ele><time>2026-04-20T08:39:46.982Z</time></trkpt><trkpt lat="33.51305" lon="10.0496367"><ele>439.8</ele><time>2026-04-20T08:39:48.982Z</time></trkpt><trkpt lat="33.512985" lon="10.049585"><ele>440.0</ele><time>2026-04-20T08:39:49.982Z</time></trkpt><trkpt lat="33.5129167" lon="10.0495267"><ele>440.4</ele><time>2026-04-20T08:39:50.982Z</time></trkpt><trkpt lat="33.512845" lon="10.0494517"><ele>440.8</ele><time>2026-04-20T08:39:51.982Z</time></trkpt><trkpt lat="33.51278" lon="10.0493717"><ele>441.20000000000005</ele><time>2026-04-20T08:39:52.982Z</time></trkpt><trkpt lat="33.51272" lon="10.0492883"><ele>441.6</ele><time>2026-04-20T08:39:53.982Z</time></trkpt><trkpt lat="33.5126567" lon="10.0491983"><ele>442.0</ele><time>2026-04-20T08:39:54.982Z</time></trkpt><trkpt lat="33.5125833" lon="10.0490983"><ele>442.25</ele><time>2026-04-20T08:39:55.981Z</time></trkpt><trkpt lat="33.5124967" lon="10.0490033"><ele>442.5</ele><time>2026-04-20T08:39:56.981Z</time></trkpt><trkpt lat="33.5124" lon="10.0489183"><ele>442.75</ele><time>2026-04-20T08:39:57.981Z</time></trkpt><trkpt lat="33.5122933" lon="10.0488417"><ele>443.0</ele><time>2026-04-20T08:39:58.981Z</time></trkpt><trkpt lat="33.51219" lon="10.04877"><ele>442.99999999999994</ele><time>2026-04-20T08:39:59.981Z</time></trkpt><trkpt lat="33.5121067" lon="10.04872"><ele>443.0</ele><time>2026-04-20T08:40:00.981Z</time></trkpt><trkpt lat="33.5120433" lon="10.0486667"><ele>443.0</ele><time>2026-04-20T08:40:01.981Z</time></trkpt><trkpt lat="33.5119783" lon="10.0486133"><ele>443.0</ele><time>2026-04-20T08:40:02.981Z</time></trkpt><trkpt lat="33.5119267" lon="10.0485583"><ele>442.99999999999994</ele><time>2026-04-20T08:40:03.981Z</time></trkpt><trkpt lat="33.511865" lon="10.048525"><ele>443.0</ele><time>2026-04-20T08:40:04.981Z</time></trkpt><trkpt lat="33.5118" lon="10.048515"><ele>442.49999999999994</ele><time>2026-04-20T08:40:05.981Z</time></trkpt><trkpt lat="33.5116983" lon="10.0485733"><ele>442.0</ele><time>2026-04-20T08:40:07.981Z</time></trkpt><trkpt lat="33.511655" lon="10.0486283"><ele>441.5</ele><time>2026-04-20T08:40:08.981Z</time></trkpt><trkpt lat="33.5116117" lon="10.0486917"><ele>441.0</ele><time>2026-04-20T08:40:09.981Z</time></trkpt><trkpt lat="33.5115667" lon="10.0487783"><ele>440.49999999999994</ele><time>2026-04-20T08:40:10.981Z</time></trkpt><trkpt lat="33.5115167" lon="10.0488617"><ele>440.0</ele><time>2026-04-20T08:40:11.981Z</time></trkpt><trkpt lat="33.5114783" lon="10.0489467"><ele>440.0</ele><time>2026-04-20T08:40:12.981Z</time></trkpt><trkpt lat="33.5114483" lon="10.04903"><ele>440.0</ele><time>2026-04-20T08:40:13.981Z</time></trkpt><trkpt lat="33.51143" lon="10.04914"><ele>440.0</ele><time>2026-04-20T08:40:14.981Z</time></trkpt><trkpt lat="33.5114117" lon="10.04927"><ele>440.0</ele><time>2026-04-20T08:40:15.981Z</time></trkpt><trkpt lat="33.51137" lon="10.0493967"><ele>440.0</ele><time>2026-04-20T08:40:16.981Z</time></trkpt><trkpt lat="33.5113033" lon="10.049515"><ele>440.0</ele><time>2026-04-20T08:40:17.981Z</time></trkpt><trkpt lat="33.511235" lon="10.0496183"><ele>440.0</ele><time>2026-04-20T08:40:18.981Z</time></trkpt><trkpt lat="33.5111833" lon="10.0497083"><ele>440.0</ele><time>2026-04-20T08:40:19.981Z</time></trkpt><trkpt lat="33.5111217" lon="10.0497867"><ele>440.0</ele><time>2026-04-20T08:40:20.981Z</time></trkpt><trkpt lat="33.5110483" lon="10.04986"><ele>440.0</ele><time>2026-04-20T08:40:21.981Z</time></trkpt><trkpt lat="33.51098" lon="10.0499333"><ele>439.99999999999994</ele><time>2026-04-20T08:40:22.981Z</time></trkpt><trkpt lat="33.5109217" lon="10.0500083"><ele>440.0</ele><time>2026-04-20T08:40:23.981Z</time></trkpt><trkpt lat="33.51087" lon="10.0500733"><ele>440.0</ele><time>2026-04-20T08:40:24.981Z</time></trkpt><trkpt lat="33.51081" lon="10.0501183"><ele>440.0</ele><time>2026-04-20T08:40:25.981Z</time></trkpt><trkpt lat="33.510735" lon="10.05016"><ele>439.99999999999994</ele><time>2026-04-20T08:40:26.981Z</time></trkpt><trkpt lat="33.51065" lon="10.05021"><ele>440.0</ele><time>2026-04-20T08:40:27.981Z</time></trkpt><trkpt lat="33.5105633" lon="10.05027"><ele>440.0</ele><time>2026-04-20T08:40:28.981Z</time></trkpt><trkpt lat="33.510475" lon="10.050335"><ele>440.0</ele><time>2026-04-20T08:40:29.981Z</time></trkpt><trkpt lat="33.5104033" lon="10.0504167"><ele>440.0</ele><time>2026-04-20T08:40:30.981Z</time></trkpt><trkpt lat="33.510345" lon="10.0505117"><ele>440.0</ele><time>2026-04-20T08:40:31.981Z</time></trkpt><trkpt lat="33.5102967" lon="10.05062"><ele>440.0</ele><time>2026-04-20T08:40:32.981Z</time></trkpt><trkpt lat="33.5102633" lon="10.0507433"><ele>439.25</ele><time>2026-04-20T08:40:33.981Z</time></trkpt><trkpt lat="33.5102283" lon="10.0508833"><ele>438.5</ele><time>2026-04-20T08:40:34.981Z</time></trkpt><trkpt lat="33.51019" lon="10.0510283"><ele>437.75</ele><time>2026-04-20T08:40:35.981Z</time></trkpt><trkpt lat="33.510135" lon="10.0511833"><ele>437.0</ele><time>2026-04-20T08:40:36.981Z</time></trkpt><trkpt lat="33.5100883" lon="10.05132"><ele>437.0</ele><time>2026-04-20T08:40:37.981Z</time></trkpt><trkpt lat="33.5100417" lon="10.051425"><ele>437.00000000000006</ele><time>2026-04-20T08:40:38.981Z</time></trkpt><trkpt lat="33.510005" lon="10.0515167"><ele>437.00000000000006</ele><time>2026-04-20T08:40:39.981Z</time></trkpt><trkpt lat="33.50998" lon="10.05162"><ele>437.0</ele><time>2026-04-20T08:40:40.981Z</time></trkpt><trkpt lat="33.5099633" lon="10.0517233"><ele>437.0</ele><time>2026-04-20T08:40:41.981Z</time></trkpt><trkpt lat="33.50995" lon="10.0518317"><ele>437.3333333333333</ele><time>2026-04-20T08:40:42.981Z</time></trkpt><trkpt lat="33.5099367" lon="10.0519183"><ele>437.66666666666663</ele><time>2026-04-20T08:40:43.981Z</time></trkpt><trkpt lat="33.5098817" lon="10.0519817"><ele>438.0</ele><time>2026-04-20T08:40:45.981Z</time></trkpt><trkpt lat="33.5097633" lon="10.0519333"><ele>438.33333333333337</ele><time>2026-04-20T08:40:47.981Z</time></trkpt><trkpt lat="33.5097017" lon="10.0518917"><ele>438.6666666666667</ele><time>2026-04-20T08:40:48.981Z</time></trkpt><trkpt lat="33.50964" lon="10.0518467"><ele>439.0</ele><time>2026-04-20T08:40:49.981Z</time></trkpt><trkpt lat="33.50958" lon="10.0518033"><ele>438.6666666666667</ele><time>2026-04-20T08:40:50.981Z</time></trkpt><trkpt lat="33.5095233" lon="10.0517633"><ele>438.33333333333337</ele><time>2026-04-20T08:40:51.981Z</time></trkpt><trkpt lat="33.5094417" lon="10.0517583"><ele>438.0</ele><time>2026-04-20T08:40:53.981Z</time></trkpt><trkpt lat="33.50942" lon="10.05184"><ele>437.66666666666663</ele><time>2026-04-20T08:40:55.981Z</time></trkpt><trkpt lat="33.5094367" lon="10.05195"><ele>437.3333333333333</ele><time>2026-04-20T08:40:57.981Z</time></trkpt><trkpt lat="33.5094467" lon="10.0520317"><ele>437.0</ele><time>2026-04-20T08:40:58.981Z</time></trkpt><trkpt lat="33.5094567" lon="10.0521317"><ele>437.0</ele><time>2026-04-20T08:40:59.981Z</time></trkpt><trkpt lat="33.50947" lon="10.05224"><ele>437.00000000000006</ele><time>2026-04-20T08:41:00.981Z</time></trkpt><trkpt lat="33.5094767" lon="10.0523633"><ele>437.00000000000006</ele><time>2026-04-20T08:41:01.981Z</time></trkpt><trkpt lat="33.509475" lon="10.0524917"><ele>437.0</ele><time>2026-04-20T08:41:02.981Z</time></trkpt><trkpt lat="33.50945" lon="10.0526267"><ele>437.0</ele><time>2026-04-20T08:41:03.981Z</time></trkpt><trkpt lat="33.50941" lon="10.05274"><ele>438.8</ele><time>2026-04-20T08:41:04.981Z</time></trkpt><trkpt lat="33.5093667" lon="10.0528417"><ele>440.6</ele><time>2026-04-20T08:41:05.981Z</time></trkpt><trkpt lat="33.5093167" lon="10.052945"><ele>442.40000000000003</ele><time>2026-04-20T08:41:06.981Z</time></trkpt><trkpt lat="33.5092633" lon="10.0530567"><ele>444.20000000000005</ele><time>2026-04-20T08:41:07.981Z</time></trkpt><trkpt lat="33.5092017" lon="10.0531883"><ele>446.0</ele><time>2026-04-20T08:41:08.981Z</time></trkpt><trkpt lat="33.5091517" lon="10.0533283"><ele>446.0</ele><time>2026-04-20T08:41:09.981Z</time></trkpt><trkpt lat="33.5091317" lon="10.05347"><ele>446.0</ele><time>2026-04-20T08:41:10.981Z</time></trkpt><trkpt lat="33.509125" lon="10.0535817"><ele>446.0</ele><time>2026-04-20T08:41:11.981Z</time></trkpt><trkpt lat="33.509135" lon="10.0536767"><ele>446.0</ele><time>2026-04-20T08:41:12.981Z</time></trkpt><trkpt lat="33.509165" lon="10.0537883"><ele>446.0</ele><time>2026-04-20T08:41:13.982Z</time></trkpt><trkpt lat="33.5092117" lon="10.053905"><ele>445.99999999999994</ele><time>2026-04-20T08:41:14.981Z</time></trkpt><trkpt lat="33.5092483" lon="10.054005"><ele>446.0</ele><time>2026-04-20T08:41:15.981Z</time></trkpt><trkpt lat="33.50926" lon="10.0541017"><ele>446.0</ele><time>2026-04-20T08:41:16.981Z</time></trkpt><trkpt lat="33.5092583" lon="10.0541867"><ele>446.0</ele><time>2026-04-20T08:41:17.981Z</time></trkpt><trkpt lat="33.5091933" lon="10.054305"><ele>445.99999999999994</ele><time>2026-04-20T08:41:19.981Z</time></trkpt><trkpt lat="33.509135" lon="10.0543417"><ele>446.0</ele><time>2026-04-20T08:41:20.981Z</time></trkpt><trkpt lat="33.5090833" lon="10.054395"><ele>445.49999999999994</ele><time>2026-04-20T08:41:21.981Z</time></trkpt><trkpt lat="33.5090217" lon="10.054515"><ele>445.0</ele><time>2026-04-20T08:41:23.981Z</time></trkpt><trkpt lat="33.5090117" lon="10.0545917"><ele>444.5</ele><time>2026-04-20T08:41:24.981Z</time></trkpt><trkpt lat="33.5090217" lon="10.054685"><ele>444.0</ele><time>2026-04-20T08:41:25.981Z</time></trkpt><trkpt lat="33.50904" lon="10.054785"><ele>443.49999999999994</ele><time>2026-04-20T08:41:26.981Z</time></trkpt><trkpt lat="33.5090717" lon="10.0548867"><ele>443.0</ele><time>2026-04-20T08:41:27.981Z</time></trkpt><trkpt lat="33.5091117" lon="10.0549667"><ele>444.2</ele><time>2026-04-20T08:41:28.981Z</time></trkpt><trkpt lat="33.5091517" lon="10.055045"><ele>445.4</ele><time>2026-04-20T08:41:29.981Z</time></trkpt><trkpt lat="33.509175" lon="10.0551233"><ele>446.59999999999997</ele><time>2026-04-20T08:41:30.981Z</time></trkpt><trkpt lat="33.5091783" lon="10.0552267"><ele>447.79999999999995</ele><time>2026-04-20T08:41:31.981Z</time></trkpt><trkpt lat="33.50917" lon="10.0553567"><ele>449.0</ele><time>2026-04-20T08:41:32.981Z</time></trkpt><trkpt lat="33.5091367" lon="10.0554983"><ele>449.0</ele><time>2026-04-20T08:41:33.981Z</time></trkpt><trkpt lat="33.5090933" lon="10.0556517"><ele>449.0</ele><time>2026-04-20T08:41:34.981Z</time></trkpt><trkpt lat="33.5090433" lon="10.0557683"><ele>449.0</ele><time>2026-04-20T08:41:35.981Z</time></trkpt><trkpt lat="33.5089867" lon="10.0558433"><ele>449.0</ele><time>2026-04-20T08:41:36.981Z</time></trkpt><trkpt lat="33.5089183" lon="10.0559017"><ele>449.0</ele><time>2026-04-20T08:41:37.981Z</time></trkpt><trkpt lat="33.5088433" lon="10.0559783"><ele>449.6</ele><time>2026-04-20T08:41:38.981Z</time></trkpt><trkpt lat="33.5087867" lon="10.0560867"><ele>450.2</ele><time>2026-04-20T08:41:39.981Z</time></trkpt><trkpt lat="33.5087267" lon="10.0562217"><ele>450.80000000000007</ele><time>2026-04-20T08:41:40.981Z</time></trkpt><trkpt lat="33.5086517" lon="10.0563417"><ele>451.40000000000003</ele><time>2026-04-20T08:41:41.981Z</time></trkpt><trkpt lat="33.50861" lon="10.0564333"><ele>452.0</ele><time>2026-04-20T08:41:42.981Z</time></trkpt><trkpt lat="33.5085917" lon="10.0565217"><ele>453.16666666666663</ele><time>2026-04-20T08:41:43.981Z</time></trkpt><trkpt lat="33.508595" lon="10.056625"><ele>454.3333333333333</ele><time>2026-04-20T08:41:44.981Z</time></trkpt><trkpt lat="33.5085917" lon="10.0567217"><ele>455.5</ele><time>2026-04-20T08:41:45.981Z</time></trkpt><trkpt lat="33.50857" lon="10.0568033"><ele>456.66666666666663</ele><time>2026-04-20T08:41:46.981Z</time></trkpt><trkpt lat="33.5085583" lon="10.05688"><ele>457.8333333333333</ele><time>2026-04-20T08:41:47.981Z</time></trkpt><trkpt lat="33.50853" lon="10.0569967"><ele>459.0</ele><time>2026-04-20T08:41:49.981Z</time></trkpt><trkpt lat="33.5084733" lon="10.0571467"><ele>459.0</ele><time>2026-04-20T08:41:51.981Z</time></trkpt><trkpt lat="33.50842" lon="10.0572333"><ele>459.0</ele><time>2026-04-20T08:41:52.981Z</time></trkpt><trkpt lat="33.50834" lon="10.05732"><ele>459.0</ele><time>2026-04-20T08:41:53.981Z</time></trkpt><trkpt lat="33.5082417" lon="10.0574167"><ele>459.0</ele><time>2026-04-20T08:41:54.981Z</time></trkpt><trkpt lat="33.5081417" lon="10.0575217"><ele>457.5</ele><time>2026-04-20T08:41:55.981Z</time></trkpt><trkpt lat="33.50804" lon="10.0576417"><ele>456.0</ele><time>2026-04-20T08:41:56.981Z</time></trkpt><trkpt lat="33.50794" lon="10.0577683"><ele>454.5</ele><time>2026-04-20T08:41:57.981Z</time></trkpt><trkpt lat="33.5078617" lon="10.057895"><ele>453.0</ele><time>2026-04-20T08:41:58.981Z</time></trkpt><trkpt lat="33.5078" lon="10.05801"><ele>452.6666666666667</ele><time>2026-04-20T08:41:59.981Z</time></trkpt><trkpt lat="33.507755" lon="10.0581083"><ele>452.33333333333337</ele><time>2026-04-20T08:42:00.981Z</time></trkpt><trkpt lat="33.507725" lon="10.0581933"><ele>452.0</ele><time>2026-04-20T08:42:01.981Z</time></trkpt><trkpt lat="33.5076767" lon="10.0582983"><ele>451.6666666666667</ele><time>2026-04-20T08:42:03.981Z</time></trkpt><trkpt lat="33.5076167" lon="10.0583383"><ele>451.33333333333337</ele><time>2026-04-20T08:42:05.981Z</time></trkpt><trkpt lat="33.5075483" lon="10.0584167"><ele>451.0</ele><time>2026-04-20T08:42:28.981Z</time></trkpt><trkpt lat="33.507505" lon="10.0584767"><ele>451.0</ele><time>2026-04-20T08:42:29.981Z</time></trkpt><trkpt lat="33.5074517" lon="10.0585533"><ele>451.0</ele><time>2026-04-20T08:42:30.981Z</time></trkpt><trkpt lat="33.507385" lon="10.0586283"><ele>451.0</ele><time>2026-04-20T08:42:31.981Z</time></trkpt><trkpt lat="33.5073033" lon="10.05872"><ele>451.0</ele><time>2026-04-20T08:42:32.981Z</time></trkpt><trkpt lat="33.5072167" lon="10.0588233"><ele>451.0</ele><time>2026-04-20T08:42:33.981Z</time></trkpt><trkpt lat="33.5071317" lon="10.0589417"><ele>451.0</ele><time>2026-04-20T08:42:34.981Z</time></trkpt><trkpt lat="33.5070483" lon="10.059065"><ele>451.0</ele><time>2026-04-20T08:42:35.981Z</time></trkpt><trkpt lat="33.506965" lon="10.0592017"><ele>451.0</ele><time>2026-04-20T08:42:36.981Z</time></trkpt><trkpt lat="33.5068817" lon="10.0593433"><ele>451.0</ele><time>2026-04-20T08:42:37.981Z</time></trkpt><trkpt lat="33.506805" lon="10.0594883"><ele>451.0</ele><time>2026-04-20T08:42:38.981Z</time></trkpt><trkpt lat="33.5067217" lon="10.059615"><ele>451.0</ele><time>2026-04-20T08:42:39.981Z</time></trkpt><trkpt lat="33.5066017" lon="10.0597017"><ele>451.0</ele><time>2026-04-20T08:42:40.981Z</time></trkpt><trkpt lat="33.5064667" lon="10.0597667"><ele>451.0</ele><time>2026-04-20T08:42:41.981Z</time></trkpt><trkpt lat="33.50633" lon="10.0598283"><ele>452.6666666666667</ele><time>2026-04-20T08:42:42.981Z</time></trkpt><trkpt lat="33.5061917" lon="10.0598933"><ele>454.33333333333337</ele><time>2026-04-20T08:42:43.981Z</time></trkpt><trkpt lat="33.5060483" lon="10.05995"><ele>456.0</ele><time>2026-04-20T08:42:44.981Z</time></trkpt><trkpt lat="33.5059033" lon="10.0600083"><ele>457.0</ele><time>2026-04-20T08:42:45.981Z</time></trkpt><trkpt lat="33.5057533" lon="10.0600783"><ele>458.0</ele><time>2026-04-20T08:42:46.981Z</time></trkpt><trkpt lat="33.505605" lon="10.060135"><ele>459.0</ele><time>2026-04-20T08:42:47.981Z</time></trkpt><trkpt lat="33.505445" lon="10.060175"><ele>460.66666666666663</ele><time>2026-04-20T08:42:48.981Z</time></trkpt><trkpt lat="33.5052833" lon="10.060175"><ele>462.3333333333333</ele><time>2026-04-20T08:42:49.981Z</time></trkpt><trkpt lat="33.5051283" lon="10.060155"><ele>464.0</ele><time>2026-04-20T08:42:50.981Z</time></trkpt><trkpt lat="33.5049733" lon="10.06015"><ele>464.0</ele><time>2026-04-20T08:42:51.981Z</time></trkpt><trkpt lat="33.5048067" lon="10.0601433"><ele>464.0</ele><time>2026-04-20T08:42:52.981Z</time></trkpt><trkpt lat="33.50466" lon="10.0601417"><ele>464.0</ele><time>2026-04-20T08:42:53.981Z</time></trkpt><trkpt lat="33.50453" lon="10.060145"><ele>464.0</ele><time>2026-04-20T08:42:54.981Z</time></trkpt><trkpt lat="33.5043983" lon="10.06015"><ele>463.5</ele><time>2026-04-20T08:42:55.981Z</time></trkpt><trkpt lat="33.5042667" lon="10.060165"><ele>463.0</ele><time>2026-04-20T08:42:56.981Z</time></trkpt><trkpt lat="33.504125" lon="10.060185"><ele>462.5</ele><time>2026-04-20T08:42:57.981Z</time></trkpt><trkpt lat="33.5039733" lon="10.0602183"><ele>462.0</ele><time>2026-04-20T08:42:58.982Z</time></trkpt><trkpt lat="33.5038017" lon="10.0602517"><ele>459.0</ele><time>2026-04-20T08:42:59.981Z</time></trkpt><trkpt lat="33.503635" lon="10.0602917"><ele>456.0</ele><time>2026-04-20T08:43:00.981Z</time></trkpt><trkpt lat="33.5034683" lon="10.060325"><ele>453.0</ele><time>2026-04-20T08:43:01.981Z</time></trkpt><trkpt lat="33.5033233" lon="10.0603467"><ele>453.0</ele><time>2026-04-20T08:43:02.981Z</time></trkpt><trkpt lat="33.5032083" lon="10.0603283"><ele>453.0</ele><time>2026-04-20T08:43:03.981Z</time></trkpt><trkpt lat="33.503105" lon="10.0602617"><ele>453.0</ele><time>2026-04-20T08:43:04.981Z</time></trkpt><trkpt lat="33.5030033" lon="10.0601717"><ele>453.0</ele><time>2026-04-20T08:43:05.981Z</time></trkpt><trkpt lat="33.5028983" lon="10.0600583"><ele>451.33333333333337</ele><time>2026-04-20T08:43:06.981Z</time></trkpt><trkpt lat="33.5027967" lon="10.059925"><ele>449.6666666666667</ele><time>2026-04-20T08:43:07.981Z</time></trkpt><trkpt lat="33.50269" lon="10.0597783"><ele>448.0</ele><time>2026-04-20T08:43:08.981Z</time></trkpt><trkpt lat="33.5025717" lon="10.05963"><ele>448.0</ele><time>2026-04-20T08:43:09.981Z</time></trkpt><trkpt lat="33.5024483" lon="10.05947"><ele>448.0</ele><time>2026-04-20T08:43:10.981Z</time></trkpt><trkpt lat="33.50232" lon="10.0593017"><ele>448.0</ele><time>2026-04-20T08:43:11.981Z</time></trkpt><trkpt lat="33.5021967" lon="10.05914"><ele>447.0</ele><time>2026-04-20T08:43:12.981Z</time></trkpt><trkpt lat="33.50206" lon="10.0589883"><ele>446.0</ele><time>2026-04-20T08:43:13.981Z</time></trkpt><trkpt lat="33.5019367" lon="10.05885"><ele>445.0</ele><time>2026-04-20T08:43:14.981Z</time></trkpt><trkpt lat="33.5017983" lon="10.0587483"><ele>445.0</ele><time>2026-04-20T08:43:15.981Z</time></trkpt><trkpt lat="33.5016483" lon="10.058685"><ele>445.0</ele><time>2026-04-20T08:43:16.981Z</time></trkpt><trkpt lat="33.5014817" lon="10.0586583"><ele>445.0</ele><time>2026-04-20T08:43:17.981Z</time></trkpt><trkpt lat="33.501305" lon="10.058655"><ele>445.33333333333337</ele><time>2026-04-20T08:43:18.981Z</time></trkpt><trkpt lat="33.5011183" lon="10.058685"><ele>445.66666666666663</ele><time>2026-04-20T08:43:19.981Z</time></trkpt><trkpt lat="33.5009317" lon="10.058715"><ele>446.0</ele><time>2026-04-20T08:43:20.98Z</time></trkpt><trkpt lat="33.5007417" lon="10.05874"><ele>446.0</ele><time>2026-04-20T08:43:21.98Z</time></trkpt><trkpt lat="33.500545" lon="10.0587767"><ele>446.0</ele><time>2026-04-20T08:43:22.98Z</time></trkpt><trkpt lat="33.5003617" lon="10.0588"><ele>446.0</ele><time>2026-04-20T08:43:23.98Z</time></trkpt><trkpt lat="33.5001717" lon="10.0588217"><ele>448.0</ele><time>2026-04-20T08:43:24.98Z</time></trkpt><trkpt lat="33.49997" lon="10.0588483"><ele>450.0</ele><time>2026-04-20T08:43:25.98Z</time></trkpt><trkpt lat="33.4997733" lon="10.0588767"><ele>452.0</ele><time>2026-04-20T08:43:26.98Z</time></trkpt><trkpt lat="33.49958" lon="10.05891"><ele>454.3333333333333</ele><time>2026-04-20T08:43:27.98Z</time></trkpt><trkpt lat="33.4993883" lon="10.0589383"><ele>456.66666666666663</ele><time>2026-04-20T08:43:28.98Z</time></trkpt><trkpt lat="33.4991983" lon="10.05899"><ele>459.0</ele><time>2026-04-20T08:43:29.98Z</time></trkpt><trkpt lat="33.4990167" lon="10.05906"><ele>457.66666666666663</ele><time>2026-04-20T08:43:30.98Z</time></trkpt><trkpt lat="33.4988283" lon="10.0591383"><ele>456.3333333333333</ele><time>2026-04-20T08:43:31.98Z</time></trkpt><trkpt lat="33.4986367" lon="10.0592317"><ele>455.0</ele><time>2026-04-20T08:43:32.98Z</time></trkpt><trkpt lat="33.498455" lon="10.0593467"><ele>455.0</ele><time>2026-04-20T08:43:33.98Z</time></trkpt><trkpt lat="33.4982717" lon="10.0594683"><ele>455.0</ele><time>2026-04-20T08:43:34.98Z</time></trkpt><trkpt lat="33.4980967" lon="10.0595867"><ele>455.0</ele><time>2026-04-20T08:43:35.98Z</time></trkpt><trkpt lat="33.4979167" lon="10.0597167"><ele>455.0</ele><time>2026-04-20T08:43:36.98Z</time></trkpt><trkpt lat="33.4977333" lon="10.0598383"><ele>455.0</ele><time>2026-04-20T08:43:37.98Z</time></trkpt><trkpt lat="33.4975417" lon="10.059955"><ele>455.0</ele><time>2026-04-20T08:43:38.98Z</time></trkpt><trkpt lat="33.497365" lon="10.0600667"><ele>455.0</ele><time>2026-04-20T08:43:39.98Z</time></trkpt><trkpt lat="33.4971883" lon="10.0601633"><ele>455.0</ele><time>2026-04-20T08:43:40.98Z</time></trkpt><trkpt lat="33.4970367" lon="10.0602617"><ele>455.0</ele><time>2026-04-20T08:43:41.98Z</time></trkpt><trkpt lat="33.496905" lon="10.0603783"><ele>454.66666666666663</ele><time>2026-04-20T08:43:42.98Z</time></trkpt><trkpt lat="33.4967883" lon="10.0605017"><ele>454.33333333333337</ele><time>2026-04-20T08:43:43.98Z</time></trkpt><trkpt lat="33.4966767" lon="10.0606567"><ele>454.0</ele><time>2026-04-20T08:43:44.98Z</time></trkpt><trkpt lat="33.4965617" lon="10.0608167"><ele>454.0</ele><time>2026-04-20T08:43:45.98Z</time></trkpt><trkpt lat="33.4964633" lon="10.06098"><ele>454.0</ele><time>2026-04-20T08:43:46.98Z</time></trkpt><trkpt lat="33.496385" lon="10.06114"><ele>454.0</ele><time>2026-04-20T08:43:47.981Z</time></trkpt><trkpt lat="33.4963433" lon="10.06132"><ele>454.0</ele><time>2026-04-20T08:43:48.98Z</time></trkpt><trkpt lat="33.4963017" lon="10.061505"><ele>454.0</ele><time>2026-04-20T08:43:49.98Z</time></trkpt><trkpt lat="33.496255" lon="10.0616983"><ele>454.0</ele><time>2026-04-20T08:43:50.98Z</time></trkpt><trkpt lat="33.496195" lon="10.0618917"><ele>454.6666666666667</ele><time>2026-04-20T08:43:51.98Z</time></trkpt><trkpt lat="33.4961633" lon="10.062085"><ele>455.33333333333337</ele><time>2026-04-20T08:43:52.98Z</time></trkpt><trkpt lat="33.4961633" lon="10.0622633"><ele>456.0</ele><time>2026-04-20T08:43:53.98Z</time></trkpt><trkpt lat="33.4961633" lon="10.0624383"><ele>456.25</ele><time>2026-04-20T08:43:54.98Z</time></trkpt><trkpt lat="33.4961417" lon="10.0625917"><ele>456.5</ele><time>2026-04-20T08:43:55.98Z</time></trkpt><trkpt lat="33.496085" lon="10.0627017"><ele>456.75</ele><time>2026-04-20T08:43:56.98Z</time></trkpt><trkpt lat="33.496" lon="10.0628133"><ele>457.0</ele><time>2026-04-20T08:43:57.98Z</time></trkpt><trkpt lat="33.495905" lon="10.0628983"><ele>457.0</ele><time>2026-04-20T08:43:58.98Z</time></trkpt><trkpt lat="33.4957983" lon="10.0629633"><ele>457.0</ele><time>2026-04-20T08:43:59.98Z</time></trkpt><trkpt lat="33.4956717" lon="10.0630033"><ele>457.0</ele><time>2026-04-20T08:44:00.98Z</time></trkpt><trkpt lat="33.4955433" lon="10.0630083"><ele>457.0</ele><time>2026-04-20T08:44:01.98Z</time></trkpt><trkpt lat="33.4954033" lon="10.063"><ele>457.5</ele><time>2026-04-20T08:44:02.98Z</time></trkpt><trkpt lat="33.4952583" lon="10.0629667"><ele>458.0</ele><time>2026-04-20T08:44:03.98Z</time></trkpt><trkpt lat="33.495115" lon="10.0629283"><ele>458.5</ele><time>2026-04-20T08:44:04.98Z</time></trkpt><trkpt lat="33.4949683" lon="10.0628867"><ele>459.0</ele><time>2026-04-20T08:44:05.98Z</time></trkpt><trkpt lat="33.4948283" lon="10.062835"><ele>459.0</ele><time>2026-04-20T08:44:06.98Z</time></trkpt><trkpt lat="33.4946933" lon="10.062775"><ele>459.0</ele><time>2026-04-20T08:44:07.98Z</time></trkpt><trkpt lat="33.4945483" lon="10.06273"><ele>459.0</ele><time>2026-04-20T08:44:08.98Z</time></trkpt><trkpt lat="33.494405" lon="10.0627117"><ele>459.0</ele><time>2026-04-20T08:44:09.98Z</time></trkpt><trkpt lat="33.494255" lon="10.0627217"><ele>459.75</ele><time>2026-04-20T08:44:10.98Z</time></trkpt><trkpt lat="33.49413" lon="10.0627817"><ele>460.5</ele><time>2026-04-20T08:44:11.98Z</time></trkpt><trkpt lat="33.4939983" lon="10.0628517"><ele>461.25</ele><time>2026-04-20T08:44:12.98Z</time></trkpt><trkpt lat="33.4938583" lon="10.062915"><ele>462.0</ele><time>2026-04-20T08:44:13.98Z</time></trkpt><trkpt lat="33.4937167" lon="10.06298"><ele>459.66666666666663</ele><time>2026-04-20T08:44:14.98Z</time></trkpt><trkpt lat="33.4935717" lon="10.0630467"><ele>457.3333333333333</ele><time>2026-04-20T08:44:15.981Z</time></trkpt><trkpt lat="33.4934333" lon="10.06312"><ele>455.0</ele><time>2026-04-20T08:44:16.98Z</time></trkpt><trkpt lat="33.4933017" lon="10.0631933"><ele>455.0</ele><time>2026-04-20T08:44:17.98Z</time></trkpt><trkpt lat="33.4931617" lon="10.06326"><ele>455.0</ele><time>2026-04-20T08:44:18.98Z</time></trkpt><trkpt lat="33.493025" lon="10.063325"><ele>455.0</ele><time>2026-04-20T08:44:19.98Z</time></trkpt><trkpt lat="33.492895" lon="10.0633933"><ele>455.0</ele><time>2026-04-20T08:44:20.98Z</time></trkpt><trkpt lat="33.4927633" lon="10.0634683"><ele>454.75</ele><time>2026-04-20T08:44:21.98Z</time></trkpt><trkpt lat="33.492625" lon="10.063525"><ele>454.5</ele><time>2026-04-20T08:44:22.98Z</time></trkpt><trkpt lat="33.4924867" lon="10.0635733"><ele>454.25</ele><time>2026-04-20T08:44:23.98Z</time></trkpt><trkpt lat="33.4923383" lon="10.06362"><ele>454.0</ele><time>2026-04-20T08:44:24.98Z</time></trkpt><trkpt lat="33.492195" lon="10.0636483"><ele>455.0</ele><time>2026-04-20T08:44:25.98Z</time></trkpt><trkpt lat="33.49205" lon="10.0636483"><ele>456.0</ele><time>2026-04-20T08:44:26.98Z</time></trkpt><trkpt lat="33.4919" lon="10.0636217"><ele>457.0</ele><time>2026-04-20T08:44:27.98Z</time></trkpt><trkpt lat="33.49176" lon="10.0635867"><ele>458.0</ele><time>2026-04-20T08:44:28.98Z</time></trkpt><trkpt lat="33.4916317" lon="10.06353"><ele>458.0</ele><time>2026-04-20T08:44:29.98Z</time></trkpt><trkpt lat="33.4914917" lon="10.0634683"><ele>458.0</ele><time>2026-04-20T08:44:30.98Z</time></trkpt><trkpt lat="33.49135" lon="10.0634083"><ele>458.0</ele><time>2026-04-20T08:44:31.98Z</time></trkpt><trkpt lat="33.49123" lon="10.0633367"><ele>458.0</ele><time>2026-04-20T08:44:32.98Z</time></trkpt><trkpt lat="33.4910917" lon="10.0633083"><ele>458.75</ele><time>2026-04-20T08:44:33.98Z</time></trkpt><trkpt lat="33.4909717" lon="10.0633117"><ele>459.5</ele><time>2026-04-20T08:44:34.98Z</time></trkpt><trkpt lat="33.490865" lon="10.0633683"><ele>460.25</ele><time>2026-04-20T08:44:35.98Z</time></trkpt><trkpt lat="33.490775" lon="10.063465"><ele>461.0</ele><time>2026-04-20T08:44:36.98Z</time></trkpt><trkpt lat="33.4907083" lon="10.06358"><ele>461.0</ele><time>2026-04-20T08:44:37.98Z</time></trkpt><trkpt lat="33.4906533" lon="10.0637117"><ele>461.0</ele><time>2026-04-20T08:44:38.98Z</time></trkpt><trkpt lat="33.4906" lon="10.063855"><ele>461.0</ele><time>2026-04-20T08:44:39.98Z</time></trkpt><trkpt lat="33.4905617" lon="10.0640117"><ele>461.0</ele><time>2026-04-20T08:44:40.98Z</time></trkpt><trkpt lat="33.4905583" lon="10.064175"><ele>460.25</ele><time>2026-04-20T08:44:41.98Z</time></trkpt><trkpt lat="33.4905517" lon="10.0643433"><ele>459.5</ele><time>2026-04-20T08:44:42.98Z</time></trkpt><trkpt lat="33.4905333" lon="10.0645183"><ele>458.75</ele><time>2026-04-20T08:44:43.98Z</time></trkpt><trkpt lat="33.4904883" lon="10.064685"><ele>458.0</ele><time>2026-04-20T08:44:44.98Z</time></trkpt><trkpt lat="33.4904283" lon="10.0648633"><ele>460.66666666666663</ele><time>2026-04-20T08:44:45.98Z</time></trkpt><trkpt lat="33.4903467" lon="10.0650183"><ele>463.33333333333337</ele><time>2026-04-20T08:44:46.98Z</time></trkpt><trkpt lat="33.4902583" lon="10.06518"><ele>466.0</ele><time>2026-04-20T08:44:47.98Z</time></trkpt><trkpt lat="33.49017" lon="10.06533"><ele>466.0</ele><time>2026-04-20T08:44:48.98Z</time></trkpt><trkpt lat="33.4900617" lon="10.0654583"><ele>466.0</ele><time>2026-04-20T08:44:49.98Z</time></trkpt><trkpt lat="33.4899333" lon="10.065565"><ele>466.0</ele><time>2026-04-20T08:44:50.98Z</time></trkpt><trkpt lat="33.4897917" lon="10.065665"><ele>466.0</ele><time>2026-04-20T08:44:51.98Z</time></trkpt><trkpt lat="33.4896417" lon="10.0657733"><ele>466.0</ele><time>2026-04-20T08:44:52.98Z</time></trkpt><trkpt lat="33.489515" lon="10.0658867"><ele>466.0</ele><time>2026-04-20T08:44:53.98Z</time></trkpt><trkpt lat="33.48941" lon="10.0660317"><ele>466.6666666666667</ele><time>2026-04-20T08:44:54.98Z</time></trkpt><trkpt lat="33.48932" lon="10.0662017"><ele>467.33333333333337</ele><time>2026-04-20T08:44:55.98Z</time></trkpt><trkpt lat="33.4892417" lon="10.066385"><ele>468.0</ele><time>2026-04-20T08:44:56.98Z</time></trkpt><trkpt lat="33.48917" lon="10.066575"><ele>468.66666666666663</ele><time>2026-04-20T08:44:57.98Z</time></trkpt><trkpt lat="33.4891033" lon="10.0667733"><ele>469.3333333333333</ele><time>2026-04-20T08:44:58.98Z</time></trkpt><trkpt lat="33.489035" lon="10.0669733"><ele>470.0</ele><time>2026-04-20T08:44:59.98Z</time></trkpt><trkpt lat="33.4889717" lon="10.06719"><ele>470.0</ele><time>2026-04-20T08:45:00.98Z</time></trkpt><trkpt lat="33.488915" lon="10.0673967"><ele>470.0</ele><time>2026-04-20T08:45:01.98Z</time></trkpt><trkpt lat="33.488865" lon="10.06761"><ele>470.0</ele><time>2026-04-20T08:45:02.98Z</time></trkpt><trkpt lat="33.4888417" lon="10.06784"><ele>471.0</ele><time>2026-04-20T08:45:03.98Z</time></trkpt><trkpt lat="33.4888333" lon="10.0680517"><ele>472.0</ele><time>2026-04-20T08:45:04.98Z</time></trkpt><trkpt lat="33.4888367" lon="10.0682867"><ele>473.0</ele><time>2026-04-20T08:45:05.98Z</time></trkpt><trkpt lat="33.488825" lon="10.068515"><ele>473.5</ele><time>2026-04-20T08:45:06.98Z</time></trkpt><trkpt lat="33.4888033" lon="10.068715"><ele>474.0</ele><time>2026-04-20T08:45:07.98Z</time></trkpt><trkpt lat="33.4887567" lon="10.0688867"><ele>474.5</ele><time>2026-04-20T08:45:08.98Z</time></trkpt><trkpt lat="33.488695" lon="10.0690217"><ele>475.0</ele><time>2026-04-20T08:45:09.98Z</time></trkpt><trkpt lat="33.4886417" lon="10.0691367"><ele>475.8</ele><time>2026-04-20T08:45:10.98Z</time></trkpt><trkpt lat="33.488595" lon="10.06925"><ele>476.6</ele><time>2026-04-20T08:45:11.98Z</time></trkpt><trkpt lat="33.4885467" lon="10.06936"><ele>477.4</ele><time>2026-04-20T08:45:12.98Z</time></trkpt><trkpt lat="33.488495" lon="10.0694733"><ele>478.2</ele><time>2026-04-20T08:45:13.98Z</time></trkpt><trkpt lat="33.48844" lon="10.0695933"><ele>479.0</ele><time>2026-04-20T08:45:14.98Z</time></trkpt><trkpt lat="33.488385" lon="10.0697183"><ele>479.0</ele><time>2026-04-20T08:45:15.98Z</time></trkpt><trkpt lat="33.488325" lon="10.06984"><ele>479.0</ele><time>2026-04-20T08:45:16.98Z</time></trkpt><trkpt lat="33.4882667" lon="10.0699683"><ele>479.0</ele><time>2026-04-20T08:45:17.98Z</time></trkpt><trkpt lat="33.4881933" lon="10.070095"><ele>479.0</ele><time>2026-04-20T08:45:18.98Z</time></trkpt><trkpt lat="33.4880983" lon="10.0701967"><ele>479.0</ele><time>2026-04-20T08:45:19.98Z</time></trkpt><trkpt lat="33.4879833" lon="10.0702783"><ele>479.0</ele><time>2026-04-20T08:45:20.98Z</time></trkpt><trkpt lat="33.48785" lon="10.07033"><ele>479.0</ele><time>2026-04-20T08:45:21.98Z</time></trkpt><trkpt lat="33.4877133" lon="10.0703783"><ele>479.0</ele><time>2026-04-20T08:45:22.98Z</time></trkpt><trkpt lat="33.487565" lon="10.0704117"><ele>477.66666666666663</ele><time>2026-04-20T08:45:23.98Z</time></trkpt><trkpt lat="33.4874167" lon="10.0704467"><ele>476.33333333333337</ele><time>2026-04-20T08:45:24.981Z</time></trkpt><trkpt lat="33.4872617" lon="10.0704983"><ele>475.0</ele><time>2026-04-20T08:45:25.98Z</time></trkpt><trkpt lat="33.4871067" lon="10.0705517"><ele>475.33333333333337</ele><time>2026-04-20T08:45:26.98Z</time></trkpt><trkpt lat="33.4869483" lon="10.0706133"><ele>475.66666666666663</ele><time>2026-04-20T08:45:27.98Z</time></trkpt><trkpt lat="33.4867967" lon="10.0706783"><ele>476.0</ele><time>2026-04-20T08:45:28.98Z</time></trkpt><trkpt lat="33.4866583" lon="10.0707467"><ele>476.5</ele><time>2026-04-20T08:45:29.98Z</time></trkpt><trkpt lat="33.4865233" lon="10.0708167"><ele>477.0</ele><time>2026-04-20T08:45:30.98Z</time></trkpt><trkpt lat="33.4864083" lon="10.070885"><ele>477.5</ele><time>2026-04-20T08:45:31.98Z</time></trkpt><trkpt lat="33.486315" lon="10.0709583"><ele>478.0</ele><time>2026-04-20T08:45:32.98Z</time></trkpt><trkpt lat="33.4862467" lon="10.0710333"><ele>478.6666666666667</ele><time>2026-04-20T08:45:33.98Z</time></trkpt><trkpt lat="33.4861983" lon="10.0710883"><ele>479.33333333333337</ele><time>2026-04-20T08:45:34.98Z</time></trkpt><trkpt lat="33.4861533" lon="10.0711417"><ele>480.0</ele><time>2026-04-20T08:45:36.98Z</time></trkpt><trkpt lat="33.48615" lon="10.0712333"><ele>480.66666666666663</ele><time>2026-04-20T08:45:47.98Z</time></trkpt><trkpt lat="33.486095" lon="10.071315"><ele>481.3333333333333</ele><time>2026-04-20T08:45:49.98Z</time></trkpt><trkpt lat="33.486035" lon="10.0713467"><ele>482.0</ele><time>2026-04-20T08:45:52.98Z</time></trkpt><trkpt lat="33.48595" lon="10.0714033"><ele>482.0</ele><time>2026-04-20T08:45:55.98Z</time></trkpt><trkpt lat="33.4858617" lon="10.0714467"><ele>482.00000000000006</ele><time>2026-04-20T08:45:57.98Z</time></trkpt><trkpt lat="33.4857867" lon="10.0714833"><ele>482.00000000000006</ele><time>2026-04-20T08:45:59.98Z</time></trkpt><trkpt lat="33.4856867" lon="10.0715183"><ele>482.0</ele><time>2026-04-20T08:46:01.98Z</time></trkpt><trkpt lat="33.4855867" lon="10.07158"><ele>482.0</ele><time>2026-04-20T08:46:03.98Z</time></trkpt><trkpt lat="33.4854967" lon="10.0716417"><ele>480.6</ele><time>2026-04-20T08:46:05.98Z</time></trkpt><trkpt lat="33.4853983" lon="10.0717033"><ele>479.20000000000005</ele><time>2026-04-20T08:46:07.98Z</time></trkpt><trkpt lat="33.4853417" lon="10.0717383"><ele>477.8</ele><time>2026-04-20T08:46:08.98Z</time></trkpt><trkpt lat="33.4852467" lon="10.0718067"><ele>476.4</ele><time>2026-04-20T08:46:10.98Z</time></trkpt><trkpt lat="33.4851583" lon="10.07191"><ele>475.0</ele><time>2026-04-20T08:46:12.98Z</time></trkpt><trkpt lat="33.4850817" lon="10.072"><ele>475.00000000000006</ele><time>2026-04-20T08:46:14.98Z</time></trkpt><trkpt lat="33.4849983" lon="10.0721033"><ele>475.0</ele><time>2026-04-20T08:46:16.98Z</time></trkpt><trkpt lat="33.4849567" lon="10.0721667"><ele>475.0</ele><time>2026-04-20T08:46:17.98Z</time></trkpt><trkpt lat="33.484915" lon="10.0722367"><ele>475.0</ele><time>2026-04-20T08:46:18.98Z</time></trkpt><trkpt lat="33.4848733" lon="10.07231"><ele>475.00000000000006</ele><time>2026-04-20T08:46:19.98Z</time></trkpt><trkpt lat="33.484825" lon="10.072375"><ele>475.0</ele><time>2026-04-20T08:46:20.98Z</time></trkpt><trkpt lat="33.4847667" lon="10.072445"><ele>474.83333333333337</ele><time>2026-04-20T08:46:21.98Z</time></trkpt><trkpt lat="33.48471" lon="10.0725067"><ele>474.6666666666667</ele><time>2026-04-20T08:46:22.98Z</time></trkpt><trkpt lat="33.4846567" lon="10.07257"><ele>474.5</ele><time>2026-04-20T08:46:23.98Z</time></trkpt><trkpt lat="33.4845567" lon="10.07267"><ele>474.33333333333337</ele><time>2026-04-20T08:46:25.98Z</time></trkpt><trkpt lat="33.4845067" lon="10.07273"><ele>474.1666666666667</ele><time>2026-04-20T08:46:26.98Z</time></trkpt><trkpt lat="33.4844583" lon="10.0728033"><ele>474.0</ele><time>2026-04-20T08:46:27.98Z</time></trkpt><trkpt lat="33.4844117" lon="10.0728867"><ele>473.5714285714285</ele><time>2026-04-20T08:46:28.98Z</time></trkpt><trkpt lat="33.4843767" lon="10.072965"><ele>473.1428571428571</ele><time>2026-04-20T08:46:29.98Z</time></trkpt><trkpt lat="33.4843483" lon="10.0730367"><ele>472.7142857142857</ele><time>2026-04-20T08:46:30.98Z</time></trkpt><trkpt lat="33.4843233" lon="10.0731117"><ele>472.2857142857143</ele><time>2026-04-20T08:46:31.98Z</time></trkpt><trkpt lat="33.484295" lon="10.073185"><ele>471.8571428571429</ele><time>2026-04-20T08:46:32.98Z</time></trkpt><trkpt lat="33.4842717" lon="10.073275"><ele>471.4285714285715</ele><time>2026-04-20T08:46:34.98Z</time></trkpt><trkpt lat="33.4842583" lon="10.073355"><ele>471.00000000000006</ele><time>2026-04-20T08:46:38.98Z</time></trkpt><trkpt lat="33.4842183" lon="10.073415"><ele>471.1666666666667</ele><time>2026-04-20T08:46:41.98Z</time></trkpt><trkpt lat="33.4841317" lon="10.073385"><ele>471.33333333333337</ele><time>2026-04-20T08:46:45.98Z</time></trkpt><trkpt lat="33.4840317" lon="10.0733767"><ele>471.5</ele><time>2026-04-20T08:46:47.98Z</time></trkpt><trkpt lat="33.4839267" lon="10.0734183"><ele>471.6666666666667</ele><time>2026-04-20T08:46:49.98Z</time></trkpt><trkpt lat="33.4838667" lon="10.0734467"><ele>471.83333333333337</ele><time>2026-04-20T08:46:50.98Z</time></trkpt><trkpt lat="33.4838083" lon="10.073475"><ele>472.0</ele><time>2026-04-20T08:46:51.98Z</time></trkpt><trkpt lat="33.4837483" lon="10.0735133"><ele>472.00000000000006</ele><time>2026-04-20T08:46:52.98Z</time></trkpt><trkpt lat="33.48369" lon="10.0735683"><ele>472.0</ele><time>2026-04-20T08:46:53.979Z</time></trkpt><trkpt lat="33.4836117" lon="10.0736767"><ele>472.0</ele><time>2026-04-20T08:46:55.979Z</time></trkpt><trkpt lat="33.4835667" lon="10.0737417"><ele>472.0</ele><time>2026-04-20T08:46:56.979Z</time></trkpt><trkpt lat="33.48352" lon="10.0738067"><ele>472.00000000000006</ele><time>2026-04-20T08:46:57.979Z</time></trkpt><trkpt lat="33.48348" lon="10.0738817"><ele>472.0</ele><time>2026-04-20T08:46:58.979Z</time></trkpt><trkpt lat="33.483445" lon="10.0739567"><ele>472.0</ele><time>2026-04-20T08:46:59.979Z</time></trkpt><trkpt lat="33.48341" lon="10.074025"><ele>472.00000000000006</ele><time>2026-04-20T08:47:00.979Z</time></trkpt><trkpt lat="33.48335" lon="10.074145"><ele>472.00000000000006</ele><time>2026-04-20T08:47:02.979Z</time></trkpt><trkpt lat="33.4833267" lon="10.0742483"><ele>472.0</ele><time>2026-04-20T08:47:04.979Z</time></trkpt><trkpt lat="33.4832817" lon="10.0743617"><ele>472.0</ele><time>2026-04-20T08:47:06.979Z</time></trkpt><trkpt lat="33.4832017" lon="10.0744783"><ele>472.6666666666667</ele><time>2026-04-20T08:47:08.979Z</time></trkpt><trkpt lat="33.4831483" lon="10.0745367"><ele>473.33333333333337</ele><time>2026-04-20T08:47:09.979Z</time></trkpt><trkpt lat="33.4830883" lon="10.07459"><ele>474.0</ele><time>2026-04-20T08:47:10.979Z</time></trkpt><trkpt lat="33.4830283" lon="10.0746417"><ele>474.66666666666663</ele><time>2026-04-20T08:47:11.979Z</time></trkpt><trkpt lat="33.4829633" lon="10.0747"><ele>475.3333333333333</ele><time>2026-04-20T08:47:12.979Z</time></trkpt><trkpt lat="33.482905" lon="10.0747617"><ele>476.0</ele><time>2026-04-20T08:47:13.979Z</time></trkpt><trkpt lat="33.48285" lon="10.07483"><ele>476.0</ele><time>2026-04-20T08:47:14.979Z</time></trkpt><trkpt lat="33.4828083" lon="10.0748933"><ele>476.0</ele><time>2026-04-20T08:47:15.979Z</time></trkpt><trkpt lat="33.4827617" lon="10.0749583"><ele>476.0</ele><time>2026-04-20T08:47:16.979Z</time></trkpt><trkpt lat="33.4827233" lon="10.07502"><ele>476.0</ele><time>2026-04-20T08:47:17.979Z</time></trkpt><trkpt lat="33.482685" lon="10.0750883"><ele>476.0</ele><time>2026-04-20T08:47:18.979Z</time></trkpt><trkpt lat="33.4826433" lon="10.0751567"><ele>476.0</ele><time>2026-04-20T08:47:19.979Z</time></trkpt><trkpt lat="33.482605" lon="10.0752333"><ele>476.0</ele><time>2026-04-20T08:47:20.979Z</time></trkpt><trkpt lat="33.48255" lon="10.075305"><ele>473.20000000000005</ele><time>2026-04-20T08:47:21.979Z</time></trkpt><trkpt lat="33.4824967" lon="10.075375"><ele>470.40000000000003</ele><time>2026-04-20T08:47:22.979Z</time></trkpt><trkpt lat="33.4824333" lon="10.07545"><ele>467.6</ele><time>2026-04-20T08:47:23.979Z</time></trkpt><trkpt lat="33.4823667" lon="10.07552"><ele>464.8</ele><time>2026-04-20T08:47:24.979Z</time></trkpt><trkpt lat="33.4822933" lon="10.0756117"><ele>462.0</ele><time>2026-04-20T08:47:25.979Z</time></trkpt><trkpt lat="33.4822267" lon="10.0757"><ele>461.5</ele><time>2026-04-20T08:47:26.979Z</time></trkpt><trkpt lat="33.4821617" lon="10.07578"><ele>461.0</ele><time>2026-04-20T08:47:27.979Z</time></trkpt><trkpt lat="33.4821117" lon="10.0758583"><ele>460.5</ele><time>2026-04-20T08:47:28.979Z</time></trkpt><trkpt lat="33.4820733" lon="10.0759217"><ele>460.0</ele><time>2026-04-20T08:47:29.979Z</time></trkpt><trkpt lat="33.482045" lon="10.0760133"><ele>459.5</ele><time>2026-04-20T08:47:31.979Z</time></trkpt><trkpt lat="33.4821" lon="10.0760767"><ele>459.0</ele><time>2026-04-20T08:47:37.979Z</time></trkpt><trkpt lat="33.4821467" lon="10.076135"><ele>458.4</ele><time>2026-04-20T08:47:39.979Z</time></trkpt><trkpt lat="33.4821833" lon="10.0761983"><ele>457.79999999999995</ele><time>2026-04-20T08:47:41.979Z</time></trkpt><trkpt lat="33.4822067" lon="10.0763117"><ele>457.20000000000005</ele><time>2026-04-20T08:47:44.979Z</time></trkpt><trkpt lat="33.4821917" lon="10.07645"><ele>456.6</ele><time>2026-04-20T08:47:46.979Z</time></trkpt><trkpt lat="33.4821733" lon="10.0765433"><ele>456.0</ele><time>2026-04-20T08:47:47.979Z</time></trkpt><trkpt lat="33.4821433" lon="10.0766533"><ele>455.4</ele><time>2026-04-20T08:47:48.979Z</time></trkpt><trkpt lat="33.4821067" lon="10.0767667"><ele>454.8</ele><time>2026-04-20T08:47:49.979Z</time></trkpt><trkpt lat="33.4820867" lon="10.0768767"><ele>454.19999999999993</ele><time>2026-04-20T08:47:50.979Z</time></trkpt><trkpt lat="33.482075" lon="10.076995"><ele>453.59999999999997</ele><time>2026-04-20T08:47:51.979Z</time></trkpt><trkpt lat="33.48208" lon="10.07711"><ele>453.0</ele><time>2026-04-20T08:47:52.979Z</time></trkpt><trkpt lat="33.482105" lon="10.0772267"><ele>453.0</ele><time>2026-04-20T08:47:53.979Z</time></trkpt><trkpt lat="33.482155" lon="10.07734"><ele>452.99999999999994</ele><time>2026-04-20T08:47:54.979Z</time></trkpt><trkpt lat="33.4821967" lon="10.0774467"><ele>452.99999999999994</ele><time>2026-04-20T08:47:55.979Z</time></trkpt><trkpt lat="33.48226" lon="10.0775517"><ele>453.0</ele><time>2026-04-20T08:47:56.979Z</time></trkpt><trkpt lat="33.4823283" lon="10.0776583"><ele>453.0</ele><time>2026-04-20T08:47:57.979Z</time></trkpt><trkpt lat="33.4824" lon="10.077765"><ele>453.59999999999997</ele><time>2026-04-20T08:47:58.979Z</time></trkpt><trkpt lat="33.4824867" lon="10.077855"><ele>454.19999999999993</ele><time>2026-04-20T08:47:59.979Z</time></trkpt><trkpt lat="33.482575" lon="10.077935"><ele>454.8</ele><time>2026-04-20T08:48:00.979Z</time></trkpt><trkpt lat="33.4826633" lon="10.0780133"><ele>455.4</ele><time>2026-04-20T08:48:01.979Z</time></trkpt><trkpt lat="33.4827367" lon="10.0780867"><ele>456.0</ele><time>2026-04-20T08:48:02.979Z</time></trkpt><trkpt lat="33.482795" lon="10.0781633"><ele>457.0</ele><time>2026-04-20T08:48:03.979Z</time></trkpt><trkpt lat="33.4828383" lon="10.0782683"><ele>458.0</ele><time>2026-04-20T08:48:04.979Z</time></trkpt><trkpt lat="33.4828583" lon="10.0783933"><ele>459.0</ele><time>2026-04-20T08:48:05.979Z</time></trkpt><trkpt lat="33.482885" lon="10.078535"><ele>460.0</ele><time>2026-04-20T08:48:06.979Z</time></trkpt><trkpt lat="33.4829133" lon="10.0786867"><ele>460.0</ele><time>2026-04-20T08:48:07.979Z</time></trkpt><trkpt lat="33.482925" lon="10.0788367"><ele>460.0</ele><time>2026-04-20T08:48:08.979Z</time></trkpt><trkpt lat="33.4829267" lon="10.0789833"><ele>460.0</ele><time>2026-04-20T08:48:09.979Z</time></trkpt><trkpt lat="33.4829017" lon="10.079145"><ele>460.0</ele><time>2026-04-20T08:48:10.979Z</time></trkpt><trkpt lat="33.48287" lon="10.0792983"><ele>462.0</ele><time>2026-04-20T08:48:11.979Z</time></trkpt><trkpt lat="33.482845" lon="10.0794433"><ele>464.0</ele><time>2026-04-20T08:48:12.979Z</time></trkpt><trkpt lat="33.4828017" lon="10.079555"><ele>466.0</ele><time>2026-04-20T08:48:13.979Z</time></trkpt><trkpt lat="33.4827517" lon="10.0796517"><ele>468.0</ele><time>2026-04-20T08:48:14.979Z</time></trkpt><trkpt lat="33.4826883" lon="10.0797233"><ele>470.0</ele><time>2026-04-20T08:48:15.979Z</time></trkpt><trkpt lat="33.48262" lon="10.0797917"><ele>469.99999999999994</ele><time>2026-04-20T08:48:16.979Z</time></trkpt><trkpt lat="33.4825633" lon="10.0798733"><ele>470.0</ele><time>2026-04-20T08:48:17.979Z</time></trkpt><trkpt lat="33.4825217" lon="10.0799567"><ele>470.0</ele><time>2026-04-20T08:48:18.979Z</time></trkpt><trkpt lat="33.4824867" lon="10.0800283"><ele>470.0</ele><time>2026-04-20T08:48:19.979Z</time></trkpt><trkpt lat="33.4824617" lon="10.08015"><ele>469.99999999999994</ele><time>2026-04-20T08:48:21.979Z</time></trkpt><trkpt lat="33.4824633" lon="10.0802567"><ele>470.0</ele><time>2026-04-20T08:48:23.979Z</time></trkpt><trkpt lat="33.4824833" lon="10.0804083"><ele>470.99999999999994</ele><time>2026-04-20T08:48:25.979Z</time></trkpt><trkpt lat="33.48249" lon="10.0804967"><ele>472.0</ele><time>2026-04-20T08:48:26.979Z</time></trkpt><trkpt lat="33.482495" lon="10.0805983"><ele>473.0</ele><time>2026-04-20T08:48:27.979Z</time></trkpt><trkpt lat="33.4825" lon="10.0806867"><ele>474.0</ele><time>2026-04-20T08:48:28.979Z</time></trkpt><trkpt lat="33.4824983" lon="10.0807633"><ele>474.99999999999994</ele><time>2026-04-20T08:48:29.979Z</time></trkpt><trkpt lat="33.4825" lon="10.0808883"><ele>476.0</ele><time>2026-04-20T08:48:31.979Z</time></trkpt><trkpt lat="33.4824967" lon="10.0809667"><ele>476.66666666666663</ele><time>2026-04-20T08:48:34.979Z</time></trkpt><trkpt lat="33.4824667" lon="10.08109"><ele>477.3333333333333</ele><time>2026-04-20T08:48:38.979Z</time></trkpt><trkpt lat="33.482435" lon="10.0811617"><ele>478.0</ele><time>2026-04-20T08:48:39.979Z</time></trkpt><trkpt lat="33.4823783" lon="10.081235"><ele>478.66666666666663</ele><time>2026-04-20T08:48:40.979Z</time></trkpt><trkpt lat="33.4823167" lon="10.08131"><ele>479.3333333333333</ele><time>2026-04-20T08:48:41.979Z</time></trkpt><trkpt lat="33.4822333" lon="10.0813783"><ele>480.0</ele><time>2026-04-20T08:48:42.979Z</time></trkpt><trkpt lat="33.482145" lon="10.0814517"><ele>479.5</ele><time>2026-04-20T08:48:43.979Z</time></trkpt><trkpt lat="33.4820483" lon="10.0815267"><ele>479.0</ele><time>2026-04-20T08:48:44.979Z</time></trkpt><trkpt lat="33.4819467" lon="10.081595"><ele>478.5</ele><time>2026-04-20T08:48:45.979Z</time></trkpt><trkpt lat="33.4818483" lon="10.08167"><ele>478.0</ele><time>2026-04-20T08:48:46.979Z</time></trkpt><trkpt lat="33.48174" lon="10.08174"><ele>479.5</ele><time>2026-04-20T08:48:47.979Z</time></trkpt><trkpt lat="33.4816383" lon="10.0818033"><ele>481.0</ele><time>2026-04-20T08:48:48.979Z</time></trkpt><trkpt lat="33.4815317" lon="10.081845"><ele>482.5</ele><time>2026-04-20T08:48:49.979Z</time></trkpt><trkpt lat="33.4814333" lon="10.0818917"><ele>484.0</ele><time>2026-04-20T08:48:50.979Z</time></trkpt><trkpt lat="33.4813133" lon="10.0819367"><ele>485.0</ele><time>2026-04-20T08:48:51.979Z</time></trkpt><trkpt lat="33.4812033" lon="10.081985"><ele>486.0</ele><time>2026-04-20T08:48:52.979Z</time></trkpt><trkpt lat="33.4811033" lon="10.082055"><ele>487.0</ele><time>2026-04-20T08:48:53.979Z</time></trkpt><trkpt lat="33.4810283" lon="10.0821483"><ele>488.0</ele><time>2026-04-20T08:48:54.979Z</time></trkpt><trkpt lat="33.4809633" lon="10.0822467"><ele>489.0</ele><time>2026-04-20T08:48:55.979Z</time></trkpt><trkpt lat="33.4808967" lon="10.0823517"><ele>489.0</ele><time>2026-04-20T08:48:56.979Z</time></trkpt><trkpt lat="33.480825" lon="10.0824433"><ele>489.0</ele><time>2026-04-20T08:48:57.979Z</time></trkpt><trkpt lat="33.4807367" lon="10.0825167"><ele>489.0</ele><time>2026-04-20T08:48:58.979Z</time></trkpt><trkpt lat="33.480625" lon="10.08257"><ele>489.0</ele><time>2026-04-20T08:48:59.979Z</time></trkpt><trkpt lat="33.48051" lon="10.082615"><ele>489.5</ele><time>2026-04-20T08:49:00.979Z</time></trkpt><trkpt lat="33.4803883" lon="10.0826433"><ele>490.0</ele><time>2026-04-20T08:49:01.979Z</time></trkpt><trkpt lat="33.4802617" lon="10.0826783"><ele>490.5</ele><time>2026-04-20T08:49:02.979Z</time></trkpt><trkpt lat="33.4801383" lon="10.08272"><ele>491.0</ele><time>2026-04-20T08:49:03.979Z</time></trkpt><trkpt lat="33.480015" lon="10.0827783"><ele>491.0</ele><time>2026-04-20T08:49:04.979Z</time></trkpt><trkpt lat="33.479905" lon="10.0828367"><ele>491.0</ele><time>2026-04-20T08:49:05.979Z</time></trkpt><trkpt lat="33.479805" lon="10.0829217"><ele>491.0</ele><time>2026-04-20T08:49:06.979Z</time></trkpt><trkpt lat="33.47973" lon="10.0830167"><ele>491.0</ele><time>2026-04-20T08:49:07.979Z</time></trkpt><trkpt lat="33.47969" lon="10.0831233"><ele>491.0</ele><time>2026-04-20T08:49:08.979Z</time></trkpt><trkpt lat="33.4796567" lon="10.0832483"><ele>491.25</ele><time>2026-04-20T08:49:09.979Z</time></trkpt><trkpt lat="33.47964" lon="10.08339"><ele>491.5</ele><time>2026-04-20T08:49:10.979Z</time></trkpt><trkpt lat="33.4796233" lon="10.0835483"><ele>491.75</ele><time>2026-04-20T08:49:11.979Z</time></trkpt><trkpt lat="33.4796117" lon="10.0837167"><ele>492.0</ele><time>2026-04-20T08:49:12.979Z</time></trkpt><trkpt lat="33.4795933" lon="10.0838883"><ele>492.0</ele><time>2026-04-20T08:49:13.979Z</time></trkpt><trkpt lat="33.4795717" lon="10.08406"><ele>492.0</ele><time>2026-04-20T08:49:14.979Z</time></trkpt><trkpt lat="33.47956" lon="10.0842167"><ele>492.0</ele><time>2026-04-20T08:49:15.979Z</time></trkpt><trkpt lat="33.4795533" lon="10.0843567"><ele>492.0</ele><time>2026-04-20T08:49:16.979Z</time></trkpt><trkpt lat="33.4795483" lon="10.0844933"><ele>491.25</ele><time>2026-04-20T08:49:17.979Z</time></trkpt><trkpt lat="33.479535" lon="10.0846283"><ele>490.5</ele><time>2026-04-20T08:49:18.979Z</time></trkpt><trkpt lat="33.4795017" lon="10.0847667"><ele>489.75</ele><time>2026-04-20T08:49:19.979Z</time></trkpt><trkpt lat="33.4794483" lon="10.084905"><ele>489.0</ele><time>2026-04-20T08:49:20.979Z</time></trkpt><trkpt lat="33.4793883" lon="10.085055"><ele>488.25</ele><time>2026-04-20T08:49:21.979Z</time></trkpt><trkpt lat="33.4793283" lon="10.0852167"><ele>487.5</ele><time>2026-04-20T08:49:22.979Z</time></trkpt><trkpt lat="33.47927" lon="10.0853783"><ele>486.75</ele><time>2026-04-20T08:49:23.979Z</time></trkpt><trkpt lat="33.47922" lon="10.08553"><ele>486.0</ele><time>2026-04-20T08:49:24.979Z</time></trkpt><trkpt lat="33.47917" lon="10.0856817"><ele>485.4</ele><time>2026-04-20T08:49:25.979Z</time></trkpt><trkpt lat="33.479115" lon="10.0858233"><ele>484.8</ele><time>2026-04-20T08:49:26.979Z</time></trkpt><trkpt lat="33.4790767" lon="10.0859617"><ele>484.19999999999993</ele><time>2026-04-20T08:49:27.979Z</time></trkpt><trkpt lat="33.4790467" lon="10.086085"><ele>483.59999999999997</ele><time>2026-04-20T08:49:28.979Z</time></trkpt><trkpt lat="33.479045" lon="10.0861867"><ele>483.0</ele><time>2026-04-20T08:49:29.979Z</time></trkpt><trkpt lat="33.479065" lon="10.086275"><ele>483.0</ele><time>2026-04-20T08:49:30.979Z</time></trkpt><trkpt lat="33.4790833" lon="10.0863567"><ele>482.99999999999994</ele><time>2026-04-20T08:49:31.979Z</time></trkpt><trkpt lat="33.479085" lon="10.08646"><ele>482.99999999999994</ele><time>2026-04-20T08:49:32.979Z</time></trkpt><trkpt lat="33.4790767" lon="10.08658"><ele>483.0</ele><time>2026-04-20T08:49:33.979Z</time></trkpt><trkpt lat="33.4790417" lon="10.0867017"><ele>483.0</ele><time>2026-04-20T08:49:34.979Z</time></trkpt><trkpt lat="33.4789917" lon="10.086805"><ele>482.0</ele><time>2026-04-20T08:49:35.979Z</time></trkpt><trkpt lat="33.478935" lon="10.0869067"><ele>480.99999999999994</ele><time>2026-04-20T08:49:36.979Z</time></trkpt><trkpt lat="33.47888" lon="10.0870033"><ele>479.99999999999994</ele><time>2026-04-20T08:49:37.979Z</time></trkpt><trkpt lat="33.478825" lon="10.0870967"><ele>479.0</ele><time>2026-04-20T08:49:38.979Z</time></trkpt><trkpt lat="33.4787733" lon="10.0871967"><ele>478.0</ele><time>2026-04-20T08:49:39.979Z</time></trkpt><trkpt lat="33.4787333" lon="10.0872917"><ele>478.00000000000006</ele><time>2026-04-20T08:49:40.979Z</time></trkpt><trkpt lat="33.4787117" lon="10.0873667"><ele>478.0</ele><time>2026-04-20T08:49:41.979Z</time></trkpt><trkpt lat="33.4787033" lon="10.087485"><ele>478.0</ele><time>2026-04-20T08:49:43.979Z</time></trkpt><trkpt lat="33.4787517" lon="10.0875917"><ele>478.0</ele><time>2026-04-20T08:49:45.979Z</time></trkpt><trkpt lat="33.4788" lon="10.0876667"><ele>478.00000000000006</ele><time>2026-04-20T08:49:47.979Z</time></trkpt><trkpt lat="33.478765" lon="10.0877317"><ele>478.0</ele><time>2026-04-20T08:49:49.979Z</time></trkpt><trkpt lat="33.4786767" lon="10.0877883"><ele>477.50000000000006</ele><time>2026-04-20T08:49:51.979Z</time></trkpt><trkpt lat="33.4785717" lon="10.087845"><ele>477.0</ele><time>2026-04-20T08:49:53.979Z</time></trkpt><trkpt lat="33.4785183" lon="10.0879567"><ele>476.5</ele><time>2026-04-20T08:49:55.979Z</time></trkpt><trkpt lat="33.4785017" lon="10.0880317"><ele>476.0</ele><time>2026-04-20T08:49:56.979Z</time></trkpt><trkpt lat="33.478495" lon="10.0881133"><ele>475.50000000000006</ele><time>2026-04-20T08:49:57.979Z</time></trkpt><trkpt lat="33.4784983" lon="10.0882"><ele>475.0</ele><time>2026-04-20T08:49:58.979Z</time></trkpt><trkpt lat="33.47851" lon="10.0882883"><ele>474.33333333333337</ele><time>2026-04-20T08:49:59.979Z</time></trkpt><trkpt lat="33.4785233" lon="10.0883817"><ele>473.6666666666667</ele><time>2026-04-20T08:50:00.979Z</time></trkpt><trkpt lat="33.4785317" lon="10.0884733"><ele>473.0</ele><time>2026-04-20T08:50:01.979Z</time></trkpt><trkpt lat="33.4785267" lon="10.0885667"><ele>472.33333333333337</ele><time>2026-04-20T08:50:02.979Z</time></trkpt><trkpt lat="33.478495" lon="10.0886533"><ele>471.6666666666667</ele><time>2026-04-20T08:50:03.979Z</time></trkpt><trkpt lat="33.4784467" lon="10.08873"><ele>471.0</ele><time>2026-04-20T08:50:04.979Z</time></trkpt><trkpt lat="33.47839" lon="10.0887817"><ele>471.0</ele><time>2026-04-20T08:50:05.979Z</time></trkpt><trkpt lat="33.4783367" lon="10.08883"><ele>471.0</ele><time>2026-04-20T08:50:06.979Z</time></trkpt><trkpt lat="33.4782767" lon="10.088875"><ele>471.0</ele><time>2026-04-20T08:50:07.979Z</time></trkpt><trkpt lat="33.4782067" lon="10.0889233"><ele>471.0</ele><time>2026-04-20T08:50:08.979Z</time></trkpt><trkpt lat="33.478135" lon="10.08899"><ele>471.0</ele><time>2026-04-20T08:50:09.979Z</time></trkpt><trkpt lat="33.478065" lon="10.08906"><ele>471.0</ele><time>2026-04-20T08:50:10.979Z</time></trkpt><trkpt lat="33.47801" lon="10.089125"><ele>471.6666666666667</ele><time>2026-04-20T08:50:11.979Z</time></trkpt><trkpt lat="33.4779617" lon="10.0891967"><ele>472.33333333333337</ele><time>2026-04-20T08:50:12.979Z</time></trkpt><trkpt lat="33.477925" lon="10.0892833"><ele>473.0</ele><time>2026-04-20T08:50:13.979Z</time></trkpt><trkpt lat="33.4778933" lon="10.0893833"><ele>473.6666666666667</ele><time>2026-04-20T08:50:14.979Z</time></trkpt><trkpt lat="33.47785" lon="10.0894917"><ele>474.33333333333337</ele><time>2026-04-20T08:50:15.979Z</time></trkpt><trkpt lat="33.4777983" lon="10.0895917"><ele>475.0</ele><time>2026-04-20T08:50:16.979Z</time></trkpt><trkpt lat="33.4777533" lon="10.0896733"><ele>475.00000000000006</ele><time>2026-04-20T08:50:17.979Z</time></trkpt><trkpt lat="33.477705" lon="10.0897533"><ele>475.0</ele><time>2026-04-20T08:50:18.979Z</time></trkpt><trkpt lat="33.477655" lon="10.0898317"><ele>475.0</ele><time>2026-04-20T08:50:19.979Z</time></trkpt><trkpt lat="33.4775967" lon="10.0899067"><ele>475.0</ele><time>2026-04-20T08:50:20.979Z</time></trkpt><trkpt lat="33.4775333" lon="10.08997"><ele>475.00000000000006</ele><time>2026-04-20T08:50:21.979Z</time></trkpt><trkpt lat="33.4774633" lon="10.09002"><ele>475.0</ele><time>2026-04-20T08:50:22.979Z</time></trkpt><trkpt lat="33.477385" lon="10.090075"><ele>475.6</ele><time>2026-04-20T08:50:23.979Z</time></trkpt><trkpt lat="33.4772933" lon="10.0901267"><ele>476.2</ele><time>2026-04-20T08:50:24.979Z</time></trkpt><trkpt lat="33.4772033" lon="10.09019"><ele>476.79999999999995</ele><time>2026-04-20T08:50:25.978Z</time></trkpt><trkpt lat="33.4771367" lon="10.0902583"><ele>477.4</ele><time>2026-04-20T08:50:26.978Z</time></trkpt><trkpt lat="33.4770883" lon="10.0903317"><ele>478.0</ele><time>2026-04-20T08:50:27.978Z</time></trkpt><trkpt lat="33.477045" lon="10.0904233"><ele>478.0</ele><time>2026-04-20T08:50:28.978Z</time></trkpt><trkpt lat="33.4770033" lon="10.09052"><ele>477.99999999999994</ele><time>2026-04-20T08:50:29.978Z</time></trkpt><trkpt lat="33.4769683" lon="10.0906217"><ele>477.99999999999994</ele><time>2026-04-20T08:50:30.978Z</time></trkpt><trkpt lat="33.4769433" lon="10.0907233"><ele>478.0</ele><time>2026-04-20T08:50:31.978Z</time></trkpt><trkpt lat="33.4769233" lon="10.0908383"><ele>478.0</ele><time>2026-04-20T08:50:32.978Z</time></trkpt><trkpt lat="33.4769117" lon="10.090945"><ele>478.0</ele><time>2026-04-20T08:50:33.978Z</time></trkpt><trkpt lat="33.4769033" lon="10.09105"><ele>477.99999999999994</ele><time>2026-04-20T08:50:34.978Z</time></trkpt><trkpt lat="33.4769217" lon="10.0911667"><ele>477.99999999999994</ele><time>2026-04-20T08:50:35.978Z</time></trkpt><trkpt lat="33.47696" lon="10.0912867"><ele>478.0</ele><time>2026-04-20T08:50:36.978Z</time></trkpt><trkpt lat="33.477" lon="10.0914133"><ele>478.0</ele><time>2026-04-20T08:50:37.978Z</time></trkpt><trkpt lat="33.47704" lon="10.0915433"><ele>477.79999999999995</ele><time>2026-04-20T08:50:38.978Z</time></trkpt><trkpt lat="33.4770783" lon="10.091675"><ele>477.59999999999997</ele><time>2026-04-20T08:50:39.978Z</time></trkpt><trkpt lat="33.477115" lon="10.0917967"><ele>477.40000000000003</ele><time>2026-04-20T08:50:40.978Z</time></trkpt><trkpt lat="33.4771567" lon="10.0918983"><ele>477.20000000000005</ele><time>2026-04-20T08:50:41.978Z</time></trkpt><trkpt lat="33.4771967" lon="10.0919733"><ele>477.0</ele><time>2026-04-20T08:50:42.978Z</time></trkpt><trkpt lat="33.4772267" lon="10.0921167"><ele>477.0</ele><time>2026-04-20T08:50:44.978Z</time></trkpt><trkpt lat="33.477165" lon="10.0922333"><ele>477.0</ele><time>2026-04-20T08:50:46.978Z</time></trkpt><trkpt lat="33.4771033" lon="10.092295"><ele>477.0</ele><time>2026-04-20T08:50:47.978Z</time></trkpt><trkpt lat="33.47705" lon="10.09236"><ele>477.0</ele><time>2026-04-20T08:50:48.978Z</time></trkpt><trkpt lat="33.4770233" lon="10.0924317"><ele>477.0</ele><time>2026-04-20T08:50:49.978Z</time></trkpt><trkpt lat="33.4770167" lon="10.0925117"><ele>477.0</ele><time>2026-04-20T08:50:50.978Z</time></trkpt><trkpt lat="33.4770333" lon="10.0926067"><ele>477.5</ele><time>2026-04-20T08:50:51.978Z</time></trkpt><trkpt lat="33.4770617" lon="10.0927067"><ele>478.0</ele><time>2026-04-20T08:50:52.978Z</time></trkpt><trkpt lat="33.4770933" lon="10.0928083"><ele>478.5</ele><time>2026-04-20T08:50:53.978Z</time></trkpt><trkpt lat="33.4771233" lon="10.0929083"><ele>479.0</ele><time>2026-04-20T08:50:54.978Z</time></trkpt><trkpt lat="33.4771517" lon="10.0930067"><ele>479.5</ele><time>2026-04-20T08:50:55.978Z</time></trkpt><trkpt lat="33.477165" lon="10.0930917"><ele>480.0</ele><time>2026-04-20T08:50:56.978Z</time></trkpt><trkpt lat="33.477155" lon="10.093245"><ele>480.6</ele><time>2026-04-20T08:50:58.978Z</time></trkpt><trkpt lat="33.4771367" lon="10.0933267"><ele>481.2</ele><time>2026-04-20T08:50:59.978Z</time></trkpt><trkpt lat="33.4771283" lon="10.0934017"><ele>481.79999999999995</ele><time>2026-04-20T08:51:00.978Z</time></trkpt><trkpt lat="33.4771333" lon="10.0935367"><ele>482.4</ele><time>2026-04-20T08:51:02.978Z</time></trkpt><trkpt lat="33.4771933" lon="10.093645"><ele>483.0</ele><time>2026-04-20T08:51:04.978Z</time></trkpt><trkpt lat="33.4772867" lon="10.0937283"><ele>483.0</ele><time>2026-04-20T08:51:06.978Z</time></trkpt><trkpt lat="33.4773717" lon="10.0938433"><ele>483.0</ele><time>2026-04-20T08:51:08.978Z</time></trkpt><trkpt lat="33.4774067" lon="10.0939133"><ele>483.0</ele><time>2026-04-20T08:51:09.978Z</time></trkpt><trkpt lat="33.4774467" lon="10.0939767"><ele>483.0</ele><time>2026-04-20T08:51:10.978Z</time></trkpt><trkpt lat="33.4774933" lon="10.09404"><ele>483.0</ele><time>2026-04-20T08:51:11.978Z</time></trkpt><trkpt lat="33.477535" lon="10.0941017"><ele>483.0</ele><time>2026-04-20T08:51:12.978Z</time></trkpt><trkpt lat="33.4776183" lon="10.0942167"><ele>484.5</ele><time>2026-04-20T08:51:14.978Z</time></trkpt><trkpt lat="33.477665" lon="10.0942933"><ele>486.0</ele><time>2026-04-20T08:51:15.978Z</time></trkpt><trkpt lat="33.477705" lon="10.0943817"><ele>487.5</ele><time>2026-04-20T08:51:16.978Z</time></trkpt><trkpt lat="33.4777267" lon="10.0944817"><ele>489.0</ele><time>2026-04-20T08:51:17.978Z</time></trkpt><trkpt lat="33.4777333" lon="10.0945783"><ele>490.5</ele><time>2026-04-20T08:51:18.978Z</time></trkpt><trkpt lat="33.4777367" lon="10.0946867"><ele>492.0</ele><time>2026-04-20T08:51:19.978Z</time></trkpt><trkpt lat="33.4777233" lon="10.0947967"><ele>492.0</ele><time>2026-04-20T08:51:20.978Z</time></trkpt><trkpt lat="33.4776967" lon="10.0948967"><ele>492.00000000000006</ele><time>2026-04-20T08:51:21.978Z</time></trkpt><trkpt lat="33.47767" lon="10.095"><ele>492.00000000000006</ele><time>2026-04-20T08:51:22.978Z</time></trkpt><trkpt lat="33.4776383" lon="10.0951083"><ele>492.0</ele><time>2026-04-20T08:51:23.978Z</time></trkpt><trkpt lat="33.4776067" lon="10.0952183"><ele>492.0</ele><time>2026-04-20T08:51:24.978Z</time></trkpt><trkpt lat="33.4775933" lon="10.0953183"><ele>492.8333333333333</ele><time>2026-04-20T08:51:25.978Z</time></trkpt><trkpt lat="33.477585" lon="10.095415"><ele>493.66666666666663</ele><time>2026-04-20T08:51:26.978Z</time></trkpt><trkpt lat="33.4775817" lon="10.095515"><ele>494.5</ele><time>2026-04-20T08:51:27.978Z</time></trkpt><trkpt lat="33.47757" lon="10.0956117"><ele>495.3333333333333</ele><time>2026-04-20T08:51:28.978Z</time></trkpt><trkpt lat="33.47757" lon="10.0957133"><ele>496.16666666666663</ele><time>2026-04-20T08:51:29.978Z</time></trkpt><trkpt lat="33.4775767" lon="10.0958067"><ele>497.0</ele><time>2026-04-20T08:51:30.978Z</time></trkpt><trkpt lat="33.4775867" lon="10.0958967"><ele>498.57142857142856</ele><time>2026-04-20T08:51:31.978Z</time></trkpt><trkpt lat="33.4775917" lon="10.09598"><ele>500.1428571428571</ele><time>2026-04-20T08:51:32.978Z</time></trkpt><trkpt lat="33.47761" lon="10.0960633"><ele>501.7142857142857</ele><time>2026-04-20T08:51:33.978Z</time></trkpt><trkpt lat="33.4776317" lon="10.0961383"><ele>503.2857142857143</ele><time>2026-04-20T08:51:34.978Z</time></trkpt><trkpt lat="33.4776633" lon="10.0962083"><ele>504.85714285714283</ele><time>2026-04-20T08:51:35.978Z</time></trkpt><trkpt lat="33.47769" lon="10.0962767"><ele>506.42857142857144</ele><time>2026-04-20T08:51:36.978Z</time></trkpt><trkpt lat="33.4777283" lon="10.0963483"><ele>508.0</ele><time>2026-04-20T08:51:37.978Z</time></trkpt><trkpt lat="33.477765" lon="10.096425"><ele>508.00000000000006</ele><time>2026-04-20T08:51:38.978Z</time></trkpt><trkpt lat="33.477795" lon="10.0965033"><ele>508.0</ele><time>2026-04-20T08:51:39.978Z</time></trkpt><trkpt lat="33.477805" lon="10.0966083"><ele>508.0</ele><time>2026-04-20T08:51:41.978Z</time></trkpt><trkpt lat="33.477775" lon="10.0966917"><ele>508.0</ele><time>2026-04-20T08:51:43.978Z</time></trkpt><trkpt lat="33.4777183" lon="10.0967567"><ele>508.00000000000006</ele><time>2026-04-20T08:51:45.978Z</time></trkpt><trkpt lat="33.4776367" lon="10.09687"><ele>508.0</ele><time>2026-04-20T08:51:47.978Z</time></trkpt><trkpt lat="33.4775867" lon="10.0969217"><ele>510.0</ele><time>2026-04-20T08:51:48.978Z</time></trkpt><trkpt lat="33.47749" lon="10.0969933"><ele>511.99999999999994</ele><time>2026-04-20T08:51:50.978Z</time></trkpt><trkpt lat="33.4773717" lon="10.0970167"><ele>514.0</ele><time>2026-04-20T08:51:52.978Z</time></trkpt><trkpt lat="33.4772933" lon="10.0970267"><ele>516.0</ele><time>2026-04-20T08:51:53.978Z</time></trkpt><trkpt lat="33.4772033" lon="10.097045"><ele>518.0</ele><time>2026-04-20T08:51:54.978Z</time></trkpt><trkpt lat="33.47711" lon="10.0970617"><ele>517.6666666666666</ele><time>2026-04-20T08:51:55.978Z</time></trkpt><trkpt lat="33.4770233" lon="10.0970933"><ele>517.3333333333333</ele><time>2026-04-20T08:51:56.978Z</time></trkpt><trkpt lat="33.47695" lon="10.0971417"><ele>517.0</ele><time>2026-04-20T08:51:57.978Z</time></trkpt><trkpt lat="33.47689" lon="10.0972017"><ele>516.6666666666666</ele><time>2026-04-20T08:51:58.978Z</time></trkpt><trkpt lat="33.4768483" lon="10.09727"><ele>516.3333333333334</ele><time>2026-04-20T08:51:59.978Z</time></trkpt><trkpt lat="33.4768183" lon="10.0973533"><ele>516.0</ele><time>2026-04-20T08:52:00.978Z</time></trkpt><trkpt lat="33.47681" lon="10.0974583"><ele>517.0</ele><time>2026-04-20T08:52:01.978Z</time></trkpt><trkpt lat="33.47683" lon="10.0975617"><ele>518.0</ele><time>2026-04-20T08:52:02.978Z</time></trkpt><trkpt lat="33.4768567" lon="10.09765"><ele>519.0</ele><time>2026-04-20T08:52:03.978Z</time></trkpt><trkpt lat="33.4768783" lon="10.0977333"><ele>520.0</ele><time>2026-04-20T08:52:04.978Z</time></trkpt><trkpt lat="33.4768883" lon="10.0978083"><ele>521.0</ele><time>2026-04-20T08:52:05.978Z</time></trkpt><trkpt lat="33.4768783" lon="10.09796"><ele>522.0</ele><time>2026-04-20T08:52:07.978Z</time></trkpt><trkpt lat="33.4768583" lon="10.09804"><ele>522.0</ele><time>2026-04-20T08:52:08.978Z</time></trkpt><trkpt lat="33.4768333" lon="10.0981217"><ele>522.0</ele><time>2026-04-20T08:52:09.978Z</time></trkpt><trkpt lat="33.4768167" lon="10.0982083"><ele>522.0</ele><time>2026-04-20T08:52:10.978Z</time></trkpt><trkpt lat="33.4768133" lon="10.0982967"><ele>522.0</ele><time>2026-04-20T08:52:11.978Z</time></trkpt><trkpt lat="33.4768217" lon="10.0983917"><ele>522.0</ele><time>2026-04-20T08:52:12.978Z</time></trkpt><trkpt lat="33.4768417" lon="10.09849"><ele>522.0</ele><time>2026-04-20T08:52:13.978Z</time></trkpt><trkpt lat="33.47687" lon="10.0985933"><ele>522.6</ele><time>2026-04-20T08:52:14.978Z</time></trkpt><trkpt lat="33.4769183" lon="10.0986933"><ele>523.2</ele><time>2026-04-20T08:52:15.978Z</time></trkpt><trkpt lat="33.4769817" lon="10.0987917"><ele>523.8</ele><time>2026-04-20T08:52:16.978Z</time></trkpt><trkpt lat="33.4770467" lon="10.098885"><ele>524.4</ele><time>2026-04-20T08:52:17.978Z</time></trkpt><trkpt lat="33.47711" lon="10.09897"><ele>525.0</ele><time>2026-04-20T08:52:18.978Z</time></trkpt><trkpt lat="33.47716" lon="10.099045"><ele>524.5</ele><time>2026-04-20T08:52:19.978Z</time></trkpt><trkpt lat="33.4772167" lon="10.099185"><ele>524.0</ele><time>2026-04-20T08:52:21.978Z</time></trkpt><trkpt lat="33.4772433" lon="10.0992567"><ele>523.5</ele><time>2026-04-20T08:52:22.978Z</time></trkpt><trkpt lat="33.47726" lon="10.0993367"><ele>523.0</ele><time>2026-04-20T08:52:23.978Z</time></trkpt><trkpt lat="33.4772717" lon="10.0994217"><ele>522.5</ele><time>2026-04-20T08:52:24.978Z</time></trkpt><trkpt lat="33.4772733" lon="10.099535"><ele>522.0</ele><time>2026-04-20T08:52:26.978Z</time></trkpt><trkpt lat="33.477215" lon="10.099605"><ele>522.0</ele><time>2026-04-20T08:52:29.978Z</time></trkpt><trkpt lat="33.477215" lon="10.0996933"><ele>522.0</ele><time>2026-04-20T08:52:31.978Z</time></trkpt><trkpt lat="33.4772133" lon="10.0998333"><ele>522.0</ele><time>2026-04-20T08:52:33.978Z</time></trkpt><trkpt lat="33.4772117" lon="10.0999233"><ele>522.0</ele><time>2026-04-20T08:52:34.978Z</time></trkpt><trkpt lat="33.4772033" lon="10.1000333"><ele>522.0</ele><time>2026-04-20T08:52:35.978Z</time></trkpt><trkpt lat="33.4771817" lon="10.1001417"><ele>522.0</ele><time>2026-04-20T08:52:36.978Z</time></trkpt><trkpt lat="33.47715" lon="10.1002367"><ele>522.0</ele><time>2026-04-20T08:52:37.978Z</time></trkpt><trkpt lat="33.4771017" lon="10.1003167"><ele>522.0</ele><time>2026-04-20T08:52:38.978Z</time></trkpt><trkpt lat="33.4770333" lon="10.1004"><ele>522.0</ele><time>2026-04-20T08:52:39.978Z</time></trkpt><trkpt lat="33.4769467" lon="10.100475"><ele>522.0</ele><time>2026-04-20T08:52:40.978Z</time></trkpt><trkpt lat="33.4768533" lon="10.1005617"><ele>522.0</ele><time>2026-04-20T08:52:41.978Z</time></trkpt><trkpt lat="33.4767717" lon="10.1006483"><ele>522.0</ele><time>2026-04-20T08:52:42.978Z</time></trkpt><trkpt lat="33.4767033" lon="10.10074"><ele>522.0</ele><time>2026-04-20T08:52:43.978Z</time></trkpt><trkpt lat="33.47666" lon="10.1008283"><ele>522.0</ele><time>2026-04-20T08:52:44.978Z</time></trkpt><trkpt lat="33.47663" lon="10.1008967"><ele>522.0</ele><time>2026-04-20T08:52:45.978Z</time></trkpt><trkpt lat="33.4766083" lon="10.10103"><ele>522.8000000000001</ele><time>2026-04-20T08:52:47.978Z</time></trkpt><trkpt lat="33.47661" lon="10.1011167"><ele>523.6</ele><time>2026-04-20T08:52:48.978Z</time></trkpt><trkpt lat="33.476615" lon="10.101225"><ele>524.4000000000001</ele><time>2026-04-20T08:52:49.978Z</time></trkpt><trkpt lat="33.47661" lon="10.1013417"><ele>525.2</ele><time>2026-04-20T08:52:50.978Z</time></trkpt><trkpt lat="33.4765917" lon="10.1014617"><ele>526.0</ele><time>2026-04-20T08:52:51.978Z</time></trkpt><trkpt lat="33.4765433" lon="10.1015733"><ele>525.4</ele><time>2026-04-20T08:52:52.978Z</time></trkpt><trkpt lat="33.4764917" lon="10.101665"><ele>524.8</ele><time>2026-04-20T08:52:53.978Z</time></trkpt><trkpt lat="33.476425" lon="10.1017267"><ele>524.1999999999999</ele><time>2026-04-20T08:52:54.978Z</time></trkpt><trkpt lat="33.4763517" lon="10.1017667"><ele>523.6</ele><time>2026-04-20T08:52:55.978Z</time></trkpt><trkpt lat="33.476255" lon="10.101835"><ele>523.0</ele><time>2026-04-20T08:52:57.978Z</time></trkpt><trkpt lat="33.4762117" lon="10.1019383"><ele>523.0</ele><time>2026-04-20T08:52:59.978Z</time></trkpt><trkpt lat="33.4762067" lon="10.10208"><ele>523.0</ele><time>2026-04-20T08:53:01.978Z</time></trkpt><trkpt lat="33.47621" lon="10.1021733"><ele>523.0</ele><time>2026-04-20T08:53:02.978Z</time></trkpt><trkpt lat="33.4762167" lon="10.1022717"><ele>523.0</ele><time>2026-04-20T08:53:03.978Z</time></trkpt><trkpt lat="33.4762183" lon="10.1023717"><ele>523.0</ele><time>2026-04-20T08:53:04.978Z</time></trkpt><trkpt lat="33.4762217" lon="10.1024817"><ele>523.8333333333334</ele><time>2026-04-20T08:53:05.978Z</time></trkpt><trkpt lat="33.4762333" lon="10.102595"><ele>524.6666666666667</ele><time>2026-04-20T08:53:06.978Z</time></trkpt><trkpt lat="33.4762467" lon="10.1026967"><ele>525.5</ele><time>2026-04-20T08:53:07.978Z</time></trkpt><trkpt lat="33.4762683" lon="10.10279"><ele>526.3333333333334</ele><time>2026-04-20T08:53:08.978Z</time></trkpt><trkpt lat="33.4762933" lon="10.102885"><ele>527.1666666666666</ele><time>2026-04-20T08:53:09.978Z</time></trkpt><trkpt lat="33.4763083" lon="10.102985"><ele>528.0</ele><time>2026-04-20T08:53:10.978Z</time></trkpt><trkpt lat="33.4763167" lon="10.1030833"><ele>528.0</ele><time>2026-04-20T08:53:11.978Z</time></trkpt><trkpt lat="33.4763283" lon="10.1031767"><ele>528.0</ele><time>2026-04-20T08:53:12.978Z</time></trkpt><trkpt lat="33.4763417" lon="10.1032733"><ele>528.0</ele><time>2026-04-20T08:53:13.978Z</time></trkpt><trkpt lat="33.476345" lon="10.1033583"><ele>528.0</ele><time>2026-04-20T08:53:14.978Z</time></trkpt><trkpt lat="33.47635" lon="10.1034367"><ele>528.0</ele><time>2026-04-20T08:53:15.978Z</time></trkpt><trkpt lat="33.4763617" lon="10.1035217"><ele>528.0</ele><time>2026-04-20T08:53:16.978Z</time></trkpt><trkpt lat="33.4763817" lon="10.1036083"><ele>528.0</ele><time>2026-04-20T08:53:17.978Z</time></trkpt><trkpt lat="33.47642" lon="10.1037233"><ele>529.8</ele><time>2026-04-20T08:53:18.978Z</time></trkpt><trkpt lat="33.4764633" lon="10.1038367"><ele>531.5999999999999</ele><time>2026-04-20T08:53:19.978Z</time></trkpt><trkpt lat="33.47651" lon="10.1039533"><ele>533.4000000000001</ele><time>2026-04-20T08:53:20.978Z</time></trkpt><trkpt lat="33.4765533" lon="10.1040833"><ele>535.2</ele><time>2026-04-20T08:53:21.978Z</time></trkpt><trkpt lat="33.4765767" lon="10.104205"><ele>537.0</ele><time>2026-04-20T08:53:22.978Z</time></trkpt><trkpt lat="33.476595" lon="10.1043183"><ele>537.8000000000001</ele><time>2026-04-20T08:53:23.978Z</time></trkpt><trkpt lat="33.47661" lon="10.1044233"><ele>538.6</ele><time>2026-04-20T08:53:24.978Z</time></trkpt><trkpt lat="33.4766233" lon="10.104535"><ele>539.4000000000001</ele><time>2026-04-20T08:53:25.978Z</time></trkpt><trkpt lat="33.4766333" lon="10.1046467"><ele>540.2</ele><time>2026-04-20T08:53:26.978Z</time></trkpt><trkpt lat="33.4766617" lon="10.1047633"><ele>541.0</ele><time>2026-04-20T08:53:27.978Z</time></trkpt><trkpt lat="33.4766833" lon="10.1048567"><ele>541.8333333333334</ele><time>2026-04-20T08:53:28.978Z</time></trkpt><trkpt lat="33.4767167" lon="10.1049333"><ele>542.6666666666667</ele><time>2026-04-20T08:53:29.978Z</time></trkpt><trkpt lat="33.4767383" lon="10.1050117"><ele>543.5</ele><time>2026-04-20T08:53:30.978Z</time></trkpt><trkpt lat="33.476755" lon="10.1051417"><ele>544.3333333333334</ele><time>2026-04-20T08:53:32.978Z</time></trkpt><trkpt lat="33.4767483" lon="10.105235"><ele>545.1666666666666</ele><time>2026-04-20T08:53:33.978Z</time></trkpt><trkpt lat="33.4767467" lon="10.1053383"><ele>546.0</ele><time>2026-04-20T08:53:34.978Z</time></trkpt><trkpt lat="33.47675" lon="10.1054417"><ele>546.0</ele><time>2026-04-20T08:53:35.978Z</time></trkpt><trkpt lat="33.4767733" lon="10.1055283"><ele>546.0</ele><time>2026-04-20T08:53:36.978Z</time></trkpt><trkpt lat="33.476815" lon="10.1056133"><ele>546.0</ele><time>2026-04-20T08:53:37.978Z</time></trkpt><trkpt lat="33.4768733" lon="10.1057"><ele>546.0</ele><time>2026-04-20T08:53:38.978Z</time></trkpt><trkpt lat="33.476945" lon="10.1057733"><ele>546.0</ele><time>2026-04-20T08:53:39.978Z</time></trkpt><trkpt lat="33.47701" lon="10.1058367"><ele>546.0</ele><time>2026-04-20T08:53:40.978Z</time></trkpt><trkpt lat="33.4770667" lon="10.10594"><ele>545.8</ele><time>2026-04-20T08:53:42.978Z</time></trkpt><trkpt lat="33.477065" lon="10.106035"><ele>545.6</ele><time>2026-04-20T08:53:44.978Z</time></trkpt><trkpt lat="33.4770067" lon="10.10616"><ele>545.4</ele><time>2026-04-20T08:53:46.978Z</time></trkpt><trkpt lat="33.4769617" lon="10.106235"><ele>545.2</ele><time>2026-04-20T08:53:47.978Z</time></trkpt><trkpt lat="33.4769033" lon="10.1063283"><ele>545.0</ele><time>2026-04-20T08:53:48.978Z</time></trkpt><trkpt lat="33.4768333" lon="10.10644"><ele>545.0</ele><time>2026-04-20T08:53:49.978Z</time></trkpt><trkpt lat="33.4767533" lon="10.1065617"><ele>545.0</ele><time>2026-04-20T08:53:50.978Z</time></trkpt><trkpt lat="33.47667" lon="10.1066867"><ele>545.0</ele><time>2026-04-20T08:53:51.978Z</time></trkpt><trkpt lat="33.4765767" lon="10.1068183"><ele>545.0</ele><time>2026-04-20T08:53:52.978Z</time></trkpt><trkpt lat="33.4764783" lon="10.10696"><ele>545.2</ele><time>2026-04-20T08:53:53.978Z</time></trkpt><trkpt lat="33.4763833" lon="10.1070983"><ele>545.4</ele><time>2026-04-20T08:53:54.978Z</time></trkpt><trkpt lat="33.476325" lon="10.1072167"><ele>545.6</ele><time>2026-04-20T08:53:55.978Z</time></trkpt><trkpt lat="33.4762983" lon="10.1073183"><ele>545.8</ele><time>2026-04-20T08:53:56.978Z</time></trkpt><trkpt lat="33.476295" lon="10.107415"><ele>546.0</ele><time>2026-04-20T08:53:57.978Z</time></trkpt><trkpt lat="33.4763017" lon="10.1075083"><ele>546.0</ele><time>2026-04-20T08:53:58.978Z</time></trkpt><trkpt lat="33.4763233" lon="10.10759"><ele>546.0</ele><time>2026-04-20T08:53:59.978Z</time></trkpt><trkpt lat="33.476355" lon="10.1076733"><ele>546.0</ele><time>2026-04-20T08:54:00.977Z</time></trkpt><trkpt lat="33.47639" lon="10.107745"><ele>546.0</ele><time>2026-04-20T08:54:01.977Z</time></trkpt><trkpt lat="33.4764083" lon="10.1078217"><ele>546.0</ele><time>2026-04-20T08:54:02.977Z</time></trkpt><trkpt lat="33.4764067" lon="10.1079333"><ele>546.0</ele><time>2026-04-20T08:54:04.977Z</time></trkpt><trkpt lat="33.4763517" lon="10.107985"><ele>546.0</ele><time>2026-04-20T08:54:06.977Z</time></trkpt><trkpt lat="33.4762783" lon="10.1079917"><ele>547.4</ele><time>2026-04-20T08:54:08.977Z</time></trkpt><trkpt lat="33.4761633" lon="10.1079417"><ele>548.8</ele><time>2026-04-20T08:54:10.977Z</time></trkpt><trkpt lat="33.476085" lon="10.1079117"><ele>550.1999999999999</ele><time>2026-04-20T08:54:11.977Z</time></trkpt><trkpt lat="33.475995" lon="10.107885"><ele>551.6</ele><time>2026-04-20T08:54:12.977Z</time></trkpt><trkpt lat="33.4759017" lon="10.10786"><ele>553.0</ele><time>2026-04-20T08:54:13.977Z</time></trkpt><trkpt lat="33.4758183" lon="10.107855"><ele>553.0</ele><time>2026-04-20T08:54:14.977Z</time></trkpt><trkpt lat="33.47574" lon="10.1078783"><ele>553.0</ele><time>2026-04-20T08:54:15.977Z</time></trkpt><trkpt lat="33.4756733" lon="10.1079283"><ele>553.0</ele><time>2026-04-20T08:54:16.977Z</time></trkpt><trkpt lat="33.47562" lon="10.10799"><ele>553.0</ele><time>2026-04-20T08:54:17.977Z</time></trkpt><trkpt lat="33.475585" lon="10.1080533"><ele>553.0</ele><time>2026-04-20T08:54:18.977Z</time></trkpt><trkpt lat="33.4755283" lon="10.1081683"><ele>553.0</ele><time>2026-04-20T08:54:20.977Z</time></trkpt><trkpt lat="33.4754633" lon="10.108245"><ele>553.0</ele><time>2026-04-20T08:54:22.977Z</time></trkpt><trkpt lat="33.4753483" lon="10.1082467"><ele>553.0</ele><time>2026-04-20T08:54:24.977Z</time></trkpt><trkpt lat="33.475275" lon="10.1082417"><ele>553.0</ele><time>2026-04-20T08:54:25.977Z</time></trkpt><trkpt lat="33.475205" lon="10.1082317"><ele>553.0</ele><time>2026-04-20T08:54:26.977Z</time></trkpt><trkpt lat="33.4751367" lon="10.10822"><ele>553.0</ele><time>2026-04-20T08:54:27.977Z</time></trkpt><trkpt lat="33.4750517" lon="10.108215"><ele>553.0</ele><time>2026-04-20T08:54:28.977Z</time></trkpt><trkpt lat="33.4749583" lon="10.1082217"><ele>553.0</ele><time>2026-04-20T08:54:29.977Z</time></trkpt><trkpt lat="33.4748483" lon="10.1082367"><ele>553.0</ele><time>2026-04-20T08:54:30.977Z</time></trkpt><trkpt lat="33.4747383" lon="10.1082583"><ele>553.0</ele><time>2026-04-20T08:54:31.977Z</time></trkpt><trkpt lat="33.4746283" lon="10.108295"><ele>553.0</ele><time>2026-04-20T08:54:32.977Z</time></trkpt><trkpt lat="33.4745283" lon="10.108345"><ele>553.0</ele><time>2026-04-20T08:54:33.977Z</time></trkpt><trkpt lat="33.4744517" lon="10.1084083"><ele>552.8333333333334</ele><time>2026-04-20T08:54:34.977Z</time></trkpt><trkpt lat="33.4743833" lon="10.1084817"><ele>552.6666666666667</ele><time>2026-04-20T08:54:35.977Z</time></trkpt><trkpt lat="33.4743333" lon="10.10855"><ele>552.5</ele><time>2026-04-20T08:54:36.977Z</time></trkpt><trkpt lat="33.4743017" lon="10.1086183"><ele>552.3333333333334</ele><time>2026-04-20T08:54:37.977Z</time></trkpt><trkpt lat="33.47429" lon="10.1086933"><ele>552.1666666666666</ele><time>2026-04-20T08:54:38.977Z</time></trkpt><trkpt lat="33.47433" lon="10.1088133"><ele>552.0</ele><time>2026-04-20T08:54:40.977Z</time></trkpt><trkpt lat="33.47439" lon="10.1089317"><ele>552.0</ele><time>2026-04-20T08:54:42.977Z</time></trkpt><trkpt lat="33.4744117" lon="10.1090033"><ele>552.0</ele><time>2026-04-20T08:54:43.977Z</time></trkpt><trkpt lat="33.4744317" lon="10.1090767"><ele>552.0</ele><time>2026-04-20T08:54:44.977Z</time></trkpt><trkpt lat="33.47444" lon="10.1091633"><ele>552.0</ele><time>2026-04-20T08:54:45.977Z</time></trkpt><trkpt lat="33.47444" lon="10.1092567"><ele>552.0</ele><time>2026-04-20T08:54:46.977Z</time></trkpt><trkpt lat="33.4744283" lon="10.1093483"><ele>552.0</ele><time>2026-04-20T08:54:47.977Z</time></trkpt><trkpt lat="33.4744033" lon="10.109445"><ele>552.0</ele><time>2026-04-20T08:54:48.977Z</time></trkpt><trkpt lat="33.47437" lon="10.10954"><ele>553.3333333333334</ele><time>2026-04-20T08:54:49.977Z</time></trkpt><trkpt lat="33.4743383" lon="10.1096317"><ele>554.6666666666666</ele><time>2026-04-20T08:54:50.977Z</time></trkpt><trkpt lat="33.47433" lon="10.1097233"><ele>556.0</ele><time>2026-04-20T08:54:51.977Z</time></trkpt><trkpt lat="33.4743467" lon="10.10981"><ele>557.3333333333333</ele><time>2026-04-20T08:54:52.977Z</time></trkpt><trkpt lat="33.47438" lon="10.1098983"><ele>558.6666666666666</ele><time>2026-04-20T08:54:53.977Z</time></trkpt><trkpt lat="33.4744133" lon="10.109985"><ele>560.0</ele><time>2026-04-20T08:54:54.977Z</time></trkpt><trkpt lat="33.4744417" lon="10.11007"><ele>560.8333333333333</ele><time>2026-04-20T08:54:55.977Z</time></trkpt><trkpt lat="33.4744583" lon="10.1101633"><ele>561.6666666666666</ele><time>2026-04-20T08:54:56.977Z</time></trkpt><trkpt lat="33.4744633" lon="10.1102617"><ele>562.5</ele><time>2026-04-20T08:54:57.977Z</time></trkpt><trkpt lat="33.4744483" lon="10.110365"><ele>563.3333333333334</ele><time>2026-04-20T08:54:58.977Z</time></trkpt><trkpt lat="33.4744133" lon="10.110465"><ele>564.1666666666667</ele><time>2026-04-20T08:54:59.977Z</time></trkpt><trkpt lat="33.4743633" lon="10.11057"><ele>565.0</ele><time>2026-04-20T08:55:00.977Z</time></trkpt><trkpt lat="33.474315" lon="10.1106917"><ele>564.75</ele><time>2026-04-20T08:55:01.977Z</time></trkpt><trkpt lat="33.4742733" lon="10.1108433"><ele>564.5</ele><time>2026-04-20T08:55:02.977Z</time></trkpt><trkpt lat="33.474235" lon="10.1110117"><ele>564.25</ele><time>2026-04-20T08:55:03.977Z</time></trkpt><trkpt lat="33.4741817" lon="10.11119"><ele>564.0</ele><time>2026-04-20T08:55:04.977Z</time></trkpt><trkpt lat="33.47413" lon="10.111375"><ele>564.0</ele><time>2026-04-20T08:55:05.977Z</time></trkpt><trkpt lat="33.4740783" lon="10.1115633"><ele>564.0</ele><time>2026-04-20T08:55:06.977Z</time></trkpt><trkpt lat="33.47402" lon="10.1117367"><ele>564.0</ele><time>2026-04-20T08:55:07.977Z</time></trkpt><trkpt lat="33.4739633" lon="10.11191"><ele>562.3333333333334</ele><time>2026-04-20T08:55:08.977Z</time></trkpt><trkpt lat="33.4739067" lon="10.112075"><ele>560.6666666666667</ele><time>2026-04-20T08:55:09.977Z</time></trkpt><trkpt lat="33.4738583" lon="10.1122517"><ele>559.0</ele><time>2026-04-20T08:55:10.977Z</time></trkpt><trkpt lat="33.4738217" lon="10.1124333"><ele>559.0</ele><time>2026-04-20T08:55:11.977Z</time></trkpt><trkpt lat="33.4737867" lon="10.1126283"><ele>559.0</ele><time>2026-04-20T08:55:12.977Z</time></trkpt><trkpt lat="33.47375" lon="10.1128267"><ele>559.0</ele><time>2026-04-20T08:55:13.977Z</time></trkpt><trkpt lat="33.4737183" lon="10.1130233"><ele>559.0</ele><time>2026-04-20T08:55:14.977Z</time></trkpt><trkpt lat="33.4736983" lon="10.1132133"><ele>559.0</ele><time>2026-04-20T08:55:15.977Z</time></trkpt><trkpt lat="33.4736783" lon="10.113375"><ele>559.0</ele><time>2026-04-20T08:55:16.977Z</time></trkpt><trkpt lat="33.4736883" lon="10.1135183"><ele>559.0</ele><time>2026-04-20T08:55:17.977Z</time></trkpt><trkpt lat="33.4737367" lon="10.1136317"><ele>558.0</ele><time>2026-04-20T08:55:18.977Z</time></trkpt><trkpt lat="33.47379" lon="10.1137483"><ele>557.0</ele><time>2026-04-20T08:55:19.977Z</time></trkpt><trkpt lat="33.4738283" lon="10.1138567"><ele>556.0</ele><time>2026-04-20T08:55:20.977Z</time></trkpt><trkpt lat="33.4738433" lon="10.1139567"><ele>555.0</ele><time>2026-04-20T08:55:21.977Z</time></trkpt><trkpt lat="33.4738483" lon="10.114065"><ele>554.0</ele><time>2026-04-20T08:55:22.977Z</time></trkpt><trkpt lat="33.4738267" lon="10.11416"><ele>554.0</ele><time>2026-04-20T08:55:23.977Z</time></trkpt><trkpt lat="33.4737817" lon="10.1142433"><ele>554.0</ele><time>2026-04-20T08:55:24.977Z</time></trkpt><trkpt lat="33.473725" lon="10.1143333"><ele>554.0</ele><time>2026-04-20T08:55:25.977Z</time></trkpt><trkpt lat="33.47365" lon="10.11443"><ele>554.0</ele><time>2026-04-20T08:55:26.977Z</time></trkpt><trkpt lat="33.4735667" lon="10.1145433"><ele>554.0</ele><time>2026-04-20T08:55:27.977Z</time></trkpt><trkpt lat="33.4734767" lon="10.1146667"><ele>556.25</ele><time>2026-04-20T08:55:28.977Z</time></trkpt><trkpt lat="33.4733833" lon="10.114795"><ele>558.5</ele><time>2026-04-20T08:55:29.977Z</time></trkpt><trkpt lat="33.473295" lon="10.1149217"><ele>560.75</ele><time>2026-04-20T08:55:30.977Z</time></trkpt><trkpt lat="33.473225" lon="10.115035"><ele>563.0</ele><time>2026-04-20T08:55:31.977Z</time></trkpt><trkpt lat="33.473155" lon="10.1151333"><ele>563.0</ele><time>2026-04-20T08:55:32.977Z</time></trkpt><trkpt lat="33.4730867" lon="10.11523"><ele>563.0</ele><time>2026-04-20T08:55:33.977Z</time></trkpt><trkpt lat="33.4730183" lon="10.1153117"><ele>563.0</ele><time>2026-04-20T08:55:34.977Z</time></trkpt><trkpt lat="33.4729367" lon="10.11538"><ele>563.0</ele><time>2026-04-20T08:55:35.977Z</time></trkpt><trkpt lat="33.4728467" lon="10.1154617"><ele>563.0</ele><time>2026-04-20T08:55:36.977Z</time></trkpt><trkpt lat="33.4727467" lon="10.115545"><ele>563.25</ele><time>2026-04-20T08:55:37.977Z</time></trkpt><trkpt lat="33.4726433" lon="10.1156317"><ele>563.5</ele><time>2026-04-20T08:55:38.977Z</time></trkpt><trkpt lat="33.4725283" lon="10.11573"><ele>563.75</ele><time>2026-04-20T08:55:39.977Z</time></trkpt><trkpt lat="33.4723917" lon="10.1158233"><ele>564.0</ele><time>2026-04-20T08:55:40.977Z</time></trkpt><trkpt lat="33.47224" lon="10.1159083"><ele>562.0</ele><time>2026-04-20T08:55:41.977Z</time></trkpt><trkpt lat="33.4720683" lon="10.1159833"><ele>560.0</ele><time>2026-04-20T08:55:42.977Z</time></trkpt><trkpt lat="33.47189" lon="10.11604"><ele>558.0</ele><time>2026-04-20T08:55:43.977Z</time></trkpt><trkpt lat="33.4717217" lon="10.116095"><ele>558.0</ele><time>2026-04-20T08:55:44.977Z</time></trkpt><trkpt lat="33.4715767" lon="10.116135"><ele>558.0</ele><time>2026-04-20T08:55:45.977Z</time></trkpt><trkpt lat="33.4714567" lon="10.1161733"><ele>558.0</ele><time>2026-04-20T08:55:46.977Z</time></trkpt><trkpt lat="33.4713517" lon="10.1162167"><ele>558.0</ele><time>2026-04-20T08:55:47.977Z</time></trkpt><trkpt lat="33.4712567" lon="10.1162783"><ele>558.4</ele><time>2026-04-20T08:55:48.977Z</time></trkpt><trkpt lat="33.4711683" lon="10.1163333"><ele>558.8</ele><time>2026-04-20T08:55:49.977Z</time></trkpt><trkpt lat="33.47108" lon="10.116395"><ele>559.2</ele><time>2026-04-20T08:55:50.977Z</time></trkpt><trkpt lat="33.470995" lon="10.1164683"><ele>559.6</ele><time>2026-04-20T08:55:51.977Z</time></trkpt><trkpt lat="33.4709217" lon="10.1165517"><ele>560.0</ele><time>2026-04-20T08:55:52.977Z</time></trkpt><trkpt lat="33.4708567" lon="10.11666"><ele>558.75</ele><time>2026-04-20T08:55:53.977Z</time></trkpt><trkpt lat="33.4708067" lon="10.116775"><ele>557.5</ele><time>2026-04-20T08:55:54.977Z</time></trkpt><trkpt lat="33.4707683" lon="10.1169167"><ele>556.25</ele><time>2026-04-20T08:55:55.977Z</time></trkpt><trkpt lat="33.4707367" lon="10.1170783"><ele>555.0</ele><time>2026-04-20T08:55:56.977Z</time></trkpt><trkpt lat="33.47069" lon="10.1172483"><ele>554.0</ele><time>2026-04-20T08:55:57.977Z</time></trkpt><trkpt lat="33.4706333" lon="10.11742"><ele>553.0</ele><time>2026-04-20T08:55:58.977Z</time></trkpt><trkpt lat="33.4705717" lon="10.1176"><ele>552.0</ele><time>2026-04-20T08:55:59.977Z</time></trkpt><trkpt lat="33.47051" lon="10.1177783"><ele>552.0</ele><time>2026-04-20T08:56:00.977Z</time></trkpt><trkpt lat="33.4704467" lon="10.11795"><ele>552.0</ele><time>2026-04-20T08:56:01.977Z</time></trkpt><trkpt lat="33.4703867" lon="10.1181217"><ele>552.0</ele><time>2026-04-20T08:56:02.977Z</time></trkpt><trkpt lat="33.4703283" lon="10.1182717"><ele>552.0</ele><time>2026-04-20T08:56:03.977Z</time></trkpt><trkpt lat="33.47026" lon="10.1184"><ele>552.0</ele><time>2026-04-20T08:56:04.977Z</time></trkpt><trkpt lat="33.470185" lon="10.1185083"><ele>552.0</ele><time>2026-04-20T08:56:05.977Z</time></trkpt><trkpt lat="33.4700783" lon="10.11858"><ele>552.0</ele><time>2026-04-20T08:56:06.977Z</time></trkpt><trkpt lat="33.469965" lon="10.1186517"><ele>552.0</ele><time>2026-04-20T08:56:07.977Z</time></trkpt><trkpt lat="33.469855" lon="10.11872"><ele>552.0</ele><time>2026-04-20T08:56:08.977Z</time></trkpt><trkpt lat="33.4697617" lon="10.118785"><ele>552.0</ele><time>2026-04-20T08:56:09.977Z</time></trkpt><trkpt lat="33.469675" lon="10.1188483"><ele>552.0</ele><time>2026-04-20T08:56:10.977Z</time></trkpt><trkpt lat="33.46958" lon="10.1188917"><ele>552.0</ele><time>2026-04-20T08:56:11.977Z</time></trkpt><trkpt lat="33.46947" lon="10.11891"><ele>550.5</ele><time>2026-04-20T08:56:12.977Z</time></trkpt><trkpt lat="33.46935" lon="10.1189417"><ele>549.0</ele><time>2026-04-20T08:56:13.977Z</time></trkpt><trkpt lat="33.4692333" lon="10.1189817"><ele>547.5</ele><time>2026-04-20T08:56:14.977Z</time></trkpt><trkpt lat="33.469125" lon="10.11905"><ele>546.0</ele><time>2026-04-20T08:56:15.977Z</time></trkpt><trkpt lat="33.46903" lon="10.1191467"><ele>544.75</ele><time>2026-04-20T08:56:16.977Z</time></trkpt><trkpt lat="33.4689417" lon="10.11927"><ele>543.5</ele><time>2026-04-20T08:56:17.977Z</time></trkpt><trkpt lat="33.4688467" lon="10.1194083"><ele>542.25</ele><time>2026-04-20T08:56:18.977Z</time></trkpt><trkpt lat="33.4687483" lon="10.1195433"><ele>541.0</ele><time>2026-04-20T08:56:19.977Z</time></trkpt><trkpt lat="33.4686483" lon="10.1196767"><ele>540.75</ele><time>2026-04-20T08:56:20.977Z</time></trkpt><trkpt lat="33.468555" lon="10.119795"><ele>540.5</ele><time>2026-04-20T08:56:21.977Z</time></trkpt><trkpt lat="33.46846" lon="10.119895"><ele>540.25</ele><time>2026-04-20T08:56:22.977Z</time></trkpt><trkpt lat="33.4683783" lon="10.1200033"><ele>540.0</ele><time>2026-04-20T08:56:23.977Z</time></trkpt><trkpt lat="33.4683183" lon="10.1201183"><ele>538.75</ele><time>2026-04-20T08:56:24.977Z</time></trkpt><trkpt lat="33.4682667" lon="10.1202517"><ele>537.5</ele><time>2026-04-20T08:56:25.977Z</time></trkpt><trkpt lat="33.46822" lon="10.1203867"><ele>536.25</ele><time>2026-04-20T08:56:26.977Z</time></trkpt><trkpt lat="33.4681683" lon="10.1205033"><ele>535.0</ele><time>2026-04-20T08:56:27.977Z</time></trkpt><trkpt lat="33.4681117" lon="10.1205983"><ele>535.0</ele><time>2026-04-20T08:56:28.977Z</time></trkpt><trkpt lat="33.46805" lon="10.1206683"><ele>535.0</ele><time>2026-04-20T08:56:29.977Z</time></trkpt><trkpt lat="33.4679983" lon="10.120745"><ele>535.0</ele><time>2026-04-20T08:56:30.977Z</time></trkpt><trkpt lat="33.4679567" lon="10.12081"><ele>535.0</ele><time>2026-04-20T08:56:31.977Z</time></trkpt><trkpt lat="33.4678933" lon="10.1209133"><ele>535.0</ele><time>2026-04-20T08:56:33.977Z</time></trkpt><trkpt lat="33.4678417" lon="10.12097"><ele>535.0</ele><time>2026-04-20T08:56:35.977Z</time></trkpt><trkpt lat="33.4677783" lon="10.1209667"><ele>533.5</ele><time>2026-04-20T08:56:37.977Z</time></trkpt><trkpt lat="33.4677033" lon="10.1209283"><ele>532.0</ele><time>2026-04-20T08:56:39.977Z</time></trkpt><trkpt lat="33.4676017" lon="10.1208833"><ele>530.5</ele><time>2026-04-20T08:56:41.977Z</time></trkpt><trkpt lat="33.467535" lon="10.1208683"><ele>529.0</ele><time>2026-04-20T08:56:42.977Z</time></trkpt><trkpt lat="33.4674567" lon="10.1208517"><ele>527.5</ele><time>2026-04-20T08:56:43.977Z</time></trkpt><trkpt lat="33.4673767" lon="10.12084"><ele>526.0</ele><time>2026-04-20T08:56:44.977Z</time></trkpt><trkpt lat="33.467305" lon="10.120835"><ele>526.0</ele><time>2026-04-20T08:56:45.977Z</time></trkpt><trkpt lat="33.4672367" lon="10.1208267"><ele>526.0</ele><time>2026-04-20T08:56:46.977Z</time></trkpt><trkpt lat="33.46717" lon="10.1208133"><ele>526.0</ele><time>2026-04-20T08:56:47.977Z</time></trkpt><trkpt lat="33.4671117" lon="10.1207833"><ele>526.0</ele><time>2026-04-20T08:56:48.977Z</time></trkpt><trkpt lat="33.4670517" lon="10.12074"><ele>526.0</ele><time>2026-04-20T08:56:49.977Z</time></trkpt><trkpt lat="33.4669967" lon="10.12069"><ele>526.0</ele><time>2026-04-20T08:56:50.977Z</time></trkpt><trkpt lat="33.46696" lon="10.1206133"><ele>526.0</ele><time>2026-04-20T08:56:51.977Z</time></trkpt><trkpt lat="33.4669583" lon="10.1205167"><ele>528.8</ele><time>2026-04-20T08:56:52.977Z</time></trkpt><trkpt lat="33.46697" lon="10.1204167"><ele>531.6</ele><time>2026-04-20T08:56:53.977Z</time></trkpt><trkpt lat="33.4669833" lon="10.12031"><ele>534.4</ele><time>2026-04-20T08:56:54.977Z</time></trkpt><trkpt lat="33.4669867" lon="10.120195"><ele>537.2</ele><time>2026-04-20T08:56:55.977Z</time></trkpt><trkpt lat="33.4669733" lon="10.1200767"><ele>540.0</ele><time>2026-04-20T08:56:56.977Z</time></trkpt><trkpt lat="33.4669567" lon="10.1199533"><ele>539.0</ele><time>2026-04-20T08:56:57.977Z</time></trkpt><trkpt lat="33.4669283" lon="10.1198383"><ele>538.0</ele><time>2026-04-20T08:56:58.977Z</time></trkpt><trkpt lat="33.4669117" lon="10.1197217"><ele>537.0</ele><time>2026-04-20T08:56:59.977Z</time></trkpt><trkpt lat="33.4668783" lon="10.11961"><ele>536.0</ele><time>2026-04-20T08:57:00.977Z</time></trkpt><trkpt lat="33.46682" lon="10.1195167"><ele>535.0</ele><time>2026-04-20T08:57:01.977Z</time></trkpt><trkpt lat="33.4667467" lon="10.119455"><ele>535.0</ele><time>2026-04-20T08:57:02.977Z</time></trkpt><trkpt lat="33.4666583" lon="10.1194167"><ele>535.0</ele><time>2026-04-20T08:57:03.977Z</time></trkpt><trkpt lat="33.466565" lon="10.1194"><ele>535.0</ele><time>2026-04-20T08:57:04.977Z</time></trkpt><trkpt lat="33.466475" lon="10.119395"><ele>535.0</ele><time>2026-04-20T08:57:05.977Z</time></trkpt><trkpt lat="33.4663717" lon="10.11941"><ele>535.0</ele><time>2026-04-20T08:57:06.977Z</time></trkpt><trkpt lat="33.4662617" lon="10.1194233"><ele>536.25</ele><time>2026-04-20T08:57:07.977Z</time></trkpt><trkpt lat="33.466155" lon="10.1194217"><ele>537.5</ele><time>2026-04-20T08:57:08.977Z</time></trkpt><trkpt lat="33.4660467" lon="10.1194233"><ele>538.75</ele><time>2026-04-20T08:57:09.977Z</time></trkpt><trkpt lat="33.4659283" lon="10.1194433"><ele>540.0</ele><time>2026-04-20T08:57:10.977Z</time></trkpt><trkpt lat="33.4658" lon="10.1194783"><ele>540.0</ele><time>2026-04-20T08:57:11.977Z</time></trkpt><trkpt lat="33.4656767" lon="10.11952"><ele>540.0</ele><time>2026-04-20T08:57:12.977Z</time></trkpt><trkpt lat="33.4655533" lon="10.1195817"><ele>540.0</ele><time>2026-04-20T08:57:13.977Z</time></trkpt><trkpt lat="33.4654283" lon="10.11966"><ele>540.0</ele><time>2026-04-20T08:57:14.977Z</time></trkpt><trkpt lat="33.46532" lon="10.11976"><ele>540.25</ele><time>2026-04-20T08:57:15.977Z</time></trkpt><trkpt lat="33.4652167" lon="10.1198717"><ele>540.5</ele><time>2026-04-20T08:57:16.977Z</time></trkpt><trkpt lat="33.4651117" lon="10.1199933"><ele>540.75</ele><time>2026-04-20T08:57:17.977Z</time></trkpt><trkpt lat="33.4649983" lon="10.1201267"><ele>541.0</ele><time>2026-04-20T08:57:18.977Z</time></trkpt><trkpt lat="33.4648767" lon="10.1202617"><ele>542.0</ele><time>2026-04-20T08:57:19.977Z</time></trkpt><trkpt lat="33.464755" lon="10.1203983"><ele>543.0</ele><time>2026-04-20T08:57:20.977Z</time></trkpt><trkpt lat="33.4646267" lon="10.1205233"><ele>544.0</ele><time>2026-04-20T08:57:21.977Z</time></trkpt><trkpt lat="33.464495" lon="10.120645"><ele>547.6666666666667</ele><time>2026-04-20T08:57:22.977Z</time></trkpt><trkpt lat="33.4643667" lon="10.1207617"><ele>551.3333333333334</ele><time>2026-04-20T08:57:23.977Z</time></trkpt><trkpt lat="33.4642433" lon="10.1208967"><ele>555.0</ele><time>2026-04-20T08:57:24.977Z</time></trkpt><trkpt lat="33.4641217" lon="10.12104"><ele>555.0</ele><time>2026-04-20T08:57:25.977Z</time></trkpt><trkpt lat="33.4640033" lon="10.1211983"><ele>555.0</ele><time>2026-04-20T08:57:26.977Z</time></trkpt><trkpt lat="33.4638917" lon="10.12137"><ele>555.0</ele><time>2026-04-20T08:57:27.977Z</time></trkpt><trkpt lat="33.4637817" lon="10.1215417"><ele>556.6666666666666</ele><time>2026-04-20T08:57:28.977Z</time></trkpt><trkpt lat="33.46368" lon="10.121715"><ele>558.3333333333333</ele><time>2026-04-20T08:57:29.977Z</time></trkpt><trkpt lat="33.46358" lon="10.1218983"><ele>560.0</ele><time>2026-04-20T08:57:30.977Z</time></trkpt><trkpt lat="33.4634917" lon="10.1220783"><ele>560.0</ele><time>2026-04-20T08:57:31.977Z</time></trkpt><trkpt lat="33.463415" lon="10.1222633"><ele>560.0</ele><time>2026-04-20T08:57:32.977Z</time></trkpt><trkpt lat="33.46336" lon="10.12245"><ele>560.0</ele><time>2026-04-20T08:57:33.977Z</time></trkpt><trkpt lat="33.4633217" lon="10.1226333"><ele>562.75</ele><time>2026-04-20T08:57:34.977Z</time></trkpt><trkpt lat="33.4632717" lon="10.1228133"><ele>565.5</ele><time>2026-04-20T08:57:35.977Z</time></trkpt><trkpt lat="33.463215" lon="10.1229517"><ele>568.25</ele><time>2026-04-20T08:57:36.977Z</time></trkpt><trkpt lat="33.4631483" lon="10.1230583"><ele>571.0</ele><time>2026-04-20T08:57:37.977Z</time></trkpt><trkpt lat="33.46305" lon="10.1231317"><ele>571.5</ele><time>2026-04-20T08:57:38.976Z</time></trkpt><trkpt lat="33.4629333" lon="10.1231833"><ele>572.0</ele><time>2026-04-20T08:57:39.976Z</time></trkpt><trkpt lat="33.4628017" lon="10.12325"><ele>572.5</ele><time>2026-04-20T08:57:40.976Z</time></trkpt><trkpt lat="33.462675" lon="10.123325"><ele>573.0</ele><time>2026-04-20T08:57:41.976Z</time></trkpt><trkpt lat="33.4625517" lon="10.12341"><ele>574.75</ele><time>2026-04-20T08:57:42.976Z</time></trkpt><trkpt lat="33.46242" lon="10.1234917"><ele>576.5</ele><time>2026-04-20T08:57:43.976Z</time></trkpt><trkpt lat="33.4622983" lon="10.1235983"><ele>578.25</ele><time>2026-04-20T08:57:44.976Z</time></trkpt><trkpt lat="33.4621783" lon="10.1236533"><ele>580.0</ele><time>2026-04-20T08:57:45.976Z</time></trkpt><trkpt lat="33.46206" lon="10.123655"><ele>582.0</ele><time>2026-04-20T08:57:46.976Z</time></trkpt><trkpt lat="33.4619317" lon="10.1236167"><ele>584.0</ele><time>2026-04-20T08:57:47.976Z</time></trkpt><trkpt lat="33.461825" lon="10.1235333"><ele>586.0</ele><time>2026-04-20T08:57:48.976Z</time></trkpt><trkpt lat="33.461715" lon="10.123425"><ele>588.0</ele><time>2026-04-20T08:57:49.976Z</time></trkpt><trkpt lat="33.4616417" lon="10.123315"><ele>588.0</ele><time>2026-04-20T08:57:50.976Z</time></trkpt><trkpt lat="33.4615533" lon="10.12325"><ele>588.0</ele><time>2026-04-20T08:57:51.976Z</time></trkpt><trkpt lat="33.46145" lon="10.12323"><ele>588.0</ele><time>2026-04-20T08:57:52.976Z</time></trkpt><trkpt lat="33.4613317" lon="10.1232383"><ele>588.0</ele><time>2026-04-20T08:57:53.976Z</time></trkpt><trkpt lat="33.46121" lon="10.123255"><ele>588.0</ele><time>2026-04-20T08:57:54.976Z</time></trkpt><trkpt lat="33.4610833" lon="10.1232683"><ele>588.0</ele><time>2026-04-20T08:57:55.976Z</time></trkpt><trkpt lat="33.46094" lon="10.1232467"><ele>588.0</ele><time>2026-04-20T08:57:56.976Z</time></trkpt><trkpt lat="33.4607967" lon="10.1232083"><ele>588.0</ele><time>2026-04-20T08:57:57.976Z</time></trkpt><trkpt lat="33.46066" lon="10.12315"><ele>588.0</ele><time>2026-04-20T08:57:58.976Z</time></trkpt><trkpt lat="33.4605283" lon="10.1231083"><ele>588.0</ele><time>2026-04-20T08:57:59.976Z</time></trkpt><trkpt lat="33.4604017" lon="10.123085"><ele>588.0</ele><time>2026-04-20T08:58:00.976Z</time></trkpt><trkpt lat="33.4602683" lon="10.1230817"><ele>588.0</ele><time>2026-04-20T08:58:01.976Z</time></trkpt><trkpt lat="33.460135" lon="10.1230983"><ele>588.0</ele><time>2026-04-20T08:58:02.976Z</time></trkpt><trkpt lat="33.4599883" lon="10.1230883"><ele>588.0</ele><time>2026-04-20T08:58:03.976Z</time></trkpt><trkpt lat="33.45984" lon="10.1230367"><ele>588.0</ele><time>2026-04-20T08:58:04.976Z</time></trkpt><trkpt lat="33.459705" lon="10.12295"><ele>588.0</ele><time>2026-04-20T08:58:05.976Z</time></trkpt><trkpt lat="33.4595633" lon="10.12287"><ele>587.75</ele><time>2026-04-20T08:58:06.976Z</time></trkpt><trkpt lat="33.45941" lon="10.122825"><ele>587.5</ele><time>2026-04-20T08:58:07.976Z</time></trkpt><trkpt lat="33.4592567" lon="10.1228033"><ele>587.25</ele><time>2026-04-20T08:58:08.976Z</time></trkpt><trkpt lat="33.4591233" lon="10.1227767"><ele>587.0</ele><time>2026-04-20T08:58:09.976Z</time></trkpt><trkpt lat="33.45902" lon="10.12272"><ele>587.0</ele><time>2026-04-20T08:58:10.976Z</time></trkpt><trkpt lat="33.458945" lon="10.1226367"><ele>587.0</ele><time>2026-04-20T08:58:11.976Z</time></trkpt><trkpt lat="33.4588783" lon="10.12253"><ele>587.0</ele><time>2026-04-20T08:58:12.976Z</time></trkpt><trkpt lat="33.4587967" lon="10.12242"><ele>587.0</ele><time>2026-04-20T08:58:13.976Z</time></trkpt><trkpt lat="33.4586917" lon="10.12234"><ele>588.75</ele><time>2026-04-20T08:58:14.976Z</time></trkpt><trkpt lat="33.45857" lon="10.1222817"><ele>590.5</ele><time>2026-04-20T08:58:15.976Z</time></trkpt><trkpt lat="33.4584467" lon="10.1222233"><ele>592.25</ele><time>2026-04-20T08:58:16.976Z</time></trkpt><trkpt lat="33.4583633" lon="10.122155"><ele>594.0</ele><time>2026-04-20T08:58:17.976Z</time></trkpt><trkpt lat="33.4583017" lon="10.12206"><ele>594.0</ele><time>2026-04-20T08:58:18.976Z</time></trkpt><trkpt lat="33.4582567" lon="10.1219383"><ele>594.0</ele><time>2026-04-20T08:58:19.976Z</time></trkpt><trkpt lat="33.4582367" lon="10.1218117"><ele>594.0</ele><time>2026-04-20T08:58:20.976Z</time></trkpt><trkpt lat="33.458245" lon="10.1216883"><ele>594.0</ele><time>2026-04-20T08:58:21.976Z</time></trkpt><trkpt lat="33.45828" lon="10.1215783"><ele>594.0</ele><time>2026-04-20T08:58:22.976Z</time></trkpt><trkpt lat="33.4582983" lon="10.1214817"><ele>593.6</ele><time>2026-04-20T08:58:23.976Z</time></trkpt><trkpt lat="33.4582633" lon="10.1213533"><ele>593.2</ele><time>2026-04-20T08:58:25.976Z</time></trkpt><trkpt lat="33.458145" lon="10.12132"><ele>592.8000000000001</ele><time>2026-04-20T08:58:27.976Z</time></trkpt><trkpt lat="33.4580717" lon="10.1213317"><ele>592.4</ele><time>2026-04-20T08:58:28.976Z</time></trkpt><trkpt lat="33.4579833" lon="10.1213467"><ele>592.0</ele><time>2026-04-20T08:58:29.976Z</time></trkpt><trkpt lat="33.4578817" lon="10.12133"><ele>592.0</ele><time>2026-04-20T08:58:30.976Z</time></trkpt><trkpt lat="33.4577833" lon="10.12128"><ele>592.0</ele><time>2026-04-20T08:58:31.976Z</time></trkpt><trkpt lat="33.4577133" lon="10.12119"><ele>592.0</ele><time>2026-04-20T08:58:32.976Z</time></trkpt><trkpt lat="33.4576667" lon="10.1210817"><ele>592.0</ele><time>2026-04-20T08:58:33.976Z</time></trkpt><trkpt lat="33.45763" lon="10.1209583"><ele>592.0</ele><time>2026-04-20T08:58:34.976Z</time></trkpt><trkpt lat="33.45759" lon="10.1208283"><ele>591.5</ele><time>2026-04-20T08:58:35.976Z</time></trkpt><trkpt lat="33.457545" lon="10.1206967"><ele>591.0</ele><time>2026-04-20T08:58:36.976Z</time></trkpt><trkpt lat="33.4574917" lon="10.1205683"><ele>590.5</ele><time>2026-04-20T08:58:37.976Z</time></trkpt><trkpt lat="33.4574317" lon="10.1204433"><ele>590.0</ele><time>2026-04-20T08:58:38.976Z</time></trkpt><trkpt lat="33.45737" lon="10.1203117"><ele>590.0</ele><time>2026-04-20T08:58:39.976Z</time></trkpt><trkpt lat="33.4573033" lon="10.1201767"><ele>590.0</ele><time>2026-04-20T08:58:40.976Z</time></trkpt><trkpt lat="33.45724" lon="10.1200383"><ele>590.0</ele><time>2026-04-20T08:58:41.976Z</time></trkpt><trkpt lat="33.45719" lon="10.11991"><ele>590.0</ele><time>2026-04-20T08:58:42.976Z</time></trkpt><trkpt lat="33.45715" lon="10.11979"><ele>589.6</ele><time>2026-04-20T08:58:43.976Z</time></trkpt><trkpt lat="33.457135" lon="10.11967"><ele>589.2</ele><time>2026-04-20T08:58:44.976Z</time></trkpt><trkpt lat="33.4571583" lon="10.1195417"><ele>588.8</ele><time>2026-04-20T08:58:45.976Z</time></trkpt><trkpt lat="33.4571967" lon="10.1194117"><ele>588.4</ele><time>2026-04-20T08:58:46.976Z</time></trkpt><trkpt lat="33.457225" lon="10.1192783"><ele>588.0</ele><time>2026-04-20T08:58:47.976Z</time></trkpt><trkpt lat="33.4572217" lon="10.11915"><ele>587.6666666666666</ele><time>2026-04-20T08:58:48.976Z</time></trkpt><trkpt lat="33.4572" lon="10.11904"><ele>587.3333333333334</ele><time>2026-04-20T08:58:49.976Z</time></trkpt><trkpt lat="33.45715" lon="10.1189567"><ele>587.0</ele><time>2026-04-20T08:58:50.976Z</time></trkpt><trkpt lat="33.457085" lon="10.11889"><ele>586.6666666666667</ele><time>2026-04-20T08:58:51.976Z</time></trkpt><trkpt lat="33.4570017" lon="10.1188533"><ele>586.3333333333334</ele><time>2026-04-20T08:58:52.976Z</time></trkpt><trkpt lat="33.4569083" lon="10.1188467"><ele>586.0</ele><time>2026-04-20T08:58:53.976Z</time></trkpt><trkpt lat="33.4568033" lon="10.1188567"><ele>584.0</ele><time>2026-04-20T08:58:54.976Z</time></trkpt><trkpt lat="33.4566867" lon="10.11887"><ele>582.0</ele><time>2026-04-20T08:58:55.976Z</time></trkpt><trkpt lat="33.4565667" lon="10.1188633"><ele>580.0</ele><time>2026-04-20T08:58:56.976Z</time></trkpt><trkpt lat="33.4564533" lon="10.1188217"><ele>578.0</ele><time>2026-04-20T08:58:57.976Z</time></trkpt><trkpt lat="33.45635" lon="10.11875"><ele>577.25</ele><time>2026-04-20T08:58:58.976Z</time></trkpt><trkpt lat="33.45625" lon="10.11866"><ele>576.5</ele><time>2026-04-20T08:58:59.976Z</time></trkpt><trkpt lat="33.4561317" lon="10.1185667"><ele>575.75</ele><time>2026-04-20T08:59:00.976Z</time></trkpt><trkpt lat="33.4559967" lon="10.11848"><ele>575.0</ele><time>2026-04-20T08:59:01.976Z</time></trkpt><trkpt lat="33.4558683" lon="10.118395"><ele>575.0</ele><time>2026-04-20T08:59:02.976Z</time></trkpt><trkpt lat="33.4557517" lon="10.1182917"><ele>575.0</ele><time>2026-04-20T08:59:03.976Z</time></trkpt><trkpt lat="33.4556467" lon="10.1181933"><ele>575.0</ele><time>2026-04-20T08:59:04.976Z</time></trkpt><trkpt lat="33.45553" lon="10.1181067"><ele>575.0</ele><time>2026-04-20T08:59:05.976Z</time></trkpt><trkpt lat="33.4554133" lon="10.1180667"><ele>575.75</ele><time>2026-04-20T08:59:06.976Z</time></trkpt><trkpt lat="33.4553" lon="10.11808"><ele>576.5</ele><time>2026-04-20T08:59:07.976Z</time></trkpt><trkpt lat="33.4551983" lon="10.1181367"><ele>577.25</ele><time>2026-04-20T08:59:08.976Z</time></trkpt><trkpt lat="33.4550917" lon="10.1182133"><ele>578.0</ele><time>2026-04-20T08:59:09.976Z</time></trkpt><trkpt lat="33.4549883" lon="10.1182983"><ele>578.1666666666666</ele><time>2026-04-20T08:59:10.976Z</time></trkpt><trkpt lat="33.454895" lon="10.11837"><ele>578.3333333333333</ele><time>2026-04-20T08:59:11.976Z</time></trkpt><trkpt lat="33.4548183" lon="10.1184283"><ele>578.5</ele><time>2026-04-20T08:59:12.976Z</time></trkpt><trkpt lat="33.4547517" lon="10.1184467"><ele>578.6666666666666</ele><time>2026-04-20T08:59:13.976Z</time></trkpt><trkpt lat="33.4546867" lon="10.1184383"><ele>578.8333333333334</ele><time>2026-04-20T08:59:14.976Z</time></trkpt><trkpt lat="33.4546483" lon="10.11837"><ele>579.0</ele><time>2026-04-20T08:59:15.976Z</time></trkpt><trkpt lat="33.4546183" lon="10.1182617"><ele>578.0</ele><time>2026-04-20T08:59:16.976Z</time></trkpt><trkpt lat="33.4545883" lon="10.118125"><ele>577.0</ele><time>2026-04-20T08:59:17.976Z</time></trkpt><trkpt lat="33.4545467" lon="10.1179833"><ele>576.0</ele><time>2026-04-20T08:59:18.976Z</time></trkpt><trkpt lat="33.4545033" lon="10.1178383"><ele>575.0</ele><time>2026-04-20T08:59:19.976Z</time></trkpt><trkpt lat="33.4544533" lon="10.1177117"><ele>575.0</ele><time>2026-04-20T08:59:20.976Z</time></trkpt><trkpt lat="33.4543833" lon="10.1176167"><ele>575.0</ele><time>2026-04-20T08:59:21.976Z</time></trkpt><trkpt lat="33.4542983" lon="10.1175467"><ele>575.0</ele><time>2026-04-20T08:59:22.976Z</time></trkpt><trkpt lat="33.454205" lon="10.117495"><ele>575.0</ele><time>2026-04-20T08:59:23.976Z</time></trkpt><trkpt lat="33.4541267" lon="10.1174417"><ele>575.0</ele><time>2026-04-20T08:59:24.976Z</time></trkpt><trkpt lat="33.4540733" lon="10.1173517"><ele>573.25</ele><time>2026-04-20T08:59:25.976Z</time></trkpt><trkpt lat="33.4540283" lon="10.1172333"><ele>571.5</ele><time>2026-04-20T08:59:26.976Z</time></trkpt><trkpt lat="33.4539733" lon="10.1171233"><ele>569.75</ele><time>2026-04-20T08:59:27.976Z</time></trkpt><trkpt lat="33.4538867" lon="10.117015"><ele>568.0</ele><time>2026-04-20T08:59:28.976Z</time></trkpt><trkpt lat="33.45376" lon="10.1169167"><ele>565.3333333333334</ele><time>2026-04-20T08:59:29.976Z</time></trkpt><trkpt lat="33.45361" lon="10.1168267"><ele>562.6666666666666</ele><time>2026-04-20T08:59:30.976Z</time></trkpt><trkpt lat="33.4534583" lon="10.116725"><ele>560.0</ele><time>2026-04-20T08:59:31.976Z</time></trkpt><trkpt lat="33.4533233" lon="10.1166217"><ele>558.6666666666666</ele><time>2026-04-20T08:59:32.976Z</time></trkpt><trkpt lat="33.4532133" lon="10.1164967"><ele>557.3333333333334</ele><time>2026-04-20T08:59:33.976Z</time></trkpt><trkpt lat="33.4531067" lon="10.1163633"><ele>556.0</ele><time>2026-04-20T08:59:34.976Z</time></trkpt><trkpt lat="33.452985" lon="10.1162217"><ele>554.6666666666667</ele><time>2026-04-20T08:59:35.976Z</time></trkpt><trkpt lat="33.4528433" lon="10.116105"><ele>553.3333333333334</ele><time>2026-04-20T08:59:36.976Z</time></trkpt><trkpt lat="33.45269" lon="10.11601"><ele>552.0</ele><time>2026-04-20T08:59:37.976Z</time></trkpt><trkpt lat="33.4525433" lon="10.11593"><ele>552.0</ele><time>2026-04-20T08:59:38.976Z</time></trkpt><trkpt lat="33.45241" lon="10.11589"><ele>552.0</ele><time>2026-04-20T08:59:39.977Z</time></trkpt><trkpt lat="33.4522933" lon="10.1158683"><ele>552.0</ele><time>2026-04-20T08:59:40.976Z</time></trkpt><trkpt lat="33.4521967" lon="10.1158383"><ele>552.0</ele><time>2026-04-20T08:59:41.976Z</time></trkpt><trkpt lat="33.452125" lon="10.11579"><ele>552.0</ele><time>2026-04-20T08:59:42.976Z</time></trkpt><trkpt lat="33.452085" lon="10.1157233"><ele>552.0</ele><time>2026-04-20T08:59:43.976Z</time></trkpt><trkpt lat="33.45211" lon="10.1156133"><ele>552.0</ele><time>2026-04-20T08:59:44.976Z</time></trkpt><trkpt lat="33.4521533" lon="10.1154833"><ele>552.0</ele><time>2026-04-20T08:59:45.976Z</time></trkpt><trkpt lat="33.45217" lon="10.1153417"><ele>552.0</ele><time>2026-04-20T08:59:46.976Z</time></trkpt><trkpt lat="33.4521733" lon="10.115235"><ele>552.0</ele><time>2026-04-20T08:59:47.976Z</time></trkpt><trkpt lat="33.4521483" lon="10.1151467"><ele>551.4</ele><time>2026-04-20T08:59:48.976Z</time></trkpt><trkpt lat="33.452095" lon="10.1150717"><ele>550.8000000000001</ele><time>2026-04-20T08:59:49.976Z</time></trkpt><trkpt lat="33.45201" lon="10.1150167"><ele>550.2</ele><time>2026-04-20T08:59:50.976Z</time></trkpt><trkpt lat="33.451905" lon="10.114975"><ele>549.6</ele><time>2026-04-20T08:59:51.976Z</time></trkpt><trkpt lat="33.4517867" lon="10.1149217"><ele>549.0</ele><time>2026-04-20T08:59:52.976Z</time></trkpt><trkpt lat="33.45167" lon="10.114865"><ele>549.0</ele><time>2026-04-20T08:59:53.976Z</time></trkpt><trkpt lat="33.45153" lon="10.1148183"><ele>549.0</ele><time>2026-04-20T08:59:54.976Z</time></trkpt><trkpt lat="33.451385" lon="10.1147833"><ele>549.0</ele><time>2026-04-20T08:59:55.976Z</time></trkpt><trkpt lat="33.4512317" lon="10.11476"><ele>549.0</ele><time>2026-04-20T08:59:56.976Z</time></trkpt><trkpt lat="33.451085" lon="10.1147433"><ele>547.3333333333334</ele><time>2026-04-20T08:59:57.976Z</time></trkpt><trkpt lat="33.4509217" lon="10.1147083"><ele>545.6666666666667</ele><time>2026-04-20T08:59:58.976Z</time></trkpt><trkpt lat="33.450755" lon="10.114655"><ele>544.0</ele><time>2026-04-20T08:59:59.976Z</time></trkpt><trkpt lat="33.45059" lon="10.1145867"><ele>545.6666666666667</ele><time>2026-04-20T09:00:00.976Z</time></trkpt><trkpt lat="33.4504133" lon="10.1145117"><ele>547.3333333333334</ele><time>2026-04-20T09:00:01.976Z</time></trkpt><trkpt lat="33.450235" lon="10.1144417"><ele>549.0</ele><time>2026-04-20T09:00:02.976Z</time></trkpt><trkpt lat="33.4500633" lon="10.1143767"><ele>549.0</ele><time>2026-04-20T09:00:03.976Z</time></trkpt><trkpt lat="33.4499017" lon="10.1143117"><ele>549.0</ele><time>2026-04-20T09:00:04.976Z</time></trkpt><trkpt lat="33.449735" lon="10.1142583"><ele>549.0</ele><time>2026-04-20T09:00:05.976Z</time></trkpt><trkpt lat="33.4495567" lon="10.11424"><ele>550.3333333333334</ele><time>2026-04-20T09:00:06.976Z</time></trkpt><trkpt lat="33.44938" lon="10.1142317"><ele>551.6666666666667</ele><time>2026-04-20T09:00:07.976Z</time></trkpt><trkpt lat="33.449205" lon="10.1142283"><ele>553.0</ele><time>2026-04-20T09:00:08.976Z</time></trkpt><trkpt lat="33.4490283" lon="10.11423"><ele>553.0</ele><time>2026-04-20T09:00:09.976Z</time></trkpt><trkpt lat="33.448855" lon="10.1142383"><ele>553.0</ele><time>2026-04-20T09:00:10.976Z</time></trkpt><trkpt lat="33.44869" lon="10.1142633"><ele>553.0</ele><time>2026-04-20T09:00:11.976Z</time></trkpt><trkpt lat="33.4485383" lon="10.114315"><ele>553.4</ele><time>2026-04-20T09:00:12.976Z</time></trkpt><trkpt lat="33.44841" lon="10.114365"><ele>553.8</ele><time>2026-04-20T09:00:13.976Z</time></trkpt><trkpt lat="33.448305" lon="10.1143967"><ele>554.2</ele><time>2026-04-20T09:00:14.976Z</time></trkpt><trkpt lat="33.448205" lon="10.1144017"><ele>554.6</ele><time>2026-04-20T09:00:15.976Z</time></trkpt><trkpt lat="33.44812" lon="10.1143567"><ele>555.0</ele><time>2026-04-20T09:00:16.976Z</time></trkpt><trkpt lat="33.4480633" lon="10.1142667"><ele>555.0</ele><time>2026-04-20T09:00:17.976Z</time></trkpt><trkpt lat="33.44803" lon="10.1141567"><ele>555.0</ele><time>2026-04-20T09:00:18.976Z</time></trkpt><trkpt lat="33.4479983" lon="10.114035"><ele>555.0</ele><time>2026-04-20T09:00:19.976Z</time></trkpt><trkpt lat="33.4479517" lon="10.1139033"><ele>555.0</ele><time>2026-04-20T09:00:20.976Z</time></trkpt><trkpt lat="33.4478733" lon="10.11379"><ele>555.0</ele><time>2026-04-20T09:00:21.976Z</time></trkpt><trkpt lat="33.44777" lon="10.11368"><ele>557.75</ele><time>2026-04-20T09:00:22.976Z</time></trkpt><trkpt lat="33.4476483" lon="10.1136067"><ele>560.5</ele><time>2026-04-20T09:00:23.976Z</time></trkpt><trkpt lat="33.4475117" lon="10.1135717"><ele>563.25</ele><time>2026-04-20T09:00:24.976Z</time></trkpt><trkpt lat="33.4473633" lon="10.11356"><ele>566.0</ele><time>2026-04-20T09:00:25.976Z</time></trkpt><trkpt lat="33.44722" lon="10.113565"><ele>568.25</ele><time>2026-04-20T09:00:26.976Z</time></trkpt><trkpt lat="33.4470933" lon="10.1135767"><ele>570.5</ele><time>2026-04-20T09:00:27.976Z</time></trkpt><trkpt lat="33.4469367" lon="10.1135617"><ele>572.75</ele><time>2026-04-20T09:00:28.976Z</time></trkpt><trkpt lat="33.446795" lon="10.1135283"><ele>575.0</ele><time>2026-04-20T09:00:29.976Z</time></trkpt><trkpt lat="33.4466517" lon="10.1134683"><ele>575.0</ele><time>2026-04-20T09:00:30.976Z</time></trkpt><trkpt lat="33.4465117" lon="10.1134083"><ele>575.0</ele><time>2026-04-20T09:00:31.976Z</time></trkpt><trkpt lat="33.4463817" lon="10.1133467"><ele>575.0</ele><time>2026-04-20T09:00:32.976Z</time></trkpt><trkpt lat="33.446255" lon="10.1132917"><ele>575.0</ele><time>2026-04-20T09:00:33.976Z</time></trkpt><trkpt lat="33.4461367" lon="10.1132283"><ele>576.25</ele><time>2026-04-20T09:00:34.976Z</time></trkpt><trkpt lat="33.4460333" lon="10.1131467"><ele>577.5</ele><time>2026-04-20T09:00:35.976Z</time></trkpt><trkpt lat="33.4459283" lon="10.1130567"><ele>578.75</ele><time>2026-04-20T09:00:36.976Z</time></trkpt><trkpt lat="33.445835" lon="10.1129417"><ele>580.0</ele><time>2026-04-20T09:00:37.976Z</time></trkpt><trkpt lat="33.44575" lon="10.112825"><ele>580.0</ele><time>2026-04-20T09:00:38.976Z</time></trkpt><trkpt lat="33.44563" lon="10.1127333"><ele>580.0</ele><time>2026-04-20T09:00:39.976Z</time></trkpt><trkpt lat="33.4455117" lon="10.1126967"><ele>580.0</ele><time>2026-04-20T09:00:40.976Z</time></trkpt><trkpt lat="33.44539" lon="10.1126883"><ele>580.0</ele><time>2026-04-20T09:00:41.976Z</time></trkpt><trkpt lat="33.445275" lon="10.11271"><ele>579.0</ele><time>2026-04-20T09:00:42.976Z</time></trkpt><trkpt lat="33.445155" lon="10.1127283"><ele>578.0</ele><time>2026-04-20T09:00:43.976Z</time></trkpt><trkpt lat="33.445035" lon="10.11272"><ele>577.0</ele><time>2026-04-20T09:00:44.976Z</time></trkpt><trkpt lat="33.4449133" lon="10.11268"><ele>576.0</ele><time>2026-04-20T09:00:45.976Z</time></trkpt><trkpt lat="33.444795" lon="10.1126317"><ele>576.0</ele><time>2026-04-20T09:00:46.976Z</time></trkpt><trkpt lat="33.4446683" lon="10.1125833"><ele>576.0</ele><time>2026-04-20T09:00:47.976Z</time></trkpt><trkpt lat="33.4445283" lon="10.112555"><ele>576.0</ele><time>2026-04-20T09:00:48.976Z</time></trkpt><trkpt lat="33.4443817" lon="10.1125533"><ele>576.0</ele><time>2026-04-20T09:00:49.976Z</time></trkpt><trkpt lat="33.4442333" lon="10.1126017"><ele>577.25</ele><time>2026-04-20T09:00:50.976Z</time></trkpt><trkpt lat="33.4440883" lon="10.1126733"><ele>578.5</ele><time>2026-04-20T09:00:51.976Z</time></trkpt><trkpt lat="33.4439567" lon="10.1127567"><ele>579.75</ele><time>2026-04-20T09:00:52.976Z</time></trkpt><trkpt lat="33.4438383" lon="10.1128517"><ele>581.0</ele><time>2026-04-20T09:00:53.976Z</time></trkpt><trkpt lat="33.4437333" lon="10.1129717"><ele>581.2</ele><time>2026-04-20T09:00:54.976Z</time></trkpt><trkpt lat="33.4436583" lon="10.1131033"><ele>581.4000000000001</ele><time>2026-04-20T09:00:55.976Z</time></trkpt><trkpt lat="33.4436033" lon="10.11323"><ele>581.6</ele><time>2026-04-20T09:00:56.976Z</time></trkpt><trkpt lat="33.4435533" lon="10.1133267"><ele>581.8000000000001</ele><time>2026-04-20T09:00:57.976Z</time></trkpt><trkpt lat="33.4434883" lon="10.113395"><ele>582.0</ele><time>2026-04-20T09:00:58.976Z</time></trkpt><trkpt lat="33.4434167" lon="10.1134317"><ele>582.75</ele><time>2026-04-20T09:00:59.976Z</time></trkpt><trkpt lat="33.4433267" lon="10.11346"><ele>583.5</ele><time>2026-04-20T09:01:00.976Z</time></trkpt><trkpt lat="33.4432033" lon="10.1134517"><ele>584.25</ele><time>2026-04-20T09:01:01.976Z</time></trkpt><trkpt lat="33.4430667" lon="10.1134533"><ele>585.0</ele><time>2026-04-20T09:01:02.976Z</time></trkpt><trkpt lat="33.4429267" lon="10.1134717"><ele>585.0</ele><time>2026-04-20T09:01:03.976Z</time></trkpt><trkpt lat="33.4427783" lon="10.1135067"><ele>585.0</ele><time>2026-04-20T09:01:04.976Z</time></trkpt><trkpt lat="33.4426183" lon="10.1135533"><ele>585.0</ele><time>2026-04-20T09:01:05.976Z</time></trkpt><trkpt lat="33.44246" lon="10.1136133"><ele>585.0</ele><time>2026-04-20T09:01:06.976Z</time></trkpt><trkpt lat="33.4423083" lon="10.113685"><ele>585.0</ele><time>2026-04-20T09:01:07.976Z</time></trkpt><trkpt lat="33.4421517" lon="10.1137633"><ele>585.0</ele><time>2026-04-20T09:01:08.976Z</time></trkpt><trkpt lat="33.4419933" lon="10.1138383"><ele>583.6666666666666</ele><time>2026-04-20T09:01:09.976Z</time></trkpt><trkpt lat="33.4418217" lon="10.1138883"><ele>582.3333333333333</ele><time>2026-04-20T09:01:10.976Z</time></trkpt><trkpt lat="33.4416617" lon="10.11393"><ele>581.0</ele><time>2026-04-20T09:01:11.976Z</time></trkpt><trkpt lat="33.441525" lon="10.114"><ele>583.5</ele><time>2026-04-20T09:01:12.976Z</time></trkpt><trkpt lat="33.4414183" lon="10.1140983"><ele>586.0</ele><time>2026-04-20T09:01:13.976Z</time></trkpt><trkpt lat="33.4413183" lon="10.1142033"><ele>588.5</ele><time>2026-04-20T09:01:14.976Z</time></trkpt><trkpt lat="33.4412167" lon="10.1143167"><ele>591.0</ele><time>2026-04-20T09:01:15.976Z</time></trkpt><trkpt lat="33.4411333" lon="10.1144167"><ele>592.1666666666666</ele><time>2026-04-20T09:01:16.976Z</time></trkpt><trkpt lat="33.441055" lon="10.1144967"><ele>593.3333333333334</ele><time>2026-04-20T09:01:17.976Z</time></trkpt><trkpt lat="33.44099" lon="10.1145617"><ele>594.5</ele><time>2026-04-20T09:01:18.976Z</time></trkpt><trkpt lat="33.440935" lon="10.1146167"><ele>595.6666666666667</ele><time>2026-04-20T09:01:19.976Z</time></trkpt><trkpt lat="33.4408683" lon="10.1146917"><ele>596.8333333333334</ele><time>2026-04-20T09:01:21.975Z</time></trkpt><trkpt lat="33.4407917" lon="10.1147283"><ele>598.0</ele><time>2026-04-20T09:01:24.975Z</time></trkpt><trkpt lat="33.4407067" lon="10.114785"><ele>598.0</ele><time>2026-04-20T09:01:27.975Z</time></trkpt><trkpt lat="33.440635" lon="10.1148367"><ele>598.0</ele><time>2026-04-20T09:01:29.975Z</time></trkpt><trkpt lat="33.4405517" lon="10.1149267"><ele>598.0</ele><time>2026-04-20T09:01:31.975Z</time></trkpt><trkpt lat="33.440505" lon="10.1149833"><ele>598.0</ele><time>2026-04-20T09:01:32.975Z</time></trkpt><trkpt lat="33.44046" lon="10.1150467"><ele>598.0</ele><time>2026-04-20T09:01:33.975Z</time></trkpt><trkpt lat="33.4404133" lon="10.1151083"><ele>598.0</ele><time>2026-04-20T09:01:34.975Z</time></trkpt><trkpt lat="33.4403617" lon="10.1151783"><ele>597.0</ele><time>2026-04-20T09:01:35.975Z</time></trkpt><trkpt lat="33.440305" lon="10.1152683"><ele>596.0</ele><time>2026-04-20T09:01:36.975Z</time></trkpt><trkpt lat="33.4402333" lon="10.1153583"><ele>595.0</ele><time>2026-04-20T09:01:37.975Z</time></trkpt><trkpt lat="33.44015" lon="10.115445"><ele>594.0</ele><time>2026-04-20T09:01:38.975Z</time></trkpt><trkpt lat="33.44005" lon="10.1155383"><ele>593.0</ele><time>2026-04-20T09:01:39.975Z</time></trkpt><trkpt lat="33.439945" lon="10.1156483"><ele>593.75</ele><time>2026-04-20T09:01:40.975Z</time></trkpt><trkpt lat="33.439855" lon="10.1157733"><ele>594.5</ele><time>2026-04-20T09:01:41.975Z</time></trkpt><trkpt lat="33.43977" lon="10.1159183"><ele>595.25</ele><time>2026-04-20T09:01:42.975Z</time></trkpt><trkpt lat="33.4396867" lon="10.1160717"><ele>596.0</ele><time>2026-04-20T09:01:43.975Z</time></trkpt><trkpt lat="33.4396083" lon="10.1162283"><ele>596.0</ele><time>2026-04-20T09:01:44.975Z</time></trkpt><trkpt lat="33.4395167" lon="10.1163667"><ele>596.0</ele><time>2026-04-20T09:01:45.975Z</time></trkpt><trkpt lat="33.4394167" lon="10.1165133"><ele>596.0</ele><time>2026-04-20T09:01:46.975Z</time></trkpt><trkpt lat="33.4393" lon="10.1166467"><ele>596.25</ele><time>2026-04-20T09:01:47.975Z</time></trkpt><trkpt lat="33.4391867" lon="10.1167733"><ele>596.5</ele><time>2026-04-20T09:01:48.975Z</time></trkpt><trkpt lat="33.4391" lon="10.1169067"><ele>596.75</ele><time>2026-04-20T09:01:49.975Z</time></trkpt><trkpt lat="33.43905" lon="10.11706"><ele>597.0</ele><time>2026-04-20T09:01:50.975Z</time></trkpt><trkpt lat="33.43903" lon="10.1172333"><ele>598.0</ele><time>2026-04-20T09:01:51.975Z</time></trkpt><trkpt lat="33.43902" lon="10.11742"><ele>599.0</ele><time>2026-04-20T09:01:52.975Z</time></trkpt><trkpt lat="33.4390317" lon="10.1176067"><ele>600.0</ele><time>2026-04-20T09:01:53.975Z</time></trkpt><trkpt lat="33.439045" lon="10.117775"><ele>600.0</ele><time>2026-04-20T09:01:54.975Z</time></trkpt><trkpt lat="33.4390817" lon="10.1179167"><ele>600.0</ele><time>2026-04-20T09:01:55.975Z</time></trkpt><trkpt lat="33.43913" lon="10.1180617"><ele>600.0</ele><time>2026-04-20T09:01:56.975Z</time></trkpt><trkpt lat="33.4391683" lon="10.11822"><ele>600.0</ele><time>2026-04-20T09:01:57.975Z</time></trkpt><trkpt lat="33.4392017" lon="10.11839"><ele>601.25</ele><time>2026-04-20T09:01:58.975Z</time></trkpt><trkpt lat="33.439225" lon="10.1185733"><ele>602.5</ele><time>2026-04-20T09:01:59.975Z</time></trkpt><trkpt lat="33.4392417" lon="10.1187217"><ele>603.75</ele><time>2026-04-20T09:02:00.975Z</time></trkpt><trkpt lat="33.4392517" lon="10.1188617"><ele>605.0</ele><time>2026-04-20T09:02:01.975Z</time></trkpt><trkpt lat="33.439255" lon="10.1190083"><ele>604.75</ele><time>2026-04-20T09:02:02.975Z</time></trkpt><trkpt lat="33.4392617" lon="10.119165"><ele>604.5</ele><time>2026-04-20T09:02:03.975Z</time></trkpt><trkpt lat="33.439255" lon="10.1193367"><ele>604.25</ele><time>2026-04-20T09:02:04.975Z</time></trkpt><trkpt lat="33.4392417" lon="10.11951"><ele>604.0</ele><time>2026-04-20T09:02:05.975Z</time></trkpt><trkpt lat="33.439195" lon="10.11966"><ele>604.0</ele><time>2026-04-20T09:02:06.975Z</time></trkpt><trkpt lat="33.4391383" lon="10.1198033"><ele>604.0</ele><time>2026-04-20T09:02:07.975Z</time></trkpt><trkpt lat="33.4390617" lon="10.1199333"><ele>604.0</ele><time>2026-04-20T09:02:08.975Z</time></trkpt><trkpt lat="33.438975" lon="10.1200283"><ele>604.0</ele><time>2026-04-20T09:02:09.975Z</time></trkpt><trkpt lat="33.43887" lon="10.120095"><ele>603.5</ele><time>2026-04-20T09:02:10.975Z</time></trkpt><trkpt lat="33.4387667" lon="10.1201467"><ele>603.0</ele><time>2026-04-20T09:02:11.975Z</time></trkpt><trkpt lat="33.43864" lon="10.1201733"><ele>602.5</ele><time>2026-04-20T09:02:12.975Z</time></trkpt><trkpt lat="33.438515" lon="10.1202133"><ele>602.0</ele><time>2026-04-20T09:02:13.975Z</time></trkpt><trkpt lat="33.4383883" lon="10.12025"><ele>602.0</ele><time>2026-04-20T09:02:14.975Z</time></trkpt><trkpt lat="33.438265" lon="10.1202933"><ele>602.0</ele><time>2026-04-20T09:02:15.975Z</time></trkpt><trkpt lat="33.4381517" lon="10.120335"><ele>602.0</ele><time>2026-04-20T09:02:16.975Z</time></trkpt><trkpt lat="33.43804" lon="10.1203867"><ele>602.0</ele><time>2026-04-20T09:02:17.975Z</time></trkpt><trkpt lat="33.4379283" lon="10.120445"><ele>602.25</ele><time>2026-04-20T09:02:18.975Z</time></trkpt><trkpt lat="33.43782" lon="10.1205167"><ele>602.5</ele><time>2026-04-20T09:02:19.975Z</time></trkpt><trkpt lat="33.4376933" lon="10.1205917"><ele>602.75</ele><time>2026-04-20T09:02:20.975Z</time></trkpt><trkpt lat="33.437555" lon="10.12067"><ele>603.0</ele><time>2026-04-20T09:02:21.975Z</time></trkpt><trkpt lat="33.4374083" lon="10.1207383"><ele>603.0</ele><time>2026-04-20T09:02:22.975Z</time></trkpt><trkpt lat="33.4372583" lon="10.1208233"><ele>603.0</ele><time>2026-04-20T09:02:23.975Z</time></trkpt><trkpt lat="33.4371283" lon="10.1209"><ele>603.0</ele><time>2026-04-20T09:02:24.976Z</time></trkpt><trkpt lat="33.4370117" lon="10.1209933"><ele>603.25</ele><time>2026-04-20T09:02:25.975Z</time></trkpt><trkpt lat="33.4368917" lon="10.121065"><ele>603.5</ele><time>2026-04-20T09:02:26.975Z</time></trkpt><trkpt lat="33.4367583" lon="10.1211233"><ele>603.75</ele><time>2026-04-20T09:02:27.975Z</time></trkpt><trkpt lat="33.4366133" lon="10.1211617"><ele>604.0</ele><time>2026-04-20T09:02:28.975Z</time></trkpt><trkpt lat="33.436455" lon="10.1211633"><ele>600.6666666666667</ele><time>2026-04-20T09:02:29.975Z</time></trkpt><trkpt lat="33.4362967" lon="10.1211633"><ele>597.3333333333334</ele><time>2026-04-20T09:02:30.975Z</time></trkpt><trkpt lat="33.43614" lon="10.12118"><ele>594.0</ele><time>2026-04-20T09:02:31.975Z</time></trkpt><trkpt lat="33.436005" lon="10.121215"><ele>594.0</ele><time>2026-04-20T09:02:32.975Z</time></trkpt><trkpt lat="33.4359083" lon="10.1212767"><ele>594.0</ele><time>2026-04-20T09:02:33.975Z</time></trkpt><trkpt lat="33.43585" lon="10.1213767"><ele>594.0</ele><time>2026-04-20T09:02:34.975Z</time></trkpt><trkpt lat="33.4358267" lon="10.121495"><ele>594.0</ele><time>2026-04-20T09:02:35.975Z</time></trkpt><trkpt lat="33.4358217" lon="10.1216383"><ele>594.0</ele><time>2026-04-20T09:02:36.975Z</time></trkpt><trkpt lat="33.4358067" lon="10.1217933"><ele>596.25</ele><time>2026-04-20T09:02:37.975Z</time></trkpt><trkpt lat="33.4357517" lon="10.1219367"><ele>598.5</ele><time>2026-04-20T09:02:38.975Z</time></trkpt><trkpt lat="33.4356483" lon="10.122045"><ele>600.75</ele><time>2026-04-20T09:02:39.975Z</time></trkpt><trkpt lat="33.43554" lon="10.1221483"><ele>603.0</ele><time>2026-04-20T09:02:40.975Z</time></trkpt><trkpt lat="33.4354383" lon="10.1222567"><ele>603.0</ele><time>2026-04-20T09:02:41.975Z</time></trkpt><trkpt lat="33.4353617" lon="10.1223567"><ele>603.0</ele><time>2026-04-20T09:02:42.975Z</time></trkpt><trkpt lat="33.4353017" lon="10.1224367"><ele>603.0</ele><time>2026-04-20T09:02:43.975Z</time></trkpt><trkpt lat="33.4352517" lon="10.12249"><ele>603.0</ele><time>2026-04-20T09:02:44.975Z</time></trkpt><trkpt lat="33.4351817" lon="10.1225067"><ele>603.0</ele><time>2026-04-20T09:02:45.975Z</time></trkpt><trkpt lat="33.435095" lon="10.1225067"><ele>603.0</ele><time>2026-04-20T09:02:46.975Z</time></trkpt><trkpt lat="33.4349833" lon="10.1224883"><ele>603.5</ele><time>2026-04-20T09:02:47.975Z</time></trkpt><trkpt lat="33.43486" lon="10.1224383"><ele>604.0</ele><time>2026-04-20T09:02:48.975Z</time></trkpt><trkpt lat="33.4347283" lon="10.1224033"><ele>604.5</ele><time>2026-04-20T09:02:49.975Z</time></trkpt><trkpt lat="33.4345833" lon="10.1223683"><ele>605.0</ele><time>2026-04-20T09:02:50.975Z</time></trkpt><trkpt lat="33.4344367" lon="10.122345"><ele>601.6666666666666</ele><time>2026-04-20T09:02:51.975Z</time></trkpt><trkpt lat="33.4342783" lon="10.1223183"><ele>598.3333333333334</ele><time>2026-04-20T09:02:52.975Z</time></trkpt><trkpt lat="33.4341183" lon="10.122285"><ele>595.0</ele><time>2026-04-20T09:02:53.975Z</time></trkpt><trkpt lat="33.433965" lon="10.12226"><ele>595.0</ele><time>2026-04-20T09:02:54.975Z</time></trkpt><trkpt lat="33.4338217" lon="10.12225"><ele>595.0</ele><time>2026-04-20T09:02:55.975Z</time></trkpt><trkpt lat="33.43369" lon="10.122265"><ele>595.0</ele><time>2026-04-20T09:02:56.975Z</time></trkpt><trkpt lat="33.433585" lon="10.122295"><ele>595.0</ele><time>2026-04-20T09:02:57.975Z</time></trkpt><trkpt lat="33.4334967" lon="10.1223517"><ele>599.25</ele><time>2026-04-20T09:02:58.975Z</time></trkpt><trkpt lat="33.43341" lon="10.122435"><ele>603.5</ele><time>2026-04-20T09:02:59.975Z</time></trkpt><trkpt lat="33.43332" lon="10.122535"><ele>607.75</ele><time>2026-04-20T09:03:00.975Z</time></trkpt><trkpt lat="33.43324" lon="10.12265"><ele>612.0</ele><time>2026-04-20T09:03:01.975Z</time></trkpt><trkpt lat="33.4331733" lon="10.122775"><ele>612.0</ele><time>2026-04-20T09:03:02.975Z</time></trkpt><trkpt lat="33.43311" lon="10.12289"><ele>612.0</ele><time>2026-04-20T09:03:03.975Z</time></trkpt><trkpt lat="33.4330267" lon="10.1229783"><ele>612.0</ele><time>2026-04-20T09:03:04.975Z</time></trkpt><trkpt lat="33.4329233" lon="10.1230367"><ele>612.0</ele><time>2026-04-20T09:03:05.975Z</time></trkpt><trkpt lat="33.4328117" lon="10.123065"><ele>611.0</ele><time>2026-04-20T09:03:06.975Z</time></trkpt><trkpt lat="33.4326983" lon="10.12307"><ele>610.0</ele><time>2026-04-20T09:03:07.975Z</time></trkpt><trkpt lat="33.432595" lon="10.1230467"><ele>609.0</ele><time>2026-04-20T09:03:08.975Z</time></trkpt><trkpt lat="33.4325417" lon="10.1229933"><ele>608.0</ele><time>2026-04-20T09:03:09.975Z</time></trkpt><trkpt lat="33.43251" lon="10.1229067"><ele>607.0</ele><time>2026-04-20T09:03:10.975Z</time></trkpt><trkpt lat="33.4324867" lon="10.12282"><ele>606.0</ele><time>2026-04-20T09:03:11.975Z</time></trkpt><trkpt lat="33.4324433" lon="10.1227617"><ele>606.0</ele><time>2026-04-20T09:03:12.975Z</time></trkpt><trkpt lat="33.4323283" lon="10.1227467"><ele>606.0</ele><time>2026-04-20T09:03:14.975Z</time></trkpt><trkpt lat="33.4322683" lon="10.1227983"><ele>606.0</ele><time>2026-04-20T09:03:15.975Z</time></trkpt><trkpt lat="33.4322033" lon="10.12288"><ele>606.0</ele><time>2026-04-20T09:03:16.975Z</time></trkpt><trkpt lat="33.4321433" lon="10.1230033"><ele>606.0</ele><time>2026-04-20T09:03:17.975Z</time></trkpt><trkpt lat="33.4320833" lon="10.1231333"><ele>600.75</ele><time>2026-04-20T09:03:18.975Z</time></trkpt><trkpt lat="33.4320233" lon="10.1232583"><ele>595.5</ele><time>2026-04-20T09:03:19.975Z</time></trkpt><trkpt lat="33.431965" lon="10.12338"><ele>590.25</ele><time>2026-04-20T09:03:20.975Z</time></trkpt><trkpt lat="33.4318967" lon="10.1234817"><ele>585.0</ele><time>2026-04-20T09:03:21.975Z</time></trkpt><trkpt lat="33.4318067" lon="10.1235433"><ele>585.0</ele><time>2026-04-20T09:03:22.975Z</time></trkpt><trkpt lat="33.4316917" lon="10.1235667"><ele>585.0</ele><time>2026-04-20T09:03:23.975Z</time></trkpt><trkpt lat="33.4315667" lon="10.1235683"><ele>585.0</ele><time>2026-04-20T09:03:24.975Z</time></trkpt><trkpt lat="33.43144" lon="10.1235417"><ele>585.0</ele><time>2026-04-20T09:03:25.975Z</time></trkpt><trkpt lat="33.431335" lon="10.12349"><ele>584.0</ele><time>2026-04-20T09:03:26.975Z</time></trkpt><trkpt lat="33.4312483" lon="10.12343"><ele>583.0</ele><time>2026-04-20T09:03:27.975Z</time></trkpt><trkpt lat="33.4311933" lon="10.1233567"><ele>582.0</ele><time>2026-04-20T09:03:28.975Z</time></trkpt><trkpt lat="33.4311417" lon="10.12327"><ele>581.0</ele><time>2026-04-20T09:03:29.975Z</time></trkpt><trkpt lat="33.4311" lon="10.1231867"><ele>580.0</ele><time>2026-04-20T09:03:30.975Z</time></trkpt><trkpt lat="33.4310533" lon="10.12312"><ele>579.0</ele><time>2026-04-20T09:03:31.975Z</time></trkpt><trkpt lat="33.430945" lon="10.123115"><ele>579.0</ele><time>2026-04-20T09:03:33.975Z</time></trkpt><trkpt lat="33.4309033" lon="10.1231767"><ele>579.0</ele><time>2026-04-20T09:03:34.975Z</time></trkpt><trkpt lat="33.4308767" lon="10.12328"><ele>579.0</ele><time>2026-04-20T09:03:35.975Z</time></trkpt><trkpt lat="33.4308583" lon="10.1234067"><ele>579.0</ele><time>2026-04-20T09:03:36.975Z</time></trkpt><trkpt lat="33.4308333" lon="10.1235333"><ele>579.0</ele><time>2026-04-20T09:03:37.975Z</time></trkpt><trkpt lat="33.4308" lon="10.12365"><ele>579.0</ele><time>2026-04-20T09:03:38.975Z</time></trkpt><trkpt lat="33.4307467" lon="10.1237533"><ele>579.0</ele><time>2026-04-20T09:03:39.975Z</time></trkpt><trkpt lat="33.43067" lon="10.1238267"><ele>579.0</ele><time>2026-04-20T09:03:40.975Z</time></trkpt><trkpt lat="33.43057" lon="10.1238917"><ele>579.0</ele><time>2026-04-20T09:03:41.975Z</time></trkpt><trkpt lat="33.4304533" lon="10.12395"><ele>579.0</ele><time>2026-04-20T09:03:42.975Z</time></trkpt><trkpt lat="33.4303133" lon="10.123975"><ele>581.0</ele><time>2026-04-20T09:03:43.975Z</time></trkpt><trkpt lat="33.4301483" lon="10.123935"><ele>583.0</ele><time>2026-04-20T09:03:44.975Z</time></trkpt><trkpt lat="33.43001" lon="10.1239133"><ele>585.0</ele><time>2026-04-20T09:03:45.975Z</time></trkpt><trkpt lat="33.42987" lon="10.1238467"><ele>585.0</ele><time>2026-04-20T09:03:46.975Z</time></trkpt><trkpt lat="33.4297317" lon="10.1237633"><ele>585.0</ele><time>2026-04-20T09:03:47.975Z</time></trkpt><trkpt lat="33.4296067" lon="10.123655"><ele>585.0</ele><time>2026-04-20T09:03:48.975Z</time></trkpt><trkpt lat="33.4294667" lon="10.1235817"><ele>581.25</ele><time>2026-04-20T09:03:49.975Z</time></trkpt><trkpt lat="33.4293167" lon="10.1235467"><ele>577.5</ele><time>2026-04-20T09:03:50.975Z</time></trkpt><trkpt lat="33.4291817" lon="10.12355"><ele>573.75</ele><time>2026-04-20T09:03:51.975Z</time></trkpt><trkpt lat="33.429045" lon="10.12358"><ele>570.0</ele><time>2026-04-20T09:03:52.975Z</time></trkpt><trkpt lat="33.428915" lon="10.1236583"><ele>571.75</ele><time>2026-04-20T09:03:53.975Z</time></trkpt><trkpt lat="33.4287933" lon="10.12372"><ele>573.5</ele><time>2026-04-20T09:03:54.975Z</time></trkpt><trkpt lat="33.428665" lon="10.12379"><ele>575.25</ele><time>2026-04-20T09:03:55.975Z</time></trkpt><trkpt lat="33.4285283" lon="10.1238583"><ele>577.0</ele><time>2026-04-20T09:03:56.975Z</time></trkpt><trkpt lat="33.4283833" lon="10.1239217"><ele>577.0</ele><time>2026-04-20T09:03:57.975Z</time></trkpt><trkpt lat="33.4282433" lon="10.1239733"><ele>577.0</ele><time>2026-04-20T09:03:58.975Z</time></trkpt><trkpt lat="33.4280933" lon="10.1239967"><ele>577.0</ele><time>2026-04-20T09:03:59.975Z</time></trkpt><trkpt lat="33.427935" lon="10.1239917"><ele>575.3333333333334</ele><time>2026-04-20T09:04:00.975Z</time></trkpt><trkpt lat="33.4277817" lon="10.12396"><ele>573.6666666666666</ele><time>2026-04-20T09:04:01.975Z</time></trkpt><trkpt lat="33.427635" lon="10.1238883"><ele>572.0</ele><time>2026-04-20T09:04:02.975Z</time></trkpt><trkpt lat="33.4275133" lon="10.1237983"><ele>572.0</ele><time>2026-04-20T09:04:03.975Z</time></trkpt><trkpt lat="33.4273967" lon="10.1236933"><ele>572.0</ele><time>2026-04-20T09:04:04.975Z</time></trkpt><trkpt lat="33.4272483" lon="10.1235933"><ele>572.0</ele><time>2026-04-20T09:04:05.975Z</time></trkpt><trkpt lat="33.4271033" lon="10.1235267"><ele>568.25</ele><time>2026-04-20T09:04:06.975Z</time></trkpt><trkpt lat="33.42696" lon="10.12349"><ele>564.5</ele><time>2026-04-20T09:04:07.975Z</time></trkpt><trkpt lat="33.4268067" lon="10.12346"><ele>560.75</ele><time>2026-04-20T09:04:08.975Z</time></trkpt><trkpt lat="33.4266717" lon="10.123425"><ele>557.0</ele><time>2026-04-20T09:04:09.975Z</time></trkpt><trkpt lat="33.4265417" lon="10.1233833"><ele>557.0</ele><time>2026-04-20T09:04:10.975Z</time></trkpt><trkpt lat="33.4264233" lon="10.123325"><ele>557.0</ele><time>2026-04-20T09:04:11.975Z</time></trkpt><trkpt lat="33.4263317" lon="10.123245"><ele>557.0</ele><time>2026-04-20T09:04:12.975Z</time></trkpt><trkpt lat="33.4262517" lon="10.1231633"><ele>557.0</ele><time>2026-04-20T09:04:13.975Z</time></trkpt><trkpt lat="33.4261817" lon="10.1230933"><ele>557.0</ele><time>2026-04-20T09:04:14.975Z</time></trkpt><trkpt lat="33.42613" lon="10.1230283"><ele>556.1666666666666</ele><time>2026-04-20T09:04:15.975Z</time></trkpt><trkpt lat="33.4260717" lon="10.1229833"><ele>555.3333333333333</ele><time>2026-04-20T09:04:16.975Z</time></trkpt><trkpt lat="33.4259967" lon="10.1229117"><ele>554.5</ele><time>2026-04-20T09:04:18.975Z</time></trkpt><trkpt lat="33.4259033" lon="10.1229483"><ele>553.6666666666666</ele><time>2026-04-20T09:04:36.975Z</time></trkpt><trkpt lat="33.4258483" lon="10.1229967"><ele>552.8333333333334</ele><time>2026-04-20T09:04:37.975Z</time></trkpt><trkpt lat="33.42578" lon="10.12306"><ele>552.0</ele><time>2026-04-20T09:04:38.975Z</time></trkpt><trkpt lat="33.4257017" lon="10.1231183"><ele>552.0</ele><time>2026-04-20T09:04:39.975Z</time></trkpt><trkpt lat="33.425635" lon="10.1231733"><ele>552.0</ele><time>2026-04-20T09:04:40.975Z</time></trkpt><trkpt lat="33.4255667" lon="10.12321"><ele>552.0</ele><time>2026-04-20T09:04:41.975Z</time></trkpt><trkpt lat="33.42545" lon="10.1232667"><ele>552.0</ele><time>2026-04-20T09:04:43.975Z</time></trkpt><trkpt lat="33.4253867" lon="10.12327"><ele>552.0</ele><time>2026-04-20T09:04:44.975Z</time></trkpt><trkpt lat="33.4253183" lon="10.12326"><ele>552.0</ele><time>2026-04-20T09:04:45.975Z</time></trkpt><trkpt lat="33.4252517" lon="10.123245"><ele>550.6666666666666</ele><time>2026-04-20T09:04:46.975Z</time></trkpt><trkpt lat="33.42519" lon="10.12323"><ele>549.3333333333334</ele><time>2026-04-20T09:04:47.975Z</time></trkpt><trkpt lat="33.4251267" lon="10.1232167"><ele>548.0</ele><time>2026-04-20T09:04:48.975Z</time></trkpt><trkpt lat="33.4250117" lon="10.1232167"><ele>546.6666666666667</ele><time>2026-04-20T09:04:50.975Z</time></trkpt><trkpt lat="33.4249483" lon="10.1232033"><ele>545.3333333333334</ele><time>2026-04-20T09:04:51.975Z</time></trkpt><trkpt lat="33.4248767" lon="10.123185"><ele>544.0</ele><time>2026-04-20T09:04:52.975Z</time></trkpt><trkpt lat="33.4248083" lon="10.1231667"><ele>544.0</ele><time>2026-04-20T09:04:53.975Z</time></trkpt><trkpt lat="33.4247333" lon="10.1231617"><ele>544.0</ele><time>2026-04-20T09:04:54.975Z</time></trkpt><trkpt lat="33.424655" lon="10.123155"><ele>544.0</ele><time>2026-04-20T09:04:55.975Z</time></trkpt><trkpt lat="33.4245767" lon="10.123155"><ele>544.0</ele><time>2026-04-20T09:04:56.975Z</time></trkpt><trkpt lat="33.424495" lon="10.1231683"><ele>544.0</ele><time>2026-04-20T09:04:57.975Z</time></trkpt><trkpt lat="33.424415" lon="10.1231833"><ele>544.0</ele><time>2026-04-20T09:04:58.975Z</time></trkpt><trkpt lat="33.4243367" lon="10.12319"><ele>543.7142857142857</ele><time>2026-04-20T09:04:59.975Z</time></trkpt><trkpt lat="33.4242617" lon="10.1231983"><ele>543.4285714285714</ele><time>2026-04-20T09:05:00.974Z</time></trkpt><trkpt lat="33.4241967" lon="10.1232117"><ele>543.1428571428571</ele><time>2026-04-20T09:05:01.974Z</time></trkpt><trkpt lat="33.4241217" lon="10.1232283"><ele>542.8571428571429</ele><time>2026-04-20T09:05:02.974Z</time></trkpt><trkpt lat="33.4240517" lon="10.1232517"><ele>542.5714285714286</ele><time>2026-04-20T09:05:03.974Z</time></trkpt><trkpt lat="33.4239933" lon="10.123295"><ele>542.2857142857142</ele><time>2026-04-20T09:05:04.974Z</time></trkpt><trkpt lat="33.4239467" lon="10.1233517"><ele>542.0</ele><time>2026-04-20T09:05:05.974Z</time></trkpt><trkpt lat="33.4239033" lon="10.1234067"><ele>542.6</ele><time>2026-04-20T09:05:06.974Z</time></trkpt><trkpt lat="33.423825" lon="10.12352"><ele>543.2</ele><time>2026-04-20T09:05:08.974Z</time></trkpt><trkpt lat="33.4237833" lon="10.123585"><ele>543.8</ele><time>2026-04-20T09:05:09.974Z</time></trkpt><trkpt lat="33.423735" lon="10.1236517"><ele>544.4</ele><time>2026-04-20T09:05:10.974Z</time></trkpt><trkpt lat="33.4236917" lon="10.1237683"><ele>545.0</ele><time>2026-04-20T09:05:12.974Z</time></trkpt><trkpt lat="33.423695" lon="10.123895"><ele>545.0</ele><time>2026-04-20T09:05:14.974Z</time></trkpt><trkpt lat="33.4237117" lon="10.1239983"><ele>545.0</ele><time>2026-04-20T09:05:16.974Z</time></trkpt><trkpt lat="33.4237567" lon="10.12407"><ele>545.0</ele><time>2026-04-20T09:05:28.974Z</time></trkpt><trkpt lat="33.4237517" lon="10.1239733"><ele>545.0</ele><time>2026-04-20T09:05:34.974Z</time></trkpt><trkpt lat="33.4236967" lon="10.1239117"><ele>545.0</ele><time>2026-04-20T09:05:37.974Z</time></trkpt><trkpt lat="33.4237" lon="10.1238067"><ele>545.0</ele><time>2026-04-20T09:05:55.974Z</time></trkpt><trkpt lat="33.42375" lon="10.1236917"><ele>545.0</ele><time>2026-04-20T09:05:57.974Z</time></trkpt><trkpt lat="33.4237883" lon="10.1236317"><ele>545.0</ele><time>2026-04-20T09:05:58.974Z</time></trkpt><trkpt lat="33.423865" lon="10.1235267"><ele>545.0</ele><time>2026-04-20T09:06:00.974Z</time></trkpt><trkpt lat="33.42393" lon="10.1234233"><ele>545.0</ele><time>2026-04-20T09:06:02.974Z</time></trkpt><trkpt lat="33.4240167" lon="10.12333"><ele>545.0</ele><time>2026-04-20T09:06:04.974Z</time></trkpt><trkpt lat="33.4241217" lon="10.12326"><ele>544.5</ele><time>2026-04-20T09:06:06.974Z</time></trkpt><trkpt lat="33.4241933" lon="10.12324"><ele>544.0</ele><time>2026-04-20T09:06:07.974Z</time></trkpt><trkpt lat="33.4242667" lon="10.1232367"><ele>543.5</ele><time>2026-04-20T09:06:08.974Z</time></trkpt><trkpt lat="33.42434" lon="10.123235"><ele>543.0</ele><time>2026-04-20T09:06:09.974Z</time></trkpt><trkpt lat="33.424415" lon="10.1232333"><ele>542.5</ele><time>2026-04-20T09:06:10.974Z</time></trkpt><trkpt lat="33.42449" lon="10.123225"><ele>542.0</ele><time>2026-04-20T09:06:11.974Z</time></trkpt><trkpt lat="33.4245683" lon="10.1232117"><ele>542.0</ele><time>2026-04-20T09:06:12.974Z</time></trkpt><trkpt lat="33.424645" lon="10.12319"><ele>542.0</ele><time>2026-04-20T09:06:13.974Z</time></trkpt><trkpt lat="33.4247133" lon="10.1231783"><ele>542.0</ele><time>2026-04-20T09:06:14.974Z</time></trkpt><trkpt lat="33.4247833" lon="10.1231733"><ele>542.0</ele><time>2026-04-20T09:06:15.974Z</time></trkpt><trkpt lat="33.4248483" lon="10.1231783"><ele>542.0</ele><time>2026-04-20T09:06:16.974Z</time></trkpt><trkpt lat="33.4249117" lon="10.1231933"><ele>542.0</ele><time>2026-04-20T09:06:17.974Z</time></trkpt><trkpt lat="33.4249817" lon="10.123205"><ele>542.0</ele><time>2026-04-20T09:06:18.974Z</time></trkpt><trkpt lat="33.42505" lon="10.1232217"><ele>542.2857142857142</ele><time>2026-04-20T09:06:19.974Z</time></trkpt><trkpt lat="33.4251217" lon="10.1232283"><ele>542.5714285714286</ele><time>2026-04-20T09:06:20.974Z</time></trkpt><trkpt lat="33.4251933" lon="10.1232283"><ele>542.8571428571429</ele><time>2026-04-20T09:06:21.974Z</time></trkpt><trkpt lat="33.4252583" lon="10.123235"><ele>543.1428571428571</ele><time>2026-04-20T09:06:22.974Z</time></trkpt><trkpt lat="33.4253317" lon="10.12325"><ele>543.4285714285714</ele><time>2026-04-20T09:06:23.974Z</time></trkpt><trkpt lat="33.425405" lon="10.1232617"><ele>543.7142857142857</ele><time>2026-04-20T09:06:24.974Z</time></trkpt><trkpt lat="33.4254783" lon="10.1232683"><ele>544.0</ele><time>2026-04-20T09:06:25.974Z</time></trkpt><trkpt lat="33.4255483" lon="10.1232583"><ele>545.3333333333334</ele><time>2026-04-20T09:06:26.974Z</time></trkpt><trkpt lat="33.4256183" lon="10.1232233"><ele>546.6666666666667</ele><time>2026-04-20T09:06:27.974Z</time></trkpt><trkpt lat="33.4256783" lon="10.12318"><ele>548.0</ele><time>2026-04-20T09:06:28.974Z</time></trkpt><trkpt lat="33.4257367" lon="10.1231233"><ele>549.3333333333334</ele><time>2026-04-20T09:06:29.974Z</time></trkpt><trkpt lat="33.425805" lon="10.123065"><ele>550.6666666666666</ele><time>2026-04-20T09:06:30.974Z</time></trkpt><trkpt lat="33.4258717" lon="10.12301"><ele>552.0</ele><time>2026-04-20T09:06:31.974Z</time></trkpt><trkpt lat="33.4259333" lon="10.1229583"><ele>552.0</ele><time>2026-04-20T09:06:32.974Z</time></trkpt><trkpt lat="33.425995" lon="10.1228983"><ele>552.0</ele><time>2026-04-20T09:06:34.974Z</time></trkpt><trkpt lat="33.4259633" lon="10.1228183"><ele>552.0</ele><time>2026-04-20T09:06:37.974Z</time></trkpt><trkpt lat="33.42587" lon="10.1227483"><ele>552.0</ele><time>2026-04-20T09:06:39.974Z</time></trkpt><trkpt lat="33.4257633" lon="10.12267"><ele>552.0</ele><time>2026-04-20T09:06:41.974Z</time></trkpt><trkpt lat="33.4257017" lon="10.1226267"><ele>552.0</ele><time>2026-04-20T09:06:42.974Z</time></trkpt><trkpt lat="33.425645" lon="10.1225833"><ele>552.0</ele><time>2026-04-20T09:06:43.974Z</time></trkpt><trkpt lat="33.4255817" lon="10.1225383"><ele>552.0</ele><time>2026-04-20T09:06:44.974Z</time></trkpt><trkpt lat="33.4254883" lon="10.122465"><ele>552.0</ele><time>2026-04-20T09:06:46.974Z</time></trkpt><trkpt lat="33.4253883" lon="10.1223767"><ele>552.0</ele><time>2026-04-20T09:06:48.974Z</time></trkpt><trkpt lat="33.4253383" lon="10.1223133"><ele>551.0</ele><time>2026-04-20T09:06:49.974Z</time></trkpt><trkpt lat="33.42527" lon="10.1222667"><ele>550.0</ele><time>2026-04-20T09:06:50.974Z</time></trkpt><trkpt lat="33.4251817" lon="10.122235"><ele>549.0</ele><time>2026-04-20T09:06:51.974Z</time></trkpt><trkpt lat="33.4250783" lon="10.1222167"><ele>548.0</ele><time>2026-04-20T09:06:52.974Z</time></trkpt><trkpt lat="33.42497" lon="10.1221867"><ele>547.0</ele><time>2026-04-20T09:06:53.974Z</time></trkpt><trkpt lat="33.4248583" lon="10.1221583"><ele>547.0</ele><time>2026-04-20T09:06:54.974Z</time></trkpt><trkpt lat="33.424745" lon="10.1221367"><ele>547.0</ele><time>2026-04-20T09:06:55.974Z</time></trkpt><trkpt lat="33.4246283" lon="10.1221267"><ele>547.0</ele><time>2026-04-20T09:06:56.974Z</time></trkpt><trkpt lat="33.4245133" lon="10.12212"><ele>547.0</ele><time>2026-04-20T09:06:57.974Z</time></trkpt><trkpt lat="33.4244" lon="10.122135"><ele>548.0</ele><time>2026-04-20T09:06:58.974Z</time></trkpt><trkpt lat="33.4242933" lon="10.1221583"><ele>549.0</ele><time>2026-04-20T09:06:59.974Z</time></trkpt><trkpt lat="33.424175" lon="10.12219"><ele>550.0</ele><time>2026-04-20T09:07:00.974Z</time></trkpt><trkpt lat="33.424045" lon="10.12221"><ele>551.0</ele><time>2026-04-20T09:07:01.974Z</time></trkpt><trkpt lat="33.423905" lon="10.1222133"><ele>549.0</ele><time>2026-04-20T09:07:02.974Z</time></trkpt><trkpt lat="33.423775" lon="10.1222017"><ele>547.0</ele><time>2026-04-20T09:07:03.974Z</time></trkpt><trkpt lat="33.4236417" lon="10.122185"><ele>545.0</ele><time>2026-04-20T09:07:04.974Z</time></trkpt><trkpt lat="33.4235033" lon="10.122165"><ele>543.0</ele><time>2026-04-20T09:07:05.974Z</time></trkpt><trkpt lat="33.42337" lon="10.1221483"><ele>543.0</ele><time>2026-04-20T09:07:06.974Z</time></trkpt><trkpt lat="33.4232467" lon="10.1221233"><ele>543.0</ele><time>2026-04-20T09:07:07.974Z</time></trkpt><trkpt lat="33.4231333" lon="10.122105"><ele>543.0</ele><time>2026-04-20T09:07:08.974Z</time></trkpt><trkpt lat="33.4230333" lon="10.1221067"><ele>543.0</ele><time>2026-04-20T09:07:09.974Z</time></trkpt><trkpt lat="33.4229417" lon="10.1221217"><ele>543.0</ele><time>2026-04-20T09:07:10.974Z</time></trkpt><trkpt lat="33.4228517" lon="10.1221617"><ele>541.0</ele><time>2026-04-20T09:07:11.974Z</time></trkpt><trkpt lat="33.422765" lon="10.12222"><ele>539.0</ele><time>2026-04-20T09:07:12.974Z</time></trkpt><trkpt lat="33.4226733" lon="10.1223083"><ele>537.0</ele><time>2026-04-20T09:07:13.974Z</time></trkpt><trkpt lat="33.4225767" lon="10.1224067"><ele>535.0</ele><time>2026-04-20T09:07:14.974Z</time></trkpt><trkpt lat="33.4224783" lon="10.122505"><ele>534.75</ele><time>2026-04-20T09:07:15.974Z</time></trkpt><trkpt lat="33.4223817" lon="10.1225967"><ele>534.5</ele><time>2026-04-20T09:07:16.974Z</time></trkpt><trkpt lat="33.4222967" lon="10.1226867"><ele>534.25</ele><time>2026-04-20T09:07:17.974Z</time></trkpt><trkpt lat="33.422225" lon="10.122785"><ele>534.0</ele><time>2026-04-20T09:07:18.974Z</time></trkpt><trkpt lat="33.4221617" lon="10.12289"><ele>533.75</ele><time>2026-04-20T09:07:19.974Z</time></trkpt><trkpt lat="33.4220983" lon="10.1230067"><ele>533.5</ele><time>2026-04-20T09:07:20.974Z</time></trkpt><trkpt lat="33.42204" lon="10.1231233"><ele>533.25</ele><time>2026-04-20T09:07:21.974Z</time></trkpt><trkpt lat="33.42197" lon="10.1232333"><ele>533.0</ele><time>2026-04-20T09:07:22.974Z</time></trkpt><trkpt lat="33.4219017" lon="10.1233483"><ele>533.5</ele><time>2026-04-20T09:07:23.974Z</time></trkpt><trkpt lat="33.4218333" lon="10.1234617"><ele>534.0</ele><time>2026-04-20T09:07:24.974Z</time></trkpt><trkpt lat="33.4217583" lon="10.1235683"><ele>534.5</ele><time>2026-04-20T09:07:25.974Z</time></trkpt><trkpt lat="33.4216817" lon="10.123675"><ele>535.0</ele><time>2026-04-20T09:07:26.974Z</time></trkpt><trkpt lat="33.4216033" lon="10.1237783"><ele>535.0</ele><time>2026-04-20T09:07:27.974Z</time></trkpt><trkpt lat="33.4215267" lon="10.12388"><ele>535.0</ele><time>2026-04-20T09:07:28.974Z</time></trkpt><trkpt lat="33.4214633" lon="10.123965"><ele>535.0</ele><time>2026-04-20T09:07:29.974Z</time></trkpt><trkpt lat="33.4214033" lon="10.1240433"><ele>535.0</ele><time>2026-04-20T09:07:30.974Z</time></trkpt><trkpt lat="33.4213483" lon="10.12412"><ele>535.0</ele><time>2026-04-20T09:07:31.974Z</time></trkpt><trkpt lat="33.4212883" lon="10.1242067"><ele>535.4</ele><time>2026-04-20T09:07:32.974Z</time></trkpt><trkpt lat="33.4212217" lon="10.12428"><ele>535.8</ele><time>2026-04-20T09:07:33.974Z</time></trkpt><trkpt lat="33.42115" lon="10.1243617"><ele>536.2</ele><time>2026-04-20T09:07:34.974Z</time></trkpt><trkpt lat="33.4210767" lon="10.1244517"><ele>536.6</ele><time>2026-04-20T09:07:35.974Z</time></trkpt><trkpt lat="33.421" lon="10.1245467"><ele>537.0</ele><time>2026-04-20T09:07:36.974Z</time></trkpt><trkpt lat="33.420915" lon="10.124645"><ele>537.0</ele><time>2026-04-20T09:07:37.974Z</time></trkpt><trkpt lat="33.4208433" lon="10.12477"><ele>537.0</ele><time>2026-04-20T09:07:38.974Z</time></trkpt><trkpt lat="33.4207783" lon="10.1248917"><ele>537.0</ele><time>2026-04-20T09:07:39.974Z</time></trkpt><trkpt lat="33.4207083" lon="10.12501"><ele>537.0</ele><time>2026-04-20T09:07:40.974Z</time></trkpt><trkpt lat="33.4206317" lon="10.1251167"><ele>537.5</ele><time>2026-04-20T09:07:41.974Z</time></trkpt><trkpt lat="33.4205617" lon="10.1252333"><ele>538.0</ele><time>2026-04-20T09:07:42.974Z</time></trkpt><trkpt lat="33.4204817" lon="10.12535"><ele>538.5</ele><time>2026-04-20T09:07:43.974Z</time></trkpt><trkpt lat="33.4204083" lon="10.1254617"><ele>539.0</ele><time>2026-04-20T09:07:44.974Z</time></trkpt><trkpt lat="33.4203417" lon="10.1255583"><ele>539.3333333333333</ele><time>2026-04-20T09:07:45.974Z</time></trkpt><trkpt lat="33.4202883" lon="10.12564"><ele>539.6666666666666</ele><time>2026-04-20T09:07:46.974Z</time></trkpt><trkpt lat="33.4202583" lon="10.1257133"><ele>540.0</ele><time>2026-04-20T09:07:47.975Z</time></trkpt><trkpt lat="33.4202617" lon="10.1258167"><ele>540.3333333333334</ele><time>2026-04-20T09:07:49.974Z</time></trkpt><trkpt lat="33.4202683" lon="10.1259033"><ele>540.6666666666667</ele><time>2026-04-20T09:07:51.974Z</time></trkpt><trkpt lat="33.4202767" lon="10.1259983"><ele>541.0</ele><time>2026-04-20T09:07:53.974Z</time></trkpt><trkpt lat="33.4202567" lon="10.126125"><ele>541.0</ele><time>2026-04-20T09:07:55.974Z</time></trkpt><trkpt lat="33.420205" lon="10.1262583"><ele>541.0</ele><time>2026-04-20T09:07:57.974Z</time></trkpt><trkpt lat="33.420175" lon="10.1263367"><ele>541.0</ele><time>2026-04-20T09:07:58.974Z</time></trkpt><trkpt lat="33.4201383" lon="10.1264133"><ele>541.0</ele><time>2026-04-20T09:07:59.974Z</time></trkpt><trkpt lat="33.4201067" lon="10.1265067"><ele>541.0</ele><time>2026-04-20T09:08:00.974Z</time></trkpt><trkpt lat="33.4200717" lon="10.1266117"><ele>541.0</ele><time>2026-04-20T09:08:01.974Z</time></trkpt><trkpt lat="33.42003" lon="10.126725"><ele>541.0</ele><time>2026-04-20T09:08:02.974Z</time></trkpt><trkpt lat="33.4199883" lon="10.1268283"><ele>541.0</ele><time>2026-04-20T09:08:03.974Z</time></trkpt><trkpt lat="33.41996" lon="10.1269333"><ele>541.0</ele><time>2026-04-20T09:08:04.974Z</time></trkpt><trkpt lat="33.4199517" lon="10.1270233"><ele>541.0</ele><time>2026-04-20T09:08:05.974Z</time></trkpt><trkpt lat="33.4199783" lon="10.1271483"><ele>541.0</ele><time>2026-04-20T09:08:07.974Z</time></trkpt><trkpt lat="33.4200883" lon="10.12723"><ele>541.0</ele><time>2026-04-20T09:08:09.974Z</time></trkpt><trkpt lat="33.420175" lon="10.1272467"><ele>541.0</ele><time>2026-04-20T09:08:10.974Z</time></trkpt><trkpt lat="33.4202617" lon="10.127245"><ele>541.0</ele><time>2026-04-20T09:08:11.974Z</time></trkpt><trkpt lat="33.4203567" lon="10.1272383"><ele>541.0</ele><time>2026-04-20T09:08:12.974Z</time></trkpt><trkpt lat="33.4204567" lon="10.1272417"><ele>541.0</ele><time>2026-04-20T09:08:13.974Z</time></trkpt><trkpt lat="33.42054" lon="10.12727"><ele>541.6666666666667</ele><time>2026-04-20T09:08:14.974Z</time></trkpt><trkpt lat="33.4206083" lon="10.127315"><ele>542.3333333333334</ele><time>2026-04-20T09:08:15.974Z</time></trkpt><trkpt lat="33.4206717" lon="10.12737"><ele>543.0</ele><time>2026-04-20T09:08:17.974Z</time></trkpt><trkpt lat="33.4207417" lon="10.1274567"><ele>543.6666666666666</ele><time>2026-04-20T09:08:20.974Z</time></trkpt><trkpt lat="33.420785" lon="10.1275183"><ele>544.3333333333333</ele><time>2026-04-20T09:08:21.974Z</time></trkpt><trkpt lat="33.42084" lon="10.1275883"><ele>545.0</ele><time>2026-04-20T09:08:22.974Z</time></trkpt><trkpt lat="33.4208967" lon="10.1276583"><ele>545.0</ele><time>2026-04-20T09:08:23.974Z</time></trkpt><trkpt lat="33.4209633" lon="10.12772"><ele>545.0</ele><time>2026-04-20T09:08:24.974Z</time></trkpt><trkpt lat="33.4210317" lon="10.1277883"><ele>545.0</ele><time>2026-04-20T09:08:25.974Z</time></trkpt><trkpt lat="33.4211117" lon="10.1278367"><ele>545.0</ele><time>2026-04-20T09:08:26.974Z</time></trkpt><trkpt lat="33.42119" lon="10.1279"><ele>545.0</ele><time>2026-04-20T09:08:27.974Z</time></trkpt><trkpt lat="33.4212583" lon="10.1279767"><ele>545.0</ele><time>2026-04-20T09:08:28.974Z</time></trkpt><trkpt lat="33.4213133" lon="10.128065"><ele>545.0</ele><time>2026-04-20T09:08:29.974Z</time></trkpt><trkpt lat="33.4213617" lon="10.1281583"><ele>545.0</ele><time>2026-04-20T09:08:30.974Z</time></trkpt><trkpt lat="33.4214117" lon="10.12825"><ele>545.0</ele><time>2026-04-20T09:08:31.974Z</time></trkpt><trkpt lat="33.421465" lon="10.1283483"><ele>545.0</ele><time>2026-04-20T09:08:32.974Z</time></trkpt><trkpt lat="33.4215217" lon="10.1284483"><ele>546.0</ele><time>2026-04-20T09:08:33.974Z</time></trkpt><trkpt lat="33.42159" lon="10.12856"><ele>547.0</ele><time>2026-04-20T09:08:34.973Z</time></trkpt><trkpt lat="33.421665" lon="10.1286683"><ele>548.0</ele><time>2026-04-20T09:08:35.973Z</time></trkpt><trkpt lat="33.42175" lon="10.1287767"><ele>549.0</ele><time>2026-04-20T09:08:36.973Z</time></trkpt><trkpt lat="33.4218433" lon="10.12889"><ele>549.0</ele><time>2026-04-20T09:08:37.973Z</time></trkpt><trkpt lat="33.4219517" lon="10.1289867"><ele>549.0</ele><time>2026-04-20T09:08:38.973Z</time></trkpt><trkpt lat="33.4220533" lon="10.12909"><ele>549.0</ele><time>2026-04-20T09:08:39.973Z</time></trkpt><trkpt lat="33.422145" lon="10.1291917"><ele>549.0</ele><time>2026-04-20T09:08:40.973Z</time></trkpt><trkpt lat="33.4222433" lon="10.1292817"><ele>549.25</ele><time>2026-04-20T09:08:41.973Z</time></trkpt><trkpt lat="33.42234" lon="10.12936"><ele>549.5</ele><time>2026-04-20T09:08:42.973Z</time></trkpt><trkpt lat="33.4224367" lon="10.1294317"><ele>549.75</ele><time>2026-04-20T09:08:43.973Z</time></trkpt><trkpt lat="33.4225383" lon="10.1295083"><ele>550.0</ele><time>2026-04-20T09:08:44.973Z</time></trkpt><trkpt lat="33.4226317" lon="10.129565"><ele>550.0</ele><time>2026-04-20T09:08:45.973Z</time></trkpt><trkpt lat="33.4227217" lon="10.129615"><ele>550.0</ele><time>2026-04-20T09:08:46.973Z</time></trkpt><trkpt lat="33.422805" lon="10.1296633"><ele>550.0</ele><time>2026-04-20T09:08:47.973Z</time></trkpt><trkpt lat="33.4228833" lon="10.1297183"><ele>550.0</ele><time>2026-04-20T09:08:48.973Z</time></trkpt><trkpt lat="33.4229467" lon="10.1297867"><ele>550.0</ele><time>2026-04-20T09:08:49.973Z</time></trkpt><trkpt lat="33.4229967" lon="10.1298633"><ele>550.0</ele><time>2026-04-20T09:08:50.973Z</time></trkpt><trkpt lat="33.42306" lon="10.12993"><ele>550.5</ele><time>2026-04-20T09:08:51.973Z</time></trkpt><trkpt lat="33.42312" lon="10.130005"><ele>551.0</ele><time>2026-04-20T09:08:52.973Z</time></trkpt><trkpt lat="33.4231717" lon="10.1300767"><ele>551.5</ele><time>2026-04-20T09:08:53.973Z</time></trkpt><trkpt lat="33.4232183" lon="10.1301383"><ele>552.0</ele><time>2026-04-20T09:08:54.973Z</time></trkpt><trkpt lat="33.4232683" lon="10.1301883"><ele>552.5</ele><time>2026-04-20T09:08:55.973Z</time></trkpt><trkpt lat="33.423355" lon="10.1302667"><ele>553.0</ele><time>2026-04-20T09:08:57.973Z</time></trkpt><trkpt lat="33.4234133" lon="10.1303317"><ele>553.0</ele><time>2026-04-20T09:08:59.973Z</time></trkpt><trkpt lat="33.4234817" lon="10.1304167"><ele>553.0</ele><time>2026-04-20T09:09:01.973Z</time></trkpt><trkpt lat="33.4235583" lon="10.13047"><ele>553.0</ele><time>2026-04-20T09:09:03.973Z</time></trkpt><trkpt lat="33.4236217" lon="10.1305"><ele>553.0</ele><time>2026-04-20T09:09:04.973Z</time></trkpt><trkpt lat="33.4237" lon="10.13053"><ele>553.0</ele><time>2026-04-20T09:09:05.973Z</time></trkpt><trkpt lat="33.423795" lon="10.1305567"><ele>553.0</ele><time>2026-04-20T09:09:06.973Z</time></trkpt><trkpt lat="33.4238917" lon="10.1306"><ele>552.75</ele><time>2026-04-20T09:09:07.973Z</time></trkpt><trkpt lat="33.42397" lon="10.130675"><ele>552.5</ele><time>2026-04-20T09:09:08.973Z</time></trkpt><trkpt lat="33.4240217" lon="10.130775"><ele>552.25</ele><time>2026-04-20T09:09:09.973Z</time></trkpt><trkpt lat="33.4240567" lon="10.1309167"><ele>552.0</ele><time>2026-04-20T09:09:10.973Z</time></trkpt><trkpt lat="33.4240883" lon="10.1310717"><ele>553.25</ele><time>2026-04-20T09:09:11.973Z</time></trkpt><trkpt lat="33.4241383" lon="10.1312333"><ele>554.5</ele><time>2026-04-20T09:09:12.973Z</time></trkpt><trkpt lat="33.4241983" lon="10.13139"><ele>555.75</ele><time>2026-04-20T09:09:13.973Z</time></trkpt><trkpt lat="33.42427" lon="10.1315433"><ele>557.0</ele><time>2026-04-20T09:09:14.973Z</time></trkpt><trkpt lat="33.4243517" lon="10.1316767"><ele>557.5</ele><time>2026-04-20T09:09:15.973Z</time></trkpt><trkpt lat="33.4244567" lon="10.131795"><ele>558.0</ele><time>2026-04-20T09:09:16.973Z</time></trkpt><trkpt lat="33.4245617" lon="10.131925"><ele>558.5</ele><time>2026-04-20T09:09:17.973Z</time></trkpt><trkpt lat="33.4246417" lon="10.1320767"><ele>559.0</ele><time>2026-04-20T09:09:18.973Z</time></trkpt><trkpt lat="33.4246883" lon="10.1322433"><ele>559.75</ele><time>2026-04-20T09:09:19.973Z</time></trkpt><trkpt lat="33.4247183" lon="10.1324067"><ele>560.5</ele><time>2026-04-20T09:09:20.973Z</time></trkpt><trkpt lat="33.4247417" lon="10.1325617"><ele>561.25</ele><time>2026-04-20T09:09:21.973Z</time></trkpt><trkpt lat="33.4247767" lon="10.132705"><ele>562.0</ele><time>2026-04-20T09:09:22.973Z</time></trkpt><trkpt lat="33.4248383" lon="10.1328333"><ele>562.0</ele><time>2026-04-20T09:09:23.973Z</time></trkpt><trkpt lat="33.4249083" lon="10.132965"><ele>562.0</ele><time>2026-04-20T09:09:24.973Z</time></trkpt><trkpt lat="33.424975" lon="10.1331117"><ele>562.0</ele><time>2026-04-20T09:09:25.973Z</time></trkpt><trkpt lat="33.42505" lon="10.1332717"><ele>562.0</ele><time>2026-04-20T09:09:26.973Z</time></trkpt><trkpt lat="33.425135" lon="10.133435"><ele>563.3333333333334</ele><time>2026-04-20T09:09:27.973Z</time></trkpt><trkpt lat="33.42523" lon="10.1335983"><ele>564.6666666666666</ele><time>2026-04-20T09:09:28.973Z</time></trkpt><trkpt lat="33.425335" lon="10.13376"><ele>566.0</ele><time>2026-04-20T09:09:29.973Z</time></trkpt><trkpt lat="33.4254367" lon="10.13393"><ele>565.3333333333333</ele><time>2026-04-20T09:09:30.973Z</time></trkpt><trkpt lat="33.4255367" lon="10.1341133"><ele>564.6666666666666</ele><time>2026-04-20T09:09:31.973Z</time></trkpt><trkpt lat="33.425615" lon="10.1343017"><ele>564.0</ele><time>2026-04-20T09:09:32.973Z</time></trkpt><trkpt lat="33.4256883" lon="10.134505"><ele>564.0</ele><time>2026-04-20T09:09:33.973Z</time></trkpt><trkpt lat="33.4257433" lon="10.1347283"><ele>564.0</ele><time>2026-04-20T09:09:34.973Z</time></trkpt><trkpt lat="33.42579" lon="10.1349583"><ele>564.0</ele><time>2026-04-20T09:09:35.973Z</time></trkpt><trkpt lat="33.4258183" lon="10.1351767"><ele>565.3333333333334</ele><time>2026-04-20T09:09:36.973Z</time></trkpt><trkpt lat="33.4258267" lon="10.1353917"><ele>566.6666666666667</ele><time>2026-04-20T09:09:37.973Z</time></trkpt><trkpt lat="33.4258083" lon="10.1355883"><ele>568.0</ele><time>2026-04-20T09:09:38.973Z</time></trkpt><trkpt lat="33.4257817" lon="10.1357767"><ele>569.6666666666667</ele><time>2026-04-20T09:09:39.973Z</time></trkpt><trkpt lat="33.4257617" lon="10.1359717"><ele>571.3333333333334</ele><time>2026-04-20T09:09:40.973Z</time></trkpt><trkpt lat="33.4257467" lon="10.1361733"><ele>573.0</ele><time>2026-04-20T09:09:41.973Z</time></trkpt><trkpt lat="33.4257517" lon="10.1363833"><ele>574.3333333333334</ele><time>2026-04-20T09:09:42.973Z</time></trkpt><trkpt lat="33.4257683" lon="10.1365933"><ele>575.6666666666667</ele><time>2026-04-20T09:09:43.973Z</time></trkpt><trkpt lat="33.425795" lon="10.1368"><ele>577.0</ele><time>2026-04-20T09:09:44.973Z</time></trkpt><trkpt lat="33.42585" lon="10.1370117"><ele>577.0</ele><time>2026-04-20T09:09:45.973Z</time></trkpt><trkpt lat="33.4259233" lon="10.1372067"><ele>577.0</ele><time>2026-04-20T09:09:46.973Z</time></trkpt><trkpt lat="33.4260017" lon="10.1373833"><ele>577.0</ele><time>2026-04-20T09:09:47.973Z</time></trkpt><trkpt lat="33.426065" lon="10.13757"><ele>580.6666666666667</ele><time>2026-04-20T09:09:48.973Z</time></trkpt><trkpt lat="33.4261217" lon="10.1377667"><ele>584.3333333333334</ele><time>2026-04-20T09:09:49.973Z</time></trkpt><trkpt lat="33.4261567" lon="10.13796"><ele>588.0</ele><time>2026-04-20T09:09:50.973Z</time></trkpt><trkpt lat="33.426185" lon="10.1381717"><ele>587.3333333333334</ele><time>2026-04-20T09:09:51.973Z</time></trkpt><trkpt lat="33.4262117" lon="10.1383767"><ele>586.6666666666667</ele><time>2026-04-20T09:09:52.973Z</time></trkpt><trkpt lat="33.4262333" lon="10.138585"><ele>586.0</ele><time>2026-04-20T09:09:53.973Z</time></trkpt><trkpt lat="33.426255" lon="10.1387983"><ele>586.0</ele><time>2026-04-20T09:09:54.973Z</time></trkpt><trkpt lat="33.426275" lon="10.1390217"><ele>586.0</ele><time>2026-04-20T09:09:55.973Z</time></trkpt><trkpt lat="33.4263067" lon="10.1392233"><ele>586.0</ele><time>2026-04-20T09:09:56.973Z</time></trkpt><trkpt lat="33.4263283" lon="10.1394283"><ele>584.3333333333334</ele><time>2026-04-20T09:09:57.973Z</time></trkpt><trkpt lat="33.426345" lon="10.139635"><ele>582.6666666666666</ele><time>2026-04-20T09:09:58.973Z</time></trkpt><trkpt lat="33.4263467" lon="10.1398383"><ele>581.0</ele><time>2026-04-20T09:09:59.973Z</time></trkpt><trkpt lat="33.4263367" lon="10.1400467"><ele>581.0</ele><time>2026-04-20T09:10:00.973Z</time></trkpt><trkpt lat="33.4263367" lon="10.1402533"><ele>581.0</ele><time>2026-04-20T09:10:01.973Z</time></trkpt><trkpt lat="33.42633" lon="10.14046"><ele>581.0</ele><time>2026-04-20T09:10:02.973Z</time></trkpt><trkpt lat="33.4263567" lon="10.1406783"><ele>582.6666666666666</ele><time>2026-04-20T09:10:03.973Z</time></trkpt><trkpt lat="33.4263883" lon="10.1408883"><ele>584.3333333333334</ele><time>2026-04-20T09:10:04.973Z</time></trkpt><trkpt lat="33.426425" lon="10.1410833"><ele>586.0</ele><time>2026-04-20T09:10:05.973Z</time></trkpt><trkpt lat="33.42645" lon="10.1412817"><ele>586.0</ele><time>2026-04-20T09:10:06.973Z</time></trkpt><trkpt lat="33.4264683" lon="10.1414767"><ele>586.0</ele><time>2026-04-20T09:10:07.973Z</time></trkpt><trkpt lat="33.4264783" lon="10.1416733"><ele>586.0</ele><time>2026-04-20T09:10:08.973Z</time></trkpt><trkpt lat="33.4264833" lon="10.1418833"><ele>588.0</ele><time>2026-04-20T09:10:09.973Z</time></trkpt><trkpt lat="33.4264833" lon="10.1420917"><ele>590.0</ele><time>2026-04-20T09:10:10.973Z</time></trkpt><trkpt lat="33.4264933" lon="10.1423017"><ele>592.0</ele><time>2026-04-20T09:10:11.973Z</time></trkpt><trkpt lat="33.4264967" lon="10.14249"><ele>592.0</ele><time>2026-04-20T09:10:12.973Z</time></trkpt><trkpt lat="33.426485" lon="10.1426717"><ele>592.0</ele><time>2026-04-20T09:10:13.973Z</time></trkpt><trkpt lat="33.426465" lon="10.142855"><ele>592.0</ele><time>2026-04-20T09:10:14.973Z</time></trkpt><trkpt lat="33.42645" lon="10.14303"><ele>592.0</ele><time>2026-04-20T09:10:15.973Z</time></trkpt><trkpt lat="33.4264133" lon="10.143205"><ele>592.0</ele><time>2026-04-20T09:10:16.973Z</time></trkpt><trkpt lat="33.426365" lon="10.1433817"><ele>592.0</ele><time>2026-04-20T09:10:17.973Z</time></trkpt><trkpt lat="33.4263217" lon="10.1435567"><ele>596.5</ele><time>2026-04-20T09:10:18.973Z</time></trkpt><trkpt lat="33.42628" lon="10.1437317"><ele>601.0</ele><time>2026-04-20T09:10:19.973Z</time></trkpt><trkpt lat="33.42625" lon="10.143905"><ele>605.5</ele><time>2026-04-20T09:10:20.973Z</time></trkpt><trkpt lat="33.4262183" lon="10.1440733"><ele>610.0</ele><time>2026-04-20T09:10:21.973Z</time></trkpt><trkpt lat="33.4261717" lon="10.144245"><ele>610.0</ele><time>2026-04-20T09:10:22.973Z</time></trkpt><trkpt lat="33.4261" lon="10.144405"><ele>610.0</ele><time>2026-04-20T09:10:23.973Z</time></trkpt><trkpt lat="33.4260067" lon="10.1445467"><ele>610.0</ele><time>2026-04-20T09:10:24.973Z</time></trkpt><trkpt lat="33.42592" lon="10.14467"><ele>610.0</ele><time>2026-04-20T09:10:25.973Z</time></trkpt><trkpt lat="33.4258633" lon="10.14478"><ele>610.0</ele><time>2026-04-20T09:10:26.973Z</time></trkpt><trkpt lat="33.4258433" lon="10.144875"><ele>610.0</ele><time>2026-04-20T09:10:27.973Z</time></trkpt><trkpt lat="33.42585" lon="10.1449783"><ele>610.0</ele><time>2026-04-20T09:10:28.973Z</time></trkpt><trkpt lat="33.4258867" lon="10.1451033"><ele>610.0</ele><time>2026-04-20T09:10:29.973Z</time></trkpt><trkpt lat="33.4259317" lon="10.145235"><ele>610.0</ele><time>2026-04-20T09:10:30.973Z</time></trkpt><trkpt lat="33.4259833" lon="10.145365"><ele>610.0</ele><time>2026-04-20T09:10:31.973Z</time></trkpt><trkpt lat="33.4260483" lon="10.1455117"><ele>610.0</ele><time>2026-04-20T09:10:32.973Z</time></trkpt><trkpt lat="33.4261167" lon="10.1456717"><ele>610.0</ele><time>2026-04-20T09:10:33.973Z</time></trkpt><trkpt lat="33.4261867" lon="10.1458317"><ele>610.0</ele><time>2026-04-20T09:10:34.973Z</time></trkpt><trkpt lat="33.426255" lon="10.146"><ele>606.6666666666667</ele><time>2026-04-20T09:10:35.973Z</time></trkpt><trkpt lat="33.4263267" lon="10.14617"><ele>603.3333333333334</ele><time>2026-04-20T09:10:36.973Z</time></trkpt><trkpt lat="33.42639" lon="10.1463317"><ele>600.0</ele><time>2026-04-20T09:10:37.973Z</time></trkpt><trkpt lat="33.42644" lon="10.1464917"><ele>600.5</ele><time>2026-04-20T09:10:38.973Z</time></trkpt><trkpt lat="33.4264817" lon="10.1466417"><ele>601.0</ele><time>2026-04-20T09:10:39.973Z</time></trkpt><trkpt lat="33.4265183" lon="10.1467867"><ele>601.5</ele><time>2026-04-20T09:10:40.973Z</time></trkpt><trkpt lat="33.4265433" lon="10.1469233"><ele>602.0</ele><time>2026-04-20T09:10:41.973Z</time></trkpt><trkpt lat="33.4265483" lon="10.1470417"><ele>602.0</ele><time>2026-04-20T09:10:42.973Z</time></trkpt><trkpt lat="33.4265367" lon="10.147155"><ele>602.0</ele><time>2026-04-20T09:10:43.973Z</time></trkpt><trkpt lat="33.4264917" lon="10.14725"><ele>602.0</ele><time>2026-04-20T09:10:44.973Z</time></trkpt><trkpt lat="33.4264333" lon="10.1473367"><ele>602.0</ele><time>2026-04-20T09:10:45.973Z</time></trkpt><trkpt lat="33.4263517" lon="10.1473983"><ele>602.0</ele><time>2026-04-20T09:10:46.973Z</time></trkpt><trkpt lat="33.4262517" lon="10.1474517"><ele>599.4</ele><time>2026-04-20T09:10:47.973Z</time></trkpt><trkpt lat="33.4261433" lon="10.1474933"><ele>596.8000000000001</ele><time>2026-04-20T09:10:48.973Z</time></trkpt><trkpt lat="33.42604" lon="10.1475333"><ele>594.2</ele><time>2026-04-20T09:10:49.973Z</time></trkpt><trkpt lat="33.425935" lon="10.1475717"><ele>591.6</ele><time>2026-04-20T09:10:50.973Z</time></trkpt><trkpt lat="33.4258317" lon="10.1476133"><ele>589.0</ele><time>2026-04-20T09:10:51.973Z</time></trkpt><trkpt lat="33.4257233" lon="10.147655"><ele>589.0</ele><time>2026-04-20T09:10:52.973Z</time></trkpt><trkpt lat="33.4256267" lon="10.147695"><ele>589.0</ele><time>2026-04-20T09:10:53.973Z</time></trkpt><trkpt lat="33.42554" lon="10.14773"><ele>589.0</ele><time>2026-04-20T09:10:54.973Z</time></trkpt><trkpt lat="33.4254633" lon="10.1477667"><ele>589.0</ele><time>2026-04-20T09:10:55.973Z</time></trkpt><trkpt lat="33.42538" lon="10.1478467"><ele>589.0</ele><time>2026-04-20T09:10:57.973Z</time></trkpt><trkpt lat="33.4253433" lon="10.1479317"><ele>591.8333333333334</ele><time>2026-04-20T09:10:59.973Z</time></trkpt><trkpt lat="33.4253117" lon="10.1480133"><ele>594.6666666666667</ele><time>2026-04-20T09:11:01.973Z</time></trkpt><trkpt lat="33.425255" lon="10.1480833"><ele>597.5</ele><time>2026-04-20T09:11:03.973Z</time></trkpt><trkpt lat="33.4251917" lon="10.1481417"><ele>600.3333333333334</ele><time>2026-04-20T09:11:05.973Z</time></trkpt><trkpt lat="33.4251417" lon="10.1482017"><ele>603.1666666666666</ele><time>2026-04-20T09:11:10.973Z</time></trkpt><trkpt lat="33.4251017" lon="10.14827"><ele>606.0</ele><time>2026-04-20T09:11:44.973Z</time></trkpt><trkpt lat="33.425035" lon="10.148325"><ele>601.4</ele><time>2026-04-20T09:11:46.973Z</time></trkpt><trkpt lat="33.4249783" lon="10.148365"><ele>596.8</ele><time>2026-04-20T09:11:47.973Z</time></trkpt><trkpt lat="33.424905" lon="10.148405"><ele>592.1999999999999</ele><time>2026-04-20T09:11:48.973Z</time></trkpt><trkpt lat="33.424815" lon="10.1484417"><ele>587.6</ele><time>2026-04-20T09:11:49.973Z</time></trkpt><trkpt lat="33.4247133" lon="10.148485"><ele>583.0</ele><time>2026-04-20T09:11:50.973Z</time></trkpt><trkpt lat="33.4246117" lon="10.1485317"><ele>583.0</ele><time>2026-04-20T09:11:51.973Z</time></trkpt><trkpt lat="33.4245083" lon="10.1485917"><ele>583.0</ele><time>2026-04-20T09:11:52.973Z</time></trkpt><trkpt lat="33.424395" lon="10.1486583"><ele>583.0</ele><time>2026-04-20T09:11:53.973Z</time></trkpt><trkpt lat="33.4242833" lon="10.14873"><ele>583.0</ele><time>2026-04-20T09:11:54.973Z</time></trkpt><trkpt lat="33.4241567" lon="10.148815"><ele>583.0</ele><time>2026-04-20T09:11:55.973Z</time></trkpt><trkpt lat="33.42402" lon="10.14891"><ele>583.0</ele><time>2026-04-20T09:11:56.973Z</time></trkpt><trkpt lat="33.4238933" lon="10.1490033"><ele>583.0</ele><time>2026-04-20T09:11:57.973Z</time></trkpt><trkpt lat="33.42377" lon="10.1491333"><ele>576.3333333333334</ele><time>2026-04-20T09:11:58.973Z</time></trkpt><trkpt lat="33.4236517" lon="10.1492717"><ele>569.6666666666666</ele><time>2026-04-20T09:11:59.973Z</time></trkpt><trkpt lat="33.4235517" lon="10.1494083"><ele>563.0</ele><time>2026-04-20T09:12:00.973Z</time></trkpt><trkpt lat="33.4234633" lon="10.14954"><ele>563.0</ele><time>2026-04-20T09:12:01.973Z</time></trkpt><trkpt lat="33.4234017" lon="10.1496933"><ele>563.0</ele><time>2026-04-20T09:12:02.973Z</time></trkpt><trkpt lat="33.4233567" lon="10.1498333"><ele>563.0</ele><time>2026-04-20T09:12:03.973Z</time></trkpt><trkpt lat="33.42332" lon="10.14999"><ele>563.0</ele><time>2026-04-20T09:12:04.973Z</time></trkpt><trkpt lat="33.4232567" lon="10.1501367"><ele>561.0</ele><time>2026-04-20T09:12:05.973Z</time></trkpt><trkpt lat="33.4231733" lon="10.1502467"><ele>559.0</ele><time>2026-04-20T09:12:06.973Z</time></trkpt><trkpt lat="33.42306" lon="10.1503233"><ele>557.0</ele><time>2026-04-20T09:12:07.973Z</time></trkpt><trkpt lat="33.4229383" lon="10.150375"><ele>555.0</ele><time>2026-04-20T09:12:08.973Z</time></trkpt><trkpt lat="33.422805" lon="10.1504267"><ele>555.0</ele><time>2026-04-20T09:12:09.973Z</time></trkpt><trkpt lat="33.422675" lon="10.1504783"><ele>555.0</ele><time>2026-04-20T09:12:10.972Z</time></trkpt><trkpt lat="33.4225417" lon="10.150535"><ele>555.0</ele><time>2026-04-20T09:12:11.972Z</time></trkpt><trkpt lat="33.4223983" lon="10.1506233"><ele>555.0</ele><time>2026-04-20T09:12:12.972Z</time></trkpt><trkpt lat="33.4222733" lon="10.1507117"><ele>555.75</ele><time>2026-04-20T09:12:13.972Z</time></trkpt><trkpt lat="33.4221683" lon="10.15082"><ele>556.5</ele><time>2026-04-20T09:12:14.972Z</time></trkpt><trkpt lat="33.42209" lon="10.1509483"><ele>557.25</ele><time>2026-04-20T09:12:15.972Z</time></trkpt><trkpt lat="33.4220267" lon="10.1510967"><ele>558.0</ele><time>2026-04-20T09:12:16.972Z</time></trkpt><trkpt lat="33.4219683" lon="10.1512617"><ele>558.0</ele><time>2026-04-20T09:12:17.972Z</time></trkpt><trkpt lat="33.4219367" lon="10.151435"><ele>558.0</ele><time>2026-04-20T09:12:18.972Z</time></trkpt><trkpt lat="33.4219217" lon="10.151615"><ele>558.0</ele><time>2026-04-20T09:12:19.972Z</time></trkpt><trkpt lat="33.4219217" lon="10.151775"><ele>558.0</ele><time>2026-04-20T09:12:20.972Z</time></trkpt><trkpt lat="33.4219283" lon="10.1519133"><ele>556.0</ele><time>2026-04-20T09:12:21.972Z</time></trkpt><trkpt lat="33.4219133" lon="10.1520467"><ele>554.0</ele><time>2026-04-20T09:12:22.972Z</time></trkpt><trkpt lat="33.421895" lon="10.1521383"><ele>552.0</ele><time>2026-04-20T09:12:23.972Z</time></trkpt><trkpt lat="33.4218533" lon="10.152205"><ele>550.0</ele><time>2026-04-20T09:12:24.972Z</time></trkpt><trkpt lat="33.421795" lon="10.15225"><ele>548.0</ele><time>2026-04-20T09:12:25.972Z</time></trkpt><trkpt lat="33.4217033" lon="10.152275"><ele>546.0</ele><time>2026-04-20T09:12:26.972Z</time></trkpt><trkpt lat="33.4216083" lon="10.1523167"><ele>542.8</ele><time>2026-04-20T09:12:27.972Z</time></trkpt><trkpt lat="33.421545" lon="10.1523817"><ele>539.6</ele><time>2026-04-20T09:12:28.972Z</time></trkpt><trkpt lat="33.4214933" lon="10.152475"><ele>536.4</ele><time>2026-04-20T09:12:29.972Z</time></trkpt><trkpt lat="33.421445" lon="10.15259"><ele>533.2</ele><time>2026-04-20T09:12:30.972Z</time></trkpt><trkpt lat="33.4214" lon="10.1527067"><ele>530.0</ele><time>2026-04-20T09:12:31.972Z</time></trkpt><trkpt lat="33.421365" lon="10.15281"><ele>530.0</ele><time>2026-04-20T09:12:32.972Z</time></trkpt><trkpt lat="33.421345" lon="10.1528917"><ele>530.0</ele><time>2026-04-20T09:12:33.972Z</time></trkpt><trkpt lat="33.4213533" lon="10.1529683"><ele>530.0</ele><time>2026-04-20T09:12:34.972Z</time></trkpt><trkpt lat="33.4214317" lon="10.153055"><ele>530.0</ele><time>2026-04-20T09:12:36.972Z</time></trkpt><trkpt lat="33.42155" lon="10.15303"><ele>530.0</ele><time>2026-04-20T09:12:38.972Z</time></trkpt><trkpt lat="33.4216183" lon="10.1530167"><ele>530.0</ele><time>2026-04-20T09:12:39.972Z</time></trkpt><trkpt lat="33.4217167" lon="10.1530617"><ele>530.0</ele><time>2026-04-20T09:12:41.972Z</time></trkpt><trkpt lat="33.42176" lon="10.15319"><ele>530.0</ele><time>2026-04-20T09:12:43.972Z</time></trkpt><trkpt lat="33.4217633" lon="10.1532783"><ele>530.0</ele><time>2026-04-20T09:12:44.972Z</time></trkpt><trkpt lat="33.4217667" lon="10.1533733"><ele>530.0</ele><time>2026-04-20T09:12:45.972Z</time></trkpt><trkpt lat="33.421775" lon="10.1534717"><ele>530.0</ele><time>2026-04-20T09:12:46.972Z</time></trkpt><trkpt lat="33.4217733" lon="10.153575"><ele>530.0</ele><time>2026-04-20T09:12:47.972Z</time></trkpt><trkpt lat="33.4217717" lon="10.15367"><ele>526.6666666666666</ele><time>2026-04-20T09:12:48.972Z</time></trkpt><trkpt lat="33.42178" lon="10.1537733"><ele>523.3333333333333</ele><time>2026-04-20T09:12:49.972Z</time></trkpt><trkpt lat="33.4217967" lon="10.153875"><ele>520.0</ele><time>2026-04-20T09:12:50.972Z</time></trkpt><trkpt lat="33.4218383" lon="10.1539667"><ele>516.6666666666666</ele><time>2026-04-20T09:12:51.972Z</time></trkpt><trkpt lat="33.4219" lon="10.1540517"><ele>513.3333333333334</ele><time>2026-04-20T09:12:52.972Z</time></trkpt><trkpt lat="33.4219633" lon="10.1541233"><ele>510.0</ele><time>2026-04-20T09:12:53.972Z</time></trkpt><trkpt lat="33.4220217" lon="10.154195"><ele>506.3333333333333</ele><time>2026-04-20T09:12:54.972Z</time></trkpt><trkpt lat="33.4220817" lon="10.1542717"><ele>502.66666666666663</ele><time>2026-04-20T09:12:55.972Z</time></trkpt><trkpt lat="33.4221417" lon="10.1543467"><ele>499.0</ele><time>2026-04-20T09:12:56.972Z</time></trkpt><trkpt lat="33.4222" lon="10.15442"><ele>495.3333333333333</ele><time>2026-04-20T09:12:57.972Z</time></trkpt><trkpt lat="33.422255" lon="10.1544817"><ele>491.66666666666663</ele><time>2026-04-20T09:12:58.972Z</time></trkpt><trkpt lat="33.4223" lon="10.1545467"><ele>488.0</ele><time>2026-04-20T09:12:59.972Z</time></trkpt><trkpt lat="33.4223417" lon="10.1546683"><ele>487.99999999999994</ele><time>2026-04-20T09:13:01.972Z</time></trkpt><trkpt lat="33.4222667" lon="10.154715"><ele>488.0</ele><time>2026-04-20T09:13:04.972Z</time></trkpt><trkpt lat="33.422175" lon="10.1546583"><ele>488.0</ele><time>2026-04-20T09:13:06.972Z</time></trkpt><trkpt lat="33.4221183" lon="10.1546183"><ele>488.0</ele><time>2026-04-20T09:13:07.972Z</time></trkpt><trkpt lat="33.4220583" lon="10.154595"><ele>487.99999999999994</ele><time>2026-04-20T09:13:08.972Z</time></trkpt><trkpt lat="33.4219517" lon="10.1546217"><ele>488.0</ele><time>2026-04-20T09:13:10.972Z</time></trkpt><trkpt lat="33.4220017" lon="10.1547217"><ele>488.0</ele><time>2026-04-20T09:14:23.972Z</time></trkpt><trkpt lat="33.4220683" lon="10.154765"><ele>487.99999999999994</ele><time>2026-04-20T09:14:24.972Z</time></trkpt><trkpt lat="33.4221517" lon="10.1548183"><ele>487.99999999999994</ele><time>2026-04-20T09:14:25.972Z</time></trkpt><trkpt lat="33.4222467" lon="10.15489"><ele>488.0</ele><time>2026-04-20T09:14:26.972Z</time></trkpt><trkpt lat="33.4223417" lon="10.1549533"><ele>488.0</ele><time>2026-04-20T09:14:27.972Z</time></trkpt><trkpt lat="33.4224417" lon="10.1550133"><ele>484.2</ele><time>2026-04-20T09:14:28.972Z</time></trkpt><trkpt lat="33.422535" lon="10.1550483"><ele>480.4</ele><time>2026-04-20T09:14:29.972Z</time></trkpt><trkpt lat="33.42263" lon="10.1550483"><ele>476.59999999999997</ele><time>2026-04-20T09:14:30.972Z</time></trkpt><trkpt lat="33.42273" lon="10.1550133"><ele>472.79999999999995</ele><time>2026-04-20T09:14:31.972Z</time></trkpt><trkpt lat="33.4228383" lon="10.154975"><ele>469.0</ele><time>2026-04-20T09:14:32.972Z</time></trkpt><trkpt lat="33.422955" lon="10.1549517"><ele>465.6</ele><time>2026-04-20T09:14:33.972Z</time></trkpt><trkpt lat="33.42307" lon="10.154945"><ele>462.2</ele><time>2026-04-20T09:14:34.972Z</time></trkpt><trkpt lat="33.42317" lon="10.15496"><ele>458.80000000000007</ele><time>2026-04-20T09:14:35.972Z</time></trkpt><trkpt lat="33.423255" lon="10.15499"><ele>455.40000000000003</ele><time>2026-04-20T09:14:36.972Z</time></trkpt><trkpt lat="33.423315" lon="10.1550233"><ele>452.0</ele><time>2026-04-20T09:14:37.972Z</time></trkpt><trkpt lat="33.42334" lon="10.155115"><ele>452.0</ele><time>2026-04-20T09:14:39.972Z</time></trkpt><trkpt lat="33.42325" lon="10.1551833"><ele>452.00000000000006</ele><time>2026-04-20T09:14:41.972Z</time></trkpt><trkpt lat="33.423155" lon="10.1551917"><ele>452.00000000000006</ele><time>2026-04-20T09:14:42.972Z</time></trkpt><trkpt lat="33.4230367" lon="10.1551983"><ele>452.0</ele><time>2026-04-20T09:14:43.972Z</time></trkpt><trkpt lat="33.422915" lon="10.1552283"><ele>452.0</ele><time>2026-04-20T09:14:44.972Z</time></trkpt><trkpt lat="33.4228083" lon="10.1552983"><ele>451.5</ele><time>2026-04-20T09:14:45.972Z</time></trkpt><trkpt lat="33.4227283" lon="10.1554017"><ele>451.0</ele><time>2026-04-20T09:14:46.972Z</time></trkpt><trkpt lat="33.4226683" lon="10.15553"><ele>450.5</ele><time>2026-04-20T09:14:47.972Z</time></trkpt><trkpt lat="33.422635" lon="10.155685"><ele>450.0</ele><time>2026-04-20T09:14:48.972Z</time></trkpt><trkpt lat="33.4226317" lon="10.15586"><ele>450.0</ele><time>2026-04-20T09:14:49.972Z</time></trkpt><trkpt lat="33.42266" lon="10.15604"><ele>450.0</ele><time>2026-04-20T09:14:50.972Z</time></trkpt><trkpt lat="33.42271" lon="10.1562167"><ele>450.0</ele><time>2026-04-20T09:14:51.972Z</time></trkpt><trkpt lat="33.4227617" lon="10.1563917"><ele>445.0</ele><time>2026-04-20T09:14:52.972Z</time></trkpt><trkpt lat="33.4228067" lon="10.15658"><ele>440.0</ele><time>2026-04-20T09:14:53.972Z</time></trkpt><trkpt lat="33.4228483" lon="10.1567633"><ele>435.0</ele><time>2026-04-20T09:14:54.972Z</time></trkpt><trkpt lat="33.4228867" lon="10.1569483"><ele>435.0</ele><time>2026-04-20T09:14:55.972Z</time></trkpt><trkpt lat="33.4229233" lon="10.1571183"><ele>435.0</ele><time>2026-04-20T09:14:56.972Z</time></trkpt><trkpt lat="33.42296" lon="10.1572917"><ele>435.0</ele><time>2026-04-20T09:14:57.972Z</time></trkpt><trkpt lat="33.4230133" lon="10.157475"><ele>428.0</ele><time>2026-04-20T09:14:58.972Z</time></trkpt><trkpt lat="33.423085" lon="10.1576433"><ele>421.0</ele><time>2026-04-20T09:14:59.972Z</time></trkpt><trkpt lat="33.42318" lon="10.1577933"><ele>414.0</ele><time>2026-04-20T09:15:00.972Z</time></trkpt><trkpt lat="33.4233033" lon="10.1579283"><ele>414.0</ele><time>2026-04-20T09:15:01.972Z</time></trkpt><trkpt lat="33.4234333" lon="10.1580583"><ele>414.0</ele><time>2026-04-20T09:15:02.972Z</time></trkpt><trkpt lat="33.4235433" lon="10.1581733"><ele>414.0</ele><time>2026-04-20T09:15:03.972Z</time></trkpt><trkpt lat="33.4236383" lon="10.15827"><ele>414.0</ele><time>2026-04-20T09:15:04.972Z</time></trkpt><trkpt lat="33.423705" lon="10.1583383"><ele>412.6</ele><time>2026-04-20T09:15:05.972Z</time></trkpt><trkpt lat="33.423755" lon="10.1584733"><ele>411.2</ele><time>2026-04-20T09:15:07.972Z</time></trkpt><trkpt lat="33.4237467" lon="10.1585633"><ele>409.8</ele><time>2026-04-20T09:15:08.972Z</time></trkpt><trkpt lat="33.42368" lon="10.1586483"><ele>408.40000000000003</ele><time>2026-04-20T09:15:09.972Z</time></trkpt><trkpt lat="33.42362" lon="10.15871"><ele>407.0</ele><time>2026-04-20T09:15:10.972Z</time></trkpt><trkpt lat="33.4235467" lon="10.1587467"><ele>407.0</ele><time>2026-04-20T09:15:11.972Z</time></trkpt><trkpt lat="33.4234617" lon="10.1587417"><ele>407.0</ele><time>2026-04-20T09:15:12.972Z</time></trkpt><trkpt lat="33.42336" lon="10.1586767"><ele>407.0</ele><time>2026-04-20T09:15:13.972Z</time></trkpt><trkpt lat="33.4232483" lon="10.1586117"><ele>407.0</ele><time>2026-04-20T09:15:14.972Z</time></trkpt><trkpt lat="33.42314" lon="10.15855"><ele>407.0</ele><time>2026-04-20T09:15:15.972Z</time></trkpt><trkpt lat="33.423055" lon="10.158505"><ele>407.0</ele><time>2026-04-20T09:15:16.972Z</time></trkpt><trkpt lat="33.4229883" lon="10.1584617"><ele>407.0</ele><time>2026-04-20T09:15:17.972Z</time></trkpt><trkpt lat="33.4229183" lon="10.1584083"><ele>407.0</ele><time>2026-04-20T09:15:18.972Z</time></trkpt><trkpt lat="33.42285" lon="10.1583217"><ele>407.0</ele><time>2026-04-20T09:15:19.972Z</time></trkpt><trkpt lat="33.4227517" lon="10.1582267"><ele>407.0</ele><time>2026-04-20T09:15:20.972Z</time></trkpt><trkpt lat="33.4226433" lon="10.1581383"><ele>408.8</ele><time>2026-04-20T09:15:21.972Z</time></trkpt><trkpt lat="33.4225433" lon="10.1580533"><ele>410.6</ele><time>2026-04-20T09:15:22.972Z</time></trkpt><trkpt lat="33.4224633" lon="10.1579683"><ele>412.40000000000003</ele><time>2026-04-20T09:15:23.972Z</time></trkpt><trkpt lat="33.4223967" lon="10.157895"><ele>414.20000000000005</ele><time>2026-04-20T09:15:24.972Z</time></trkpt><trkpt lat="33.422345" lon="10.1578467"><ele>416.0</ele><time>2026-04-20T09:15:25.972Z</time></trkpt><trkpt lat="33.4223017" lon="10.1579383"><ele>416.0</ele><time>2026-04-20T09:15:28.972Z</time></trkpt><trkpt lat="33.422335" lon="10.1580233"><ele>416.0</ele><time>2026-04-20T09:15:29.972Z</time></trkpt><trkpt lat="33.422385" lon="10.1581183"><ele>416.0</ele><time>2026-04-20T09:15:30.972Z</time></trkpt><trkpt lat="33.422445" lon="10.1582217"><ele>416.0</ele><time>2026-04-20T09:15:31.972Z</time></trkpt><trkpt lat="33.4225117" lon="10.1583467"><ele>416.0</ele><time>2026-04-20T09:15:32.972Z</time></trkpt><trkpt lat="33.42259" lon="10.1585083"><ele>408.66666666666663</ele><time>2026-04-20T09:15:33.972Z</time></trkpt><trkpt lat="33.4226717" lon="10.1586767"><ele>401.33333333333337</ele><time>2026-04-20T09:15:34.972Z</time></trkpt><trkpt lat="33.4227767" lon="10.1588267"><ele>394.0</ele><time>2026-04-20T09:15:35.972Z</time></trkpt><trkpt lat="33.4228983" lon="10.1589633"><ele>392.0</ele><time>2026-04-20T09:15:36.972Z</time></trkpt><trkpt lat="33.42303" lon="10.159075"><ele>390.0</ele><time>2026-04-20T09:15:37.972Z</time></trkpt><trkpt lat="33.4231733" lon="10.159165"><ele>388.0</ele><time>2026-04-20T09:15:38.972Z</time></trkpt><trkpt lat="33.4233017" lon="10.15926"><ele>388.0</ele><time>2026-04-20T09:15:39.972Z</time></trkpt><trkpt lat="33.423415" lon="10.1593567"><ele>388.0</ele><time>2026-04-20T09:15:40.972Z</time></trkpt><trkpt lat="33.423515" lon="10.1594667"><ele>388.0</ele><time>2026-04-20T09:15:41.972Z</time></trkpt><trkpt lat="33.4236067" lon="10.1595867"><ele>388.0</ele><time>2026-04-20T09:15:42.971Z</time></trkpt><trkpt lat="33.4236733" lon="10.15973"><ele>385.5</ele><time>2026-04-20T09:15:43.971Z</time></trkpt><trkpt lat="33.4237283" lon="10.1598783"><ele>383.0</ele><time>2026-04-20T09:15:44.971Z</time></trkpt><trkpt lat="33.423775" lon="10.1600317"><ele>380.5</ele><time>2026-04-20T09:15:45.971Z</time></trkpt><trkpt lat="33.4238117" lon="10.160175"><ele>378.0</ele><time>2026-04-20T09:15:46.971Z</time></trkpt><trkpt lat="33.42384" lon="10.1602967"><ele>378.0</ele><time>2026-04-20T09:15:47.971Z</time></trkpt><trkpt lat="33.4238517" lon="10.1604217"><ele>378.0</ele><time>2026-04-20T09:15:48.971Z</time></trkpt><trkpt lat="33.423865" lon="10.16056"><ele>378.0</ele><time>2026-04-20T09:15:49.971Z</time></trkpt><trkpt lat="33.4238767" lon="10.1607"><ele>378.0</ele><time>2026-04-20T09:15:50.971Z</time></trkpt><trkpt lat="33.4238967" lon="10.1608533"><ele>373.3333333333333</ele><time>2026-04-20T09:15:51.971Z</time></trkpt><trkpt lat="33.423935" lon="10.1610267"><ele>368.66666666666663</ele><time>2026-04-20T09:15:52.971Z</time></trkpt><trkpt lat="33.4239917" lon="10.1612117"><ele>364.0</ele><time>2026-04-20T09:15:53.971Z</time></trkpt><trkpt lat="33.424055" lon="10.16139"><ele>359.66666666666663</ele><time>2026-04-20T09:15:54.971Z</time></trkpt><trkpt lat="33.424125" lon="10.1615583"><ele>355.3333333333333</ele><time>2026-04-20T09:15:55.971Z</time></trkpt><trkpt lat="33.424185" lon="10.1617217"><ele>351.0</ele><time>2026-04-20T09:15:56.971Z</time></trkpt><trkpt lat="33.42423" lon="10.16189"><ele>351.0</ele><time>2026-04-20T09:15:57.971Z</time></trkpt><trkpt lat="33.4242533" lon="10.1620533"><ele>351.0</ele><time>2026-04-20T09:15:58.971Z</time></trkpt><trkpt lat="33.4242483" lon="10.1622367"><ele>351.0</ele><time>2026-04-20T09:15:59.971Z</time></trkpt><trkpt lat="33.42423" lon="10.1624217"><ele>351.0</ele><time>2026-04-20T09:16:00.971Z</time></trkpt><trkpt lat="33.4242067" lon="10.1626167"><ele>349.5</ele><time>2026-04-20T09:16:01.971Z</time></trkpt><trkpt lat="33.4241917" lon="10.162815"><ele>348.0</ele><time>2026-04-20T09:16:02.971Z</time></trkpt><trkpt lat="33.4241983" lon="10.162975"><ele>346.5</ele><time>2026-04-20T09:16:03.971Z</time></trkpt><trkpt lat="33.4242467" lon="10.1631067"><ele>345.0</ele><time>2026-04-20T09:16:04.971Z</time></trkpt><trkpt lat="33.4243217" lon="10.16322"><ele>343.5</ele><time>2026-04-20T09:16:05.971Z</time></trkpt><trkpt lat="33.4244083" lon="10.1633283"><ele>342.0</ele><time>2026-04-20T09:16:06.971Z</time></trkpt><trkpt lat="33.4245" lon="10.1634417"><ele>340.5</ele><time>2026-04-20T09:16:07.971Z</time></trkpt><trkpt lat="33.4246" lon="10.1635467"><ele>339.0</ele><time>2026-04-20T09:16:08.971Z</time></trkpt><trkpt lat="33.4246833" lon="10.163655"><ele>338.5</ele><time>2026-04-20T09:16:09.971Z</time></trkpt><trkpt lat="33.4247483" lon="10.1637833"><ele>338.0</ele><time>2026-04-20T09:16:10.971Z</time></trkpt><trkpt lat="33.4248133" lon="10.1639317"><ele>337.5</ele><time>2026-04-20T09:16:11.971Z</time></trkpt><trkpt lat="33.4248717" lon="10.164085"><ele>337.0</ele><time>2026-04-20T09:16:12.971Z</time></trkpt><trkpt lat="33.42491" lon="10.1642317"><ele>336.25</ele><time>2026-04-20T09:16:13.971Z</time></trkpt><trkpt lat="33.4249567" lon="10.1643867"><ele>335.5</ele><time>2026-04-20T09:16:14.971Z</time></trkpt><trkpt lat="33.4250083" lon="10.164555"><ele>334.75</ele><time>2026-04-20T09:16:15.971Z</time></trkpt><trkpt lat="33.4250733" lon="10.1647183"><ele>334.0</ele><time>2026-04-20T09:16:16.971Z</time></trkpt><trkpt lat="33.42512" lon="10.16488"><ele>332.5</ele><time>2026-04-20T09:16:17.971Z</time></trkpt><trkpt lat="33.4251617" lon="10.1650533"><ele>331.0</ele><time>2026-04-20T09:16:18.971Z</time></trkpt><trkpt lat="33.4251967" lon="10.165225"><ele>329.5</ele><time>2026-04-20T09:16:19.971Z</time></trkpt><trkpt lat="33.425225" lon="10.1653983"><ele>328.0</ele><time>2026-04-20T09:16:20.971Z</time></trkpt><trkpt lat="33.4252517" lon="10.16556"><ele>327.25</ele><time>2026-04-20T09:16:21.971Z</time></trkpt><trkpt lat="33.4252867" lon="10.1657183"><ele>326.5</ele><time>2026-04-20T09:16:22.971Z</time></trkpt><trkpt lat="33.4253333" lon="10.16587"><ele>325.75</ele><time>2026-04-20T09:16:23.971Z</time></trkpt><trkpt lat="33.425395" lon="10.1660117"><ele>325.0</ele><time>2026-04-20T09:16:24.971Z</time></trkpt><trkpt lat="33.4254567" lon="10.1661167"><ele>324.0</ele><time>2026-04-20T09:16:25.971Z</time></trkpt><trkpt lat="33.4255233" lon="10.1661833"><ele>323.0</ele><time>2026-04-20T09:16:26.971Z</time></trkpt><trkpt lat="33.425605" lon="10.1662167"><ele>322.0</ele><time>2026-04-20T09:16:27.971Z</time></trkpt><trkpt lat="33.4256967" lon="10.166215"><ele>321.0</ele><time>2026-04-20T09:16:28.971Z</time></trkpt><trkpt lat="33.425815" lon="10.1661967"><ele>320.0</ele><time>2026-04-20T09:16:29.971Z</time></trkpt><trkpt lat="33.4259433" lon="10.1661683"><ele>320.0</ele><time>2026-04-20T09:16:30.971Z</time></trkpt><trkpt lat="33.4260817" lon="10.1661317"><ele>320.0</ele><time>2026-04-20T09:16:31.971Z</time></trkpt><trkpt lat="33.4262283" lon="10.166115"><ele>320.0</ele><time>2026-04-20T09:16:32.971Z</time></trkpt><trkpt lat="33.4263583" lon="10.1661117"><ele>320.0</ele><time>2026-04-20T09:16:33.971Z</time></trkpt><trkpt lat="33.4264683" lon="10.1661467"><ele>320.2</ele><time>2026-04-20T09:16:34.971Z</time></trkpt><trkpt lat="33.426555" lon="10.1661867"><ele>320.4</ele><time>2026-04-20T09:16:35.971Z</time></trkpt><trkpt lat="33.426625" lon="10.16625"><ele>320.6</ele><time>2026-04-20T09:16:36.971Z</time></trkpt><trkpt lat="33.4266817" lon="10.16633"><ele>320.8</ele><time>2026-04-20T09:16:37.971Z</time></trkpt><trkpt lat="33.42672" lon="10.1664233"><ele>321.0</ele><time>2026-04-20T09:16:38.971Z</time></trkpt><trkpt lat="33.4267583" lon="10.16653"><ele>320.0</ele><time>2026-04-20T09:16:39.971Z</time></trkpt><trkpt lat="33.4267817" lon="10.1666467"><ele>319.0</ele><time>2026-04-20T09:16:40.971Z</time></trkpt><trkpt lat="33.4268083" lon="10.16678"><ele>318.0</ele><time>2026-04-20T09:16:41.971Z</time></trkpt><trkpt lat="33.4268533" lon="10.166915"><ele>317.0</ele><time>2026-04-20T09:16:42.971Z</time></trkpt><trkpt lat="33.42691" lon="10.1670433"><ele>317.0</ele><time>2026-04-20T09:16:43.971Z</time></trkpt><trkpt lat="33.4269667" lon="10.1671467"><ele>317.0</ele><time>2026-04-20T09:16:44.971Z</time></trkpt><trkpt lat="33.4270383" lon="10.16722"><ele>317.0</ele><time>2026-04-20T09:16:45.971Z</time></trkpt><trkpt lat="33.42712" lon="10.16728"><ele>317.0</ele><time>2026-04-20T09:16:46.971Z</time></trkpt><trkpt lat="33.4272167" lon="10.1673167"><ele>317.0</ele><time>2026-04-20T09:16:47.971Z</time></trkpt><trkpt lat="33.4273167" lon="10.167335"><ele>317.4</ele><time>2026-04-20T09:16:48.971Z</time></trkpt><trkpt lat="33.4274183" lon="10.1673283"><ele>317.79999999999995</ele><time>2026-04-20T09:16:49.971Z</time></trkpt><trkpt lat="33.427525" lon="10.1673133"><ele>318.2</ele><time>2026-04-20T09:16:50.971Z</time></trkpt><trkpt lat="33.42763" lon="10.1672917"><ele>318.59999999999997</ele><time>2026-04-20T09:16:51.971Z</time></trkpt><trkpt lat="33.4277217" lon="10.1672817"><ele>319.0</ele><time>2026-04-20T09:16:52.971Z</time></trkpt><trkpt lat="33.427805" lon="10.1673067"><ele>319.0</ele><time>2026-04-20T09:16:53.971Z</time></trkpt><trkpt lat="33.4278767" lon="10.167345"><ele>319.0</ele><time>2026-04-20T09:16:54.971Z</time></trkpt><trkpt lat="33.42795" lon="10.1674117"><ele>319.0</ele><time>2026-04-20T09:16:55.971Z</time></trkpt><trkpt lat="33.4280017" lon="10.1675017"><ele>319.0</ele><time>2026-04-20T09:16:56.971Z</time></trkpt><trkpt lat="33.42804" lon="10.16761"><ele>319.0</ele><time>2026-04-20T09:16:57.971Z</time></trkpt><trkpt lat="33.42808" lon="10.1677367"><ele>317.5</ele><time>2026-04-20T09:16:58.971Z</time></trkpt><trkpt lat="33.42812" lon="10.167875"><ele>316.0</ele><time>2026-04-20T09:16:59.971Z</time></trkpt><trkpt lat="33.4281617" lon="10.168025"><ele>314.5</ele><time>2026-04-20T09:17:00.971Z</time></trkpt><trkpt lat="33.4282033" lon="10.1681483"><ele>313.0</ele><time>2026-04-20T09:17:01.971Z</time></trkpt><trkpt lat="33.4282283" lon="10.1682533"><ele>312.6</ele><time>2026-04-20T09:17:02.971Z</time></trkpt><trkpt lat="33.4282483" lon="10.1683533"><ele>312.20000000000005</ele><time>2026-04-20T09:17:03.971Z</time></trkpt><trkpt lat="33.4282317" lon="10.168445"><ele>311.8</ele><time>2026-04-20T09:17:04.971Z</time></trkpt><trkpt lat="33.42819" lon="10.1685417"><ele>311.40000000000003</ele><time>2026-04-20T09:17:05.971Z</time></trkpt><trkpt lat="33.4281267" lon="10.1686467"><ele>311.0</ele><time>2026-04-20T09:17:06.971Z</time></trkpt><trkpt lat="33.4280733" lon="10.1687733"><ele>311.0</ele><time>2026-04-20T09:17:07.971Z</time></trkpt><trkpt lat="33.4280367" lon="10.1689183"><ele>311.0</ele><time>2026-04-20T09:17:08.971Z</time></trkpt><trkpt lat="33.4280283" lon="10.1690683"><ele>311.0</ele><time>2026-04-20T09:17:09.971Z</time></trkpt><trkpt lat="33.428035" lon="10.169225"><ele>311.0</ele><time>2026-04-20T09:17:10.971Z</time></trkpt><trkpt lat="33.428055" lon="10.1693867"><ele>309.75</ele><time>2026-04-20T09:17:11.971Z</time></trkpt><trkpt lat="33.42808" lon="10.16955"><ele>308.5</ele><time>2026-04-20T09:17:12.971Z</time></trkpt><trkpt lat="33.42811" lon="10.16972"><ele>307.25</ele><time>2026-04-20T09:17:13.971Z</time></trkpt><trkpt lat="33.4281533" lon="10.1699"><ele>306.0</ele><time>2026-04-20T09:17:14.971Z</time></trkpt><trkpt lat="33.4282083" lon="10.170065"><ele>305.0</ele><time>2026-04-20T09:17:15.971Z</time></trkpt><trkpt lat="33.4282767" lon="10.1702167"><ele>304.0</ele><time>2026-04-20T09:17:16.971Z</time></trkpt><trkpt lat="33.4283617" lon="10.1703617"><ele>303.0</ele><time>2026-04-20T09:17:17.971Z</time></trkpt><trkpt lat="33.4284567" lon="10.170495"><ele>302.0</ele><time>2026-04-20T09:17:18.971Z</time></trkpt><trkpt lat="33.4285583" lon="10.1706267"><ele>302.0</ele><time>2026-04-20T09:17:19.971Z</time></trkpt><trkpt lat="33.428655" lon="10.17075"><ele>302.0</ele><time>2026-04-20T09:17:20.971Z</time></trkpt><trkpt lat="33.428745" lon="10.17086"><ele>302.0</ele><time>2026-04-20T09:17:21.971Z</time></trkpt><trkpt lat="33.428825" lon="10.1709717"><ele>302.0</ele><time>2026-04-20T09:17:22.971Z</time></trkpt><trkpt lat="33.42889" lon="10.171065"><ele>301.83333333333337</ele><time>2026-04-20T09:17:23.971Z</time></trkpt><trkpt lat="33.428935" lon="10.1711583"><ele>301.6666666666667</ele><time>2026-04-20T09:17:24.971Z</time></trkpt><trkpt lat="33.4289667" lon="10.17123"><ele>301.5</ele><time>2026-04-20T09:17:25.971Z</time></trkpt><trkpt lat="33.4289783" lon="10.17133"><ele>301.3333333333333</ele><time>2026-04-20T09:17:26.971Z</time></trkpt><trkpt lat="33.4289967" lon="10.1714033"><ele>301.16666666666663</ele><time>2026-04-20T09:17:27.971Z</time></trkpt><trkpt lat="33.4289967" lon="10.1714983"><ele>301.0</ele><time>2026-04-20T09:17:29.971Z</time></trkpt><trkpt lat="33.4289383" lon="10.1715583"><ele>300.40000000000003</ele><time>2026-04-20T09:17:32.971Z</time></trkpt><trkpt lat="33.42884" lon="10.171625"><ele>299.8</ele><time>2026-04-20T09:17:43.971Z</time></trkpt><trkpt lat="33.4287833" lon="10.171705"><ele>299.20000000000005</ele><time>2026-04-20T09:17:44.971Z</time></trkpt><trkpt lat="33.42871" lon="10.1718083"><ele>298.6</ele><time>2026-04-20T09:17:45.971Z</time></trkpt><trkpt lat="33.4286233" lon="10.171905"><ele>298.0</ele><time>2026-04-20T09:17:46.971Z</time></trkpt><trkpt lat="33.4285183" lon="10.171995"><ele>297.8</ele><time>2026-04-20T09:17:47.971Z</time></trkpt><trkpt lat="33.4284383" lon="10.1720933"><ele>297.6</ele><time>2026-04-20T09:17:48.971Z</time></trkpt><trkpt lat="33.4283767" lon="10.1721883"><ele>297.4</ele><time>2026-04-20T09:17:49.971Z</time></trkpt><trkpt lat="33.428315" lon="10.1722633"><ele>297.2</ele><time>2026-04-20T09:17:50.971Z</time></trkpt><trkpt lat="33.4282567" lon="10.172315"><ele>297.0</ele><time>2026-04-20T09:17:51.971Z</time></trkpt><trkpt lat="33.42812" lon="10.172365"><ele>296.6</ele><time>2026-04-20T09:17:53.971Z</time></trkpt><trkpt lat="33.428025" lon="10.1723933"><ele>296.2</ele><time>2026-04-20T09:17:54.971Z</time></trkpt><trkpt lat="33.4279217" lon="10.17243"><ele>295.8</ele><time>2026-04-20T09:17:55.971Z</time></trkpt><trkpt lat="33.4278217" lon="10.1724833"><ele>295.4</ele><time>2026-04-20T09:17:56.971Z</time></trkpt><trkpt lat="33.4277383" lon="10.17255"><ele>295.0</ele><time>2026-04-20T09:17:57.971Z</time></trkpt><trkpt lat="33.4276633" lon="10.17263"><ele>294.8</ele><time>2026-04-20T09:17:58.971Z</time></trkpt><trkpt lat="33.4276" lon="10.172725"><ele>294.6</ele><time>2026-04-20T09:17:59.971Z</time></trkpt><trkpt lat="33.4275467" lon="10.1728083"><ele>294.4</ele><time>2026-04-20T09:18:00.971Z</time></trkpt><trkpt lat="33.42751" lon="10.1728933"><ele>294.2</ele><time>2026-04-20T09:18:01.971Z</time></trkpt><trkpt lat="33.4274783" lon="10.1729933"><ele>294.0</ele><time>2026-04-20T09:18:02.971Z</time></trkpt><trkpt lat="33.4274283" lon="10.1731033"><ele>294.25</ele><time>2026-04-20T09:18:03.971Z</time></trkpt><trkpt lat="33.4273617" lon="10.173215"><ele>294.5</ele><time>2026-04-20T09:18:04.971Z</time></trkpt><trkpt lat="33.4272733" lon="10.1733117"><ele>294.75</ele><time>2026-04-20T09:18:05.971Z</time></trkpt><trkpt lat="33.4271817" lon="10.1734067"><ele>295.0</ele><time>2026-04-20T09:18:06.971Z</time></trkpt><trkpt lat="33.427085" lon="10.17352"><ele>295.0</ele><time>2026-04-20T09:18:07.971Z</time></trkpt><trkpt lat="33.427" lon="10.1736467"><ele>295.0</ele><time>2026-04-20T09:18:08.971Z</time></trkpt><trkpt lat="33.4269183" lon="10.17379"><ele>295.0</ele><time>2026-04-20T09:18:09.971Z</time></trkpt><trkpt lat="33.4268533" lon="10.17392"><ele>295.0</ele><time>2026-04-20T09:18:10.971Z</time></trkpt><trkpt lat="33.4267917" lon="10.1740317"><ele>295.0</ele><time>2026-04-20T09:18:11.971Z</time></trkpt><trkpt lat="33.42674" lon="10.1741133"><ele>295.0</ele><time>2026-04-20T09:18:12.971Z</time></trkpt><trkpt lat="33.426695" lon="10.17417"><ele>295.0</ele><time>2026-04-20T09:18:13.971Z</time></trkpt><trkpt lat="33.4265917" lon="10.1741433"><ele>295.0</ele><time>2026-04-20T09:18:15.971Z</time></trkpt><trkpt lat="33.4265233" lon="10.17408"><ele>295.0</ele><time>2026-04-20T09:18:16.971Z</time></trkpt><trkpt lat="33.426445" lon="10.1739967"><ele>295.0</ele><time>2026-04-20T09:18:17.971Z</time></trkpt><trkpt lat="33.42637" lon="10.1739283"><ele>295.0</ele><time>2026-04-20T09:18:18.971Z</time></trkpt><trkpt lat="33.4263" lon="10.1738883"><ele>295.0</ele><time>2026-04-20T09:18:19.971Z</time></trkpt><trkpt lat="33.42619" lon="10.1738867"><ele>295.0</ele><time>2026-04-20T09:18:21.971Z</time></trkpt><trkpt lat="33.426115" lon="10.17399"><ele>295.0</ele><time>2026-04-20T09:18:23.971Z</time></trkpt><trkpt lat="33.4260883" lon="10.1740733"><ele>295.0</ele><time>2026-04-20T09:18:24.971Z</time></trkpt><trkpt lat="33.4260567" lon="10.1741767"><ele>295.0</ele><time>2026-04-20T09:18:25.971Z</time></trkpt><trkpt lat="33.4260233" lon="10.174295"><ele>295.0</ele><time>2026-04-20T09:18:26.971Z</time></trkpt><trkpt lat="33.4259883" lon="10.17443"><ele>295.0</ele><time>2026-04-20T09:18:27.971Z</time></trkpt><trkpt lat="33.4259533" lon="10.1745733"><ele>295.0</ele><time>2026-04-20T09:18:28.971Z</time></trkpt><trkpt lat="33.425925" lon="10.174725"><ele>294.3333333333333</ele><time>2026-04-20T09:18:29.971Z</time></trkpt><trkpt lat="33.4259" lon="10.1749"><ele>293.6666666666667</ele><time>2026-04-20T09:18:30.971Z</time></trkpt><trkpt lat="33.4258667" lon="10.1750733"><ele>293.0</ele><time>2026-04-20T09:18:31.971Z</time></trkpt><trkpt lat="33.425845" lon="10.175255"><ele>293.0</ele><time>2026-04-20T09:18:32.971Z</time></trkpt><trkpt lat="33.4258233" lon="10.175435"><ele>293.0</ele><time>2026-04-20T09:18:33.971Z</time></trkpt><trkpt lat="33.4258033" lon="10.175635"><ele>293.0</ele><time>2026-04-20T09:18:34.971Z</time></trkpt><trkpt lat="33.4257867" lon="10.1758183"><ele>292.25</ele><time>2026-04-20T09:18:35.971Z</time></trkpt><trkpt lat="33.4257667" lon="10.1760067"><ele>291.5</ele><time>2026-04-20T09:18:36.971Z</time></trkpt><trkpt lat="33.4257417" lon="10.1761767"><ele>290.75</ele><time>2026-04-20T09:18:37.971Z</time></trkpt><trkpt lat="33.42571" lon="10.1763483"><ele>290.0</ele><time>2026-04-20T09:18:38.971Z</time></trkpt><trkpt lat="33.4256567" lon="10.17653"><ele>289.25</ele><time>2026-04-20T09:18:39.971Z</time></trkpt><trkpt lat="33.4255983" lon="10.176695"><ele>288.5</ele><time>2026-04-20T09:18:40.971Z</time></trkpt><trkpt lat="33.42555" lon="10.176855"><ele>287.75</ele><time>2026-04-20T09:18:41.971Z</time></trkpt><trkpt lat="33.4255233" lon="10.17698"><ele>287.0</ele><time>2026-04-20T09:18:42.971Z</time></trkpt><trkpt lat="33.4255033" lon="10.177115"><ele>287.0</ele><time>2026-04-20T09:18:43.971Z</time></trkpt><trkpt lat="33.4254867" lon="10.1772633"><ele>287.0</ele><time>2026-04-20T09:18:44.971Z</time></trkpt><trkpt lat="33.42547" lon="10.1774367"><ele>287.0</ele><time>2026-04-20T09:18:45.971Z</time></trkpt><trkpt lat="33.4254433" lon="10.1775983"><ele>287.0</ele><time>2026-04-20T09:18:46.971Z</time></trkpt><trkpt lat="33.4254083" lon="10.1777667"><ele>286.75</ele><time>2026-04-20T09:18:47.971Z</time></trkpt><trkpt lat="33.4253733" lon="10.177935"><ele>286.5</ele><time>2026-04-20T09:18:48.971Z</time></trkpt><trkpt lat="33.42534" lon="10.17809"><ele>286.25</ele><time>2026-04-20T09:18:49.971Z</time></trkpt><trkpt lat="33.42531" lon="10.1782267"><ele>286.0</ele><time>2026-04-20T09:18:50.971Z</time></trkpt><trkpt lat="33.42528" lon="10.1783633"><ele>285.0</ele><time>2026-04-20T09:18:51.971Z</time></trkpt><trkpt lat="33.4252533" lon="10.1785083"><ele>284.0</ele><time>2026-04-20T09:18:52.971Z</time></trkpt><trkpt lat="33.42522" lon="10.178665"><ele>283.0</ele><time>2026-04-20T09:18:53.971Z</time></trkpt><trkpt lat="33.4251733" lon="10.17883"><ele>282.0</ele><time>2026-04-20T09:18:54.971Z</time></trkpt><trkpt lat="33.4251217" lon="10.1789983"><ele>282.0</ele><time>2026-04-20T09:18:55.971Z</time></trkpt><trkpt lat="33.4250717" lon="10.1791667"><ele>282.0</ele><time>2026-04-20T09:18:56.971Z</time></trkpt><trkpt lat="33.42502" lon="10.1793433"><ele>282.0</ele><time>2026-04-20T09:18:57.971Z</time></trkpt><trkpt lat="33.424965" lon="10.1795317"><ele>282.0</ele><time>2026-04-20T09:18:58.971Z</time></trkpt><trkpt lat="33.4249217" lon="10.1797017"><ele>282.0</ele><time>2026-04-20T09:18:59.971Z</time></trkpt><trkpt lat="33.4248667" lon="10.17986"><ele>282.0</ele><time>2026-04-20T09:19:00.971Z</time></trkpt><trkpt lat="33.4248033" lon="10.1800133"><ele>282.0</ele><time>2026-04-20T09:19:01.971Z</time></trkpt><trkpt lat="33.42475" lon="10.1801667"><ele>281.0</ele><time>2026-04-20T09:19:02.971Z</time></trkpt><trkpt lat="33.4247117" lon="10.1803117"><ele>280.0</ele><time>2026-04-20T09:19:03.971Z</time></trkpt><trkpt lat="33.4246817" lon="10.18045"><ele>279.0</ele><time>2026-04-20T09:19:04.971Z</time></trkpt><trkpt lat="33.424655" lon="10.1805733"><ele>278.0</ele><time>2026-04-20T09:19:05.971Z</time></trkpt><trkpt lat="33.4246183" lon="10.180695"><ele>277.25</ele><time>2026-04-20T09:19:06.971Z</time></trkpt><trkpt lat="33.4245617" lon="10.1808083"><ele>276.5</ele><time>2026-04-20T09:19:07.971Z</time></trkpt><trkpt lat="33.4244967" lon="10.1809183"><ele>275.75</ele><time>2026-04-20T09:19:08.971Z</time></trkpt><trkpt lat="33.4244233" lon="10.1810283"><ele>275.0</ele><time>2026-04-20T09:19:09.971Z</time></trkpt><trkpt lat="33.4243433" lon="10.1811383"><ele>275.0</ele><time>2026-04-20T09:19:10.971Z</time></trkpt><trkpt lat="33.424275" lon="10.18126"><ele>275.0</ele><time>2026-04-20T09:19:11.971Z</time></trkpt><trkpt lat="33.424215" lon="10.1813683"><ele>275.0</ele><time>2026-04-20T09:19:12.971Z</time></trkpt><trkpt lat="33.4241667" lon="10.1814733"><ele>275.0</ele><time>2026-04-20T09:19:13.971Z</time></trkpt><trkpt lat="33.4241233" lon="10.1815983"><ele>275.0</ele><time>2026-04-20T09:19:14.97Z</time></trkpt><trkpt lat="33.4240883" lon="10.1817333"><ele>275.0</ele><time>2026-04-20T09:19:15.97Z</time></trkpt><trkpt lat="33.424035" lon="10.1818717"><ele>275.0</ele><time>2026-04-20T09:19:16.97Z</time></trkpt><trkpt lat="33.423965" lon="10.1820233"><ele>275.0</ele><time>2026-04-20T09:19:17.97Z</time></trkpt><trkpt lat="33.423895" lon="10.1821667"><ele>275.0</ele><time>2026-04-20T09:19:18.97Z</time></trkpt><trkpt lat="33.4238317" lon="10.1823117"><ele>273.5</ele><time>2026-04-20T09:19:19.97Z</time></trkpt><trkpt lat="33.42378" lon="10.1824567"><ele>272.0</ele><time>2026-04-20T09:19:20.97Z</time></trkpt><trkpt lat="33.4237533" lon="10.1825867"><ele>270.5</ele><time>2026-04-20T09:19:21.97Z</time></trkpt><trkpt lat="33.423745" lon="10.18272"><ele>269.0</ele><time>2026-04-20T09:19:22.97Z</time></trkpt><trkpt lat="33.4237533" lon="10.18285"><ele>269.0</ele><time>2026-04-20T09:19:23.97Z</time></trkpt><trkpt lat="33.4237783" lon="10.18297"><ele>269.0</ele><time>2026-04-20T09:19:24.97Z</time></trkpt><trkpt lat="33.42382" lon="10.1830983"><ele>269.0</ele><time>2026-04-20T09:19:25.97Z</time></trkpt><trkpt lat="33.423855" lon="10.18322"><ele>269.0</ele><time>2026-04-20T09:19:26.97Z</time></trkpt><trkpt lat="33.4238917" lon="10.1833417"><ele>269.0</ele><time>2026-04-20T09:19:27.97Z</time></trkpt><trkpt lat="33.4239283" lon="10.18347"><ele>269.0</ele><time>2026-04-20T09:19:28.97Z</time></trkpt><trkpt lat="33.4239583" lon="10.1835817"><ele>269.0</ele><time>2026-04-20T09:19:29.97Z</time></trkpt><trkpt lat="33.4240033" lon="10.18368"><ele>269.0</ele><time>2026-04-20T09:19:30.97Z</time></trkpt><trkpt lat="33.4240517" lon="10.1837633"><ele>269.0</ele><time>2026-04-20T09:19:31.97Z</time></trkpt><trkpt lat="33.4241067" lon="10.183835"><ele>269.0</ele><time>2026-04-20T09:19:32.97Z</time></trkpt><trkpt lat="33.4241517" lon="10.1839"><ele>269.0</ele><time>2026-04-20T09:19:33.97Z</time></trkpt><trkpt lat="33.42421" lon="10.1840133"><ele>268.2</ele><time>2026-04-20T09:19:35.97Z</time></trkpt><trkpt lat="33.4242067" lon="10.184105"><ele>267.4</ele><time>2026-04-20T09:19:37.97Z</time></trkpt><trkpt lat="33.4241833" lon="10.184185"><ele>266.6</ele><time>2026-04-20T09:19:39.97Z</time></trkpt><trkpt lat="33.4241183" lon="10.18432"><ele>265.8</ele><time>2026-04-20T09:19:41.97Z</time></trkpt><trkpt lat="33.424075" lon="10.1844217"><ele>265.0</ele><time>2026-04-20T09:19:42.97Z</time></trkpt><trkpt lat="33.42402" lon="10.18453"><ele>265.0</ele><time>2026-04-20T09:19:43.97Z</time></trkpt><trkpt lat="33.423955" lon="10.184625"><ele>265.0</ele><time>2026-04-20T09:19:44.97Z</time></trkpt><trkpt lat="33.4238783" lon="10.1847083"><ele>265.0</ele><time>2026-04-20T09:19:45.97Z</time></trkpt><trkpt lat="33.4237833" lon="10.1847633"><ele>265.0</ele><time>2026-04-20T09:19:46.97Z</time></trkpt><trkpt lat="33.4236617" lon="10.18479"><ele>265.0</ele><time>2026-04-20T09:19:47.97Z</time></trkpt><trkpt lat="33.42353" lon="10.1847967"><ele>264.75</ele><time>2026-04-20T09:19:48.97Z</time></trkpt><trkpt lat="33.4233983" lon="10.1848167"><ele>264.5</ele><time>2026-04-20T09:19:49.97Z</time></trkpt><trkpt lat="33.4232617" lon="10.184865"><ele>264.25</ele><time>2026-04-20T09:19:50.97Z</time></trkpt><trkpt lat="33.4231367" lon="10.18495"><ele>264.0</ele><time>2026-04-20T09:19:51.97Z</time></trkpt><trkpt lat="33.4230267" lon="10.1850517"><ele>264.3333333333333</ele><time>2026-04-20T09:19:52.97Z</time></trkpt><trkpt lat="33.42292" lon="10.1851867"><ele>264.66666666666663</ele><time>2026-04-20T09:19:53.97Z</time></trkpt><trkpt lat="33.42283" lon="10.1853367"><ele>265.0</ele><time>2026-04-20T09:19:54.97Z</time></trkpt><trkpt lat="33.4227583" lon="10.1855017"><ele>264.3333333333333</ele><time>2026-04-20T09:19:55.97Z</time></trkpt><trkpt lat="33.4227" lon="10.1856833"><ele>263.6666666666667</ele><time>2026-04-20T09:19:56.97Z</time></trkpt><trkpt lat="33.422635" lon="10.185865"><ele>263.0</ele><time>2026-04-20T09:19:57.97Z</time></trkpt><trkpt lat="33.422555" lon="10.1860483"><ele>263.0</ele><time>2026-04-20T09:19:58.97Z</time></trkpt><trkpt lat="33.4224767" lon="10.1862267"><ele>263.0</ele><time>2026-04-20T09:19:59.97Z</time></trkpt><trkpt lat="33.4224117" lon="10.1864"><ele>263.0</ele><time>2026-04-20T09:20:00.97Z</time></trkpt><trkpt lat="33.422345" lon="10.1865667"><ele>262.75</ele><time>2026-04-20T09:20:01.97Z</time></trkpt><trkpt lat="33.4222783" lon="10.1867267"><ele>262.5</ele><time>2026-04-20T09:20:02.97Z</time></trkpt><trkpt lat="33.4221933" lon="10.1868617"><ele>262.25</ele><time>2026-04-20T09:20:03.97Z</time></trkpt><trkpt lat="33.4220983" lon="10.1869883"><ele>262.0</ele><time>2026-04-20T09:20:04.97Z</time></trkpt><trkpt lat="33.42199" lon="10.1871117"><ele>262.0</ele><time>2026-04-20T09:20:05.97Z</time></trkpt><trkpt lat="33.4218717" lon="10.1872433"><ele>262.0</ele><time>2026-04-20T09:20:06.97Z</time></trkpt><trkpt lat="33.4217517" lon="10.1873817"><ele>262.0</ele><time>2026-04-20T09:20:07.97Z</time></trkpt><trkpt lat="33.421645" lon="10.187535"><ele>261.0</ele><time>2026-04-20T09:20:08.97Z</time></trkpt><trkpt lat="33.4215467" lon="10.18769"><ele>260.0</ele><time>2026-04-20T09:20:09.97Z</time></trkpt><trkpt lat="33.42145" lon="10.18782"><ele>259.0</ele><time>2026-04-20T09:20:10.97Z</time></trkpt><trkpt lat="33.4213483" lon="10.1879417"><ele>258.66666666666663</ele><time>2026-04-20T09:20:11.97Z</time></trkpt><trkpt lat="33.421235" lon="10.1880633"><ele>258.3333333333333</ele><time>2026-04-20T09:20:12.97Z</time></trkpt><trkpt lat="33.4211133" lon="10.188185"><ele>258.0</ele><time>2026-04-20T09:20:13.97Z</time></trkpt><trkpt lat="33.4209783" lon="10.1882917"><ele>258.0</ele><time>2026-04-20T09:20:14.97Z</time></trkpt><trkpt lat="33.4208267" lon="10.1883933"><ele>258.0</ele><time>2026-04-20T09:20:15.97Z</time></trkpt><trkpt lat="33.420675" lon="10.1884867"><ele>258.0</ele><time>2026-04-20T09:20:16.97Z</time></trkpt><trkpt lat="33.4205317" lon="10.1885933"><ele>259.0</ele><time>2026-04-20T09:20:17.97Z</time></trkpt><trkpt lat="33.4204017" lon="10.18869"><ele>260.0</ele><time>2026-04-20T09:20:18.97Z</time></trkpt><trkpt lat="33.4202933" lon="10.1887767"><ele>261.0</ele><time>2026-04-20T09:20:19.97Z</time></trkpt><trkpt lat="33.420205" lon="10.1888583"><ele>262.0</ele><time>2026-04-20T09:20:20.97Z</time></trkpt><trkpt lat="33.420125" lon="10.1889283"><ele>262.0</ele><time>2026-04-20T09:20:21.97Z</time></trkpt><trkpt lat="33.42006" lon="10.1889883"><ele>262.0</ele><time>2026-04-20T09:20:22.97Z</time></trkpt><trkpt lat="33.4199967" lon="10.1890283"><ele>262.0</ele><time>2026-04-20T09:20:23.97Z</time></trkpt><trkpt lat="33.4199283" lon="10.1890583"><ele>262.0</ele><time>2026-04-20T09:20:24.97Z</time></trkpt><trkpt lat="33.4198583" lon="10.1890833"><ele>262.0</ele><time>2026-04-20T09:20:25.97Z</time></trkpt><trkpt lat="33.41977" lon="10.1891067"><ele>262.0</ele><time>2026-04-20T09:20:26.97Z</time></trkpt><trkpt lat="33.419675" lon="10.18915"><ele>262.5</ele><time>2026-04-20T09:20:27.97Z</time></trkpt><trkpt lat="33.4195683" lon="10.1891967"><ele>263.0</ele><time>2026-04-20T09:20:28.97Z</time></trkpt><trkpt lat="33.41946" lon="10.18925"><ele>263.5</ele><time>2026-04-20T09:20:29.97Z</time></trkpt><trkpt lat="33.4193433" lon="10.18931"><ele>264.0</ele><time>2026-04-20T09:20:30.97Z</time></trkpt><trkpt lat="33.419225" lon="10.1893717"><ele>264.0</ele><time>2026-04-20T09:20:31.97Z</time></trkpt><trkpt lat="33.4191017" lon="10.189445"><ele>264.0</ele><time>2026-04-20T09:20:32.97Z</time></trkpt><trkpt lat="33.4189967" lon="10.189505"><ele>264.0</ele><time>2026-04-20T09:20:33.97Z</time></trkpt><trkpt lat="33.4189217" lon="10.1895617"><ele>264.0</ele><time>2026-04-20T09:20:34.97Z</time></trkpt><trkpt lat="33.4188717" lon="10.1896383"><ele>264.0</ele><time>2026-04-20T09:20:36.97Z</time></trkpt><trkpt lat="33.4187683" lon="10.189675"><ele>264.4</ele><time>2026-04-20T09:20:55.971Z</time></trkpt><trkpt lat="33.4187033" lon="10.1897033"><ele>264.79999999999995</ele><time>2026-04-20T09:20:56.97Z</time></trkpt><trkpt lat="33.4186183" lon="10.1897567"><ele>265.20000000000005</ele><time>2026-04-20T09:20:57.97Z</time></trkpt><trkpt lat="33.418515" lon="10.1898233"><ele>265.6</ele><time>2026-04-20T09:20:58.97Z</time></trkpt><trkpt lat="33.4184" lon="10.1898917"><ele>266.0</ele><time>2026-04-20T09:20:59.97Z</time></trkpt><trkpt lat="33.41828" lon="10.1899617"><ele>266.0</ele><time>2026-04-20T09:21:00.97Z</time></trkpt><trkpt lat="33.4181567" lon="10.1900383"><ele>266.0</ele><time>2026-04-20T09:21:01.97Z</time></trkpt><trkpt lat="33.4180333" lon="10.1901133"><ele>266.0</ele><time>2026-04-20T09:21:02.97Z</time></trkpt><trkpt lat="33.4179117" lon="10.190175"><ele>266.0</ele><time>2026-04-20T09:21:03.97Z</time></trkpt><trkpt lat="33.4177967" lon="10.19024"><ele>267.75</ele><time>2026-04-20T09:21:04.97Z</time></trkpt><trkpt lat="33.4176883" lon="10.1903083"><ele>269.5</ele><time>2026-04-20T09:21:05.97Z</time></trkpt><trkpt lat="33.41757" lon="10.1903767"><ele>271.25</ele><time>2026-04-20T09:21:06.97Z</time></trkpt><trkpt lat="33.417465" lon="10.1904367"><ele>273.0</ele><time>2026-04-20T09:21:07.97Z</time></trkpt><trkpt lat="33.417365" lon="10.190495"><ele>273.0</ele><time>2026-04-20T09:21:08.97Z</time></trkpt><trkpt lat="33.4172667" lon="10.19055"><ele>273.0</ele><time>2026-04-20T09:21:09.97Z</time></trkpt><trkpt lat="33.4171717" lon="10.190605"><ele>273.0</ele><time>2026-04-20T09:21:10.97Z</time></trkpt><trkpt lat="33.4170633" lon="10.1906617"><ele>273.0</ele><time>2026-04-20T09:21:11.97Z</time></trkpt><trkpt lat="33.4169467" lon="10.19072"><ele>271.75</ele><time>2026-04-20T09:21:12.97Z</time></trkpt><trkpt lat="33.4168183" lon="10.1907767"><ele>270.5</ele><time>2026-04-20T09:21:13.97Z</time></trkpt><trkpt lat="33.4166817" lon="10.1908517"><ele>269.25</ele><time>2026-04-20T09:21:14.97Z</time></trkpt><trkpt lat="33.4165417" lon="10.1909167"><ele>268.0</ele><time>2026-04-20T09:21:15.97Z</time></trkpt><trkpt lat="33.4164067" lon="10.19098"><ele>268.0</ele><time>2026-04-20T09:21:16.97Z</time></trkpt><trkpt lat="33.4162683" lon="10.19105"><ele>268.0</ele><time>2026-04-20T09:21:17.97Z</time></trkpt><trkpt lat="33.4161333" lon="10.1910933"><ele>268.0</ele><time>2026-04-20T09:21:18.97Z</time></trkpt><trkpt lat="33.4159933" lon="10.19112"><ele>268.0</ele><time>2026-04-20T09:21:19.971Z</time></trkpt><trkpt lat="33.4158483" lon="10.1911433"><ele>268.0</ele><time>2026-04-20T09:21:20.97Z</time></trkpt><trkpt lat="33.4157" lon="10.1911283"><ele>268.0</ele><time>2026-04-20T09:21:21.97Z</time></trkpt><trkpt lat="33.4155367" lon="10.1911083"><ele>268.0</ele><time>2026-04-20T09:21:22.97Z</time></trkpt><trkpt lat="33.4153667" lon="10.1910767"><ele>267.66666666666663</ele><time>2026-04-20T09:21:23.97Z</time></trkpt><trkpt lat="33.4151817" lon="10.1910433"><ele>267.3333333333333</ele><time>2026-04-20T09:21:24.97Z</time></trkpt><trkpt lat="33.4149983" lon="10.1910083"><ele>267.0</ele><time>2026-04-20T09:21:25.97Z</time></trkpt><trkpt lat="33.41482" lon="10.190965"><ele>265.0</ele><time>2026-04-20T09:21:26.97Z</time></trkpt><trkpt lat="33.4146367" lon="10.1909317"><ele>263.0</ele><time>2026-04-20T09:21:27.97Z</time></trkpt><trkpt lat="33.41444" lon="10.1909183"><ele>261.0</ele><time>2026-04-20T09:21:28.97Z</time></trkpt><trkpt lat="33.4142417" lon="10.190915"><ele>261.0</ele><time>2026-04-20T09:21:29.97Z</time></trkpt><trkpt lat="33.414045" lon="10.1909317"><ele>261.0</ele><time>2026-04-20T09:21:30.97Z</time></trkpt><trkpt lat="33.41384" lon="10.1909767"><ele>261.0</ele><time>2026-04-20T09:21:31.97Z</time></trkpt><trkpt lat="33.413635" lon="10.1910317"><ele>261.3333333333333</ele><time>2026-04-20T09:21:32.97Z</time></trkpt><trkpt lat="33.4134233" lon="10.1911017"><ele>261.66666666666663</ele><time>2026-04-20T09:21:33.97Z</time></trkpt><trkpt lat="33.4132133" lon="10.1911783"><ele>262.0</ele><time>2026-04-20T09:21:34.97Z</time></trkpt><trkpt lat="33.4130233" lon="10.19126"><ele>259.66666666666663</ele><time>2026-04-20T09:21:35.97Z</time></trkpt><trkpt lat="33.4128433" lon="10.191335"><ele>257.3333333333333</ele><time>2026-04-20T09:21:36.97Z</time></trkpt><trkpt lat="33.4126733" lon="10.1914183"><ele>255.0</ele><time>2026-04-20T09:21:37.97Z</time></trkpt><trkpt lat="33.4125117" lon="10.1914933"><ele>255.0</ele><time>2026-04-20T09:21:38.97Z</time></trkpt><trkpt lat="33.4123633" lon="10.1915917"><ele>255.0</ele><time>2026-04-20T09:21:39.97Z</time></trkpt><trkpt lat="33.412235" lon="10.1917167"><ele>255.0</ele><time>2026-04-20T09:21:40.97Z</time></trkpt><trkpt lat="33.4121117" lon="10.191865"><ele>255.0</ele><time>2026-04-20T09:21:41.97Z</time></trkpt><trkpt lat="33.4119933" lon="10.192025"><ele>255.0</ele><time>2026-04-20T09:21:42.97Z</time></trkpt><trkpt lat="33.4118817" lon="10.192195"><ele>255.0</ele><time>2026-04-20T09:21:43.97Z</time></trkpt><trkpt lat="33.4117683" lon="10.1923683"><ele>255.66666666666669</ele><time>2026-04-20T09:21:44.97Z</time></trkpt><trkpt lat="33.411655" lon="10.1925367"><ele>256.33333333333337</ele><time>2026-04-20T09:21:45.97Z</time></trkpt><trkpt lat="33.411525" lon="10.1926917"><ele>257.0</ele><time>2026-04-20T09:21:46.97Z</time></trkpt><trkpt lat="33.4113833" lon="10.1928517"><ele>255.0</ele><time>2026-04-20T09:21:47.97Z</time></trkpt><trkpt lat="33.41123" lon="10.1929983"><ele>253.0</ele><time>2026-04-20T09:21:48.97Z</time></trkpt><trkpt lat="33.4110683" lon="10.1931483"><ele>251.0</ele><time>2026-04-20T09:21:49.97Z</time></trkpt><trkpt lat="33.4109183" lon="10.1932783"><ele>250.66666666666669</ele><time>2026-04-20T09:21:50.97Z</time></trkpt><trkpt lat="33.410765" lon="10.1933783"><ele>250.33333333333331</ele><time>2026-04-20T09:21:51.97Z</time></trkpt><trkpt lat="33.4106" lon="10.1934433"><ele>250.0</ele><time>2026-04-20T09:21:52.97Z</time></trkpt><trkpt lat="33.4104367" lon="10.193485"><ele>248.66666666666666</ele><time>2026-04-20T09:21:53.97Z</time></trkpt><trkpt lat="33.41026" lon="10.1935133"><ele>247.33333333333331</ele><time>2026-04-20T09:21:54.97Z</time></trkpt><trkpt lat="33.4100833" lon="10.19356"><ele>246.0</ele><time>2026-04-20T09:21:55.97Z</time></trkpt><trkpt lat="33.409895" lon="10.1936383"><ele>246.0</ele><time>2026-04-20T09:21:56.97Z</time></trkpt><trkpt lat="33.40971" lon="10.1937483"><ele>246.0</ele><time>2026-04-20T09:21:57.97Z</time></trkpt><trkpt lat="33.4095333" lon="10.1938683"><ele>246.0</ele><time>2026-04-20T09:21:58.97Z</time></trkpt><trkpt lat="33.4093633" lon="10.1939983"><ele>245.33333333333331</ele><time>2026-04-20T09:21:59.97Z</time></trkpt><trkpt lat="33.4091883" lon="10.1941433"><ele>244.66666666666666</ele><time>2026-04-20T09:22:00.97Z</time></trkpt><trkpt lat="33.4090167" lon="10.194295"><ele>244.0</ele><time>2026-04-20T09:22:01.97Z</time></trkpt><trkpt lat="33.408855" lon="10.1944417"><ele>245.66666666666666</ele><time>2026-04-20T09:22:02.97Z</time></trkpt><trkpt lat="33.40869" lon="10.1945783"><ele>247.33333333333331</ele><time>2026-04-20T09:22:03.97Z</time></trkpt><trkpt lat="33.408535" lon="10.1947083"><ele>249.0</ele><time>2026-04-20T09:22:04.97Z</time></trkpt><trkpt lat="33.40838" lon="10.1948367"><ele>249.0</ele><time>2026-04-20T09:22:05.97Z</time></trkpt><trkpt lat="33.408235" lon="10.194955"><ele>249.0</ele><time>2026-04-20T09:22:06.97Z</time></trkpt><trkpt lat="33.4081017" lon="10.195065"><ele>249.0</ele><time>2026-04-20T09:22:07.97Z</time></trkpt><trkpt lat="33.40798" lon="10.19516"><ele>249.0</ele><time>2026-04-20T09:22:08.97Z</time></trkpt><trkpt lat="33.4078617" lon="10.195255"><ele>249.0</ele><time>2026-04-20T09:22:09.97Z</time></trkpt><trkpt lat="33.4077483" lon="10.19535"><ele>249.0</ele><time>2026-04-20T09:22:10.97Z</time></trkpt><trkpt lat="33.4076317" lon="10.1954517"><ele>249.0</ele><time>2026-04-20T09:22:11.97Z</time></trkpt><trkpt lat="33.4075167" lon="10.195555"><ele>249.0</ele><time>2026-04-20T09:22:12.97Z</time></trkpt><trkpt lat="33.4074067" lon="10.1956433"><ele>249.0</ele><time>2026-04-20T09:22:13.97Z</time></trkpt><trkpt lat="33.4072933" lon="10.1957333"><ele>249.0</ele><time>2026-04-20T09:22:14.97Z</time></trkpt><trkpt lat="33.4071783" lon="10.19583"><ele>249.0</ele><time>2026-04-20T09:22:15.97Z</time></trkpt><trkpt lat="33.407065" lon="10.19592"><ele>248.5</ele><time>2026-04-20T09:22:16.97Z</time></trkpt><trkpt lat="33.406955" lon="10.1960133"><ele>248.0</ele><time>2026-04-20T09:22:17.97Z</time></trkpt><trkpt lat="33.406845" lon="10.1961117"><ele>247.5</ele><time>2026-04-20T09:22:18.97Z</time></trkpt><trkpt lat="33.406735" lon="10.1962083"><ele>247.0</ele><time>2026-04-20T09:22:19.97Z</time></trkpt><trkpt lat="33.406625" lon="10.1963"><ele>247.0</ele><time>2026-04-20T09:22:20.97Z</time></trkpt><trkpt lat="33.4065183" lon="10.1963917"><ele>247.0</ele><time>2026-04-20T09:22:21.97Z</time></trkpt><trkpt lat="33.406415" lon="10.196475"><ele>247.0</ele><time>2026-04-20T09:22:22.97Z</time></trkpt><trkpt lat="33.4063217" lon="10.1965433"><ele>247.0</ele><time>2026-04-20T09:22:23.97Z</time></trkpt><trkpt lat="33.406225" lon="10.1966067"><ele>246.6</ele><time>2026-04-20T09:22:24.97Z</time></trkpt><trkpt lat="33.406135" lon="10.1966767"><ele>246.2</ele><time>2026-04-20T09:22:25.97Z</time></trkpt><trkpt lat="33.4060417" lon="10.19675"><ele>245.8</ele><time>2026-04-20T09:22:26.97Z</time></trkpt><trkpt lat="33.4059467" lon="10.1968167"><ele>245.4</ele><time>2026-04-20T09:22:27.97Z</time></trkpt><trkpt lat="33.40586" lon="10.196885"><ele>245.0</ele><time>2026-04-20T09:22:28.97Z</time></trkpt><trkpt lat="33.4057783" lon="10.1969333"><ele>245.00000000000003</ele><time>2026-04-20T09:22:29.97Z</time></trkpt><trkpt lat="33.4057083" lon="10.1969783"><ele>245.0</ele><time>2026-04-20T09:22:30.97Z</time></trkpt><trkpt lat="33.405635" lon="10.197015"><ele>245.0</ele><time>2026-04-20T09:22:31.97Z</time></trkpt><trkpt lat="33.40556" lon="10.197055"><ele>245.0</ele><time>2026-04-20T09:22:32.97Z</time></trkpt><trkpt lat="33.4054933" lon="10.1970967"><ele>245.00000000000003</ele><time>2026-04-20T09:22:33.97Z</time></trkpt><trkpt lat="33.405415" lon="10.1971367"><ele>245.0</ele><time>2026-04-20T09:22:34.97Z</time></trkpt><trkpt lat="33.405335" lon="10.1971833"><ele>245.16666666666669</ele><time>2026-04-20T09:22:35.97Z</time></trkpt><trkpt lat="33.4052633" lon="10.19723"><ele>245.33333333333334</ele><time>2026-04-20T09:22:36.97Z</time></trkpt><trkpt lat="33.4052017" lon="10.1972633"><ele>245.5</ele><time>2026-04-20T09:22:37.97Z</time></trkpt><trkpt lat="33.40513" lon="10.1973067"><ele>245.66666666666669</ele><time>2026-04-20T09:22:38.97Z</time></trkpt><trkpt lat="33.40506" lon="10.197335"><ele>245.83333333333334</ele><time>2026-04-20T09:22:39.97Z</time></trkpt><trkpt lat="33.40499" lon="10.1973667"><ele>246.0</ele><time>2026-04-20T09:22:40.97Z</time></trkpt><trkpt lat="33.4049217" lon="10.1973983"><ele>245.66666666666666</ele><time>2026-04-20T09:22:41.97Z</time></trkpt><trkpt lat="33.404845" lon="10.1974267"><ele>245.33333333333331</ele><time>2026-04-20T09:22:42.97Z</time></trkpt><trkpt lat="33.4047767" lon="10.1974583"><ele>245.0</ele><time>2026-04-20T09:22:43.97Z</time></trkpt><trkpt lat="33.404695" lon="10.1974983"><ele>244.66666666666666</ele><time>2026-04-20T09:22:44.97Z</time></trkpt><trkpt lat="33.4046067" lon="10.197545"><ele>244.33333333333331</ele><time>2026-04-20T09:22:45.97Z</time></trkpt><trkpt lat="33.40451" lon="10.1975867"><ele>244.0</ele><time>2026-04-20T09:22:46.97Z</time></trkpt><trkpt lat="33.404405" lon="10.1976333"><ele>243.25</ele><time>2026-04-20T09:22:47.969Z</time></trkpt><trkpt lat="33.4043017" lon="10.197695"><ele>242.5</ele><time>2026-04-20T09:22:48.969Z</time></trkpt><trkpt lat="33.4041933" lon="10.1977667"><ele>241.75</ele><time>2026-04-20T09:22:49.969Z</time></trkpt><trkpt lat="33.4040783" lon="10.1978383"><ele>241.0</ele><time>2026-04-20T09:22:50.969Z</time></trkpt><trkpt lat="33.40395" lon="10.197915"><ele>241.5</ele><time>2026-04-20T09:22:51.969Z</time></trkpt><trkpt lat="33.4038133" lon="10.1979767"><ele>242.0</ele><time>2026-04-20T09:22:52.969Z</time></trkpt><trkpt lat="33.4036733" lon="10.1980283"><ele>242.5</ele><time>2026-04-20T09:22:53.969Z</time></trkpt><trkpt lat="33.4035317" lon="10.1980683"><ele>243.0</ele><time>2026-04-20T09:22:54.969Z</time></trkpt><trkpt lat="33.403385" lon="10.1980983"><ele>243.0</ele><time>2026-04-20T09:22:55.969Z</time></trkpt><trkpt lat="33.403235" lon="10.1981333"><ele>243.0</ele><time>2026-04-20T09:22:56.969Z</time></trkpt><trkpt lat="33.40308" lon="10.198175"><ele>243.0</ele><time>2026-04-20T09:22:57.969Z</time></trkpt><trkpt lat="33.4029317" lon="10.19821"><ele>242.33333333333331</ele><time>2026-04-20T09:22:58.969Z</time></trkpt><trkpt lat="33.40278" lon="10.1982683"><ele>241.66666666666666</ele><time>2026-04-20T09:22:59.969Z</time></trkpt><trkpt lat="33.4026217" lon="10.1983383"><ele>241.0</ele><time>2026-04-20T09:23:00.969Z</time></trkpt><trkpt lat="33.4024617" lon="10.19844"><ele>241.0</ele><time>2026-04-20T09:23:01.969Z</time></trkpt><trkpt lat="33.4023033" lon="10.19854"><ele>241.0</ele><time>2026-04-20T09:23:02.969Z</time></trkpt><trkpt lat="33.4021417" lon="10.1986533"><ele>241.0</ele><time>2026-04-20T09:23:03.969Z</time></trkpt><trkpt lat="33.4019733" lon="10.1987717"><ele>241.0</ele><time>2026-04-20T09:23:04.969Z</time></trkpt><trkpt lat="33.4018083" lon="10.19885"><ele>241.0</ele><time>2026-04-20T09:23:05.969Z</time></trkpt><trkpt lat="33.4016383" lon="10.1989167"><ele>241.0</ele><time>2026-04-20T09:23:06.969Z</time></trkpt><trkpt lat="33.4014717" lon="10.1989667"><ele>241.33333333333331</ele><time>2026-04-20T09:23:07.969Z</time></trkpt><trkpt lat="33.4013117" lon="10.1990233"><ele>241.66666666666669</ele><time>2026-04-20T09:23:08.969Z</time></trkpt><trkpt lat="33.401145" lon="10.1990817"><ele>242.0</ele><time>2026-04-20T09:23:09.969Z</time></trkpt><trkpt lat="33.4009717" lon="10.1991517"><ele>242.0</ele><time>2026-04-20T09:23:10.969Z</time></trkpt><trkpt lat="33.400805" lon="10.19923"><ele>242.0</ele><time>2026-04-20T09:23:11.969Z</time></trkpt><trkpt lat="33.400635" lon="10.1993217"><ele>242.0</ele><time>2026-04-20T09:23:12.969Z</time></trkpt><trkpt lat="33.4004633" lon="10.199415"><ele>242.66666666666669</ele><time>2026-04-20T09:23:13.969Z</time></trkpt><trkpt lat="33.4003017" lon="10.1995217"><ele>243.33333333333331</ele><time>2026-04-20T09:23:14.969Z</time></trkpt><trkpt lat="33.4001383" lon="10.1996233"><ele>244.0</ele><time>2026-04-20T09:23:15.969Z</time></trkpt><trkpt lat="33.3999717" lon="10.1997283"><ele>242.66666666666666</ele><time>2026-04-20T09:23:16.969Z</time></trkpt><trkpt lat="33.399805" lon="10.1998383"><ele>241.33333333333331</ele><time>2026-04-20T09:23:17.969Z</time></trkpt><trkpt lat="33.3996417" lon="10.1999533"><ele>240.0</ele><time>2026-04-20T09:23:18.969Z</time></trkpt><trkpt lat="33.3994767" lon="10.2000683"><ele>239.66666666666669</ele><time>2026-04-20T09:23:19.969Z</time></trkpt><trkpt lat="33.399315" lon="10.2001817"><ele>239.33333333333334</ele><time>2026-04-20T09:23:20.969Z</time></trkpt><trkpt lat="33.399155" lon="10.2002883"><ele>239.0</ele><time>2026-04-20T09:23:21.969Z</time></trkpt><trkpt lat="33.3989883" lon="10.200385"><ele>238.66666666666669</ele><time>2026-04-20T09:23:22.969Z</time></trkpt><trkpt lat="33.3988117" lon="10.2004967"><ele>238.33333333333331</ele><time>2026-04-20T09:23:23.969Z</time></trkpt><trkpt lat="33.3986417" lon="10.2006067"><ele>238.0</ele><time>2026-04-20T09:23:24.969Z</time></trkpt><trkpt lat="33.3984717" lon="10.20071"><ele>238.0</ele><time>2026-04-20T09:23:25.969Z</time></trkpt><trkpt lat="33.3983017" lon="10.2008217"><ele>238.0</ele><time>2026-04-20T09:23:26.969Z</time></trkpt><trkpt lat="33.3981317" lon="10.2009333"><ele>238.0</ele><time>2026-04-20T09:23:27.969Z</time></trkpt><trkpt lat="33.3979633" lon="10.2010433"><ele>238.0</ele><time>2026-04-20T09:23:28.969Z</time></trkpt><trkpt lat="33.397795" lon="10.2011533"><ele>238.0</ele><time>2026-04-20T09:23:29.969Z</time></trkpt><trkpt lat="33.3976267" lon="10.201255"><ele>238.0</ele><time>2026-04-20T09:23:30.969Z</time></trkpt><trkpt lat="33.3974617" lon="10.2013667"><ele>238.0</ele><time>2026-04-20T09:23:31.969Z</time></trkpt><trkpt lat="33.39729" lon="10.20147"><ele>238.0</ele><time>2026-04-20T09:23:32.969Z</time></trkpt><trkpt lat="33.397115" lon="10.2015683"><ele>238.0</ele><time>2026-04-20T09:23:33.969Z</time></trkpt><trkpt lat="33.39694" lon="10.2016583"><ele>236.66666666666666</ele><time>2026-04-20T09:23:34.969Z</time></trkpt><trkpt lat="33.3967517" lon="10.2017433"><ele>235.33333333333331</ele><time>2026-04-20T09:23:35.969Z</time></trkpt><trkpt lat="33.3965583" lon="10.2018283"><ele>234.0</ele><time>2026-04-20T09:23:36.969Z</time></trkpt><trkpt lat="33.396365" lon="10.2019067"><ele>233.66666666666669</ele><time>2026-04-20T09:23:37.969Z</time></trkpt><trkpt lat="33.3961883" lon="10.2019817"><ele>233.33333333333334</ele><time>2026-04-20T09:23:38.969Z</time></trkpt><trkpt lat="33.3959917" lon="10.2020533"><ele>233.0</ele><time>2026-04-20T09:23:39.969Z</time></trkpt><trkpt lat="33.3957983" lon="10.20213"><ele>233.0</ele><time>2026-04-20T09:23:40.969Z</time></trkpt><trkpt lat="33.3955983" lon="10.2021933"><ele>233.0</ele><time>2026-04-20T09:23:41.969Z</time></trkpt><trkpt lat="33.3954133" lon="10.2022583"><ele>233.0</ele><time>2026-04-20T09:23:42.969Z</time></trkpt><trkpt lat="33.39523" lon="10.2023167"><ele>232.66666666666669</ele><time>2026-04-20T09:23:43.969Z</time></trkpt><trkpt lat="33.39504" lon="10.202385"><ele>232.33333333333331</ele><time>2026-04-20T09:23:44.969Z</time></trkpt><trkpt lat="33.3948483" lon="10.2024517"><ele>232.0</ele><time>2026-04-20T09:23:45.969Z</time></trkpt><trkpt lat="33.3946517" lon="10.20252"><ele>232.66666666666666</ele><time>2026-04-20T09:23:46.969Z</time></trkpt><trkpt lat="33.3944733" lon="10.2025917"><ele>233.33333333333331</ele><time>2026-04-20T09:23:47.969Z</time></trkpt><trkpt lat="33.3942867" lon="10.2026567"><ele>234.0</ele><time>2026-04-20T09:23:48.969Z</time></trkpt><trkpt lat="33.39411" lon="10.20272"><ele>234.0</ele><time>2026-04-20T09:23:49.969Z</time></trkpt><trkpt lat="33.3939433" lon="10.2027767"><ele>234.0</ele><time>2026-04-20T09:23:50.969Z</time></trkpt><trkpt lat="33.3937683" lon="10.2028383"><ele>234.0</ele><time>2026-04-20T09:23:51.969Z</time></trkpt><trkpt lat="33.39359" lon="10.2029067"><ele>233.0</ele><time>2026-04-20T09:23:52.969Z</time></trkpt><trkpt lat="33.3934067" lon="10.20297"><ele>232.0</ele><time>2026-04-20T09:23:53.969Z</time></trkpt><trkpt lat="33.3932267" lon="10.2030317"><ele>231.0</ele><time>2026-04-20T09:23:54.969Z</time></trkpt><trkpt lat="33.3930467" lon="10.2031117"><ele>230.33333333333331</ele><time>2026-04-20T09:23:55.969Z</time></trkpt><trkpt lat="33.392865" lon="10.2031967"><ele>229.66666666666666</ele><time>2026-04-20T09:23:56.969Z</time></trkpt><trkpt lat="33.39268" lon="10.2032817"><ele>229.0</ele><time>2026-04-20T09:23:57.969Z</time></trkpt><trkpt lat="33.3924817" lon="10.2033633"><ele>229.0</ele><time>2026-04-20T09:23:58.969Z</time></trkpt><trkpt lat="33.3922833" lon="10.2034433"><ele>229.0</ele><time>2026-04-20T09:23:59.969Z</time></trkpt><trkpt lat="33.39208" lon="10.20352"><ele>229.0</ele><time>2026-04-20T09:24:00.969Z</time></trkpt><trkpt lat="33.3918817" lon="10.203605"><ele>229.33333333333331</ele><time>2026-04-20T09:24:01.969Z</time></trkpt><trkpt lat="33.3916933" lon="10.2036967"><ele>229.66666666666669</ele><time>2026-04-20T09:24:02.969Z</time></trkpt><trkpt lat="33.3915" lon="10.2037917"><ele>230.0</ele><time>2026-04-20T09:24:03.969Z</time></trkpt><trkpt lat="33.3913083" lon="10.2038983"><ele>229.33333333333334</ele><time>2026-04-20T09:24:04.969Z</time></trkpt><trkpt lat="33.3911283" lon="10.204005"><ele>228.66666666666669</ele><time>2026-04-20T09:24:05.969Z</time></trkpt><trkpt lat="33.39094" lon="10.204125"><ele>228.0</ele><time>2026-04-20T09:24:06.969Z</time></trkpt><trkpt lat="33.39075" lon="10.2042233"><ele>228.0</ele><time>2026-04-20T09:24:07.969Z</time></trkpt><trkpt lat="33.3905517" lon="10.2043233"><ele>228.0</ele><time>2026-04-20T09:24:08.969Z</time></trkpt><trkpt lat="33.390365" lon="10.204425"><ele>228.0</ele><time>2026-04-20T09:24:09.969Z</time></trkpt><trkpt lat="33.3901683" lon="10.2045317"><ele>227.66666666666669</ele><time>2026-04-20T09:24:10.969Z</time></trkpt><trkpt lat="33.3899767" lon="10.2046367"><ele>227.33333333333334</ele><time>2026-04-20T09:24:11.969Z</time></trkpt><trkpt lat="33.3897783" lon="10.204745"><ele>227.0</ele><time>2026-04-20T09:24:12.969Z</time></trkpt><trkpt lat="33.3895867" lon="10.2048417"><ele>226.33333333333334</ele><time>2026-04-20T09:24:13.969Z</time></trkpt><trkpt lat="33.3893917" lon="10.204955"><ele>225.66666666666669</ele><time>2026-04-20T09:24:14.969Z</time></trkpt><trkpt lat="33.3892" lon="10.2050717"><ele>225.0</ele><time>2026-04-20T09:24:15.969Z</time></trkpt><trkpt lat="33.3890183" lon="10.2051867"><ele>224.66666666666669</ele><time>2026-04-20T09:24:16.969Z</time></trkpt><trkpt lat="33.38883" lon="10.2052983"><ele>224.33333333333334</ele><time>2026-04-20T09:24:17.969Z</time></trkpt><trkpt lat="33.3886483" lon="10.2054017"><ele>224.0</ele><time>2026-04-20T09:24:18.969Z</time></trkpt><trkpt lat="33.3884617" lon="10.2054933"><ele>224.0</ele><time>2026-04-20T09:24:19.969Z</time></trkpt><trkpt lat="33.38827" lon="10.2055933"><ele>224.0</ele><time>2026-04-20T09:24:20.969Z</time></trkpt><trkpt lat="33.3880767" lon="10.205685"><ele>224.0</ele><time>2026-04-20T09:24:21.969Z</time></trkpt><trkpt lat="33.387885" lon="10.2057883"><ele>224.66666666666669</ele><time>2026-04-20T09:24:22.969Z</time></trkpt><trkpt lat="33.3876967" lon="10.2058867"><ele>225.33333333333331</ele><time>2026-04-20T09:24:23.969Z</time></trkpt><trkpt lat="33.3875067" lon="10.2059933"><ele>226.0</ele><time>2026-04-20T09:24:24.969Z</time></trkpt><trkpt lat="33.3873233" lon="10.2060983"><ele>226.0</ele><time>2026-04-20T09:24:25.969Z</time></trkpt><trkpt lat="33.3871367" lon="10.2062017"><ele>226.0</ele><time>2026-04-20T09:24:26.969Z</time></trkpt><trkpt lat="33.3869467" lon="10.2063033"><ele>226.0</ele><time>2026-04-20T09:24:27.969Z</time></trkpt><trkpt lat="33.3867517" lon="10.2064083"><ele>226.0</ele><time>2026-04-20T09:24:28.969Z</time></trkpt><trkpt lat="33.3865583" lon="10.2065083"><ele>226.0</ele><time>2026-04-20T09:24:29.969Z</time></trkpt><trkpt lat="33.38636" lon="10.2066083"><ele>226.0</ele><time>2026-04-20T09:24:30.969Z</time></trkpt><trkpt lat="33.3861683" lon="10.20672"><ele>226.33333333333331</ele><time>2026-04-20T09:24:31.969Z</time></trkpt><trkpt lat="33.3859783" lon="10.2068333"><ele>226.66666666666669</ele><time>2026-04-20T09:24:32.969Z</time></trkpt><trkpt lat="33.38579" lon="10.206945"><ele>227.0</ele><time>2026-04-20T09:24:33.969Z</time></trkpt><trkpt lat="33.3856117" lon="10.2070517"><ele>226.66666666666669</ele><time>2026-04-20T09:24:34.969Z</time></trkpt><trkpt lat="33.3854333" lon="10.2071583"><ele>226.33333333333331</ele><time>2026-04-20T09:24:35.969Z</time></trkpt><trkpt lat="33.3852533" lon="10.20728"><ele>226.0</ele><time>2026-04-20T09:24:36.969Z</time></trkpt><trkpt lat="33.385075" lon="10.2073933"><ele>225.66666666666666</ele><time>2026-04-20T09:24:37.969Z</time></trkpt><trkpt lat="33.38489" lon="10.2074983"><ele>225.33333333333331</ele><time>2026-04-20T09:24:38.969Z</time></trkpt><trkpt lat="33.384705" lon="10.2076067"><ele>225.0</ele><time>2026-04-20T09:24:39.969Z</time></trkpt><trkpt lat="33.3845233" lon="10.20771"><ele>226.0</ele><time>2026-04-20T09:24:40.969Z</time></trkpt><trkpt lat="33.384335" lon="10.2078167"><ele>227.0</ele><time>2026-04-20T09:24:41.969Z</time></trkpt><trkpt lat="33.3841467" lon="10.2079217"><ele>228.0</ele><time>2026-04-20T09:24:42.969Z</time></trkpt><trkpt lat="33.38396" lon="10.2080267"><ele>228.33333333333331</ele><time>2026-04-20T09:24:43.969Z</time></trkpt><trkpt lat="33.38377" lon="10.208135"><ele>228.66666666666666</ele><time>2026-04-20T09:24:44.969Z</time></trkpt><trkpt lat="33.3835767" lon="10.2082433"><ele>229.0</ele><time>2026-04-20T09:24:45.969Z</time></trkpt><trkpt lat="33.383385" lon="10.2083517"><ele>228.33333333333331</ele><time>2026-04-20T09:24:46.969Z</time></trkpt><trkpt lat="33.3831883" lon="10.2084533"><ele>227.66666666666669</ele><time>2026-04-20T09:24:47.969Z</time></trkpt><trkpt lat="33.3829933" lon="10.2085533"><ele>227.0</ele><time>2026-04-20T09:24:48.969Z</time></trkpt><trkpt lat="33.3827967" lon="10.2086633"><ele>226.66666666666669</ele><time>2026-04-20T09:24:49.969Z</time></trkpt><trkpt lat="33.3826033" lon="10.2087683"><ele>226.33333333333331</ele><time>2026-04-20T09:24:50.969Z</time></trkpt><trkpt lat="33.3824117" lon="10.2088733"><ele>226.0</ele><time>2026-04-20T09:24:51.969Z</time></trkpt><trkpt lat="33.382215" lon="10.2089783"><ele>225.0</ele><time>2026-04-20T09:24:52.969Z</time></trkpt><trkpt lat="33.38202" lon="10.20908"><ele>224.0</ele><time>2026-04-20T09:24:53.969Z</time></trkpt><trkpt lat="33.3818333" lon="10.2091783"><ele>223.0</ele><time>2026-04-20T09:24:54.969Z</time></trkpt><trkpt lat="33.3816683" lon="10.2092817"><ele>223.0</ele><time>2026-04-20T09:24:55.969Z</time></trkpt><trkpt lat="33.38149" lon="10.20938"><ele>223.0</ele><time>2026-04-20T09:24:56.969Z</time></trkpt><trkpt lat="33.3813183" lon="10.2094767"><ele>223.0</ele><time>2026-04-20T09:24:57.969Z</time></trkpt><trkpt lat="33.3811383" lon="10.2095733"><ele>223.66666666666666</ele><time>2026-04-20T09:24:58.969Z</time></trkpt><trkpt lat="33.3809667" lon="10.2096767"><ele>224.33333333333331</ele><time>2026-04-20T09:24:59.969Z</time></trkpt><trkpt lat="33.3807917" lon="10.209785"><ele>225.0</ele><time>2026-04-20T09:25:00.969Z</time></trkpt><trkpt lat="33.3806133" lon="10.2098867"><ele>225.0</ele><time>2026-04-20T09:25:01.969Z</time></trkpt><trkpt lat="33.3804333" lon="10.20998"><ele>225.0</ele><time>2026-04-20T09:25:02.969Z</time></trkpt><trkpt lat="33.38025" lon="10.210085"><ele>225.0</ele><time>2026-04-20T09:25:03.969Z</time></trkpt><trkpt lat="33.3800733" lon="10.21018"><ele>225.0</ele><time>2026-04-20T09:25:04.969Z</time></trkpt><trkpt lat="33.379895" lon="10.2102717"><ele>225.0</ele><time>2026-04-20T09:25:05.969Z</time></trkpt><trkpt lat="33.37971" lon="10.210365"><ele>225.0</ele><time>2026-04-20T09:25:06.969Z</time></trkpt><trkpt lat="33.3795183" lon="10.210455"><ele>225.0</ele><time>2026-04-20T09:25:07.969Z</time></trkpt><trkpt lat="33.37933" lon="10.2105517"><ele>225.0</ele><time>2026-04-20T09:25:08.969Z</time></trkpt><trkpt lat="33.3791467" lon="10.2106583"><ele>225.0</ele><time>2026-04-20T09:25:09.969Z</time></trkpt><trkpt lat="33.3789633" lon="10.210765"><ele>225.33333333333331</ele><time>2026-04-20T09:25:10.969Z</time></trkpt><trkpt lat="33.3787967" lon="10.2108633"><ele>225.66666666666666</ele><time>2026-04-20T09:25:11.969Z</time></trkpt><trkpt lat="33.3786417" lon="10.21096"><ele>226.0</ele><time>2026-04-20T09:25:12.969Z</time></trkpt><trkpt lat="33.3784917" lon="10.2110433"><ele>226.0</ele><time>2026-04-20T09:25:13.969Z</time></trkpt><trkpt lat="33.378335" lon="10.211125"><ele>226.0</ele><time>2026-04-20T09:25:14.969Z</time></trkpt><trkpt lat="33.3781833" lon="10.211205"><ele>226.0</ele><time>2026-04-20T09:25:15.969Z</time></trkpt><trkpt lat="33.3780417" lon="10.2112783"><ele>226.0</ele><time>2026-04-20T09:25:16.969Z</time></trkpt><trkpt lat="33.3778967" lon="10.2113567"><ele>226.0</ele><time>2026-04-20T09:25:17.969Z</time></trkpt><trkpt lat="33.3777533" lon="10.211435"><ele>226.0</ele><time>2026-04-20T09:25:18.969Z</time></trkpt><trkpt lat="33.377615" lon="10.2115183"><ele>226.25</ele><time>2026-04-20T09:25:19.969Z</time></trkpt><trkpt lat="33.3774767" lon="10.2115917"><ele>226.5</ele><time>2026-04-20T09:25:20.969Z</time></trkpt><trkpt lat="33.3773433" lon="10.2116617"><ele>226.75</ele><time>2026-04-20T09:25:21.969Z</time></trkpt><trkpt lat="33.3772133" lon="10.2117367"><ele>227.0</ele><time>2026-04-20T09:25:22.969Z</time></trkpt><trkpt lat="33.3770817" lon="10.2118067"><ele>227.25</ele><time>2026-04-20T09:25:23.969Z</time></trkpt><trkpt lat="33.37695" lon="10.211875"><ele>227.5</ele><time>2026-04-20T09:25:24.969Z</time></trkpt><trkpt lat="33.3768167" lon="10.211955"><ele>227.75</ele><time>2026-04-20T09:25:25.969Z</time></trkpt><trkpt lat="33.376675" lon="10.2120333"><ele>228.0</ele><time>2026-04-20T09:25:26.969Z</time></trkpt><trkpt lat="33.3765367" lon="10.2121133"><ele>228.0</ele><time>2026-04-20T09:25:27.969Z</time></trkpt><trkpt lat="33.3763917" lon="10.21218"><ele>228.0</ele><time>2026-04-20T09:25:28.969Z</time></trkpt><trkpt lat="33.3762467" lon="10.21226"><ele>228.0</ele><time>2026-04-20T09:25:29.969Z</time></trkpt><trkpt lat="33.3760933" lon="10.212335"><ele>228.0</ele><time>2026-04-20T09:25:30.969Z</time></trkpt><trkpt lat="33.375945" lon="10.2124183"><ele>228.0</ele><time>2026-04-20T09:25:31.969Z</time></trkpt><trkpt lat="33.3757867" lon="10.2125183"><ele>228.0</ele><time>2026-04-20T09:25:32.969Z</time></trkpt><trkpt lat="33.3756233" lon="10.2126083"><ele>228.0</ele><time>2026-04-20T09:25:33.969Z</time></trkpt><trkpt lat="33.375465" lon="10.2126983"><ele>228.0</ele><time>2026-04-20T09:25:34.969Z</time></trkpt><trkpt lat="33.3752983" lon="10.2127867"><ele>228.0</ele><time>2026-04-20T09:25:35.969Z</time></trkpt><trkpt lat="33.3751267" lon="10.2128683"><ele>228.0</ele><time>2026-04-20T09:25:36.969Z</time></trkpt><trkpt lat="33.3749383" lon="10.212965"><ele>228.0</ele><time>2026-04-20T09:25:37.969Z</time></trkpt><trkpt lat="33.37476" lon="10.21306"><ele>228.0</ele><time>2026-04-20T09:25:38.969Z</time></trkpt><trkpt lat="33.3745767" lon="10.2131617"><ele>227.66666666666669</ele><time>2026-04-20T09:25:39.969Z</time></trkpt><trkpt lat="33.3743967" lon="10.21326"><ele>227.33333333333334</ele><time>2026-04-20T09:25:40.969Z</time></trkpt><trkpt lat="33.3741967" lon="10.2133617"><ele>227.0</ele><time>2026-04-20T09:25:41.969Z</time></trkpt><trkpt lat="33.374005" lon="10.2134617"><ele>226.66666666666669</ele><time>2026-04-20T09:25:42.969Z</time></trkpt><trkpt lat="33.3738067" lon="10.2135667"><ele>226.33333333333331</ele><time>2026-04-20T09:25:43.969Z</time></trkpt><trkpt lat="33.3736183" lon="10.2136767"><ele>226.0</ele><time>2026-04-20T09:25:44.969Z</time></trkpt><trkpt lat="33.3734183" lon="10.213785"><ele>226.0</ele><time>2026-04-20T09:25:45.969Z</time></trkpt><trkpt lat="33.3732133" lon="10.2138967"><ele>226.0</ele><time>2026-04-20T09:25:46.969Z</time></trkpt><trkpt lat="33.3730083" lon="10.21401"><ele>226.0</ele><time>2026-04-20T09:25:47.969Z</time></trkpt><trkpt lat="33.3728033" lon="10.2141217"><ele>226.0</ele><time>2026-04-20T09:25:48.969Z</time></trkpt><trkpt lat="33.3726033" lon="10.2142317"><ele>226.0</ele><time>2026-04-20T09:25:49.969Z</time></trkpt><trkpt lat="33.3724" lon="10.214345"><ele>226.5</ele><time>2026-04-20T09:25:50.969Z</time></trkpt><trkpt lat="33.3721867" lon="10.2144517"><ele>227.0</ele><time>2026-04-20T09:25:51.969Z</time></trkpt><trkpt lat="33.3719767" lon="10.2145617"><ele>227.0</ele><time>2026-04-20T09:25:52.969Z</time></trkpt><trkpt lat="33.3717617" lon="10.21467"><ele>227.0</ele><time>2026-04-20T09:25:53.969Z</time></trkpt><trkpt lat="33.3715517" lon="10.2147867"><ele>226.5</ele><time>2026-04-20T09:25:54.969Z</time></trkpt><trkpt lat="33.371325" lon="10.2149133"><ele>226.0</ele><time>2026-04-20T09:25:55.969Z</time></trkpt><trkpt lat="33.37111" lon="10.2150283"><ele>226.0</ele><time>2026-04-20T09:25:56.969Z</time></trkpt><trkpt lat="33.37089" lon="10.2151483"><ele>226.0</ele><time>2026-04-20T09:25:57.969Z</time></trkpt><trkpt lat="33.3706783" lon="10.2152583"><ele>227.5</ele><time>2026-04-20T09:25:58.969Z</time></trkpt><trkpt lat="33.3704667" lon="10.21537"><ele>229.0</ele><time>2026-04-20T09:25:59.969Z</time></trkpt><trkpt lat="33.3702467" lon="10.2154867"><ele>229.0</ele><time>2026-04-20T09:26:00.969Z</time></trkpt><trkpt lat="33.3700317" lon="10.2156067"><ele>229.0</ele><time>2026-04-20T09:26:01.969Z</time></trkpt><trkpt lat="33.36981" lon="10.2157267"><ele>228.5</ele><time>2026-04-20T09:26:02.969Z</time></trkpt><trkpt lat="33.3695917" lon="10.2158417"><ele>228.0</ele><time>2026-04-20T09:26:03.969Z</time></trkpt><trkpt lat="33.3693717" lon="10.2159567"><ele>228.0</ele><time>2026-04-20T09:26:04.969Z</time></trkpt><trkpt lat="33.36915" lon="10.2160783"><ele>228.0</ele><time>2026-04-20T09:26:05.969Z</time></trkpt><trkpt lat="33.368925" lon="10.216195"><ele>228.0</ele><time>2026-04-20T09:26:06.969Z</time></trkpt><trkpt lat="33.368705" lon="10.21631"><ele>228.0</ele><time>2026-04-20T09:26:07.969Z</time></trkpt><trkpt lat="33.3684933" lon="10.21643"><ele>227.0</ele><time>2026-04-20T09:26:08.969Z</time></trkpt><trkpt lat="33.368295" lon="10.2165367"><ele>226.0</ele><time>2026-04-20T09:26:09.969Z</time></trkpt><trkpt lat="33.3681167" lon="10.21664"><ele>225.0</ele><time>2026-04-20T09:26:10.969Z</time></trkpt><trkpt lat="33.3679583" lon="10.2167233"><ele>225.0</ele><time>2026-04-20T09:26:11.969Z</time></trkpt><trkpt lat="33.367795" lon="10.2167833"><ele>225.0</ele><time>2026-04-20T09:26:12.969Z</time></trkpt><trkpt lat="33.36764" lon="10.2167983"><ele>225.0</ele><time>2026-04-20T09:26:13.969Z</time></trkpt><trkpt lat="33.3674817" lon="10.216785"><ele>225.0</ele><time>2026-04-20T09:26:14.969Z</time></trkpt><trkpt lat="33.3673167" lon="10.2167383"><ele>225.0</ele><time>2026-04-20T09:26:15.969Z</time></trkpt><trkpt lat="33.36716" lon="10.2166733"><ele>225.0</ele><time>2026-04-20T09:26:16.969Z</time></trkpt><trkpt lat="33.3669917" lon="10.2166217"><ele>225.0</ele><time>2026-04-20T09:26:17.969Z</time></trkpt><trkpt lat="33.3668183" lon="10.2166133"><ele>225.0</ele><time>2026-04-20T09:26:18.969Z</time></trkpt><trkpt lat="33.3666467" lon="10.2166367"><ele>225.0</ele><time>2026-04-20T09:26:19.969Z</time></trkpt><trkpt lat="33.36648" lon="10.2166933"><ele>225.33333333333331</ele><time>2026-04-20T09:26:20.969Z</time></trkpt><trkpt lat="33.3663133" lon="10.2167817"><ele>225.66666666666666</ele><time>2026-04-20T09:26:21.969Z</time></trkpt><trkpt lat="33.3661567" lon="10.21688"><ele>226.0</ele><time>2026-04-20T09:26:22.969Z</time></trkpt><trkpt lat="33.3659967" lon="10.2169817"><ele>226.0</ele><time>2026-04-20T09:26:23.969Z</time></trkpt><trkpt lat="33.3658333" lon="10.2170783"><ele>226.0</ele><time>2026-04-20T09:26:24.969Z</time></trkpt><trkpt lat="33.3656617" lon="10.2171817"><ele>226.0</ele><time>2026-04-20T09:26:25.969Z</time></trkpt><trkpt lat="33.3654933" lon="10.217275"><ele>227.0</ele><time>2026-04-20T09:26:26.969Z</time></trkpt><trkpt lat="33.3653267" lon="10.2173783"><ele>228.0</ele><time>2026-04-20T09:26:27.969Z</time></trkpt><trkpt lat="33.365155" lon="10.2174867"><ele>229.0</ele><time>2026-04-20T09:26:28.969Z</time></trkpt><trkpt lat="33.3649767" lon="10.2175983"><ele>229.0</ele><time>2026-04-20T09:26:29.969Z</time></trkpt><trkpt lat="33.3647933" lon="10.2177083"><ele>229.0</ele><time>2026-04-20T09:26:30.969Z</time></trkpt><trkpt lat="33.3646117" lon="10.2178117"><ele>229.0</ele><time>2026-04-20T09:26:31.969Z</time></trkpt><trkpt lat="33.3644317" lon="10.217925"><ele>229.0</ele><time>2026-04-20T09:26:32.968Z</time></trkpt><trkpt lat="33.3642567" lon="10.21803"><ele>229.0</ele><time>2026-04-20T09:26:33.968Z</time></trkpt><trkpt lat="33.3640917" lon="10.218125"><ele>229.0</ele><time>2026-04-20T09:26:34.968Z</time></trkpt><trkpt lat="33.36394" lon="10.2182183"><ele>229.33333333333331</ele><time>2026-04-20T09:26:35.968Z</time></trkpt><trkpt lat="33.3637983" lon="10.2182967"><ele>229.66666666666669</ele><time>2026-04-20T09:26:36.968Z</time></trkpt><trkpt lat="33.3636667" lon="10.2183717"><ele>230.0</ele><time>2026-04-20T09:26:37.968Z</time></trkpt><trkpt lat="33.363535" lon="10.2184533"><ele>230.0</ele><time>2026-04-20T09:26:38.968Z</time></trkpt><trkpt lat="33.363405" lon="10.2185283"><ele>230.0</ele><time>2026-04-20T09:26:39.968Z</time></trkpt><trkpt lat="33.3632783" lon="10.218615"><ele>230.0</ele><time>2026-04-20T09:26:40.968Z</time></trkpt><trkpt lat="33.36314" lon="10.21869"><ele>230.0</ele><time>2026-04-20T09:26:41.968Z</time></trkpt><trkpt lat="33.363" lon="10.2187733"><ele>229.33333333333334</ele><time>2026-04-20T09:26:42.968Z</time></trkpt><trkpt lat="33.3628567" lon="10.2188533"><ele>228.66666666666669</ele><time>2026-04-20T09:26:43.968Z</time></trkpt><trkpt lat="33.3627133" lon="10.218935"><ele>228.0</ele><time>2026-04-20T09:26:44.968Z</time></trkpt><trkpt lat="33.3625517" lon="10.2190083"><ele>228.0</ele><time>2026-04-20T09:26:45.968Z</time></trkpt><trkpt lat="33.3623883" lon="10.2190667"><ele>228.0</ele><time>2026-04-20T09:26:46.968Z</time></trkpt><trkpt lat="33.36222" lon="10.2191167"><ele>228.0</ele><time>2026-04-20T09:26:47.968Z</time></trkpt><trkpt lat="33.36204" lon="10.2191583"><ele>228.0</ele><time>2026-04-20T09:26:48.968Z</time></trkpt><trkpt lat="33.361855" lon="10.2191983"><ele>228.0</ele><time>2026-04-20T09:26:49.968Z</time></trkpt><trkpt lat="33.3616667" lon="10.2192333"><ele>228.0</ele><time>2026-04-20T09:26:50.968Z</time></trkpt><trkpt lat="33.3614883" lon="10.2192783"><ele>227.66666666666669</ele><time>2026-04-20T09:26:51.968Z</time></trkpt><trkpt lat="33.3612967" lon="10.2193283"><ele>227.33333333333334</ele><time>2026-04-20T09:26:52.968Z</time></trkpt><trkpt lat="33.3611033" lon="10.219385"><ele>227.0</ele><time>2026-04-20T09:26:53.968Z</time></trkpt><trkpt lat="33.360905" lon="10.2194367"><ele>227.0</ele><time>2026-04-20T09:26:54.968Z</time></trkpt><trkpt lat="33.3607083" lon="10.2194983"><ele>227.0</ele><time>2026-04-20T09:26:55.968Z</time></trkpt><trkpt lat="33.36051" lon="10.2195717"><ele>227.0</ele><time>2026-04-20T09:26:56.968Z</time></trkpt><trkpt lat="33.3603083" lon="10.2196367"><ele>226.33333333333334</ele><time>2026-04-20T09:26:57.968Z</time></trkpt><trkpt lat="33.3600983" lon="10.2197017"><ele>225.66666666666669</ele><time>2026-04-20T09:26:58.968Z</time></trkpt><trkpt lat="33.3598933" lon="10.2197683"><ele>225.0</ele><time>2026-04-20T09:26:59.968Z</time></trkpt><trkpt lat="33.359685" lon="10.2198317"><ele>225.0</ele><time>2026-04-20T09:27:00.968Z</time></trkpt><trkpt lat="33.3594783" lon="10.2198967"><ele>225.0</ele><time>2026-04-20T09:27:01.968Z</time></trkpt><trkpt lat="33.359275" lon="10.219955"><ele>225.0</ele><time>2026-04-20T09:27:02.968Z</time></trkpt><trkpt lat="33.3590717" lon="10.2200167"><ele>224.66666666666669</ele><time>2026-04-20T09:27:03.968Z</time></trkpt><trkpt lat="33.3588617" lon="10.22009"><ele>224.33333333333334</ele><time>2026-04-20T09:27:04.968Z</time></trkpt><trkpt lat="33.35865" lon="10.2201683"><ele>224.0</ele><time>2026-04-20T09:27:05.968Z</time></trkpt><trkpt lat="33.3584367" lon="10.2202417"><ele>224.0</ele><time>2026-04-20T09:27:06.968Z</time></trkpt><trkpt lat="33.35823" lon="10.2203167"><ele>224.0</ele><time>2026-04-20T09:27:07.968Z</time></trkpt><trkpt lat="33.3580283" lon="10.2203883"><ele>224.0</ele><time>2026-04-20T09:27:08.968Z</time></trkpt><trkpt lat="33.3578183" lon="10.22046"><ele>224.66666666666669</ele><time>2026-04-20T09:27:09.968Z</time></trkpt><trkpt lat="33.35761" lon="10.22052"><ele>225.33333333333331</ele><time>2026-04-20T09:27:10.968Z</time></trkpt><trkpt lat="33.3573967" lon="10.2205867"><ele>226.0</ele><time>2026-04-20T09:27:11.968Z</time></trkpt><trkpt lat="33.3571883" lon="10.2206567"><ele>226.0</ele><time>2026-04-20T09:27:12.968Z</time></trkpt><trkpt lat="33.3569767" lon="10.2207267"><ele>226.0</ele><time>2026-04-20T09:27:13.968Z</time></trkpt><trkpt lat="33.3567683" lon="10.2207967"><ele>226.0</ele><time>2026-04-20T09:27:14.968Z</time></trkpt><trkpt lat="33.3565633" lon="10.2208717"><ele>226.0</ele><time>2026-04-20T09:27:15.968Z</time></trkpt><trkpt lat="33.35635" lon="10.2209433"><ele>226.0</ele><time>2026-04-20T09:27:16.968Z</time></trkpt><trkpt lat="33.3561383" lon="10.2210083"><ele>226.0</ele><time>2026-04-20T09:27:17.968Z</time></trkpt><trkpt lat="33.35592" lon="10.2210833"><ele>226.0</ele><time>2026-04-20T09:27:18.968Z</time></trkpt><trkpt lat="33.3556967" lon="10.2211433"><ele>226.0</ele><time>2026-04-20T09:27:19.968Z</time></trkpt><trkpt lat="33.3554717" lon="10.2212217"><ele>224.5</ele><time>2026-04-20T09:27:20.968Z</time></trkpt><trkpt lat="33.3552483" lon="10.2212933"><ele>223.0</ele><time>2026-04-20T09:27:21.968Z</time></trkpt><trkpt lat="33.3550233" lon="10.2213667"><ele>223.0</ele><time>2026-04-20T09:27:22.968Z</time></trkpt><trkpt lat="33.3548017" lon="10.2214417"><ele>223.0</ele><time>2026-04-20T09:27:23.968Z</time></trkpt><trkpt lat="33.3545817" lon="10.221515"><ele>222.0</ele><time>2026-04-20T09:27:24.968Z</time></trkpt><trkpt lat="33.35436" lon="10.22158"><ele>221.0</ele><time>2026-04-20T09:27:25.968Z</time></trkpt><trkpt lat="33.3541467" lon="10.221645"><ele>220.0</ele><time>2026-04-20T09:27:26.968Z</time></trkpt><trkpt lat="33.3539417" lon="10.221725"><ele>220.0</ele><time>2026-04-20T09:27:27.968Z</time></trkpt><trkpt lat="33.353745" lon="10.2217917"><ele>220.0</ele><time>2026-04-20T09:27:28.968Z</time></trkpt><trkpt lat="33.353545" lon="10.2218583"><ele>220.0</ele><time>2026-04-20T09:27:29.968Z</time></trkpt><trkpt lat="33.3533367" lon="10.2219317"><ele>220.0</ele><time>2026-04-20T09:27:30.968Z</time></trkpt><trkpt lat="33.3531183" lon="10.2220033"><ele>220.0</ele><time>2026-04-20T09:27:31.968Z</time></trkpt><trkpt lat="33.35291" lon="10.2220667"><ele>220.0</ele><time>2026-04-20T09:27:32.968Z</time></trkpt><trkpt lat="33.352705" lon="10.2221217"><ele>221.0</ele><time>2026-04-20T09:27:33.968Z</time></trkpt><trkpt lat="33.3525" lon="10.2221867"><ele>222.0</ele><time>2026-04-20T09:27:34.968Z</time></trkpt><trkpt lat="33.3522933" lon="10.22225"><ele>223.0</ele><time>2026-04-20T09:27:35.968Z</time></trkpt><trkpt lat="33.35208" lon="10.2223083"><ele>222.33333333333331</ele><time>2026-04-20T09:27:36.968Z</time></trkpt><trkpt lat="33.351875" lon="10.2223717"><ele>221.66666666666669</ele><time>2026-04-20T09:27:37.968Z</time></trkpt><trkpt lat="33.3516683" lon="10.2224283"><ele>221.0</ele><time>2026-04-20T09:27:38.968Z</time></trkpt><trkpt lat="33.3514633" lon="10.222505"><ele>220.66666666666669</ele><time>2026-04-20T09:27:39.968Z</time></trkpt><trkpt lat="33.351255" lon="10.2225733"><ele>220.33333333333331</ele><time>2026-04-20T09:27:40.968Z</time></trkpt><trkpt lat="33.351045" lon="10.2226467"><ele>220.0</ele><time>2026-04-20T09:27:41.968Z</time></trkpt><trkpt lat="33.350835" lon="10.2227183"><ele>220.0</ele><time>2026-04-20T09:27:42.968Z</time></trkpt><trkpt lat="33.35062" lon="10.2227767"><ele>220.0</ele><time>2026-04-20T09:27:43.968Z</time></trkpt><trkpt lat="33.3504067" lon="10.2228367"><ele>220.0</ele><time>2026-04-20T09:27:44.968Z</time></trkpt><trkpt lat="33.350195" lon="10.222905"><ele>220.33333333333331</ele><time>2026-04-20T09:27:45.968Z</time></trkpt><trkpt lat="33.3499767" lon="10.2229733"><ele>220.66666666666669</ele><time>2026-04-20T09:27:46.968Z</time></trkpt><trkpt lat="33.3497633" lon="10.2230467"><ele>221.0</ele><time>2026-04-20T09:27:47.968Z</time></trkpt><trkpt lat="33.3495517" lon="10.2231183"><ele>221.0</ele><time>2026-04-20T09:27:48.968Z</time></trkpt><trkpt lat="33.3493433" lon="10.22319"><ele>221.0</ele><time>2026-04-20T09:27:49.968Z</time></trkpt><trkpt lat="33.3491267" lon="10.22326"><ele>221.0</ele><time>2026-04-20T09:27:50.968Z</time></trkpt><trkpt lat="33.348915" lon="10.223335"><ele>220.66666666666669</ele><time>2026-04-20T09:27:51.968Z</time></trkpt><trkpt lat="33.3487" lon="10.2234083"><ele>220.33333333333331</ele><time>2026-04-20T09:27:52.968Z</time></trkpt><trkpt lat="33.348485" lon="10.22348"><ele>220.0</ele><time>2026-04-20T09:27:53.968Z</time></trkpt><trkpt lat="33.3482717" lon="10.22355"><ele>220.0</ele><time>2026-04-20T09:27:54.968Z</time></trkpt><trkpt lat="33.3480483" lon="10.2236267"><ele>220.0</ele><time>2026-04-20T09:27:55.968Z</time></trkpt><trkpt lat="33.3478317" lon="10.223705"><ele>221.5</ele><time>2026-04-20T09:27:56.968Z</time></trkpt><trkpt lat="33.3476167" lon="10.2237783"><ele>223.0</ele><time>2026-04-20T09:27:57.968Z</time></trkpt><trkpt lat="33.3473967" lon="10.2238533"><ele>221.5</ele><time>2026-04-20T09:27:58.968Z</time></trkpt><trkpt lat="33.347175" lon="10.2239417"><ele>220.0</ele><time>2026-04-20T09:27:59.968Z</time></trkpt><trkpt lat="33.3469617" lon="10.2240133"><ele>219.66666666666666</ele><time>2026-04-20T09:28:00.968Z</time></trkpt><trkpt lat="33.3467467" lon="10.2240833"><ele>219.33333333333331</ele><time>2026-04-20T09:28:01.968Z</time></trkpt><trkpt lat="33.3465367" lon="10.22415"><ele>219.0</ele><time>2026-04-20T09:28:02.968Z</time></trkpt><trkpt lat="33.34632" lon="10.22421"><ele>219.0</ele><time>2026-04-20T09:28:03.968Z</time></trkpt><trkpt lat="33.3461083" lon="10.2242417"><ele>219.0</ele><time>2026-04-20T09:28:04.968Z</time></trkpt><trkpt lat="33.3458883" lon="10.2242767"><ele>219.0</ele><time>2026-04-20T09:28:05.968Z</time></trkpt><trkpt lat="33.3456633" lon="10.22428"><ele>219.0</ele><time>2026-04-20T09:28:06.968Z</time></trkpt><trkpt lat="33.3454267" lon="10.224295"><ele>219.0</ele><time>2026-04-20T09:28:07.968Z</time></trkpt><trkpt lat="33.3452033" lon="10.2243133"><ele>219.0</ele><time>2026-04-20T09:28:08.968Z</time></trkpt><trkpt lat="33.3449767" lon="10.22434"><ele>219.0</ele><time>2026-04-20T09:28:09.968Z</time></trkpt><trkpt lat="33.3447567" lon="10.2243617"><ele>219.0</ele><time>2026-04-20T09:28:10.968Z</time></trkpt><trkpt lat="33.3445367" lon="10.2243833"><ele>220.0</ele><time>2026-04-20T09:28:11.968Z</time></trkpt><trkpt lat="33.344305" lon="10.2244067"><ele>221.0</ele><time>2026-04-20T09:28:12.968Z</time></trkpt><trkpt lat="33.3440867" lon="10.2244367"><ele>220.5</ele><time>2026-04-20T09:28:13.968Z</time></trkpt><trkpt lat="33.3438617" lon="10.2244867"><ele>220.0</ele><time>2026-04-20T09:28:14.968Z</time></trkpt><trkpt lat="33.3436467" lon="10.2245567"><ele>220.0</ele><time>2026-04-20T09:28:15.968Z</time></trkpt><trkpt lat="33.3434417" lon="10.22465"><ele>220.0</ele><time>2026-04-20T09:28:16.968Z</time></trkpt><trkpt lat="33.3432517" lon="10.2247783"><ele>220.0</ele><time>2026-04-20T09:28:17.968Z</time></trkpt><trkpt lat="33.34306" lon="10.2249067"><ele>221.0</ele><time>2026-04-20T09:28:18.968Z</time></trkpt><trkpt lat="33.3428833" lon="10.225025"><ele>222.0</ele><time>2026-04-20T09:28:19.968Z</time></trkpt><trkpt lat="33.3426983" lon="10.225115"><ele>223.0</ele><time>2026-04-20T09:28:20.968Z</time></trkpt><trkpt lat="33.3424967" lon="10.2251783"><ele>223.0</ele><time>2026-04-20T09:28:21.968Z</time></trkpt><trkpt lat="33.3422933" lon="10.2252233"><ele>223.0</ele><time>2026-04-20T09:28:22.968Z</time></trkpt><trkpt lat="33.34209" lon="10.225265"><ele>223.0</ele><time>2026-04-20T09:28:23.968Z</time></trkpt><trkpt lat="33.3418917" lon="10.2253067"><ele>223.33333333333331</ele><time>2026-04-20T09:28:24.968Z</time></trkpt><trkpt lat="33.34169" lon="10.2253567"><ele>223.66666666666669</ele><time>2026-04-20T09:28:25.968Z</time></trkpt><trkpt lat="33.3414917" lon="10.2254183"><ele>224.0</ele><time>2026-04-20T09:28:26.968Z</time></trkpt><trkpt lat="33.3412883" lon="10.2254817"><ele>224.0</ele><time>2026-04-20T09:28:27.968Z</time></trkpt><trkpt lat="33.3410833" lon="10.2255533"><ele>224.0</ele><time>2026-04-20T09:28:28.968Z</time></trkpt><trkpt lat="33.3408783" lon="10.22562"><ele>224.0</ele><time>2026-04-20T09:28:29.968Z</time></trkpt><trkpt lat="33.340675" lon="10.2256933"><ele>223.0</ele><time>2026-04-20T09:28:30.968Z</time></trkpt><trkpt lat="33.34047" lon="10.2257667"><ele>222.0</ele><time>2026-04-20T09:28:31.969Z</time></trkpt><trkpt lat="33.3402633" lon="10.2258333"><ele>221.0</ele><time>2026-04-20T09:28:32.968Z</time></trkpt><trkpt lat="33.3400567" lon="10.225895"><ele>221.0</ele><time>2026-04-20T09:28:33.968Z</time></trkpt><trkpt lat="33.3398533" lon="10.22596"><ele>221.0</ele><time>2026-04-20T09:28:34.968Z</time></trkpt><trkpt lat="33.3396433" lon="10.2260183"><ele>221.0</ele><time>2026-04-20T09:28:35.968Z</time></trkpt><trkpt lat="33.33944" lon="10.2260833"><ele>222.33333333333334</ele><time>2026-04-20T09:28:36.968Z</time></trkpt><trkpt lat="33.3392333" lon="10.226155"><ele>223.66666666666669</ele><time>2026-04-20T09:28:37.968Z</time></trkpt><trkpt lat="33.3390267" lon="10.2262133"><ele>225.0</ele><time>2026-04-20T09:28:38.968Z</time></trkpt><trkpt lat="33.3388167" lon="10.2262417"><ele>225.33333333333331</ele><time>2026-04-20T09:28:39.968Z</time></trkpt><trkpt lat="33.3386" lon="10.2262683"><ele>225.66666666666666</ele><time>2026-04-20T09:28:40.968Z</time></trkpt><trkpt lat="33.33839" lon="10.2262817"><ele>226.0</ele><time>2026-04-20T09:28:41.968Z</time></trkpt><trkpt lat="33.3381733" lon="10.2262933"><ele>227.0</ele><time>2026-04-20T09:28:42.968Z</time></trkpt><trkpt lat="33.3379517" lon="10.2263033"><ele>228.0</ele><time>2026-04-20T09:28:43.968Z</time></trkpt><trkpt lat="33.33774" lon="10.2263133"><ele>229.0</ele><time>2026-04-20T09:28:44.968Z</time></trkpt><trkpt lat="33.3375283" lon="10.226325"><ele>229.0</ele><time>2026-04-20T09:28:45.968Z</time></trkpt><trkpt lat="33.33731" lon="10.2263517"><ele>229.0</ele><time>2026-04-20T09:28:46.968Z</time></trkpt><trkpt lat="33.3370933" lon="10.2263667"><ele>229.0</ele><time>2026-04-20T09:28:47.968Z</time></trkpt><trkpt lat="33.3368783" lon="10.2263867"><ele>229.66666666666666</ele><time>2026-04-20T09:28:48.968Z</time></trkpt><trkpt lat="33.3366617" lon="10.2264083"><ele>230.33333333333331</ele><time>2026-04-20T09:28:49.968Z</time></trkpt><trkpt lat="33.336445" lon="10.2264267"><ele>231.0</ele><time>2026-04-20T09:28:50.968Z</time></trkpt><trkpt lat="33.336235" lon="10.2264383"><ele>231.0</ele><time>2026-04-20T09:28:51.968Z</time></trkpt><trkpt lat="33.3360183" lon="10.2264583"><ele>231.0</ele><time>2026-04-20T09:28:52.968Z</time></trkpt><trkpt lat="33.3358033" lon="10.2264833"><ele>231.0</ele><time>2026-04-20T09:28:53.968Z</time></trkpt><trkpt lat="33.3355817" lon="10.2265017"><ele>230.66666666666669</ele><time>2026-04-20T09:28:54.968Z</time></trkpt><trkpt lat="33.3353833" lon="10.226525"><ele>230.33333333333334</ele><time>2026-04-20T09:28:55.968Z</time></trkpt><trkpt lat="33.3352033" lon="10.22653"><ele>230.0</ele><time>2026-04-20T09:28:56.968Z</time></trkpt><trkpt lat="33.3350383" lon="10.2265483"><ele>230.0</ele><time>2026-04-20T09:28:57.968Z</time></trkpt><trkpt lat="33.3348783" lon="10.22656"><ele>230.0</ele><time>2026-04-20T09:28:58.968Z</time></trkpt><trkpt lat="33.3347267" lon="10.226575"><ele>230.0</ele><time>2026-04-20T09:28:59.968Z</time></trkpt><trkpt lat="33.334585" lon="10.22659"><ele>230.5</ele><time>2026-04-20T09:29:00.968Z</time></trkpt><trkpt lat="33.3344433" lon="10.2266067"><ele>231.0</ele><time>2026-04-20T09:29:01.968Z</time></trkpt><trkpt lat="33.3342983" lon="10.226625"><ele>231.5</ele><time>2026-04-20T09:29:02.968Z</time></trkpt><trkpt lat="33.3341583" lon="10.2266433"><ele>232.0</ele><time>2026-04-20T09:29:03.968Z</time></trkpt><trkpt lat="33.334015" lon="10.2266633"><ele>232.75</ele><time>2026-04-20T09:29:04.968Z</time></trkpt><trkpt lat="33.3338817" lon="10.226685"><ele>233.5</ele><time>2026-04-20T09:29:05.968Z</time></trkpt><trkpt lat="33.33374" lon="10.2266967"><ele>234.25</ele><time>2026-04-20T09:29:06.968Z</time></trkpt><trkpt lat="33.3335933" lon="10.2267067"><ele>235.0</ele><time>2026-04-20T09:29:07.968Z</time></trkpt><trkpt lat="33.3334467" lon="10.226715"><ele>235.0</ele><time>2026-04-20T09:29:08.968Z</time></trkpt><trkpt lat="33.3333083" lon="10.2267167"><ele>235.0</ele><time>2026-04-20T09:29:09.968Z</time></trkpt><trkpt lat="33.333165" lon="10.2267183"><ele>235.0</ele><time>2026-04-20T09:29:10.968Z</time></trkpt><trkpt lat="33.33302" lon="10.2267267"><ele>235.0</ele><time>2026-04-20T09:29:11.968Z</time></trkpt><trkpt lat="33.332865" lon="10.22673"><ele>235.33333333333331</ele><time>2026-04-20T09:29:12.968Z</time></trkpt><trkpt lat="33.3327067" lon="10.2267317"><ele>235.66666666666669</ele><time>2026-04-20T09:29:13.968Z</time></trkpt><trkpt lat="33.332545" lon="10.2267233"><ele>236.0</ele><time>2026-04-20T09:29:14.968Z</time></trkpt><trkpt lat="33.3323817" lon="10.2267233"><ele>235.66666666666669</ele><time>2026-04-20T09:29:15.968Z</time></trkpt><trkpt lat="33.3322083" lon="10.226715"><ele>235.33333333333331</ele><time>2026-04-20T09:29:16.969Z</time></trkpt><trkpt lat="33.3320317" lon="10.2267083"><ele>235.0</ele><time>2026-04-20T09:29:17.968Z</time></trkpt><trkpt lat="33.3318533" lon="10.2267067"><ele>235.0</ele><time>2026-04-20T09:29:18.968Z</time></trkpt><trkpt lat="33.3316783" lon="10.2267067"><ele>235.0</ele><time>2026-04-20T09:29:19.968Z</time></trkpt><trkpt lat="33.3315" lon="10.2267117"><ele>235.0</ele><time>2026-04-20T09:29:20.968Z</time></trkpt><trkpt lat="33.3313167" lon="10.2267233"><ele>235.66666666666666</ele><time>2026-04-20T09:29:21.968Z</time></trkpt><trkpt lat="33.3311317" lon="10.2267467"><ele>236.33333333333331</ele><time>2026-04-20T09:29:22.968Z</time></trkpt><trkpt lat="33.33095" lon="10.22677"><ele>237.0</ele><time>2026-04-20T09:29:23.968Z</time></trkpt><trkpt lat="33.3307583" lon="10.226785"><ele>237.0</ele><time>2026-04-20T09:29:24.968Z</time></trkpt><trkpt lat="33.330565" lon="10.22681"><ele>237.0</ele><time>2026-04-20T09:29:25.968Z</time></trkpt><trkpt lat="33.3303733" lon="10.226825"><ele>237.0</ele><time>2026-04-20T09:29:26.968Z</time></trkpt><trkpt lat="33.3301767" lon="10.226835"><ele>238.33333333333331</ele><time>2026-04-20T09:29:27.968Z</time></trkpt><trkpt lat="33.3299783" lon="10.226855"><ele>239.66666666666666</ele><time>2026-04-20T09:29:28.968Z</time></trkpt><trkpt lat="33.3297867" lon="10.2268733"><ele>241.0</ele><time>2026-04-20T09:29:29.968Z</time></trkpt><trkpt lat="33.3295917" lon="10.226885"><ele>241.66666666666666</ele><time>2026-04-20T09:29:30.968Z</time></trkpt><trkpt lat="33.329395" lon="10.2268933"><ele>242.33333333333331</ele><time>2026-04-20T09:29:31.968Z</time></trkpt><trkpt lat="33.3291883" lon="10.2269117"><ele>243.0</ele><time>2026-04-20T09:29:32.968Z</time></trkpt><trkpt lat="33.328985" lon="10.2269233"><ele>243.66666666666669</ele><time>2026-04-20T09:29:33.968Z</time></trkpt><trkpt lat="33.3287833" lon="10.2269167"><ele>244.33333333333334</ele><time>2026-04-20T09:29:34.968Z</time></trkpt><trkpt lat="33.3285833" lon="10.2269017"><ele>245.0</ele><time>2026-04-20T09:29:35.968Z</time></trkpt><trkpt lat="33.328385" lon="10.2268883"><ele>245.0</ele><time>2026-04-20T09:29:36.968Z</time></trkpt><trkpt lat="33.328185" lon="10.226875"><ele>245.0</ele><time>2026-04-20T09:29:37.968Z</time></trkpt><trkpt lat="33.32798" lon="10.2268617"><ele>245.0</ele><time>2026-04-20T09:29:38.968Z</time></trkpt><trkpt lat="33.3277767" lon="10.2268383"><ele>244.66666666666669</ele><time>2026-04-20T09:29:39.968Z</time></trkpt><trkpt lat="33.32758" lon="10.22682"><ele>244.33333333333331</ele><time>2026-04-20T09:29:40.968Z</time></trkpt><trkpt lat="33.3273833" lon="10.2268"><ele>244.0</ele><time>2026-04-20T09:29:41.968Z</time></trkpt><trkpt lat="33.32718" lon="10.2267867"><ele>245.0</ele><time>2026-04-20T09:29:42.968Z</time></trkpt><trkpt lat="33.3269833" lon="10.2267783"><ele>246.0</ele><time>2026-04-20T09:29:43.968Z</time></trkpt><trkpt lat="33.3267817" lon="10.226775"><ele>247.0</ele><time>2026-04-20T09:29:44.968Z</time></trkpt><trkpt lat="33.32658" lon="10.2267667"><ele>247.0</ele><time>2026-04-20T09:29:45.968Z</time></trkpt><trkpt lat="33.3263867" lon="10.2267633"><ele>247.0</ele><time>2026-04-20T09:29:46.968Z</time></trkpt><trkpt lat="33.32619" lon="10.2267717"><ele>247.0</ele><time>2026-04-20T09:29:47.968Z</time></trkpt><trkpt lat="33.3259917" lon="10.226785"><ele>247.0</ele><time>2026-04-20T09:29:48.968Z</time></trkpt><trkpt lat="33.3257917" lon="10.2268"><ele>247.0</ele><time>2026-04-20T09:29:49.968Z</time></trkpt><trkpt lat="33.3255917" lon="10.226805"><ele>247.0</ele><time>2026-04-20T09:29:50.968Z</time></trkpt><trkpt lat="33.3253817" lon="10.22682"><ele>247.0</ele><time>2026-04-20T09:29:51.968Z</time></trkpt><trkpt lat="33.3251733" lon="10.2268367"><ele>247.0</ele><time>2026-04-20T09:29:52.968Z</time></trkpt><trkpt lat="33.3249683" lon="10.22686"><ele>247.0</ele><time>2026-04-20T09:29:53.968Z</time></trkpt><trkpt lat="33.3247617" lon="10.2268733"><ele>247.0</ele><time>2026-04-20T09:29:54.968Z</time></trkpt><trkpt lat="33.32456" lon="10.2268933"><ele>247.0</ele><time>2026-04-20T09:29:55.968Z</time></trkpt><trkpt lat="33.3243583" lon="10.2269183"><ele>247.0</ele><time>2026-04-20T09:29:56.968Z</time></trkpt><trkpt lat="33.3241517" lon="10.22694"><ele>247.0</ele><time>2026-04-20T09:29:57.968Z</time></trkpt><trkpt lat="33.3239467" lon="10.2269583"><ele>247.0</ele><time>2026-04-20T09:29:58.968Z</time></trkpt><trkpt lat="33.32374" lon="10.2269717"><ele>247.0</ele><time>2026-04-20T09:29:59.968Z</time></trkpt><trkpt lat="33.32353" lon="10.2269883"><ele>247.66666666666666</ele><time>2026-04-20T09:30:00.968Z</time></trkpt><trkpt lat="33.323325" lon="10.2270017"><ele>248.33333333333331</ele><time>2026-04-20T09:30:01.968Z</time></trkpt><trkpt lat="33.3231133" lon="10.2270167"><ele>249.0</ele><time>2026-04-20T09:30:02.968Z</time></trkpt><trkpt lat="33.3229033" lon="10.2270383"><ele>249.0</ele><time>2026-04-20T09:30:03.968Z</time></trkpt><trkpt lat="33.3226883" lon="10.2270583"><ele>249.0</ele><time>2026-04-20T09:30:04.968Z</time></trkpt><trkpt lat="33.3224783" lon="10.22707"><ele>249.0</ele><time>2026-04-20T09:30:05.968Z</time></trkpt><trkpt lat="33.3222717" lon="10.227095"><ele>248.66666666666669</ele><time>2026-04-20T09:30:06.968Z</time></trkpt><trkpt lat="33.3220667" lon="10.22711"><ele>248.33333333333334</ele><time>2026-04-20T09:30:07.968Z</time></trkpt><trkpt lat="33.321855" lon="10.2271333"><ele>248.0</ele><time>2026-04-20T09:30:08.968Z</time></trkpt><trkpt lat="33.3216467" lon="10.22716"><ele>248.0</ele><time>2026-04-20T09:30:09.968Z</time></trkpt><trkpt lat="33.3214333" lon="10.227185"><ele>248.0</ele><time>2026-04-20T09:30:10.968Z</time></trkpt><trkpt lat="33.3212233" lon="10.2272"><ele>248.0</ele><time>2026-04-20T09:30:11.968Z</time></trkpt><trkpt lat="33.3210183" lon="10.2272217"><ele>247.66666666666669</ele><time>2026-04-20T09:30:12.968Z</time></trkpt><trkpt lat="33.320825" lon="10.2272417"><ele>247.33333333333331</ele><time>2026-04-20T09:30:13.968Z</time></trkpt><trkpt lat="33.3206433" lon="10.2272667"><ele>247.0</ele><time>2026-04-20T09:30:14.968Z</time></trkpt><trkpt lat="33.3204783" lon="10.2272883"><ele>246.8</ele><time>2026-04-20T09:30:15.968Z</time></trkpt><trkpt lat="33.3203317" lon="10.2273"><ele>246.6</ele><time>2026-04-20T09:30:16.968Z</time></trkpt><trkpt lat="33.32022" lon="10.2273117"><ele>246.40000000000003</ele><time>2026-04-20T09:30:17.968Z</time></trkpt><trkpt lat="33.3201267" lon="10.227315"><ele>246.20000000000002</ele><time>2026-04-20T09:30:18.968Z</time></trkpt><trkpt lat="33.32005" lon="10.2273183"><ele>246.0</ele><time>2026-04-20T09:30:19.968Z</time></trkpt><trkpt lat="33.3199767" lon="10.2273217"><ele>245.83333333333334</ele><time>2026-04-20T09:30:20.968Z</time></trkpt><trkpt lat="33.31991" lon="10.2273183"><ele>245.66666666666669</ele><time>2026-04-20T09:30:21.968Z</time></trkpt><trkpt lat="33.3198333" lon="10.2273233"><ele>245.5</ele><time>2026-04-20T09:30:22.968Z</time></trkpt><trkpt lat="33.319755" lon="10.2273333"><ele>245.33333333333334</ele><time>2026-04-20T09:30:23.968Z</time></trkpt><trkpt lat="33.3196617" lon="10.2273433"><ele>245.16666666666669</ele><time>2026-04-20T09:30:24.968Z</time></trkpt><trkpt lat="33.319555" lon="10.22736"><ele>245.0</ele><time>2026-04-20T09:30:25.969Z</time></trkpt><trkpt lat="33.3194467" lon="10.2273667"><ele>245.0</ele><time>2026-04-20T09:30:26.968Z</time></trkpt><trkpt lat="33.3193217" lon="10.2273733"><ele>245.0</ele><time>2026-04-20T09:30:27.968Z</time></trkpt><trkpt lat="33.31919" lon="10.2273833"><ele>245.0</ele><time>2026-04-20T09:30:28.968Z</time></trkpt><trkpt lat="33.3190617" lon="10.2274017"><ele>245.0</ele><time>2026-04-20T09:30:29.968Z</time></trkpt><trkpt lat="33.3189283" lon="10.227415"><ele>245.5</ele><time>2026-04-20T09:30:30.968Z</time></trkpt><trkpt lat="33.3188017" lon="10.2274183"><ele>246.0</ele><time>2026-04-20T09:30:31.968Z</time></trkpt><trkpt lat="33.3186633" lon="10.2274233"><ele>246.5</ele><time>2026-04-20T09:30:32.967Z</time></trkpt><trkpt lat="33.3185217" lon="10.2274367"><ele>247.0</ele><time>2026-04-20T09:30:33.967Z</time></trkpt><trkpt lat="33.318385" lon="10.2274483"><ele>247.0</ele><time>2026-04-20T09:30:34.967Z</time></trkpt><trkpt lat="33.318245" lon="10.2274617"><ele>247.0</ele><time>2026-04-20T09:30:35.967Z</time></trkpt><trkpt lat="33.31811" lon="10.2274767"><ele>247.0</ele><time>2026-04-20T09:30:36.967Z</time></trkpt><trkpt lat="33.3179817" lon="10.2274967"><ele>247.0</ele><time>2026-04-20T09:30:37.967Z</time></trkpt><trkpt lat="33.317855" lon="10.2275117"><ele>247.39999999999998</ele><time>2026-04-20T09:30:38.967Z</time></trkpt><trkpt lat="33.3177433" lon="10.2275183"><ele>247.79999999999998</ele><time>2026-04-20T09:30:39.967Z</time></trkpt><trkpt lat="33.31764" lon="10.2275267"><ele>248.2</ele><time>2026-04-20T09:30:40.967Z</time></trkpt><trkpt lat="33.3175517" lon="10.227535"><ele>248.6</ele><time>2026-04-20T09:30:41.967Z</time></trkpt><trkpt lat="33.3174717" lon="10.2275583"><ele>249.0</ele><time>2026-04-20T09:30:42.967Z</time></trkpt><trkpt lat="33.3174067" lon="10.2275633"><ele>249.0</ele><time>2026-04-20T09:30:43.967Z</time></trkpt><trkpt lat="33.317305" lon="10.22756"><ele>249.0</ele><time>2026-04-20T09:30:45.967Z</time></trkpt><trkpt lat="33.3172317" lon="10.2275267"><ele>249.0</ele><time>2026-04-20T09:30:48.967Z</time></trkpt><trkpt lat="33.3171333" lon="10.2275283"><ele>249.0</ele><time>2026-04-20T09:30:50.967Z</time></trkpt><trkpt lat="33.3170567" lon="10.2275383"><ele>249.0</ele><time>2026-04-20T09:30:51.967Z</time></trkpt><trkpt lat="33.3169667" lon="10.2275517"><ele>249.0</ele><time>2026-04-20T09:30:52.967Z</time></trkpt><trkpt lat="33.31687" lon="10.2275733"><ele>249.6</ele><time>2026-04-20T09:30:53.967Z</time></trkpt><trkpt lat="33.31677" lon="10.22759"><ele>250.2</ele><time>2026-04-20T09:30:54.967Z</time></trkpt><trkpt lat="33.3166667" lon="10.2276017"><ele>250.79999999999998</ele><time>2026-04-20T09:30:55.967Z</time></trkpt><trkpt lat="33.3165617" lon="10.2276167"><ele>251.39999999999998</ele><time>2026-04-20T09:30:56.967Z</time></trkpt><trkpt lat="33.3164467" lon="10.2276283"><ele>252.0</ele><time>2026-04-20T09:30:57.967Z</time></trkpt><trkpt lat="33.3163217" lon="10.2276367"><ele>252.0</ele><time>2026-04-20T09:30:58.967Z</time></trkpt><trkpt lat="33.3162" lon="10.2276467"><ele>252.0</ele><time>2026-04-20T09:30:59.967Z</time></trkpt><trkpt lat="33.3160767" lon="10.227655"><ele>252.0</ele><time>2026-04-20T09:31:00.967Z</time></trkpt><trkpt lat="33.31595" lon="10.2276683"><ele>252.0</ele><time>2026-04-20T09:31:01.967Z</time></trkpt><trkpt lat="33.3158267" lon="10.2276817"><ele>252.0</ele><time>2026-04-20T09:31:02.967Z</time></trkpt><trkpt lat="33.3156967" lon="10.2276883"><ele>252.0</ele><time>2026-04-20T09:31:03.967Z</time></trkpt><trkpt lat="33.3155683" lon="10.2277017"><ele>252.0</ele><time>2026-04-20T09:31:04.967Z</time></trkpt><trkpt lat="33.3154333" lon="10.2277183"><ele>252.0</ele><time>2026-04-20T09:31:05.967Z</time></trkpt><trkpt lat="33.315295" lon="10.2277267"><ele>252.0</ele><time>2026-04-20T09:31:06.967Z</time></trkpt><trkpt lat="33.315155" lon="10.2277383"><ele>252.0</ele><time>2026-04-20T09:31:07.967Z</time></trkpt><trkpt lat="33.3150167" lon="10.2277533"><ele>252.0</ele><time>2026-04-20T09:31:08.967Z</time></trkpt><trkpt lat="33.3148733" lon="10.22777"><ele>252.0</ele><time>2026-04-20T09:31:09.967Z</time></trkpt><trkpt lat="33.3147333" lon="10.2277767"><ele>250.5</ele><time>2026-04-20T09:31:10.967Z</time></trkpt><trkpt lat="33.31459" lon="10.22778"><ele>249.0</ele><time>2026-04-20T09:31:11.967Z</time></trkpt><trkpt lat="33.31445" lon="10.227785"><ele>247.5</ele><time>2026-04-20T09:31:12.967Z</time></trkpt><trkpt lat="33.3143083" lon="10.2277983"><ele>246.0</ele><time>2026-04-20T09:31:13.967Z</time></trkpt><trkpt lat="33.31416" lon="10.227825"><ele>246.0</ele><time>2026-04-20T09:31:14.967Z</time></trkpt><trkpt lat="33.3140133" lon="10.2278533"><ele>246.0</ele><time>2026-04-20T09:31:15.967Z</time></trkpt><trkpt lat="33.3138717" lon="10.2278783"><ele>246.0</ele><time>2026-04-20T09:31:16.967Z</time></trkpt><trkpt lat="33.3137333" lon="10.227895"><ele>246.0</ele><time>2026-04-20T09:31:17.967Z</time></trkpt><trkpt lat="33.3135967" lon="10.2278783"><ele>247.25</ele><time>2026-04-20T09:31:18.967Z</time></trkpt><trkpt lat="33.3134733" lon="10.22783"><ele>248.5</ele><time>2026-04-20T09:31:19.967Z</time></trkpt><trkpt lat="33.31336" lon="10.227755"><ele>249.75</ele><time>2026-04-20T09:31:20.967Z</time></trkpt><trkpt lat="33.3132533" lon="10.2276717"><ele>251.0</ele><time>2026-04-20T09:31:21.967Z</time></trkpt><trkpt lat="33.31314" lon="10.227595"><ele>252.5</ele><time>2026-04-20T09:31:22.967Z</time></trkpt><trkpt lat="33.313025" lon="10.2275267"><ele>254.0</ele><time>2026-04-20T09:31:23.967Z</time></trkpt><trkpt lat="33.3129033" lon="10.2274583"><ele>255.5</ele><time>2026-04-20T09:31:24.967Z</time></trkpt><trkpt lat="33.31278" lon="10.2273833"><ele>257.0</ele><time>2026-04-20T09:31:25.967Z</time></trkpt><trkpt lat="33.31265" lon="10.2273117"><ele>257.0</ele><time>2026-04-20T09:31:26.967Z</time></trkpt><trkpt lat="33.312525" lon="10.2272367"><ele>257.0</ele><time>2026-04-20T09:31:27.967Z</time></trkpt><trkpt lat="33.312395" lon="10.22716"><ele>257.0</ele><time>2026-04-20T09:31:28.967Z</time></trkpt><trkpt lat="33.31226" lon="10.2271"><ele>257.0</ele><time>2026-04-20T09:31:29.967Z</time></trkpt><trkpt lat="33.3121267" lon="10.2270633"><ele>257.0</ele><time>2026-04-20T09:31:30.967Z</time></trkpt><trkpt lat="33.3120133" lon="10.2270567"><ele>257.0</ele><time>2026-04-20T09:31:31.967Z</time></trkpt><trkpt lat="33.3119233" lon="10.2270617"><ele>257.0</ele><time>2026-04-20T09:31:32.967Z</time></trkpt><trkpt lat="33.3118417" lon="10.227075"><ele>257.0</ele><time>2026-04-20T09:31:33.967Z</time></trkpt><trkpt lat="33.3117717" lon="10.2270817"><ele>257.0</ele><time>2026-04-20T09:31:34.967Z</time></trkpt><trkpt lat="33.31166" lon="10.227085"><ele>257.0</ele><time>2026-04-20T09:31:36.967Z</time></trkpt><trkpt lat="33.311545" lon="10.22709"><ele>257.0</ele><time>2026-04-20T09:31:38.967Z</time></trkpt><trkpt lat="33.3114817" lon="10.2270917"><ele>257.0</ele><time>2026-04-20T09:31:39.967Z</time></trkpt><trkpt lat="33.3114117" lon="10.2270917"><ele>257.0</ele><time>2026-04-20T09:31:40.967Z</time></trkpt><trkpt lat="33.3113317" lon="10.2270933"><ele>257.0</ele><time>2026-04-20T09:31:41.967Z</time></trkpt><trkpt lat="33.311245" lon="10.2270933"><ele>257.0</ele><time>2026-04-20T09:31:42.967Z</time></trkpt><trkpt lat="33.31115" lon="10.2270967"><ele>257.5</ele><time>2026-04-20T09:31:43.967Z</time></trkpt><trkpt lat="33.3110483" lon="10.2271017"><ele>258.0</ele><time>2026-04-20T09:31:44.967Z</time></trkpt><trkpt lat="33.31094" lon="10.2271067"><ele>258.5</ele><time>2026-04-20T09:31:45.967Z</time></trkpt><trkpt lat="33.3108167" lon="10.2271133"><ele>259.0</ele><time>2026-04-20T09:31:46.967Z</time></trkpt><trkpt lat="33.3106883" lon="10.2271133"><ele>259.25</ele><time>2026-04-20T09:31:47.967Z</time></trkpt><trkpt lat="33.3105533" lon="10.2271167"><ele>259.5</ele><time>2026-04-20T09:31:48.967Z</time></trkpt><trkpt lat="33.3104183" lon="10.2271333"><ele>259.75</ele><time>2026-04-20T09:31:49.967Z</time></trkpt><trkpt lat="33.3102783" lon="10.2271533"><ele>260.0</ele><time>2026-04-20T09:31:50.967Z</time></trkpt><trkpt lat="33.3101367" lon="10.227185"><ele>260.0</ele><time>2026-04-20T09:31:51.967Z</time></trkpt><trkpt lat="33.3099867" lon="10.2272117"><ele>260.0</ele><time>2026-04-20T09:31:52.967Z</time></trkpt><trkpt lat="33.309835" lon="10.2272433"><ele>260.0</ele><time>2026-04-20T09:31:53.967Z</time></trkpt><trkpt lat="33.3096883" lon="10.2272783"><ele>260.6666666666667</ele><time>2026-04-20T09:31:54.967Z</time></trkpt><trkpt lat="33.3095367" lon="10.22732"><ele>261.3333333333333</ele><time>2026-04-20T09:31:55.967Z</time></trkpt><trkpt lat="33.309385" lon="10.227355"><ele>262.0</ele><time>2026-04-20T09:31:56.967Z</time></trkpt><trkpt lat="33.309235" lon="10.227395"><ele>262.0</ele><time>2026-04-20T09:31:57.967Z</time></trkpt><trkpt lat="33.3090817" lon="10.2274383"><ele>262.0</ele><time>2026-04-20T09:31:58.967Z</time></trkpt><trkpt lat="33.30893" lon="10.227465"><ele>262.0</ele><time>2026-04-20T09:31:59.967Z</time></trkpt><trkpt lat="33.30877" lon="10.227485"><ele>263.0</ele><time>2026-04-20T09:32:00.967Z</time></trkpt><trkpt lat="33.3086067" lon="10.2275167"><ele>264.0</ele><time>2026-04-20T09:32:01.967Z</time></trkpt><trkpt lat="33.30844" lon="10.2275533"><ele>265.0</ele><time>2026-04-20T09:32:02.967Z</time></trkpt><trkpt lat="33.30827" lon="10.2275917"><ele>265.0</ele><time>2026-04-20T09:32:03.967Z</time></trkpt><trkpt lat="33.3081" lon="10.2276383"><ele>265.0</ele><time>2026-04-20T09:32:04.967Z</time></trkpt><trkpt lat="33.3079283" lon="10.22767"><ele>265.0</ele><time>2026-04-20T09:32:05.967Z</time></trkpt><trkpt lat="33.30775" lon="10.2277017"><ele>265.66666666666663</ele><time>2026-04-20T09:32:06.967Z</time></trkpt><trkpt lat="33.30757" lon="10.2277383"><ele>266.3333333333333</ele><time>2026-04-20T09:32:07.967Z</time></trkpt><trkpt lat="33.3073933" lon="10.2277783"><ele>267.0</ele><time>2026-04-20T09:32:08.967Z</time></trkpt><trkpt lat="33.30722" lon="10.2278233"><ele>268.0</ele><time>2026-04-20T09:32:09.967Z</time></trkpt><trkpt lat="33.30704" lon="10.2278733"><ele>269.0</ele><time>2026-04-20T09:32:10.967Z</time></trkpt><trkpt lat="33.3068533" lon="10.2279183"><ele>270.0</ele><time>2026-04-20T09:32:11.967Z</time></trkpt><trkpt lat="33.30667" lon="10.2279633"><ele>270.0</ele><time>2026-04-20T09:32:12.967Z</time></trkpt><trkpt lat="33.3064917" lon="10.2279967"><ele>270.0</ele><time>2026-04-20T09:32:13.967Z</time></trkpt><trkpt lat="33.30631" lon="10.2280233"><ele>270.0</ele><time>2026-04-20T09:32:14.967Z</time></trkpt><trkpt lat="33.30613" lon="10.2280533"><ele>270.6666666666667</ele><time>2026-04-20T09:32:15.967Z</time></trkpt><trkpt lat="33.3059583" lon="10.2280817"><ele>271.33333333333337</ele><time>2026-04-20T09:32:16.967Z</time></trkpt><trkpt lat="33.30579" lon="10.2281067"><ele>272.0</ele><time>2026-04-20T09:32:17.967Z</time></trkpt><trkpt lat="33.30562" lon="10.2281383"><ele>272.6666666666667</ele><time>2026-04-20T09:32:18.967Z</time></trkpt><trkpt lat="33.3054483" lon="10.2281833"><ele>273.3333333333333</ele><time>2026-04-20T09:32:19.967Z</time></trkpt><trkpt lat="33.3052733" lon="10.2282483"><ele>274.0</ele><time>2026-04-20T09:32:20.967Z</time></trkpt><trkpt lat="33.3051083" lon="10.22832"><ele>274.0</ele><time>2026-04-20T09:32:21.967Z</time></trkpt><trkpt lat="33.304945" lon="10.2284133"><ele>274.0</ele><time>2026-04-20T09:32:22.967Z</time></trkpt><trkpt lat="33.304785" lon="10.2284983"><ele>274.0</ele><time>2026-04-20T09:32:23.967Z</time></trkpt><trkpt lat="33.3046283" lon="10.2285867"><ele>275.3333333333333</ele><time>2026-04-20T09:32:24.967Z</time></trkpt><trkpt lat="33.3044783" lon="10.228665"><ele>276.6666666666667</ele><time>2026-04-20T09:32:25.967Z</time></trkpt><trkpt lat="33.3043367" lon="10.2287417"><ele>278.0</ele><time>2026-04-20T09:32:26.967Z</time></trkpt><trkpt lat="33.3042" lon="10.228825"><ele>278.0</ele><time>2026-04-20T09:32:27.967Z</time></trkpt><trkpt lat="33.3040683" lon="10.22891"><ele>278.0</ele><time>2026-04-20T09:32:28.967Z</time></trkpt><trkpt lat="33.3039367" lon="10.22899"><ele>278.0</ele><time>2026-04-20T09:32:29.967Z</time></trkpt><trkpt lat="33.3038133" lon="10.2290633"><ele>278.0</ele><time>2026-04-20T09:32:30.967Z</time></trkpt><trkpt lat="33.3036967" lon="10.2291217"><ele>278.5</ele><time>2026-04-20T09:32:31.967Z</time></trkpt><trkpt lat="33.3035883" lon="10.22918"><ele>279.0</ele><time>2026-04-20T09:32:32.967Z</time></trkpt><trkpt lat="33.30348" lon="10.2292333"><ele>279.5</ele><time>2026-04-20T09:32:33.967Z</time></trkpt><trkpt lat="33.3033633" lon="10.229285"><ele>280.0</ele><time>2026-04-20T09:32:34.967Z</time></trkpt><trkpt lat="33.3032417" lon="10.2293317"><ele>280.0</ele><time>2026-04-20T09:32:35.967Z</time></trkpt><trkpt lat="33.303115" lon="10.2293733"><ele>280.0</ele><time>2026-04-20T09:32:36.967Z</time></trkpt><trkpt lat="33.3029917" lon="10.2294233"><ele>280.0</ele><time>2026-04-20T09:32:37.967Z</time></trkpt><trkpt lat="33.30286" lon="10.229465"><ele>280.0</ele><time>2026-04-20T09:32:38.967Z</time></trkpt><trkpt lat="33.3027367" lon="10.2295033"><ele>280.25</ele><time>2026-04-20T09:32:39.967Z</time></trkpt><trkpt lat="33.3026133" lon="10.2295267"><ele>280.5</ele><time>2026-04-20T09:32:40.967Z</time></trkpt><trkpt lat="33.3025017" lon="10.22951"><ele>280.75</ele><time>2026-04-20T09:32:41.967Z</time></trkpt><trkpt lat="33.3023917" lon="10.229475"><ele>281.0</ele><time>2026-04-20T09:32:42.967Z</time></trkpt><trkpt lat="33.3022817" lon="10.2294417"><ele>281.5</ele><time>2026-04-20T09:32:43.967Z</time></trkpt><trkpt lat="33.3021717" lon="10.2294233"><ele>282.0</ele><time>2026-04-20T09:32:44.967Z</time></trkpt><trkpt lat="33.3020583" lon="10.22944"><ele>282.5</ele><time>2026-04-20T09:32:45.967Z</time></trkpt><trkpt lat="33.30194" lon="10.2294933"><ele>283.0</ele><time>2026-04-20T09:32:46.967Z</time></trkpt><trkpt lat="33.30183" lon="10.2295733"><ele>283.0</ele><time>2026-04-20T09:32:47.967Z</time></trkpt><trkpt lat="33.3017217" lon="10.2296583"><ele>283.0</ele><time>2026-04-20T09:32:48.967Z</time></trkpt><trkpt lat="33.3016167" lon="10.2297567"><ele>283.0</ele><time>2026-04-20T09:32:49.967Z</time></trkpt><trkpt lat="33.30152" lon="10.22984"><ele>283.0</ele><time>2026-04-20T09:32:50.967Z</time></trkpt><trkpt lat="33.3014333" lon="10.2299167"><ele>284.3333333333333</ele><time>2026-04-20T09:32:51.967Z</time></trkpt><trkpt lat="33.3013567" lon="10.2299883"><ele>285.66666666666663</ele><time>2026-04-20T09:32:52.967Z</time></trkpt><trkpt lat="33.301285" lon="10.2300517"><ele>287.0</ele><time>2026-04-20T09:32:53.967Z</time></trkpt><trkpt lat="33.3012217" lon="10.230105"><ele>288.3333333333333</ele><time>2026-04-20T09:32:54.967Z</time></trkpt><trkpt lat="33.30115" lon="10.2301633"><ele>289.6666666666667</ele><time>2026-04-20T09:32:55.967Z</time></trkpt><trkpt lat="33.301085" lon="10.230215"><ele>291.0</ele><time>2026-04-20T09:32:56.967Z</time></trkpt><trkpt lat="33.3010317" lon="10.2302683"><ele>291.0</ele><time>2026-04-20T09:32:57.967Z</time></trkpt><trkpt lat="33.3009733" lon="10.2303417"><ele>291.0</ele><time>2026-04-20T09:32:59.967Z</time></trkpt><trkpt lat="33.30089" lon="10.23034"><ele>291.0</ele><time>2026-04-20T09:33:18.967Z</time></trkpt><trkpt lat="33.3007867" lon="10.23036"><ele>291.0</ele><time>2026-04-20T09:33:20.967Z</time></trkpt><trkpt lat="33.30072" lon="10.230365"><ele>291.0</ele><time>2026-04-20T09:33:21.967Z</time></trkpt><trkpt lat="33.30065" lon="10.2303583"><ele>291.0</ele><time>2026-04-20T09:33:22.967Z</time></trkpt><trkpt lat="33.3005767" lon="10.2303567"><ele>291.1666666666667</ele><time>2026-04-20T09:33:23.967Z</time></trkpt><trkpt lat="33.3005067" lon="10.2303667"><ele>291.3333333333333</ele><time>2026-04-20T09:33:24.967Z</time></trkpt><trkpt lat="33.3004117" lon="10.2304233"><ele>291.5</ele><time>2026-04-20T09:33:26.967Z</time></trkpt><trkpt lat="33.3003533" lon="10.2305383"><ele>291.66666666666663</ele><time>2026-04-20T09:33:28.967Z</time></trkpt><trkpt lat="33.30031" lon="10.2306067"><ele>291.8333333333333</ele><time>2026-04-20T09:33:29.967Z</time></trkpt><trkpt lat="33.30027" lon="10.23068"><ele>292.0</ele><time>2026-04-20T09:33:30.967Z</time></trkpt><trkpt lat="33.3002283" lon="10.2307533"><ele>292.3333333333333</ele><time>2026-04-20T09:33:31.967Z</time></trkpt><trkpt lat="33.30019" lon="10.2308283"><ele>292.66666666666663</ele><time>2026-04-20T09:33:32.967Z</time></trkpt><trkpt lat="33.3001583" lon="10.2309083"><ele>293.0</ele><time>2026-04-20T09:33:33.967Z</time></trkpt><trkpt lat="33.3001283" lon="10.2309917"><ele>293.3333333333333</ele><time>2026-04-20T09:33:34.967Z</time></trkpt><trkpt lat="33.3001033" lon="10.23107"><ele>293.6666666666667</ele><time>2026-04-20T09:33:35.967Z</time></trkpt><trkpt lat="33.300075" lon="10.2312067"><ele>294.0</ele><time>2026-04-20T09:33:37.967Z</time></trkpt><trkpt lat="33.3000767" lon="10.2312933"><ele>294.0</ele><time>2026-04-20T09:33:39.967Z</time></trkpt><trkpt lat="33.3001067" lon="10.2313767"><ele>294.0</ele><time>2026-04-20T09:33:41.966Z</time></trkpt><trkpt lat="33.3001767" lon="10.2314533"><ele>294.0</ele><time>2026-04-20T09:33:43.967Z</time></trkpt><trkpt lat="33.3002633" lon="10.231485"><ele>294.0</ele><time>2026-04-20T09:33:45.967Z</time></trkpt><trkpt lat="33.3001967" lon="10.231445"><ele>294.0</ele><time>2026-04-20T09:37:09.966Z</time></trkpt><trkpt lat="33.3001133" lon="10.2313667"><ele>294.0</ele><time>2026-04-20T09:37:44.965Z</time></trkpt><trkpt lat="33.3000617" lon="10.2312883"><ele>294.0</ele><time>2026-04-20T09:37:46.965Z</time></trkpt><trkpt lat="33.3000283" lon="10.231205"><ele>294.0</ele><time>2026-04-20T09:37:49.965Z</time></trkpt><trkpt lat="33.300065" lon="10.2311267"><ele>294.0</ele><time>2026-04-20T09:41:02.965Z</time></trkpt><trkpt lat="33.3001183" lon="10.2310017"><ele>294.0</ele><time>2026-04-20T09:41:04.964Z</time></trkpt><trkpt lat="33.3001467" lon="10.2309283"><ele>294.0</ele><time>2026-04-20T09:41:05.964Z</time></trkpt><trkpt lat="33.300185" lon="10.2308583"><ele>294.0</ele><time>2026-04-20T09:41:06.964Z</time></trkpt><trkpt lat="33.3002517" lon="10.2307267"><ele>293.59999999999997</ele><time>2026-04-20T09:41:08.964Z</time></trkpt><trkpt lat="33.300315" lon="10.2306133"><ele>293.2</ele><time>2026-04-20T09:41:10.964Z</time></trkpt><trkpt lat="33.3003917" lon="10.230505"><ele>292.79999999999995</ele><time>2026-04-20T09:41:12.964Z</time></trkpt><trkpt lat="33.3004417" lon="10.2304183"><ele>292.4</ele><time>2026-04-20T09:41:14.964Z</time></trkpt><trkpt lat="33.30051" lon="10.23037"><ele>292.0</ele><time>2026-04-20T09:41:16.964Z</time></trkpt><trkpt lat="33.3006317" lon="10.2303633"><ele>291.8</ele><time>2026-04-20T09:41:18.964Z</time></trkpt><trkpt lat="33.30071" lon="10.23037"><ele>291.6</ele><time>2026-04-20T09:41:19.964Z</time></trkpt><trkpt lat="33.30079" lon="10.230385"><ele>291.40000000000003</ele><time>2026-04-20T09:41:20.964Z</time></trkpt><trkpt lat="33.300855" lon="10.2303883"><ele>291.2</ele><time>2026-04-20T09:41:21.964Z</time></trkpt><trkpt lat="33.300965" lon="10.23035"><ele>291.0</ele><time>2026-04-20T09:41:23.964Z</time></trkpt><trkpt lat="33.3010733" lon="10.2302717"><ele>291.0</ele><time>2026-04-20T09:41:25.964Z</time></trkpt><trkpt lat="33.3011333" lon="10.2302167"><ele>291.0</ele><time>2026-04-20T09:41:26.964Z</time></trkpt><trkpt lat="33.3011967" lon="10.2301517"><ele>291.0</ele><time>2026-04-20T09:41:27.964Z</time></trkpt><trkpt lat="33.3012633" lon="10.23009"><ele>291.0</ele><time>2026-04-20T09:41:28.964Z</time></trkpt><trkpt lat="33.3013367" lon="10.2300233"><ele>291.0</ele><time>2026-04-20T09:41:29.964Z</time></trkpt><trkpt lat="33.3014117" lon="10.2299533"><ele>291.0</ele><time>2026-04-20T09:41:30.964Z</time></trkpt><trkpt lat="33.30149" lon="10.2298883"><ele>289.5</ele><time>2026-04-20T09:41:31.964Z</time></trkpt><trkpt lat="33.3015767" lon="10.2298133"><ele>288.0</ele><time>2026-04-20T09:41:32.964Z</time></trkpt><trkpt lat="33.3016667" lon="10.2297333"><ele>286.5</ele><time>2026-04-20T09:41:33.964Z</time></trkpt><trkpt lat="33.3017667" lon="10.2296533"><ele>285.0</ele><time>2026-04-20T09:41:34.964Z</time></trkpt><trkpt lat="33.301875" lon="10.2295733"><ele>284.5</ele><time>2026-04-20T09:41:35.964Z</time></trkpt><trkpt lat="33.3019817" lon="10.2295033"><ele>284.0</ele><time>2026-04-20T09:41:36.964Z</time></trkpt><trkpt lat="33.3020833" lon="10.2294567"><ele>283.5</ele><time>2026-04-20T09:41:37.964Z</time></trkpt><trkpt lat="33.302195" lon="10.2294433"><ele>283.0</ele><time>2026-04-20T09:41:38.964Z</time></trkpt><trkpt lat="33.3023067" lon="10.2294533"><ele>282.5</ele><time>2026-04-20T09:41:39.964Z</time></trkpt><trkpt lat="33.3024167" lon="10.22948"><ele>282.0</ele><time>2026-04-20T09:41:40.964Z</time></trkpt><trkpt lat="33.3025283" lon="10.22951"><ele>281.5</ele><time>2026-04-20T09:41:41.964Z</time></trkpt><trkpt lat="33.3026467" lon="10.2295233"><ele>281.0</ele><time>2026-04-20T09:41:42.964Z</time></trkpt><trkpt lat="33.3027733" lon="10.2295133"><ele>281.0</ele><time>2026-04-20T09:41:43.964Z</time></trkpt><trkpt lat="33.3029083" lon="10.2294983"><ele>281.0</ele><time>2026-04-20T09:41:44.964Z</time></trkpt><trkpt lat="33.3030583" lon="10.2294483"><ele>281.0</ele><time>2026-04-20T09:41:45.964Z</time></trkpt><trkpt lat="33.303205" lon="10.2293867"><ele>281.0</ele><time>2026-04-20T09:41:46.964Z</time></trkpt><trkpt lat="33.30334" lon="10.229335"><ele>280.75</ele><time>2026-04-20T09:41:47.964Z</time></trkpt><trkpt lat="33.303465" lon="10.2292717"><ele>280.5</ele><time>2026-04-20T09:41:48.964Z</time></trkpt><trkpt lat="33.3035783" lon="10.2292117"><ele>280.25</ele><time>2026-04-20T09:41:49.964Z</time></trkpt><trkpt lat="33.303675" lon="10.22915"><ele>280.0</ele><time>2026-04-20T09:41:50.964Z</time></trkpt><trkpt lat="33.3037783" lon="10.2291017"><ele>280.0</ele><time>2026-04-20T09:41:51.964Z</time></trkpt><trkpt lat="33.3038867" lon="10.22904"><ele>280.0</ele><time>2026-04-20T09:41:52.964Z</time></trkpt><trkpt lat="33.3039967" lon="10.228985"><ele>280.0</ele><time>2026-04-20T09:41:53.964Z</time></trkpt><trkpt lat="33.3041167" lon="10.2289233"><ele>280.0</ele><time>2026-04-20T09:41:54.964Z</time></trkpt><trkpt lat="33.30425" lon="10.228855"><ele>279.0</ele><time>2026-04-20T09:41:55.964Z</time></trkpt><trkpt lat="33.3045167" lon="10.2287067"><ele>278.0</ele><time>2026-04-20T09:41:57.964Z</time></trkpt><trkpt lat="33.304795" lon="10.2285617"><ele>276.0</ele><time>2026-04-20T09:41:59.964Z</time></trkpt><trkpt lat="33.3049383" lon="10.22849"><ele>274.0</ele><time>2026-04-20T09:42:00.964Z</time></trkpt><trkpt lat="33.30522" lon="10.2283467"><ele>274.0</ele><time>2026-04-20T09:42:02.964Z</time></trkpt><trkpt lat="33.305505" lon="10.22822"><ele>274.0</ele><time>2026-04-20T09:42:04.964Z</time></trkpt><trkpt lat="33.3058083" lon="10.2281367"><ele>273.3333333333333</ele><time>2026-04-20T09:42:06.964Z</time></trkpt><trkpt lat="33.3059633" lon="10.2280983"><ele>272.6666666666667</ele><time>2026-04-20T09:42:07.964Z</time></trkpt><trkpt lat="33.3061183" lon="10.2280717"><ele>272.0</ele><time>2026-04-20T09:42:08.964Z</time></trkpt><trkpt lat="33.306455" lon="10.2280167"><ele>271.0</ele><time>2026-04-20T09:42:10.964Z</time></trkpt><trkpt lat="33.3068" lon="10.227935"><ele>270.0</ele><time>2026-04-20T09:42:12.964Z</time></trkpt><trkpt lat="33.3071467" lon="10.2278567"><ele>268.5</ele><time>2026-04-20T09:42:14.964Z</time></trkpt><trkpt lat="33.3073167" lon="10.2278167"><ele>267.0</ele><time>2026-04-20T09:42:15.964Z</time></trkpt><trkpt lat="33.30764" lon="10.2277417"><ele>267.0</ele><time>2026-04-20T09:42:17.964Z</time></trkpt><trkpt lat="33.3077967" lon="10.227705"><ele>267.0</ele><time>2026-04-20T09:42:18.964Z</time></trkpt><trkpt lat="33.30812" lon="10.2276333"><ele>266.0</ele><time>2026-04-20T09:42:20.964Z</time></trkpt><trkpt lat="33.3084483" lon="10.22755"><ele>265.0</ele><time>2026-04-20T09:42:22.965Z</time></trkpt><trkpt lat="33.3087667" lon="10.2274767"><ele>263.5</ele><time>2026-04-20T09:42:24.964Z</time></trkpt><trkpt lat="33.3090717" lon="10.227415"><ele>262.0</ele><time>2026-04-20T09:42:26.964Z</time></trkpt><trkpt lat="33.309375" lon="10.2273617"><ele>262.0</ele><time>2026-04-20T09:42:28.964Z</time></trkpt><trkpt lat="33.3095267" lon="10.2273317"><ele>262.0</ele><time>2026-04-20T09:42:29.964Z</time></trkpt><trkpt lat="33.3098333" lon="10.227275"><ele>261.0</ele><time>2026-04-20T09:42:31.964Z</time></trkpt><trkpt lat="33.31014" lon="10.22721"><ele>260.0</ele><time>2026-04-20T09:42:33.964Z</time></trkpt><trkpt lat="33.3104517" lon="10.2271567"><ele>259.5</ele><time>2026-04-20T09:42:35.964Z</time></trkpt><trkpt lat="33.31061" lon="10.2271417"><ele>259.0</ele><time>2026-04-20T09:42:36.964Z</time></trkpt><trkpt lat="33.3109317" lon="10.227125"><ele>259.0</ele><time>2026-04-20T09:42:38.964Z</time></trkpt><trkpt lat="33.3110883" lon="10.227125"><ele>259.0</ele><time>2026-04-20T09:42:39.964Z</time></trkpt><trkpt lat="33.3114083" lon="10.22712"><ele>258.0</ele><time>2026-04-20T09:42:41.964Z</time></trkpt><trkpt lat="33.31157" lon="10.2271183"><ele>257.0</ele><time>2026-04-20T09:42:42.964Z</time></trkpt><trkpt lat="33.3118883" lon="10.2271083"><ele>257.0</ele><time>2026-04-20T09:42:44.964Z</time></trkpt><trkpt lat="33.3120367" lon="10.2271183"><ele>257.0</ele><time>2026-04-20T09:42:45.964Z</time></trkpt><trkpt lat="33.31231" lon="10.22716"><ele>257.0</ele><time>2026-04-20T09:42:47.964Z</time></trkpt><trkpt lat="33.312435" lon="10.227195"><ele>257.0</ele><time>2026-04-20T09:42:48.964Z</time></trkpt><trkpt lat="33.3125467" lon="10.2272583"><ele>257.0</ele><time>2026-04-20T09:42:49.964Z</time></trkpt><trkpt lat="33.3127933" lon="10.2273983"><ele>257.0</ele><time>2026-04-20T09:42:51.964Z</time></trkpt><trkpt lat="33.31304" lon="10.2275367"><ele>255.0</ele><time>2026-04-20T09:42:53.964Z</time></trkpt><trkpt lat="33.3131483" lon="10.2276"><ele>253.0</ele><time>2026-04-20T09:42:54.964Z</time></trkpt><trkpt lat="33.3133733" lon="10.2277433"><ele>251.0</ele><time>2026-04-20T09:42:56.964Z</time></trkpt><trkpt lat="33.3135933" lon="10.2278883"><ele>251.0</ele><time>2026-04-20T09:42:58.964Z</time></trkpt><trkpt lat="33.3138433" lon="10.2279217"><ele>251.0</ele><time>2026-04-20T09:43:00.964Z</time></trkpt><trkpt lat="33.3141283" lon="10.22785"><ele>248.5</ele><time>2026-04-20T09:43:02.964Z</time></trkpt><trkpt lat="33.31443" lon="10.227785"><ele>246.0</ele><time>2026-04-20T09:43:04.964Z</time></trkpt><trkpt lat="33.314735" lon="10.22775"><ele>249.0</ele><time>2026-04-20T09:43:06.964Z</time></trkpt><trkpt lat="33.31506" lon="10.2277217"><ele>252.0</ele><time>2026-04-20T09:43:08.964Z</time></trkpt><trkpt lat="33.31538" lon="10.2276967"><ele>252.0</ele><time>2026-04-20T09:43:10.964Z</time></trkpt><trkpt lat="33.315705" lon="10.2276817"><ele>252.0</ele><time>2026-04-20T09:43:12.964Z</time></trkpt><trkpt lat="33.316005" lon="10.2276717"><ele>252.0</ele><time>2026-04-20T09:43:14.964Z</time></trkpt><trkpt lat="33.3162467" lon="10.22765"><ele>252.0</ele><time>2026-04-20T09:43:16.964Z</time></trkpt><trkpt lat="33.3164417" lon="10.2276283"><ele>252.0</ele><time>2026-04-20T09:43:18.964Z</time></trkpt><trkpt lat="33.3166167" lon="10.2276217"><ele>252.25</ele><time>2026-04-20T09:43:20.964Z</time></trkpt><trkpt lat="33.316775" lon="10.227595"><ele>252.5</ele><time>2026-04-20T09:43:22.964Z</time></trkpt><trkpt lat="33.3168967" lon="10.2275917"><ele>252.75</ele><time>2026-04-20T09:43:24.964Z</time></trkpt><trkpt lat="33.3169817" lon="10.2275967"><ele>253.0</ele><time>2026-04-20T09:43:26.964Z</time></trkpt><trkpt lat="33.3170883" lon="10.2275683"><ele>253.0</ele><time>2026-04-20T09:45:31.963Z</time></trkpt><trkpt lat="33.3171633" lon="10.2275583"><ele>253.0</ele><time>2026-04-20T09:45:33.963Z</time></trkpt><trkpt lat="33.3172633" lon="10.2276133"><ele>253.0</ele><time>2026-04-20T09:45:37.963Z</time></trkpt><trkpt lat="33.317335" lon="10.2276983"><ele>253.0</ele><time>2026-04-20T09:45:39.963Z</time></trkpt><trkpt lat="33.3174" lon="10.2278383"><ele>253.0</ele><time>2026-04-20T09:45:41.963Z</time></trkpt><trkpt lat="33.31747" lon="10.227995"><ele>251.75</ele><time>2026-04-20T09:45:43.963Z</time></trkpt><trkpt lat="33.3175467" lon="10.22817"><ele>250.5</ele><time>2026-04-20T09:45:45.963Z</time></trkpt><trkpt lat="33.3176233" lon="10.228375"><ele>249.25</ele><time>2026-04-20T09:45:47.963Z</time></trkpt><trkpt lat="33.3176717" lon="10.228475"><ele>248.0</ele><time>2026-04-20T09:45:48.963Z</time></trkpt><trkpt lat="33.317725" lon="10.2285883"><ele>248.0</ele><time>2026-04-20T09:45:49.963Z</time></trkpt><trkpt lat="33.31785" lon="10.2288183"><ele>248.0</ele><time>2026-04-20T09:45:51.963Z</time></trkpt><trkpt lat="33.3179167" lon="10.2289283"><ele>248.0</ele><time>2026-04-20T09:45:52.963Z</time></trkpt><trkpt lat="33.31799" lon="10.2290417"><ele>247.33333333333334</ele><time>2026-04-20T09:45:53.963Z</time></trkpt><trkpt lat="33.3180667" lon="10.229165"><ele>246.66666666666669</ele><time>2026-04-20T09:45:54.963Z</time></trkpt><trkpt lat="33.318245" lon="10.2293917"><ele>246.0</ele><time>2026-04-20T09:45:56.963Z</time></trkpt><trkpt lat="33.3183483" lon="10.2295017"><ele>245.75</ele><time>2026-04-20T09:45:57.963Z</time></trkpt><trkpt lat="33.3184567" lon="10.2296183"><ele>245.5</ele><time>2026-04-20T09:45:58.963Z</time></trkpt><trkpt lat="33.3185683" lon="10.2297383"><ele>245.25</ele><time>2026-04-20T09:45:59.963Z</time></trkpt><trkpt lat="33.31867" lon="10.2298733"><ele>245.0</ele><time>2026-04-20T09:46:00.963Z</time></trkpt><trkpt lat="33.3187717" lon="10.2300167"><ele>244.66666666666669</ele><time>2026-04-20T09:46:01.963Z</time></trkpt><trkpt lat="33.3188667" lon="10.230185"><ele>244.33333333333331</ele><time>2026-04-20T09:46:02.963Z</time></trkpt><trkpt lat="33.3189633" lon="10.2303583"><ele>244.0</ele><time>2026-04-20T09:46:03.963Z</time></trkpt><trkpt lat="33.3190583" lon="10.2305467"><ele>243.33333333333331</ele><time>2026-04-20T09:46:04.963Z</time></trkpt><trkpt lat="33.3191517" lon="10.230745"><ele>242.66666666666669</ele><time>2026-04-20T09:46:05.963Z</time></trkpt><trkpt lat="33.3192533" lon="10.23094"><ele>242.0</ele><time>2026-04-20T09:46:06.963Z</time></trkpt><trkpt lat="33.319355" lon="10.2311317"><ele>240.5</ele><time>2026-04-20T09:46:07.963Z</time></trkpt><trkpt lat="33.31956" lon="10.2315083"><ele>239.0</ele><time>2026-04-20T09:46:09.963Z</time></trkpt><trkpt lat="33.3196617" lon="10.2317017"><ele>239.33333333333334</ele><time>2026-04-20T09:46:10.963Z</time></trkpt><trkpt lat="33.3197717" lon="10.231885"><ele>239.66666666666669</ele><time>2026-04-20T09:46:11.963Z</time></trkpt><trkpt lat="33.3198867" lon="10.2320667"><ele>240.0</ele><time>2026-04-20T09:46:12.963Z</time></trkpt><trkpt lat="33.3200017" lon="10.2322467"><ele>239.33333333333331</ele><time>2026-04-20T09:46:13.963Z</time></trkpt><trkpt lat="33.3201267" lon="10.23242"><ele>238.66666666666666</ele><time>2026-04-20T09:46:14.963Z</time></trkpt><trkpt lat="33.3202567" lon="10.2325933"><ele>238.0</ele><time>2026-04-20T09:46:15.963Z</time></trkpt><trkpt lat="33.3203833" lon="10.2327617"><ele>238.0</ele><time>2026-04-20T09:46:16.963Z</time></trkpt><trkpt lat="33.3205033" lon="10.2329167"><ele>238.0</ele><time>2026-04-20T09:46:17.963Z</time></trkpt><trkpt lat="33.3206133" lon="10.2330733"><ele>238.0</ele><time>2026-04-20T09:46:18.963Z</time></trkpt><trkpt lat="33.3207617" lon="10.2334483"><ele>239.0</ele><time>2026-04-20T09:46:20.963Z</time></trkpt><trkpt lat="33.3208067" lon="10.23365"><ele>240.0</ele><time>2026-04-20T09:46:21.963Z</time></trkpt><trkpt lat="33.3208483" lon="10.233855"><ele>241.0</ele><time>2026-04-20T09:46:22.963Z</time></trkpt><trkpt lat="33.3208917" lon="10.234055"><ele>241.0</ele><time>2026-04-20T09:46:23.963Z</time></trkpt><trkpt lat="33.3209417" lon="10.23426"><ele>241.0</ele><time>2026-04-20T09:46:24.963Z</time></trkpt><trkpt lat="33.32101" lon="10.23446"><ele>241.0</ele><time>2026-04-20T09:46:25.963Z</time></trkpt><trkpt lat="33.3210767" lon="10.2346717"><ele>241.33333333333331</ele><time>2026-04-20T09:46:26.963Z</time></trkpt><trkpt lat="33.3211633" lon="10.2348783"><ele>241.66666666666669</ele><time>2026-04-20T09:46:27.963Z</time></trkpt><trkpt lat="33.321255" lon="10.2350833"><ele>242.0</ele><time>2026-04-20T09:46:28.963Z</time></trkpt><trkpt lat="33.32135" lon="10.2352967"><ele>240.5</ele><time>2026-04-20T09:46:29.963Z</time></trkpt><trkpt lat="33.3215467" lon="10.2356767"><ele>239.0</ele><time>2026-04-20T09:46:31.963Z</time></trkpt><trkpt lat="33.321615" lon="10.2358683"><ele>239.0</ele><time>2026-04-20T09:46:32.963Z</time></trkpt><trkpt lat="33.321655" lon="10.236065"><ele>239.0</ele><time>2026-04-20T09:46:33.963Z</time></trkpt><trkpt lat="33.3216567" lon="10.2362483"><ele>239.0</ele><time>2026-04-20T09:46:34.963Z</time></trkpt><trkpt lat="33.3216233" lon="10.236415"><ele>238.66666666666669</ele><time>2026-04-20T09:46:35.963Z</time></trkpt><trkpt lat="33.3215517" lon="10.23657"><ele>238.33333333333331</ele><time>2026-04-20T09:46:36.963Z</time></trkpt><trkpt lat="33.3214583" lon="10.23672"><ele>238.0</ele><time>2026-04-20T09:46:37.963Z</time></trkpt><trkpt lat="33.3213617" lon="10.2368667"><ele>238.66666666666666</ele><time>2026-04-20T09:46:38.963Z</time></trkpt><trkpt lat="33.321255" lon="10.237005"><ele>239.33333333333331</ele><time>2026-04-20T09:46:39.963Z</time></trkpt><trkpt lat="33.3211433" lon="10.2371417"><ele>240.0</ele><time>2026-04-20T09:46:40.963Z</time></trkpt><trkpt lat="33.3210333" lon="10.237295"><ele>239.66666666666669</ele><time>2026-04-20T09:46:41.963Z</time></trkpt><trkpt lat="33.3209217" lon="10.23744"><ele>239.33333333333334</ele><time>2026-04-20T09:46:42.963Z</time></trkpt><trkpt lat="33.320805" lon="10.2376017"><ele>239.0</ele><time>2026-04-20T09:46:43.963Z</time></trkpt><trkpt lat="33.3206883" lon="10.237765"><ele>239.5</ele><time>2026-04-20T09:46:44.963Z</time></trkpt><trkpt lat="33.3204433" lon="10.238105"><ele>240.0</ele><time>2026-04-20T09:46:46.963Z</time></trkpt><trkpt lat="33.320315" lon="10.2382767"><ele>240.0</ele><time>2026-04-20T09:46:47.963Z</time></trkpt><trkpt lat="33.32019" lon="10.2384417"><ele>240.0</ele><time>2026-04-20T09:46:48.963Z</time></trkpt><trkpt lat="33.3200633" lon="10.23861"><ele>240.0</ele><time>2026-04-20T09:46:49.963Z</time></trkpt><trkpt lat="33.3199367" lon="10.2387767"><ele>240.0</ele><time>2026-04-20T09:46:50.963Z</time></trkpt><trkpt lat="33.3198117" lon="10.2389417"><ele>240.0</ele><time>2026-04-20T09:46:51.963Z</time></trkpt><trkpt lat="33.3196883" lon="10.23911"><ele>240.0</ele><time>2026-04-20T09:46:52.963Z</time></trkpt><trkpt lat="33.3195733" lon="10.2392683"><ele>241.0</ele><time>2026-04-20T09:46:53.963Z</time></trkpt><trkpt lat="33.31947" lon="10.2394133"><ele>242.0</ele><time>2026-04-20T09:46:54.963Z</time></trkpt><trkpt lat="33.3192867" lon="10.2396733"><ele>243.0</ele><time>2026-04-20T09:46:56.963Z</time></trkpt><trkpt lat="33.319195" lon="10.2397967"><ele>243.0</ele><time>2026-04-20T09:46:57.963Z</time></trkpt><trkpt lat="33.3191" lon="10.2399167"><ele>243.0</ele><time>2026-04-20T09:46:58.963Z</time></trkpt><trkpt lat="33.319" lon="10.2400383"><ele>243.0</ele><time>2026-04-20T09:46:59.963Z</time></trkpt><trkpt lat="33.3188983" lon="10.2401683"><ele>243.0</ele><time>2026-04-20T09:47:00.963Z</time></trkpt><trkpt lat="33.3187983" lon="10.2403033"><ele>243.0</ele><time>2026-04-20T09:47:01.963Z</time></trkpt><trkpt lat="33.3187033" lon="10.2404667"><ele>243.0</ele><time>2026-04-20T09:47:02.963Z</time></trkpt><trkpt lat="33.3186067" lon="10.2406433"><ele>243.0</ele><time>2026-04-20T09:47:03.963Z</time></trkpt><trkpt lat="33.3185167" lon="10.2408233"><ele>241.0</ele><time>2026-04-20T09:47:04.963Z</time></trkpt><trkpt lat="33.318425" lon="10.2410117"><ele>239.0</ele><time>2026-04-20T09:47:05.963Z</time></trkpt><trkpt lat="33.3182367" lon="10.2414133"><ele>239.0</ele><time>2026-04-20T09:47:07.963Z</time></trkpt><trkpt lat="33.318145" lon="10.24161"><ele>239.0</ele><time>2026-04-20T09:47:08.963Z</time></trkpt><trkpt lat="33.318055" lon="10.24181"><ele>239.0</ele><time>2026-04-20T09:47:09.963Z</time></trkpt><trkpt lat="33.3179617" lon="10.2420183"><ele>239.66666666666669</ele><time>2026-04-20T09:47:10.963Z</time></trkpt><trkpt lat="33.3178667" lon="10.2422267"><ele>240.33333333333331</ele><time>2026-04-20T09:47:11.963Z</time></trkpt><trkpt lat="33.31777" lon="10.2424333"><ele>241.0</ele><time>2026-04-20T09:47:12.963Z</time></trkpt><trkpt lat="33.3176717" lon="10.242645"><ele>241.0</ele><time>2026-04-20T09:47:13.963Z</time></trkpt><trkpt lat="33.3175717" lon="10.2428567"><ele>241.0</ele><time>2026-04-20T09:47:14.963Z</time></trkpt><trkpt lat="33.3174733" lon="10.24306"><ele>241.0</ele><time>2026-04-20T09:47:15.963Z</time></trkpt><trkpt lat="33.317375" lon="10.243265"><ele>241.33333333333331</ele><time>2026-04-20T09:47:16.963Z</time></trkpt><trkpt lat="33.3172733" lon="10.2434633"><ele>241.66666666666669</ele><time>2026-04-20T09:47:17.963Z</time></trkpt><trkpt lat="33.3171717" lon="10.2436733"><ele>242.0</ele><time>2026-04-20T09:47:18.963Z</time></trkpt><trkpt lat="33.317075" lon="10.24388"><ele>242.66666666666669</ele><time>2026-04-20T09:47:19.963Z</time></trkpt><trkpt lat="33.316985" lon="10.24409"><ele>243.33333333333331</ele><time>2026-04-20T09:47:20.963Z</time></trkpt><trkpt lat="33.3168917" lon="10.2443033"><ele>244.0</ele><time>2026-04-20T09:47:21.963Z</time></trkpt><trkpt lat="33.3168033" lon="10.24452"><ele>244.0</ele><time>2026-04-20T09:47:22.963Z</time></trkpt><trkpt lat="33.3167233" lon="10.24473"><ele>244.0</ele><time>2026-04-20T09:47:23.963Z</time></trkpt><trkpt lat="33.3166567" lon="10.244935"><ele>244.0</ele><time>2026-04-20T09:47:24.963Z</time></trkpt><trkpt lat="33.3166083" lon="10.2451417"><ele>244.0</ele><time>2026-04-20T09:47:25.963Z</time></trkpt><trkpt lat="33.3165883" lon="10.2453583"><ele>244.0</ele><time>2026-04-20T09:47:26.963Z</time></trkpt><trkpt lat="33.31659" lon="10.2455733"><ele>244.0</ele><time>2026-04-20T09:47:27.962Z</time></trkpt><trkpt lat="33.3166" lon="10.2458"><ele>244.0</ele><time>2026-04-20T09:47:28.962Z</time></trkpt><trkpt lat="33.3166233" lon="10.24603"><ele>244.0</ele><time>2026-04-20T09:47:29.962Z</time></trkpt><trkpt lat="33.316655" lon="10.2462633"><ele>244.0</ele><time>2026-04-20T09:47:30.962Z</time></trkpt><trkpt lat="33.3166933" lon="10.2464967"><ele>242.66666666666666</ele><time>2026-04-20T09:47:31.962Z</time></trkpt><trkpt lat="33.3167417" lon="10.246735"><ele>241.33333333333331</ele><time>2026-04-20T09:47:32.962Z</time></trkpt><trkpt lat="33.3167917" lon="10.2469817"><ele>240.0</ele><time>2026-04-20T09:47:33.962Z</time></trkpt><trkpt lat="33.3168417" lon="10.2472217"><ele>239.0</ele><time>2026-04-20T09:47:34.962Z</time></trkpt><trkpt lat="33.31689" lon="10.2474633"><ele>238.0</ele><time>2026-04-20T09:47:35.962Z</time></trkpt><trkpt lat="33.316945" lon="10.247695"><ele>237.0</ele><time>2026-04-20T09:47:36.962Z</time></trkpt><trkpt lat="33.3169867" lon="10.247935"><ele>237.0</ele><time>2026-04-20T09:47:37.962Z</time></trkpt><trkpt lat="33.3170183" lon="10.24818"><ele>237.0</ele><time>2026-04-20T09:47:38.962Z</time></trkpt><trkpt lat="33.3170483" lon="10.248425"><ele>237.0</ele><time>2026-04-20T09:47:39.962Z</time></trkpt><trkpt lat="33.317075" lon="10.2486667"><ele>237.0</ele><time>2026-04-20T09:47:40.962Z</time></trkpt><trkpt lat="33.3170967" lon="10.24892"><ele>237.0</ele><time>2026-04-20T09:47:41.962Z</time></trkpt><trkpt lat="33.3171167" lon="10.2491733"><ele>237.0</ele><time>2026-04-20T09:47:42.962Z</time></trkpt><trkpt lat="33.3171417" lon="10.249425"><ele>236.33333333333331</ele><time>2026-04-20T09:47:43.962Z</time></trkpt><trkpt lat="33.31716" lon="10.2496833"><ele>235.66666666666666</ele><time>2026-04-20T09:47:44.962Z</time></trkpt><trkpt lat="33.3171767" lon="10.2499467"><ele>235.0</ele><time>2026-04-20T09:47:45.962Z</time></trkpt><trkpt lat="33.3171967" lon="10.25021"><ele>234.0</ele><time>2026-04-20T09:47:46.962Z</time></trkpt><trkpt lat="33.317215" lon="10.2504733"><ele>233.0</ele><time>2026-04-20T09:47:47.962Z</time></trkpt><trkpt lat="33.3172367" lon="10.2507367"><ele>232.0</ele><time>2026-04-20T09:47:48.962Z</time></trkpt><trkpt lat="33.3172533" lon="10.251005"><ele>231.66666666666666</ele><time>2026-04-20T09:47:49.962Z</time></trkpt><trkpt lat="33.31727" lon="10.2512717"><ele>231.33333333333331</ele><time>2026-04-20T09:47:50.962Z</time></trkpt><trkpt lat="33.317285" lon="10.2515383"><ele>231.0</ele><time>2026-04-20T09:47:51.962Z</time></trkpt><trkpt lat="33.3172967" lon="10.2518067"><ele>229.5</ele><time>2026-04-20T09:47:52.962Z</time></trkpt><trkpt lat="33.31731" lon="10.2520783"><ele>228.0</ele><time>2026-04-20T09:47:53.962Z</time></trkpt><trkpt lat="33.3173267" lon="10.25235"><ele>227.0</ele><time>2026-04-20T09:47:54.962Z</time></trkpt><trkpt lat="33.3173467" lon="10.25262"><ele>226.0</ele><time>2026-04-20T09:47:55.962Z</time></trkpt><trkpt lat="33.3173667" lon="10.2528967"><ele>226.0</ele><time>2026-04-20T09:47:56.962Z</time></trkpt><trkpt lat="33.31739" lon="10.2531667"><ele>226.0</ele><time>2026-04-20T09:47:57.962Z</time></trkpt><trkpt lat="33.3174117" lon="10.2534467"><ele>226.0</ele><time>2026-04-20T09:47:58.962Z</time></trkpt><trkpt lat="33.317435" lon="10.2537233"><ele>226.0</ele><time>2026-04-20T09:47:59.962Z</time></trkpt><trkpt lat="33.3174567" lon="10.2539967"><ele>224.5</ele><time>2026-04-20T09:48:00.962Z</time></trkpt><trkpt lat="33.31748" lon="10.2542683"><ele>223.0</ele><time>2026-04-20T09:48:01.962Z</time></trkpt><trkpt lat="33.3175067" lon="10.2545417"><ele>221.0</ele><time>2026-04-20T09:48:02.962Z</time></trkpt><trkpt lat="33.3175717" lon="10.2550917"><ele>221.0</ele><time>2026-04-20T09:48:04.962Z</time></trkpt><trkpt lat="33.3176183" lon="10.2553667"><ele>221.0</ele><time>2026-04-20T09:48:05.962Z</time></trkpt><trkpt lat="33.317685" lon="10.255645"><ele>219.5</ele><time>2026-04-20T09:48:06.962Z</time></trkpt><trkpt lat="33.3177567" lon="10.2559117"><ele>218.0</ele><time>2026-04-20T09:48:07.962Z</time></trkpt><trkpt lat="33.3178367" lon="10.25616"><ele>218.0</ele><time>2026-04-20T09:48:08.962Z</time></trkpt><trkpt lat="33.3179267" lon="10.25639"><ele>218.0</ele><time>2026-04-20T09:48:09.962Z</time></trkpt><trkpt lat="33.3180117" lon="10.256605"><ele>218.0</ele><time>2026-04-20T09:48:10.962Z</time></trkpt><trkpt lat="33.3180717" lon="10.2568183"><ele>217.0</ele><time>2026-04-20T09:48:11.962Z</time></trkpt><trkpt lat="33.3181017" lon="10.2570333"><ele>216.0</ele><time>2026-04-20T09:48:12.962Z</time></trkpt><trkpt lat="33.3181" lon="10.25724"><ele>215.0</ele><time>2026-04-20T09:48:13.962Z</time></trkpt><trkpt lat="33.3180717" lon="10.2574467"><ele>215.33333333333334</ele><time>2026-04-20T09:48:14.962Z</time></trkpt><trkpt lat="33.318035" lon="10.25766"><ele>215.66666666666669</ele><time>2026-04-20T09:48:15.962Z</time></trkpt><trkpt lat="33.317985" lon="10.2578717"><ele>216.0</ele><time>2026-04-20T09:48:16.962Z</time></trkpt><trkpt lat="33.3179283" lon="10.2580783"><ele>216.0</ele><time>2026-04-20T09:48:17.962Z</time></trkpt><trkpt lat="33.3178717" lon="10.258285"><ele>216.0</ele><time>2026-04-20T09:48:18.962Z</time></trkpt><trkpt lat="33.3178" lon="10.258485"><ele>216.0</ele><time>2026-04-20T09:48:19.962Z</time></trkpt><trkpt lat="33.3177367" lon="10.2586933"><ele>216.0</ele><time>2026-04-20T09:48:20.962Z</time></trkpt><trkpt lat="33.3176633" lon="10.2589033"><ele>216.0</ele><time>2026-04-20T09:48:21.962Z</time></trkpt><trkpt lat="33.31759" lon="10.2591217"><ele>216.0</ele><time>2026-04-20T09:48:22.962Z</time></trkpt><trkpt lat="33.3175167" lon="10.2593383"><ele>216.0</ele><time>2026-04-20T09:48:23.962Z</time></trkpt><trkpt lat="33.3174433" lon="10.2595483"><ele>216.0</ele><time>2026-04-20T09:48:24.962Z</time></trkpt><trkpt lat="33.3173667" lon="10.2597633"><ele>216.0</ele><time>2026-04-20T09:48:25.962Z</time></trkpt><trkpt lat="33.3172933" lon="10.2599767"><ele>217.0</ele><time>2026-04-20T09:48:26.962Z</time></trkpt><trkpt lat="33.3172233" lon="10.260185"><ele>218.0</ele><time>2026-04-20T09:48:27.962Z</time></trkpt><trkpt lat="33.3171583" lon="10.26038"><ele>219.0</ele><time>2026-04-20T09:48:28.962Z</time></trkpt><trkpt lat="33.317095" lon="10.2605517"><ele>218.75</ele><time>2026-04-20T09:48:29.962Z</time></trkpt><trkpt lat="33.3170417" lon="10.2606917"><ele>218.5</ele><time>2026-04-20T09:48:30.962Z</time></trkpt><trkpt lat="33.3169917" lon="10.260835"><ele>218.25</ele><time>2026-04-20T09:48:31.962Z</time></trkpt><trkpt lat="33.3169483" lon="10.260985"><ele>218.0</ele><time>2026-04-20T09:48:32.962Z</time></trkpt><trkpt lat="33.316905" lon="10.261125"><ele>218.0</ele><time>2026-04-20T09:48:33.962Z</time></trkpt><trkpt lat="33.31686" lon="10.2612683"><ele>218.0</ele><time>2026-04-20T09:48:34.962Z</time></trkpt><trkpt lat="33.3168133" lon="10.2614183"><ele>218.0</ele><time>2026-04-20T09:48:35.962Z</time></trkpt><trkpt lat="33.31677" lon="10.2615733"><ele>218.0</ele><time>2026-04-20T09:48:36.962Z</time></trkpt><trkpt lat="33.3167217" lon="10.26174"><ele>217.66666666666669</ele><time>2026-04-20T09:48:37.962Z</time></trkpt><trkpt lat="33.3166683" lon="10.26192"><ele>217.33333333333331</ele><time>2026-04-20T09:48:38.962Z</time></trkpt><trkpt lat="33.3166233" lon="10.2621033"><ele>217.0</ele><time>2026-04-20T09:48:39.962Z</time></trkpt><trkpt lat="33.3165783" lon="10.2622967"><ele>217.66666666666666</ele><time>2026-04-20T09:48:40.962Z</time></trkpt><trkpt lat="33.31653" lon="10.26249"><ele>218.33333333333331</ele><time>2026-04-20T09:48:41.962Z</time></trkpt><trkpt lat="33.3164767" lon="10.2626783"><ele>219.0</ele><time>2026-04-20T09:48:42.962Z</time></trkpt><trkpt lat="33.3164267" lon="10.2628633"><ele>219.33333333333331</ele><time>2026-04-20T09:48:43.962Z</time></trkpt><trkpt lat="33.316375" lon="10.2630633"><ele>219.66666666666666</ele><time>2026-04-20T09:48:44.962Z</time></trkpt><trkpt lat="33.3163217" lon="10.2632633"><ele>220.0</ele><time>2026-04-20T09:48:45.962Z</time></trkpt><trkpt lat="33.3162683" lon="10.2634667"><ele>220.33333333333331</ele><time>2026-04-20T09:48:46.962Z</time></trkpt><trkpt lat="33.31622" lon="10.26366"><ele>220.66666666666669</ele><time>2026-04-20T09:48:47.962Z</time></trkpt><trkpt lat="33.3161667" lon="10.263865"><ele>221.0</ele><time>2026-04-20T09:48:48.962Z</time></trkpt><trkpt lat="33.3161117" lon="10.26406"><ele>220.0</ele><time>2026-04-20T09:48:49.962Z</time></trkpt><trkpt lat="33.3160583" lon="10.264265"><ele>219.0</ele><time>2026-04-20T09:48:50.962Z</time></trkpt><trkpt lat="33.316" lon="10.2644667"><ele>218.0</ele><time>2026-04-20T09:48:51.962Z</time></trkpt><trkpt lat="33.31595" lon="10.2646717"><ele>217.33333333333334</ele><time>2026-04-20T09:48:52.962Z</time></trkpt><trkpt lat="33.3158983" lon="10.2648683"><ele>216.66666666666669</ele><time>2026-04-20T09:48:53.962Z</time></trkpt><trkpt lat="33.3158467" lon="10.2650667"><ele>216.0</ele><time>2026-04-20T09:48:54.962Z</time></trkpt><trkpt lat="33.3157967" lon="10.2652667"><ele>216.0</ele><time>2026-04-20T09:48:55.962Z</time></trkpt><trkpt lat="33.315745" lon="10.2654583"><ele>216.0</ele><time>2026-04-20T09:48:56.962Z</time></trkpt><trkpt lat="33.31569" lon="10.2656617"><ele>216.0</ele><time>2026-04-20T09:48:57.962Z</time></trkpt><trkpt lat="33.31563" lon="10.265875"><ele>216.0</ele><time>2026-04-20T09:48:58.962Z</time></trkpt><trkpt lat="33.3155567" lon="10.266085"><ele>216.0</ele><time>2026-04-20T09:48:59.962Z</time></trkpt><trkpt lat="33.3154633" lon="10.2662883"><ele>216.0</ele><time>2026-04-20T09:49:00.962Z</time></trkpt><trkpt lat="33.315355" lon="10.2664833"><ele>215.66666666666669</ele><time>2026-04-20T09:49:01.962Z</time></trkpt><trkpt lat="33.3152533" lon="10.2666817"><ele>215.33333333333334</ele><time>2026-04-20T09:49:02.962Z</time></trkpt><trkpt lat="33.3151517" lon="10.2668833"><ele>215.0</ele><time>2026-04-20T09:49:03.962Z</time></trkpt><trkpt lat="33.314935" lon="10.267295"><ele>215.0</ele><time>2026-04-20T09:49:05.962Z</time></trkpt><trkpt lat="33.3148233" lon="10.267495"><ele>215.0</ele><time>2026-04-20T09:49:06.962Z</time></trkpt><trkpt lat="33.3147117" lon="10.267705"><ele>215.0</ele><time>2026-04-20T09:49:07.962Z</time></trkpt><trkpt lat="33.3145967" lon="10.26791"><ele>215.0</ele><time>2026-04-20T09:49:08.962Z</time></trkpt><trkpt lat="33.314485" lon="10.2681183"><ele>215.0</ele><time>2026-04-20T09:49:09.962Z</time></trkpt><trkpt lat="33.3143717" lon="10.26833"><ele>215.0</ele><time>2026-04-20T09:49:10.962Z</time></trkpt><trkpt lat="33.31426" lon="10.2685433"><ele>215.0</ele><time>2026-04-20T09:49:11.962Z</time></trkpt><trkpt lat="33.3141583" lon="10.2687567"><ele>215.0</ele><time>2026-04-20T09:49:12.962Z</time></trkpt><trkpt lat="33.31406" lon="10.268975"><ele>215.0</ele><time>2026-04-20T09:49:13.962Z</time></trkpt><trkpt lat="33.3139617" lon="10.269195"><ele>214.66666666666669</ele><time>2026-04-20T09:49:14.962Z</time></trkpt><trkpt lat="33.31387" lon="10.26942"><ele>214.33333333333331</ele><time>2026-04-20T09:49:15.962Z</time></trkpt><trkpt lat="33.31379" lon="10.2696533"><ele>214.0</ele><time>2026-04-20T09:49:16.962Z</time></trkpt><trkpt lat="33.3137167" lon="10.2698883"><ele>213.0</ele><time>2026-04-20T09:49:17.962Z</time></trkpt><trkpt lat="33.3136617" lon="10.2701467"><ele>212.0</ele><time>2026-04-20T09:49:18.962Z</time></trkpt><trkpt lat="33.3136033" lon="10.2704117"><ele>211.0</ele><time>2026-04-20T09:49:19.962Z</time></trkpt><trkpt lat="33.3135533" lon="10.270675"><ele>210.0</ele><time>2026-04-20T09:49:20.962Z</time></trkpt><trkpt lat="33.3135133" lon="10.2709483"><ele>210.0</ele><time>2026-04-20T09:49:21.962Z</time></trkpt><trkpt lat="33.31349" lon="10.27122"><ele>210.0</ele><time>2026-04-20T09:49:22.962Z</time></trkpt><trkpt lat="33.3134683" lon="10.2714933"><ele>209.5</ele><time>2026-04-20T09:49:23.962Z</time></trkpt><trkpt lat="33.3134533" lon="10.2717683"><ele>209.0</ele><time>2026-04-20T09:49:24.962Z</time></trkpt><trkpt lat="33.3134283" lon="10.272045"><ele>208.5</ele><time>2026-04-20T09:49:25.962Z</time></trkpt><trkpt lat="33.3134033" lon="10.27232"><ele>208.0</ele><time>2026-04-20T09:49:26.962Z</time></trkpt><trkpt lat="33.31338" lon="10.2725917"><ele>208.0</ele><time>2026-04-20T09:49:27.962Z</time></trkpt><trkpt lat="33.3133567" lon="10.2728633"><ele>208.0</ele><time>2026-04-20T09:49:28.962Z</time></trkpt><trkpt lat="33.31333" lon="10.2731317"><ele>208.0</ele><time>2026-04-20T09:49:29.962Z</time></trkpt><trkpt lat="33.3133033" lon="10.2734033"><ele>208.0</ele><time>2026-04-20T09:49:30.962Z</time></trkpt><trkpt lat="33.3132767" lon="10.2736767"><ele>208.0</ele><time>2026-04-20T09:49:31.962Z</time></trkpt><trkpt lat="33.313255" lon="10.273945"><ele>208.0</ele><time>2026-04-20T09:49:32.962Z</time></trkpt><trkpt lat="33.3132317" lon="10.2744883"><ele>208.0</ele><time>2026-04-20T09:49:34.962Z</time></trkpt><trkpt lat="33.3132467" lon="10.2747467"><ele>208.0</ele><time>2026-04-20T09:49:35.962Z</time></trkpt><trkpt lat="33.313275" lon="10.2750117"><ele>208.0</ele><time>2026-04-20T09:49:36.962Z</time></trkpt><trkpt lat="33.313315" lon="10.2752733"><ele>208.0</ele><time>2026-04-20T09:49:37.962Z</time></trkpt><trkpt lat="33.313365" lon="10.2755383"><ele>208.0</ele><time>2026-04-20T09:49:38.962Z</time></trkpt><trkpt lat="33.3134233" lon="10.2757967"><ele>208.0</ele><time>2026-04-20T09:49:39.962Z</time></trkpt><trkpt lat="33.3134833" lon="10.276055"><ele>208.0</ele><time>2026-04-20T09:49:40.962Z</time></trkpt><trkpt lat="33.3135317" lon="10.27629"><ele>208.0</ele><time>2026-04-20T09:49:41.962Z</time></trkpt><trkpt lat="33.3135717" lon="10.27651"><ele>207.75</ele><time>2026-04-20T09:49:42.962Z</time></trkpt><trkpt lat="33.3135817" lon="10.2767017"><ele>207.5</ele><time>2026-04-20T09:49:43.962Z</time></trkpt><trkpt lat="33.313555" lon="10.2768717"><ele>207.25</ele><time>2026-04-20T09:49:44.962Z</time></trkpt><trkpt lat="33.3134983" lon="10.2770267"><ele>207.0</ele><time>2026-04-20T09:49:45.962Z</time></trkpt><trkpt lat="33.3134083" lon="10.2771867"><ele>207.0</ele><time>2026-04-20T09:49:46.962Z</time></trkpt><trkpt lat="33.3133133" lon="10.2773467"><ele>207.0</ele><time>2026-04-20T09:49:47.962Z</time></trkpt><trkpt lat="33.3132183" lon="10.2775033"><ele>207.0</ele><time>2026-04-20T09:49:48.962Z</time></trkpt><trkpt lat="33.3131217" lon="10.2776717"><ele>207.33333333333331</ele><time>2026-04-20T09:49:49.962Z</time></trkpt><trkpt lat="33.3130183" lon="10.2778467"><ele>207.66666666666666</ele><time>2026-04-20T09:49:50.962Z</time></trkpt><trkpt lat="33.31292" lon="10.2780317"><ele>208.0</ele><time>2026-04-20T09:49:51.962Z</time></trkpt><trkpt lat="33.312825" lon="10.2782233"><ele>208.0</ele><time>2026-04-20T09:49:52.962Z</time></trkpt><trkpt lat="33.3127283" lon="10.2784183"><ele>208.0</ele><time>2026-04-20T09:49:53.962Z</time></trkpt><trkpt lat="33.31263" lon="10.2786083"><ele>208.0</ele><time>2026-04-20T09:49:54.962Z</time></trkpt><trkpt lat="33.312535" lon="10.2788117"><ele>207.33333333333331</ele><time>2026-04-20T09:49:55.962Z</time></trkpt><trkpt lat="33.3124367" lon="10.2790183"><ele>206.66666666666669</ele><time>2026-04-20T09:49:56.962Z</time></trkpt><trkpt lat="33.312335" lon="10.2792233"><ele>206.0</ele><time>2026-04-20T09:49:57.962Z</time></trkpt><trkpt lat="33.3122267" lon="10.2794483"><ele>206.0</ele><time>2026-04-20T09:49:58.962Z</time></trkpt><trkpt lat="33.3121217" lon="10.2796817"><ele>206.0</ele><time>2026-04-20T09:49:59.962Z</time></trkpt><trkpt lat="33.3120183" lon="10.2799167"><ele>206.0</ele><time>2026-04-20T09:50:00.962Z</time></trkpt><trkpt lat="33.3119133" lon="10.28014"><ele>206.0</ele><time>2026-04-20T09:50:01.962Z</time></trkpt><trkpt lat="33.3118" lon="10.2803683"><ele>206.0</ele><time>2026-04-20T09:50:02.962Z</time></trkpt><trkpt lat="33.3116867" lon="10.2806017"><ele>206.0</ele><time>2026-04-20T09:50:03.962Z</time></trkpt><trkpt lat="33.3115733" lon="10.280835"><ele>206.0</ele><time>2026-04-20T09:50:04.962Z</time></trkpt><trkpt lat="33.3114583" lon="10.2810667"><ele>206.0</ele><time>2026-04-20T09:50:05.962Z</time></trkpt><trkpt lat="33.31134" lon="10.281295"><ele>205.0</ele><time>2026-04-20T09:50:06.962Z</time></trkpt><trkpt lat="33.3112233" lon="10.2815417"><ele>204.0</ele><time>2026-04-20T09:50:07.962Z</time></trkpt><trkpt lat="33.31111" lon="10.2817817"><ele>204.0</ele><time>2026-04-20T09:50:08.962Z</time></trkpt><trkpt lat="33.311" lon="10.2820167"><ele>204.0</ele><time>2026-04-20T09:50:09.962Z</time></trkpt><trkpt lat="33.31089" lon="10.2822583"><ele>205.5</ele><time>2026-04-20T09:50:10.962Z</time></trkpt><trkpt lat="33.3107783" lon="10.2825"><ele>207.0</ele><time>2026-04-20T09:50:11.962Z</time></trkpt><trkpt lat="33.3106667" lon="10.2827383"><ele>208.0</ele><time>2026-04-20T09:50:12.962Z</time></trkpt><trkpt lat="33.3105483" lon="10.2829767"><ele>209.0</ele><time>2026-04-20T09:50:13.962Z</time></trkpt><trkpt lat="33.3104317" lon="10.2832317"><ele>209.0</ele><time>2026-04-20T09:50:14.962Z</time></trkpt><trkpt lat="33.3103117" lon="10.2834783"><ele>209.0</ele><time>2026-04-20T09:50:15.962Z</time></trkpt><trkpt lat="33.310195" lon="10.2837267"><ele>208.0</ele><time>2026-04-20T09:50:16.962Z</time></trkpt><trkpt lat="33.310075" lon="10.283975"><ele>207.0</ele><time>2026-04-20T09:50:17.962Z</time></trkpt><trkpt lat="33.3099433" lon="10.28422"><ele>207.0</ele><time>2026-04-20T09:50:18.962Z</time></trkpt><trkpt lat="33.3098033" lon="10.2844567"><ele>207.0</ele><time>2026-04-20T09:50:19.962Z</time></trkpt><trkpt lat="33.3096517" lon="10.2846867"><ele>208.5</ele><time>2026-04-20T09:50:20.962Z</time></trkpt><trkpt lat="33.3094917" lon="10.2849117"><ele>210.0</ele><time>2026-04-20T09:50:21.962Z</time></trkpt><trkpt lat="33.3093317" lon="10.2851267"><ele>210.0</ele><time>2026-04-20T09:50:22.962Z</time></trkpt><trkpt lat="33.3091733" lon="10.285345"><ele>210.0</ele><time>2026-04-20T09:50:23.962Z</time></trkpt><trkpt lat="33.3090083" lon="10.2855567"><ele>210.0</ele><time>2026-04-20T09:50:24.962Z</time></trkpt><trkpt lat="33.30885" lon="10.285765"><ele>210.0</ele><time>2026-04-20T09:50:25.962Z</time></trkpt><trkpt lat="33.3086833" lon="10.285975"><ele>210.0</ele><time>2026-04-20T09:50:26.962Z</time></trkpt><trkpt lat="33.30852" lon="10.2861833"><ele>210.0</ele><time>2026-04-20T09:50:27.962Z</time></trkpt><trkpt lat="33.30835" lon="10.2863767"><ele>209.5</ele><time>2026-04-20T09:50:28.962Z</time></trkpt><trkpt lat="33.3081783" lon="10.2865633"><ele>209.0</ele><time>2026-04-20T09:50:29.962Z</time></trkpt><trkpt lat="33.308005" lon="10.2867533"><ele>209.0</ele><time>2026-04-20T09:50:30.962Z</time></trkpt><trkpt lat="33.3078417" lon="10.2869383"><ele>209.0</ele><time>2026-04-20T09:50:31.962Z</time></trkpt><trkpt lat="33.307685" lon="10.28711"><ele>209.0</ele><time>2026-04-20T09:50:32.962Z</time></trkpt><trkpt lat="33.3075317" lon="10.2872667"><ele>209.0</ele><time>2026-04-20T09:50:33.962Z</time></trkpt><trkpt lat="33.30739" lon="10.287415"><ele>209.0</ele><time>2026-04-20T09:50:34.962Z</time></trkpt><trkpt lat="33.307255" lon="10.2875617"><ele>209.0</ele><time>2026-04-20T09:50:35.962Z</time></trkpt><trkpt lat="33.3071233" lon="10.28771"><ele>208.66666666666669</ele><time>2026-04-20T09:50:36.962Z</time></trkpt><trkpt lat="33.3069883" lon="10.2878483"><ele>208.33333333333331</ele><time>2026-04-20T09:50:37.962Z</time></trkpt><trkpt lat="33.3068533" lon="10.2879817"><ele>208.0</ele><time>2026-04-20T09:50:38.962Z</time></trkpt><trkpt lat="33.3067267" lon="10.2881217"><ele>207.66666666666666</ele><time>2026-04-20T09:50:39.962Z</time></trkpt><trkpt lat="33.3066" lon="10.2882517"><ele>207.33333333333331</ele><time>2026-04-20T09:50:40.962Z</time></trkpt><trkpt lat="33.3064717" lon="10.28838"><ele>207.0</ele><time>2026-04-20T09:50:41.962Z</time></trkpt><trkpt lat="33.306355" lon="10.2884983"><ele>207.0</ele><time>2026-04-20T09:50:42.962Z</time></trkpt><trkpt lat="33.30624" lon="10.2886083"><ele>207.0</ele><time>2026-04-20T09:50:43.962Z</time></trkpt><trkpt lat="33.3061167" lon="10.2887267"><ele>207.0</ele><time>2026-04-20T09:50:44.962Z</time></trkpt><trkpt lat="33.3059933" lon="10.2888533"><ele>207.0</ele><time>2026-04-20T09:50:45.962Z</time></trkpt><trkpt lat="33.3058783" lon="10.2889817"><ele>207.0</ele><time>2026-04-20T09:50:46.962Z</time></trkpt><trkpt lat="33.30576" lon="10.289105"><ele>207.0</ele><time>2026-04-20T09:50:47.962Z</time></trkpt><trkpt lat="33.3056433" lon="10.28923"><ele>207.66666666666669</ele><time>2026-04-20T09:50:48.962Z</time></trkpt><trkpt lat="33.3055333" lon="10.2893683"><ele>208.33333333333334</ele><time>2026-04-20T09:50:49.962Z</time></trkpt><trkpt lat="33.3054267" lon="10.28951"><ele>209.0</ele><time>2026-04-20T09:50:50.962Z</time></trkpt><trkpt lat="33.3053233" lon="10.289655"><ele>209.0</ele><time>2026-04-20T09:50:51.961Z</time></trkpt><trkpt lat="33.30522" lon="10.2898017"><ele>209.0</ele><time>2026-04-20T09:50:52.961Z</time></trkpt><trkpt lat="33.3051183" lon="10.2899583"><ele>209.0</ele><time>2026-04-20T09:50:53.961Z</time></trkpt><trkpt lat="33.3050083" lon="10.2901167"><ele>209.0</ele><time>2026-04-20T09:50:54.961Z</time></trkpt><trkpt lat="33.3048967" lon="10.2902767"><ele>209.0</ele><time>2026-04-20T09:50:55.961Z</time></trkpt><trkpt lat="33.3047817" lon="10.2904217"><ele>209.0</ele><time>2026-04-20T09:50:56.961Z</time></trkpt><trkpt lat="33.30467" lon="10.29056"><ele>208.33333333333334</ele><time>2026-04-20T09:50:57.961Z</time></trkpt><trkpt lat="33.3045583" lon="10.2906967"><ele>207.66666666666669</ele><time>2026-04-20T09:50:58.961Z</time></trkpt><trkpt lat="33.3044433" lon="10.2908367"><ele>207.0</ele><time>2026-04-20T09:50:59.961Z</time></trkpt><trkpt lat="33.30433" lon="10.290975"><ele>207.0</ele><time>2026-04-20T09:51:00.961Z</time></trkpt><trkpt lat="33.304215" lon="10.29112"><ele>207.0</ele><time>2026-04-20T09:51:01.961Z</time></trkpt><trkpt lat="33.3040983" lon="10.2912567"><ele>207.0</ele><time>2026-04-20T09:51:02.961Z</time></trkpt><trkpt lat="33.3039833" lon="10.2913883"><ele>208.0</ele><time>2026-04-20T09:51:03.961Z</time></trkpt><trkpt lat="33.30387" lon="10.2915267"><ele>209.0</ele><time>2026-04-20T09:51:04.961Z</time></trkpt><trkpt lat="33.303755" lon="10.29166"><ele>210.0</ele><time>2026-04-20T09:51:05.961Z</time></trkpt><trkpt lat="33.30364" lon="10.29179"><ele>210.0</ele><time>2026-04-20T09:51:06.961Z</time></trkpt><trkpt lat="33.30352" lon="10.29193"><ele>210.0</ele><time>2026-04-20T09:51:07.961Z</time></trkpt><trkpt lat="33.3033983" lon="10.29206"><ele>210.0</ele><time>2026-04-20T09:51:08.961Z</time></trkpt><trkpt lat="33.30328" lon="10.2921833"><ele>209.33333333333331</ele><time>2026-04-20T09:51:09.961Z</time></trkpt><trkpt lat="33.3031567" lon="10.2923033"><ele>208.66666666666666</ele><time>2026-04-20T09:51:10.961Z</time></trkpt><trkpt lat="33.3030367" lon="10.2924267"><ele>208.0</ele><time>2026-04-20T09:51:11.961Z</time></trkpt><trkpt lat="33.3029167" lon="10.2925417"><ele>208.0</ele><time>2026-04-20T09:51:12.961Z</time></trkpt><trkpt lat="33.3027867" lon="10.2926467"><ele>208.0</ele><time>2026-04-20T09:51:13.961Z</time></trkpt><trkpt lat="33.302665" lon="10.2927483"><ele>208.0</ele><time>2026-04-20T09:51:14.961Z</time></trkpt><trkpt lat="33.30254" lon="10.292845"><ele>208.0</ele><time>2026-04-20T09:51:15.961Z</time></trkpt><trkpt lat="33.3024117" lon="10.2929433"><ele>208.0</ele><time>2026-04-20T09:51:16.961Z</time></trkpt><trkpt lat="33.3022767" lon="10.2930383"><ele>208.0</ele><time>2026-04-20T09:51:17.961Z</time></trkpt><trkpt lat="33.302135" lon="10.29313"><ele>209.0</ele><time>2026-04-20T09:51:18.961Z</time></trkpt><trkpt lat="33.3019983" lon="10.293215"><ele>210.0</ele><time>2026-04-20T09:51:19.961Z</time></trkpt><trkpt lat="33.301865" lon="10.2933033"><ele>211.0</ele><time>2026-04-20T09:51:20.961Z</time></trkpt><trkpt lat="33.30173" lon="10.293395"><ele>211.0</ele><time>2026-04-20T09:51:21.961Z</time></trkpt><trkpt lat="33.3016" lon="10.2934817"><ele>211.0</ele><time>2026-04-20T09:51:22.961Z</time></trkpt><trkpt lat="33.3014767" lon="10.2935517"><ele>211.0</ele><time>2026-04-20T09:51:23.961Z</time></trkpt><trkpt lat="33.30136" lon="10.2936217"><ele>211.0</ele><time>2026-04-20T09:51:24.961Z</time></trkpt><trkpt lat="33.3012467" lon="10.2936733"><ele>211.4</ele><time>2026-04-20T09:51:25.961Z</time></trkpt><trkpt lat="33.3011483" lon="10.2937167"><ele>211.8</ele><time>2026-04-20T09:51:26.961Z</time></trkpt><trkpt lat="33.3010567" lon="10.29375"><ele>212.20000000000002</ele><time>2026-04-20T09:51:27.961Z</time></trkpt><trkpt lat="33.30097" lon="10.2937767"><ele>212.60000000000002</ele><time>2026-04-20T09:51:28.961Z</time></trkpt><trkpt lat="33.30089" lon="10.2938133"><ele>213.0</ele><time>2026-04-20T09:51:29.961Z</time></trkpt><trkpt lat="33.3008117" lon="10.29384"><ele>213.0</ele><time>2026-04-20T09:51:30.961Z</time></trkpt><trkpt lat="33.3007483" lon="10.2938767"><ele>213.0</ele><time>2026-04-20T09:51:31.961Z</time></trkpt><trkpt lat="33.3006867" lon="10.2939133"><ele>213.0</ele><time>2026-04-20T09:51:32.961Z</time></trkpt><trkpt lat="33.300595" lon="10.2939983"><ele>213.0</ele><time>2026-04-20T09:51:34.961Z</time></trkpt><trkpt lat="33.3005633" lon="10.29407"><ele>213.0</ele><time>2026-04-20T09:51:35.961Z</time></trkpt><trkpt lat="33.3005533" lon="10.294165"><ele>213.0</ele><time>2026-04-20T09:51:36.961Z</time></trkpt><trkpt lat="33.3005683" lon="10.294265"><ele>213.0</ele><time>2026-04-20T09:51:37.961Z</time></trkpt><trkpt lat="33.300595" lon="10.2943733"><ele>213.0</ele><time>2026-04-20T09:51:38.961Z</time></trkpt><trkpt lat="33.3006133" lon="10.2944733"><ele>213.0</ele><time>2026-04-20T09:51:39.961Z</time></trkpt><trkpt lat="33.3006267" lon="10.2945683"><ele>213.0</ele><time>2026-04-20T09:51:40.961Z</time></trkpt><trkpt lat="33.3006383" lon="10.2946617"><ele>213.0</ele><time>2026-04-20T09:51:41.961Z</time></trkpt><trkpt lat="33.3006533" lon="10.2947517"><ele>213.0</ele><time>2026-04-20T09:51:42.961Z</time></trkpt><trkpt lat="33.3006667" lon="10.29483"><ele>212.60000000000002</ele><time>2026-04-20T09:51:43.961Z</time></trkpt><trkpt lat="33.300665" lon="10.2949517"><ele>212.20000000000002</ele><time>2026-04-20T09:51:45.961Z</time></trkpt><trkpt lat="33.300605" lon="10.29501"><ele>211.8</ele><time>2026-04-20T09:51:47.961Z</time></trkpt><trkpt lat="33.300475" lon="10.2949817"><ele>211.4</ele><time>2026-04-20T09:51:49.961Z</time></trkpt><trkpt lat="33.3003817" lon="10.29495"><ele>211.0</ele><time>2026-04-20T09:51:50.961Z</time></trkpt><trkpt lat="33.300275" lon="10.2949283"><ele>211.0</ele><time>2026-04-20T09:51:51.961Z</time></trkpt><trkpt lat="33.3001567" lon="10.294915"><ele>211.0</ele><time>2026-04-20T09:51:52.961Z</time></trkpt><trkpt lat="33.3000333" lon="10.2948967"><ele>211.0</ele><time>2026-04-20T09:51:53.961Z</time></trkpt><trkpt lat="33.2998967" lon="10.29487"><ele>211.0</ele><time>2026-04-20T09:51:54.961Z</time></trkpt><trkpt lat="33.29976" lon="10.29484"><ele>211.25</ele><time>2026-04-20T09:51:55.961Z</time></trkpt><trkpt lat="33.2996233" lon="10.294815"><ele>211.5</ele><time>2026-04-20T09:51:56.961Z</time></trkpt><trkpt lat="33.2994883" lon="10.2948033"><ele>211.75</ele><time>2026-04-20T09:51:57.961Z</time></trkpt><trkpt lat="33.2993467" lon="10.2947817"><ele>212.0</ele><time>2026-04-20T09:51:58.961Z</time></trkpt><trkpt lat="33.2992067" lon="10.2947683"><ele>212.0</ele><time>2026-04-20T09:51:59.961Z</time></trkpt><trkpt lat="33.299065" lon="10.2947717"><ele>212.0</ele><time>2026-04-20T09:52:00.961Z</time></trkpt><trkpt lat="33.2989167" lon="10.2947917"><ele>212.0</ele><time>2026-04-20T09:52:01.961Z</time></trkpt><trkpt lat="33.2987717" lon="10.2948433"><ele>212.0</ele><time>2026-04-20T09:52:02.961Z</time></trkpt><trkpt lat="33.2986317" lon="10.2948983"><ele>211.75</ele><time>2026-04-20T09:52:03.961Z</time></trkpt><trkpt lat="33.2984983" lon="10.2949567"><ele>211.5</ele><time>2026-04-20T09:52:04.961Z</time></trkpt><trkpt lat="33.2983733" lon="10.2950133"><ele>211.25</ele><time>2026-04-20T09:52:05.961Z</time></trkpt><trkpt lat="33.2982583" lon="10.2950717"><ele>211.0</ele><time>2026-04-20T09:52:06.961Z</time></trkpt><trkpt lat="33.2981467" lon="10.2951317"><ele>210.75</ele><time>2026-04-20T09:52:07.961Z</time></trkpt><trkpt lat="33.2980333" lon="10.2951933"><ele>210.5</ele><time>2026-04-20T09:52:08.961Z</time></trkpt><trkpt lat="33.2979233" lon="10.295255"><ele>210.25</ele><time>2026-04-20T09:52:09.961Z</time></trkpt><trkpt lat="33.2978183" lon="10.2953183"><ele>210.0</ele><time>2026-04-20T09:52:10.961Z</time></trkpt><trkpt lat="33.2977083" lon="10.2953817"><ele>210.0</ele><time>2026-04-20T09:52:11.961Z</time></trkpt><trkpt lat="33.2976017" lon="10.295445"><ele>210.0</ele><time>2026-04-20T09:52:12.961Z</time></trkpt><trkpt lat="33.2974833" lon="10.2955117"><ele>210.0</ele><time>2026-04-20T09:52:13.961Z</time></trkpt><trkpt lat="33.2973633" lon="10.29558"><ele>210.0</ele><time>2026-04-20T09:52:14.961Z</time></trkpt><trkpt lat="33.2972467" lon="10.2956533"><ele>209.75</ele><time>2026-04-20T09:52:15.961Z</time></trkpt><trkpt lat="33.2971233" lon="10.2957317"><ele>209.5</ele><time>2026-04-20T09:52:16.961Z</time></trkpt><trkpt lat="33.2969967" lon="10.2958083"><ele>209.25</ele><time>2026-04-20T09:52:17.961Z</time></trkpt><trkpt lat="33.296865" lon="10.2958817"><ele>209.0</ele><time>2026-04-20T09:52:18.961Z</time></trkpt><trkpt lat="33.29674" lon="10.2959517"><ele>209.0</ele><time>2026-04-20T09:52:19.961Z</time></trkpt><trkpt lat="33.296615" lon="10.296025"><ele>209.0</ele><time>2026-04-20T09:52:20.961Z</time></trkpt><trkpt lat="33.296485" lon="10.2960967"><ele>209.0</ele><time>2026-04-20T09:52:21.961Z</time></trkpt><trkpt lat="33.2963583" lon="10.2961733"><ele>209.0</ele><time>2026-04-20T09:52:22.961Z</time></trkpt><trkpt lat="33.2962283" lon="10.2962617"><ele>209.33333333333334</ele><time>2026-04-20T09:52:23.961Z</time></trkpt><trkpt lat="33.2961" lon="10.296365"><ele>209.66666666666669</ele><time>2026-04-20T09:52:24.961Z</time></trkpt><trkpt lat="33.2959667" lon="10.2964667"><ele>210.0</ele><time>2026-04-20T09:52:25.961Z</time></trkpt><trkpt lat="33.2958283" lon="10.2965683"><ele>210.33333333333331</ele><time>2026-04-20T09:52:26.961Z</time></trkpt><trkpt lat="33.295685" lon="10.29667"><ele>210.66666666666666</ele><time>2026-04-20T09:52:27.961Z</time></trkpt><trkpt lat="33.2955483" lon="10.29677"><ele>211.0</ele><time>2026-04-20T09:52:28.961Z</time></trkpt><trkpt lat="33.295415" lon="10.296855"><ele>211.0</ele><time>2026-04-20T09:52:29.961Z</time></trkpt><trkpt lat="33.29528" lon="10.2969383"><ele>211.0</ele><time>2026-04-20T09:52:30.961Z</time></trkpt><trkpt lat="33.2951517" lon="10.2970083"><ele>211.0</ele><time>2026-04-20T09:52:31.961Z</time></trkpt><trkpt lat="33.29503" lon="10.2970733"><ele>211.0</ele><time>2026-04-20T09:52:32.961Z</time></trkpt><trkpt lat="33.2949183" lon="10.29713"><ele>210.99999999999997</ele><time>2026-04-20T09:52:33.961Z</time></trkpt><trkpt lat="33.294825" lon="10.2971733"><ele>211.0</ele><time>2026-04-20T09:52:34.961Z</time></trkpt><trkpt lat="33.2947533" lon="10.29721"><ele>211.0</ele><time>2026-04-20T09:52:35.961Z</time></trkpt><trkpt lat="33.2946917" lon="10.297245"><ele>211.0</ele><time>2026-04-20T09:52:36.961Z</time></trkpt><trkpt lat="33.2945967" lon="10.297295"><ele>210.99999999999997</ele><time>2026-04-20T09:52:38.961Z</time></trkpt><trkpt lat="33.29451" lon="10.29735"><ele>211.0</ele><time>2026-04-20T09:53:11.961Z</time></trkpt><trkpt lat="33.2944117" lon="10.2974183"><ele>211.8</ele><time>2026-04-20T09:53:13.961Z</time></trkpt><trkpt lat="33.2943483" lon="10.2974633"><ele>212.60000000000002</ele><time>2026-04-20T09:53:14.961Z</time></trkpt><trkpt lat="33.294275" lon="10.297505"><ele>213.4</ele><time>2026-04-20T09:53:15.961Z</time></trkpt><trkpt lat="33.2941883" lon="10.2975533"><ele>214.2</ele><time>2026-04-20T09:53:16.961Z</time></trkpt><trkpt lat="33.2940933" lon="10.2976067"><ele>215.0</ele><time>2026-04-20T09:53:17.961Z</time></trkpt><trkpt lat="33.2939933" lon="10.2976667"><ele>215.5</ele><time>2026-04-20T09:53:18.961Z</time></trkpt><trkpt lat="33.2938867" lon="10.2977233"><ele>216.0</ele><time>2026-04-20T09:53:19.961Z</time></trkpt><trkpt lat="33.2937717" lon="10.2977883"><ele>216.5</ele><time>2026-04-20T09:53:20.961Z</time></trkpt><trkpt lat="33.29365" lon="10.2978633"><ele>217.0</ele><time>2026-04-20T09:53:21.961Z</time></trkpt><trkpt lat="33.293525" lon="10.2979317"><ele>217.0</ele><time>2026-04-20T09:53:22.961Z</time></trkpt><trkpt lat="33.29339" lon="10.297995"><ele>217.0</ele><time>2026-04-20T09:53:23.961Z</time></trkpt><trkpt lat="33.2932567" lon="10.2980683"><ele>217.0</ele><time>2026-04-20T09:53:24.961Z</time></trkpt><trkpt lat="33.2931217" lon="10.2981467"><ele>217.0</ele><time>2026-04-20T09:53:25.961Z</time></trkpt><trkpt lat="33.2929817" lon="10.2982233"><ele>217.0</ele><time>2026-04-20T09:53:26.961Z</time></trkpt><trkpt lat="33.2928333" lon="10.2982983"><ele>217.0</ele><time>2026-04-20T09:53:27.961Z</time></trkpt><trkpt lat="33.2926783" lon="10.29839"><ele>217.0</ele><time>2026-04-20T09:53:28.961Z</time></trkpt><trkpt lat="33.292525" lon="10.298475"><ele>217.0</ele><time>2026-04-20T09:53:29.961Z</time></trkpt><trkpt lat="33.2923667" lon="10.29856"><ele>217.0</ele><time>2026-04-20T09:53:30.961Z</time></trkpt><trkpt lat="33.292205" lon="10.2986367"><ele>217.0</ele><time>2026-04-20T09:53:31.961Z</time></trkpt><trkpt lat="33.2920433" lon="10.298725"><ele>217.33333333333331</ele><time>2026-04-20T09:53:32.961Z</time></trkpt><trkpt lat="33.291885" lon="10.2988167"><ele>217.66666666666669</ele><time>2026-04-20T09:53:33.961Z</time></trkpt><trkpt lat="33.2917183" lon="10.298915"><ele>218.0</ele><time>2026-04-20T09:53:34.961Z</time></trkpt><trkpt lat="33.2915533" lon="10.299015"><ele>219.0</ele><time>2026-04-20T09:53:35.961Z</time></trkpt><trkpt lat="33.2913883" lon="10.2991167"><ele>220.0</ele><time>2026-04-20T09:53:36.961Z</time></trkpt><trkpt lat="33.29123" lon="10.2992083"><ele>221.0</ele><time>2026-04-20T09:53:37.961Z</time></trkpt><trkpt lat="33.29108" lon="10.2992833"><ele>221.0</ele><time>2026-04-20T09:53:38.961Z</time></trkpt><trkpt lat="33.2909467" lon="10.2993583"><ele>221.0</ele><time>2026-04-20T09:53:39.961Z</time></trkpt><trkpt lat="33.2908183" lon="10.29944"><ele>221.0</ele><time>2026-04-20T09:53:40.961Z</time></trkpt><trkpt lat="33.2906833" lon="10.2995133"><ele>221.0</ele><time>2026-04-20T09:53:41.961Z</time></trkpt><trkpt lat="33.2905533" lon="10.2995883"><ele>221.0</ele><time>2026-04-20T09:53:42.961Z</time></trkpt><trkpt lat="33.290425" lon="10.2996633"><ele>221.0</ele><time>2026-04-20T09:53:43.961Z</time></trkpt><trkpt lat="33.29029" lon="10.299735"><ele>221.0</ele><time>2026-04-20T09:53:44.961Z</time></trkpt><trkpt lat="33.2901583" lon="10.299805"><ele>221.0</ele><time>2026-04-20T09:53:45.961Z</time></trkpt><trkpt lat="33.29003" lon="10.29987"><ele>221.0</ele><time>2026-04-20T09:53:46.961Z</time></trkpt><trkpt lat="33.289905" lon="10.2999317"><ele>221.0</ele><time>2026-04-20T09:53:47.961Z</time></trkpt><trkpt lat="33.289785" lon="10.2999983"><ele>221.0</ele><time>2026-04-20T09:53:48.961Z</time></trkpt><trkpt lat="33.2896567" lon="10.3000567"><ele>221.0</ele><time>2026-04-20T09:53:49.961Z</time></trkpt><trkpt lat="33.2895283" lon="10.3001183"><ele>221.5</ele><time>2026-04-20T09:53:50.961Z</time></trkpt><trkpt lat="33.2894" lon="10.3001833"><ele>222.0</ele><time>2026-04-20T09:53:51.961Z</time></trkpt><trkpt lat="33.2892683" lon="10.3002483"><ele>222.5</ele><time>2026-04-20T09:53:52.961Z</time></trkpt><trkpt lat="33.2891367" lon="10.3003133"><ele>223.0</ele><time>2026-04-20T09:53:53.961Z</time></trkpt><trkpt lat="33.289015" lon="10.3003783"><ele>223.25</ele><time>2026-04-20T09:53:54.961Z</time></trkpt><trkpt lat="33.2888917" lon="10.3004417"><ele>223.5</ele><time>2026-04-20T09:53:55.961Z</time></trkpt><trkpt lat="33.28877" lon="10.3005"><ele>223.75</ele><time>2026-04-20T09:53:56.961Z</time></trkpt><trkpt lat="33.288645" lon="10.3005667"><ele>224.0</ele><time>2026-04-20T09:53:57.961Z</time></trkpt><trkpt lat="33.288515" lon="10.300635"><ele>223.5</ele><time>2026-04-20T09:53:58.961Z</time></trkpt><trkpt lat="33.2883833" lon="10.300695"><ele>223.0</ele><time>2026-04-20T09:53:59.961Z</time></trkpt><trkpt lat="33.28825" lon="10.3007717"><ele>222.5</ele><time>2026-04-20T09:54:00.961Z</time></trkpt><trkpt lat="33.2881183" lon="10.3008433"><ele>222.0</ele><time>2026-04-20T09:54:01.961Z</time></trkpt><trkpt lat="33.2879917" lon="10.3009"><ele>222.0</ele><time>2026-04-20T09:54:02.961Z</time></trkpt><trkpt lat="33.2878583" lon="10.3009783"><ele>222.0</ele><time>2026-04-20T09:54:03.961Z</time></trkpt><trkpt lat="33.2877267" lon="10.3010533"><ele>222.0</ele><time>2026-04-20T09:54:04.961Z</time></trkpt><trkpt lat="33.2876017" lon="10.30113"><ele>222.0</ele><time>2026-04-20T09:54:05.961Z</time></trkpt><trkpt lat="33.287475" lon="10.3012083"><ele>222.0</ele><time>2026-04-20T09:54:06.961Z</time></trkpt><trkpt lat="33.287345" lon="10.3012817"><ele>222.0</ele><time>2026-04-20T09:54:07.961Z</time></trkpt><trkpt lat="33.28722" lon="10.301355"><ele>222.0</ele><time>2026-04-20T09:54:08.961Z</time></trkpt><trkpt lat="33.287105" lon="10.3014317"><ele>222.0</ele><time>2026-04-20T09:54:09.961Z</time></trkpt><trkpt lat="33.2869883" lon="10.3015217"><ele>222.75</ele><time>2026-04-20T09:54:10.961Z</time></trkpt><trkpt lat="33.2868717" lon="10.30161"><ele>223.5</ele><time>2026-04-20T09:54:11.961Z</time></trkpt><trkpt lat="33.2867567" lon="10.301705"><ele>224.25</ele><time>2026-04-20T09:54:12.961Z</time></trkpt><trkpt lat="33.28664" lon="10.3017883"><ele>225.0</ele><time>2026-04-20T09:54:13.961Z</time></trkpt><trkpt lat="33.2865417" lon="10.3018733"><ele>225.0</ele><time>2026-04-20T09:54:14.961Z</time></trkpt><trkpt lat="33.2864467" lon="10.3019383"><ele>225.0</ele><time>2026-04-20T09:54:15.961Z</time></trkpt><trkpt lat="33.2863633" lon="10.3019867"><ele>225.0</ele><time>2026-04-20T09:54:16.961Z</time></trkpt><trkpt lat="33.2862917" lon="10.30203"><ele>225.0</ele><time>2026-04-20T09:54:17.961Z</time></trkpt><trkpt lat="33.2862317" lon="10.30206"><ele>225.0</ele><time>2026-04-20T09:54:18.961Z</time></trkpt><trkpt lat="33.2861417" lon="10.3020483"><ele>225.0</ele><time>2026-04-20T09:54:20.961Z</time></trkpt><trkpt lat="33.28605" lon="10.30198"><ele>225.4</ele><time>2026-04-20T09:54:22.961Z</time></trkpt><trkpt lat="33.2859967" lon="10.30193"><ele>225.8</ele><time>2026-04-20T09:54:23.961Z</time></trkpt><trkpt lat="33.285945" lon="10.301855"><ele>226.2</ele><time>2026-04-20T09:54:24.961Z</time></trkpt><trkpt lat="33.285885" lon="10.3017633"><ele>226.6</ele><time>2026-04-20T09:54:25.96Z</time></trkpt><trkpt lat="33.28582" lon="10.301665"><ele>227.0</ele><time>2026-04-20T09:54:26.96Z</time></trkpt><trkpt lat="33.28575" lon="10.30156"><ele>227.0</ele><time>2026-04-20T09:54:27.96Z</time></trkpt><trkpt lat="33.285675" lon="10.301455"><ele>227.0</ele><time>2026-04-20T09:54:28.96Z</time></trkpt><trkpt lat="33.2855967" lon="10.3013467"><ele>227.0</ele><time>2026-04-20T09:54:29.96Z</time></trkpt><trkpt lat="33.2855217" lon="10.3012317"><ele>227.0</ele><time>2026-04-20T09:54:30.96Z</time></trkpt><trkpt lat="33.285445" lon="10.30111"><ele>227.0</ele><time>2026-04-20T09:54:31.96Z</time></trkpt><trkpt lat="33.285365" lon="10.3009817"><ele>227.0</ele><time>2026-04-20T09:54:32.96Z</time></trkpt><trkpt lat="33.28528" lon="10.3008533"><ele>227.0</ele><time>2026-04-20T09:54:33.96Z</time></trkpt><trkpt lat="33.2851933" lon="10.30072"><ele>227.0</ele><time>2026-04-20T09:54:34.96Z</time></trkpt><trkpt lat="33.2851033" lon="10.3005783"><ele>227.0</ele><time>2026-04-20T09:54:35.96Z</time></trkpt><trkpt lat="33.28502" lon="10.300435"><ele>227.0</ele><time>2026-04-20T09:54:36.96Z</time></trkpt><trkpt lat="33.2849283" lon="10.300285"><ele>227.0</ele><time>2026-04-20T09:54:37.96Z</time></trkpt><trkpt lat="33.2848433" lon="10.3001217"><ele>227.66666666666669</ele><time>2026-04-20T09:54:38.96Z</time></trkpt><trkpt lat="33.28475" lon="10.2999617"><ele>228.33333333333331</ele><time>2026-04-20T09:54:39.96Z</time></trkpt><trkpt lat="33.2846667" lon="10.2997917"><ele>229.0</ele><time>2026-04-20T09:54:40.96Z</time></trkpt><trkpt lat="33.284575" lon="10.2996233"><ele>230.0</ele><time>2026-04-20T09:54:41.96Z</time></trkpt><trkpt lat="33.284485" lon="10.2994467"><ele>231.0</ele><time>2026-04-20T09:54:42.96Z</time></trkpt><trkpt lat="33.2843983" lon="10.299265"><ele>232.0</ele><time>2026-04-20T09:54:43.96Z</time></trkpt><trkpt lat="33.2843067" lon="10.299085"><ele>233.0</ele><time>2026-04-20T09:54:44.96Z</time></trkpt><trkpt lat="33.2842117" lon="10.2989"><ele>234.0</ele><time>2026-04-20T09:54:45.96Z</time></trkpt><trkpt lat="33.2841167" lon="10.298715"><ele>235.0</ele><time>2026-04-20T09:54:46.96Z</time></trkpt><trkpt lat="33.284015" lon="10.2985317"><ele>235.33333333333331</ele><time>2026-04-20T09:54:47.96Z</time></trkpt><trkpt lat="33.28391" lon="10.2983467"><ele>235.66666666666669</ele><time>2026-04-20T09:54:48.96Z</time></trkpt><trkpt lat="33.2838067" lon="10.298155"><ele>236.0</ele><time>2026-04-20T09:54:49.96Z</time></trkpt><trkpt lat="33.2837067" lon="10.2979567"><ele>236.0</ele><time>2026-04-20T09:54:50.96Z</time></trkpt><trkpt lat="33.2836083" lon="10.2977533"><ele>236.0</ele><time>2026-04-20T09:54:51.96Z</time></trkpt><trkpt lat="33.28351" lon="10.297555"><ele>236.0</ele><time>2026-04-20T09:54:52.96Z</time></trkpt><trkpt lat="33.28341" lon="10.297355"><ele>236.33333333333334</ele><time>2026-04-20T09:54:53.96Z</time></trkpt><trkpt lat="33.2833017" lon="10.2971517"><ele>236.66666666666669</ele><time>2026-04-20T09:54:54.96Z</time></trkpt><trkpt lat="33.2831983" lon="10.2969467"><ele>237.0</ele><time>2026-04-20T09:54:55.96Z</time></trkpt><trkpt lat="33.2830867" lon="10.2967383"><ele>237.0</ele><time>2026-04-20T09:54:56.96Z</time></trkpt><trkpt lat="33.2829717" lon="10.2965233"><ele>237.0</ele><time>2026-04-20T09:54:57.96Z</time></trkpt><trkpt lat="33.28286" lon="10.2963217"><ele>237.0</ele><time>2026-04-20T09:54:58.96Z</time></trkpt><trkpt lat="33.2827483" lon="10.2961167"><ele>238.0</ele><time>2026-04-20T09:54:59.96Z</time></trkpt><trkpt lat="33.2826417" lon="10.2959117"><ele>239.0</ele><time>2026-04-20T09:55:00.96Z</time></trkpt><trkpt lat="33.282535" lon="10.2957083"><ele>240.0</ele><time>2026-04-20T09:55:01.96Z</time></trkpt><trkpt lat="33.282425" lon="10.2954967"><ele>240.0</ele><time>2026-04-20T09:55:02.96Z</time></trkpt><trkpt lat="33.282315" lon="10.2952883"><ele>240.0</ele><time>2026-04-20T09:55:03.96Z</time></trkpt><trkpt lat="33.2822017" lon="10.2950767"><ele>240.0</ele><time>2026-04-20T09:55:04.96Z</time></trkpt><trkpt lat="33.2820883" lon="10.294865"><ele>241.0</ele><time>2026-04-20T09:55:05.96Z</time></trkpt><trkpt lat="33.2819817" lon="10.2946567"><ele>242.0</ele><time>2026-04-20T09:55:06.96Z</time></trkpt><trkpt lat="33.2818667" lon="10.2944483"><ele>243.0</ele><time>2026-04-20T09:55:07.96Z</time></trkpt><trkpt lat="33.281755" lon="10.2942433"><ele>243.0</ele><time>2026-04-20T09:55:08.96Z</time></trkpt><trkpt lat="33.2816367" lon="10.29404"><ele>243.0</ele><time>2026-04-20T09:55:09.96Z</time></trkpt><trkpt lat="33.28152" lon="10.293835"><ele>243.0</ele><time>2026-04-20T09:55:10.96Z</time></trkpt><trkpt lat="33.2814033" lon="10.2936233"><ele>244.0</ele><time>2026-04-20T09:55:11.96Z</time></trkpt><trkpt lat="33.2812833" lon="10.2934117"><ele>245.0</ele><time>2026-04-20T09:55:12.96Z</time></trkpt><trkpt lat="33.28116" lon="10.2932017"><ele>246.0</ele><time>2026-04-20T09:55:13.96Z</time></trkpt><trkpt lat="33.2810383" lon="10.292995"><ele>247.0</ele><time>2026-04-20T09:55:14.96Z</time></trkpt><trkpt lat="33.2809133" lon="10.29279"><ele>248.0</ele><time>2026-04-20T09:55:15.96Z</time></trkpt><trkpt lat="33.2807883" lon="10.29258"><ele>249.0</ele><time>2026-04-20T09:55:16.96Z</time></trkpt><trkpt lat="33.2806583" lon="10.29237"><ele>249.33333333333331</ele><time>2026-04-20T09:55:17.96Z</time></trkpt><trkpt lat="33.2805317" lon="10.2921567"><ele>249.66666666666666</ele><time>2026-04-20T09:55:18.96Z</time></trkpt><trkpt lat="33.2803983" lon="10.291945"><ele>250.0</ele><time>2026-04-20T09:55:19.961Z</time></trkpt><trkpt lat="33.2802633" lon="10.291735"><ele>250.0</ele><time>2026-04-20T09:55:20.96Z</time></trkpt><trkpt lat="33.2801283" lon="10.2915217"><ele>250.0</ele><time>2026-04-20T09:55:21.96Z</time></trkpt><trkpt lat="33.2799933" lon="10.2913083"><ele>250.0</ele><time>2026-04-20T09:55:22.96Z</time></trkpt><trkpt lat="33.2798633" lon="10.2910867"><ele>251.0</ele><time>2026-04-20T09:55:23.96Z</time></trkpt><trkpt lat="33.2797283" lon="10.29087"><ele>252.0</ele><time>2026-04-20T09:55:24.96Z</time></trkpt><trkpt lat="33.27959" lon="10.2906533"><ele>253.33333333333331</ele><time>2026-04-20T09:55:25.96Z</time></trkpt><trkpt lat="33.2794533" lon="10.2904367"><ele>254.66666666666666</ele><time>2026-04-20T09:55:26.96Z</time></trkpt><trkpt lat="33.2793217" lon="10.290225"><ele>256.0</ele><time>2026-04-20T09:55:27.96Z</time></trkpt><trkpt lat="33.2791917" lon="10.2900017"><ele>256.0</ele><time>2026-04-20T09:55:28.96Z</time></trkpt><trkpt lat="33.2790517" lon="10.2897917"><ele>256.0</ele><time>2026-04-20T09:55:29.96Z</time></trkpt><trkpt lat="33.2789217" lon="10.2895867"><ele>256.0</ele><time>2026-04-20T09:55:30.96Z</time></trkpt><trkpt lat="33.2788067" lon="10.2894033"><ele>257.3333333333333</ele><time>2026-04-20T09:55:31.96Z</time></trkpt><trkpt lat="33.2787017" lon="10.2892283"><ele>258.6666666666667</ele><time>2026-04-20T09:55:32.96Z</time></trkpt><trkpt lat="33.2786117" lon="10.2890567"><ele>260.0</ele><time>2026-04-20T09:55:33.96Z</time></trkpt><trkpt lat="33.2785183" lon="10.28889"><ele>262.33333333333337</ele><time>2026-04-20T09:55:34.96Z</time></trkpt><trkpt lat="33.2784233" lon="10.2887233"><ele>264.6666666666667</ele><time>2026-04-20T09:55:35.96Z</time></trkpt><trkpt lat="33.2783217" lon="10.2885483"><ele>267.0</ele><time>2026-04-20T09:55:36.96Z</time></trkpt><trkpt lat="33.27822" lon="10.2883667"><ele>267.0</ele><time>2026-04-20T09:55:37.96Z</time></trkpt><trkpt lat="33.278115" lon="10.28818"><ele>267.0</ele><time>2026-04-20T09:55:38.96Z</time></trkpt><trkpt lat="33.278" lon="10.2879833"><ele>267.0</ele><time>2026-04-20T09:55:39.96Z</time></trkpt><trkpt lat="33.2778783" lon="10.2877933"><ele>268.0</ele><time>2026-04-20T09:55:40.96Z</time></trkpt><trkpt lat="33.2777533" lon="10.287615"><ele>269.0</ele><time>2026-04-20T09:55:41.96Z</time></trkpt><trkpt lat="33.2776183" lon="10.2874467"><ele>270.0</ele><time>2026-04-20T09:55:42.96Z</time></trkpt><trkpt lat="33.27747" lon="10.2872867"><ele>270.3333333333333</ele><time>2026-04-20T09:55:43.96Z</time></trkpt><trkpt lat="33.2773133" lon="10.2871383"><ele>270.66666666666663</ele><time>2026-04-20T09:55:44.96Z</time></trkpt><trkpt lat="33.27714" lon="10.2870083"><ele>271.0</ele><time>2026-04-20T09:55:45.96Z</time></trkpt><trkpt lat="33.2769617" lon="10.2868933"><ele>271.0</ele><time>2026-04-20T09:55:46.96Z</time></trkpt><trkpt lat="33.2767717" lon="10.2867933"><ele>271.0</ele><time>2026-04-20T09:55:47.96Z</time></trkpt><trkpt lat="33.276575" lon="10.2866983"><ele>271.0</ele><time>2026-04-20T09:55:48.96Z</time></trkpt><trkpt lat="33.27638" lon="10.2866133"><ele>270.66666666666663</ele><time>2026-04-20T09:55:49.96Z</time></trkpt><trkpt lat="33.2761833" lon="10.2865233"><ele>270.3333333333333</ele><time>2026-04-20T09:55:50.96Z</time></trkpt><trkpt lat="33.27599" lon="10.2864283"><ele>270.0</ele><time>2026-04-20T09:55:51.96Z</time></trkpt><trkpt lat="33.2758033" lon="10.2863217"><ele>270.3333333333333</ele><time>2026-04-20T09:55:52.96Z</time></trkpt><trkpt lat="33.2756317" lon="10.2862"><ele>270.66666666666663</ele><time>2026-04-20T09:55:53.96Z</time></trkpt><trkpt lat="33.2754833" lon="10.286075"><ele>271.0</ele><time>2026-04-20T09:55:54.96Z</time></trkpt><trkpt lat="33.2753633" lon="10.285945"><ele>271.0</ele><time>2026-04-20T09:55:55.96Z</time></trkpt><trkpt lat="33.275285" lon="10.285795"><ele>271.0</ele><time>2026-04-20T09:55:56.96Z</time></trkpt><trkpt lat="33.2752367" lon="10.2856217"><ele>271.0</ele><time>2026-04-20T09:55:57.96Z</time></trkpt><trkpt lat="33.2751917" lon="10.2854267"><ele>273.66666666666663</ele><time>2026-04-20T09:55:58.96Z</time></trkpt><trkpt lat="33.275145" lon="10.2852317"><ele>276.3333333333333</ele><time>2026-04-20T09:55:59.96Z</time></trkpt><trkpt lat="33.27508" lon="10.2850483"><ele>279.0</ele><time>2026-04-20T09:56:00.96Z</time></trkpt><trkpt lat="33.2749983" lon="10.2848633"><ele>280.0</ele><time>2026-04-20T09:56:01.96Z</time></trkpt><trkpt lat="33.2749033" lon="10.284695"><ele>281.0</ele><time>2026-04-20T09:56:02.96Z</time></trkpt><trkpt lat="33.2747883" lon="10.2845467"><ele>282.0</ele><time>2026-04-20T09:56:03.96Z</time></trkpt><trkpt lat="33.2746617" lon="10.284405"><ele>282.0</ele><time>2026-04-20T09:56:04.96Z</time></trkpt><trkpt lat="33.274535" lon="10.2842567"><ele>282.0</ele><time>2026-04-20T09:56:05.96Z</time></trkpt><trkpt lat="33.2744017" lon="10.2841117"><ele>282.0</ele><time>2026-04-20T09:56:06.96Z</time></trkpt><trkpt lat="33.2742633" lon="10.2839617"><ele>281.3333333333333</ele><time>2026-04-20T09:56:07.961Z</time></trkpt><trkpt lat="33.27412" lon="10.283815"><ele>280.66666666666663</ele><time>2026-04-20T09:56:08.96Z</time></trkpt><trkpt lat="33.273975" lon="10.2836617"><ele>280.0</ele><time>2026-04-20T09:56:09.96Z</time></trkpt><trkpt lat="33.2738233" lon="10.2835117"><ele>280.0</ele><time>2026-04-20T09:56:10.96Z</time></trkpt><trkpt lat="33.273675" lon="10.2833567"><ele>280.0</ele><time>2026-04-20T09:56:11.96Z</time></trkpt><trkpt lat="33.273525" lon="10.2831933"><ele>280.0</ele><time>2026-04-20T09:56:12.96Z</time></trkpt><trkpt lat="33.27337" lon="10.2830317"><ele>279.66666666666663</ele><time>2026-04-20T09:56:13.96Z</time></trkpt><trkpt lat="33.27322" lon="10.282855"><ele>279.3333333333333</ele><time>2026-04-20T09:56:14.96Z</time></trkpt><trkpt lat="33.27307" lon="10.2826783"><ele>279.0</ele><time>2026-04-20T09:56:15.96Z</time></trkpt><trkpt lat="33.2729167" lon="10.2825017"><ele>279.0</ele><time>2026-04-20T09:56:16.96Z</time></trkpt><trkpt lat="33.2727517" lon="10.2823333"><ele>279.0</ele><time>2026-04-20T09:56:17.96Z</time></trkpt><trkpt lat="33.2725917" lon="10.2821667"><ele>279.0</ele><time>2026-04-20T09:56:18.96Z</time></trkpt><trkpt lat="33.27243" lon="10.2819983"><ele>280.3333333333333</ele><time>2026-04-20T09:56:19.96Z</time></trkpt><trkpt lat="33.2722567" lon="10.28184"><ele>281.66666666666663</ele><time>2026-04-20T09:56:20.96Z</time></trkpt><trkpt lat="33.2720733" lon="10.2816967"><ele>283.0</ele><time>2026-04-20T09:56:21.96Z</time></trkpt><trkpt lat="33.2718917" lon="10.2815533"><ele>284.0</ele><time>2026-04-20T09:56:22.96Z</time></trkpt><trkpt lat="33.2717067" lon="10.2814167"><ele>285.0</ele><time>2026-04-20T09:56:23.96Z</time></trkpt><trkpt lat="33.2715333" lon="10.2812733"><ele>286.0</ele><time>2026-04-20T09:56:24.96Z</time></trkpt><trkpt lat="33.2713783" lon="10.2811367"><ele>286.0</ele><time>2026-04-20T09:56:25.96Z</time></trkpt><trkpt lat="33.2712467" lon="10.2809783"><ele>286.0</ele><time>2026-04-20T09:56:26.96Z</time></trkpt><trkpt lat="33.27114" lon="10.2808117"><ele>286.0</ele><time>2026-04-20T09:56:27.96Z</time></trkpt><trkpt lat="33.27105" lon="10.280635"><ele>288.0</ele><time>2026-04-20T09:56:28.96Z</time></trkpt><trkpt lat="33.27099" lon="10.2804483"><ele>290.0</ele><time>2026-04-20T09:56:29.96Z</time></trkpt><trkpt lat="33.2709783" lon="10.2802367"><ele>292.0</ele><time>2026-04-20T09:56:30.96Z</time></trkpt><trkpt lat="33.271" lon="10.280025"><ele>292.0</ele><time>2026-04-20T09:56:31.96Z</time></trkpt><trkpt lat="33.2710333" lon="10.27982"><ele>292.0</ele><time>2026-04-20T09:56:32.96Z</time></trkpt><trkpt lat="33.2710783" lon="10.2796217"><ele>292.0</ele><time>2026-04-20T09:56:33.96Z</time></trkpt><trkpt lat="33.2711317" lon="10.27942"><ele>294.66666666666663</ele><time>2026-04-20T09:56:34.96Z</time></trkpt><trkpt lat="33.2711883" lon="10.2792267"><ele>297.3333333333333</ele><time>2026-04-20T09:56:35.96Z</time></trkpt><trkpt lat="33.2712433" lon="10.27903"><ele>300.0</ele><time>2026-04-20T09:56:36.96Z</time></trkpt><trkpt lat="33.2713117" lon="10.2788267"><ele>301.3333333333333</ele><time>2026-04-20T09:56:37.96Z</time></trkpt><trkpt lat="33.2713933" lon="10.278625"><ele>302.66666666666663</ele><time>2026-04-20T09:56:38.96Z</time></trkpt><trkpt lat="33.2714917" lon="10.2784383"><ele>304.0</ele><time>2026-04-20T09:56:39.96Z</time></trkpt><trkpt lat="33.2716017" lon="10.27826"><ele>307.66666666666663</ele><time>2026-04-20T09:56:40.96Z</time></trkpt><trkpt lat="33.271725" lon="10.27809"><ele>311.3333333333333</ele><time>2026-04-20T09:56:41.96Z</time></trkpt><trkpt lat="33.27184" lon="10.2779183"><ele>315.0</ele><time>2026-04-20T09:56:42.96Z</time></trkpt><trkpt lat="33.2719417" lon="10.2777417"><ele>315.0</ele><time>2026-04-20T09:56:43.96Z</time></trkpt><trkpt lat="33.272045" lon="10.2775733"><ele>315.0</ele><time>2026-04-20T09:56:44.96Z</time></trkpt><trkpt lat="33.2721567" lon="10.2773967"><ele>315.0</ele><time>2026-04-20T09:56:45.96Z</time></trkpt><trkpt lat="33.2722733" lon="10.2772083"><ele>316.0</ele><time>2026-04-20T09:56:46.96Z</time></trkpt><trkpt lat="33.2723867" lon="10.2770233"><ele>317.0</ele><time>2026-04-20T09:56:47.96Z</time></trkpt><trkpt lat="33.27249" lon="10.2768233"><ele>318.0</ele><time>2026-04-20T09:56:48.96Z</time></trkpt><trkpt lat="33.2726017" lon="10.2766417"><ele>318.0</ele><time>2026-04-20T09:56:49.96Z</time></trkpt><trkpt lat="33.2727133" lon="10.2764767"><ele>318.0</ele><time>2026-04-20T09:56:50.96Z</time></trkpt><trkpt lat="33.2728333" lon="10.276325"><ele>318.0</ele><time>2026-04-20T09:56:51.96Z</time></trkpt><trkpt lat="33.2729567" lon="10.2761833"><ele>320.75</ele><time>2026-04-20T09:56:52.96Z</time></trkpt><trkpt lat="33.2730883" lon="10.276065"><ele>323.5</ele><time>2026-04-20T09:56:53.96Z</time></trkpt><trkpt lat="33.27321" lon="10.2759667"><ele>326.25</ele><time>2026-04-20T09:56:54.96Z</time></trkpt><trkpt lat="33.2733067" lon="10.27587"><ele>329.0</ele><time>2026-04-20T09:56:55.96Z</time></trkpt><trkpt lat="33.273355" lon="10.2757567"><ele>329.0</ele><time>2026-04-20T09:56:56.96Z</time></trkpt><trkpt lat="33.2733817" lon="10.2756233"><ele>329.0</ele><time>2026-04-20T09:56:57.96Z</time></trkpt><trkpt lat="33.2733717" lon="10.2754767"><ele>329.0</ele><time>2026-04-20T09:56:58.96Z</time></trkpt><trkpt lat="33.2733417" lon="10.27535"><ele>329.0</ele><time>2026-04-20T09:56:59.96Z</time></trkpt><trkpt lat="33.273275" lon="10.2752467"><ele>331.4</ele><time>2026-04-20T09:57:00.96Z</time></trkpt><trkpt lat="33.2731933" lon="10.2751633"><ele>333.79999999999995</ele><time>2026-04-20T09:57:01.96Z</time></trkpt><trkpt lat="33.2730967" lon="10.275095"><ele>336.20000000000005</ele><time>2026-04-20T09:57:02.96Z</time></trkpt><trkpt lat="33.2729983" lon="10.275075"><ele>338.6</ele><time>2026-04-20T09:57:03.96Z</time></trkpt><trkpt lat="33.2728967" lon="10.2750967"><ele>341.0</ele><time>2026-04-20T09:57:04.96Z</time></trkpt><trkpt lat="33.2728117" lon="10.27517"><ele>343.20000000000005</ele><time>2026-04-20T09:57:05.96Z</time></trkpt><trkpt lat="33.2727483" lon="10.27526"><ele>345.40000000000003</ele><time>2026-04-20T09:57:06.96Z</time></trkpt><trkpt lat="33.2726917" lon="10.2753817"><ele>347.6</ele><time>2026-04-20T09:57:07.96Z</time></trkpt><trkpt lat="33.2726283" lon="10.2754867"><ele>349.8</ele><time>2026-04-20T09:57:08.96Z</time></trkpt><trkpt lat="33.272555" lon="10.2755567"><ele>352.0</ele><time>2026-04-20T09:57:09.96Z</time></trkpt><trkpt lat="33.272485" lon="10.27559"><ele>352.0</ele><time>2026-04-20T09:57:10.96Z</time></trkpt><trkpt lat="33.2724183" lon="10.2755633"><ele>352.0</ele><time>2026-04-20T09:57:11.96Z</time></trkpt><trkpt lat="33.2723717" lon="10.2754833"><ele>352.0</ele><time>2026-04-20T09:57:12.96Z</time></trkpt><trkpt lat="33.2723333" lon="10.2753767"><ele>352.0</ele><time>2026-04-20T09:57:13.96Z</time></trkpt><trkpt lat="33.2722917" lon="10.2752567"><ele>352.0</ele><time>2026-04-20T09:57:14.96Z</time></trkpt><trkpt lat="33.2722367" lon="10.2751467"><ele>352.25</ele><time>2026-04-20T09:57:15.96Z</time></trkpt><trkpt lat="33.2721533" lon="10.275075"><ele>352.5</ele><time>2026-04-20T09:57:16.96Z</time></trkpt><trkpt lat="33.2720483" lon="10.27502"><ele>352.75</ele><time>2026-04-20T09:57:17.96Z</time></trkpt><trkpt lat="33.2719317" lon="10.275005"><ele>353.0</ele><time>2026-04-20T09:57:18.96Z</time></trkpt><trkpt lat="33.2718133" lon="10.2750267"><ele>353.0</ele><time>2026-04-20T09:57:19.96Z</time></trkpt><trkpt lat="33.2717183" lon="10.2750733"><ele>353.0</ele><time>2026-04-20T09:57:20.96Z</time></trkpt><trkpt lat="33.2716367" lon="10.2751617"><ele>353.0</ele><time>2026-04-20T09:57:21.96Z</time></trkpt><trkpt lat="33.27158" lon="10.2752767"><ele>353.0</ele><time>2026-04-20T09:57:22.96Z</time></trkpt><trkpt lat="33.2715517" lon="10.2754133"><ele>353.0</ele><time>2026-04-20T09:57:23.96Z</time></trkpt><trkpt lat="33.2715233" lon="10.275545"><ele>354.2</ele><time>2026-04-20T09:57:24.96Z</time></trkpt><trkpt lat="33.2714633" lon="10.27565"><ele>355.4</ele><time>2026-04-20T09:57:25.96Z</time></trkpt><trkpt lat="33.2713983" lon="10.2757067"><ele>356.59999999999997</ele><time>2026-04-20T09:57:26.96Z</time></trkpt><trkpt lat="33.271315" lon="10.2757"><ele>357.79999999999995</ele><time>2026-04-20T09:57:27.96Z</time></trkpt><trkpt lat="33.271235" lon="10.27565"><ele>359.0</ele><time>2026-04-20T09:57:28.96Z</time></trkpt><trkpt lat="33.2711767" lon="10.2755533"><ele>359.0</ele><time>2026-04-20T09:57:29.96Z</time></trkpt><trkpt lat="33.27113" lon="10.2754267"><ele>359.0</ele><time>2026-04-20T09:57:30.96Z</time></trkpt><trkpt lat="33.2710883" lon="10.2752967"><ele>359.0</ele><time>2026-04-20T09:57:31.96Z</time></trkpt><trkpt lat="33.2710483" lon="10.2751567"><ele>359.0</ele><time>2026-04-20T09:57:32.96Z</time></trkpt><trkpt lat="33.2709933" lon="10.2750167"><ele>359.0</ele><time>2026-04-20T09:57:33.96Z</time></trkpt><trkpt lat="33.2709117" lon="10.274895"><ele>359.0</ele><time>2026-04-20T09:57:34.96Z</time></trkpt><trkpt lat="33.2708133" lon="10.2747917"><ele>359.0</ele><time>2026-04-20T09:57:35.96Z</time></trkpt><trkpt lat="33.2707017" lon="10.2747183"><ele>359.0</ele><time>2026-04-20T09:57:36.96Z</time></trkpt><trkpt lat="33.2705833" lon="10.27469"><ele>360.25</ele><time>2026-04-20T09:57:37.96Z</time></trkpt><trkpt lat="33.2704533" lon="10.27471"><ele>361.5</ele><time>2026-04-20T09:57:38.96Z</time></trkpt><trkpt lat="33.270335" lon="10.2747533"><ele>362.75</ele><time>2026-04-20T09:57:39.96Z</time></trkpt><trkpt lat="33.270225" lon="10.2748217"><ele>364.0</ele><time>2026-04-20T09:57:40.96Z</time></trkpt><trkpt lat="33.270115" lon="10.2748933"><ele>364.0</ele><time>2026-04-20T09:57:41.96Z</time></trkpt><trkpt lat="33.2700117" lon="10.2749483"><ele>364.0</ele><time>2026-04-20T09:57:42.96Z</time></trkpt><trkpt lat="33.2699" lon="10.274965"><ele>364.0</ele><time>2026-04-20T09:57:43.96Z</time></trkpt><trkpt lat="33.2698067" lon="10.2749167"><ele>364.0</ele><time>2026-04-20T09:57:44.96Z</time></trkpt><trkpt lat="33.269725" lon="10.274825"><ele>364.0</ele><time>2026-04-20T09:57:45.96Z</time></trkpt><trkpt lat="33.2696583" lon="10.2747133"><ele>370.75</ele><time>2026-04-20T09:57:46.96Z</time></trkpt><trkpt lat="33.2695917" lon="10.2745983"><ele>377.5</ele><time>2026-04-20T09:57:47.96Z</time></trkpt><trkpt lat="33.2695133" lon="10.27449"><ele>384.25</ele><time>2026-04-20T09:57:48.96Z</time></trkpt><trkpt lat="33.2694167" lon="10.2743967"><ele>391.0</ele><time>2026-04-20T09:57:49.96Z</time></trkpt><trkpt lat="33.2693033" lon="10.27432"><ele>391.0</ele><time>2026-04-20T09:57:50.96Z</time></trkpt><trkpt lat="33.2691717" lon="10.2742683"><ele>391.0</ele><time>2026-04-20T09:57:51.96Z</time></trkpt><trkpt lat="33.2690283" lon="10.2742533"><ele>391.0</ele><time>2026-04-20T09:57:52.96Z</time></trkpt><trkpt lat="33.2688783" lon="10.274225"><ele>391.0</ele><time>2026-04-20T09:57:53.96Z</time></trkpt><trkpt lat="33.26874" lon="10.2741617"><ele>390.75</ele><time>2026-04-20T09:57:54.96Z</time></trkpt><trkpt lat="33.26862" lon="10.2740683"><ele>390.5</ele><time>2026-04-20T09:57:55.96Z</time></trkpt><trkpt lat="33.2684983" lon="10.27401"><ele>390.25</ele><time>2026-04-20T09:57:56.96Z</time></trkpt><trkpt lat="33.26839" lon="10.2739817"><ele>390.0</ele><time>2026-04-20T09:57:57.96Z</time></trkpt><trkpt lat="33.26827" lon="10.2740067"><ele>390.0</ele><time>2026-04-20T09:57:58.959Z</time></trkpt><trkpt lat="33.2681667" lon="10.274065"><ele>390.0</ele><time>2026-04-20T09:57:59.959Z</time></trkpt><trkpt lat="33.2680667" lon="10.2741317"><ele>390.0</ele><time>2026-04-20T09:58:00.959Z</time></trkpt><trkpt lat="33.267965" lon="10.274165"><ele>390.0</ele><time>2026-04-20T09:58:01.959Z</time></trkpt><trkpt lat="33.26787" lon="10.2741633"><ele>390.0</ele><time>2026-04-20T09:58:02.959Z</time></trkpt><trkpt lat="33.2677767" lon="10.2741"><ele>390.75</ele><time>2026-04-20T09:58:03.959Z</time></trkpt><trkpt lat="33.2676867" lon="10.27403"><ele>391.5</ele><time>2026-04-20T09:58:04.959Z</time></trkpt><trkpt lat="33.2675817" lon="10.273965"><ele>392.25</ele><time>2026-04-20T09:58:05.959Z</time></trkpt><trkpt lat="33.267465" lon="10.273905"><ele>393.0</ele><time>2026-04-20T09:58:06.959Z</time></trkpt><trkpt lat="33.26733" lon="10.273885"><ele>394.25</ele><time>2026-04-20T09:58:07.959Z</time></trkpt><trkpt lat="33.267185" lon="10.2739133"><ele>395.5</ele><time>2026-04-20T09:58:08.959Z</time></trkpt><trkpt lat="33.2670417" lon="10.273975"><ele>396.75</ele><time>2026-04-20T09:58:09.959Z</time></trkpt><trkpt lat="33.26692" lon="10.2740367"><ele>398.0</ele><time>2026-04-20T09:58:10.959Z</time></trkpt><trkpt lat="33.2668133" lon="10.2740933"><ele>398.0</ele><time>2026-04-20T09:58:11.959Z</time></trkpt><trkpt lat="33.26671" lon="10.27409"><ele>398.0</ele><time>2026-04-20T09:58:12.959Z</time></trkpt><trkpt lat="33.26662" lon="10.27401"><ele>398.0</ele><time>2026-04-20T09:58:13.959Z</time></trkpt><trkpt lat="33.2665233" lon="10.2739383"><ele>398.0</ele><time>2026-04-20T09:58:14.959Z</time></trkpt><trkpt lat="33.2664233" lon="10.273865"><ele>398.0</ele><time>2026-04-20T09:58:15.959Z</time></trkpt><trkpt lat="33.2663167" lon="10.2737933"><ele>413.25</ele><time>2026-04-20T09:58:16.959Z</time></trkpt><trkpt lat="33.2661833" lon="10.2737633"><ele>428.5</ele><time>2026-04-20T09:58:17.959Z</time></trkpt><trkpt lat="33.2660417" lon="10.273745"><ele>443.75</ele><time>2026-04-20T09:58:18.959Z</time></trkpt><trkpt lat="33.2658933" lon="10.2737483"><ele>459.0</ele><time>2026-04-20T09:58:19.959Z</time></trkpt><trkpt lat="33.2657417" lon="10.273765"><ele>462.75</ele><time>2026-04-20T09:58:20.959Z</time></trkpt><trkpt lat="33.2656033" lon="10.2738033"><ele>466.5</ele><time>2026-04-20T09:58:21.959Z</time></trkpt><trkpt lat="33.2654833" lon="10.27388"><ele>470.25</ele><time>2026-04-20T09:58:22.959Z</time></trkpt><trkpt lat="33.2653683" lon="10.2739817"><ele>474.0</ele><time>2026-04-20T09:58:23.959Z</time></trkpt><trkpt lat="33.265255" lon="10.27408"><ele>460.75</ele><time>2026-04-20T09:58:24.959Z</time></trkpt><trkpt lat="33.2651433" lon="10.2741417"><ele>447.5</ele><time>2026-04-20T09:58:25.959Z</time></trkpt><trkpt lat="33.2650367" lon="10.274135"><ele>434.25</ele><time>2026-04-20T09:58:26.959Z</time></trkpt><trkpt lat="33.2649283" lon="10.2740883"><ele>421.0</ele><time>2026-04-20T09:58:27.959Z</time></trkpt><trkpt lat="33.2648217" lon="10.2740283"><ele>423.25</ele><time>2026-04-20T09:58:28.959Z</time></trkpt><trkpt lat="33.264705" lon="10.2739717"><ele>425.5</ele><time>2026-04-20T09:58:29.959Z</time></trkpt><trkpt lat="33.2645767" lon="10.2739633"><ele>427.75</ele><time>2026-04-20T09:58:30.96Z</time></trkpt><trkpt lat="33.2644467" lon="10.2739617"><ele>430.0</ele><time>2026-04-20T09:58:31.959Z</time></trkpt><trkpt lat="33.2643183" lon="10.27395"><ele>441.75</ele><time>2026-04-20T09:58:32.959Z</time></trkpt><trkpt lat="33.264195" lon="10.2739267"><ele>453.5</ele><time>2026-04-20T09:58:33.959Z</time></trkpt><trkpt lat="33.2640667" lon="10.273885"><ele>465.25</ele><time>2026-04-20T09:58:34.959Z</time></trkpt><trkpt lat="33.2639333" lon="10.2738483"><ele>477.0</ele><time>2026-04-20T09:58:35.959Z</time></trkpt><trkpt lat="33.2637933" lon="10.273835"><ele>479.75</ele><time>2026-04-20T09:58:36.959Z</time></trkpt><trkpt lat="33.2636517" lon="10.273835"><ele>482.5</ele><time>2026-04-20T09:58:37.959Z</time></trkpt><trkpt lat="33.263505" lon="10.2738667"><ele>485.25</ele><time>2026-04-20T09:58:38.959Z</time></trkpt><trkpt lat="33.26336" lon="10.2739367"><ele>488.0</ele><time>2026-04-20T09:58:39.959Z</time></trkpt><trkpt lat="33.2632233" lon="10.27403"><ele>487.0</ele><time>2026-04-20T09:58:40.959Z</time></trkpt><trkpt lat="33.263095" lon="10.2741433"><ele>486.0</ele><time>2026-04-20T09:58:41.959Z</time></trkpt><trkpt lat="33.262975" lon="10.274275"><ele>485.0</ele><time>2026-04-20T09:58:42.959Z</time></trkpt><trkpt lat="33.2628467" lon="10.2744033"><ele>485.0</ele><time>2026-04-20T09:58:43.959Z</time></trkpt><trkpt lat="33.2627233" lon="10.2745317"><ele>485.0</ele><time>2026-04-20T09:58:44.959Z</time></trkpt><trkpt lat="33.2626167" lon="10.27468"><ele>485.0</ele><time>2026-04-20T09:58:45.959Z</time></trkpt><trkpt lat="33.26252" lon="10.274835"><ele>484.25</ele><time>2026-04-20T09:58:46.959Z</time></trkpt><trkpt lat="33.2624267" lon="10.2749417"><ele>483.5</ele><time>2026-04-20T09:58:47.959Z</time></trkpt><trkpt lat="33.2623233" lon="10.27502"><ele>482.75</ele><time>2026-04-20T09:58:48.959Z</time></trkpt><trkpt lat="33.2622133" lon="10.2750533"><ele>482.0</ele><time>2026-04-20T09:58:49.959Z</time></trkpt><trkpt lat="33.262095" lon="10.27509"><ele>482.0</ele><time>2026-04-20T09:58:50.959Z</time></trkpt><trkpt lat="33.261975" lon="10.27515"><ele>482.0</ele><time>2026-04-20T09:58:51.959Z</time></trkpt><trkpt lat="33.2618533" lon="10.2752333"><ele>482.0</ele><time>2026-04-20T09:58:52.959Z</time></trkpt><trkpt lat="33.2617283" lon="10.27532"><ele>482.0</ele><time>2026-04-20T09:58:53.959Z</time></trkpt><trkpt lat="33.261595" lon="10.2754033"><ele>482.0</ele><time>2026-04-20T09:58:54.959Z</time></trkpt><trkpt lat="33.2614567" lon="10.27548"><ele>482.0</ele><time>2026-04-20T09:58:55.959Z</time></trkpt><trkpt lat="33.2613183" lon="10.2755433"><ele>482.0</ele><time>2026-04-20T09:58:56.959Z</time></trkpt><trkpt lat="33.2611783" lon="10.2756067"><ele>481.0</ele><time>2026-04-20T09:58:57.959Z</time></trkpt><trkpt lat="33.2610433" lon="10.2756933"><ele>480.0</ele><time>2026-04-20T09:58:58.96Z</time></trkpt><trkpt lat="33.260925" lon="10.275805"><ele>479.0</ele><time>2026-04-20T09:58:59.959Z</time></trkpt><trkpt lat="33.2608167" lon="10.2759383"><ele>479.0</ele><time>2026-04-20T09:59:00.959Z</time></trkpt><trkpt lat="33.260715" lon="10.2760767"><ele>479.0</ele><time>2026-04-20T09:59:01.959Z</time></trkpt><trkpt lat="33.2606133" lon="10.2762233"><ele>479.0</ele><time>2026-04-20T09:59:02.959Z</time></trkpt><trkpt lat="33.2605183" lon="10.2763883"><ele>483.66666666666663</ele><time>2026-04-20T09:59:03.959Z</time></trkpt><trkpt lat="33.2604167" lon="10.2765433"><ele>488.33333333333337</ele><time>2026-04-20T09:59:04.959Z</time></trkpt><trkpt lat="33.2603117" lon="10.2766917"><ele>493.0</ele><time>2026-04-20T09:59:05.959Z</time></trkpt><trkpt lat="33.2601883" lon="10.2768283"><ele>493.0</ele><time>2026-04-20T09:59:06.959Z</time></trkpt><trkpt lat="33.26006" lon="10.27694"><ele>493.0</ele><time>2026-04-20T09:59:07.959Z</time></trkpt><trkpt lat="33.2599117" lon="10.2770083"><ele>493.0</ele><time>2026-04-20T09:59:08.959Z</time></trkpt><trkpt lat="33.2597583" lon="10.277045"><ele>496.6666666666667</ele><time>2026-04-20T09:59:09.959Z</time></trkpt><trkpt lat="33.259605" lon="10.277075"><ele>500.33333333333337</ele><time>2026-04-20T09:59:10.959Z</time></trkpt><trkpt lat="33.2594533" lon="10.2770967"><ele>504.0</ele><time>2026-04-20T09:59:11.959Z</time></trkpt><trkpt lat="33.2593" lon="10.277115"><ele>504.0</ele><time>2026-04-20T09:59:12.959Z</time></trkpt><trkpt lat="33.2591483" lon="10.277145"><ele>504.0</ele><time>2026-04-20T09:59:13.959Z</time></trkpt><trkpt lat="33.2590133" lon="10.2771817"><ele>504.0</ele><time>2026-04-20T09:59:14.959Z</time></trkpt><trkpt lat="33.2588983" lon="10.2772467"><ele>504.0</ele><time>2026-04-20T09:59:15.959Z</time></trkpt><trkpt lat="33.2588133" lon="10.277335"><ele>504.4</ele><time>2026-04-20T09:59:16.959Z</time></trkpt><trkpt lat="33.2587633" lon="10.27744"><ele>504.79999999999995</ele><time>2026-04-20T09:59:17.959Z</time></trkpt><trkpt lat="33.258745" lon="10.2775517"><ele>505.20000000000005</ele><time>2026-04-20T09:59:18.959Z</time></trkpt><trkpt lat="33.2587533" lon="10.2776683"><ele>505.6</ele><time>2026-04-20T09:59:19.959Z</time></trkpt><trkpt lat="33.258785" lon="10.27778"><ele>506.0</ele><time>2026-04-20T09:59:20.959Z</time></trkpt><trkpt lat="33.2588033" lon="10.2778917"><ele>505.99999999999994</ele><time>2026-04-20T09:59:21.959Z</time></trkpt><trkpt lat="33.2587967" lon="10.2780067"><ele>506.0</ele><time>2026-04-20T09:59:22.959Z</time></trkpt><trkpt lat="33.25877" lon="10.278115"><ele>506.0</ele><time>2026-04-20T09:59:23.959Z</time></trkpt><trkpt lat="33.258725" lon="10.2781983"><ele>506.0</ele><time>2026-04-20T09:59:24.959Z</time></trkpt><trkpt lat="33.2586633" lon="10.2782483"><ele>505.99999999999994</ele><time>2026-04-20T09:59:25.959Z</time></trkpt><trkpt lat="33.2585883" lon="10.2782683"><ele>506.0</ele><time>2026-04-20T09:59:26.959Z</time></trkpt><trkpt lat="33.2585167" lon="10.27826"><ele>505.99999999999994</ele><time>2026-04-20T09:59:27.959Z</time></trkpt><trkpt lat="33.258455" lon="10.2782333"><ele>506.0</ele><time>2026-04-20T09:59:28.959Z</time></trkpt><trkpt lat="33.2583783" lon="10.27816"><ele>506.0</ele><time>2026-04-20T09:59:30.959Z</time></trkpt><trkpt lat="33.2583467" lon="10.2780367"><ele>506.0</ele><time>2026-04-20T09:59:32.959Z</time></trkpt><trkpt lat="33.2583533" lon="10.2779617"><ele>505.99999999999994</ele><time>2026-04-20T09:59:33.959Z</time></trkpt><trkpt lat="33.2583717" lon="10.2778817"><ele>506.0</ele><time>2026-04-20T09:59:34.959Z</time></trkpt><trkpt lat="33.2583933" lon="10.2778017"><ele>505.99999999999994</ele><time>2026-04-20T09:59:35.959Z</time></trkpt><trkpt lat="33.2584133" lon="10.2777217"><ele>506.0</ele><time>2026-04-20T09:59:36.959Z</time></trkpt><trkpt lat="33.2584383" lon="10.2776433"><ele>506.0</ele><time>2026-04-20T09:59:37.959Z</time></trkpt><trkpt lat="33.2584633" lon="10.2775717"><ele>506.0</ele><time>2026-04-20T09:59:38.959Z</time></trkpt><trkpt lat="33.2585233" lon="10.277465"><ele>505.99999999999994</ele><time>2026-04-20T09:59:40.959Z</time></trkpt><trkpt lat="33.2585717" lon="10.27738"><ele>506.0</ele><time>2026-04-20T09:59:42.959Z</time></trkpt><trkpt lat="33.258605" lon="10.277305"><ele>506.66666666666663</ele><time>2026-04-20T09:59:44.959Z</time></trkpt><trkpt lat="33.2586417" lon="10.2772267"><ele>507.3333333333333</ele><time>2026-04-20T09:59:46.959Z</time></trkpt><trkpt lat="33.258685" lon="10.2771567"><ele>508.0</ele><time>2026-04-20T09:59:48.959Z</time></trkpt><trkpt lat="33.258735" lon="10.2770767"><ele>508.66666666666663</ele><time>2026-04-20T09:59:50.959Z</time></trkpt><trkpt lat="33.2588017" lon="10.276975"><ele>509.3333333333333</ele><time>2026-04-20T09:59:52.959Z</time></trkpt><trkpt lat="33.2588433" lon="10.2769183"><ele>510.0</ele><time>2026-04-20T09:59:53.959Z</time></trkpt><trkpt lat="33.2588817" lon="10.2768567"><ele>510.0</ele><time>2026-04-20T09:59:54.959Z</time></trkpt><trkpt lat="33.2589167" lon="10.276785"><ele>510.00000000000006</ele><time>2026-04-20T09:59:55.959Z</time></trkpt><trkpt lat="33.2589533" lon="10.2767067"><ele>510.0</ele><time>2026-04-20T09:59:56.959Z</time></trkpt><trkpt lat="33.2589917" lon="10.2766283"><ele>510.0</ele><time>2026-04-20T09:59:57.959Z</time></trkpt><trkpt lat="33.2590317" lon="10.276555"><ele>510.00000000000006</ele><time>2026-04-20T09:59:58.959Z</time></trkpt><trkpt lat="33.2590633" lon="10.2764867"><ele>510.0</ele><time>2026-04-20T09:59:59.959Z</time></trkpt><trkpt lat="33.2590933" lon="10.2764183"><ele>510.0</ele><time>2026-04-20T10:00:00.959Z</time></trkpt><trkpt lat="33.2591517" lon="10.2763083"><ele>509.0</ele><time>2026-04-20T10:00:02.959Z</time></trkpt><trkpt lat="33.2592133" lon="10.27625"><ele>508.0</ele><time>2026-04-20T10:00:04.959Z</time></trkpt><trkpt lat="33.259295" lon="10.2762217"><ele>507.0</ele><time>2026-04-20T10:00:06.959Z</time></trkpt><trkpt lat="33.2593883" lon="10.276205"><ele>506.0</ele><time>2026-04-20T10:00:08.959Z</time></trkpt><trkpt lat="33.2594983" lon="10.276215"><ele>505.0</ele><time>2026-04-20T10:00:10.959Z</time></trkpt><trkpt lat="33.2596133" lon="10.2762367"><ele>505.00000000000006</ele><time>2026-04-20T10:00:12.959Z</time></trkpt><trkpt lat="33.25971" lon="10.2762733"><ele>505.0</ele><time>2026-04-20T10:00:14.959Z</time></trkpt><trkpt lat="33.2597917" lon="10.2763117"><ele>505.0</ele><time>2026-04-20T10:00:16.959Z</time></trkpt><trkpt lat="33.2598583" lon="10.276365"><ele>505.0</ele><time>2026-04-20T10:00:19.959Z</time></trkpt><trkpt lat="33.259935" lon="10.27637"><ele>505.00000000000006</ele><time>2026-04-20T10:06:29.957Z</time></trkpt><trkpt lat="33.26" lon="10.2763367"><ele>505.0</ele><time>2026-04-20T10:06:32.957Z</time></trkpt><trkpt lat="33.26006" lon="10.276255"><ele>504.6666666666667</ele><time>2026-04-20T10:06:35.957Z</time></trkpt><trkpt lat="33.2600917" lon="10.2761767"><ele>504.33333333333337</ele><time>2026-04-20T10:06:37.957Z</time></trkpt><trkpt lat="33.26012" lon="10.2761017"><ele>504.0</ele><time>2026-04-20T10:06:39.957Z</time></trkpt><trkpt lat="33.2601667" lon="10.2760133"><ele>503.66666666666663</ele><time>2026-04-20T10:06:42.957Z</time></trkpt><trkpt lat="33.2602417" lon="10.2759833"><ele>503.3333333333333</ele><time>2026-04-20T10:06:45.957Z</time></trkpt><trkpt lat="33.2603233" lon="10.27601"><ele>503.0</ele><time>2026-04-20T10:06:48.957Z</time></trkpt><trkpt lat="33.26028" lon="10.2759283"><ele>503.0</ele><time>2026-04-20T10:20:37.952Z</time></trkpt><trkpt lat="33.2601983" lon="10.2758933"><ele>502.99999999999994</ele><time>2026-04-20T10:20:39.952Z</time></trkpt><trkpt lat="33.2601183" lon="10.2758767"><ele>502.99999999999994</ele><time>2026-04-20T10:20:41.952Z</time></trkpt><trkpt lat="33.2600367" lon="10.2758817"><ele>503.0</ele><time>2026-04-20T10:20:43.952Z</time></trkpt><trkpt lat="33.2599417" lon="10.2759117"><ele>503.0</ele><time>2026-04-20T10:20:45.952Z</time></trkpt><trkpt lat="33.2598417" lon="10.2759417"><ele>503.3333333333333</ele><time>2026-04-20T10:20:47.952Z</time></trkpt><trkpt lat="33.25976" lon="10.2759817"><ele>503.66666666666663</ele><time>2026-04-20T10:20:49.952Z</time></trkpt><trkpt lat="33.2596833" lon="10.276"><ele>504.0</ele><time>2026-04-20T10:20:51.952Z</time></trkpt><trkpt lat="33.259605" lon="10.275995"><ele>504.33333333333337</ele><time>2026-04-20T10:20:53.952Z</time></trkpt><trkpt lat="33.25952" lon="10.2759567"><ele>504.6666666666667</ele><time>2026-04-20T10:20:55.952Z</time></trkpt><trkpt lat="33.2594433" lon="10.2758733"><ele>505.0</ele><time>2026-04-20T10:20:57.952Z</time></trkpt><trkpt lat="33.2593667" lon="10.2757533"><ele>505.00000000000006</ele><time>2026-04-20T10:20:59.952Z</time></trkpt><trkpt lat="33.2593217" lon="10.2756817"><ele>505.0</ele><time>2026-04-20T10:21:00.952Z</time></trkpt><trkpt lat="33.2592833" lon="10.2756017"><ele>505.0</ele><time>2026-04-20T10:21:01.952Z</time></trkpt><trkpt lat="33.25924" lon="10.2755133"><ele>505.0</ele><time>2026-04-20T10:21:02.952Z</time></trkpt><trkpt lat="33.2592083" lon="10.27541"><ele>505.00000000000006</ele><time>2026-04-20T10:21:03.952Z</time></trkpt><trkpt lat="33.2591817" lon="10.2752967"><ele>505.0</ele><time>2026-04-20T10:21:04.952Z</time></trkpt><trkpt lat="33.25915" lon="10.275185"><ele>505.75</ele><time>2026-04-20T10:21:05.952Z</time></trkpt><trkpt lat="33.2590967" lon="10.275075"><ele>506.5</ele><time>2026-04-20T10:21:06.952Z</time></trkpt><trkpt lat="33.259035" lon="10.2749667"><ele>507.25</ele><time>2026-04-20T10:21:07.952Z</time></trkpt><trkpt lat="33.258955" lon="10.2748617"><ele>508.0</ele><time>2026-04-20T10:21:08.952Z</time></trkpt><trkpt lat="33.2588683" lon="10.2747683"><ele>508.0</ele><time>2026-04-20T10:21:09.952Z</time></trkpt><trkpt lat="33.2587717" lon="10.2746833"><ele>508.0</ele><time>2026-04-20T10:21:10.952Z</time></trkpt><trkpt lat="33.2586717" lon="10.2746033"><ele>508.0</ele><time>2026-04-20T10:21:11.952Z</time></trkpt><trkpt lat="33.2585633" lon="10.2745233"><ele>508.0</ele><time>2026-04-20T10:21:12.952Z</time></trkpt><trkpt lat="33.25845" lon="10.274445"><ele>508.0</ele><time>2026-04-20T10:21:13.952Z</time></trkpt><trkpt lat="33.2583267" lon="10.27436"><ele>508.0</ele><time>2026-04-20T10:21:14.952Z</time></trkpt><trkpt lat="33.2582067" lon="10.2742733"><ele>508.0</ele><time>2026-04-20T10:21:15.952Z</time></trkpt><trkpt lat="33.258085" lon="10.2741817"><ele>508.0</ele><time>2026-04-20T10:21:16.952Z</time></trkpt><trkpt lat="33.2579583" lon="10.2740917"><ele>508.5</ele><time>2026-04-20T10:21:17.952Z</time></trkpt><trkpt lat="33.257835" lon="10.274"><ele>509.0</ele><time>2026-04-20T10:21:18.952Z</time></trkpt><trkpt lat="33.2577083" lon="10.2739083"><ele>509.5</ele><time>2026-04-20T10:21:19.952Z</time></trkpt><trkpt lat="33.2575767" lon="10.273815"><ele>510.0</ele><time>2026-04-20T10:21:20.952Z</time></trkpt><trkpt lat="33.2574567" lon="10.27371"><ele>510.0</ele><time>2026-04-20T10:21:21.952Z</time></trkpt><trkpt lat="33.2573483" lon="10.27359"><ele>510.0</ele><time>2026-04-20T10:21:22.952Z</time></trkpt><trkpt lat="33.25725" lon="10.27345"><ele>510.0</ele><time>2026-04-20T10:21:23.952Z</time></trkpt><trkpt lat="33.2571683" lon="10.2732933"><ele>509.33333333333337</ele><time>2026-04-20T10:21:24.952Z</time></trkpt><trkpt lat="33.2571033" lon="10.2731167"><ele>508.6666666666667</ele><time>2026-04-20T10:21:25.952Z</time></trkpt><trkpt lat="33.25706" lon="10.27294"><ele>508.0</ele><time>2026-04-20T10:21:26.952Z</time></trkpt><trkpt lat="33.2570217" lon="10.2727483"><ele>508.0</ele><time>2026-04-20T10:21:27.952Z</time></trkpt><trkpt lat="33.2569783" lon="10.2725533"><ele>508.0</ele><time>2026-04-20T10:21:28.952Z</time></trkpt><trkpt lat="33.256925" lon="10.2723617"><ele>508.0</ele><time>2026-04-20T10:21:29.952Z</time></trkpt><trkpt lat="33.2568583" lon="10.2721717"><ele>508.0</ele><time>2026-04-20T10:21:30.952Z</time></trkpt><trkpt lat="33.256785" lon="10.2719817"><ele>508.0</ele><time>2026-04-20T10:21:31.952Z</time></trkpt><trkpt lat="33.2567083" lon="10.2717867"><ele>508.0</ele><time>2026-04-20T10:21:32.952Z</time></trkpt><trkpt lat="33.2566233" lon="10.2715883"><ele>507.6666666666667</ele><time>2026-04-20T10:21:33.952Z</time></trkpt><trkpt lat="33.2565383" lon="10.2713817"><ele>507.33333333333337</ele><time>2026-04-20T10:21:34.952Z</time></trkpt><trkpt lat="33.2564483" lon="10.2711767"><ele>507.0</ele><time>2026-04-20T10:21:35.952Z</time></trkpt><trkpt lat="33.2563533" lon="10.2709667"><ele>507.0</ele><time>2026-04-20T10:21:36.952Z</time></trkpt><trkpt lat="33.2562583" lon="10.2707567"><ele>507.0</ele><time>2026-04-20T10:21:37.952Z</time></trkpt><trkpt lat="33.2561633" lon="10.270545"><ele>507.0</ele><time>2026-04-20T10:21:38.952Z</time></trkpt><trkpt lat="33.2560633" lon="10.2703333"><ele>507.0</ele><time>2026-04-20T10:21:39.952Z</time></trkpt><trkpt lat="33.2559633" lon="10.27013"><ele>507.0</ele><time>2026-04-20T10:21:40.952Z</time></trkpt><trkpt lat="33.2558667" lon="10.26992"><ele>507.0</ele><time>2026-04-20T10:21:41.952Z</time></trkpt><trkpt lat="33.2557717" lon="10.26971"><ele>508.0</ele><time>2026-04-20T10:21:42.952Z</time></trkpt><trkpt lat="33.2556783" lon="10.269495"><ele>509.0</ele><time>2026-04-20T10:21:43.952Z</time></trkpt><trkpt lat="33.2555883" lon="10.26927"><ele>510.0</ele><time>2026-04-20T10:21:44.952Z</time></trkpt><trkpt lat="33.2554967" lon="10.2690533"><ele>511.33333333333337</ele><time>2026-04-20T10:21:45.952Z</time></trkpt><trkpt lat="33.2554083" lon="10.2688417"><ele>512.6666666666667</ele><time>2026-04-20T10:21:46.952Z</time></trkpt><trkpt lat="33.2553233" lon="10.2686433"><ele>514.0</ele><time>2026-04-20T10:21:47.952Z</time></trkpt><trkpt lat="33.2552367" lon="10.268455"><ele>514.0</ele><time>2026-04-20T10:21:48.952Z</time></trkpt><trkpt lat="33.2551567" lon="10.2682733"><ele>514.0</ele><time>2026-04-20T10:21:49.952Z</time></trkpt><trkpt lat="33.2550117" lon="10.267895"><ele>514.3333333333334</ele><time>2026-04-20T10:21:51.952Z</time></trkpt><trkpt lat="33.2549567" lon="10.26769"><ele>514.6666666666666</ele><time>2026-04-20T10:21:52.952Z</time></trkpt><trkpt lat="33.25492" lon="10.267475"><ele>515.0</ele><time>2026-04-20T10:21:53.952Z</time></trkpt><trkpt lat="33.25489" lon="10.26725"><ele>515.0</ele><time>2026-04-20T10:21:54.952Z</time></trkpt><trkpt lat="33.25488" lon="10.2670183"><ele>515.0</ele><time>2026-04-20T10:21:55.952Z</time></trkpt><trkpt lat="33.254875" lon="10.2667883"><ele>515.0</ele><time>2026-04-20T10:21:56.952Z</time></trkpt><trkpt lat="33.25488" lon="10.26656"><ele>515.0</ele><time>2026-04-20T10:21:57.952Z</time></trkpt><trkpt lat="33.2548933" lon="10.2663333"><ele>515.0</ele><time>2026-04-20T10:21:58.952Z</time></trkpt><trkpt lat="33.2549" lon="10.26611"><ele>515.0</ele><time>2026-04-20T10:21:59.952Z</time></trkpt><trkpt lat="33.2549017" lon="10.26588"><ele>515.0</ele><time>2026-04-20T10:22:00.952Z</time></trkpt><trkpt lat="33.2548867" lon="10.2656483"><ele>515.0</ele><time>2026-04-20T10:22:01.952Z</time></trkpt><trkpt lat="33.2548617" lon="10.26543"><ele>515.0</ele><time>2026-04-20T10:22:02.952Z</time></trkpt><trkpt lat="33.2548217" lon="10.2652133"><ele>515.3333333333333</ele><time>2026-04-20T10:22:03.952Z</time></trkpt><trkpt lat="33.2547733" lon="10.264985"><ele>515.6666666666666</ele><time>2026-04-20T10:22:04.952Z</time></trkpt><trkpt lat="33.254725" lon="10.26477"><ele>516.0</ele><time>2026-04-20T10:22:05.952Z</time></trkpt><trkpt lat="33.2546733" lon="10.2645567"><ele>518.0</ele><time>2026-04-20T10:22:06.952Z</time></trkpt><trkpt lat="33.2546267" lon="10.2643517"><ele>520.0</ele><time>2026-04-20T10:22:07.952Z</time></trkpt><trkpt lat="33.25459" lon="10.2641433"><ele>522.0</ele><time>2026-04-20T10:22:08.952Z</time></trkpt><trkpt lat="33.254545" lon="10.2639433"><ele>522.0</ele><time>2026-04-20T10:22:09.952Z</time></trkpt><trkpt lat="33.2545117" lon="10.2637367"><ele>522.0</ele><time>2026-04-20T10:22:10.952Z</time></trkpt><trkpt lat="33.2544833" lon="10.2635283"><ele>522.0</ele><time>2026-04-20T10:22:11.952Z</time></trkpt><trkpt lat="33.2544583" lon="10.2633167"><ele>522.6666666666666</ele><time>2026-04-20T10:22:12.952Z</time></trkpt><trkpt lat="33.2544483" lon="10.26311"><ele>523.3333333333333</ele><time>2026-04-20T10:22:13.952Z</time></trkpt><trkpt lat="33.254435" lon="10.2628967"><ele>524.0</ele><time>2026-04-20T10:22:14.952Z</time></trkpt><trkpt lat="33.2544233" lon="10.2627067"><ele>524.0</ele><time>2026-04-20T10:22:15.952Z</time></trkpt><trkpt lat="33.254405" lon="10.2625267"><ele>524.0</ele><time>2026-04-20T10:22:16.952Z</time></trkpt><trkpt lat="33.2543717" lon="10.2623483"><ele>524.0</ele><time>2026-04-20T10:22:17.952Z</time></trkpt><trkpt lat="33.2543133" lon="10.26217"><ele>522.6666666666666</ele><time>2026-04-20T10:22:18.952Z</time></trkpt><trkpt lat="33.2542333" lon="10.262015"><ele>521.3333333333334</ele><time>2026-04-20T10:22:19.952Z</time></trkpt><trkpt lat="33.2541317" lon="10.2618733"><ele>520.0</ele><time>2026-04-20T10:22:20.952Z</time></trkpt><trkpt lat="33.25403" lon="10.2617367"><ele>521.3333333333334</ele><time>2026-04-20T10:22:21.952Z</time></trkpt><trkpt lat="33.2539267" lon="10.2615967"><ele>522.6666666666666</ele><time>2026-04-20T10:22:22.952Z</time></trkpt><trkpt lat="33.2538467" lon="10.2614383"><ele>524.0</ele><time>2026-04-20T10:22:23.952Z</time></trkpt><trkpt lat="33.2537917" lon="10.26128"><ele>524.0</ele><time>2026-04-20T10:22:24.952Z</time></trkpt><trkpt lat="33.253775" lon="10.2611167"><ele>524.0</ele><time>2026-04-20T10:22:25.952Z</time></trkpt><trkpt lat="33.2537667" lon="10.2609633"><ele>524.0</ele><time>2026-04-20T10:22:26.952Z</time></trkpt><trkpt lat="33.253755" lon="10.26081"><ele>524.0</ele><time>2026-04-20T10:22:27.952Z</time></trkpt><trkpt lat="33.2537467" lon="10.2606633"><ele>524.0</ele><time>2026-04-20T10:22:28.952Z</time></trkpt><trkpt lat="33.25374" lon="10.2605133"><ele>524.0</ele><time>2026-04-20T10:22:29.952Z</time></trkpt><trkpt lat="33.2537367" lon="10.260365"><ele>524.0</ele><time>2026-04-20T10:22:30.952Z</time></trkpt><trkpt lat="33.2537383" lon="10.2602133"><ele>524.0</ele><time>2026-04-20T10:22:31.952Z</time></trkpt><trkpt lat="33.253745" lon="10.2600583"><ele>524.0</ele><time>2026-04-20T10:22:32.952Z</time></trkpt><trkpt lat="33.2537567" lon="10.2598933"><ele>524.0</ele><time>2026-04-20T10:22:33.952Z</time></trkpt><trkpt lat="33.2537817" lon="10.25972"><ele>524.0</ele><time>2026-04-20T10:22:34.952Z</time></trkpt><trkpt lat="33.253805" lon="10.2595517"><ele>524.0</ele><time>2026-04-20T10:22:35.952Z</time></trkpt><trkpt lat="33.2538383" lon="10.2593867"><ele>522.75</ele><time>2026-04-20T10:22:36.952Z</time></trkpt><trkpt lat="33.25388" lon="10.25922"><ele>521.5</ele><time>2026-04-20T10:22:37.952Z</time></trkpt><trkpt lat="33.2539267" lon="10.2590483"><ele>520.25</ele><time>2026-04-20T10:22:38.952Z</time></trkpt><trkpt lat="33.2539767" lon="10.25888"><ele>519.0</ele><time>2026-04-20T10:22:39.952Z</time></trkpt><trkpt lat="33.25403" lon="10.2587133"><ele>519.0</ele><time>2026-04-20T10:22:40.952Z</time></trkpt><trkpt lat="33.2540883" lon="10.258545"><ele>519.0</ele><time>2026-04-20T10:22:41.952Z</time></trkpt><trkpt lat="33.2541467" lon="10.2583733"><ele>519.0</ele><time>2026-04-20T10:22:42.952Z</time></trkpt><trkpt lat="33.2542133" lon="10.2582017"><ele>518.0</ele><time>2026-04-20T10:22:43.952Z</time></trkpt><trkpt lat="33.2542717" lon="10.2580283"><ele>517.0</ele><time>2026-04-20T10:22:44.952Z</time></trkpt><trkpt lat="33.254335" lon="10.2578483"><ele>516.0</ele><time>2026-04-20T10:22:45.952Z</time></trkpt><trkpt lat="33.2543833" lon="10.257665"><ele>516.0</ele><time>2026-04-20T10:22:46.952Z</time></trkpt><trkpt lat="33.2544467" lon="10.25749"><ele>516.0</ele><time>2026-04-20T10:22:47.952Z</time></trkpt><trkpt lat="33.2545067" lon="10.2573017"><ele>516.0</ele><time>2026-04-20T10:22:48.952Z</time></trkpt><trkpt lat="33.2545433" lon="10.2571"><ele>513.6666666666666</ele><time>2026-04-20T10:22:49.952Z</time></trkpt><trkpt lat="33.2545617" lon="10.2568967"><ele>511.3333333333333</ele><time>2026-04-20T10:22:50.952Z</time></trkpt><trkpt lat="33.2545683" lon="10.256695"><ele>509.0</ele><time>2026-04-20T10:22:51.952Z</time></trkpt><trkpt lat="33.25456" lon="10.2564917"><ele>508.3333333333333</ele><time>2026-04-20T10:22:52.952Z</time></trkpt><trkpt lat="33.2545467" lon="10.256295"><ele>507.66666666666663</ele><time>2026-04-20T10:22:53.952Z</time></trkpt><trkpt lat="33.2545233" lon="10.2561067"><ele>507.0</ele><time>2026-04-20T10:22:54.952Z</time></trkpt><trkpt lat="33.2545017" lon="10.2559267"><ele>507.0</ele><time>2026-04-20T10:22:55.952Z</time></trkpt><trkpt lat="33.2544767" lon="10.255765"><ele>507.0</ele><time>2026-04-20T10:22:56.951Z</time></trkpt><trkpt lat="33.2544583" lon="10.2556217"><ele>507.0</ele><time>2026-04-20T10:22:57.951Z</time></trkpt><trkpt lat="33.2544367" lon="10.2554917"><ele>507.0</ele><time>2026-04-20T10:22:58.951Z</time></trkpt><trkpt lat="33.2544217" lon="10.2553717"><ele>506.40000000000003</ele><time>2026-04-20T10:22:59.951Z</time></trkpt><trkpt lat="33.2544083" lon="10.25526"><ele>505.80000000000007</ele><time>2026-04-20T10:23:00.951Z</time></trkpt><trkpt lat="33.2543967" lon="10.2551533"><ele>505.2</ele><time>2026-04-20T10:23:01.951Z</time></trkpt><trkpt lat="33.2543867" lon="10.2550433"><ele>504.6</ele><time>2026-04-20T10:23:02.951Z</time></trkpt><trkpt lat="33.2543667" lon="10.254925"><ele>504.0</ele><time>2026-04-20T10:23:03.951Z</time></trkpt><trkpt lat="33.2543533" lon="10.2548017"><ele>504.1666666666667</ele><time>2026-04-20T10:23:04.951Z</time></trkpt><trkpt lat="33.25434" lon="10.2546883"><ele>504.33333333333337</ele><time>2026-04-20T10:23:05.951Z</time></trkpt><trkpt lat="33.254325" lon="10.2545817"><ele>504.5</ele><time>2026-04-20T10:23:06.951Z</time></trkpt><trkpt lat="33.254315" lon="10.2544833"><ele>504.6666666666667</ele><time>2026-04-20T10:23:07.951Z</time></trkpt><trkpt lat="33.254305" lon="10.2543867"><ele>504.83333333333337</ele><time>2026-04-20T10:23:08.951Z</time></trkpt><trkpt lat="33.254295" lon="10.2542967"><ele>505.0</ele><time>2026-04-20T10:23:09.951Z</time></trkpt><trkpt lat="33.2542817" lon="10.2542"><ele>505.00000000000006</ele><time>2026-04-20T10:23:10.951Z</time></trkpt><trkpt lat="33.25426" lon="10.2541067"><ele>505.0</ele><time>2026-04-20T10:23:11.951Z</time></trkpt><trkpt lat="33.25424" lon="10.25401"><ele>505.0</ele><time>2026-04-20T10:23:12.951Z</time></trkpt><trkpt lat="33.2542183" lon="10.2539183"><ele>505.0</ele><time>2026-04-20T10:23:13.951Z</time></trkpt><trkpt lat="33.2541967" lon="10.253845"><ele>505.00000000000006</ele><time>2026-04-20T10:23:14.951Z</time></trkpt><trkpt lat="33.25414" lon="10.2537517"><ele>505.0</ele><time>2026-04-20T10:23:16.951Z</time></trkpt><trkpt lat="33.2540733" lon="10.25377"><ele>504.8</ele><time>2026-04-20T10:23:18.951Z</time></trkpt><trkpt lat="33.2540083" lon="10.2538417"><ele>504.6</ele><time>2026-04-20T10:23:20.951Z</time></trkpt><trkpt lat="33.2539567" lon="10.2539433"><ele>504.4</ele><time>2026-04-20T10:23:22.951Z</time></trkpt><trkpt lat="33.2539133" lon="10.2540833"><ele>504.2</ele><time>2026-04-20T10:23:24.951Z</time></trkpt><trkpt lat="33.2538967" lon="10.254175"><ele>504.0</ele><time>2026-04-20T10:23:25.951Z</time></trkpt><trkpt lat="33.25388" lon="10.2542717"><ele>502.6</ele><time>2026-04-20T10:23:26.951Z</time></trkpt><trkpt lat="33.2538683" lon="10.2543867"><ele>501.2</ele><time>2026-04-20T10:23:27.951Z</time></trkpt><trkpt lat="33.2538517" lon="10.2545083"><ele>499.80000000000007</ele><time>2026-04-20T10:23:28.951Z</time></trkpt><trkpt lat="33.2538383" lon="10.2546367"><ele>498.40000000000003</ele><time>2026-04-20T10:23:29.951Z</time></trkpt><trkpt lat="33.253815" lon="10.2547633"><ele>497.0</ele><time>2026-04-20T10:23:30.951Z</time></trkpt><trkpt lat="33.253775" lon="10.2548933"><ele>496.75</ele><time>2026-04-20T10:23:31.951Z</time></trkpt><trkpt lat="33.2537217" lon="10.255015"><ele>496.5</ele><time>2026-04-20T10:23:32.951Z</time></trkpt><trkpt lat="33.253645" lon="10.255125"><ele>496.25</ele><time>2026-04-20T10:23:33.951Z</time></trkpt><trkpt lat="33.2535433" lon="10.2552133"><ele>496.0</ele><time>2026-04-20T10:23:34.951Z</time></trkpt><trkpt lat="33.2534333" lon="10.2552983"><ele>496.0</ele><time>2026-04-20T10:23:35.951Z</time></trkpt><trkpt lat="33.2533167" lon="10.2553717"><ele>496.0</ele><time>2026-04-20T10:23:36.951Z</time></trkpt><trkpt lat="33.25321" lon="10.2554617"><ele>496.0</ele><time>2026-04-20T10:23:37.951Z</time></trkpt><trkpt lat="33.2531233" lon="10.2555583"><ele>496.0</ele><time>2026-04-20T10:23:38.951Z</time></trkpt><trkpt lat="33.25306" lon="10.2556617"><ele>495.20000000000005</ele><time>2026-04-20T10:23:39.951Z</time></trkpt><trkpt lat="33.25302" lon="10.255775"><ele>494.40000000000003</ele><time>2026-04-20T10:23:40.951Z</time></trkpt><trkpt lat="33.2529867" lon="10.2558983"><ele>493.6</ele><time>2026-04-20T10:23:41.951Z</time></trkpt><trkpt lat="33.252965" lon="10.2560217"><ele>492.8</ele><time>2026-04-20T10:23:42.951Z</time></trkpt><trkpt lat="33.252945" lon="10.25613"><ele>492.0</ele><time>2026-04-20T10:23:43.951Z</time></trkpt><trkpt lat="33.2529083" lon="10.2562283"><ele>492.0</ele><time>2026-04-20T10:23:44.951Z</time></trkpt><trkpt lat="33.25285" lon="10.256315"><ele>492.00000000000006</ele><time>2026-04-20T10:23:45.951Z</time></trkpt><trkpt lat="33.252775" lon="10.2563633"><ele>492.00000000000006</ele><time>2026-04-20T10:23:46.951Z</time></trkpt><trkpt lat="33.25269" lon="10.25638"><ele>492.0</ele><time>2026-04-20T10:23:47.951Z</time></trkpt><trkpt lat="33.252595" lon="10.2563883"><ele>492.0</ele><time>2026-04-20T10:23:48.951Z</time></trkpt><trkpt lat="33.25249" lon="10.2563983"><ele>492.0</ele><time>2026-04-20T10:23:49.951Z</time></trkpt><trkpt lat="33.252395" lon="10.2564333"><ele>492.00000000000006</ele><time>2026-04-20T10:23:50.951Z</time></trkpt><trkpt lat="33.2523" lon="10.256495"><ele>492.00000000000006</ele><time>2026-04-20T10:23:51.951Z</time></trkpt><trkpt lat="33.2522083" lon="10.2565633"><ele>492.0</ele><time>2026-04-20T10:23:52.951Z</time></trkpt><trkpt lat="33.252105" lon="10.2566283"><ele>492.0</ele><time>2026-04-20T10:23:53.951Z</time></trkpt><trkpt lat="33.252" lon="10.2566817"><ele>492.8</ele><time>2026-04-20T10:23:54.951Z</time></trkpt><trkpt lat="33.251905" lon="10.2567333"><ele>493.6</ele><time>2026-04-20T10:23:55.951Z</time></trkpt><trkpt lat="33.2518267" lon="10.2568033"><ele>494.40000000000003</ele><time>2026-04-20T10:23:56.951Z</time></trkpt><trkpt lat="33.2517433" lon="10.25689"><ele>495.20000000000005</ele><time>2026-04-20T10:23:57.951Z</time></trkpt><trkpt lat="33.2516433" lon="10.2569767"><ele>496.0</ele><time>2026-04-20T10:23:58.951Z</time></trkpt><trkpt lat="33.25153" lon="10.2570367"><ele>494.5</ele><time>2026-04-20T10:23:59.951Z</time></trkpt><trkpt lat="33.2514133" lon="10.2570583"><ele>493.0</ele><time>2026-04-20T10:24:00.951Z</time></trkpt><trkpt lat="33.2512883" lon="10.2570667"><ele>491.5</ele><time>2026-04-20T10:24:01.951Z</time></trkpt><trkpt lat="33.2511667" lon="10.257065"><ele>490.0</ele><time>2026-04-20T10:24:02.951Z</time></trkpt><trkpt lat="33.25104" lon="10.2570533"><ele>490.0</ele><time>2026-04-20T10:24:03.951Z</time></trkpt><trkpt lat="33.25092" lon="10.257025"><ele>490.0</ele><time>2026-04-20T10:24:04.951Z</time></trkpt><trkpt lat="33.2508033" lon="10.2569967"><ele>490.0</ele><time>2026-04-20T10:24:05.951Z</time></trkpt><trkpt lat="33.2506817" lon="10.2569683"><ele>490.0</ele><time>2026-04-20T10:24:06.951Z</time></trkpt><trkpt lat="33.250565" lon="10.256945"><ele>490.0</ele><time>2026-04-20T10:24:07.951Z</time></trkpt><trkpt lat="33.25045" lon="10.2569317"><ele>490.0</ele><time>2026-04-20T10:24:08.951Z</time></trkpt><trkpt lat="33.2503483" lon="10.2569417"><ele>490.0</ele><time>2026-04-20T10:24:09.951Z</time></trkpt><trkpt lat="33.2502517" lon="10.2569733"><ele>490.0</ele><time>2026-04-20T10:24:10.951Z</time></trkpt><trkpt lat="33.2501483" lon="10.2570317"><ele>490.0</ele><time>2026-04-20T10:24:11.951Z</time></trkpt><trkpt lat="33.2500383" lon="10.2571133"><ele>490.0</ele><time>2026-04-20T10:24:12.951Z</time></trkpt><trkpt lat="33.2499217" lon="10.257195"><ele>490.0</ele><time>2026-04-20T10:24:13.951Z</time></trkpt><trkpt lat="33.2498083" lon="10.2572867"><ele>490.0</ele><time>2026-04-20T10:24:14.951Z</time></trkpt><trkpt lat="33.2496967" lon="10.257375"><ele>490.0</ele><time>2026-04-20T10:24:15.951Z</time></trkpt><trkpt lat="33.2496067" lon="10.25745"><ele>489.5</ele><time>2026-04-20T10:24:16.951Z</time></trkpt><trkpt lat="33.2495283" lon="10.2575367"><ele>489.0</ele><time>2026-04-20T10:24:17.951Z</time></trkpt><trkpt lat="33.24946" lon="10.257635"><ele>488.5</ele><time>2026-04-20T10:24:18.951Z</time></trkpt><trkpt lat="33.2494033" lon="10.25777"><ele>488.0</ele><time>2026-04-20T10:24:19.951Z</time></trkpt><trkpt lat="33.24936" lon="10.2579217"><ele>488.0</ele><time>2026-04-20T10:24:20.951Z</time></trkpt><trkpt lat="33.2493067" lon="10.2580783"><ele>488.0</ele><time>2026-04-20T10:24:21.951Z</time></trkpt><trkpt lat="33.249245" lon="10.2582267"><ele>488.0</ele><time>2026-04-20T10:24:22.951Z</time></trkpt><trkpt lat="33.24916" lon="10.2583633"><ele>488.0</ele><time>2026-04-20T10:24:23.951Z</time></trkpt><trkpt lat="33.249045" lon="10.258465"><ele>486.5</ele><time>2026-04-20T10:24:24.951Z</time></trkpt><trkpt lat="33.2489117" lon="10.2585467"><ele>485.0</ele><time>2026-04-20T10:24:25.951Z</time></trkpt><trkpt lat="33.2487767" lon="10.2585917"><ele>483.5</ele><time>2026-04-20T10:24:26.951Z</time></trkpt><trkpt lat="33.2486333" lon="10.2586067"><ele>482.0</ele><time>2026-04-20T10:24:27.951Z</time></trkpt><trkpt lat="33.248485" lon="10.2585883"><ele>482.0</ele><time>2026-04-20T10:24:28.951Z</time></trkpt><trkpt lat="33.2483433" lon="10.2585333"><ele>482.0</ele><time>2026-04-20T10:24:29.951Z</time></trkpt><trkpt lat="33.2481933" lon="10.2584783"><ele>482.0</ele><time>2026-04-20T10:24:30.951Z</time></trkpt><trkpt lat="33.248045" lon="10.2584433"><ele>483.5</ele><time>2026-04-20T10:24:31.951Z</time></trkpt><trkpt lat="33.24789" lon="10.2584267"><ele>485.0</ele><time>2026-04-20T10:24:32.951Z</time></trkpt><trkpt lat="33.24774" lon="10.2584517"><ele>486.5</ele><time>2026-04-20T10:24:33.951Z</time></trkpt><trkpt lat="33.2476017" lon="10.2584867"><ele>488.0</ele><time>2026-04-20T10:24:34.951Z</time></trkpt><trkpt lat="33.2474717" lon="10.25853"><ele>488.0</ele><time>2026-04-20T10:24:35.951Z</time></trkpt><trkpt lat="33.2473567" lon="10.2585783"><ele>488.0</ele><time>2026-04-20T10:24:36.951Z</time></trkpt><trkpt lat="33.2472383" lon="10.2586167"><ele>488.0</ele><time>2026-04-20T10:24:37.951Z</time></trkpt><trkpt lat="33.2471167" lon="10.25866"><ele>488.0</ele><time>2026-04-20T10:24:38.951Z</time></trkpt><trkpt lat="33.2469833" lon="10.258715"><ele>489.66666666666663</ele><time>2026-04-20T10:24:39.951Z</time></trkpt><trkpt lat="33.2468417" lon="10.2587667"><ele>491.33333333333337</ele><time>2026-04-20T10:24:40.951Z</time></trkpt><trkpt lat="33.246695" lon="10.258835"><ele>493.0</ele><time>2026-04-20T10:24:41.951Z</time></trkpt><trkpt lat="33.246545" lon="10.258915"><ele>487.6666666666667</ele><time>2026-04-20T10:24:42.951Z</time></trkpt><trkpt lat="33.246395" lon="10.2590033"><ele>482.33333333333337</ele><time>2026-04-20T10:24:43.951Z</time></trkpt><trkpt lat="33.2462433" lon="10.25911"><ele>477.0</ele><time>2026-04-20T10:24:44.951Z</time></trkpt><trkpt lat="33.246095" lon="10.25923"><ele>477.0</ele><time>2026-04-20T10:24:45.951Z</time></trkpt><trkpt lat="33.24594" lon="10.2593533"><ele>477.0</ele><time>2026-04-20T10:24:46.951Z</time></trkpt><trkpt lat="33.245785" lon="10.259485"><ele>477.0</ele><time>2026-04-20T10:24:47.951Z</time></trkpt><trkpt lat="33.2456333" lon="10.25962"><ele>476.66666666666663</ele><time>2026-04-20T10:24:48.951Z</time></trkpt><trkpt lat="33.2454783" lon="10.259755"><ele>476.3333333333333</ele><time>2026-04-20T10:24:49.951Z</time></trkpt><trkpt lat="33.2453267" lon="10.2598783"><ele>476.0</ele><time>2026-04-20T10:24:50.951Z</time></trkpt><trkpt lat="33.24518" lon="10.2599733"><ele>476.0</ele><time>2026-04-20T10:24:51.951Z</time></trkpt><trkpt lat="33.245045" lon="10.260045"><ele>476.0</ele><time>2026-04-20T10:24:52.951Z</time></trkpt><trkpt lat="33.2449233" lon="10.2600867"><ele>476.0</ele><time>2026-04-20T10:24:53.951Z</time></trkpt><trkpt lat="33.24479" lon="10.2601"><ele>476.0</ele><time>2026-04-20T10:24:54.951Z</time></trkpt><trkpt lat="33.2446367" lon="10.260105"><ele>475.3333333333333</ele><time>2026-04-20T10:24:55.951Z</time></trkpt><trkpt lat="33.2444767" lon="10.2601067"><ele>474.66666666666663</ele><time>2026-04-20T10:24:56.951Z</time></trkpt><trkpt lat="33.2443033" lon="10.260125"><ele>474.0</ele><time>2026-04-20T10:24:57.951Z</time></trkpt><trkpt lat="33.2441333" lon="10.2601533"><ele>472.66666666666663</ele><time>2026-04-20T10:24:58.951Z</time></trkpt><trkpt lat="33.2439633" lon="10.2602067"><ele>471.3333333333333</ele><time>2026-04-20T10:24:59.951Z</time></trkpt><trkpt lat="33.243805" lon="10.26028"><ele>470.0</ele><time>2026-04-20T10:25:00.951Z</time></trkpt><trkpt lat="33.2436433" lon="10.2603733"><ele>470.0</ele><time>2026-04-20T10:25:01.951Z</time></trkpt><trkpt lat="33.2434933" lon="10.2604933"><ele>470.0</ele><time>2026-04-20T10:25:02.951Z</time></trkpt><trkpt lat="33.2433483" lon="10.260625"><ele>470.0</ele><time>2026-04-20T10:25:03.951Z</time></trkpt><trkpt lat="33.2432167" lon="10.2607733"><ele>469.5</ele><time>2026-04-20T10:25:04.951Z</time></trkpt><trkpt lat="33.2431" lon="10.260925"><ele>469.0</ele><time>2026-04-20T10:25:05.951Z</time></trkpt><trkpt lat="33.243015" lon="10.26106"><ele>468.5</ele><time>2026-04-20T10:25:06.951Z</time></trkpt><trkpt lat="33.24295" lon="10.2611783"><ele>468.0</ele><time>2026-04-20T10:25:07.951Z</time></trkpt><trkpt lat="33.2428983" lon="10.2612867"><ele>468.0</ele><time>2026-04-20T10:25:08.952Z</time></trkpt><trkpt lat="33.24285" lon="10.2613783"><ele>467.99999999999994</ele><time>2026-04-20T10:25:09.951Z</time></trkpt><trkpt lat="33.242795" lon="10.2614683"><ele>467.99999999999994</ele><time>2026-04-20T10:25:10.951Z</time></trkpt><trkpt lat="33.242725" lon="10.26155"><ele>468.0</ele><time>2026-04-20T10:25:11.951Z</time></trkpt><trkpt lat="33.242635" lon="10.2616217"><ele>468.0</ele><time>2026-04-20T10:25:12.951Z</time></trkpt><trkpt lat="33.2425283" lon="10.2616917"><ele>466.4</ele><time>2026-04-20T10:25:13.951Z</time></trkpt><trkpt lat="33.2424167" lon="10.2617467"><ele>464.79999999999995</ele><time>2026-04-20T10:25:14.951Z</time></trkpt><trkpt lat="33.2423183" lon="10.261785"><ele>463.2</ele><time>2026-04-20T10:25:15.951Z</time></trkpt><trkpt lat="33.242235" lon="10.2618017"><ele>461.6</ele><time>2026-04-20T10:25:16.951Z</time></trkpt><trkpt lat="33.24215" lon="10.2617817"><ele>460.0</ele><time>2026-04-20T10:25:17.951Z</time></trkpt><trkpt lat="33.242085" lon="10.26173"><ele>459.8</ele><time>2026-04-20T10:25:18.951Z</time></trkpt><trkpt lat="33.2420233" lon="10.261655"><ele>459.6</ele><time>2026-04-20T10:25:19.951Z</time></trkpt><trkpt lat="33.2419683" lon="10.2615533"><ele>459.4</ele><time>2026-04-20T10:25:20.951Z</time></trkpt><trkpt lat="33.24191" lon="10.2614367"><ele>459.2</ele><time>2026-04-20T10:25:21.951Z</time></trkpt><trkpt lat="33.2418633" lon="10.261305"><ele>459.0</ele><time>2026-04-20T10:25:22.951Z</time></trkpt><trkpt lat="33.2418333" lon="10.261165"><ele>459.0</ele><time>2026-04-20T10:25:23.951Z</time></trkpt><trkpt lat="33.241815" lon="10.2610083"><ele>459.0</ele><time>2026-04-20T10:25:24.951Z</time></trkpt><trkpt lat="33.241805" lon="10.2608383"><ele>459.0</ele><time>2026-04-20T10:25:25.951Z</time></trkpt><trkpt lat="33.2417933" lon="10.2606683"><ele>459.0</ele><time>2026-04-20T10:25:26.951Z</time></trkpt><trkpt lat="33.2417733" lon="10.2605017"><ele>459.75</ele><time>2026-04-20T10:25:27.951Z</time></trkpt><trkpt lat="33.2417517" lon="10.260335"><ele>460.5</ele><time>2026-04-20T10:25:28.951Z</time></trkpt><trkpt lat="33.2417233" lon="10.260185"><ele>461.25</ele><time>2026-04-20T10:25:29.951Z</time></trkpt><trkpt lat="33.2416983" lon="10.2600433"><ele>462.0</ele><time>2026-04-20T10:25:30.951Z</time></trkpt><trkpt lat="33.2416667" lon="10.2598933"><ele>460.75</ele><time>2026-04-20T10:25:31.951Z</time></trkpt><trkpt lat="33.2416383" lon="10.259745"><ele>459.5</ele><time>2026-04-20T10:25:32.951Z</time></trkpt><trkpt lat="33.2416017" lon="10.2595967"><ele>458.25</ele><time>2026-04-20T10:25:33.951Z</time></trkpt><trkpt lat="33.24157" lon="10.2594617"><ele>457.0</ele><time>2026-04-20T10:25:34.951Z</time></trkpt><trkpt lat="33.241525" lon="10.25933"><ele>457.0</ele><time>2026-04-20T10:25:35.951Z</time></trkpt><trkpt lat="33.2414683" lon="10.2592"><ele>457.0</ele><time>2026-04-20T10:25:36.951Z</time></trkpt><trkpt lat="33.2414117" lon="10.2590733"><ele>457.0</ele><time>2026-04-20T10:25:37.951Z</time></trkpt><trkpt lat="33.2413317" lon="10.2589683"><ele>457.0</ele><time>2026-04-20T10:25:38.951Z</time></trkpt><trkpt lat="33.2412367" lon="10.2588783"><ele>455.5</ele><time>2026-04-20T10:25:39.951Z</time></trkpt><trkpt lat="33.241135" lon="10.2587967"><ele>454.0</ele><time>2026-04-20T10:25:40.951Z</time></trkpt><trkpt lat="33.2410217" lon="10.2587233"><ele>452.5</ele><time>2026-04-20T10:25:41.951Z</time></trkpt><trkpt lat="33.2409" lon="10.2586667"><ele>451.0</ele><time>2026-04-20T10:25:42.951Z</time></trkpt><trkpt lat="33.2407783" lon="10.2586367"><ele>451.0</ele><time>2026-04-20T10:25:43.951Z</time></trkpt><trkpt lat="33.2406617" lon="10.2585983"><ele>451.0</ele><time>2026-04-20T10:25:44.951Z</time></trkpt><trkpt lat="33.240545" lon="10.258565"><ele>451.0</ele><time>2026-04-20T10:25:45.951Z</time></trkpt><trkpt lat="33.24044" lon="10.2585"><ele>451.0</ele><time>2026-04-20T10:25:46.951Z</time></trkpt><trkpt lat="33.2403333" lon="10.2584183"><ele>451.0</ele><time>2026-04-20T10:25:47.951Z</time></trkpt><trkpt lat="33.2402383" lon="10.2583217"><ele>451.0</ele><time>2026-04-20T10:25:48.951Z</time></trkpt><trkpt lat="33.2401383" lon="10.2582283"><ele>451.0</ele><time>2026-04-20T10:25:49.951Z</time></trkpt><trkpt lat="33.2400383" lon="10.258135"><ele>451.0</ele><time>2026-04-20T10:25:50.951Z</time></trkpt><trkpt lat="33.2399367" lon="10.25805"><ele>450.20000000000005</ele><time>2026-04-20T10:25:51.951Z</time></trkpt><trkpt lat="33.2398433" lon="10.2579833"><ele>449.40000000000003</ele><time>2026-04-20T10:25:52.951Z</time></trkpt><trkpt lat="33.2397633" lon="10.2579267"><ele>448.6</ele><time>2026-04-20T10:25:53.951Z</time></trkpt><trkpt lat="33.239705" lon="10.2578833"><ele>447.8</ele><time>2026-04-20T10:25:54.951Z</time></trkpt><trkpt lat="33.2396067" lon="10.2578"><ele>447.0</ele><time>2026-04-20T10:25:56.951Z</time></trkpt><trkpt lat="33.2395233" lon="10.25768"><ele>446.8</ele><time>2026-04-20T10:25:58.951Z</time></trkpt><trkpt lat="33.2394933" lon="10.2575917"><ele>446.6</ele><time>2026-04-20T10:25:59.951Z</time></trkpt><trkpt lat="33.2394867" lon="10.2574883"><ele>446.40000000000003</ele><time>2026-04-20T10:26:00.951Z</time></trkpt><trkpt lat="33.2394883" lon="10.2573733"><ele>446.20000000000005</ele><time>2026-04-20T10:26:01.951Z</time></trkpt><trkpt lat="33.23948" lon="10.2572483"><ele>446.0</ele><time>2026-04-20T10:26:02.951Z</time></trkpt><trkpt lat="33.2394617" lon="10.2571217"><ele>446.0</ele><time>2026-04-20T10:26:03.951Z</time></trkpt><trkpt lat="33.2394267" lon="10.2569983"><ele>446.0</ele><time>2026-04-20T10:26:04.951Z</time></trkpt><trkpt lat="33.239385" lon="10.25688"><ele>446.0</ele><time>2026-04-20T10:26:05.95Z</time></trkpt><trkpt lat="33.2393433" lon="10.2567633"><ele>446.0</ele><time>2026-04-20T10:26:06.95Z</time></trkpt><trkpt lat="33.2393183" lon="10.2566383"><ele>446.0</ele><time>2026-04-20T10:26:07.95Z</time></trkpt><trkpt lat="33.239315" lon="10.2565083"><ele>447.0</ele><time>2026-04-20T10:26:08.95Z</time></trkpt><trkpt lat="33.2393183" lon="10.25637"><ele>448.0</ele><time>2026-04-20T10:26:09.95Z</time></trkpt><trkpt lat="33.2393067" lon="10.2562383"><ele>449.0</ele><time>2026-04-20T10:26:10.95Z</time></trkpt><trkpt lat="33.23928" lon="10.2560967"><ele>450.0</ele><time>2026-04-20T10:26:11.95Z</time></trkpt><trkpt lat="33.2392433" lon="10.2559667"><ele>450.0</ele><time>2026-04-20T10:26:12.95Z</time></trkpt><trkpt lat="33.2392033" lon="10.2558267"><ele>450.0</ele><time>2026-04-20T10:26:13.95Z</time></trkpt><trkpt lat="33.2391633" lon="10.2556733"><ele>450.0</ele><time>2026-04-20T10:26:14.95Z</time></trkpt><trkpt lat="33.2391033" lon="10.2555183"><ele>450.0</ele><time>2026-04-20T10:26:15.95Z</time></trkpt><trkpt lat="33.2390317" lon="10.2553767"><ele>453.0</ele><time>2026-04-20T10:26:16.95Z</time></trkpt><trkpt lat="33.238955" lon="10.2552417"><ele>456.0</ele><time>2026-04-20T10:26:17.95Z</time></trkpt><trkpt lat="33.238875" lon="10.2551067"><ele>459.0</ele><time>2026-04-20T10:26:18.95Z</time></trkpt><trkpt lat="33.2388" lon="10.254985"><ele>462.0</ele><time>2026-04-20T10:26:19.95Z</time></trkpt><trkpt lat="33.23875" lon="10.254855"><ele>463.75</ele><time>2026-04-20T10:26:20.95Z</time></trkpt><trkpt lat="33.2387183" lon="10.254715"><ele>465.5</ele><time>2026-04-20T10:26:21.95Z</time></trkpt><trkpt lat="33.238695" lon="10.2545683"><ele>467.25</ele><time>2026-04-20T10:26:22.95Z</time></trkpt><trkpt lat="33.23867" lon="10.2544283"><ele>469.0</ele><time>2026-04-20T10:26:23.95Z</time></trkpt><trkpt lat="33.2386383" lon="10.2542967"><ele>469.0</ele><time>2026-04-20T10:26:24.95Z</time></trkpt><trkpt lat="33.238605" lon="10.2541733"><ele>469.0</ele><time>2026-04-20T10:26:25.95Z</time></trkpt><trkpt lat="33.2385583" lon="10.2540633"><ele>469.0</ele><time>2026-04-20T10:26:26.95Z</time></trkpt><trkpt lat="33.2385033" lon="10.253975"><ele>469.0</ele><time>2026-04-20T10:26:27.95Z</time></trkpt><trkpt lat="33.2384283" lon="10.253885"><ele>469.0</ele><time>2026-04-20T10:26:28.95Z</time></trkpt><trkpt lat="33.2383333" lon="10.2538033"><ele>469.75</ele><time>2026-04-20T10:26:29.95Z</time></trkpt><trkpt lat="33.2382283" lon="10.253725"><ele>470.5</ele><time>2026-04-20T10:26:30.95Z</time></trkpt><trkpt lat="33.238115" lon="10.25364"><ele>471.25</ele><time>2026-04-20T10:26:31.951Z</time></trkpt><trkpt lat="33.2380033" lon="10.25356"><ele>472.0</ele><time>2026-04-20T10:26:32.95Z</time></trkpt><trkpt lat="33.23789" lon="10.253485"><ele>472.40000000000003</ele><time>2026-04-20T10:26:33.95Z</time></trkpt><trkpt lat="33.2377833" lon="10.253415"><ele>472.80000000000007</ele><time>2026-04-20T10:26:34.95Z</time></trkpt><trkpt lat="33.2377" lon="10.25334"><ele>473.2</ele><time>2026-04-20T10:26:35.95Z</time></trkpt><trkpt lat="33.2376317" lon="10.253265"><ele>473.6</ele><time>2026-04-20T10:26:36.95Z</time></trkpt><trkpt lat="33.2375933" lon="10.2531883"><ele>474.0</ele><time>2026-04-20T10:26:37.95Z</time></trkpt><trkpt lat="33.2375817" lon="10.2531017"><ele>474.0</ele><time>2026-04-20T10:26:38.95Z</time></trkpt><trkpt lat="33.2375967" lon="10.253005"><ele>474.0</ele><time>2026-04-20T10:26:39.95Z</time></trkpt><trkpt lat="33.237635" lon="10.25291"><ele>474.0</ele><time>2026-04-20T10:26:40.95Z</time></trkpt><trkpt lat="33.2376933" lon="10.2528133"><ele>474.0</ele><time>2026-04-20T10:26:41.95Z</time></trkpt><trkpt lat="33.237765" lon="10.2527133"><ele>474.0</ele><time>2026-04-20T10:26:42.95Z</time></trkpt><trkpt lat="33.2378317" lon="10.2526017"><ele>474.0</ele><time>2026-04-20T10:26:43.95Z</time></trkpt><trkpt lat="33.2378967" lon="10.2524683"><ele>474.0</ele><time>2026-04-20T10:26:44.95Z</time></trkpt><trkpt lat="33.2379567" lon="10.252325"><ele>474.0</ele><time>2026-04-20T10:26:45.95Z</time></trkpt><trkpt lat="33.238015" lon="10.2521617"><ele>474.0</ele><time>2026-04-20T10:26:46.95Z</time></trkpt><trkpt lat="33.2380633" lon="10.251985"><ele>474.5</ele><time>2026-04-20T10:26:47.95Z</time></trkpt><trkpt lat="33.2381067" lon="10.25183"><ele>475.0</ele><time>2026-04-20T10:26:48.95Z</time></trkpt><trkpt lat="33.238135" lon="10.2516867"><ele>475.5</ele><time>2026-04-20T10:26:49.95Z</time></trkpt><trkpt lat="33.2381617" lon="10.2515467"><ele>476.0</ele><time>2026-04-20T10:26:50.95Z</time></trkpt><trkpt lat="33.2381933" lon="10.251405"><ele>478.75</ele><time>2026-04-20T10:26:51.95Z</time></trkpt><trkpt lat="33.23823" lon="10.2512467"><ele>481.5</ele><time>2026-04-20T10:26:52.95Z</time></trkpt><trkpt lat="33.2382817" lon="10.25109"><ele>484.25</ele><time>2026-04-20T10:26:53.95Z</time></trkpt><trkpt lat="33.238335" lon="10.2509717"><ele>487.0</ele><time>2026-04-20T10:26:54.95Z</time></trkpt><trkpt lat="33.2384017" lon="10.2508983"><ele>487.0</ele><time>2026-04-20T10:26:55.95Z</time></trkpt><trkpt lat="33.238495" lon="10.250855"><ele>487.00000000000006</ele><time>2026-04-20T10:26:56.95Z</time></trkpt><trkpt lat="33.2385983" lon="10.2508583"><ele>487.00000000000006</ele><time>2026-04-20T10:26:57.95Z</time></trkpt><trkpt lat="33.2387217" lon="10.2508717"><ele>487.0</ele><time>2026-04-20T10:26:58.95Z</time></trkpt><trkpt lat="33.2388367" lon="10.2508717"><ele>487.0</ele><time>2026-04-20T10:26:59.95Z</time></trkpt><trkpt lat="33.2389633" lon="10.2508517"><ele>486.75</ele><time>2026-04-20T10:27:00.95Z</time></trkpt><trkpt lat="33.2390883" lon="10.2508033"><ele>486.5</ele><time>2026-04-20T10:27:01.95Z</time></trkpt><trkpt lat="33.2392033" lon="10.25073"><ele>486.25</ele><time>2026-04-20T10:27:02.95Z</time></trkpt><trkpt lat="33.2393" lon="10.250625"><ele>486.0</ele><time>2026-04-20T10:27:03.95Z</time></trkpt><trkpt lat="33.23939" lon="10.2504967"><ele>489.0</ele><time>2026-04-20T10:27:04.95Z</time></trkpt><trkpt lat="33.2394717" lon="10.2503533"><ele>492.0</ele><time>2026-04-20T10:27:05.95Z</time></trkpt><trkpt lat="33.239555" lon="10.2502117"><ele>495.0</ele><time>2026-04-20T10:27:06.95Z</time></trkpt><trkpt lat="33.2396383" lon="10.2500667"><ele>498.0</ele><time>2026-04-20T10:27:07.95Z</time></trkpt><trkpt lat="33.23973" lon="10.24992"><ele>498.0</ele><time>2026-04-20T10:27:08.95Z</time></trkpt><trkpt lat="33.2398317" lon="10.249775"><ele>498.0</ele><time>2026-04-20T10:27:09.95Z</time></trkpt><trkpt lat="33.2399317" lon="10.2496267"><ele>498.0</ele><time>2026-04-20T10:27:10.95Z</time></trkpt><trkpt lat="33.240035" lon="10.2494833"><ele>498.0</ele><time>2026-04-20T10:27:11.95Z</time></trkpt><trkpt lat="33.2401233" lon="10.24935"><ele>498.0</ele><time>2026-04-20T10:27:12.95Z</time></trkpt><trkpt lat="33.2402083" lon="10.249215"><ele>498.0</ele><time>2026-04-20T10:27:13.95Z</time></trkpt><trkpt lat="33.2402767" lon="10.2490733"><ele>498.0</ele><time>2026-04-20T10:27:14.95Z</time></trkpt><trkpt lat="33.2403133" lon="10.2489233"><ele>499.0</ele><time>2026-04-20T10:27:15.95Z</time></trkpt><trkpt lat="33.24035" lon="10.2487583"><ele>500.0</ele><time>2026-04-20T10:27:16.95Z</time></trkpt><trkpt lat="33.2403817" lon="10.2485967"><ele>501.0</ele><time>2026-04-20T10:27:17.95Z</time></trkpt><trkpt lat="33.2404067" lon="10.24843"><ele>502.0</ele><time>2026-04-20T10:27:18.95Z</time></trkpt><trkpt lat="33.2404283" lon="10.2482683"><ele>502.6666666666667</ele><time>2026-04-20T10:27:19.95Z</time></trkpt><trkpt lat="33.240455" lon="10.2480983"><ele>503.33333333333337</ele><time>2026-04-20T10:27:20.95Z</time></trkpt><trkpt lat="33.24051" lon="10.2479283"><ele>504.0</ele><time>2026-04-20T10:27:21.95Z</time></trkpt><trkpt lat="33.2405767" lon="10.2477583"><ele>506.0</ele><time>2026-04-20T10:27:22.95Z</time></trkpt><trkpt lat="33.24065" lon="10.2475883"><ele>508.0</ele><time>2026-04-20T10:27:23.95Z</time></trkpt><trkpt lat="33.2407217" lon="10.2474183"><ele>510.0</ele><time>2026-04-20T10:27:24.95Z</time></trkpt><trkpt lat="33.2408" lon="10.2472567"><ele>512.0</ele><time>2026-04-20T10:27:25.95Z</time></trkpt><trkpt lat="33.240865" lon="10.247125"><ele>514.0</ele><time>2026-04-20T10:27:26.95Z</time></trkpt><trkpt lat="33.2409233" lon="10.2470083"><ele>516.0</ele><time>2026-04-20T10:27:27.95Z</time></trkpt><trkpt lat="33.2409717" lon="10.2469017"><ele>518.0</ele><time>2026-04-20T10:27:28.95Z</time></trkpt><trkpt lat="33.2410083" lon="10.2467967"><ele>520.0</ele><time>2026-04-20T10:27:29.95Z</time></trkpt><trkpt lat="33.24105" lon="10.2466967"><ele>520.0</ele><time>2026-04-20T10:27:30.95Z</time></trkpt><trkpt lat="33.2410783" lon="10.2465833"><ele>520.0</ele><time>2026-04-20T10:27:31.95Z</time></trkpt><trkpt lat="33.241095" lon="10.2464783"><ele>520.0</ele><time>2026-04-20T10:27:32.95Z</time></trkpt><trkpt lat="33.241105" lon="10.2463833"><ele>520.0</ele><time>2026-04-20T10:27:33.95Z</time></trkpt><trkpt lat="33.24111" lon="10.246305"><ele>520.0</ele><time>2026-04-20T10:27:34.95Z</time></trkpt><trkpt lat="33.2410883" lon="10.2461633"><ele>520.0</ele><time>2026-04-20T10:27:36.95Z</time></trkpt><trkpt lat="33.2410667" lon="10.2460817"><ele>520.0</ele><time>2026-04-20T10:27:37.95Z</time></trkpt><trkpt lat="33.2410267" lon="10.2459933"><ele>520.0</ele><time>2026-04-20T10:27:38.95Z</time></trkpt><trkpt lat="33.24098" lon="10.245895"><ele>520.0</ele><time>2026-04-20T10:27:39.95Z</time></trkpt><trkpt lat="33.2409217" lon="10.24578"><ele>520.0</ele><time>2026-04-20T10:27:40.95Z</time></trkpt><trkpt lat="33.24086" lon="10.2456583"><ele>520.0</ele><time>2026-04-20T10:27:41.95Z</time></trkpt><trkpt lat="33.2407917" lon="10.245535"><ele>520.0</ele><time>2026-04-20T10:27:42.95Z</time></trkpt><trkpt lat="33.2407233" lon="10.2454017"><ele>520.0</ele><time>2026-04-20T10:27:43.95Z</time></trkpt><trkpt lat="33.2406567" lon="10.245265"><ele>520.0</ele><time>2026-04-20T10:27:44.95Z</time></trkpt><trkpt lat="33.240585" lon="10.2451267"><ele>520.0</ele><time>2026-04-20T10:27:45.95Z</time></trkpt><trkpt lat="33.2405117" lon="10.24499"><ele>520.0</ele><time>2026-04-20T10:27:46.95Z</time></trkpt><trkpt lat="33.2404317" lon="10.24485"><ele>520.0</ele><time>2026-04-20T10:27:47.95Z</time></trkpt><trkpt lat="33.2403533" lon="10.2447117"><ele>520.0</ele><time>2026-04-20T10:27:48.95Z</time></trkpt><trkpt lat="33.2402767" lon="10.2445667"><ele>518.5</ele><time>2026-04-20T10:27:49.95Z</time></trkpt><trkpt lat="33.2402" lon="10.2444317"><ele>517.0</ele><time>2026-04-20T10:27:50.95Z</time></trkpt><trkpt lat="33.2401283" lon="10.2443017"><ele>515.5</ele><time>2026-04-20T10:27:51.95Z</time></trkpt><trkpt lat="33.2400583" lon="10.24418"><ele>514.0</ele><time>2026-04-20T10:27:52.95Z</time></trkpt><trkpt lat="33.2399983" lon="10.2440517"><ele>513.6</ele><time>2026-04-20T10:27:53.95Z</time></trkpt><trkpt lat="33.239935" lon="10.24393"><ele>513.2</ele><time>2026-04-20T10:27:54.95Z</time></trkpt><trkpt lat="33.2398817" lon="10.243815"><ele>512.8000000000001</ele><time>2026-04-20T10:27:55.95Z</time></trkpt><trkpt lat="33.2398283" lon="10.243705"><ele>512.4</ele><time>2026-04-20T10:27:56.95Z</time></trkpt><trkpt lat="33.2397817" lon="10.2436033"><ele>512.0</ele><time>2026-04-20T10:27:57.95Z</time></trkpt><trkpt lat="33.2397417" lon="10.24351"><ele>511.99999999999994</ele><time>2026-04-20T10:27:58.95Z</time></trkpt><trkpt lat="33.239695" lon="10.2434367"><ele>512.0</ele><time>2026-04-20T10:27:59.95Z</time></trkpt><trkpt lat="33.2396483" lon="10.2433733"><ele>512.0</ele><time>2026-04-20T10:28:00.95Z</time></trkpt><trkpt lat="33.2395933" lon="10.2433317"><ele>512.0</ele><time>2026-04-20T10:28:01.95Z</time></trkpt><trkpt lat="33.239485" lon="10.2433017"><ele>511.99999999999994</ele><time>2026-04-20T10:28:03.95Z</time></trkpt><trkpt lat="33.2394167" lon="10.2432983"><ele>512.0</ele><time>2026-04-20T10:28:04.95Z</time></trkpt><trkpt lat="33.2393367" lon="10.2432883"><ele>512.0</ele><time>2026-04-20T10:28:05.95Z</time></trkpt><trkpt lat="33.2392533" lon="10.2432617"><ele>512.0</ele><time>2026-04-20T10:28:06.95Z</time></trkpt><trkpt lat="33.23917" lon="10.2432167"><ele>512.0</ele><time>2026-04-20T10:28:07.95Z</time></trkpt><trkpt lat="33.2390783" lon="10.2431533"><ele>512.0</ele><time>2026-04-20T10:28:08.95Z</time></trkpt><trkpt lat="33.2389817" lon="10.2430883"><ele>512.0</ele><time>2026-04-20T10:28:09.95Z</time></trkpt><trkpt lat="33.2388983" lon="10.243005"><ele>512.6</ele><time>2026-04-20T10:28:10.95Z</time></trkpt><trkpt lat="33.2388267" lon="10.2429067"><ele>513.2</ele><time>2026-04-20T10:28:11.95Z</time></trkpt><trkpt lat="33.238745" lon="10.242815"><ele>513.8</ele><time>2026-04-20T10:28:12.95Z</time></trkpt><trkpt lat="33.2386733" lon="10.242715"><ele>514.4</ele><time>2026-04-20T10:28:13.95Z</time></trkpt><trkpt lat="33.2386083" lon="10.2426167"><ele>515.0</ele><time>2026-04-20T10:28:14.95Z</time></trkpt><trkpt lat="33.2385467" lon="10.2425233"><ele>515.0</ele><time>2026-04-20T10:28:15.95Z</time></trkpt><trkpt lat="33.23848" lon="10.2424383"><ele>515.0</ele><time>2026-04-20T10:28:16.95Z</time></trkpt><trkpt lat="33.2384033" lon="10.2423533"><ele>515.0</ele><time>2026-04-20T10:28:17.95Z</time></trkpt><trkpt lat="33.2383217" lon="10.2422717"><ele>515.0</ele><time>2026-04-20T10:28:18.95Z</time></trkpt><trkpt lat="33.2382383" lon="10.2421817"><ele>515.0</ele><time>2026-04-20T10:28:19.95Z</time></trkpt><trkpt lat="33.238145" lon="10.242085"><ele>513.5</ele><time>2026-04-20T10:28:20.95Z</time></trkpt><trkpt lat="33.238045" lon="10.2420017"><ele>512.0</ele><time>2026-04-20T10:28:21.95Z</time></trkpt><trkpt lat="33.2379517" lon="10.241915"><ele>510.5</ele><time>2026-04-20T10:28:22.95Z</time></trkpt><trkpt lat="33.2378483" lon="10.2418167"><ele>509.0</ele><time>2026-04-20T10:28:23.95Z</time></trkpt><trkpt lat="33.2377467" lon="10.2417233"><ele>509.0</ele><time>2026-04-20T10:28:24.95Z</time></trkpt><trkpt lat="33.2376467" lon="10.24163"><ele>509.0</ele><time>2026-04-20T10:28:25.95Z</time></trkpt><trkpt lat="33.237555" lon="10.2415383"><ele>509.0</ele><time>2026-04-20T10:28:26.95Z</time></trkpt><trkpt lat="33.2374567" lon="10.2414567"><ele>509.0</ele><time>2026-04-20T10:28:27.95Z</time></trkpt><trkpt lat="33.237355" lon="10.2413867"><ele>509.75</ele><time>2026-04-20T10:28:28.95Z</time></trkpt><trkpt lat="33.2372517" lon="10.2413367"><ele>510.5</ele><time>2026-04-20T10:28:29.95Z</time></trkpt><trkpt lat="33.23714" lon="10.2413117"><ele>511.25</ele><time>2026-04-20T10:28:30.95Z</time></trkpt><trkpt lat="33.23703" lon="10.2412933"><ele>512.0</ele><time>2026-04-20T10:28:31.95Z</time></trkpt><trkpt lat="33.2369117" lon="10.2412817"><ele>512.0</ele><time>2026-04-20T10:28:32.95Z</time></trkpt><trkpt lat="33.2367967" lon="10.2412617"><ele>512.0</ele><time>2026-04-20T10:28:33.95Z</time></trkpt><trkpt lat="33.236685" lon="10.2412267"><ele>512.0</ele><time>2026-04-20T10:28:34.95Z</time></trkpt><trkpt lat="33.2365733" lon="10.241175"><ele>512.0</ele><time>2026-04-20T10:28:35.95Z</time></trkpt><trkpt lat="33.2364567" lon="10.241135"><ele>511.5</ele><time>2026-04-20T10:28:36.95Z</time></trkpt><trkpt lat="33.236345" lon="10.2411033"><ele>511.0</ele><time>2026-04-20T10:28:37.95Z</time></trkpt><trkpt lat="33.2362267" lon="10.2410867"><ele>510.5</ele><time>2026-04-20T10:28:38.95Z</time></trkpt><trkpt lat="33.2361217" lon="10.2410833"><ele>510.0</ele><time>2026-04-20T10:28:39.95Z</time></trkpt><trkpt lat="33.2360067" lon="10.2410767"><ele>510.0</ele><time>2026-04-20T10:28:40.95Z</time></trkpt><trkpt lat="33.23589" lon="10.2410617"><ele>510.0</ele><time>2026-04-20T10:28:41.95Z</time></trkpt><trkpt lat="33.2357733" lon="10.2410367"><ele>510.0</ele><time>2026-04-20T10:28:42.95Z</time></trkpt><trkpt lat="33.2356717" lon="10.2410133"><ele>510.0</ele><time>2026-04-20T10:28:43.95Z</time></trkpt><trkpt lat="33.2355917" lon="10.2409733"><ele>510.0</ele><time>2026-04-20T10:28:44.95Z</time></trkpt><trkpt lat="33.2355233" lon="10.240915"><ele>509.6</ele><time>2026-04-20T10:28:45.95Z</time></trkpt><trkpt lat="33.2354683" lon="10.24084"><ele>509.2</ele><time>2026-04-20T10:28:46.95Z</time></trkpt><trkpt lat="33.235415" lon="10.2407483"><ele>508.79999999999995</ele><time>2026-04-20T10:28:47.95Z</time></trkpt><trkpt lat="33.2353583" lon="10.2406383"><ele>508.4</ele><time>2026-04-20T10:28:48.95Z</time></trkpt><trkpt lat="33.2352967" lon="10.2405183"><ele>508.0</ele><time>2026-04-20T10:28:49.95Z</time></trkpt><trkpt lat="33.2352233" lon="10.240395"><ele>508.0</ele><time>2026-04-20T10:28:50.95Z</time></trkpt><trkpt lat="33.23514" lon="10.24027"><ele>508.0</ele><time>2026-04-20T10:28:51.95Z</time></trkpt><trkpt lat="33.2350567" lon="10.2401567"><ele>508.0</ele><time>2026-04-20T10:28:52.95Z</time></trkpt><trkpt lat="33.234965" lon="10.2400533"><ele>508.0</ele><time>2026-04-20T10:28:53.95Z</time></trkpt><trkpt lat="33.2348717" lon="10.239975"><ele>507.0</ele><time>2026-04-20T10:28:54.95Z</time></trkpt><trkpt lat="33.2347667" lon="10.2399167"><ele>506.0</ele><time>2026-04-20T10:28:55.95Z</time></trkpt><trkpt lat="33.2346617" lon="10.2398767"><ele>505.0</ele><time>2026-04-20T10:28:56.95Z</time></trkpt><trkpt lat="33.2345533" lon="10.2398367"><ele>504.0</ele><time>2026-04-20T10:28:57.95Z</time></trkpt><trkpt lat="33.23444" lon="10.23981"><ele>504.5</ele><time>2026-04-20T10:28:58.95Z</time></trkpt><trkpt lat="33.2343317" lon="10.2397783"><ele>505.0</ele><time>2026-04-20T10:28:59.95Z</time></trkpt><trkpt lat="33.23422" lon="10.2397383"><ele>505.5</ele><time>2026-04-20T10:29:00.95Z</time></trkpt><trkpt lat="33.234115" lon="10.2396833"><ele>506.0</ele><time>2026-04-20T10:29:01.95Z</time></trkpt><trkpt lat="33.234015" lon="10.2396283"><ele>505.20000000000005</ele><time>2026-04-20T10:29:02.95Z</time></trkpt><trkpt lat="33.233915" lon="10.23957"><ele>504.40000000000003</ele><time>2026-04-20T10:29:03.95Z</time></trkpt><trkpt lat="33.2338217" lon="10.23951"><ele>503.6</ele><time>2026-04-20T10:29:04.95Z</time></trkpt><trkpt lat="33.2337383" lon="10.2394417"><ele>502.8</ele><time>2026-04-20T10:29:05.95Z</time></trkpt><trkpt lat="33.2336767" lon="10.2393783"><ele>502.0</ele><time>2026-04-20T10:29:06.95Z</time></trkpt><trkpt lat="33.233625" lon="10.23932"><ele>502.00000000000006</ele><time>2026-04-20T10:29:07.95Z</time></trkpt><trkpt lat="33.2335833" lon="10.2392583"><ele>502.0</ele><time>2026-04-20T10:29:08.95Z</time></trkpt><trkpt lat="33.233535" lon="10.2391967"><ele>502.0</ele><time>2026-04-20T10:29:09.95Z</time></trkpt><trkpt lat="33.2334817" lon="10.239135"><ele>502.0</ele><time>2026-04-20T10:29:10.95Z</time></trkpt><trkpt lat="33.2334067" lon="10.239065"><ele>502.00000000000006</ele><time>2026-04-20T10:29:11.95Z</time></trkpt><trkpt lat="33.23333" lon="10.2389833"><ele>502.0</ele><time>2026-04-20T10:29:12.95Z</time></trkpt><trkpt lat="33.2332467" lon="10.238895"><ele>502.0</ele><time>2026-04-20T10:29:13.95Z</time></trkpt><trkpt lat="33.2331617" lon="10.2388033"><ele>502.00000000000006</ele><time>2026-04-20T10:29:14.95Z</time></trkpt><trkpt lat="33.2330833" lon="10.2387117"><ele>502.00000000000006</ele><time>2026-04-20T10:29:15.95Z</time></trkpt><trkpt lat="33.2330033" lon="10.2386367"><ele>502.0</ele><time>2026-04-20T10:29:16.95Z</time></trkpt><trkpt lat="33.2329233" lon="10.2385517"><ele>502.0</ele><time>2026-04-20T10:29:17.95Z</time></trkpt><trkpt lat="33.23283" lon="10.2384717"><ele>501.0</ele><time>2026-04-20T10:29:18.95Z</time></trkpt><trkpt lat="33.232735" lon="10.2383917"><ele>500.00000000000006</ele><time>2026-04-20T10:29:19.95Z</time></trkpt><trkpt lat="33.2326433" lon="10.2383283"><ele>499.00000000000006</ele><time>2026-04-20T10:29:20.95Z</time></trkpt><trkpt lat="33.23255" lon="10.2382817"><ele>498.0</ele><time>2026-04-20T10:29:21.95Z</time></trkpt><trkpt lat="33.232465" lon="10.2382417"><ele>497.0</ele><time>2026-04-20T10:29:22.95Z</time></trkpt><trkpt lat="33.232385" lon="10.2381883"><ele>497.16666666666663</ele><time>2026-04-20T10:29:23.95Z</time></trkpt><trkpt lat="33.2323233" lon="10.23813"><ele>497.3333333333333</ele><time>2026-04-20T10:29:24.949Z</time></trkpt><trkpt lat="33.2322783" lon="10.2380617"><ele>497.5</ele><time>2026-04-20T10:29:25.949Z</time></trkpt><trkpt lat="33.23224" lon="10.2379817"><ele>497.66666666666663</ele><time>2026-04-20T10:29:26.949Z</time></trkpt><trkpt lat="33.2322217" lon="10.2378833"><ele>497.8333333333333</ele><time>2026-04-20T10:29:27.949Z</time></trkpt><trkpt lat="33.2322067" lon="10.2377733"><ele>498.0</ele><time>2026-04-20T10:29:28.949Z</time></trkpt><trkpt lat="33.232175" lon="10.2376567"><ele>498.0</ele><time>2026-04-20T10:29:29.949Z</time></trkpt><trkpt lat="33.2321267" lon="10.23754"><ele>497.99999999999994</ele><time>2026-04-20T10:29:30.949Z</time></trkpt><trkpt lat="33.2320683" lon="10.2374267"><ele>497.99999999999994</ele><time>2026-04-20T10:29:31.949Z</time></trkpt><trkpt lat="33.2320083" lon="10.237315"><ele>498.0</ele><time>2026-04-20T10:29:32.949Z</time></trkpt><trkpt lat="33.231945" lon="10.237205"><ele>498.0</ele><time>2026-04-20T10:29:33.95Z</time></trkpt><trkpt lat="33.23188" lon="10.2371033"><ele>497.25</ele><time>2026-04-20T10:29:34.949Z</time></trkpt><trkpt lat="33.231805" lon="10.237005"><ele>496.5</ele><time>2026-04-20T10:29:35.949Z</time></trkpt><trkpt lat="33.231715" lon="10.2369167"><ele>495.75</ele><time>2026-04-20T10:29:36.949Z</time></trkpt><trkpt lat="33.23162" lon="10.236835"><ele>495.0</ele><time>2026-04-20T10:29:37.949Z</time></trkpt><trkpt lat="33.2315183" lon="10.2367633"><ele>493.75</ele><time>2026-04-20T10:29:38.949Z</time></trkpt><trkpt lat="33.231415" lon="10.2366933"><ele>492.5</ele><time>2026-04-20T10:29:39.949Z</time></trkpt><trkpt lat="33.231305" lon="10.2366133"><ele>491.25</ele><time>2026-04-20T10:29:40.949Z</time></trkpt><trkpt lat="33.231205" lon="10.236535"><ele>490.0</ele><time>2026-04-20T10:29:41.949Z</time></trkpt><trkpt lat="33.231105" lon="10.236455"><ele>490.0</ele><time>2026-04-20T10:29:42.949Z</time></trkpt><trkpt lat="33.2310033" lon="10.23639"><ele>490.0</ele><time>2026-04-20T10:29:43.949Z</time></trkpt><trkpt lat="33.2309033" lon="10.2363333"><ele>490.0</ele><time>2026-04-20T10:29:44.949Z</time></trkpt><trkpt lat="33.2307933" lon="10.2362933"><ele>490.0</ele><time>2026-04-20T10:29:45.949Z</time></trkpt><trkpt lat="33.2306833" lon="10.236275"><ele>488.5</ele><time>2026-04-20T10:29:46.949Z</time></trkpt><trkpt lat="33.2305717" lon="10.2362767"><ele>487.0</ele><time>2026-04-20T10:29:47.949Z</time></trkpt><trkpt lat="33.230445" lon="10.2363033"><ele>485.5</ele><time>2026-04-20T10:29:48.949Z</time></trkpt><trkpt lat="33.2303233" lon="10.2363283"><ele>484.0</ele><time>2026-04-20T10:29:49.949Z</time></trkpt><trkpt lat="33.2301933" lon="10.236355"><ele>484.0</ele><time>2026-04-20T10:29:50.949Z</time></trkpt><trkpt lat="33.230055" lon="10.2363817"><ele>484.0</ele><time>2026-04-20T10:29:51.949Z</time></trkpt><trkpt lat="33.2299167" lon="10.2364033"><ele>484.0</ele><time>2026-04-20T10:29:52.949Z</time></trkpt><trkpt lat="33.2297833" lon="10.236415"><ele>484.0</ele><time>2026-04-20T10:29:53.949Z</time></trkpt><trkpt lat="33.22965" lon="10.2364233"><ele>483.0</ele><time>2026-04-20T10:29:54.949Z</time></trkpt><trkpt lat="33.2295133" lon="10.23642"><ele>482.0</ele><time>2026-04-20T10:29:55.949Z</time></trkpt><trkpt lat="33.2293717" lon="10.2363967"><ele>481.0</ele><time>2026-04-20T10:29:56.949Z</time></trkpt><trkpt lat="33.2292217" lon="10.2363533"><ele>480.0</ele><time>2026-04-20T10:29:57.949Z</time></trkpt><trkpt lat="33.229065" lon="10.2363167"><ele>480.33333333333337</ele><time>2026-04-20T10:29:58.949Z</time></trkpt><trkpt lat="33.22891" lon="10.2362817"><ele>480.6666666666667</ele><time>2026-04-20T10:29:59.949Z</time></trkpt><trkpt lat="33.2287583" lon="10.2362617"><ele>481.0</ele><time>2026-04-20T10:30:00.949Z</time></trkpt><trkpt lat="33.2286033" lon="10.2362483"><ele>481.0</ele><time>2026-04-20T10:30:01.949Z</time></trkpt><trkpt lat="33.2284433" lon="10.236255"><ele>481.0</ele><time>2026-04-20T10:30:02.949Z</time></trkpt><trkpt lat="33.22828" lon="10.2362717"><ele>481.0</ele><time>2026-04-20T10:30:03.949Z</time></trkpt><trkpt lat="33.228105" lon="10.2363"><ele>481.6666666666667</ele><time>2026-04-20T10:30:04.949Z</time></trkpt><trkpt lat="33.2279317" lon="10.2363333"><ele>482.33333333333337</ele><time>2026-04-20T10:30:05.949Z</time></trkpt><trkpt lat="33.2277683" lon="10.2363633"><ele>483.0</ele><time>2026-04-20T10:30:06.949Z</time></trkpt><trkpt lat="33.2276233" lon="10.23639"><ele>483.0</ele><time>2026-04-20T10:30:07.949Z</time></trkpt><trkpt lat="33.2274933" lon="10.236415"><ele>483.0</ele><time>2026-04-20T10:30:08.949Z</time></trkpt><trkpt lat="33.2273567" lon="10.23645"><ele>483.0</ele><time>2026-04-20T10:30:09.949Z</time></trkpt><trkpt lat="33.22722" lon="10.23648"><ele>483.0</ele><time>2026-04-20T10:30:10.949Z</time></trkpt><trkpt lat="33.2270783" lon="10.2365067"><ele>482.5</ele><time>2026-04-20T10:30:11.949Z</time></trkpt><trkpt lat="33.226945" lon="10.2365417"><ele>482.0</ele><time>2026-04-20T10:30:12.949Z</time></trkpt><trkpt lat="33.2268117" lon="10.23659"><ele>481.5</ele><time>2026-04-20T10:30:13.949Z</time></trkpt><trkpt lat="33.2267033" lon="10.23665"><ele>481.0</ele><time>2026-04-20T10:30:14.95Z</time></trkpt><trkpt lat="33.2266133" lon="10.2367167"><ele>481.00000000000006</ele><time>2026-04-20T10:30:15.949Z</time></trkpt><trkpt lat="33.226535" lon="10.2367583"><ele>481.0</ele><time>2026-04-20T10:30:16.949Z</time></trkpt><trkpt lat="33.226465" lon="10.2367667"><ele>481.0</ele><time>2026-04-20T10:30:17.949Z</time></trkpt><trkpt lat="33.2263417" lon="10.2367467"><ele>481.0</ele><time>2026-04-20T10:30:19.949Z</time></trkpt><trkpt lat="33.2262817" lon="10.2367083"><ele>481.00000000000006</ele><time>2026-04-20T10:30:20.949Z</time></trkpt><trkpt lat="33.2262167" lon="10.2366517"><ele>481.0</ele><time>2026-04-20T10:30:21.949Z</time></trkpt><trkpt lat="33.2261517" lon="10.23659"><ele>480.4</ele><time>2026-04-20T10:30:22.949Z</time></trkpt><trkpt lat="33.2260783" lon="10.2365267"><ele>479.8</ele><time>2026-04-20T10:30:23.949Z</time></trkpt><trkpt lat="33.226" lon="10.236465"><ele>479.19999999999993</ele><time>2026-04-20T10:30:24.949Z</time></trkpt><trkpt lat="33.2259133" lon="10.2364133"><ele>478.59999999999997</ele><time>2026-04-20T10:30:25.949Z</time></trkpt><trkpt lat="33.2258267" lon="10.2363783"><ele>478.0</ele><time>2026-04-20T10:30:26.949Z</time></trkpt><trkpt lat="33.2257433" lon="10.236355"><ele>477.83333333333337</ele><time>2026-04-20T10:30:27.949Z</time></trkpt><trkpt lat="33.2256633" lon="10.2363483"><ele>477.6666666666667</ele><time>2026-04-20T10:30:28.949Z</time></trkpt><trkpt lat="33.2255883" lon="10.23635"><ele>477.5</ele><time>2026-04-20T10:30:29.949Z</time></trkpt><trkpt lat="33.22552" lon="10.2363517"><ele>477.33333333333337</ele><time>2026-04-20T10:30:30.949Z</time></trkpt><trkpt lat="33.225455" lon="10.2363467"><ele>477.1666666666667</ele><time>2026-04-20T10:30:31.949Z</time></trkpt><trkpt lat="33.2253917" lon="10.2363483"><ele>477.0</ele><time>2026-04-20T10:30:32.949Z</time></trkpt><trkpt lat="33.22526" lon="10.2363433"><ele>477.0</ele><time>2026-04-20T10:30:34.949Z</time></trkpt><trkpt lat="33.2251767" lon="10.2363483"><ele>477.00000000000006</ele><time>2026-04-20T10:30:35.949Z</time></trkpt><trkpt lat="33.225075" lon="10.2363617"><ele>477.00000000000006</ele><time>2026-04-20T10:30:36.949Z</time></trkpt><trkpt lat="33.2249633" lon="10.236375"><ele>477.0</ele><time>2026-04-20T10:30:37.949Z</time></trkpt><trkpt lat="33.2248417" lon="10.2363917"><ele>477.0</ele><time>2026-04-20T10:30:38.949Z</time></trkpt><trkpt lat="33.2247067" lon="10.23641"><ele>475.66666666666663</ele><time>2026-04-20T10:30:39.949Z</time></trkpt><trkpt lat="33.224555" lon="10.2364233"><ele>474.3333333333333</ele><time>2026-04-20T10:30:40.949Z</time></trkpt><trkpt lat="33.2244" lon="10.2364317"><ele>473.0</ele><time>2026-04-20T10:30:41.949Z</time></trkpt><trkpt lat="33.2242317" lon="10.2364467"><ele>473.0</ele><time>2026-04-20T10:30:42.949Z</time></trkpt><trkpt lat="33.22405" lon="10.2364683"><ele>473.0</ele><time>2026-04-20T10:30:43.949Z</time></trkpt><trkpt lat="33.2238767" lon="10.2364983"><ele>473.0</ele><time>2026-04-20T10:30:44.949Z</time></trkpt><trkpt lat="33.22372" lon="10.23653"><ele>472.25</ele><time>2026-04-20T10:30:45.949Z</time></trkpt><trkpt lat="33.22359" lon="10.2365533"><ele>471.5</ele><time>2026-04-20T10:30:46.949Z</time></trkpt><trkpt lat="33.223455" lon="10.2365817"><ele>470.75</ele><time>2026-04-20T10:30:47.949Z</time></trkpt><trkpt lat="33.2233183" lon="10.2366217"><ele>470.0</ele><time>2026-04-20T10:30:48.949Z</time></trkpt><trkpt lat="33.223175" lon="10.2366667"><ele>470.0</ele><time>2026-04-20T10:30:49.949Z</time></trkpt><trkpt lat="33.2230333" lon="10.2367183"><ele>470.0</ele><time>2026-04-20T10:30:50.949Z</time></trkpt><trkpt lat="33.222895" lon="10.2367767"><ele>470.0</ele><time>2026-04-20T10:30:51.949Z</time></trkpt><trkpt lat="33.222775" lon="10.2368467"><ele>470.0</ele><time>2026-04-20T10:30:52.948Z</time></trkpt><trkpt lat="33.2226683" lon="10.236935"><ele>470.0</ele><time>2026-04-20T10:30:53.949Z</time></trkpt><trkpt lat="33.2225683" lon="10.2370317"><ele>470.0</ele><time>2026-04-20T10:30:54.949Z</time></trkpt><trkpt lat="33.2224833" lon="10.237125"><ele>470.0</ele><time>2026-04-20T10:30:55.949Z</time></trkpt><trkpt lat="33.2224033" lon="10.2372033"><ele>470.0</ele><time>2026-04-20T10:30:56.949Z</time></trkpt><trkpt lat="33.222335" lon="10.2372633"><ele>470.0</ele><time>2026-04-20T10:30:57.949Z</time></trkpt><trkpt lat="33.22227" lon="10.2372967"><ele>469.6</ele><time>2026-04-20T10:30:58.949Z</time></trkpt><trkpt lat="33.2221433" lon="10.237315"><ele>469.2</ele><time>2026-04-20T10:31:00.949Z</time></trkpt><trkpt lat="33.2220617" lon="10.2373033"><ele>468.79999999999995</ele><time>2026-04-20T10:31:01.949Z</time></trkpt><trkpt lat="33.22197" lon="10.23729"><ele>468.4</ele><time>2026-04-20T10:31:02.949Z</time></trkpt><trkpt lat="33.2218717" lon="10.2372733"><ele>468.0</ele><time>2026-04-20T10:31:03.949Z</time></trkpt><trkpt lat="33.2217667" lon="10.23726"><ele>468.0</ele><time>2026-04-20T10:31:04.949Z</time></trkpt><trkpt lat="33.2216483" lon="10.2372417"><ele>468.0</ele><time>2026-04-20T10:31:05.949Z</time></trkpt><trkpt lat="33.2215133" lon="10.2372167"><ele>468.0</ele><time>2026-04-20T10:31:06.949Z</time></trkpt><trkpt lat="33.22138" lon="10.2371883"><ele>468.0</ele><time>2026-04-20T10:31:07.949Z</time></trkpt><trkpt lat="33.221235" lon="10.23716"><ele>466.33333333333337</ele><time>2026-04-20T10:31:08.949Z</time></trkpt><trkpt lat="33.2210883" lon="10.23713"><ele>464.6666666666667</ele><time>2026-04-20T10:31:09.949Z</time></trkpt><trkpt lat="33.2209417" lon="10.2371033"><ele>463.0</ele><time>2026-04-20T10:31:10.949Z</time></trkpt><trkpt lat="33.2207867" lon="10.237075"><ele>462.0</ele><time>2026-04-20T10:31:11.949Z</time></trkpt><trkpt lat="33.22064" lon="10.2370517"><ele>461.0</ele><time>2026-04-20T10:31:12.949Z</time></trkpt><trkpt lat="33.2204883" lon="10.237025"><ele>460.0</ele><time>2026-04-20T10:31:13.949Z</time></trkpt><trkpt lat="33.22034" lon="10.2370033"><ele>460.0</ele><time>2026-04-20T10:31:14.949Z</time></trkpt><trkpt lat="33.2202033" lon="10.2369817"><ele>460.0</ele><time>2026-04-20T10:31:15.949Z</time></trkpt><trkpt lat="33.2200483" lon="10.236975"><ele>460.0</ele><time>2026-04-20T10:31:16.949Z</time></trkpt><trkpt lat="33.21989" lon="10.2369667"><ele>459.0</ele><time>2026-04-20T10:31:17.949Z</time></trkpt><trkpt lat="33.2197333" lon="10.2369483"><ele>458.0</ele><time>2026-04-20T10:31:18.95Z</time></trkpt><trkpt lat="33.2195633" lon="10.23692"><ele>457.0</ele><time>2026-04-20T10:31:19.949Z</time></trkpt><trkpt lat="33.2194017" lon="10.2368983"><ele>457.0</ele><time>2026-04-20T10:31:20.949Z</time></trkpt><trkpt lat="33.2192417" lon="10.2368633"><ele>457.0</ele><time>2026-04-20T10:31:21.949Z</time></trkpt><trkpt lat="33.2190917" lon="10.2368167"><ele>457.0</ele><time>2026-04-20T10:31:22.949Z</time></trkpt><trkpt lat="33.2189383" lon="10.23674"><ele>456.6666666666667</ele><time>2026-04-20T10:31:23.949Z</time></trkpt><trkpt lat="33.218785" lon="10.2366333"><ele>456.33333333333337</ele><time>2026-04-20T10:31:24.949Z</time></trkpt><trkpt lat="33.21864" lon="10.2365117"><ele>456.0</ele><time>2026-04-20T10:31:25.949Z</time></trkpt><trkpt lat="33.2185067" lon="10.2363817"><ele>455.66666666666663</ele><time>2026-04-20T10:31:26.949Z</time></trkpt><trkpt lat="33.21838" lon="10.2362633"><ele>455.3333333333333</ele><time>2026-04-20T10:31:27.949Z</time></trkpt><trkpt lat="33.218255" lon="10.2361467"><ele>455.0</ele><time>2026-04-20T10:31:28.949Z</time></trkpt><trkpt lat="33.21813" lon="10.2360567"><ele>455.0</ele><time>2026-04-20T10:31:29.949Z</time></trkpt><trkpt lat="33.218" lon="10.2359817"><ele>455.0</ele><time>2026-04-20T10:31:30.949Z</time></trkpt><trkpt lat="33.217865" lon="10.2359217"><ele>455.0</ele><time>2026-04-20T10:31:31.949Z</time></trkpt><trkpt lat="33.2177417" lon="10.2358583"><ele>455.0</ele><time>2026-04-20T10:31:32.949Z</time></trkpt><trkpt lat="33.2176033" lon="10.2358133"><ele>455.0</ele><time>2026-04-20T10:31:33.949Z</time></trkpt><trkpt lat="33.2174683" lon="10.2357617"><ele>455.0</ele><time>2026-04-20T10:31:34.949Z</time></trkpt><trkpt lat="33.2173267" lon="10.2356983"><ele>455.0</ele><time>2026-04-20T10:31:35.949Z</time></trkpt><trkpt lat="33.2171867" lon="10.235645"><ele>455.0</ele><time>2026-04-20T10:31:36.949Z</time></trkpt><trkpt lat="33.2170567" lon="10.2355983"><ele>453.75</ele><time>2026-04-20T10:31:37.949Z</time></trkpt><trkpt lat="33.2169283" lon="10.235565"><ele>452.5</ele><time>2026-04-20T10:31:38.949Z</time></trkpt><trkpt lat="33.2167967" lon="10.23555"><ele>451.25</ele><time>2026-04-20T10:31:39.95Z</time></trkpt><trkpt lat="33.2166533" lon="10.235575"><ele>450.0</ele><time>2026-04-20T10:31:40.949Z</time></trkpt><trkpt lat="33.2165" lon="10.2356267"><ele>453.0</ele><time>2026-04-20T10:31:41.949Z</time></trkpt><trkpt lat="33.216335" lon="10.235695"><ele>456.0</ele><time>2026-04-20T10:31:42.949Z</time></trkpt><trkpt lat="33.2161767" lon="10.2357417"><ele>459.0</ele><time>2026-04-20T10:31:43.949Z</time></trkpt><trkpt lat="33.2160233" lon="10.23579"><ele>459.0</ele><time>2026-04-20T10:31:44.949Z</time></trkpt><trkpt lat="33.215895" lon="10.23583"><ele>459.0</ele><time>2026-04-20T10:31:45.949Z</time></trkpt><trkpt lat="33.215785" lon="10.2358717"><ele>459.0</ele><time>2026-04-20T10:31:46.949Z</time></trkpt><trkpt lat="33.2156767" lon="10.2359217"><ele>459.0</ele><time>2026-04-20T10:31:47.949Z</time></trkpt><trkpt lat="33.2155683" lon="10.2359733"><ele>458.0</ele><time>2026-04-20T10:31:48.949Z</time></trkpt><trkpt lat="33.2154517" lon="10.2360367"><ele>457.0</ele><time>2026-04-20T10:31:49.949Z</time></trkpt><trkpt lat="33.2153333" lon="10.236075"><ele>456.0</ele><time>2026-04-20T10:31:50.949Z</time></trkpt><trkpt lat="33.2152133" lon="10.2360917"><ele>455.0</ele><time>2026-04-20T10:31:51.949Z</time></trkpt><trkpt lat="33.215085" lon="10.23609"><ele>455.0</ele><time>2026-04-20T10:31:52.949Z</time></trkpt><trkpt lat="33.2149433" lon="10.2360733"><ele>455.0</ele><time>2026-04-20T10:31:53.949Z</time></trkpt><trkpt lat="33.2147933" lon="10.2360517"><ele>455.0</ele><time>2026-04-20T10:31:54.949Z</time></trkpt><trkpt lat="33.214635" lon="10.23604"><ele>453.75</ele><time>2026-04-20T10:31:55.949Z</time></trkpt><trkpt lat="33.214485" lon="10.23604"><ele>452.5</ele><time>2026-04-20T10:31:56.949Z</time></trkpt><trkpt lat="33.2143417" lon="10.2360517"><ele>451.25</ele><time>2026-04-20T10:31:57.949Z</time></trkpt><trkpt lat="33.214205" lon="10.2360667"><ele>450.0</ele><time>2026-04-20T10:31:58.949Z</time></trkpt><trkpt lat="33.214075" lon="10.2360983"><ele>448.5</ele><time>2026-04-20T10:31:59.949Z</time></trkpt><trkpt lat="33.2139517" lon="10.2361317"><ele>447.0</ele><time>2026-04-20T10:32:00.949Z</time></trkpt><trkpt lat="33.2138383" lon="10.236165"><ele>445.5</ele><time>2026-04-20T10:32:01.949Z</time></trkpt><trkpt lat="33.213725" lon="10.2362"><ele>444.0</ele><time>2026-04-20T10:32:02.949Z</time></trkpt><trkpt lat="33.213625" lon="10.236235"><ele>444.0</ele><time>2026-04-20T10:32:03.949Z</time></trkpt><trkpt lat="33.2135267" lon="10.2362617"><ele>444.0</ele><time>2026-04-20T10:32:04.949Z</time></trkpt><trkpt lat="33.2134383" lon="10.2362717"><ele>444.0</ele><time>2026-04-20T10:32:05.949Z</time></trkpt><trkpt lat="33.213355" lon="10.2362783"><ele>444.0</ele><time>2026-04-20T10:32:06.949Z</time></trkpt><trkpt lat="33.2132767" lon="10.23628"><ele>444.0</ele><time>2026-04-20T10:32:07.949Z</time></trkpt><trkpt lat="33.2132017" lon="10.23628"><ele>444.0</ele><time>2026-04-20T10:32:08.949Z</time></trkpt><trkpt lat="33.2131367" lon="10.23628"><ele>443.6666666666667</ele><time>2026-04-20T10:32:09.949Z</time></trkpt><trkpt lat="33.2130333" lon="10.23629"><ele>443.33333333333337</ele><time>2026-04-20T10:32:11.949Z</time></trkpt><trkpt lat="33.2129583" lon="10.23631"><ele>443.0</ele><time>2026-04-20T10:32:13.949Z</time></trkpt><trkpt lat="33.2129033" lon="10.23637"><ele>442.6666666666667</ele><time>2026-04-20T10:32:15.949Z</time></trkpt><trkpt lat="33.2128667" lon="10.2364417"><ele>442.33333333333337</ele><time>2026-04-20T10:32:17.949Z</time></trkpt><trkpt lat="33.21283" lon="10.2365167"><ele>442.0</ele><time>2026-04-20T10:33:04.948Z</time></trkpt><trkpt lat="33.212775" lon="10.2366383"><ele>442.0</ele><time>2026-04-20T10:33:06.948Z</time></trkpt><trkpt lat="33.2127367" lon="10.2367283"><ele>442.00000000000006</ele><time>2026-04-20T10:33:07.948Z</time></trkpt><trkpt lat="33.21269" lon="10.23683"><ele>442.00000000000006</ele><time>2026-04-20T10:33:08.948Z</time></trkpt><trkpt lat="33.21264" lon="10.2369433"><ele>442.0</ele><time>2026-04-20T10:33:09.948Z</time></trkpt><trkpt lat="33.2125867" lon="10.2370683"><ele>442.0</ele><time>2026-04-20T10:33:10.948Z</time></trkpt><trkpt lat="33.2125217" lon="10.2372117"><ele>442.33333333333337</ele><time>2026-04-20T10:33:11.948Z</time></trkpt><trkpt lat="33.2124517" lon="10.23736"><ele>442.66666666666663</ele><time>2026-04-20T10:33:12.948Z</time></trkpt><trkpt lat="33.212375" lon="10.23752"><ele>443.0</ele><time>2026-04-20T10:33:13.948Z</time></trkpt><trkpt lat="33.2122967" lon="10.23768"><ele>442.3333333333333</ele><time>2026-04-20T10:33:14.948Z</time></trkpt><trkpt lat="33.2122167" lon="10.237855"><ele>441.66666666666663</ele><time>2026-04-20T10:33:15.948Z</time></trkpt><trkpt lat="33.2121333" lon="10.238035"><ele>441.0</ele><time>2026-04-20T10:33:16.948Z</time></trkpt><trkpt lat="33.2120483" lon="10.238215"><ele>441.0</ele><time>2026-04-20T10:33:17.948Z</time></trkpt><trkpt lat="33.2119583" lon="10.2384017"><ele>441.0</ele><time>2026-04-20T10:33:18.948Z</time></trkpt><trkpt lat="33.211865" lon="10.2386017"><ele>441.0</ele><time>2026-04-20T10:33:19.948Z</time></trkpt><trkpt lat="33.2117733" lon="10.2388"><ele>441.0</ele><time>2026-04-20T10:33:20.948Z</time></trkpt><trkpt lat="33.211675" lon="10.2390017"><ele>441.0</ele><time>2026-04-20T10:33:21.948Z</time></trkpt><trkpt lat="33.2115733" lon="10.2392133"><ele>441.0</ele><time>2026-04-20T10:33:22.948Z</time></trkpt><trkpt lat="33.2114583" lon="10.2394167"><ele>441.0</ele><time>2026-04-20T10:33:23.948Z</time></trkpt><trkpt lat="33.21133" lon="10.2396167"><ele>441.0</ele><time>2026-04-20T10:33:24.948Z</time></trkpt><trkpt lat="33.2111867" lon="10.2398067"><ele>441.0</ele><time>2026-04-20T10:33:25.948Z</time></trkpt><trkpt lat="33.21104" lon="10.23999"><ele>441.66666666666663</ele><time>2026-04-20T10:33:26.948Z</time></trkpt><trkpt lat="33.210895" lon="10.240175"><ele>442.3333333333333</ele><time>2026-04-20T10:33:27.948Z</time></trkpt><trkpt lat="33.2107433" lon="10.2403733"><ele>443.0</ele><time>2026-04-20T10:33:28.948Z</time></trkpt><trkpt lat="33.2106" lon="10.240555"><ele>444.66666666666663</ele><time>2026-04-20T10:33:29.948Z</time></trkpt><trkpt lat="33.2104517" lon="10.2407333"><ele>446.33333333333337</ele><time>2026-04-20T10:33:30.948Z</time></trkpt><trkpt lat="33.2103017" lon="10.24093"><ele>448.0</ele><time>2026-04-20T10:33:31.948Z</time></trkpt><trkpt lat="33.2101533" lon="10.2411117"><ele>448.0</ele><time>2026-04-20T10:33:32.948Z</time></trkpt><trkpt lat="33.2100133" lon="10.2412817"><ele>448.0</ele><time>2026-04-20T10:33:33.948Z</time></trkpt><trkpt lat="33.209855" lon="10.2414167"><ele>448.0</ele><time>2026-04-20T10:33:34.948Z</time></trkpt><trkpt lat="33.2097017" lon="10.24149"><ele>448.33333333333337</ele><time>2026-04-20T10:33:35.948Z</time></trkpt><trkpt lat="33.20955" lon="10.2415217"><ele>448.66666666666663</ele><time>2026-04-20T10:33:36.948Z</time></trkpt><trkpt lat="33.2093883" lon="10.241525"><ele>449.0</ele><time>2026-04-20T10:33:37.948Z</time></trkpt><trkpt lat="33.2092067" lon="10.2415183"><ele>449.0</ele><time>2026-04-20T10:33:38.948Z</time></trkpt><trkpt lat="33.209015" lon="10.2415117"><ele>449.0</ele><time>2026-04-20T10:33:39.948Z</time></trkpt><trkpt lat="33.20883" lon="10.2415017"><ele>449.0</ele><time>2026-04-20T10:33:40.948Z</time></trkpt><trkpt lat="33.2086467" lon="10.2414883"><ele>449.0</ele><time>2026-04-20T10:33:41.948Z</time></trkpt><trkpt lat="33.2084517" lon="10.2414733"><ele>449.0</ele><time>2026-04-20T10:33:42.948Z</time></trkpt><trkpt lat="33.2082517" lon="10.2414567"><ele>449.0</ele><time>2026-04-20T10:33:43.948Z</time></trkpt><trkpt lat="33.2080483" lon="10.2414383"><ele>448.3333333333333</ele><time>2026-04-20T10:33:44.948Z</time></trkpt><trkpt lat="33.207845" lon="10.2414233"><ele>447.66666666666663</ele><time>2026-04-20T10:33:45.948Z</time></trkpt><trkpt lat="33.207635" lon="10.2414067"><ele>447.0</ele><time>2026-04-20T10:33:46.948Z</time></trkpt><trkpt lat="33.20744" lon="10.2413767"><ele>446.0</ele><time>2026-04-20T10:33:47.949Z</time></trkpt><trkpt lat="33.2072367" lon="10.241335"><ele>445.0</ele><time>2026-04-20T10:33:48.948Z</time></trkpt><trkpt lat="33.2070383" lon="10.2412667"><ele>444.0</ele><time>2026-04-20T10:33:49.948Z</time></trkpt><trkpt lat="33.2068467" lon="10.241165"><ele>444.0</ele><time>2026-04-20T10:33:50.948Z</time></trkpt><trkpt lat="33.206655" lon="10.2410517"><ele>444.0</ele><time>2026-04-20T10:33:51.948Z</time></trkpt><trkpt lat="33.206465" lon="10.2409317"><ele>444.0</ele><time>2026-04-20T10:33:52.948Z</time></trkpt><trkpt lat="33.2062867" lon="10.2408"><ele>444.33333333333337</ele><time>2026-04-20T10:33:53.948Z</time></trkpt><trkpt lat="33.2061217" lon="10.2406667"><ele>444.6666666666667</ele><time>2026-04-20T10:33:54.948Z</time></trkpt><trkpt lat="33.2059631" lon="10.2405409"><ele>445.0</ele><time>2026-04-20T10:33:55.948Z</time></trkpt><trkpt lat="33.2058214" lon="10.24041"><ele>445.0</ele><time>2026-04-20T10:33:56.948Z</time></trkpt><trkpt lat="33.2057046" lon="10.2402586"><ele>445.0</ele><time>2026-04-20T10:33:57.948Z</time></trkpt><trkpt lat="33.2055964" lon="10.2400896"><ele>445.0</ele><time>2026-04-20T10:33:58.948Z</time></trkpt><trkpt lat="33.2054799" lon="10.239922"><ele>442.0</ele><time>2026-04-20T10:33:59.948Z</time></trkpt><trkpt lat="33.2052213" lon="10.2396567"><ele>439.0</ele><time>2026-04-20T10:34:01.948Z</time></trkpt><trkpt lat="33.2050662" lon="10.2395858"><ele>439.0</ele><time>2026-04-20T10:34:02.948Z</time></trkpt><trkpt lat="33.2049003" lon="10.2395581"><ele>439.0</ele><time>2026-04-20T10:34:03.948Z</time></trkpt><trkpt lat="33.2047279" lon="10.2395439"><ele>439.0</ele><time>2026-04-20T10:34:04.948Z</time></trkpt><trkpt lat="33.2045546" lon="10.2395371"><ele>437.6666666666667</ele><time>2026-04-20T10:34:05.949Z</time></trkpt><trkpt lat="33.2043923" lon="10.2395208"><ele>436.33333333333337</ele><time>2026-04-20T10:34:06.948Z</time></trkpt><trkpt lat="33.2042406" lon="10.2394965"><ele>435.0</ele><time>2026-04-20T10:34:07.948Z</time></trkpt><trkpt lat="33.2040978" lon="10.2394626"><ele>434.75</ele><time>2026-04-20T10:34:08.948Z</time></trkpt><trkpt lat="33.2039722" lon="10.239392"><ele>434.5</ele><time>2026-04-20T10:34:09.948Z</time></trkpt><trkpt lat="33.2038644" lon="10.2392902"><ele>434.25</ele><time>2026-04-20T10:34:10.948Z</time></trkpt><trkpt lat="33.2037779" lon="10.2391559"><ele>434.0</ele><time>2026-04-20T10:34:11.948Z</time></trkpt><trkpt lat="33.2036849" lon="10.2390111"><ele>432.66666666666663</ele><time>2026-04-20T10:34:12.948Z</time></trkpt><trkpt lat="33.2035768" lon="10.2388702"><ele>431.33333333333337</ele><time>2026-04-20T10:34:13.948Z</time></trkpt><trkpt lat="33.2034482" lon="10.2387322"><ele>430.0</ele><time>2026-04-20T10:34:14.948Z</time></trkpt><trkpt lat="33.2033114" lon="10.2385986"><ele>430.0</ele><time>2026-04-20T10:34:15.948Z</time></trkpt><trkpt lat="33.2031679" lon="10.2384671"><ele>430.0</ele><time>2026-04-20T10:34:16.948Z</time></trkpt><trkpt lat="33.2030216" lon="10.238339"><ele>430.0</ele><time>2026-04-20T10:34:17.948Z</time></trkpt><trkpt lat="33.2028748" lon="10.2382158"><ele>429.6666666666667</ele><time>2026-04-20T10:34:18.948Z</time></trkpt><trkpt lat="33.202728" lon="10.2381062"><ele>429.33333333333337</ele><time>2026-04-20T10:34:19.948Z</time></trkpt><trkpt lat="33.2025816" lon="10.238038"><ele>429.0</ele><time>2026-04-20T10:34:20.948Z</time></trkpt><trkpt lat="33.2024275" lon="10.2380099"><ele>428.33333333333337</ele><time>2026-04-20T10:34:21.948Z</time></trkpt><trkpt lat="33.2022683" lon="10.2380223"><ele>427.6666666666667</ele><time>2026-04-20T10:34:22.948Z</time></trkpt><trkpt lat="33.202113" lon="10.2380785"><ele>427.0</ele><time>2026-04-20T10:34:23.948Z</time></trkpt><trkpt lat="33.2019577" lon="10.2381552"><ele>427.0</ele><time>2026-04-20T10:34:24.948Z</time></trkpt><trkpt lat="33.2017998" lon="10.2382358"><ele>427.0</ele><time>2026-04-20T10:34:25.948Z</time></trkpt><trkpt lat="33.2016376" lon="10.2383048"><ele>427.0</ele><time>2026-04-20T10:34:26.948Z</time></trkpt><trkpt lat="33.2014737" lon="10.2383671"><ele>428.33333333333337</ele><time>2026-04-20T10:34:27.948Z</time></trkpt><trkpt lat="33.2013167" lon="10.2383983"><ele>429.66666666666663</ele><time>2026-04-20T10:34:28.948Z</time></trkpt><trkpt lat="33.2011645" lon="10.2383966"><ele>431.0</ele><time>2026-04-20T10:34:29.948Z</time></trkpt><trkpt lat="33.201012" lon="10.238353"><ele>431.0</ele><time>2026-04-20T10:34:30.948Z</time></trkpt><trkpt lat="33.2008577" lon="10.2382803"><ele>431.0</ele><time>2026-04-20T10:34:31.948Z</time></trkpt><trkpt lat="33.2007034" lon="10.2381897"><ele>431.0</ele><time>2026-04-20T10:34:32.948Z</time></trkpt><trkpt lat="33.2005463" lon="10.2380957"><ele>427.0</ele><time>2026-04-20T10:34:33.948Z</time></trkpt><trkpt lat="33.2003915" lon="10.2379924"><ele>423.0</ele><time>2026-04-20T10:34:34.948Z</time></trkpt><trkpt lat="33.2002397" lon="10.2378746"><ele>419.0</ele><time>2026-04-20T10:34:35.948Z</time></trkpt><trkpt lat="33.2000931" lon="10.2377445"><ele>419.0</ele><time>2026-04-20T10:34:36.948Z</time></trkpt><trkpt lat="33.1999568" lon="10.2376066"><ele>419.0</ele><time>2026-04-20T10:34:37.948Z</time></trkpt><trkpt lat="33.1998454" lon="10.2374526"><ele>419.0</ele><time>2026-04-20T10:34:38.948Z</time></trkpt><trkpt lat="33.1997567" lon="10.2372773"><ele>418.66666666666663</ele><time>2026-04-20T10:34:39.948Z</time></trkpt><trkpt lat="33.1996838" lon="10.237092"><ele>418.33333333333337</ele><time>2026-04-20T10:34:40.948Z</time></trkpt><trkpt lat="33.1996131" lon="10.2369291"><ele>418.0</ele><time>2026-04-20T10:34:41.948Z</time></trkpt><trkpt lat="33.1995224" lon="10.2368091"><ele>418.0</ele><time>2026-04-20T10:34:42.948Z</time></trkpt><trkpt lat="33.1994017" lon="10.2367183"><ele>418.0</ele><time>2026-04-20T10:34:43.948Z</time></trkpt><trkpt lat="33.1992583" lon="10.2366433"><ele>418.0</ele><time>2026-04-20T10:34:44.948Z</time></trkpt><trkpt lat="33.1991083" lon="10.236565"><ele>420.0</ele><time>2026-04-20T10:34:45.948Z</time></trkpt><trkpt lat="33.19894" lon="10.2364867"><ele>422.0</ele><time>2026-04-20T10:34:46.948Z</time></trkpt><trkpt lat="33.1987717" lon="10.23641"><ele>424.0</ele><time>2026-04-20T10:34:47.948Z</time></trkpt><trkpt lat="33.1985933" lon="10.2363333"><ele>420.0</ele><time>2026-04-20T10:34:48.948Z</time></trkpt><trkpt lat="33.1984083" lon="10.2362567"><ele>416.0</ele><time>2026-04-20T10:34:49.948Z</time></trkpt><trkpt lat="33.198215" lon="10.236185"><ele>412.0</ele><time>2026-04-20T10:34:50.948Z</time></trkpt><trkpt lat="33.1980267" lon="10.2361017"><ele>411.0</ele><time>2026-04-20T10:34:51.948Z</time></trkpt><trkpt lat="33.1978583" lon="10.236005"><ele>410.0</ele><time>2026-04-20T10:34:52.948Z</time></trkpt><trkpt lat="33.197685" lon="10.2359"><ele>409.0</ele><time>2026-04-20T10:34:53.948Z</time></trkpt><trkpt lat="33.19752" lon="10.2358017"><ele>409.0</ele><time>2026-04-20T10:34:54.948Z</time></trkpt><trkpt lat="33.1973767" lon="10.2357083"><ele>409.0</ele><time>2026-04-20T10:34:55.948Z</time></trkpt><trkpt lat="33.1972533" lon="10.235655"><ele>409.0</ele><time>2026-04-20T10:34:56.948Z</time></trkpt><trkpt lat="33.19714" lon="10.2356367"><ele>409.0</ele><time>2026-04-20T10:34:57.948Z</time></trkpt><trkpt lat="33.1970267" lon="10.235695"><ele>410.0</ele><time>2026-04-20T10:34:58.948Z</time></trkpt><trkpt lat="33.196905" lon="10.23579"><ele>411.0</ele><time>2026-04-20T10:34:59.948Z</time></trkpt><trkpt lat="33.196775" lon="10.2358967"><ele>412.0</ele><time>2026-04-20T10:35:00.948Z</time></trkpt><trkpt lat="33.1966367" lon="10.2360017"><ele>414.6666666666667</ele><time>2026-04-20T10:35:01.948Z</time></trkpt><trkpt lat="33.196495" lon="10.2361033"><ele>417.33333333333337</ele><time>2026-04-20T10:35:02.948Z</time></trkpt><trkpt lat="33.1963333" lon="10.2361983"><ele>420.0</ele><time>2026-04-20T10:35:03.948Z</time></trkpt><trkpt lat="33.1961633" lon="10.2362667"><ele>420.0</ele><time>2026-04-20T10:35:04.948Z</time></trkpt><trkpt lat="33.1959817" lon="10.236335"><ele>420.0</ele><time>2026-04-20T10:35:05.948Z</time></trkpt><trkpt lat="33.1957917" lon="10.2364"><ele>420.0</ele><time>2026-04-20T10:35:06.948Z</time></trkpt><trkpt lat="33.1956033" lon="10.23646"><ele>413.33333333333337</ele><time>2026-04-20T10:35:07.948Z</time></trkpt><trkpt lat="33.1954183" lon="10.2365217"><ele>406.6666666666667</ele><time>2026-04-20T10:35:08.948Z</time></trkpt><trkpt lat="33.195235" lon="10.236585"><ele>400.0</ele><time>2026-04-20T10:35:09.948Z</time></trkpt><trkpt lat="33.1950417" lon="10.2366467"><ele>400.0</ele><time>2026-04-20T10:35:10.948Z</time></trkpt><trkpt lat="33.1948533" lon="10.2366717"><ele>400.0</ele><time>2026-04-20T10:35:11.948Z</time></trkpt><trkpt lat="33.194675" lon="10.236665"><ele>400.0</ele><time>2026-04-20T10:35:12.948Z</time></trkpt><trkpt lat="33.1944967" lon="10.2366333"><ele>400.6666666666667</ele><time>2026-04-20T10:35:13.948Z</time></trkpt><trkpt lat="33.1943267" lon="10.2365683"><ele>401.33333333333337</ele><time>2026-04-20T10:35:14.948Z</time></trkpt><trkpt lat="33.1941567" lon="10.2364733"><ele>402.0</ele><time>2026-04-20T10:35:15.948Z</time></trkpt><trkpt lat="33.1940017" lon="10.2363733"><ele>402.0</ele><time>2026-04-20T10:35:16.948Z</time></trkpt><trkpt lat="33.19383" lon="10.2362667"><ele>402.0</ele><time>2026-04-20T10:35:17.948Z</time></trkpt><trkpt lat="33.19365" lon="10.23615"><ele>402.0</ele><time>2026-04-20T10:35:18.948Z</time></trkpt><trkpt lat="33.19348" lon="10.2360317"><ele>402.0</ele><time>2026-04-20T10:35:19.948Z</time></trkpt><trkpt lat="33.1932983" lon="10.2359133"><ele>402.0</ele><time>2026-04-20T10:35:20.948Z</time></trkpt><trkpt lat="33.1931133" lon="10.2357933"><ele>402.0</ele><time>2026-04-20T10:35:21.948Z</time></trkpt><trkpt lat="33.1929283" lon="10.2356633"><ele>398.5</ele><time>2026-04-20T10:35:22.948Z</time></trkpt><trkpt lat="33.192735" lon="10.2355367"><ele>395.0</ele><time>2026-04-20T10:35:23.948Z</time></trkpt><trkpt lat="33.1925233" lon="10.23542"><ele>394.5</ele><time>2026-04-20T10:35:24.948Z</time></trkpt><trkpt lat="33.1923183" lon="10.2353117"><ele>394.0</ele><time>2026-04-20T10:35:25.948Z</time></trkpt><trkpt lat="33.19211" lon="10.2352"><ele>394.0</ele><time>2026-04-20T10:35:26.948Z</time></trkpt><trkpt lat="33.1918967" lon="10.2350983"><ele>394.0</ele><time>2026-04-20T10:35:27.948Z</time></trkpt><trkpt lat="33.19168" lon="10.234995"><ele>394.6666666666667</ele><time>2026-04-20T10:35:28.948Z</time></trkpt><trkpt lat="33.1914733" lon="10.234895"><ele>395.33333333333337</ele><time>2026-04-20T10:35:29.948Z</time></trkpt><trkpt lat="33.1912667" lon="10.2347983"><ele>396.0</ele><time>2026-04-20T10:35:30.948Z</time></trkpt><trkpt lat="33.1910817" lon="10.2347083"><ele>394.33333333333337</ele><time>2026-04-20T10:35:31.948Z</time></trkpt><trkpt lat="33.190915" lon="10.23465"><ele>392.6666666666667</ele><time>2026-04-20T10:35:32.948Z</time></trkpt><trkpt lat="33.190765" lon="10.234645"><ele>391.0</ele><time>2026-04-20T10:35:33.948Z</time></trkpt><trkpt lat="33.1906133" lon="10.2346917"><ele>390.6666666666667</ele><time>2026-04-20T10:35:34.948Z</time></trkpt><trkpt lat="33.1904767" lon="10.234785"><ele>390.33333333333337</ele><time>2026-04-20T10:35:35.948Z</time></trkpt><trkpt lat="33.1903483" lon="10.2349033"><ele>390.0</ele><time>2026-04-20T10:35:36.948Z</time></trkpt><trkpt lat="33.1902283" lon="10.2350367"><ele>390.0</ele><time>2026-04-20T10:35:37.948Z</time></trkpt><trkpt lat="33.1901133" lon="10.235185"><ele>390.0</ele><time>2026-04-20T10:35:38.948Z</time></trkpt><trkpt lat="33.1899933" lon="10.2353367"><ele>390.0</ele><time>2026-04-20T10:35:39.948Z</time></trkpt><trkpt lat="33.1898683" lon="10.2354667"><ele>388.66666666666663</ele><time>2026-04-20T10:35:40.948Z</time></trkpt><trkpt lat="33.1897283" lon="10.2356067"><ele>387.3333333333333</ele><time>2026-04-20T10:35:41.948Z</time></trkpt><trkpt lat="33.1895833" lon="10.2357317"><ele>386.0</ele><time>2026-04-20T10:35:42.948Z</time></trkpt><trkpt lat="33.1894317" lon="10.2358483"><ele>385.66666666666663</ele><time>2026-04-20T10:35:43.948Z</time></trkpt><trkpt lat="33.1892717" lon="10.2359733"><ele>385.33333333333337</ele><time>2026-04-20T10:35:44.948Z</time></trkpt><trkpt lat="33.1891183" lon="10.2361117"><ele>385.0</ele><time>2026-04-20T10:35:45.948Z</time></trkpt><trkpt lat="33.18898" lon="10.2362583"><ele>384.0</ele><time>2026-04-20T10:35:46.948Z</time></trkpt><trkpt lat="33.18884" lon="10.2364183"><ele>383.0</ele><time>2026-04-20T10:35:47.948Z</time></trkpt><trkpt lat="33.1887083" lon="10.2365883"><ele>382.0</ele><time>2026-04-20T10:35:48.948Z</time></trkpt><trkpt lat="33.1885833" lon="10.2367667"><ele>382.0</ele><time>2026-04-20T10:35:49.948Z</time></trkpt><trkpt lat="33.188455" lon="10.2369533"><ele>382.0</ele><time>2026-04-20T10:35:50.948Z</time></trkpt><trkpt lat="33.188325" lon="10.23713"><ele>382.0</ele><time>2026-04-20T10:35:51.948Z</time></trkpt><trkpt lat="33.1881883" lon="10.23732"><ele>381.3333333333333</ele><time>2026-04-20T10:35:52.948Z</time></trkpt><trkpt lat="33.188055" lon="10.23751"><ele>380.6666666666667</ele><time>2026-04-20T10:35:53.948Z</time></trkpt><trkpt lat="33.1879183" lon="10.2376983"><ele>380.0</ele><time>2026-04-20T10:35:54.948Z</time></trkpt><trkpt lat="33.187775" lon="10.2378833"><ele>380.0</ele><time>2026-04-20T10:35:55.948Z</time></trkpt><trkpt lat="33.18763" lon="10.2380733"><ele>380.0</ele><time>2026-04-20T10:35:56.948Z</time></trkpt><trkpt lat="33.1874933" lon="10.2382667"><ele>380.0</ele><time>2026-04-20T10:35:57.948Z</time></trkpt><trkpt lat="33.1873433" lon="10.238465"><ele>379.6666666666667</ele><time>2026-04-20T10:35:58.948Z</time></trkpt><trkpt lat="33.1872017" lon="10.2386667"><ele>379.3333333333333</ele><time>2026-04-20T10:35:59.948Z</time></trkpt><trkpt lat="33.1870517" lon="10.2388667"><ele>379.0</ele><time>2026-04-20T10:36:00.948Z</time></trkpt><trkpt lat="33.1869" lon="10.2390633"><ele>379.0</ele><time>2026-04-20T10:36:01.948Z</time></trkpt><trkpt lat="33.1867483" lon="10.2392533"><ele>379.0</ele><time>2026-04-20T10:36:02.948Z</time></trkpt><trkpt lat="33.1865917" lon="10.239445"><ele>379.0</ele><time>2026-04-20T10:36:03.948Z</time></trkpt><trkpt lat="33.186425" lon="10.239625"><ele>377.5</ele><time>2026-04-20T10:36:04.948Z</time></trkpt><trkpt lat="33.1862433" lon="10.2397883"><ele>376.0</ele><time>2026-04-20T10:36:05.948Z</time></trkpt><trkpt lat="33.1860617" lon="10.2399517"><ele>376.0</ele><time>2026-04-20T10:36:06.948Z</time></trkpt><trkpt lat="33.185875" lon="10.2401017"><ele>376.0</ele><time>2026-04-20T10:36:07.948Z</time></trkpt><trkpt lat="33.1856883" lon="10.240245"><ele>376.0</ele><time>2026-04-20T10:36:08.948Z</time></trkpt><trkpt lat="33.1854967" lon="10.2403917"><ele>376.0</ele><time>2026-04-20T10:36:09.948Z</time></trkpt><trkpt lat="33.18531" lon="10.2405333"><ele>376.0</ele><time>2026-04-20T10:36:10.948Z</time></trkpt><trkpt lat="33.18512" lon="10.240675"><ele>376.0</ele><time>2026-04-20T10:36:11.948Z</time></trkpt><trkpt lat="33.184935" lon="10.240815"><ele>375.3333333333333</ele><time>2026-04-20T10:36:12.948Z</time></trkpt><trkpt lat="33.1847483" lon="10.2409583"><ele>374.6666666666667</ele><time>2026-04-20T10:36:13.948Z</time></trkpt><trkpt lat="33.1845683" lon="10.2410967"><ele>374.0</ele><time>2026-04-20T10:36:14.948Z</time></trkpt><trkpt lat="33.184395" lon="10.2412367"><ele>374.0</ele><time>2026-04-20T10:36:15.948Z</time></trkpt><trkpt lat="33.184225" lon="10.2413817"><ele>374.0</ele><time>2026-04-20T10:36:16.948Z</time></trkpt><trkpt lat="33.18405" lon="10.2415367"><ele>374.0</ele><time>2026-04-20T10:36:17.948Z</time></trkpt><trkpt lat="33.1838817" lon="10.241695"><ele>373.6666666666667</ele><time>2026-04-20T10:36:18.947Z</time></trkpt><trkpt lat="33.1837183" lon="10.2418583"><ele>373.3333333333333</ele><time>2026-04-20T10:36:19.947Z</time></trkpt><trkpt lat="33.1835567" lon="10.2420267"><ele>373.0</ele><time>2026-04-20T10:36:20.947Z</time></trkpt><trkpt lat="33.18339" lon="10.2421917"><ele>373.3333333333333</ele><time>2026-04-20T10:36:21.947Z</time></trkpt><trkpt lat="33.18322" lon="10.2423617"><ele>373.6666666666667</ele><time>2026-04-20T10:36:22.947Z</time></trkpt><trkpt lat="33.1830533" lon="10.2425333"><ele>374.0</ele><time>2026-04-20T10:36:23.947Z</time></trkpt><trkpt lat="33.1828867" lon="10.2427033"><ele>373.33333333333337</ele><time>2026-04-20T10:36:24.947Z</time></trkpt><trkpt lat="33.1827233" lon="10.24287"><ele>372.6666666666667</ele><time>2026-04-20T10:36:25.947Z</time></trkpt><trkpt lat="33.182565" lon="10.243035"><ele>372.0</ele><time>2026-04-20T10:36:26.947Z</time></trkpt><trkpt lat="33.1824117" lon="10.2432283"><ele>371.5</ele><time>2026-04-20T10:36:27.947Z</time></trkpt><trkpt lat="33.1822733" lon="10.2434417"><ele>371.0</ele><time>2026-04-20T10:36:28.947Z</time></trkpt><trkpt lat="33.1821483" lon="10.2436633"><ele>371.0</ele><time>2026-04-20T10:36:29.947Z</time></trkpt><trkpt lat="33.1820283" lon="10.2438933"><ele>371.0</ele><time>2026-04-20T10:36:30.947Z</time></trkpt><trkpt lat="33.1819217" lon="10.244135"><ele>370.5</ele><time>2026-04-20T10:36:31.947Z</time></trkpt><trkpt lat="33.1818217" lon="10.24438"><ele>370.0</ele><time>2026-04-20T10:36:32.947Z</time></trkpt><trkpt lat="33.1817283" lon="10.2446233"><ele>370.3333333333333</ele><time>2026-04-20T10:36:33.947Z</time></trkpt><trkpt lat="33.1816367" lon="10.2448683"><ele>370.6666666666667</ele><time>2026-04-20T10:36:34.947Z</time></trkpt><trkpt lat="33.1815533" lon="10.2451133"><ele>371.0</ele><time>2026-04-20T10:36:35.947Z</time></trkpt><trkpt lat="33.1814717" lon="10.2453617"><ele>370.5</ele><time>2026-04-20T10:36:36.947Z</time></trkpt><trkpt lat="33.1813933" lon="10.2456167"><ele>370.0</ele><time>2026-04-20T10:36:37.947Z</time></trkpt><trkpt lat="33.1813183" lon="10.2458767"><ele>370.0</ele><time>2026-04-20T10:36:38.947Z</time></trkpt><trkpt lat="33.1812467" lon="10.2461367"><ele>370.0</ele><time>2026-04-20T10:36:39.947Z</time></trkpt><trkpt lat="33.1811833" lon="10.2464"><ele>370.0</ele><time>2026-04-20T10:36:40.947Z</time></trkpt><trkpt lat="33.18113" lon="10.2466683"><ele>370.0</ele><time>2026-04-20T10:36:41.947Z</time></trkpt><trkpt lat="33.1810883" lon="10.2469467"><ele>370.0</ele><time>2026-04-20T10:36:42.947Z</time></trkpt><trkpt lat="33.1810517" lon="10.2472233"><ele>370.0</ele><time>2026-04-20T10:36:43.947Z</time></trkpt><trkpt lat="33.18101" lon="10.2475017"><ele>369.5</ele><time>2026-04-20T10:36:44.947Z</time></trkpt><trkpt lat="33.1809717" lon="10.2477817"><ele>369.0</ele><time>2026-04-20T10:36:45.947Z</time></trkpt><trkpt lat="33.1809417" lon="10.2480683"><ele>367.0</ele><time>2026-04-20T10:36:46.947Z</time></trkpt><trkpt lat="33.18091" lon="10.248355"><ele>365.0</ele><time>2026-04-20T10:36:47.947Z</time></trkpt><trkpt lat="33.1808767" lon="10.2486467"><ele>365.0</ele><time>2026-04-20T10:36:48.947Z</time></trkpt><trkpt lat="33.1808517" lon="10.2489333"><ele>365.0</ele><time>2026-04-20T10:36:49.947Z</time></trkpt><trkpt lat="33.1808317" lon="10.249215"><ele>365.0</ele><time>2026-04-20T10:36:50.947Z</time></trkpt><trkpt lat="33.1808233" lon="10.2495017"><ele>365.0</ele><time>2026-04-20T10:36:51.947Z</time></trkpt><trkpt lat="33.1808233" lon="10.249785"><ele>366.5</ele><time>2026-04-20T10:36:52.947Z</time></trkpt><trkpt lat="33.18082" lon="10.2500717"><ele>368.0</ele><time>2026-04-20T10:36:53.947Z</time></trkpt><trkpt lat="33.1808183" lon="10.250355"><ele>367.0</ele><time>2026-04-20T10:36:54.947Z</time></trkpt><trkpt lat="33.1808133" lon="10.2506333"><ele>366.0</ele><time>2026-04-20T10:36:55.947Z</time></trkpt><trkpt lat="33.18081" lon="10.2509117"><ele>366.0</ele><time>2026-04-20T10:36:56.947Z</time></trkpt><trkpt lat="33.1808033" lon="10.2511817"><ele>366.0</ele><time>2026-04-20T10:36:57.947Z</time></trkpt><trkpt lat="33.1808017" lon="10.251445"><ele>366.0</ele><time>2026-04-20T10:36:58.947Z</time></trkpt><trkpt lat="33.1807933" lon="10.2516883"><ele>366.3333333333333</ele><time>2026-04-20T10:36:59.947Z</time></trkpt><trkpt lat="33.1807717" lon="10.2519233"><ele>366.66666666666663</ele><time>2026-04-20T10:37:00.947Z</time></trkpt><trkpt lat="33.1807433" lon="10.25215"><ele>367.0</ele><time>2026-04-20T10:37:01.947Z</time></trkpt><trkpt lat="33.1807083" lon="10.2523783"><ele>368.66666666666663</ele><time>2026-04-20T10:37:02.947Z</time></trkpt><trkpt lat="33.1806783" lon="10.2526033"><ele>370.3333333333333</ele><time>2026-04-20T10:37:03.947Z</time></trkpt><trkpt lat="33.1806483" lon="10.2528183"><ele>372.0</ele><time>2026-04-20T10:37:04.947Z</time></trkpt><trkpt lat="33.180615" lon="10.253015"><ele>372.5</ele><time>2026-04-20T10:37:05.947Z</time></trkpt><trkpt lat="33.180575" lon="10.253185"><ele>373.0</ele><time>2026-04-20T10:37:06.947Z</time></trkpt><trkpt lat="33.1805133" lon="10.2533383"><ele>373.5</ele><time>2026-04-20T10:37:07.947Z</time></trkpt><trkpt lat="33.1804433" lon="10.253485"><ele>374.0</ele><time>2026-04-20T10:37:08.947Z</time></trkpt><trkpt lat="33.180375" lon="10.25362"><ele>374.0</ele><time>2026-04-20T10:37:09.947Z</time></trkpt><trkpt lat="33.18031" lon="10.2537367"><ele>374.0</ele><time>2026-04-20T10:37:10.947Z</time></trkpt><trkpt lat="33.1802383" lon="10.253845"><ele>374.0</ele><time>2026-04-20T10:37:11.947Z</time></trkpt><trkpt lat="33.1801633" lon="10.2539483"><ele>374.0</ele><time>2026-04-20T10:37:12.947Z</time></trkpt><trkpt lat="33.18008" lon="10.2540433"><ele>374.2</ele><time>2026-04-20T10:37:13.947Z</time></trkpt><trkpt lat="33.1799933" lon="10.2541417"><ele>374.4</ele><time>2026-04-20T10:37:14.947Z</time></trkpt><trkpt lat="33.1799067" lon="10.2542317"><ele>374.6</ele><time>2026-04-20T10:37:15.947Z</time></trkpt><trkpt lat="33.1798267" lon="10.2543133"><ele>374.8</ele><time>2026-04-20T10:37:16.947Z</time></trkpt><trkpt lat="33.1797483" lon="10.2543933"><ele>375.0</ele><time>2026-04-20T10:37:17.947Z</time></trkpt><trkpt lat="33.1796767" lon="10.25446"><ele>375.5</ele><time>2026-04-20T10:37:18.947Z</time></trkpt><trkpt lat="33.1796083" lon="10.254525"><ele>376.0</ele><time>2026-04-20T10:37:19.947Z</time></trkpt><trkpt lat="33.1795467" lon="10.2545767"><ele>376.5</ele><time>2026-04-20T10:37:20.947Z</time></trkpt><trkpt lat="33.1794933" lon="10.2546183"><ele>377.0</ele><time>2026-04-20T10:37:21.947Z</time></trkpt><trkpt lat="33.1794" lon="10.254685"><ele>377.5</ele><time>2026-04-20T10:37:23.947Z</time></trkpt><trkpt lat="33.179325" lon="10.2547433"><ele>378.0</ele><time>2026-04-20T10:37:25.947Z</time></trkpt><trkpt lat="33.179255" lon="10.254795"><ele>378.0</ele><time>2026-04-20T10:37:27.947Z</time></trkpt><trkpt lat="33.179175" lon="10.254855"><ele>378.0</ele><time>2026-04-20T10:37:29.947Z</time></trkpt><trkpt lat="33.17906" lon="10.2549133"><ele>378.0</ele><time>2026-04-20T10:37:31.947Z</time></trkpt><trkpt lat="33.1789933" lon="10.2549467"><ele>378.0</ele><time>2026-04-20T10:37:32.947Z</time></trkpt><trkpt lat="33.1789333" lon="10.2549883"><ele>378.0</ele><time>2026-04-20T10:37:33.947Z</time></trkpt><trkpt lat="33.1788717" lon="10.255045"><ele>378.0</ele><time>2026-04-20T10:37:34.947Z</time></trkpt><trkpt lat="33.1788067" lon="10.2551"><ele>378.2</ele><time>2026-04-20T10:37:35.947Z</time></trkpt><trkpt lat="33.178745" lon="10.2551633"><ele>378.4</ele><time>2026-04-20T10:37:36.947Z</time></trkpt><trkpt lat="33.1786783" lon="10.255235"><ele>378.59999999999997</ele><time>2026-04-20T10:37:37.947Z</time></trkpt><trkpt lat="33.17862" lon="10.2553267"><ele>378.79999999999995</ele><time>2026-04-20T10:37:38.947Z</time></trkpt><trkpt lat="33.1785733" lon="10.2554217"><ele>379.0</ele><time>2026-04-20T10:37:39.947Z</time></trkpt><trkpt lat="33.1785383" lon="10.2555217"><ele>378.0</ele><time>2026-04-20T10:37:40.947Z</time></trkpt><trkpt lat="33.1785167" lon="10.2556333"><ele>377.0</ele><time>2026-04-20T10:37:41.947Z</time></trkpt><trkpt lat="33.1785017" lon="10.25575"><ele>376.0</ele><time>2026-04-20T10:37:42.947Z</time></trkpt><trkpt lat="33.1784883" lon="10.255875"><ele>375.0</ele><time>2026-04-20T10:37:43.947Z</time></trkpt><trkpt lat="33.178475" lon="10.2559933"><ele>374.0</ele><time>2026-04-20T10:37:44.947Z</time></trkpt><trkpt lat="33.1784617" lon="10.2561083"><ele>374.0</ele><time>2026-04-20T10:37:45.947Z</time></trkpt><trkpt lat="33.1784417" lon="10.2562133"><ele>374.0</ele><time>2026-04-20T10:37:46.947Z</time></trkpt><trkpt lat="33.1784317" lon="10.2563233"><ele>374.0</ele><time>2026-04-20T10:37:47.947Z</time></trkpt><trkpt lat="33.178415" lon="10.2564467"><ele>374.0</ele><time>2026-04-20T10:37:48.947Z</time></trkpt><trkpt lat="33.1784017" lon="10.2565717"><ele>374.0</ele><time>2026-04-20T10:37:49.947Z</time></trkpt><trkpt lat="33.17839" lon="10.2566967"><ele>372.6</ele><time>2026-04-20T10:37:50.947Z</time></trkpt><trkpt lat="33.1783733" lon="10.2568183"><ele>371.2</ele><time>2026-04-20T10:37:51.947Z</time></trkpt><trkpt lat="33.1783517" lon="10.2569317"><ele>369.8</ele><time>2026-04-20T10:37:52.947Z</time></trkpt><trkpt lat="33.1783217" lon="10.2570333"><ele>368.40000000000003</ele><time>2026-04-20T10:37:53.947Z</time></trkpt><trkpt lat="33.17829" lon="10.25713"><ele>367.0</ele><time>2026-04-20T10:37:54.947Z</time></trkpt><trkpt lat="33.1782483" lon="10.2572233"><ele>365.20000000000005</ele><time>2026-04-20T10:37:55.947Z</time></trkpt><trkpt lat="33.1781933" lon="10.257315"><ele>363.4</ele><time>2026-04-20T10:37:56.947Z</time></trkpt><trkpt lat="33.178125" lon="10.257405"><ele>361.6</ele><time>2026-04-20T10:37:57.947Z</time></trkpt><trkpt lat="33.178025" lon="10.25748"><ele>359.79999999999995</ele><time>2026-04-20T10:37:58.947Z</time></trkpt><trkpt lat="33.1779083" lon="10.2575367"><ele>358.0</ele><time>2026-04-20T10:37:59.947Z</time></trkpt><trkpt lat="33.17777" lon="10.25758"><ele>357.66666666666663</ele><time>2026-04-20T10:38:00.947Z</time></trkpt><trkpt lat="33.1776183" lon="10.2576067"><ele>357.3333333333333</ele><time>2026-04-20T10:38:01.947Z</time></trkpt><trkpt lat="33.1774483" lon="10.2576283"><ele>357.0</ele><time>2026-04-20T10:38:02.947Z</time></trkpt><trkpt lat="33.1772733" lon="10.2576433"><ele>356.3333333333333</ele><time>2026-04-20T10:38:03.947Z</time></trkpt><trkpt lat="33.1770883" lon="10.2576517"><ele>355.66666666666663</ele><time>2026-04-20T10:38:04.947Z</time></trkpt><trkpt lat="33.1769033" lon="10.2576433"><ele>355.0</ele><time>2026-04-20T10:38:05.947Z</time></trkpt><trkpt lat="33.17672" lon="10.2576283"><ele>355.0</ele><time>2026-04-20T10:38:06.947Z</time></trkpt><trkpt lat="33.1765333" lon="10.257595"><ele>355.0</ele><time>2026-04-20T10:38:07.947Z</time></trkpt><trkpt lat="33.1763367" lon="10.2575583"><ele>355.0</ele><time>2026-04-20T10:38:08.948Z</time></trkpt><trkpt lat="33.1761533" lon="10.257505"><ele>353.66666666666663</ele><time>2026-04-20T10:38:09.947Z</time></trkpt><trkpt lat="33.1759617" lon="10.2574517"><ele>352.3333333333333</ele><time>2026-04-20T10:38:10.947Z</time></trkpt><trkpt lat="33.175765" lon="10.257405"><ele>351.0</ele><time>2026-04-20T10:38:11.947Z</time></trkpt><trkpt lat="33.1755633" lon="10.2573517"><ele>351.0</ele><time>2026-04-20T10:38:12.947Z</time></trkpt><trkpt lat="33.1753617" lon="10.25731"><ele>351.0</ele><time>2026-04-20T10:38:13.947Z</time></trkpt><trkpt lat="33.1751567" lon="10.2572783"><ele>351.0</ele><time>2026-04-20T10:38:14.947Z</time></trkpt><trkpt lat="33.1749417" lon="10.2572633"><ele>350.5</ele><time>2026-04-20T10:38:15.947Z</time></trkpt><trkpt lat="33.1747217" lon="10.2572733"><ele>350.0</ele><time>2026-04-20T10:38:16.947Z</time></trkpt><trkpt lat="33.1744917" lon="10.2573083"><ele>350.0</ele><time>2026-04-20T10:38:17.947Z</time></trkpt><trkpt lat="33.1742683" lon="10.2573433"><ele>350.0</ele><time>2026-04-20T10:38:18.947Z</time></trkpt><trkpt lat="33.1740483" lon="10.2573783"><ele>350.0</ele><time>2026-04-20T10:38:19.947Z</time></trkpt><trkpt lat="33.1738217" lon="10.2574183"><ele>350.6666666666667</ele><time>2026-04-20T10:38:20.947Z</time></trkpt><trkpt lat="33.1736017" lon="10.25745"><ele>351.3333333333333</ele><time>2026-04-20T10:38:21.948Z</time></trkpt><trkpt lat="33.1733867" lon="10.25748"><ele>352.0</ele><time>2026-04-20T10:38:22.947Z</time></trkpt><trkpt lat="33.1731683" lon="10.2575117"><ele>353.3333333333333</ele><time>2026-04-20T10:38:23.947Z</time></trkpt><trkpt lat="33.1729483" lon="10.2575433"><ele>354.6666666666667</ele><time>2026-04-20T10:38:24.947Z</time></trkpt><trkpt lat="33.172725" lon="10.2575817"><ele>356.0</ele><time>2026-04-20T10:38:25.947Z</time></trkpt><trkpt lat="33.1725033" lon="10.2576167"><ele>354.5</ele><time>2026-04-20T10:38:26.947Z</time></trkpt><trkpt lat="33.1722817" lon="10.2576417"><ele>353.0</ele><time>2026-04-20T10:38:27.947Z</time></trkpt><trkpt lat="33.1720483" lon="10.257675"><ele>353.0</ele><time>2026-04-20T10:38:28.947Z</time></trkpt><trkpt lat="33.1718167" lon="10.257715"><ele>353.0</ele><time>2026-04-20T10:38:29.947Z</time></trkpt><trkpt lat="33.17158" lon="10.2577683"><ele>351.33333333333337</ele><time>2026-04-20T10:38:30.947Z</time></trkpt><trkpt lat="33.171365" lon="10.2578267"><ele>349.6666666666667</ele><time>2026-04-20T10:38:31.947Z</time></trkpt><trkpt lat="33.1711517" lon="10.2579133"><ele>348.0</ele><time>2026-04-20T10:38:32.947Z</time></trkpt><trkpt lat="33.1709433" lon="10.2580233"><ele>350.5</ele><time>2026-04-20T10:38:33.947Z</time></trkpt><trkpt lat="33.1707317" lon="10.2581467"><ele>353.0</ele><time>2026-04-20T10:38:34.947Z</time></trkpt><trkpt lat="33.1705183" lon="10.258285"><ele>353.5</ele><time>2026-04-20T10:38:35.947Z</time></trkpt><trkpt lat="33.1703183" lon="10.25842"><ele>354.0</ele><time>2026-04-20T10:38:36.947Z</time></trkpt><trkpt lat="33.1701283" lon="10.2585533"><ele>354.0</ele><time>2026-04-20T10:38:37.947Z</time></trkpt><trkpt lat="33.1699367" lon="10.2586817"><ele>354.0</ele><time>2026-04-20T10:38:38.947Z</time></trkpt><trkpt lat="33.16974" lon="10.2588"><ele>354.0</ele><time>2026-04-20T10:38:39.947Z</time></trkpt><trkpt lat="33.1695517" lon="10.258925"><ele>354.3333333333333</ele><time>2026-04-20T10:38:40.947Z</time></trkpt><trkpt lat="33.1693717" lon="10.25905"><ele>354.66666666666663</ele><time>2026-04-20T10:38:41.947Z</time></trkpt><trkpt lat="33.169195" lon="10.25917"><ele>355.0</ele><time>2026-04-20T10:38:42.947Z</time></trkpt><trkpt lat="33.16905" lon="10.2593017"><ele>354.0</ele><time>2026-04-20T10:38:43.947Z</time></trkpt><trkpt lat="33.1689317" lon="10.2594567"><ele>353.0</ele><time>2026-04-20T10:38:44.947Z</time></trkpt><trkpt lat="33.1688333" lon="10.259645"><ele>352.0</ele><time>2026-04-20T10:38:45.947Z</time></trkpt><trkpt lat="33.1687467" lon="10.25984"><ele>352.0</ele><time>2026-04-20T10:38:46.947Z</time></trkpt><trkpt lat="33.168655" lon="10.2600483"><ele>352.0</ele><time>2026-04-20T10:38:47.947Z</time></trkpt><trkpt lat="33.1685617" lon="10.2602583"><ele>352.0</ele><time>2026-04-20T10:38:48.947Z</time></trkpt><trkpt lat="33.168465" lon="10.2604783"><ele>352.66666666666663</ele><time>2026-04-20T10:38:49.947Z</time></trkpt><trkpt lat="33.1683617" lon="10.2606983"><ele>353.3333333333333</ele><time>2026-04-20T10:38:50.947Z</time></trkpt><trkpt lat="33.16827" lon="10.2609317"><ele>354.0</ele><time>2026-04-20T10:38:51.947Z</time></trkpt><trkpt lat="33.1681767" lon="10.2611633"><ele>351.6666666666667</ele><time>2026-04-20T10:38:52.947Z</time></trkpt><trkpt lat="33.168085" lon="10.26139"><ele>349.33333333333337</ele><time>2026-04-20T10:38:53.947Z</time></trkpt><trkpt lat="33.1680033" lon="10.2616133"><ele>347.0</ele><time>2026-04-20T10:38:54.947Z</time></trkpt><trkpt lat="33.1679233" lon="10.26184"><ele>347.0</ele><time>2026-04-20T10:38:55.947Z</time></trkpt><trkpt lat="33.1678583" lon="10.262075"><ele>347.0</ele><time>2026-04-20T10:38:56.947Z</time></trkpt><trkpt lat="33.1677917" lon="10.2623017"><ele>347.0</ele><time>2026-04-20T10:38:57.947Z</time></trkpt><trkpt lat="33.16774" lon="10.262535"><ele>347.0</ele><time>2026-04-20T10:38:58.947Z</time></trkpt><trkpt lat="33.167705" lon="10.262785"><ele>347.0</ele><time>2026-04-20T10:38:59.947Z</time></trkpt><trkpt lat="33.167695" lon="10.263045"><ele>347.0</ele><time>2026-04-20T10:39:00.947Z</time></trkpt><trkpt lat="33.1677017" lon="10.2633117"><ele>345.0</ele><time>2026-04-20T10:39:01.947Z</time></trkpt><trkpt lat="33.1677033" lon="10.2635917"><ele>343.0</ele><time>2026-04-20T10:39:02.947Z</time></trkpt><trkpt lat="33.1677217" lon="10.2638767"><ele>344.0</ele><time>2026-04-20T10:39:03.947Z</time></trkpt><trkpt lat="33.167745" lon="10.2641567"><ele>345.0</ele><time>2026-04-20T10:39:04.947Z</time></trkpt><trkpt lat="33.1677667" lon="10.26442"><ele>345.0</ele><time>2026-04-20T10:39:05.947Z</time></trkpt><trkpt lat="33.16779" lon="10.26468"><ele>345.0</ele><time>2026-04-20T10:39:06.947Z</time></trkpt><trkpt lat="33.167785" lon="10.26494"><ele>345.0</ele><time>2026-04-20T10:39:07.947Z</time></trkpt><trkpt lat="33.167765" lon="10.2651817"><ele>346.0</ele><time>2026-04-20T10:39:08.947Z</time></trkpt><trkpt lat="33.1677217" lon="10.2654067"><ele>347.0</ele><time>2026-04-20T10:39:09.947Z</time></trkpt><trkpt lat="33.167655" lon="10.2656083"><ele>348.0</ele><time>2026-04-20T10:39:10.947Z</time></trkpt><trkpt lat="33.167545" lon="10.265785"><ele>345.6666666666667</ele><time>2026-04-20T10:39:11.947Z</time></trkpt><trkpt lat="33.1674267" lon="10.2659517"><ele>343.33333333333337</ele><time>2026-04-20T10:39:12.947Z</time></trkpt><trkpt lat="33.1673083" lon="10.2661117"><ele>341.0</ele><time>2026-04-20T10:39:13.947Z</time></trkpt><trkpt lat="33.1671833" lon="10.2662717"><ele>340.6666666666667</ele><time>2026-04-20T10:39:14.947Z</time></trkpt><trkpt lat="33.1670583" lon="10.2664417"><ele>340.3333333333333</ele><time>2026-04-20T10:39:15.947Z</time></trkpt><trkpt lat="33.1669317" lon="10.2666133"><ele>340.0</ele><time>2026-04-20T10:39:16.947Z</time></trkpt><trkpt lat="33.166795" lon="10.26679"><ele>340.0</ele><time>2026-04-20T10:39:17.947Z</time></trkpt><trkpt lat="33.1666567" lon="10.2669683"><ele>340.0</ele><time>2026-04-20T10:39:18.947Z</time></trkpt><trkpt lat="33.1665183" lon="10.2671533"><ele>340.0</ele><time>2026-04-20T10:39:19.947Z</time></trkpt><trkpt lat="33.1663833" lon="10.26734"><ele>339.66666666666663</ele><time>2026-04-20T10:39:20.947Z</time></trkpt><trkpt lat="33.166245" lon="10.2675083"><ele>339.3333333333333</ele><time>2026-04-20T10:39:21.947Z</time></trkpt><trkpt lat="33.1660767" lon="10.2676483"><ele>339.0</ele><time>2026-04-20T10:39:22.947Z</time></trkpt><trkpt lat="33.1659" lon="10.2677517"><ele>339.0</ele><time>2026-04-20T10:39:23.947Z</time></trkpt><trkpt lat="33.1657267" lon="10.2678183"><ele>339.0</ele><time>2026-04-20T10:39:24.947Z</time></trkpt><trkpt lat="33.1655567" lon="10.267885"><ele>339.0</ele><time>2026-04-20T10:39:25.947Z</time></trkpt><trkpt lat="33.16539" lon="10.2679533"><ele>339.0</ele><time>2026-04-20T10:39:26.947Z</time></trkpt><trkpt lat="33.16522" lon="10.2680333"><ele>339.0</ele><time>2026-04-20T10:39:27.947Z</time></trkpt><trkpt lat="33.1650517" lon="10.2681133"><ele>339.0</ele><time>2026-04-20T10:39:28.947Z</time></trkpt><trkpt lat="33.1648917" lon="10.268185"><ele>340.25</ele><time>2026-04-20T10:39:29.947Z</time></trkpt><trkpt lat="33.1647433" lon="10.2682783"><ele>341.5</ele><time>2026-04-20T10:39:30.947Z</time></trkpt><trkpt lat="33.164635" lon="10.268395"><ele>342.75</ele><time>2026-04-20T10:39:31.947Z</time></trkpt><trkpt lat="33.1645833" lon="10.26853"><ele>344.0</ele><time>2026-04-20T10:39:32.947Z</time></trkpt><trkpt lat="33.1645717" lon="10.2686417"><ele>344.0</ele><time>2026-04-20T10:39:33.947Z</time></trkpt><trkpt lat="33.1645917" lon="10.2687617"><ele>344.0</ele><time>2026-04-20T10:39:34.947Z</time></trkpt><trkpt lat="33.1646367" lon="10.2688783"><ele>344.0</ele><time>2026-04-20T10:39:35.947Z</time></trkpt><trkpt lat="33.164695" lon="10.2690017"><ele>344.0</ele><time>2026-04-20T10:39:36.947Z</time></trkpt><trkpt lat="33.1647533" lon="10.2691283"><ele>344.0</ele><time>2026-04-20T10:39:37.947Z</time></trkpt><trkpt lat="33.1648017" lon="10.269265"><ele>346.0</ele><time>2026-04-20T10:39:38.947Z</time></trkpt><trkpt lat="33.1648283" lon="10.2694217"><ele>348.0</ele><time>2026-04-20T10:39:39.947Z</time></trkpt><trkpt lat="33.164835" lon="10.2695833"><ele>350.0</ele><time>2026-04-20T10:39:40.947Z</time></trkpt><trkpt lat="33.1648267" lon="10.2697533"><ele>352.0</ele><time>2026-04-20T10:39:41.947Z</time></trkpt><trkpt lat="33.1648183" lon="10.269935"><ele>355.66666666666663</ele><time>2026-04-20T10:39:42.947Z</time></trkpt><trkpt lat="33.164805" lon="10.2701167"><ele>359.3333333333333</ele><time>2026-04-20T10:39:43.947Z</time></trkpt><trkpt lat="33.1647783" lon="10.2702967"><ele>363.0</ele><time>2026-04-20T10:39:44.947Z</time></trkpt><trkpt lat="33.1647317" lon="10.2704683"><ele>364.6666666666667</ele><time>2026-04-20T10:39:45.947Z</time></trkpt><trkpt lat="33.16467" lon="10.2706367"><ele>366.33333333333337</ele><time>2026-04-20T10:39:46.947Z</time></trkpt><trkpt lat="33.1645933" lon="10.2707983"><ele>368.0</ele><time>2026-04-20T10:39:47.947Z</time></trkpt><trkpt lat="33.164515" lon="10.2709583"><ele>368.0</ele><time>2026-04-20T10:39:48.947Z</time></trkpt><trkpt lat="33.1644367" lon="10.27113"><ele>368.0</ele><time>2026-04-20T10:39:49.947Z</time></trkpt><trkpt lat="33.164365" lon="10.2713033"><ele>368.0</ele><time>2026-04-20T10:39:50.947Z</time></trkpt><trkpt lat="33.1642983" lon="10.2714833"><ele>369.6666666666667</ele><time>2026-04-20T10:39:51.947Z</time></trkpt><trkpt lat="33.1642433" lon="10.2716633"><ele>371.3333333333333</ele><time>2026-04-20T10:39:52.947Z</time></trkpt><trkpt lat="33.1641833" lon="10.2718533"><ele>373.0</ele><time>2026-04-20T10:39:53.947Z</time></trkpt><trkpt lat="33.1641167" lon="10.27203"><ele>373.0</ele><time>2026-04-20T10:39:54.946Z</time></trkpt><trkpt lat="33.1640333" lon="10.27218"><ele>373.0</ele><time>2026-04-20T10:39:55.946Z</time></trkpt><trkpt lat="33.1639217" lon="10.2722883"><ele>373.0</ele><time>2026-04-20T10:39:56.946Z</time></trkpt><trkpt lat="33.1637967" lon="10.272365"><ele>373.0</ele><time>2026-04-20T10:39:57.946Z</time></trkpt><trkpt lat="33.16366" lon="10.2724217"><ele>371.66666666666663</ele><time>2026-04-20T10:39:58.946Z</time></trkpt><trkpt lat="33.16351" lon="10.272475"><ele>370.3333333333333</ele><time>2026-04-20T10:39:59.946Z</time></trkpt><trkpt lat="33.16336" lon="10.2725533"><ele>369.0</ele><time>2026-04-20T10:40:00.946Z</time></trkpt><trkpt lat="33.1632217" lon="10.2726567"><ele>371.3333333333333</ele><time>2026-04-20T10:40:01.946Z</time></trkpt><trkpt lat="33.1630883" lon="10.27279"><ele>373.66666666666663</ele><time>2026-04-20T10:40:02.946Z</time></trkpt><trkpt lat="33.1629567" lon="10.2729383"><ele>376.0</ele><time>2026-04-20T10:40:03.946Z</time></trkpt><trkpt lat="33.1628233" lon="10.273095"><ele>375.0</ele><time>2026-04-20T10:40:04.946Z</time></trkpt><trkpt lat="33.1626917" lon="10.27325"><ele>374.0</ele><time>2026-04-20T10:40:05.946Z</time></trkpt><trkpt lat="33.1625583" lon="10.2734067"><ele>373.0</ele><time>2026-04-20T10:40:06.946Z</time></trkpt><trkpt lat="33.1624383" lon="10.2735717"><ele>374.3333333333333</ele><time>2026-04-20T10:40:07.946Z</time></trkpt><trkpt lat="33.1623283" lon="10.2737533"><ele>375.6666666666667</ele><time>2026-04-20T10:40:08.946Z</time></trkpt><trkpt lat="33.1622167" lon="10.2739367"><ele>377.0</ele><time>2026-04-20T10:40:09.946Z</time></trkpt><trkpt lat="33.162125" lon="10.274095"><ele>378.0</ele><time>2026-04-20T10:40:10.946Z</time></trkpt><trkpt lat="33.162035" lon="10.274245"><ele>379.0</ele><time>2026-04-20T10:40:11.946Z</time></trkpt><trkpt lat="33.161935" lon="10.2743683"><ele>380.0</ele><time>2026-04-20T10:40:12.946Z</time></trkpt><trkpt lat="33.1618183" lon="10.27449"><ele>380.0</ele><time>2026-04-20T10:40:13.946Z</time></trkpt><trkpt lat="33.16169" lon="10.27459"><ele>380.0</ele><time>2026-04-20T10:40:14.946Z</time></trkpt><trkpt lat="33.1615567" lon="10.2746933"><ele>380.0</ele><time>2026-04-20T10:40:15.946Z</time></trkpt><trkpt lat="33.161425" lon="10.2748133"><ele>378.0</ele><time>2026-04-20T10:40:16.946Z</time></trkpt><trkpt lat="33.16131" lon="10.2749567"><ele>376.0</ele><time>2026-04-20T10:40:17.946Z</time></trkpt><trkpt lat="33.1612133" lon="10.2751167"><ele>374.0</ele><time>2026-04-20T10:40:18.946Z</time></trkpt><trkpt lat="33.16113" lon="10.2752817"><ele>374.0</ele><time>2026-04-20T10:40:19.946Z</time></trkpt><trkpt lat="33.161065" lon="10.2754433"><ele>374.0</ele><time>2026-04-20T10:40:20.946Z</time></trkpt><trkpt lat="33.1609767" lon="10.275605"><ele>374.0</ele><time>2026-04-20T10:40:21.946Z</time></trkpt><trkpt lat="33.1608733" lon="10.2757567"><ele>375.33333333333337</ele><time>2026-04-20T10:40:22.946Z</time></trkpt><trkpt lat="33.1607533" lon="10.2758983"><ele>376.6666666666667</ele><time>2026-04-20T10:40:23.946Z</time></trkpt><trkpt lat="33.1606233" lon="10.2760133"><ele>378.0</ele><time>2026-04-20T10:40:24.946Z</time></trkpt><trkpt lat="33.1604833" lon="10.2761267"><ele>378.3333333333333</ele><time>2026-04-20T10:40:25.946Z</time></trkpt><trkpt lat="33.1603367" lon="10.276245"><ele>378.66666666666663</ele><time>2026-04-20T10:40:26.946Z</time></trkpt><trkpt lat="33.160185" lon="10.2763583"><ele>379.0</ele><time>2026-04-20T10:40:27.946Z</time></trkpt><trkpt lat="33.16004" lon="10.27648"><ele>380.3333333333333</ele><time>2026-04-20T10:40:28.946Z</time></trkpt><trkpt lat="33.1598867" lon="10.2766133"><ele>381.6666666666667</ele><time>2026-04-20T10:40:29.946Z</time></trkpt><trkpt lat="33.1597317" lon="10.2767433"><ele>383.0</ele><time>2026-04-20T10:40:30.946Z</time></trkpt><trkpt lat="33.159575" lon="10.27688"><ele>383.0</ele><time>2026-04-20T10:40:31.946Z</time></trkpt><trkpt lat="33.1594183" lon="10.2770167"><ele>383.0</ele><time>2026-04-20T10:40:32.946Z</time></trkpt><trkpt lat="33.1592633" lon="10.2771483"><ele>383.0</ele><time>2026-04-20T10:40:33.946Z</time></trkpt><trkpt lat="33.159105" lon="10.2772833"><ele>385.33333333333337</ele><time>2026-04-20T10:40:34.946Z</time></trkpt><trkpt lat="33.1589517" lon="10.2774183"><ele>387.6666666666667</ele><time>2026-04-20T10:40:35.946Z</time></trkpt><trkpt lat="33.1588" lon="10.2775533"><ele>390.0</ele><time>2026-04-20T10:40:36.946Z</time></trkpt><trkpt lat="33.1586517" lon="10.2776983"><ele>390.0</ele><time>2026-04-20T10:40:37.946Z</time></trkpt><trkpt lat="33.15851" lon="10.2778567"><ele>390.0</ele><time>2026-04-20T10:40:38.946Z</time></trkpt><trkpt lat="33.1583833" lon="10.278035"><ele>390.0</ele><time>2026-04-20T10:40:39.946Z</time></trkpt><trkpt lat="33.1582667" lon="10.2782283"><ele>386.6666666666667</ele><time>2026-04-20T10:40:40.946Z</time></trkpt><trkpt lat="33.15816" lon="10.2784267"><ele>383.33333333333337</ele><time>2026-04-20T10:40:41.946Z</time></trkpt><trkpt lat="33.15805" lon="10.2786267"><ele>380.0</ele><time>2026-04-20T10:40:42.946Z</time></trkpt><trkpt lat="33.1579383" lon="10.27882"><ele>383.33333333333337</ele><time>2026-04-20T10:40:43.946Z</time></trkpt><trkpt lat="33.1578233" lon="10.2790267"><ele>386.6666666666667</ele><time>2026-04-20T10:40:44.946Z</time></trkpt><trkpt lat="33.15771" lon="10.279235"><ele>390.0</ele><time>2026-04-20T10:40:45.946Z</time></trkpt><trkpt lat="33.1575983" lon="10.27944"><ele>390.0</ele><time>2026-04-20T10:40:46.946Z</time></trkpt><trkpt lat="33.1574883" lon="10.2796467"><ele>390.0</ele><time>2026-04-20T10:40:47.946Z</time></trkpt><trkpt lat="33.157375" lon="10.2798567"><ele>390.0</ele><time>2026-04-20T10:40:48.946Z</time></trkpt><trkpt lat="33.1572533" lon="10.28004"><ele>391.0</ele><time>2026-04-20T10:40:49.946Z</time></trkpt><trkpt lat="33.1571333" lon="10.2801967"><ele>392.0</ele><time>2026-04-20T10:40:50.946Z</time></trkpt><trkpt lat="33.156985" lon="10.2803133"><ele>393.0</ele><time>2026-04-20T10:40:51.946Z</time></trkpt><trkpt lat="33.1568217" lon="10.2803933"><ele>393.0</ele><time>2026-04-20T10:40:52.946Z</time></trkpt><trkpt lat="33.1566467" lon="10.280435"><ele>393.0</ele><time>2026-04-20T10:40:53.946Z</time></trkpt><trkpt lat="33.1564733" lon="10.2804617"><ele>393.0</ele><time>2026-04-20T10:40:54.946Z</time></trkpt><trkpt lat="33.156305" lon="10.280505"><ele>392.66666666666663</ele><time>2026-04-20T10:40:55.946Z</time></trkpt><trkpt lat="33.156145" lon="10.2805617"><ele>392.3333333333333</ele><time>2026-04-20T10:40:56.946Z</time></trkpt><trkpt lat="33.155995" lon="10.2806467"><ele>392.0</ele><time>2026-04-20T10:40:57.946Z</time></trkpt><trkpt lat="33.15585" lon="10.28076"><ele>392.0</ele><time>2026-04-20T10:40:58.946Z</time></trkpt><trkpt lat="33.155705" lon="10.2808717"><ele>392.0</ele><time>2026-04-20T10:40:59.946Z</time></trkpt><trkpt lat="33.155565" lon="10.2809867"><ele>392.0</ele><time>2026-04-20T10:41:00.946Z</time></trkpt><trkpt lat="33.155425" lon="10.281095"><ele>390.25</ele><time>2026-04-20T10:41:01.946Z</time></trkpt><trkpt lat="33.1552867" lon="10.2811917"><ele>388.5</ele><time>2026-04-20T10:41:02.946Z</time></trkpt><trkpt lat="33.1551517" lon="10.28125"><ele>386.75</ele><time>2026-04-20T10:41:03.946Z</time></trkpt><trkpt lat="33.15502" lon="10.281265"><ele>385.0</ele><time>2026-04-20T10:41:04.946Z</time></trkpt><trkpt lat="33.1549083" lon="10.2812333"><ele>384.0</ele><time>2026-04-20T10:41:05.946Z</time></trkpt><trkpt lat="33.1548133" lon="10.28115"><ele>383.0</ele><time>2026-04-20T10:41:06.946Z</time></trkpt><trkpt lat="33.1547233" lon="10.28105"><ele>382.0</ele><time>2026-04-20T10:41:07.946Z</time></trkpt><trkpt lat="33.154625" lon="10.2809467"><ele>381.0</ele><time>2026-04-20T10:41:08.946Z</time></trkpt><trkpt lat="33.15452" lon="10.28088"><ele>381.0</ele><time>2026-04-20T10:41:09.946Z</time></trkpt><trkpt lat="33.15441" lon="10.2808567"><ele>381.0</ele><time>2026-04-20T10:41:10.946Z</time></trkpt><trkpt lat="33.15429" lon="10.28088"><ele>381.0</ele><time>2026-04-20T10:41:11.946Z</time></trkpt><trkpt lat="33.1541717" lon="10.2809317"><ele>381.0</ele><time>2026-04-20T10:41:12.946Z</time></trkpt><trkpt lat="33.15405" lon="10.281"><ele>380.0</ele><time>2026-04-20T10:41:13.946Z</time></trkpt><trkpt lat="33.1539233" lon="10.281085"><ele>379.0</ele><time>2026-04-20T10:41:14.946Z</time></trkpt><trkpt lat="33.1538033" lon="10.281185"><ele>378.0</ele><time>2026-04-20T10:41:15.946Z</time></trkpt><trkpt lat="33.1536883" lon="10.2812967"><ele>377.0</ele><time>2026-04-20T10:41:16.946Z</time></trkpt><trkpt lat="33.1535667" lon="10.2814217"><ele>380.0</ele><time>2026-04-20T10:41:17.946Z</time></trkpt><trkpt lat="33.1534533" lon="10.2815683"><ele>383.0</ele><time>2026-04-20T10:41:18.946Z</time></trkpt><trkpt lat="33.1533583" lon="10.2817367"><ele>386.0</ele><time>2026-04-20T10:41:19.946Z</time></trkpt><trkpt lat="33.1532883" lon="10.2819183"><ele>386.0</ele><time>2026-04-20T10:41:20.946Z</time></trkpt><trkpt lat="33.1532417" lon="10.2821017"><ele>386.0</ele><time>2026-04-20T10:41:21.946Z</time></trkpt><trkpt lat="33.1532333" lon="10.2822767"><ele>386.0</ele><time>2026-04-20T10:41:22.946Z</time></trkpt><trkpt lat="33.1532567" lon="10.2824433"><ele>386.0</ele><time>2026-04-20T10:41:23.946Z</time></trkpt><trkpt lat="33.15328" lon="10.282605"><ele>386.25</ele><time>2026-04-20T10:41:24.946Z</time></trkpt><trkpt lat="33.1532717" lon="10.2827683"><ele>386.5</ele><time>2026-04-20T10:41:25.946Z</time></trkpt><trkpt lat="33.1532183" lon="10.2829183"><ele>386.75</ele><time>2026-04-20T10:41:26.946Z</time></trkpt><trkpt lat="33.1531317" lon="10.28305"><ele>387.0</ele><time>2026-04-20T10:41:27.946Z</time></trkpt><trkpt lat="33.1530183" lon="10.28316"><ele>388.25</ele><time>2026-04-20T10:41:28.946Z</time></trkpt><trkpt lat="33.1528933" lon="10.28325"><ele>389.5</ele><time>2026-04-20T10:41:29.946Z</time></trkpt><trkpt lat="33.1527567" lon="10.2833217"><ele>390.75</ele><time>2026-04-20T10:41:30.946Z</time></trkpt><trkpt lat="33.152615" lon="10.2833767"><ele>392.0</ele><time>2026-04-20T10:41:31.946Z</time></trkpt><trkpt lat="33.1524717" lon="10.283435"><ele>393.66666666666663</ele><time>2026-04-20T10:41:32.946Z</time></trkpt><trkpt lat="33.1523233" lon="10.2834983"><ele>395.33333333333337</ele><time>2026-04-20T10:41:33.946Z</time></trkpt><trkpt lat="33.15218" lon="10.2835633"><ele>397.0</ele><time>2026-04-20T10:41:34.946Z</time></trkpt><trkpt lat="33.15204" lon="10.2836283"><ele>397.0</ele><time>2026-04-20T10:41:35.946Z</time></trkpt><trkpt lat="33.1519033" lon="10.2837117"><ele>397.0</ele><time>2026-04-20T10:41:36.946Z</time></trkpt><trkpt lat="33.15177" lon="10.2838133"><ele>397.0</ele><time>2026-04-20T10:41:37.946Z</time></trkpt><trkpt lat="33.1516383" lon="10.2839283"><ele>398.33333333333337</ele><time>2026-04-20T10:41:38.946Z</time></trkpt><trkpt lat="33.1515" lon="10.2840533"><ele>399.66666666666663</ele><time>2026-04-20T10:41:39.946Z</time></trkpt><trkpt lat="33.1513583" lon="10.2841817"><ele>401.0</ele><time>2026-04-20T10:41:40.946Z</time></trkpt><trkpt lat="33.1512333" lon="10.28433"><ele>401.0</ele><time>2026-04-20T10:41:41.946Z</time></trkpt><trkpt lat="33.1511183" lon="10.2845067"><ele>401.0</ele><time>2026-04-20T10:41:42.946Z</time></trkpt><trkpt lat="33.1510267" lon="10.2846983"><ele>401.0</ele><time>2026-04-20T10:41:43.946Z</time></trkpt><trkpt lat="33.15094" lon="10.284895"><ele>400.66666666666663</ele><time>2026-04-20T10:41:44.946Z</time></trkpt><trkpt lat="33.1508667" lon="10.2851017"><ele>400.33333333333337</ele><time>2026-04-20T10:41:45.946Z</time></trkpt><trkpt lat="33.1507833" lon="10.28531"><ele>400.0</ele><time>2026-04-20T10:41:46.946Z</time></trkpt><trkpt lat="33.1507033" lon="10.28552"><ele>402.6666666666667</ele><time>2026-04-20T10:41:47.946Z</time></trkpt><trkpt lat="33.1506233" lon="10.2857317"><ele>405.33333333333337</ele><time>2026-04-20T10:41:48.946Z</time></trkpt><trkpt lat="33.1505433" lon="10.2859467"><ele>408.0</ele><time>2026-04-20T10:41:49.946Z</time></trkpt><trkpt lat="33.150465" lon="10.28615"><ele>408.0</ele><time>2026-04-20T10:41:50.946Z</time></trkpt><trkpt lat="33.150395" lon="10.28633"><ele>408.0</ele><time>2026-04-20T10:41:51.946Z</time></trkpt><trkpt lat="33.15032" lon="10.2865033"><ele>408.0</ele><time>2026-04-20T10:41:52.946Z</time></trkpt><trkpt lat="33.150215" lon="10.28666"><ele>405.33333333333337</ele><time>2026-04-20T10:41:53.946Z</time></trkpt><trkpt lat="33.150095" lon="10.2867867"><ele>402.6666666666667</ele><time>2026-04-20T10:41:54.946Z</time></trkpt><trkpt lat="33.1499567" lon="10.286905"><ele>400.0</ele><time>2026-04-20T10:41:55.946Z</time></trkpt><trkpt lat="33.1498167" lon="10.2870133"><ele>400.0</ele><time>2026-04-20T10:41:56.946Z</time></trkpt><trkpt lat="33.1496717" lon="10.28712"><ele>400.0</ele><time>2026-04-20T10:41:57.946Z</time></trkpt><trkpt lat="33.14952" lon="10.2872183"><ele>400.0</ele><time>2026-04-20T10:41:58.946Z</time></trkpt><trkpt lat="33.1493583" lon="10.2873017"><ele>394.0</ele><time>2026-04-20T10:41:59.946Z</time></trkpt><trkpt lat="33.14921" lon="10.2874017"><ele>388.0</ele><time>2026-04-20T10:42:00.946Z</time></trkpt><trkpt lat="33.14907" lon="10.2875133"><ele>382.0</ele><time>2026-04-20T10:42:01.946Z</time></trkpt><trkpt lat="33.1489267" lon="10.2876033"><ele>382.0</ele><time>2026-04-20T10:42:02.946Z</time></trkpt><trkpt lat="33.1487967" lon="10.2876567"><ele>382.0</ele><time>2026-04-20T10:42:03.946Z</time></trkpt><trkpt lat="33.1486733" lon="10.2876583"><ele>382.0</ele><time>2026-04-20T10:42:04.946Z</time></trkpt><trkpt lat="33.148565" lon="10.2876183"><ele>382.0</ele><time>2026-04-20T10:42:05.946Z</time></trkpt><trkpt lat="33.1484633" lon="10.2875467"><ele>382.0</ele><time>2026-04-20T10:42:06.946Z</time></trkpt><trkpt lat="33.1483833" lon="10.2874417"><ele>382.0</ele><time>2026-04-20T10:42:07.946Z</time></trkpt><trkpt lat="33.148295" lon="10.2873383"><ele>382.0</ele><time>2026-04-20T10:42:08.946Z</time></trkpt><trkpt lat="33.1481983" lon="10.287255"><ele>382.0</ele><time>2026-04-20T10:42:09.946Z</time></trkpt><trkpt lat="33.1480933" lon="10.287225"><ele>383.5</ele><time>2026-04-20T10:42:10.946Z</time></trkpt><trkpt lat="33.1479817" lon="10.2872367"><ele>385.0</ele><time>2026-04-20T10:42:11.946Z</time></trkpt><trkpt lat="33.1478867" lon="10.2873067"><ele>386.5</ele><time>2026-04-20T10:42:12.946Z</time></trkpt><trkpt lat="33.147815" lon="10.28742"><ele>388.0</ele><time>2026-04-20T10:42:13.946Z</time></trkpt><trkpt lat="33.14775" lon="10.287555"><ele>384.75</ele><time>2026-04-20T10:42:14.946Z</time></trkpt><trkpt lat="33.1476833" lon="10.287675"><ele>381.5</ele><time>2026-04-20T10:42:15.946Z</time></trkpt><trkpt lat="33.1475833" lon="10.2877767"><ele>378.25</ele><time>2026-04-20T10:42:16.946Z</time></trkpt><trkpt lat="33.147475" lon="10.2878383"><ele>375.0</ele><time>2026-04-20T10:42:17.946Z</time></trkpt><trkpt lat="33.1473633" lon="10.2878517"><ele>373.4</ele><time>2026-04-20T10:42:18.946Z</time></trkpt><trkpt lat="33.1472733" lon="10.2878233"><ele>371.8</ele><time>2026-04-20T10:42:19.946Z</time></trkpt><trkpt lat="33.1472117" lon="10.2877483"><ele>370.20000000000005</ele><time>2026-04-20T10:42:20.946Z</time></trkpt><trkpt lat="33.1471867" lon="10.28764"><ele>368.6</ele><time>2026-04-20T10:42:21.946Z</time></trkpt><trkpt lat="33.1471883" lon="10.2875167"><ele>367.0</ele><time>2026-04-20T10:42:22.946Z</time></trkpt><trkpt lat="33.1471983" lon="10.2873817"><ele>370.8</ele><time>2026-04-20T10:42:23.946Z</time></trkpt><trkpt lat="33.1472" lon="10.287255"><ele>374.6</ele><time>2026-04-20T10:42:24.946Z</time></trkpt><trkpt lat="33.1471783" lon="10.287145"><ele>378.40000000000003</ele><time>2026-04-20T10:42:25.946Z</time></trkpt><trkpt lat="33.1471417" lon="10.2870633"><ele>382.20000000000005</ele><time>2026-04-20T10:42:26.946Z</time></trkpt><trkpt lat="33.147095" lon="10.2870067"><ele>386.0</ele><time>2026-04-20T10:42:27.946Z</time></trkpt><trkpt lat="33.1469833" lon="10.2870517"><ele>386.0</ele><time>2026-04-20T10:42:29.946Z</time></trkpt><trkpt lat="33.1469217" lon="10.28712"><ele>386.0</ele><time>2026-04-20T10:42:30.946Z</time></trkpt><trkpt lat="33.14685" lon="10.2871967"><ele>386.0</ele><time>2026-04-20T10:42:31.946Z</time></trkpt><trkpt lat="33.1467533" lon="10.2872733"><ele>386.0</ele><time>2026-04-20T10:42:32.946Z</time></trkpt><trkpt lat="33.14664" lon="10.287335"><ele>386.0</ele><time>2026-04-20T10:42:33.946Z</time></trkpt><trkpt lat="33.14652" lon="10.287415"><ele>381.3333333333333</ele><time>2026-04-20T10:42:34.946Z</time></trkpt><trkpt lat="33.146395" lon="10.2875117"><ele>376.66666666666663</ele><time>2026-04-20T10:42:35.946Z</time></trkpt><trkpt lat="33.14627" lon="10.287635"><ele>372.0</ele><time>2026-04-20T10:42:36.946Z</time></trkpt><trkpt lat="33.1461533" lon="10.2877817"><ele>372.0</ele><time>2026-04-20T10:42:37.946Z</time></trkpt><trkpt lat="33.1460417" lon="10.2879467"><ele>372.0</ele><time>2026-04-20T10:42:38.946Z</time></trkpt><trkpt lat="33.1459383" lon="10.2881083"><ele>372.0</ele><time>2026-04-20T10:42:39.946Z</time></trkpt><trkpt lat="33.145845" lon="10.2882617"><ele>369.0</ele><time>2026-04-20T10:42:40.946Z</time></trkpt><trkpt lat="33.145735" lon="10.2883833"><ele>366.0</ele><time>2026-04-20T10:42:41.946Z</time></trkpt><trkpt lat="33.1456267" lon="10.2884567"><ele>363.0</ele><time>2026-04-20T10:42:42.946Z</time></trkpt><trkpt lat="33.145515" lon="10.2884767"><ele>360.0</ele><time>2026-04-20T10:42:43.946Z</time></trkpt><trkpt lat="33.1454133" lon="10.28844"><ele>358.8</ele><time>2026-04-20T10:42:44.946Z</time></trkpt><trkpt lat="33.1453433" lon="10.2883567"><ele>357.6</ele><time>2026-04-20T10:42:45.946Z</time></trkpt><trkpt lat="33.1453033" lon="10.2882467"><ele>356.4</ele><time>2026-04-20T10:42:46.946Z</time></trkpt><trkpt lat="33.1452633" lon="10.2881183"><ele>355.2</ele><time>2026-04-20T10:42:47.946Z</time></trkpt><trkpt lat="33.1452183" lon="10.2880117"><ele>354.0</ele><time>2026-04-20T10:42:48.946Z</time></trkpt><trkpt lat="33.145165" lon="10.287945"><ele>354.0</ele><time>2026-04-20T10:42:49.946Z</time></trkpt><trkpt lat="33.1450883" lon="10.28794"><ele>354.0</ele><time>2026-04-20T10:42:50.946Z</time></trkpt><trkpt lat="33.1450167" lon="10.2879933"><ele>354.0</ele><time>2026-04-20T10:42:51.946Z</time></trkpt><trkpt lat="33.144945" lon="10.2880783"><ele>354.0</ele><time>2026-04-20T10:42:52.946Z</time></trkpt><trkpt lat="33.1448817" lon="10.28819"><ele>354.0</ele><time>2026-04-20T10:42:53.946Z</time></trkpt><trkpt lat="33.144825" lon="10.28832"><ele>353.6</ele><time>2026-04-20T10:42:54.946Z</time></trkpt><trkpt lat="33.14476" lon="10.2884417"><ele>353.2</ele><time>2026-04-20T10:42:55.946Z</time></trkpt><trkpt lat="33.1446733" lon="10.2885033"><ele>352.8</ele><time>2026-04-20T10:42:56.946Z</time></trkpt><trkpt lat="33.1445767" lon="10.2885117"><ele>352.40000000000003</ele><time>2026-04-20T10:42:57.946Z</time></trkpt><trkpt lat="33.1445" lon="10.28848"><ele>352.0</ele><time>2026-04-20T10:42:58.946Z</time></trkpt><trkpt lat="33.144435" lon="10.2883867"><ele>352.0</ele><time>2026-04-20T10:42:59.946Z</time></trkpt><trkpt lat="33.14439" lon="10.2882617"><ele>352.0</ele><time>2026-04-20T10:43:00.946Z</time></trkpt><trkpt lat="33.1443367" lon="10.2881383"><ele>352.0</ele><time>2026-04-20T10:43:01.946Z</time></trkpt><trkpt lat="33.1442733" lon="10.28804"><ele>352.0</ele><time>2026-04-20T10:43:02.946Z</time></trkpt><trkpt lat="33.1441967" lon="10.2879683"><ele>352.0</ele><time>2026-04-20T10:43:03.946Z</time></trkpt><trkpt lat="33.1441183" lon="10.287935"><ele>353.20000000000005</ele><time>2026-04-20T10:43:04.946Z</time></trkpt><trkpt lat="33.14404" lon="10.28795"><ele>354.4</ele><time>2026-04-20T10:43:05.946Z</time></trkpt><trkpt lat="33.14399" lon="10.288055"><ele>355.6</ele><time>2026-04-20T10:43:06.946Z</time></trkpt><trkpt lat="33.1439567" lon="10.2881833"><ele>356.79999999999995</ele><time>2026-04-20T10:43:07.946Z</time></trkpt><trkpt lat="33.1439383" lon="10.28832"><ele>358.0</ele><time>2026-04-20T10:43:08.946Z</time></trkpt><trkpt lat="33.143935" lon="10.28847"><ele>358.0</ele><time>2026-04-20T10:43:09.946Z</time></trkpt><trkpt lat="33.1439433" lon="10.2886333"><ele>358.0</ele><time>2026-04-20T10:43:10.946Z</time></trkpt><trkpt lat="33.1439633" lon="10.2887967"><ele>358.0</ele><time>2026-04-20T10:43:11.946Z</time></trkpt><trkpt lat="33.1440067" lon="10.2889633"><ele>358.0</ele><time>2026-04-20T10:43:12.946Z</time></trkpt><trkpt lat="33.1440717" lon="10.28912"><ele>357.5</ele><time>2026-04-20T10:43:13.946Z</time></trkpt><trkpt lat="33.1441583" lon="10.28927"><ele>357.0</ele><time>2026-04-20T10:43:14.946Z</time></trkpt><trkpt lat="33.1442333" lon="10.2894233"><ele>356.5</ele><time>2026-04-20T10:43:15.946Z</time></trkpt><trkpt lat="33.1442717" lon="10.2895717"><ele>356.0</ele><time>2026-04-20T10:43:16.946Z</time></trkpt><trkpt lat="33.1442717" lon="10.2896967"><ele>356.6</ele><time>2026-04-20T10:43:17.946Z</time></trkpt><trkpt lat="33.1442217" lon="10.2897933"><ele>357.20000000000005</ele><time>2026-04-20T10:43:18.946Z</time></trkpt><trkpt lat="33.1441567" lon="10.2898683"><ele>357.79999999999995</ele><time>2026-04-20T10:43:19.946Z</time></trkpt><trkpt lat="33.14407" lon="10.2899267"><ele>358.4</ele><time>2026-04-20T10:43:20.946Z</time></trkpt><trkpt lat="33.1439683" lon="10.28998"><ele>359.0</ele><time>2026-04-20T10:43:21.946Z</time></trkpt><trkpt lat="33.143855" lon="10.2900283"><ele>361.79999999999995</ele><time>2026-04-20T10:43:22.946Z</time></trkpt><trkpt lat="33.1437633" lon="10.2900817"><ele>364.59999999999997</ele><time>2026-04-20T10:43:23.946Z</time></trkpt><trkpt lat="33.1436967" lon="10.29016"><ele>367.4</ele><time>2026-04-20T10:43:24.946Z</time></trkpt><trkpt lat="33.1436633" lon="10.290245"><ele>370.2</ele><time>2026-04-20T10:43:25.946Z</time></trkpt><trkpt lat="33.1437067" lon="10.290385"><ele>373.0</ele><time>2026-04-20T10:43:27.946Z</time></trkpt><trkpt lat="33.1437783" lon="10.29042"><ele>373.0</ele><time>2026-04-20T10:43:28.946Z</time></trkpt><trkpt lat="33.143845" lon="10.2904383"><ele>373.0</ele><time>2026-04-20T10:43:29.946Z</time></trkpt><trkpt lat="33.14393" lon="10.2904383"><ele>373.0</ele><time>2026-04-20T10:43:30.945Z</time></trkpt><trkpt lat="33.1440317" lon="10.2904333"><ele>373.0</ele><time>2026-04-20T10:43:31.945Z</time></trkpt><trkpt lat="33.1441383" lon="10.2904317"><ele>373.0</ele><time>2026-04-20T10:43:32.945Z</time></trkpt><trkpt lat="33.144245" lon="10.2904367"><ele>371.4</ele><time>2026-04-20T10:43:33.945Z</time></trkpt><trkpt lat="33.144355" lon="10.2904467"><ele>369.79999999999995</ele><time>2026-04-20T10:43:34.945Z</time></trkpt><trkpt lat="33.14444" lon="10.290495"><ele>368.2</ele><time>2026-04-20T10:43:35.945Z</time></trkpt><trkpt lat="33.1445033" lon="10.2905617"><ele>366.6</ele><time>2026-04-20T10:43:36.945Z</time></trkpt><trkpt lat="33.144505" lon="10.29066"><ele>365.0</ele><time>2026-04-20T10:43:37.945Z</time></trkpt><trkpt lat="33.1444783" lon="10.2907633"><ele>365.0</ele><time>2026-04-20T10:43:38.945Z</time></trkpt><trkpt lat="33.1444183" lon="10.2908717"><ele>365.0</ele><time>2026-04-20T10:43:39.945Z</time></trkpt><trkpt lat="33.1443283" lon="10.2909817"><ele>365.0</ele><time>2026-04-20T10:43:40.945Z</time></trkpt><trkpt lat="33.1442267" lon="10.2910783"><ele>365.0</ele><time>2026-04-20T10:43:41.945Z</time></trkpt><trkpt lat="33.1441183" lon="10.2911717"><ele>367.25</ele><time>2026-04-20T10:43:42.945Z</time></trkpt><trkpt lat="33.1440283" lon="10.29128"><ele>369.5</ele><time>2026-04-20T10:43:43.945Z</time></trkpt><trkpt lat="33.1439433" lon="10.2914033"><ele>371.75</ele><time>2026-04-20T10:43:44.945Z</time></trkpt><trkpt lat="33.1438667" lon="10.2915433"><ele>374.0</ele><time>2026-04-20T10:43:45.945Z</time></trkpt><trkpt lat="33.143805" lon="10.2917067"><ele>377.0</ele><time>2026-04-20T10:43:46.945Z</time></trkpt><trkpt lat="33.1437617" lon="10.2918817"><ele>380.0</ele><time>2026-04-20T10:43:47.945Z</time></trkpt><trkpt lat="33.14373" lon="10.2920717"><ele>383.0</ele><time>2026-04-20T10:43:48.945Z</time></trkpt><trkpt lat="33.1436933" lon="10.2922583"><ele>383.79999999999995</ele><time>2026-04-20T10:43:49.945Z</time></trkpt><trkpt lat="33.14363" lon="10.2924083"><ele>384.6</ele><time>2026-04-20T10:43:50.944Z</time></trkpt><trkpt lat="33.1435467" lon="10.2925183"><ele>385.4</ele><time>2026-04-20T10:43:51.945Z</time></trkpt><trkpt lat="33.1434833" lon="10.292555"><ele>386.20000000000005</ele><time>2026-04-20T10:43:52.945Z</time></trkpt><trkpt lat="33.1434017" lon="10.2924717"><ele>387.0</ele><time>2026-04-20T10:43:54.945Z</time></trkpt><trkpt lat="33.1433967" lon="10.292385"><ele>387.0</ele><time>2026-04-20T10:43:55.945Z</time></trkpt><trkpt lat="33.1434067" lon="10.292265"><ele>387.0</ele><time>2026-04-20T10:43:56.945Z</time></trkpt><trkpt lat="33.14342" lon="10.2921367"><ele>387.0</ele><time>2026-04-20T10:43:57.945Z</time></trkpt><trkpt lat="33.143435" lon="10.2919933"><ele>387.0</ele><time>2026-04-20T10:43:58.945Z</time></trkpt><trkpt lat="33.1434583" lon="10.29185"><ele>386.0</ele><time>2026-04-20T10:43:59.945Z</time></trkpt><trkpt lat="33.143485" lon="10.2917017"><ele>385.0</ele><time>2026-04-20T10:44:00.945Z</time></trkpt><trkpt lat="33.14352" lon="10.2915517"><ele>384.0</ele><time>2026-04-20T10:44:01.945Z</time></trkpt><trkpt lat="33.1435383" lon="10.2914083"><ele>383.0</ele><time>2026-04-20T10:44:02.945Z</time></trkpt><trkpt lat="33.14351" lon="10.2912917"><ele>381.5</ele><time>2026-04-20T10:44:03.945Z</time></trkpt><trkpt lat="33.1434717" lon="10.2912067"><ele>380.0</ele><time>2026-04-20T10:44:04.945Z</time></trkpt><trkpt lat="33.1434183" lon="10.291155"><ele>378.5</ele><time>2026-04-20T10:44:05.945Z</time></trkpt><trkpt lat="33.1433417" lon="10.2911667"><ele>377.0</ele><time>2026-04-20T10:44:06.945Z</time></trkpt><trkpt lat="33.1432667" lon="10.291215"><ele>375.5</ele><time>2026-04-20T10:44:07.945Z</time></trkpt><trkpt lat="33.143195" lon="10.29129"><ele>374.0</ele><time>2026-04-20T10:44:08.945Z</time></trkpt><trkpt lat="33.1431217" lon="10.2914"><ele>380.0</ele><time>2026-04-20T10:44:09.945Z</time></trkpt><trkpt lat="33.1430483" lon="10.2915217"><ele>386.0</ele><time>2026-04-20T10:44:10.945Z</time></trkpt><trkpt lat="33.1429617" lon="10.2916267"><ele>392.0</ele><time>2026-04-20T10:44:11.945Z</time></trkpt><trkpt lat="33.142845" lon="10.2916967"><ele>398.0</ele><time>2026-04-20T10:44:12.945Z</time></trkpt><trkpt lat="33.1427317" lon="10.2917233"><ele>398.0</ele><time>2026-04-20T10:44:13.945Z</time></trkpt><trkpt lat="33.14263" lon="10.29169"><ele>398.0</ele><time>2026-04-20T10:44:14.945Z</time></trkpt><trkpt lat="33.1425533" lon="10.2916033"><ele>398.0</ele><time>2026-04-20T10:44:15.945Z</time></trkpt><trkpt lat="33.1424967" lon="10.29149"><ele>398.0</ele><time>2026-04-20T10:44:16.945Z</time></trkpt><trkpt lat="33.1424583" lon="10.2913683"><ele>398.0</ele><time>2026-04-20T10:44:17.945Z</time></trkpt><trkpt lat="33.1424283" lon="10.29123"><ele>397.0</ele><time>2026-04-20T10:44:18.945Z</time></trkpt><trkpt lat="33.1424" lon="10.291085"><ele>396.0</ele><time>2026-04-20T10:44:19.945Z</time></trkpt><trkpt lat="33.14237" lon="10.2909367"><ele>395.0</ele><time>2026-04-20T10:44:20.945Z</time></trkpt><trkpt lat="33.1423367" lon="10.290785"><ele>394.0</ele><time>2026-04-20T10:44:21.945Z</time></trkpt><trkpt lat="33.142305" lon="10.2906233"><ele>398.5</ele><time>2026-04-20T10:44:22.945Z</time></trkpt><trkpt lat="33.142295" lon="10.2904517"><ele>403.0</ele><time>2026-04-20T10:44:23.945Z</time></trkpt><trkpt lat="33.142285" lon="10.2902683"><ele>407.5</ele><time>2026-04-20T10:44:24.945Z</time></trkpt><trkpt lat="33.142265" lon="10.290095"><ele>412.0</ele><time>2026-04-20T10:44:25.945Z</time></trkpt><trkpt lat="33.1422117" lon="10.2899467"><ele>412.0</ele><time>2026-04-20T10:44:26.945Z</time></trkpt><trkpt lat="33.1421317" lon="10.2898133"><ele>412.0</ele><time>2026-04-20T10:44:27.945Z</time></trkpt><trkpt lat="33.14202" lon="10.2897183"><ele>412.0</ele><time>2026-04-20T10:44:28.945Z</time></trkpt><trkpt lat="33.1418917" lon="10.2896633"><ele>412.0</ele><time>2026-04-20T10:44:29.945Z</time></trkpt><trkpt lat="33.141755" lon="10.2896367"><ele>411.33333333333337</ele><time>2026-04-20T10:44:30.945Z</time></trkpt><trkpt lat="33.1416083" lon="10.289615"><ele>410.66666666666663</ele><time>2026-04-20T10:44:31.945Z</time></trkpt><trkpt lat="33.1414533" lon="10.289585"><ele>410.0</ele><time>2026-04-20T10:44:32.945Z</time></trkpt><trkpt lat="33.1413" lon="10.2895583"><ele>410.0</ele><time>2026-04-20T10:44:33.945Z</time></trkpt><trkpt lat="33.1411333" lon="10.2895383"><ele>410.0</ele><time>2026-04-20T10:44:34.945Z</time></trkpt><trkpt lat="33.1409633" lon="10.289505"><ele>410.0</ele><time>2026-04-20T10:44:35.945Z</time></trkpt><trkpt lat="33.14079" lon="10.2894667"><ele>409.66666666666663</ele><time>2026-04-20T10:44:36.945Z</time></trkpt><trkpt lat="33.14062" lon="10.289435"><ele>409.33333333333337</ele><time>2026-04-20T10:44:37.945Z</time></trkpt><trkpt lat="33.1404483" lon="10.2893967"><ele>409.0</ele><time>2026-04-20T10:44:38.945Z</time></trkpt><trkpt lat="33.14028" lon="10.2893533"><ele>409.0</ele><time>2026-04-20T10:44:39.945Z</time></trkpt><trkpt lat="33.1401217" lon="10.2892817"><ele>409.0</ele><time>2026-04-20T10:44:40.945Z</time></trkpt><trkpt lat="33.139985" lon="10.2891767"><ele>409.0</ele><time>2026-04-20T10:44:41.945Z</time></trkpt><trkpt lat="33.139865" lon="10.2890417"><ele>409.6666666666667</ele><time>2026-04-20T10:44:42.945Z</time></trkpt><trkpt lat="33.139735" lon="10.2889"><ele>410.33333333333337</ele><time>2026-04-20T10:44:43.945Z</time></trkpt><trkpt lat="33.1395933" lon="10.288755"><ele>411.0</ele><time>2026-04-20T10:44:44.945Z</time></trkpt><trkpt lat="33.1394683" lon="10.2886167"><ele>411.0</ele><time>2026-04-20T10:44:45.945Z</time></trkpt><trkpt lat="33.1393383" lon="10.2885033"><ele>411.0</ele><time>2026-04-20T10:44:46.945Z</time></trkpt><trkpt lat="33.1392067" lon="10.2884233"><ele>411.0</ele><time>2026-04-20T10:44:47.945Z</time></trkpt><trkpt lat="33.1390617" lon="10.2884"><ele>411.66666666666663</ele><time>2026-04-20T10:44:48.945Z</time></trkpt><trkpt lat="33.13891" lon="10.288435"><ele>412.3333333333333</ele><time>2026-04-20T10:44:49.945Z</time></trkpt><trkpt lat="33.1387517" lon="10.2884967"><ele>413.0</ele><time>2026-04-20T10:44:50.945Z</time></trkpt><trkpt lat="33.1385983" lon="10.288575"><ele>413.0</ele><time>2026-04-20T10:44:51.945Z</time></trkpt><trkpt lat="33.1384517" lon="10.28867"><ele>413.0</ele><time>2026-04-20T10:44:52.945Z</time></trkpt><trkpt lat="33.1383" lon="10.2887567"><ele>413.0</ele><time>2026-04-20T10:44:53.945Z</time></trkpt><trkpt lat="33.1381533" lon="10.2888483"><ele>412.3333333333333</ele><time>2026-04-20T10:44:54.945Z</time></trkpt><trkpt lat="33.138005" lon="10.28897"><ele>411.66666666666663</ele><time>2026-04-20T10:44:55.945Z</time></trkpt><trkpt lat="33.137865" lon="10.2890967"><ele>411.0</ele><time>2026-04-20T10:44:56.945Z</time></trkpt><trkpt lat="33.1377433" lon="10.2892383"><ele>411.0</ele><time>2026-04-20T10:44:57.945Z</time></trkpt><trkpt lat="33.1376133" lon="10.2893517"><ele>411.0</ele><time>2026-04-20T10:44:58.945Z</time></trkpt><trkpt lat="33.1374933" lon="10.2893967"><ele>411.0</ele><time>2026-04-20T10:44:59.945Z</time></trkpt><trkpt lat="33.1373717" lon="10.289395"><ele>411.0</ele><time>2026-04-20T10:45:00.945Z</time></trkpt><trkpt lat="33.13728" lon="10.289355"><ele>411.20000000000005</ele><time>2026-04-20T10:45:01.945Z</time></trkpt><trkpt lat="33.1372333" lon="10.2892767"><ele>411.40000000000003</ele><time>2026-04-20T10:45:02.945Z</time></trkpt><trkpt lat="33.1372033" lon="10.2891683"><ele>411.6</ele><time>2026-04-20T10:45:03.945Z</time></trkpt><trkpt lat="33.1371917" lon="10.289045"><ele>411.8</ele><time>2026-04-20T10:45:04.945Z</time></trkpt><trkpt lat="33.1371633" lon="10.2889167"><ele>412.0</ele><time>2026-04-20T10:45:05.945Z</time></trkpt><trkpt lat="33.1371133" lon="10.2888133"><ele>412.0</ele><time>2026-04-20T10:45:06.945Z</time></trkpt><trkpt lat="33.1370383" lon="10.2887583"><ele>412.0</ele><time>2026-04-20T10:45:07.945Z</time></trkpt><trkpt lat="33.1369583" lon="10.288745"><ele>412.0</ele><time>2026-04-20T10:45:08.945Z</time></trkpt><trkpt lat="33.1368717" lon="10.2887717"><ele>412.0</ele><time>2026-04-20T10:45:09.945Z</time></trkpt><trkpt lat="33.13678" lon="10.2888183"><ele>412.0</ele><time>2026-04-20T10:45:10.945Z</time></trkpt><trkpt lat="33.1366867" lon="10.2888867"><ele>409.5</ele><time>2026-04-20T10:45:11.945Z</time></trkpt><trkpt lat="33.1365717" lon="10.28895"><ele>407.0</ele><time>2026-04-20T10:45:12.945Z</time></trkpt><trkpt lat="33.1364517" lon="10.2889933"><ele>404.5</ele><time>2026-04-20T10:45:13.945Z</time></trkpt><trkpt lat="33.136325" lon="10.2890217"><ele>402.0</ele><time>2026-04-20T10:45:14.945Z</time></trkpt><trkpt lat="33.1361917" lon="10.2890517"><ele>402.0</ele><time>2026-04-20T10:45:15.945Z</time></trkpt><trkpt lat="33.1360517" lon="10.2891083"><ele>402.0</ele><time>2026-04-20T10:45:16.945Z</time></trkpt><trkpt lat="33.1359167" lon="10.2891917"><ele>402.0</ele><time>2026-04-20T10:45:17.945Z</time></trkpt><trkpt lat="33.1357883" lon="10.2893067"><ele>401.0</ele><time>2026-04-20T10:45:18.945Z</time></trkpt><trkpt lat="33.135665" lon="10.289435"><ele>400.0</ele><time>2026-04-20T10:45:19.945Z</time></trkpt><trkpt lat="33.13554" lon="10.2895667"><ele>399.0</ele><time>2026-04-20T10:45:20.945Z</time></trkpt><trkpt lat="33.1354183" lon="10.28969"><ele>397.33333333333337</ele><time>2026-04-20T10:45:21.945Z</time></trkpt><trkpt lat="33.1352833" lon="10.2898167"><ele>395.6666666666667</ele><time>2026-04-20T10:45:22.945Z</time></trkpt><trkpt lat="33.13517" lon="10.2899533"><ele>394.0</ele><time>2026-04-20T10:45:23.945Z</time></trkpt><trkpt lat="33.1350683" lon="10.2901067"><ele>394.0</ele><time>2026-04-20T10:45:24.945Z</time></trkpt><trkpt lat="33.1349883" lon="10.2903"><ele>394.0</ele><time>2026-04-20T10:45:25.945Z</time></trkpt><trkpt lat="33.134925" lon="10.2905017"><ele>394.0</ele><time>2026-04-20T10:45:26.945Z</time></trkpt><trkpt lat="33.1348667" lon="10.2907267"><ele>390.0</ele><time>2026-04-20T10:45:27.945Z</time></trkpt><trkpt lat="33.1347967" lon="10.29095"><ele>386.0</ele><time>2026-04-20T10:45:28.945Z</time></trkpt><trkpt lat="33.1346933" lon="10.2911683"><ele>382.0</ele><time>2026-04-20T10:45:29.945Z</time></trkpt><trkpt lat="33.13457" lon="10.2913867"><ele>381.3333333333333</ele><time>2026-04-20T10:45:30.945Z</time></trkpt><trkpt lat="33.1344117" lon="10.2915783"><ele>380.6666666666667</ele><time>2026-04-20T10:45:31.945Z</time></trkpt><trkpt lat="33.1342467" lon="10.2917433"><ele>380.0</ele><time>2026-04-20T10:45:32.945Z</time></trkpt><trkpt lat="33.1340617" lon="10.2918967"><ele>378.0</ele><time>2026-04-20T10:45:33.945Z</time></trkpt><trkpt lat="33.13388" lon="10.2920467"><ele>376.0</ele><time>2026-04-20T10:45:34.945Z</time></trkpt><trkpt lat="33.13368" lon="10.2921967"><ele>377.0</ele><time>2026-04-20T10:45:35.945Z</time></trkpt><trkpt lat="33.133465" lon="10.2923333"><ele>378.0</ele><time>2026-04-20T10:45:36.945Z</time></trkpt><trkpt lat="33.1332533" lon="10.2924667"><ele>375.0</ele><time>2026-04-20T10:45:37.945Z</time></trkpt><trkpt lat="33.1330383" lon="10.2925917"><ele>372.0</ele><time>2026-04-20T10:45:38.945Z</time></trkpt><trkpt lat="33.1328333" lon="10.2927167"><ele>372.0</ele><time>2026-04-20T10:45:39.945Z</time></trkpt><trkpt lat="33.1326183" lon="10.2928417"><ele>372.0</ele><time>2026-04-20T10:45:40.945Z</time></trkpt><trkpt lat="33.132405" lon="10.2929683"><ele>369.5</ele><time>2026-04-20T10:45:41.945Z</time></trkpt><trkpt lat="33.1321867" lon="10.2930883"><ele>367.0</ele><time>2026-04-20T10:45:42.945Z</time></trkpt><trkpt lat="33.1319783" lon="10.2932017"><ele>367.0</ele><time>2026-04-20T10:45:43.945Z</time></trkpt><trkpt lat="33.13178" lon="10.2933067"><ele>367.0</ele><time>2026-04-20T10:45:44.945Z</time></trkpt><trkpt lat="33.1315867" lon="10.29342"><ele>367.0</ele><time>2026-04-20T10:45:45.945Z</time></trkpt><trkpt lat="33.131405" lon="10.2935233"><ele>365.0</ele><time>2026-04-20T10:45:46.945Z</time></trkpt><trkpt lat="33.1312333" lon="10.2936333"><ele>363.0</ele><time>2026-04-20T10:45:47.945Z</time></trkpt><trkpt lat="33.1310783" lon="10.293755"><ele>361.0</ele><time>2026-04-20T10:45:48.945Z</time></trkpt><trkpt lat="33.1309367" lon="10.2938783"><ele>360.75</ele><time>2026-04-20T10:45:49.945Z</time></trkpt><trkpt lat="33.1308133" lon="10.293995"><ele>360.5</ele><time>2026-04-20T10:45:50.945Z</time></trkpt><trkpt lat="33.1307033" lon="10.2941083"><ele>360.25</ele><time>2026-04-20T10:45:51.945Z</time></trkpt><trkpt lat="33.1306067" lon="10.294215"><ele>360.0</ele><time>2026-04-20T10:45:52.945Z</time></trkpt><trkpt lat="33.1305183" lon="10.2943067"><ele>358.6</ele><time>2026-04-20T10:45:53.945Z</time></trkpt><trkpt lat="33.130425" lon="10.2943817"><ele>357.2</ele><time>2026-04-20T10:45:54.945Z</time></trkpt><trkpt lat="33.1303283" lon="10.2944333"><ele>355.79999999999995</ele><time>2026-04-20T10:45:55.945Z</time></trkpt><trkpt lat="33.130235" lon="10.2944567"><ele>354.4</ele><time>2026-04-20T10:45:56.945Z</time></trkpt><trkpt lat="33.1301383" lon="10.2944567"><ele>353.0</ele><time>2026-04-20T10:45:57.945Z</time></trkpt><trkpt lat="33.1300517" lon="10.29443"><ele>353.0</ele><time>2026-04-20T10:45:58.945Z</time></trkpt><trkpt lat="33.129975" lon="10.2944"><ele>353.0</ele><time>2026-04-20T10:45:59.945Z</time></trkpt><trkpt lat="33.129905" lon="10.2943383"><ele>353.0</ele><time>2026-04-20T10:46:00.945Z</time></trkpt><trkpt lat="33.1298567" lon="10.2942583"><ele>353.0</ele><time>2026-04-20T10:46:01.945Z</time></trkpt><trkpt lat="33.1298417" lon="10.2941583"><ele>353.0</ele><time>2026-04-20T10:46:02.945Z</time></trkpt><trkpt lat="33.1298417" lon="10.2940583"><ele>353.0</ele><time>2026-04-20T10:46:03.945Z</time></trkpt><trkpt lat="33.129845" lon="10.2939583"><ele>353.85714285714283</ele><time>2026-04-20T10:46:04.945Z</time></trkpt><trkpt lat="33.12984" lon="10.2938567"><ele>354.7142857142857</ele><time>2026-04-20T10:46:05.945Z</time></trkpt><trkpt lat="33.129815" lon="10.2937683"><ele>355.57142857142856</ele><time>2026-04-20T10:46:06.945Z</time></trkpt><trkpt lat="33.1297667" lon="10.2937"><ele>356.42857142857144</ele><time>2026-04-20T10:46:07.945Z</time></trkpt><trkpt lat="33.1297017" lon="10.293665"><ele>357.28571428571433</ele><time>2026-04-20T10:46:08.945Z</time></trkpt><trkpt lat="33.129635" lon="10.293655"><ele>358.14285714285717</ele><time>2026-04-20T10:46:09.945Z</time></trkpt><trkpt lat="33.129565" lon="10.29366"><ele>359.0</ele><time>2026-04-20T10:46:10.945Z</time></trkpt><trkpt lat="33.129495" lon="10.2936817"><ele>359.0</ele><time>2026-04-20T10:46:11.945Z</time></trkpt><trkpt lat="33.1294233" lon="10.2937133"><ele>359.0</ele><time>2026-04-20T10:46:12.945Z</time></trkpt><trkpt lat="33.1293483" lon="10.2937533"><ele>359.0</ele><time>2026-04-20T10:46:13.945Z</time></trkpt><trkpt lat="33.1292733" lon="10.2937967"><ele>359.0</ele><time>2026-04-20T10:46:14.945Z</time></trkpt><trkpt lat="33.129185" lon="10.29384"><ele>359.0</ele><time>2026-04-20T10:46:15.945Z</time></trkpt><trkpt lat="33.129085" lon="10.2938817"><ele>359.0</ele><time>2026-04-20T10:46:16.945Z</time></trkpt><trkpt lat="33.128975" lon="10.29391"><ele>358.0</ele><time>2026-04-20T10:46:17.945Z</time></trkpt><trkpt lat="33.1288667" lon="10.2939217"><ele>357.0</ele><time>2026-04-20T10:46:18.945Z</time></trkpt><trkpt lat="33.1287567" lon="10.2939017"><ele>356.0</ele><time>2026-04-20T10:46:19.945Z</time></trkpt><trkpt lat="33.1286483" lon="10.293855"><ele>355.0</ele><time>2026-04-20T10:46:20.945Z</time></trkpt><trkpt lat="33.12854" lon="10.293795"><ele>355.0</ele><time>2026-04-20T10:46:21.945Z</time></trkpt><trkpt lat="33.1284333" lon="10.293735"><ele>355.0</ele><time>2026-04-20T10:46:22.945Z</time></trkpt><trkpt lat="33.128315" lon="10.293665"><ele>355.0</ele><time>2026-04-20T10:46:23.945Z</time></trkpt><trkpt lat="33.12817" lon="10.2935867"><ele>355.0</ele><time>2026-04-20T10:46:24.945Z</time></trkpt><trkpt lat="33.1280133" lon="10.2935067"><ele>353.0</ele><time>2026-04-20T10:46:25.945Z</time></trkpt><trkpt lat="33.1278533" lon="10.2934333"><ele>351.0</ele><time>2026-04-20T10:46:26.945Z</time></trkpt><trkpt lat="33.1276833" lon="10.29336"><ele>349.0</ele><time>2026-04-20T10:46:27.945Z</time></trkpt><trkpt lat="33.1275067" lon="10.2933083"><ele>348.66666666666663</ele><time>2026-04-20T10:46:28.945Z</time></trkpt><trkpt lat="33.1273333" lon="10.2932767"><ele>348.3333333333333</ele><time>2026-04-20T10:46:29.945Z</time></trkpt><trkpt lat="33.1271767" lon="10.2932433"><ele>348.0</ele><time>2026-04-20T10:46:30.945Z</time></trkpt><trkpt lat="33.1270383" lon="10.2932017"><ele>348.0</ele><time>2026-04-20T10:46:31.945Z</time></trkpt><trkpt lat="33.1269117" lon="10.2931567"><ele>348.0</ele><time>2026-04-20T10:46:32.945Z</time></trkpt><trkpt lat="33.126795" lon="10.2930933"><ele>348.0</ele><time>2026-04-20T10:46:33.945Z</time></trkpt><trkpt lat="33.1267017" lon="10.2930483"><ele>348.0</ele><time>2026-04-20T10:46:34.945Z</time></trkpt><trkpt lat="33.126625" lon="10.29303"><ele>348.0</ele><time>2026-04-20T10:46:35.945Z</time></trkpt><trkpt lat="33.126545" lon="10.2930283"><ele>348.8333333333333</ele><time>2026-04-20T10:46:37.945Z</time></trkpt><trkpt lat="33.1264533" lon="10.2930933"><ele>349.6666666666667</ele><time>2026-04-20T10:47:10.944Z</time></trkpt><trkpt lat="33.1264033" lon="10.29315"><ele>350.5</ele><time>2026-04-20T10:47:11.944Z</time></trkpt><trkpt lat="33.1263483" lon="10.2932183"><ele>351.33333333333337</ele><time>2026-04-20T10:47:12.944Z</time></trkpt><trkpt lat="33.1262867" lon="10.2932983"><ele>352.1666666666667</ele><time>2026-04-20T10:47:13.944Z</time></trkpt><trkpt lat="33.1262267" lon="10.2933933"><ele>353.0</ele><time>2026-04-20T10:47:14.944Z</time></trkpt><trkpt lat="33.1261783" lon="10.2935083"><ele>353.0</ele><time>2026-04-20T10:47:15.944Z</time></trkpt><trkpt lat="33.1261517" lon="10.293655"><ele>353.0</ele><time>2026-04-20T10:47:16.944Z</time></trkpt><trkpt lat="33.1261483" lon="10.293805"><ele>353.0</ele><time>2026-04-20T10:47:17.944Z</time></trkpt><trkpt lat="33.1261783" lon="10.2939433"><ele>353.0</ele><time>2026-04-20T10:47:18.944Z</time></trkpt><trkpt lat="33.1262367" lon="10.29407"><ele>353.0</ele><time>2026-04-20T10:47:19.944Z</time></trkpt><trkpt lat="33.12631" lon="10.2941717"><ele>353.0</ele><time>2026-04-20T10:47:20.944Z</time></trkpt><trkpt lat="33.1263933" lon="10.2942667"><ele>353.0</ele><time>2026-04-20T10:47:21.944Z</time></trkpt><trkpt lat="33.1264817" lon="10.29437"><ele>353.0</ele><time>2026-04-20T10:47:22.944Z</time></trkpt><trkpt lat="33.1265483" lon="10.2944817"><ele>352.5</ele><time>2026-04-20T10:47:23.944Z</time></trkpt><trkpt lat="33.1265867" lon="10.2946017"><ele>352.0</ele><time>2026-04-20T10:47:24.944Z</time></trkpt><trkpt lat="33.1265967" lon="10.2947333"><ele>351.5</ele><time>2026-04-20T10:47:25.944Z</time></trkpt><trkpt lat="33.1265783" lon="10.2948717"><ele>351.0</ele><time>2026-04-20T10:47:26.944Z</time></trkpt><trkpt lat="33.12655" lon="10.295015"><ele>353.25</ele><time>2026-04-20T10:47:27.944Z</time></trkpt><trkpt lat="33.12652" lon="10.295165"><ele>355.5</ele><time>2026-04-20T10:47:28.944Z</time></trkpt><trkpt lat="33.1264917" lon="10.295315"><ele>357.75</ele><time>2026-04-20T10:47:29.944Z</time></trkpt><trkpt lat="33.12646" lon="10.2954833"><ele>360.0</ele><time>2026-04-20T10:47:30.944Z</time></trkpt><trkpt lat="33.1264383" lon="10.2956583"><ele>362.3333333333333</ele><time>2026-04-20T10:47:31.944Z</time></trkpt><trkpt lat="33.126425" lon="10.295835"><ele>364.66666666666663</ele><time>2026-04-20T10:47:32.944Z</time></trkpt><trkpt lat="33.1264217" lon="10.2960217"><ele>367.0</ele><time>2026-04-20T10:47:33.944Z</time></trkpt><trkpt lat="33.12644" lon="10.2962083"><ele>367.0</ele><time>2026-04-20T10:47:34.944Z</time></trkpt><trkpt lat="33.1264667" lon="10.296395"><ele>367.0</ele><time>2026-04-20T10:47:35.944Z</time></trkpt><trkpt lat="33.1265133" lon="10.29657"><ele>367.0</ele><time>2026-04-20T10:47:36.944Z</time></trkpt><trkpt lat="33.12655" lon="10.2967333"><ele>367.20000000000005</ele><time>2026-04-20T10:47:37.944Z</time></trkpt><trkpt lat="33.1265567" lon="10.2968867"><ele>367.4</ele><time>2026-04-20T10:47:38.944Z</time></trkpt><trkpt lat="33.12654" lon="10.2970033"><ele>367.6</ele><time>2026-04-20T10:47:39.944Z</time></trkpt><trkpt lat="33.1264833" lon="10.2971033"><ele>367.79999999999995</ele><time>2026-04-20T10:47:40.944Z</time></trkpt><trkpt lat="33.1263967" lon="10.2971633"><ele>368.0</ele><time>2026-04-20T10:47:41.944Z</time></trkpt><trkpt lat="33.1262917" lon="10.2971717"><ele>368.0</ele><time>2026-04-20T10:47:42.944Z</time></trkpt><trkpt lat="33.1261817" lon="10.297145"><ele>368.0</ele><time>2026-04-20T10:47:43.944Z</time></trkpt><trkpt lat="33.126075" lon="10.2970933"><ele>368.0</ele><time>2026-04-20T10:47:44.944Z</time></trkpt><trkpt lat="33.1259717" lon="10.2970233"><ele>368.0</ele><time>2026-04-20T10:47:45.944Z</time></trkpt><trkpt lat="33.1258583" lon="10.2969533"><ele>368.0</ele><time>2026-04-20T10:47:46.944Z</time></trkpt><trkpt lat="33.125745" lon="10.2968683"><ele>368.0</ele><time>2026-04-20T10:47:47.944Z</time></trkpt><trkpt lat="33.1256283" lon="10.2967767"><ele>368.0</ele><time>2026-04-20T10:47:48.944Z</time></trkpt><trkpt lat="33.1255083" lon="10.29668"><ele>368.0</ele><time>2026-04-20T10:47:49.944Z</time></trkpt><trkpt lat="33.1253733" lon="10.2965833"><ele>367.33333333333337</ele><time>2026-04-20T10:47:50.944Z</time></trkpt><trkpt lat="33.1252367" lon="10.2964817"><ele>366.6666666666667</ele><time>2026-04-20T10:47:51.944Z</time></trkpt><trkpt lat="33.1250783" lon="10.296385"><ele>366.0</ele><time>2026-04-20T10:47:52.944Z</time></trkpt><trkpt lat="33.1249117" lon="10.2963"><ele>366.6666666666667</ele><time>2026-04-20T10:47:53.944Z</time></trkpt><trkpt lat="33.1247283" lon="10.2962533"><ele>367.33333333333337</ele><time>2026-04-20T10:47:54.944Z</time></trkpt><trkpt lat="33.1245283" lon="10.296235"><ele>368.0</ele><time>2026-04-20T10:47:55.944Z</time></trkpt><trkpt lat="33.12434" lon="10.2962267"><ele>368.0</ele><time>2026-04-20T10:47:56.944Z</time></trkpt><trkpt lat="33.1241683" lon="10.2962167"><ele>368.0</ele><time>2026-04-20T10:47:57.944Z</time></trkpt><trkpt lat="33.124015" lon="10.2962433"><ele>368.0</ele><time>2026-04-20T10:47:58.944Z</time></trkpt><trkpt lat="33.1238767" lon="10.2963"><ele>367.25</ele><time>2026-04-20T10:47:59.944Z</time></trkpt><trkpt lat="33.123755" lon="10.2963783"><ele>366.5</ele><time>2026-04-20T10:48:00.944Z</time></trkpt><trkpt lat="33.1236367" lon="10.2964867"><ele>365.75</ele><time>2026-04-20T10:48:01.944Z</time></trkpt><trkpt lat="33.123525" lon="10.2965983"><ele>365.0</ele><time>2026-04-20T10:48:02.944Z</time></trkpt><trkpt lat="33.123405" lon="10.29672"><ele>368.0</ele><time>2026-04-20T10:48:03.944Z</time></trkpt><trkpt lat="33.1232767" lon="10.29683"><ele>371.0</ele><time>2026-04-20T10:48:04.944Z</time></trkpt><trkpt lat="33.1231333" lon="10.2969267"><ele>374.0</ele><time>2026-04-20T10:48:05.944Z</time></trkpt><trkpt lat="33.12297" lon="10.2970117"><ele>374.0</ele><time>2026-04-20T10:48:06.944Z</time></trkpt><trkpt lat="33.1228017" lon="10.2970883"><ele>374.0</ele><time>2026-04-20T10:48:07.944Z</time></trkpt><trkpt lat="33.1226217" lon="10.297155"><ele>374.0</ele><time>2026-04-20T10:48:08.944Z</time></trkpt><trkpt lat="33.122435" lon="10.2972267"><ele>374.33333333333337</ele><time>2026-04-20T10:48:09.944Z</time></trkpt><trkpt lat="33.12225" lon="10.297285"><ele>374.6666666666667</ele><time>2026-04-20T10:48:10.944Z</time></trkpt><trkpt lat="33.1220667" lon="10.2973483"><ele>375.0</ele><time>2026-04-20T10:48:11.944Z</time></trkpt><trkpt lat="33.12188" lon="10.297425"><ele>375.0</ele><time>2026-04-20T10:48:12.944Z</time></trkpt><trkpt lat="33.1216867" lon="10.2974917"><ele>375.0</ele><time>2026-04-20T10:48:13.944Z</time></trkpt><trkpt lat="33.121505" lon="10.2975817"><ele>375.0</ele><time>2026-04-20T10:48:14.944Z</time></trkpt><trkpt lat="33.1213467" lon="10.2976883"><ele>374.0</ele><time>2026-04-20T10:48:15.944Z</time></trkpt><trkpt lat="33.1212167" lon="10.2978067"><ele>373.0</ele><time>2026-04-20T10:48:16.944Z</time></trkpt><trkpt lat="33.1211083" lon="10.29794"><ele>372.0</ele><time>2026-04-20T10:48:17.944Z</time></trkpt><trkpt lat="33.12102" lon="10.2980883"><ele>371.3333333333333</ele><time>2026-04-20T10:48:18.944Z</time></trkpt><trkpt lat="33.12093" lon="10.2982467"><ele>370.66666666666663</ele><time>2026-04-20T10:48:19.944Z</time></trkpt><trkpt lat="33.120845" lon="10.298415"><ele>370.0</ele><time>2026-04-20T10:48:20.944Z</time></trkpt><trkpt lat="33.1207517" lon="10.2985867"><ele>368.3333333333333</ele><time>2026-04-20T10:48:21.944Z</time></trkpt><trkpt lat="33.1206617" lon="10.2987667"><ele>366.6666666666667</ele><time>2026-04-20T10:48:22.944Z</time></trkpt><trkpt lat="33.1205567" lon="10.2989383"><ele>365.0</ele><time>2026-04-20T10:48:23.944Z</time></trkpt><trkpt lat="33.1204267" lon="10.2990983"><ele>365.0</ele><time>2026-04-20T10:48:24.944Z</time></trkpt><trkpt lat="33.1202733" lon="10.2992417"><ele>365.0</ele><time>2026-04-20T10:48:25.944Z</time></trkpt><trkpt lat="33.1201083" lon="10.2993617"><ele>365.0</ele><time>2026-04-20T10:48:26.944Z</time></trkpt><trkpt lat="33.1199283" lon="10.2994667"><ele>363.6666666666667</ele><time>2026-04-20T10:48:27.944Z</time></trkpt><trkpt lat="33.11975" lon="10.299565"><ele>362.3333333333333</ele><time>2026-04-20T10:48:28.944Z</time></trkpt><trkpt lat="33.11956" lon="10.2996667"><ele>361.0</ele><time>2026-04-20T10:48:29.944Z</time></trkpt><trkpt lat="33.11937" lon="10.29976"><ele>360.3333333333333</ele><time>2026-04-20T10:48:30.944Z</time></trkpt><trkpt lat="33.1191717" lon="10.299865"><ele>359.6666666666667</ele><time>2026-04-20T10:48:31.944Z</time></trkpt><trkpt lat="33.1189817" lon="10.299965"><ele>359.0</ele><time>2026-04-20T10:48:32.944Z</time></trkpt><trkpt lat="33.118795" lon="10.3000633"><ele>359.0</ele><time>2026-04-20T10:48:33.944Z</time></trkpt><trkpt lat="33.1186067" lon="10.3001583"><ele>359.0</ele><time>2026-04-20T10:48:34.944Z</time></trkpt><trkpt lat="33.118415" lon="10.30025"><ele>359.0</ele><time>2026-04-20T10:48:35.944Z</time></trkpt><trkpt lat="33.1182283" lon="10.3003417"><ele>357.33333333333337</ele><time>2026-04-20T10:48:36.944Z</time></trkpt><trkpt lat="33.1180467" lon="10.300435"><ele>355.6666666666667</ele><time>2026-04-20T10:48:37.944Z</time></trkpt><trkpt lat="33.1178733" lon="10.3005383"><ele>354.0</ele><time>2026-04-20T10:48:38.944Z</time></trkpt><trkpt lat="33.1177133" lon="10.300665"><ele>353.6666666666667</ele><time>2026-04-20T10:48:39.944Z</time></trkpt><trkpt lat="33.1175683" lon="10.30081"><ele>353.33333333333337</ele><time>2026-04-20T10:48:40.944Z</time></trkpt><trkpt lat="33.117435" lon="10.3009683"><ele>353.0</ele><time>2026-04-20T10:48:41.944Z</time></trkpt><trkpt lat="33.1172967" lon="10.3011183"><ele>352.6666666666667</ele><time>2026-04-20T10:48:42.944Z</time></trkpt><trkpt lat="33.1171433" lon="10.301245"><ele>352.3333333333333</ele><time>2026-04-20T10:48:43.944Z</time></trkpt><trkpt lat="33.1169733" lon="10.3013467"><ele>352.0</ele><time>2026-04-20T10:48:44.944Z</time></trkpt><trkpt lat="33.1167933" lon="10.301435"><ele>352.66666666666663</ele><time>2026-04-20T10:48:45.944Z</time></trkpt><trkpt lat="33.11662" lon="10.3015067"><ele>353.3333333333333</ele><time>2026-04-20T10:48:46.944Z</time></trkpt><trkpt lat="33.1164467" lon="10.30159"><ele>354.0</ele><time>2026-04-20T10:48:47.944Z</time></trkpt><trkpt lat="33.1162833" lon="10.3016767"><ele>354.0</ele><time>2026-04-20T10:48:48.944Z</time></trkpt><trkpt lat="33.1161317" lon="10.3017517"><ele>354.0</ele><time>2026-04-20T10:48:49.944Z</time></trkpt><trkpt lat="33.1159867" lon="10.30181"><ele>354.0</ele><time>2026-04-20T10:48:50.944Z</time></trkpt><trkpt lat="33.1158417" lon="10.301845"><ele>353.3333333333333</ele><time>2026-04-20T10:48:51.944Z</time></trkpt><trkpt lat="33.115695" lon="10.301845"><ele>352.66666666666663</ele><time>2026-04-20T10:48:52.944Z</time></trkpt><trkpt lat="33.1155333" lon="10.301815"><ele>352.0</ele><time>2026-04-20T10:48:53.944Z</time></trkpt><trkpt lat="33.1153667" lon="10.3017667"><ele>352.0</ele><time>2026-04-20T10:48:54.944Z</time></trkpt><trkpt lat="33.1152017" lon="10.3016983"><ele>352.0</ele><time>2026-04-20T10:48:55.944Z</time></trkpt><trkpt lat="33.11503" lon="10.30164"><ele>352.0</ele><time>2026-04-20T10:48:56.944Z</time></trkpt><trkpt lat="33.1148517" lon="10.3015867"><ele>353.3333333333333</ele><time>2026-04-20T10:48:57.944Z</time></trkpt><trkpt lat="33.1146717" lon="10.3015467"><ele>354.6666666666667</ele><time>2026-04-20T10:48:58.944Z</time></trkpt><trkpt lat="33.114495" lon="10.3015083"><ele>356.0</ele><time>2026-04-20T10:48:59.944Z</time></trkpt><trkpt lat="33.1143183" lon="10.30146"><ele>357.0</ele><time>2026-04-20T10:49:00.944Z</time></trkpt><trkpt lat="33.1141467" lon="10.3014133"><ele>358.0</ele><time>2026-04-20T10:49:01.944Z</time></trkpt><trkpt lat="33.1139833" lon="10.301375"><ele>359.0</ele><time>2026-04-20T10:49:02.944Z</time></trkpt><trkpt lat="33.113825" lon="10.3013267"><ele>360.0</ele><time>2026-04-20T10:49:03.944Z</time></trkpt><trkpt lat="33.1136883" lon="10.3012883"><ele>361.0</ele><time>2026-04-20T10:49:04.944Z</time></trkpt><trkpt lat="33.1135583" lon="10.3012533"><ele>362.0</ele><time>2026-04-20T10:49:05.944Z</time></trkpt><trkpt lat="33.1134267" lon="10.3012217"><ele>363.0</ele><time>2026-04-20T10:49:06.944Z</time></trkpt><trkpt lat="33.1132933" lon="10.301185"><ele>362.75</ele><time>2026-04-20T10:49:07.944Z</time></trkpt><trkpt lat="33.1131583" lon="10.301135"><ele>362.5</ele><time>2026-04-20T10:49:08.944Z</time></trkpt><trkpt lat="33.1130167" lon="10.3010967"><ele>362.25</ele><time>2026-04-20T10:49:09.944Z</time></trkpt><trkpt lat="33.1128683" lon="10.3010733"><ele>362.0</ele><time>2026-04-20T10:49:10.944Z</time></trkpt><trkpt lat="33.1127133" lon="10.30107"><ele>362.0</ele><time>2026-04-20T10:49:11.944Z</time></trkpt><trkpt lat="33.112555" lon="10.3010967"><ele>362.0</ele><time>2026-04-20T10:49:12.944Z</time></trkpt><trkpt lat="33.1123983" lon="10.3011467"><ele>362.0</ele><time>2026-04-20T10:49:13.944Z</time></trkpt><trkpt lat="33.11226" lon="10.3012167"><ele>361.75</ele><time>2026-04-20T10:49:14.944Z</time></trkpt><trkpt lat="33.1121317" lon="10.3013067"><ele>361.5</ele><time>2026-04-20T10:49:15.944Z</time></trkpt><trkpt lat="33.11201" lon="10.3014083"><ele>361.25</ele><time>2026-04-20T10:49:16.944Z</time></trkpt><trkpt lat="33.111885" lon="10.3015017"><ele>361.0</ele><time>2026-04-20T10:49:17.944Z</time></trkpt><trkpt lat="33.1117517" lon="10.3015817"><ele>361.0</ele><time>2026-04-20T10:49:18.944Z</time></trkpt><trkpt lat="33.1116117" lon="10.3016367"><ele>361.0</ele><time>2026-04-20T10:49:19.944Z</time></trkpt><trkpt lat="33.1114717" lon="10.301665"><ele>361.0</ele><time>2026-04-20T10:49:20.944Z</time></trkpt><trkpt lat="33.111325" lon="10.30169"><ele>361.0</ele><time>2026-04-20T10:49:21.944Z</time></trkpt><trkpt lat="33.1111783" lon="10.3017067"><ele>361.3333333333333</ele><time>2026-04-20T10:49:22.944Z</time></trkpt><trkpt lat="33.111025" lon="10.3017283"><ele>361.6666666666667</ele><time>2026-04-20T10:49:23.944Z</time></trkpt><trkpt lat="33.1108617" lon="10.30176"><ele>362.0</ele><time>2026-04-20T10:49:24.944Z</time></trkpt><trkpt lat="33.1107" lon="10.3017967"><ele>361.0</ele><time>2026-04-20T10:49:25.944Z</time></trkpt><trkpt lat="33.1105433" lon="10.3018317"><ele>360.0</ele><time>2026-04-20T10:49:26.944Z</time></trkpt><trkpt lat="33.110395" lon="10.3018683"><ele>359.0</ele><time>2026-04-20T10:49:27.944Z</time></trkpt><trkpt lat="33.1102567" lon="10.3019117"><ele>359.0</ele><time>2026-04-20T10:49:28.944Z</time></trkpt><trkpt lat="33.11013" lon="10.3019783"><ele>359.0</ele><time>2026-04-20T10:49:29.944Z</time></trkpt><trkpt lat="33.110015" lon="10.3020717"><ele>359.0</ele><time>2026-04-20T10:49:30.944Z</time></trkpt><trkpt lat="33.1099167" lon="10.3021917"><ele>359.0</ele><time>2026-04-20T10:49:31.944Z</time></trkpt><trkpt lat="33.1098317" lon="10.302335"><ele>356.0</ele><time>2026-04-20T10:49:32.944Z</time></trkpt><trkpt lat="33.1097733" lon="10.3024917"><ele>353.0</ele><time>2026-04-20T10:49:33.944Z</time></trkpt><trkpt lat="33.1097267" lon="10.3026617"><ele>350.0</ele><time>2026-04-20T10:49:34.944Z</time></trkpt><trkpt lat="33.1096883" lon="10.3028317"><ele>347.0</ele><time>2026-04-20T10:49:35.944Z</time></trkpt><trkpt lat="33.109655" lon="10.3029833"><ele>346.83333333333337</ele><time>2026-04-20T10:49:36.944Z</time></trkpt><trkpt lat="33.10962" lon="10.3031083"><ele>346.6666666666667</ele><time>2026-04-20T10:49:37.944Z</time></trkpt><trkpt lat="33.1095717" lon="10.3032067"><ele>346.5</ele><time>2026-04-20T10:49:38.944Z</time></trkpt><trkpt lat="33.1095167" lon="10.30326"><ele>346.3333333333333</ele><time>2026-04-20T10:49:39.944Z</time></trkpt><trkpt lat="33.10945" lon="10.303255"><ele>346.16666666666663</ele><time>2026-04-20T10:49:40.944Z</time></trkpt><trkpt lat="33.109385" lon="10.30322"><ele>346.0</ele><time>2026-04-20T10:49:41.944Z</time></trkpt><trkpt lat="33.1093083" lon="10.3031467"><ele>346.25</ele><time>2026-04-20T10:49:42.944Z</time></trkpt><trkpt lat="33.10924" lon="10.303035"><ele>346.5</ele><time>2026-04-20T10:49:43.944Z</time></trkpt><trkpt lat="33.1091717" lon="10.3028967"><ele>346.75</ele><time>2026-04-20T10:49:44.944Z</time></trkpt><trkpt lat="33.109105" lon="10.30275"><ele>347.0</ele><time>2026-04-20T10:49:45.944Z</time></trkpt><trkpt lat="33.109025" lon="10.3025917"><ele>345.0</ele><time>2026-04-20T10:49:46.944Z</time></trkpt><trkpt lat="33.1089283" lon="10.3024483"><ele>343.0</ele><time>2026-04-20T10:49:47.944Z</time></trkpt><trkpt lat="33.1088183" lon="10.3023233"><ele>341.0</ele><time>2026-04-20T10:49:48.944Z</time></trkpt><trkpt lat="33.10868" lon="10.3022217"><ele>341.0</ele><time>2026-04-20T10:49:49.944Z</time></trkpt><trkpt lat="33.1085283" lon="10.3021617"><ele>341.0</ele><time>2026-04-20T10:49:50.944Z</time></trkpt><trkpt lat="33.10838" lon="10.302135"><ele>341.0</ele><time>2026-04-20T10:49:51.944Z</time></trkpt><trkpt lat="33.1082283" lon="10.3021417"><ele>342.0</ele><time>2026-04-20T10:49:52.944Z</time></trkpt><trkpt lat="33.108075" lon="10.3021717"><ele>343.0</ele><time>2026-04-20T10:49:53.944Z</time></trkpt><trkpt lat="33.1079283" lon="10.3022483"><ele>344.0</ele><time>2026-04-20T10:49:54.944Z</time></trkpt><trkpt lat="33.107795" lon="10.302345"><ele>344.0</ele><time>2026-04-20T10:49:55.944Z</time></trkpt><trkpt lat="33.1076717" lon="10.302465"><ele>344.0</ele><time>2026-04-20T10:49:56.944Z</time></trkpt><trkpt lat="33.107555" lon="10.3026017"><ele>344.0</ele><time>2026-04-20T10:49:57.944Z</time></trkpt><trkpt lat="33.1074383" lon="10.3027483"><ele>344.6666666666667</ele><time>2026-04-20T10:49:58.944Z</time></trkpt><trkpt lat="33.1073283" lon="10.30291"><ele>345.3333333333333</ele><time>2026-04-20T10:49:59.944Z</time></trkpt><trkpt lat="33.107215" lon="10.3030833"><ele>346.0</ele><time>2026-04-20T10:50:00.944Z</time></trkpt><trkpt lat="33.1071133" lon="10.303265"><ele>346.0</ele><time>2026-04-20T10:50:01.944Z</time></trkpt><trkpt lat="33.1070133" lon="10.303445"><ele>346.0</ele><time>2026-04-20T10:50:02.944Z</time></trkpt><trkpt lat="33.106915" lon="10.3036267"><ele>346.0</ele><time>2026-04-20T10:50:03.944Z</time></trkpt><trkpt lat="33.1068233" lon="10.3038117"><ele>344.66666666666663</ele><time>2026-04-20T10:50:04.944Z</time></trkpt><trkpt lat="33.1067383" lon="10.303995"><ele>343.3333333333333</ele><time>2026-04-20T10:50:05.944Z</time></trkpt><trkpt lat="33.1066783" lon="10.30419"><ele>342.0</ele><time>2026-04-20T10:50:06.944Z</time></trkpt><trkpt lat="33.1066583" lon="10.3043867"><ele>342.0</ele><time>2026-04-20T10:50:07.944Z</time></trkpt><trkpt lat="33.1066617" lon="10.3045917"><ele>342.0</ele><time>2026-04-20T10:50:08.944Z</time></trkpt><trkpt lat="33.1066717" lon="10.3047983"><ele>342.0</ele><time>2026-04-20T10:50:09.944Z</time></trkpt><trkpt lat="33.1066833" lon="10.3050133"><ele>342.0</ele><time>2026-04-20T10:50:10.944Z</time></trkpt><trkpt lat="33.1066967" lon="10.3052317"><ele>342.0</ele><time>2026-04-20T10:50:11.944Z</time></trkpt><trkpt lat="33.1067083" lon="10.30546"><ele>342.0</ele><time>2026-04-20T10:50:12.944Z</time></trkpt><trkpt lat="33.1067167" lon="10.3056883"><ele>343.3333333333333</ele><time>2026-04-20T10:50:13.944Z</time></trkpt><trkpt lat="33.1067317" lon="10.3058983"><ele>344.66666666666663</ele><time>2026-04-20T10:50:14.944Z</time></trkpt><trkpt lat="33.1067583" lon="10.3060967"><ele>346.0</ele><time>2026-04-20T10:50:15.944Z</time></trkpt><trkpt lat="33.1067683" lon="10.30628"><ele>346.25</ele><time>2026-04-20T10:50:16.944Z</time></trkpt><trkpt lat="33.1067633" lon="10.306455"><ele>346.5</ele><time>2026-04-20T10:50:17.944Z</time></trkpt><trkpt lat="33.106735" lon="10.30662"><ele>346.75</ele><time>2026-04-20T10:50:18.944Z</time></trkpt><trkpt lat="33.1066817" lon="10.3067733"><ele>347.0</ele><time>2026-04-20T10:50:19.944Z</time></trkpt><trkpt lat="33.1066017" lon="10.3068967"><ele>349.0</ele><time>2026-04-20T10:50:20.944Z</time></trkpt><trkpt lat="33.1065" lon="10.306985"><ele>351.0</ele><time>2026-04-20T10:50:21.944Z</time></trkpt><trkpt lat="33.1063783" lon="10.3070633"><ele>353.0</ele><time>2026-04-20T10:50:22.944Z</time></trkpt><trkpt lat="33.1062483" lon="10.3071183"><ele>355.0</ele><time>2026-04-20T10:50:23.944Z</time></trkpt><trkpt lat="33.1061167" lon="10.3071967"><ele>353.5</ele><time>2026-04-20T10:50:24.944Z</time></trkpt><trkpt lat="33.1059967" lon="10.30728"><ele>352.0</ele><time>2026-04-20T10:50:25.944Z</time></trkpt><trkpt lat="33.1059017" lon="10.30739"><ele>350.5</ele><time>2026-04-20T10:50:26.944Z</time></trkpt><trkpt lat="33.1058233" lon="10.3075217"><ele>349.0</ele><time>2026-04-20T10:50:27.944Z</time></trkpt><trkpt lat="33.1057683" lon="10.3076717"><ele>350.5</ele><time>2026-04-20T10:50:28.944Z</time></trkpt><trkpt lat="33.105725" lon="10.3078417"><ele>352.0</ele><time>2026-04-20T10:50:29.944Z</time></trkpt><trkpt lat="33.10569" lon="10.3080083"><ele>353.5</ele><time>2026-04-20T10:50:30.944Z</time></trkpt><trkpt lat="33.105655" lon="10.3081767"><ele>355.0</ele><time>2026-04-20T10:50:31.944Z</time></trkpt><trkpt lat="33.1056167" lon="10.3083467"><ele>355.0</ele><time>2026-04-20T10:50:32.944Z</time></trkpt><trkpt lat="33.1055717" lon="10.3085117"><ele>355.0</ele><time>2026-04-20T10:50:33.944Z</time></trkpt><trkpt lat="33.1055233" lon="10.3086783"><ele>355.0</ele><time>2026-04-20T10:50:34.944Z</time></trkpt><trkpt lat="33.1054683" lon="10.3088433"><ele>355.0</ele><time>2026-04-20T10:50:35.944Z</time></trkpt><trkpt lat="33.1054117" lon="10.3090067"><ele>354.0</ele><time>2026-04-20T10:50:36.944Z</time></trkpt><trkpt lat="33.1053533" lon="10.3091667"><ele>353.0</ele><time>2026-04-20T10:50:37.944Z</time></trkpt><trkpt lat="33.105265" lon="10.3093233"><ele>352.0</ele><time>2026-04-20T10:50:38.944Z</time></trkpt><trkpt lat="33.1051717" lon="10.3094683"><ele>352.0</ele><time>2026-04-20T10:50:39.944Z</time></trkpt><trkpt lat="33.10507" lon="10.3096033"><ele>352.0</ele><time>2026-04-20T10:50:40.944Z</time></trkpt><trkpt lat="33.1049567" lon="10.3097133"><ele>352.0</ele><time>2026-04-20T10:50:41.943Z</time></trkpt><trkpt lat="33.1048333" lon="10.30982"><ele>354.3333333333333</ele><time>2026-04-20T10:50:42.943Z</time></trkpt><trkpt lat="33.104695" lon="10.3098967"><ele>356.6666666666667</ele><time>2026-04-20T10:50:43.943Z</time></trkpt><trkpt lat="33.1045583" lon="10.309975"><ele>359.0</ele><time>2026-04-20T10:50:44.943Z</time></trkpt><trkpt lat="33.1044333" lon="10.3100683"><ele>359.0</ele><time>2026-04-20T10:50:45.943Z</time></trkpt><trkpt lat="33.1043217" lon="10.3101717"><ele>359.0</ele><time>2026-04-20T10:50:46.943Z</time></trkpt><trkpt lat="33.1042267" lon="10.3103"><ele>359.0</ele><time>2026-04-20T10:50:47.943Z</time></trkpt><trkpt lat="33.1041417" lon="10.3104317"><ele>359.0</ele><time>2026-04-20T10:50:48.943Z</time></trkpt><trkpt lat="33.10406" lon="10.31057"><ele>358.75</ele><time>2026-04-20T10:50:49.943Z</time></trkpt><trkpt lat="33.1039783" lon="10.3107083"><ele>358.5</ele><time>2026-04-20T10:50:50.943Z</time></trkpt><trkpt lat="33.1038867" lon="10.31084"><ele>358.25</ele><time>2026-04-20T10:50:51.943Z</time></trkpt><trkpt lat="33.1037933" lon="10.3109667"><ele>358.0</ele><time>2026-04-20T10:50:52.943Z</time></trkpt><trkpt lat="33.1036867" lon="10.3110883"><ele>358.0</ele><time>2026-04-20T10:50:53.943Z</time></trkpt><trkpt lat="33.1035717" lon="10.311205"><ele>358.0</ele><time>2026-04-20T10:50:54.943Z</time></trkpt><trkpt lat="33.1034517" lon="10.311315"><ele>358.0</ele><time>2026-04-20T10:50:55.943Z</time></trkpt><trkpt lat="33.1033233" lon="10.311405"><ele>359.75</ele><time>2026-04-20T10:50:56.943Z</time></trkpt><trkpt lat="33.103195" lon="10.3114767"><ele>361.5</ele><time>2026-04-20T10:50:57.943Z</time></trkpt><trkpt lat="33.1030583" lon="10.3115383"><ele>363.25</ele><time>2026-04-20T10:50:58.943Z</time></trkpt><trkpt lat="33.1029333" lon="10.3115867"><ele>365.0</ele><time>2026-04-20T10:50:59.943Z</time></trkpt><trkpt lat="33.1028183" lon="10.31162"><ele>365.0</ele><time>2026-04-20T10:51:00.943Z</time></trkpt><trkpt lat="33.1027033" lon="10.31165"><ele>365.0</ele><time>2026-04-20T10:51:01.943Z</time></trkpt><trkpt lat="33.1025967" lon="10.3116633"><ele>365.0</ele><time>2026-04-20T10:51:02.943Z</time></trkpt><trkpt lat="33.1024917" lon="10.3116767"><ele>365.0</ele><time>2026-04-20T10:51:03.943Z</time></trkpt><trkpt lat="33.1023833" lon="10.3117033"><ele>365.0</ele><time>2026-04-20T10:51:04.943Z</time></trkpt><trkpt lat="33.1022783" lon="10.3117233"><ele>366.0</ele><time>2026-04-20T10:51:05.943Z</time></trkpt><trkpt lat="33.1021683" lon="10.3117533"><ele>367.0</ele><time>2026-04-20T10:51:06.943Z</time></trkpt><trkpt lat="33.1020583" lon="10.3117767"><ele>368.0</ele><time>2026-04-20T10:51:07.943Z</time></trkpt><trkpt lat="33.1019467" lon="10.311805"><ele>369.0</ele><time>2026-04-20T10:51:08.943Z</time></trkpt><trkpt lat="33.1018333" lon="10.3118317"><ele>369.0</ele><time>2026-04-20T10:51:09.943Z</time></trkpt><trkpt lat="33.10172" lon="10.3118533"><ele>369.0</ele><time>2026-04-20T10:51:10.943Z</time></trkpt><trkpt lat="33.1016067" lon="10.3118767"><ele>369.0</ele><time>2026-04-20T10:51:11.943Z</time></trkpt><trkpt lat="33.101495" lon="10.3119"><ele>369.0</ele><time>2026-04-20T10:51:12.943Z</time></trkpt><trkpt lat="33.10138" lon="10.3119267"><ele>371.6</ele><time>2026-04-20T10:51:13.943Z</time></trkpt><trkpt lat="33.1012733" lon="10.3119467"><ele>374.2</ele><time>2026-04-20T10:51:14.943Z</time></trkpt><trkpt lat="33.1011633" lon="10.3119567"><ele>376.8</ele><time>2026-04-20T10:51:15.943Z</time></trkpt><trkpt lat="33.1010567" lon="10.3119517"><ele>379.40000000000003</ele><time>2026-04-20T10:51:16.943Z</time></trkpt><trkpt lat="33.1009433" lon="10.31194"><ele>382.0</ele><time>2026-04-20T10:51:17.943Z</time></trkpt><trkpt lat="33.10083" lon="10.3119117"><ele>382.0</ele><time>2026-04-20T10:51:18.943Z</time></trkpt><trkpt lat="33.10072" lon="10.3118717"><ele>382.0</ele><time>2026-04-20T10:51:19.943Z</time></trkpt><trkpt lat="33.1006133" lon="10.3118183"><ele>382.0</ele><time>2026-04-20T10:51:20.943Z</time></trkpt><trkpt lat="33.100495" lon="10.311785"><ele>382.0</ele><time>2026-04-20T10:51:21.943Z</time></trkpt><trkpt lat="33.1003767" lon="10.311755"><ele>382.0</ele><time>2026-04-20T10:51:22.943Z</time></trkpt><trkpt lat="33.100255" lon="10.3117433"><ele>382.0</ele><time>2026-04-20T10:51:23.943Z</time></trkpt><trkpt lat="33.1001333" lon="10.3117333"><ele>382.0</ele><time>2026-04-20T10:51:24.943Z</time></trkpt><trkpt lat="33.1000183" lon="10.3117233"><ele>382.0</ele><time>2026-04-20T10:51:25.943Z</time></trkpt><trkpt lat="33.0999" lon="10.3117117"><ele>381.0</ele><time>2026-04-20T10:51:26.943Z</time></trkpt><trkpt lat="33.0997867" lon="10.3116917"><ele>380.0</ele><time>2026-04-20T10:51:27.943Z</time></trkpt><trkpt lat="33.099665" lon="10.3116817"><ele>379.0</ele><time>2026-04-20T10:51:28.943Z</time></trkpt><trkpt lat="33.0995483" lon="10.3116617"><ele>378.0</ele><time>2026-04-20T10:51:29.943Z</time></trkpt><trkpt lat="33.0994333" lon="10.311645"><ele>378.0</ele><time>2026-04-20T10:51:30.943Z</time></trkpt><trkpt lat="33.09931" lon="10.3116267"><ele>378.0</ele><time>2026-04-20T10:51:31.943Z</time></trkpt><trkpt lat="33.0991867" lon="10.3116017"><ele>378.0</ele><time>2026-04-20T10:51:32.943Z</time></trkpt><trkpt lat="33.099065" lon="10.3115817"><ele>378.0</ele><time>2026-04-20T10:51:33.943Z</time></trkpt><trkpt lat="33.0989367" lon="10.311575"><ele>377.0</ele><time>2026-04-20T10:51:34.943Z</time></trkpt><trkpt lat="33.09881" lon="10.3115567"><ele>376.0</ele><time>2026-04-20T10:51:35.943Z</time></trkpt><trkpt lat="33.098675" lon="10.311545"><ele>375.0</ele><time>2026-04-20T10:51:36.943Z</time></trkpt><trkpt lat="33.098545" lon="10.3115267"><ele>374.0</ele><time>2026-04-20T10:51:37.943Z</time></trkpt><trkpt lat="33.098405" lon="10.311515"><ele>374.0</ele><time>2026-04-20T10:51:38.943Z</time></trkpt><trkpt lat="33.0982733" lon="10.3114983"><ele>374.0</ele><time>2026-04-20T10:51:39.943Z</time></trkpt><trkpt lat="33.0981517" lon="10.3114817"><ele>374.0</ele><time>2026-04-20T10:51:40.943Z</time></trkpt><trkpt lat="33.0980433" lon="10.311465"><ele>374.0</ele><time>2026-04-20T10:51:41.943Z</time></trkpt><trkpt lat="33.09794" lon="10.3114517"><ele>373.2</ele><time>2026-04-20T10:51:42.943Z</time></trkpt><trkpt lat="33.09784" lon="10.3114467"><ele>372.4</ele><time>2026-04-20T10:51:43.943Z</time></trkpt><trkpt lat="33.09774" lon="10.311455"><ele>371.6</ele><time>2026-04-20T10:51:44.943Z</time></trkpt><trkpt lat="33.0976483" lon="10.3114717"><ele>370.8</ele><time>2026-04-20T10:51:45.943Z</time></trkpt><trkpt lat="33.0975567" lon="10.3114983"><ele>370.0</ele><time>2026-04-20T10:51:46.943Z</time></trkpt><trkpt lat="33.0974733" lon="10.3115333"><ele>369.4</ele><time>2026-04-20T10:51:47.943Z</time></trkpt><trkpt lat="33.0973883" lon="10.3115833"><ele>368.8</ele><time>2026-04-20T10:51:48.943Z</time></trkpt><trkpt lat="33.0973067" lon="10.3116433"><ele>368.20000000000005</ele><time>2026-04-20T10:51:49.943Z</time></trkpt><trkpt lat="33.09722" lon="10.3117017"><ele>367.6</ele><time>2026-04-20T10:51:50.943Z</time></trkpt><trkpt lat="33.0971483" lon="10.31176"><ele>367.0</ele><time>2026-04-20T10:51:51.943Z</time></trkpt><trkpt lat="33.0970867" lon="10.311815"><ele>367.0</ele><time>2026-04-20T10:51:52.943Z</time></trkpt><trkpt lat="33.0969883" lon="10.3118883"><ele>367.0</ele><time>2026-04-20T10:51:54.943Z</time></trkpt><trkpt lat="33.0968917" lon="10.31199"><ele>367.0</ele><time>2026-04-20T10:51:56.943Z</time></trkpt><trkpt lat="33.09682" lon="10.3120667"><ele>367.0</ele><time>2026-04-20T10:51:57.943Z</time></trkpt><trkpt lat="33.0967333" lon="10.3121633"><ele>366.5</ele><time>2026-04-20T10:51:58.943Z</time></trkpt><trkpt lat="33.0966367" lon="10.3122583"><ele>366.0</ele><time>2026-04-20T10:51:59.943Z</time></trkpt><trkpt lat="33.0965233" lon="10.3123617"><ele>365.5</ele><time>2026-04-20T10:52:00.943Z</time></trkpt><trkpt lat="33.0964133" lon="10.31248"><ele>365.0</ele><time>2026-04-20T10:52:01.943Z</time></trkpt><trkpt lat="33.0963033" lon="10.3126133"><ele>363.33333333333337</ele><time>2026-04-20T10:52:02.943Z</time></trkpt><trkpt lat="33.096185" lon="10.3127467"><ele>361.6666666666667</ele><time>2026-04-20T10:52:03.943Z</time></trkpt><trkpt lat="33.0960617" lon="10.31287"><ele>360.0</ele><time>2026-04-20T10:52:04.943Z</time></trkpt><trkpt lat="33.0959367" lon="10.3129633"><ele>360.0</ele><time>2026-04-20T10:52:05.943Z</time></trkpt><trkpt lat="33.0958133" lon="10.3130333"><ele>360.0</ele><time>2026-04-20T10:52:06.943Z</time></trkpt><trkpt lat="33.095705" lon="10.3130933"><ele>360.0</ele><time>2026-04-20T10:52:07.943Z</time></trkpt><trkpt lat="33.095605" lon="10.3131417"><ele>360.0</ele><time>2026-04-20T10:52:08.943Z</time></trkpt><trkpt lat="33.09552" lon="10.3131667"><ele>360.6666666666667</ele><time>2026-04-20T10:52:09.943Z</time></trkpt><trkpt lat="33.0954433" lon="10.3131833"><ele>361.3333333333333</ele><time>2026-04-20T10:52:10.943Z</time></trkpt><trkpt lat="33.09537" lon="10.3131967"><ele>362.0</ele><time>2026-04-20T10:52:11.943Z</time></trkpt><trkpt lat="33.0952867" lon="10.3132"><ele>362.66666666666663</ele><time>2026-04-20T10:52:12.943Z</time></trkpt><trkpt lat="33.0951933" lon="10.313205"><ele>363.3333333333333</ele><time>2026-04-20T10:52:13.943Z</time></trkpt><trkpt lat="33.0950883" lon="10.3132133"><ele>364.0</ele><time>2026-04-20T10:52:14.943Z</time></trkpt><trkpt lat="33.094975" lon="10.31321"><ele>363.25</ele><time>2026-04-20T10:52:15.943Z</time></trkpt><trkpt lat="33.094855" lon="10.3132017"><ele>362.5</ele><time>2026-04-20T10:52:16.943Z</time></trkpt><trkpt lat="33.09473" lon="10.3131883"><ele>361.75</ele><time>2026-04-20T10:52:17.943Z</time></trkpt><trkpt lat="33.0946" lon="10.3131783"><ele>361.0</ele><time>2026-04-20T10:52:18.943Z</time></trkpt><trkpt lat="33.0944683" lon="10.3131617"><ele>361.0</ele><time>2026-04-20T10:52:19.943Z</time></trkpt><trkpt lat="33.094335" lon="10.313135"><ele>361.0</ele><time>2026-04-20T10:52:20.943Z</time></trkpt><trkpt lat="33.0941933" lon="10.3131083"><ele>361.0</ele><time>2026-04-20T10:52:21.943Z</time></trkpt><trkpt lat="33.0940633" lon="10.3130783"><ele>361.0</ele><time>2026-04-20T10:52:22.943Z</time></trkpt><trkpt lat="33.09393" lon="10.3130233"><ele>360.75</ele><time>2026-04-20T10:52:23.943Z</time></trkpt><trkpt lat="33.0938033" lon="10.3129617"><ele>360.5</ele><time>2026-04-20T10:52:24.943Z</time></trkpt><trkpt lat="33.0936733" lon="10.3128867"><ele>360.25</ele><time>2026-04-20T10:52:25.943Z</time></trkpt><trkpt lat="33.0935467" lon="10.3128133"><ele>360.0</ele><time>2026-04-20T10:52:26.943Z</time></trkpt><trkpt lat="33.0934233" lon="10.3127233"><ele>360.0</ele><time>2026-04-20T10:52:27.943Z</time></trkpt><trkpt lat="33.0932833" lon="10.31264"><ele>360.0</ele><time>2026-04-20T10:52:28.943Z</time></trkpt><trkpt lat="33.0931483" lon="10.3125567"><ele>360.0</ele><time>2026-04-20T10:52:29.943Z</time></trkpt><trkpt lat="33.093005" lon="10.31247"><ele>358.3333333333333</ele><time>2026-04-20T10:52:30.943Z</time></trkpt><trkpt lat="33.0928567" lon="10.3123917"><ele>356.66666666666663</ele><time>2026-04-20T10:52:31.943Z</time></trkpt><trkpt lat="33.0926983" lon="10.3123167"><ele>355.0</ele><time>2026-04-20T10:52:32.943Z</time></trkpt><trkpt lat="33.0925433" lon="10.3122467"><ele>353.3333333333333</ele><time>2026-04-20T10:52:33.943Z</time></trkpt><trkpt lat="33.0923833" lon="10.312165"><ele>351.6666666666667</ele><time>2026-04-20T10:52:34.943Z</time></trkpt><trkpt lat="33.0922167" lon="10.3120967"><ele>350.0</ele><time>2026-04-20T10:52:35.943Z</time></trkpt><trkpt lat="33.09204" lon="10.3120417"><ele>350.0</ele><time>2026-04-20T10:52:36.943Z</time></trkpt><trkpt lat="33.0918683" lon="10.311995"><ele>350.0</ele><time>2026-04-20T10:52:37.943Z</time></trkpt><trkpt lat="33.0916967" lon="10.31196"><ele>350.0</ele><time>2026-04-20T10:52:38.943Z</time></trkpt><trkpt lat="33.0915167" lon="10.3119283"><ele>351.0</ele><time>2026-04-20T10:52:39.943Z</time></trkpt><trkpt lat="33.0913333" lon="10.3118967"><ele>352.0</ele><time>2026-04-20T10:52:40.943Z</time></trkpt><trkpt lat="33.0911567" lon="10.3118667"><ele>353.0</ele><time>2026-04-20T10:52:41.943Z</time></trkpt><trkpt lat="33.0909567" lon="10.3118917"><ele>353.0</ele><time>2026-04-20T10:52:42.943Z</time></trkpt><trkpt lat="33.0907633" lon="10.3119467"><ele>353.0</ele><time>2026-04-20T10:52:43.943Z</time></trkpt><trkpt lat="33.0905783" lon="10.3120267"><ele>353.0</ele><time>2026-04-20T10:52:44.943Z</time></trkpt><trkpt lat="33.0904" lon="10.3121333"><ele>352.6666666666667</ele><time>2026-04-20T10:52:45.943Z</time></trkpt><trkpt lat="33.0902017" lon="10.3122517"><ele>352.3333333333333</ele><time>2026-04-20T10:52:46.943Z</time></trkpt><trkpt lat="33.0900067" lon="10.3123683"><ele>352.0</ele><time>2026-04-20T10:52:47.943Z</time></trkpt><trkpt lat="33.0898133" lon="10.3124783"><ele>351.66666666666663</ele><time>2026-04-20T10:52:48.943Z</time></trkpt><trkpt lat="33.0896167" lon="10.3125967"><ele>351.3333333333333</ele><time>2026-04-20T10:52:49.943Z</time></trkpt><trkpt lat="33.0894117" lon="10.31271"><ele>351.0</ele><time>2026-04-20T10:52:50.943Z</time></trkpt><trkpt lat="33.0892067" lon="10.3128317"><ele>351.0</ele><time>2026-04-20T10:52:51.943Z</time></trkpt><trkpt lat="33.0889933" lon="10.3129583"><ele>351.0</ele><time>2026-04-20T10:52:52.943Z</time></trkpt><trkpt lat="33.088785" lon="10.3130817"><ele>349.0</ele><time>2026-04-20T10:52:53.943Z</time></trkpt><trkpt lat="33.0885733" lon="10.3131983"><ele>347.0</ele><time>2026-04-20T10:52:54.943Z</time></trkpt><trkpt lat="33.0883567" lon="10.3133217"><ele>345.5</ele><time>2026-04-20T10:52:55.943Z</time></trkpt><trkpt lat="33.088145" lon="10.3134383"><ele>344.0</ele><time>2026-04-20T10:52:56.943Z</time></trkpt><trkpt lat="33.08793" lon="10.3135633"><ele>344.0</ele><time>2026-04-20T10:52:57.943Z</time></trkpt><trkpt lat="33.087715" lon="10.313695"><ele>344.0</ele><time>2026-04-20T10:52:58.943Z</time></trkpt><trkpt lat="33.087505" lon="10.3138333"><ele>347.0</ele><time>2026-04-20T10:52:59.943Z</time></trkpt><trkpt lat="33.0872933" lon="10.3139683"><ele>350.0</ele><time>2026-04-20T10:53:00.943Z</time></trkpt><trkpt lat="33.08709" lon="10.3141083"><ele>350.0</ele><time>2026-04-20T10:53:01.943Z</time></trkpt><trkpt lat="33.086875" lon="10.3142483"><ele>350.0</ele><time>2026-04-20T10:53:02.943Z</time></trkpt><trkpt lat="33.08667" lon="10.3143833"><ele>351.0</ele><time>2026-04-20T10:53:03.943Z</time></trkpt><trkpt lat="33.0864667" lon="10.314525"><ele>352.0</ele><time>2026-04-20T10:53:04.943Z</time></trkpt><trkpt lat="33.08626" lon="10.3146617"><ele>352.0</ele><time>2026-04-20T10:53:05.943Z</time></trkpt><trkpt lat="33.086045" lon="10.314805"><ele>352.0</ele><time>2026-04-20T10:53:06.943Z</time></trkpt><trkpt lat="33.0858367" lon="10.3149483"><ele>354.5</ele><time>2026-04-20T10:53:07.943Z</time></trkpt><trkpt lat="33.0856283" lon="10.31509"><ele>357.0</ele><time>2026-04-20T10:53:08.943Z</time></trkpt><trkpt lat="33.0854317" lon="10.3152217"><ele>357.0</ele><time>2026-04-20T10:53:09.943Z</time></trkpt><trkpt lat="33.0852517" lon="10.31535"><ele>357.0</ele><time>2026-04-20T10:53:10.943Z</time></trkpt><trkpt lat="33.0850783" lon="10.3154583"><ele>357.0</ele><time>2026-04-20T10:53:11.943Z</time></trkpt><trkpt lat="33.084905" lon="10.3155333"><ele>356.3333333333333</ele><time>2026-04-20T10:53:12.943Z</time></trkpt><trkpt lat="33.0847333" lon="10.3155717"><ele>355.66666666666663</ele><time>2026-04-20T10:53:13.943Z</time></trkpt><trkpt lat="33.084575" lon="10.31559"><ele>355.0</ele><time>2026-04-20T10:53:14.943Z</time></trkpt><trkpt lat="33.0844083" lon="10.3156"><ele>355.0</ele><time>2026-04-20T10:53:15.943Z</time></trkpt><trkpt lat="33.0842433" lon="10.3156033"><ele>355.0</ele><time>2026-04-20T10:53:16.943Z</time></trkpt><trkpt lat="33.08407" lon="10.3156067"><ele>355.0</ele><time>2026-04-20T10:53:17.943Z</time></trkpt><trkpt lat="33.0838967" lon="10.3156133"><ele>355.3333333333333</ele><time>2026-04-20T10:53:18.943Z</time></trkpt><trkpt lat="33.083715" lon="10.31562"><ele>355.6666666666667</ele><time>2026-04-20T10:53:19.943Z</time></trkpt><trkpt lat="33.08353" lon="10.3156233"><ele>356.0</ele><time>2026-04-20T10:53:20.943Z</time></trkpt><trkpt lat="33.083345" lon="10.3156283"><ele>356.33333333333337</ele><time>2026-04-20T10:53:21.943Z</time></trkpt><trkpt lat="33.08316" lon="10.3156367"><ele>356.6666666666667</ele><time>2026-04-20T10:53:22.943Z</time></trkpt><trkpt lat="33.0829783" lon="10.31566"><ele>357.0</ele><time>2026-04-20T10:53:23.943Z</time></trkpt><trkpt lat="33.082795" lon="10.3156733"><ele>357.0</ele><time>2026-04-20T10:53:24.943Z</time></trkpt><trkpt lat="33.0826117" lon="10.3156767"><ele>357.0</ele><time>2026-04-20T10:53:25.943Z</time></trkpt><trkpt lat="33.0824183" lon="10.3156867"><ele>357.0</ele><time>2026-04-20T10:53:26.943Z</time></trkpt><trkpt lat="33.08223" lon="10.3156917"><ele>356.0</ele><time>2026-04-20T10:53:27.943Z</time></trkpt><trkpt lat="33.0820383" lon="10.315695"><ele>355.0</ele><time>2026-04-20T10:53:28.943Z</time></trkpt><trkpt lat="33.0818517" lon="10.3157017"><ele>354.0</ele><time>2026-04-20T10:53:29.943Z</time></trkpt><trkpt lat="33.0816717" lon="10.3157033"><ele>352.6666666666667</ele><time>2026-04-20T10:53:30.943Z</time></trkpt><trkpt lat="33.0814833" lon="10.315715"><ele>351.33333333333337</ele><time>2026-04-20T10:53:31.943Z</time></trkpt><trkpt lat="33.0812983" lon="10.3157333"><ele>350.0</ele><time>2026-04-20T10:53:32.943Z</time></trkpt><trkpt lat="33.0811117" lon="10.315785"><ele>350.0</ele><time>2026-04-20T10:53:33.943Z</time></trkpt><trkpt lat="33.0809317" lon="10.315865"><ele>350.0</ele><time>2026-04-20T10:53:34.943Z</time></trkpt><trkpt lat="33.0807583" lon="10.3159433"><ele>350.0</ele><time>2026-04-20T10:53:35.943Z</time></trkpt><trkpt lat="33.0805883" lon="10.3160367"><ele>347.33333333333337</ele><time>2026-04-20T10:53:36.943Z</time></trkpt><trkpt lat="33.0804217" lon="10.3161533"><ele>344.6666666666667</ele><time>2026-04-20T10:53:37.943Z</time></trkpt><trkpt lat="33.0802583" lon="10.3162783"><ele>342.0</ele><time>2026-04-20T10:53:38.943Z</time></trkpt><trkpt lat="33.0800867" lon="10.3164067"><ele>340.3333333333333</ele><time>2026-04-20T10:53:39.943Z</time></trkpt><trkpt lat="33.0799167" lon="10.31653"><ele>338.66666666666663</ele><time>2026-04-20T10:53:40.943Z</time></trkpt><trkpt lat="33.07974" lon="10.31666"><ele>337.0</ele><time>2026-04-20T10:53:41.943Z</time></trkpt><trkpt lat="33.0795633" lon="10.3167833"><ele>337.0</ele><time>2026-04-20T10:53:42.943Z</time></trkpt><trkpt lat="33.0793817" lon="10.31691"><ele>337.0</ele><time>2026-04-20T10:53:43.943Z</time></trkpt><trkpt lat="33.0792017" lon="10.317035"><ele>337.0</ele><time>2026-04-20T10:53:44.943Z</time></trkpt><trkpt lat="33.0790183" lon="10.31715"><ele>335.66666666666663</ele><time>2026-04-20T10:53:45.943Z</time></trkpt><trkpt lat="33.0788317" lon="10.317255"><ele>334.3333333333333</ele><time>2026-04-20T10:53:46.943Z</time></trkpt><trkpt lat="33.078645" lon="10.3173433"><ele>333.0</ele><time>2026-04-20T10:53:47.943Z</time></trkpt><trkpt lat="33.0784533" lon="10.3174217"><ele>333.0</ele><time>2026-04-20T10:53:48.943Z</time></trkpt><trkpt lat="33.078245" lon="10.3174883"><ele>333.0</ele><time>2026-04-20T10:53:49.943Z</time></trkpt><trkpt lat="33.078035" lon="10.3175317"><ele>333.0</ele><time>2026-04-20T10:53:50.943Z</time></trkpt><trkpt lat="33.0778183" lon="10.3175533"><ele>333.0</ele><time>2026-04-20T10:53:51.943Z</time></trkpt><trkpt lat="33.0776" lon="10.3175767"><ele>333.0</ele><time>2026-04-20T10:53:52.943Z</time></trkpt><trkpt lat="33.0773767" lon="10.3175883"><ele>333.0</ele><time>2026-04-20T10:53:53.943Z</time></trkpt><trkpt lat="33.077155" lon="10.3176083"><ele>333.0</ele><time>2026-04-20T10:53:54.943Z</time></trkpt><trkpt lat="33.0769367" lon="10.317625"><ele>333.0</ele><time>2026-04-20T10:53:55.943Z</time></trkpt><trkpt lat="33.0767217" lon="10.31766"><ele>333.0</ele><time>2026-04-20T10:53:56.943Z</time></trkpt><trkpt lat="33.076515" lon="10.3177233"><ele>333.0</ele><time>2026-04-20T10:53:57.943Z</time></trkpt><trkpt lat="33.0763183" lon="10.317825"><ele>333.0</ele><time>2026-04-20T10:53:58.943Z</time></trkpt><trkpt lat="33.0761333" lon="10.31795"><ele>333.0</ele><time>2026-04-20T10:53:59.943Z</time></trkpt><trkpt lat="33.0759567" lon="10.3180917"><ele>333.0</ele><time>2026-04-20T10:54:00.943Z</time></trkpt><trkpt lat="33.0757867" lon="10.3182317"><ele>333.0</ele><time>2026-04-20T10:54:01.943Z</time></trkpt><trkpt lat="33.0756267" lon="10.3183967"><ele>333.0</ele><time>2026-04-20T10:54:02.943Z</time></trkpt><trkpt lat="33.0754817" lon="10.3185783"><ele>333.0</ele><time>2026-04-20T10:54:03.943Z</time></trkpt><trkpt lat="33.0753367" lon="10.3187683"><ele>333.0</ele><time>2026-04-20T10:54:04.943Z</time></trkpt><trkpt lat="33.0751967" lon="10.3189483"><ele>333.0</ele><time>2026-04-20T10:54:05.943Z</time></trkpt><trkpt lat="33.07504" lon="10.3191133"><ele>333.0</ele><time>2026-04-20T10:54:06.943Z</time></trkpt><trkpt lat="33.0748717" lon="10.3192617"><ele>333.0</ele><time>2026-04-20T10:54:07.943Z</time></trkpt><trkpt lat="33.074695" lon="10.3193883"><ele>333.0</ele><time>2026-04-20T10:54:08.943Z</time></trkpt><trkpt lat="33.0745183" lon="10.3194917"><ele>333.0</ele><time>2026-04-20T10:54:09.943Z</time></trkpt><trkpt lat="33.074335" lon="10.319575"><ele>333.0</ele><time>2026-04-20T10:54:10.943Z</time></trkpt><trkpt lat="33.0741617" lon="10.3196417"><ele>333.0</ele><time>2026-04-20T10:54:11.943Z</time></trkpt><trkpt lat="33.0739783" lon="10.3197067"><ele>330.3333333333333</ele><time>2026-04-20T10:54:12.943Z</time></trkpt><trkpt lat="33.0737983" lon="10.3197617"><ele>327.66666666666663</ele><time>2026-04-20T10:54:13.943Z</time></trkpt><trkpt lat="33.073625" lon="10.3198167"><ele>325.0</ele><time>2026-04-20T10:54:14.942Z</time></trkpt><trkpt lat="33.0734467" lon="10.31988"><ele>324.3333333333333</ele><time>2026-04-20T10:54:15.942Z</time></trkpt><trkpt lat="33.073265" lon="10.3199283"><ele>323.6666666666667</ele><time>2026-04-20T10:54:16.942Z</time></trkpt><trkpt lat="33.0730767" lon="10.319965"><ele>323.0</ele><time>2026-04-20T10:54:17.942Z</time></trkpt><trkpt lat="33.0728933" lon="10.31996"><ele>323.0</ele><time>2026-04-20T10:54:18.942Z</time></trkpt><trkpt lat="33.0727133" lon="10.319945"><ele>323.0</ele><time>2026-04-20T10:54:19.942Z</time></trkpt><trkpt lat="33.0725233" lon="10.31992"><ele>323.0</ele><time>2026-04-20T10:54:20.942Z</time></trkpt><trkpt lat="33.0723283" lon="10.3198967"><ele>321.33333333333337</ele><time>2026-04-20T10:54:21.942Z</time></trkpt><trkpt lat="33.0721317" lon="10.3198733"><ele>319.6666666666667</ele><time>2026-04-20T10:54:22.942Z</time></trkpt><trkpt lat="33.0719367" lon="10.3198567"><ele>318.0</ele><time>2026-04-20T10:54:23.942Z</time></trkpt><trkpt lat="33.0717417" lon="10.3198417"><ele>316.3333333333333</ele><time>2026-04-20T10:54:24.942Z</time></trkpt><trkpt lat="33.0715467" lon="10.3198133"><ele>314.66666666666663</ele><time>2026-04-20T10:54:25.942Z</time></trkpt><trkpt lat="33.07135" lon="10.3197867"><ele>313.0</ele><time>2026-04-20T10:54:26.942Z</time></trkpt><trkpt lat="33.0711483" lon="10.3197567"><ele>318.66666666666663</ele><time>2026-04-20T10:54:27.942Z</time></trkpt><trkpt lat="33.07095" lon="10.3197217"><ele>324.3333333333333</ele><time>2026-04-20T10:54:28.942Z</time></trkpt><trkpt lat="33.07076" lon="10.3196917"><ele>330.0</ele><time>2026-04-20T10:54:29.942Z</time></trkpt><trkpt lat="33.070575" lon="10.3196717"><ele>330.6666666666667</ele><time>2026-04-20T10:54:30.942Z</time></trkpt><trkpt lat="33.0703867" lon="10.3196717"><ele>331.33333333333337</ele><time>2026-04-20T10:54:31.942Z</time></trkpt><trkpt lat="33.0702183" lon="10.319675"><ele>332.0</ele><time>2026-04-20T10:54:32.942Z</time></trkpt><trkpt lat="33.07006" lon="10.3197083"><ele>329.75</ele><time>2026-04-20T10:54:33.942Z</time></trkpt><trkpt lat="33.0699167" lon="10.319755"><ele>327.5</ele><time>2026-04-20T10:54:34.942Z</time></trkpt><trkpt lat="33.0697983" lon="10.3198283"><ele>325.25</ele><time>2026-04-20T10:54:35.942Z</time></trkpt><trkpt lat="33.06969" lon="10.319925"><ele>323.0</ele><time>2026-04-20T10:54:36.942Z</time></trkpt><trkpt lat="33.069585" lon="10.3200333"><ele>323.0</ele><time>2026-04-20T10:54:37.942Z</time></trkpt><trkpt lat="33.0694833" lon="10.3201467"><ele>323.0</ele><time>2026-04-20T10:54:38.942Z</time></trkpt><trkpt lat="33.0693817" lon="10.3202517"><ele>323.0</ele><time>2026-04-20T10:54:39.942Z</time></trkpt><trkpt lat="33.06928" lon="10.3203467"><ele>323.0</ele><time>2026-04-20T10:54:40.942Z</time></trkpt><trkpt lat="33.0691733" lon="10.3204167"><ele>322.4</ele><time>2026-04-20T10:54:41.942Z</time></trkpt><trkpt lat="33.0690717" lon="10.3204583"><ele>321.79999999999995</ele><time>2026-04-20T10:54:42.942Z</time></trkpt><trkpt lat="33.0689683" lon="10.3204667"><ele>321.2</ele><time>2026-04-20T10:54:43.942Z</time></trkpt><trkpt lat="33.068865" lon="10.3204533"><ele>320.6</ele><time>2026-04-20T10:54:44.942Z</time></trkpt><trkpt lat="33.068755" lon="10.32043"><ele>320.0</ele><time>2026-04-20T10:54:45.942Z</time></trkpt><trkpt lat="33.0686383" lon="10.32041"><ele>320.0</ele><time>2026-04-20T10:54:46.942Z</time></trkpt><trkpt lat="33.068525" lon="10.3203817"><ele>320.0</ele><time>2026-04-20T10:54:47.942Z</time></trkpt><trkpt lat="33.0684117" lon="10.3203467"><ele>320.0</ele><time>2026-04-20T10:54:48.942Z</time></trkpt><trkpt lat="33.0682917" lon="10.3203033"><ele>320.0</ele><time>2026-04-20T10:54:49.942Z</time></trkpt><trkpt lat="33.0681667" lon="10.32026"><ele>319.0</ele><time>2026-04-20T10:54:50.942Z</time></trkpt><trkpt lat="33.0680333" lon="10.3202167"><ele>318.0</ele><time>2026-04-20T10:54:51.942Z</time></trkpt><trkpt lat="33.0679017" lon="10.320175"><ele>317.0</ele><time>2026-04-20T10:54:52.942Z</time></trkpt><trkpt lat="33.0677733" lon="10.3201317"><ele>316.0</ele><time>2026-04-20T10:54:53.942Z</time></trkpt><trkpt lat="33.0676367" lon="10.3200917"><ele>316.0</ele><time>2026-04-20T10:54:54.942Z</time></trkpt><trkpt lat="33.0675033" lon="10.3200433"><ele>316.0</ele><time>2026-04-20T10:54:55.942Z</time></trkpt><trkpt lat="33.0673683" lon="10.31999"><ele>316.0</ele><time>2026-04-20T10:54:56.942Z</time></trkpt><trkpt lat="33.0672433" lon="10.31993"><ele>316.0</ele><time>2026-04-20T10:54:57.942Z</time></trkpt><trkpt lat="33.0671083" lon="10.31985"><ele>315.75</ele><time>2026-04-20T10:54:58.942Z</time></trkpt><trkpt lat="33.0669883" lon="10.3197667"><ele>315.5</ele><time>2026-04-20T10:54:59.942Z</time></trkpt><trkpt lat="33.0668667" lon="10.3196783"><ele>315.25</ele><time>2026-04-20T10:55:00.942Z</time></trkpt><trkpt lat="33.0667517" lon="10.3195917"><ele>315.0</ele><time>2026-04-20T10:55:01.942Z</time></trkpt><trkpt lat="33.066635" lon="10.3194933"><ele>314.5</ele><time>2026-04-20T10:55:02.942Z</time></trkpt><trkpt lat="33.066525" lon="10.3194017"><ele>314.0</ele><time>2026-04-20T10:55:03.942Z</time></trkpt><trkpt lat="33.0664017" lon="10.3193117"><ele>313.5</ele><time>2026-04-20T10:55:04.942Z</time></trkpt><trkpt lat="33.0662767" lon="10.3192233"><ele>313.0</ele><time>2026-04-20T10:55:05.942Z</time></trkpt><trkpt lat="33.0661633" lon="10.3191333"><ele>313.0</ele><time>2026-04-20T10:55:06.942Z</time></trkpt><trkpt lat="33.0660533" lon="10.3190533"><ele>313.0</ele><time>2026-04-20T10:55:07.942Z</time></trkpt><trkpt lat="33.0659567" lon="10.3189767"><ele>313.0</ele><time>2026-04-20T10:55:08.942Z</time></trkpt><trkpt lat="33.0658583" lon="10.3189"><ele>313.0</ele><time>2026-04-20T10:55:09.942Z</time></trkpt><trkpt lat="33.0657483" lon="10.3188317"><ele>311.25</ele><time>2026-04-20T10:55:10.942Z</time></trkpt><trkpt lat="33.0656467" lon="10.3187483"><ele>309.5</ele><time>2026-04-20T10:55:11.942Z</time></trkpt><trkpt lat="33.0655283" lon="10.3186683"><ele>307.75</ele><time>2026-04-20T10:55:12.942Z</time></trkpt><trkpt lat="33.0654133" lon="10.3185783"><ele>306.0</ele><time>2026-04-20T10:55:13.942Z</time></trkpt><trkpt lat="33.0653" lon="10.3184867"><ele>306.0</ele><time>2026-04-20T10:55:14.942Z</time></trkpt><trkpt lat="33.0651783" lon="10.3183933"><ele>306.0</ele><time>2026-04-20T10:55:15.942Z</time></trkpt><trkpt lat="33.06507" lon="10.3183"><ele>306.0</ele><time>2026-04-20T10:55:16.942Z</time></trkpt><trkpt lat="33.0649533" lon="10.3182117"><ele>306.0</ele><time>2026-04-20T10:55:17.942Z</time></trkpt><trkpt lat="33.064835" lon="10.3181233"><ele>305.5</ele><time>2026-04-20T10:55:18.942Z</time></trkpt><trkpt lat="33.0647117" lon="10.3180367"><ele>305.0</ele><time>2026-04-20T10:55:19.942Z</time></trkpt><trkpt lat="33.0645833" lon="10.31795"><ele>304.5</ele><time>2026-04-20T10:55:20.942Z</time></trkpt><trkpt lat="33.0644683" lon="10.3178617"><ele>304.0</ele><time>2026-04-20T10:55:21.942Z</time></trkpt><trkpt lat="33.0643467" lon="10.3177733"><ele>304.0</ele><time>2026-04-20T10:55:22.942Z</time></trkpt><trkpt lat="33.064225" lon="10.3176783"><ele>304.0</ele><time>2026-04-20T10:55:23.942Z</time></trkpt><trkpt lat="33.0641" lon="10.3175867"><ele>304.0</ele><time>2026-04-20T10:55:24.942Z</time></trkpt><trkpt lat="33.0639733" lon="10.3174917"><ele>304.0</ele><time>2026-04-20T10:55:25.942Z</time></trkpt><trkpt lat="33.0638417" lon="10.3173917"><ele>304.0</ele><time>2026-04-20T10:55:26.942Z</time></trkpt><trkpt lat="33.06372" lon="10.3173"><ele>304.0</ele><time>2026-04-20T10:55:27.942Z</time></trkpt><trkpt lat="33.0635967" lon="10.3172017"><ele>304.0</ele><time>2026-04-20T10:55:28.942Z</time></trkpt><trkpt lat="33.0634783" lon="10.3170967"><ele>304.0</ele><time>2026-04-20T10:55:29.942Z</time></trkpt><trkpt lat="33.06337" lon="10.3169917"><ele>303.0</ele><time>2026-04-20T10:55:30.942Z</time></trkpt><trkpt lat="33.0632733" lon="10.3168917"><ele>302.0</ele><time>2026-04-20T10:55:31.942Z</time></trkpt><trkpt lat="33.0631867" lon="10.316785"><ele>301.0</ele><time>2026-04-20T10:55:32.942Z</time></trkpt><trkpt lat="33.06311" lon="10.3166767"><ele>300.0</ele><time>2026-04-20T10:55:33.942Z</time></trkpt><trkpt lat="33.0630417" lon="10.31655"><ele>300.0</ele><time>2026-04-20T10:55:34.942Z</time></trkpt><trkpt lat="33.0629683" lon="10.3164267"><ele>300.0</ele><time>2026-04-20T10:55:35.942Z</time></trkpt><trkpt lat="33.0629" lon="10.3162933"><ele>300.0</ele><time>2026-04-20T10:55:36.942Z</time></trkpt><trkpt lat="33.062835" lon="10.3161583"><ele>300.0</ele><time>2026-04-20T10:55:37.942Z</time></trkpt><trkpt lat="33.0627667" lon="10.316045"><ele>299.75</ele><time>2026-04-20T10:55:38.942Z</time></trkpt><trkpt lat="33.062695" lon="10.3159167"><ele>299.5</ele><time>2026-04-20T10:55:39.942Z</time></trkpt><trkpt lat="33.0626183" lon="10.3157783"><ele>299.25</ele><time>2026-04-20T10:55:40.942Z</time></trkpt><trkpt lat="33.0625433" lon="10.3156333"><ele>299.0</ele><time>2026-04-20T10:55:41.942Z</time></trkpt><trkpt lat="33.0624633" lon="10.3154983"><ele>298.0</ele><time>2026-04-20T10:55:42.942Z</time></trkpt><trkpt lat="33.0623783" lon="10.3153583"><ele>297.0</ele><time>2026-04-20T10:55:43.942Z</time></trkpt><trkpt lat="33.0623017" lon="10.3152267"><ele>296.0</ele><time>2026-04-20T10:55:44.942Z</time></trkpt><trkpt lat="33.062215" lon="10.3151233"><ele>295.0</ele><time>2026-04-20T10:55:45.942Z</time></trkpt><trkpt lat="33.0621217" lon="10.31503"><ele>295.0</ele><time>2026-04-20T10:55:46.942Z</time></trkpt><trkpt lat="33.062015" lon="10.314965"><ele>295.0</ele><time>2026-04-20T10:55:47.942Z</time></trkpt><trkpt lat="33.0619117" lon="10.3149067"><ele>295.0</ele><time>2026-04-20T10:55:48.942Z</time></trkpt><trkpt lat="33.0618" lon="10.3148667"><ele>295.0</ele><time>2026-04-20T10:55:49.942Z</time></trkpt><trkpt lat="33.0616933" lon="10.3148483"><ele>294.3333333333333</ele><time>2026-04-20T10:55:50.942Z</time></trkpt><trkpt lat="33.0616017" lon="10.3148633"><ele>293.66666666666663</ele><time>2026-04-20T10:55:51.942Z</time></trkpt><trkpt lat="33.061525" lon="10.3149"><ele>293.0</ele><time>2026-04-20T10:55:52.942Z</time></trkpt><trkpt lat="33.0614583" lon="10.314945"><ele>292.3333333333333</ele><time>2026-04-20T10:55:53.942Z</time></trkpt><trkpt lat="33.0614" lon="10.314995"><ele>291.6666666666667</ele><time>2026-04-20T10:55:54.942Z</time></trkpt><trkpt lat="33.0613417" lon="10.3150417"><ele>291.0</ele><time>2026-04-20T10:55:55.942Z</time></trkpt><trkpt lat="33.0612833" lon="10.3151"><ele>291.0</ele><time>2026-04-20T10:55:56.942Z</time></trkpt><trkpt lat="33.06122" lon="10.3151617"><ele>291.0</ele><time>2026-04-20T10:55:57.942Z</time></trkpt><trkpt lat="33.0611517" lon="10.315235"><ele>291.0</ele><time>2026-04-20T10:55:58.942Z</time></trkpt><trkpt lat="33.0610883" lon="10.3153117"><ele>291.0</ele><time>2026-04-20T10:55:59.942Z</time></trkpt><trkpt lat="33.0610283" lon="10.3153883"><ele>291.0</ele><time>2026-04-20T10:56:00.942Z</time></trkpt><trkpt lat="33.0609733" lon="10.3154683"><ele>291.0</ele><time>2026-04-20T10:56:01.942Z</time></trkpt><trkpt lat="33.0609217" lon="10.3155533"><ele>291.0</ele><time>2026-04-20T10:56:02.942Z</time></trkpt><trkpt lat="33.06087" lon="10.3156467"><ele>291.0</ele><time>2026-04-20T10:56:03.942Z</time></trkpt><trkpt lat="33.0608217" lon="10.3157383"><ele>291.0</ele><time>2026-04-20T10:56:04.942Z</time></trkpt><trkpt lat="33.0607817" lon="10.315815"><ele>291.0</ele><time>2026-04-20T10:56:05.942Z</time></trkpt><trkpt lat="33.06075" lon="10.3158883"><ele>291.0</ele><time>2026-04-20T10:56:06.942Z</time></trkpt><trkpt lat="33.060725" lon="10.31596"><ele>291.0</ele><time>2026-04-20T10:56:07.942Z</time></trkpt><trkpt lat="33.0607017" lon="10.3160367"><ele>291.2</ele><time>2026-04-20T10:56:08.942Z</time></trkpt><trkpt lat="33.0606767" lon="10.3161617"><ele>291.40000000000003</ele><time>2026-04-20T10:56:10.942Z</time></trkpt><trkpt lat="33.060635" lon="10.3162917"><ele>291.6</ele><time>2026-04-20T10:56:56.942Z</time></trkpt><trkpt lat="33.0605883" lon="10.3164083"><ele>291.8</ele><time>2026-04-20T10:56:58.942Z</time></trkpt><trkpt lat="33.0605533" lon="10.316535"><ele>292.0</ele><time>2026-04-20T10:57:00.942Z</time></trkpt><trkpt lat="33.0605317" lon="10.3166067"><ele>292.4</ele><time>2026-04-20T10:57:01.942Z</time></trkpt><trkpt lat="33.06051" lon="10.3166783"><ele>292.79999999999995</ele><time>2026-04-20T10:57:02.942Z</time></trkpt><trkpt lat="33.0604817" lon="10.3167483"><ele>293.2</ele><time>2026-04-20T10:57:03.942Z</time></trkpt><trkpt lat="33.0604367" lon="10.3168717"><ele>293.59999999999997</ele><time>2026-04-20T10:57:05.942Z</time></trkpt><trkpt lat="33.0603883" lon="10.3169883"><ele>294.0</ele><time>2026-04-20T10:57:10.942Z</time></trkpt><trkpt lat="33.0603283" lon="10.3171217"><ele>294.0</ele><time>2026-04-20T10:57:12.942Z</time></trkpt><trkpt lat="33.060295" lon="10.3172017"><ele>294.0</ele><time>2026-04-20T10:57:13.942Z</time></trkpt><trkpt lat="33.06026" lon="10.3172817"><ele>294.0</ele><time>2026-04-20T10:57:14.942Z</time></trkpt><trkpt lat="33.06022" lon="10.31736"><ele>294.0</ele><time>2026-04-20T10:57:15.942Z</time></trkpt><trkpt lat="33.0601733" lon="10.31744"><ele>294.0</ele><time>2026-04-20T10:57:16.942Z</time></trkpt><trkpt lat="33.0601217" lon="10.3175217"><ele>294.0</ele><time>2026-04-20T10:57:17.942Z</time></trkpt><trkpt lat="33.0600683" lon="10.3175967"><ele>293.8333333333333</ele><time>2026-04-20T10:57:18.942Z</time></trkpt><trkpt lat="33.060015" lon="10.3176683"><ele>293.6666666666667</ele><time>2026-04-20T10:57:19.942Z</time></trkpt><trkpt lat="33.0599667" lon="10.3177467"><ele>293.5</ele><time>2026-04-20T10:57:20.942Z</time></trkpt><trkpt lat="33.0599183" lon="10.3178217"><ele>293.33333333333337</ele><time>2026-04-20T10:57:21.942Z</time></trkpt><trkpt lat="33.0598617" lon="10.3179017"><ele>293.1666666666667</ele><time>2026-04-20T10:57:22.942Z</time></trkpt><trkpt lat="33.0597983" lon="10.317975"><ele>293.0</ele><time>2026-04-20T10:57:23.942Z</time></trkpt><trkpt lat="33.0597283" lon="10.3180433"><ele>294.0</ele><time>2026-04-20T10:57:24.942Z</time></trkpt><trkpt lat="33.0596617" lon="10.3181117"><ele>295.0</ele><time>2026-04-20T10:57:25.942Z</time></trkpt><trkpt lat="33.0595883" lon="10.31818"><ele>296.0</ele><time>2026-04-20T10:57:26.942Z</time></trkpt><trkpt lat="33.0595067" lon="10.31825"><ele>297.0</ele><time>2026-04-20T10:57:27.942Z</time></trkpt><trkpt lat="33.0594217" lon="10.3183233"><ele>298.0</ele><time>2026-04-20T10:57:28.942Z</time></trkpt><trkpt lat="33.0593517" lon="10.318395"><ele>298.0</ele><time>2026-04-20T10:57:29.942Z</time></trkpt><trkpt lat="33.0592717" lon="10.3184617"><ele>298.0</ele><time>2026-04-20T10:57:30.942Z</time></trkpt><trkpt lat="33.0592017" lon="10.3185267"><ele>298.0</ele><time>2026-04-20T10:57:31.942Z</time></trkpt><trkpt lat="33.0591267" lon="10.3185967"><ele>298.0</ele><time>2026-04-20T10:57:32.942Z</time></trkpt><trkpt lat="33.0590567" lon="10.3186733"><ele>298.0</ele><time>2026-04-20T10:57:33.942Z</time></trkpt><trkpt lat="33.05898" lon="10.3187467"><ele>299.0</ele><time>2026-04-20T10:57:34.942Z</time></trkpt><trkpt lat="33.0588917" lon="10.3188167"><ele>300.0</ele><time>2026-04-20T10:57:35.942Z</time></trkpt><trkpt lat="33.0587967" lon="10.3188883"><ele>301.0</ele><time>2026-04-20T10:57:36.942Z</time></trkpt><trkpt lat="33.0587067" lon="10.3189583"><ele>302.0</ele><time>2026-04-20T10:57:37.942Z</time></trkpt><trkpt lat="33.0586217" lon="10.3190283"><ele>303.0</ele><time>2026-04-20T10:57:38.942Z</time></trkpt><trkpt lat="33.0585383" lon="10.3191033"><ele>303.0</ele><time>2026-04-20T10:57:39.942Z</time></trkpt><trkpt lat="33.058455" lon="10.319185"><ele>303.0</ele><time>2026-04-20T10:57:40.942Z</time></trkpt><trkpt lat="33.0583733" lon="10.31926"><ele>303.0</ele><time>2026-04-20T10:57:41.942Z</time></trkpt><trkpt lat="33.0582783" lon="10.3193167"><ele>303.0</ele><time>2026-04-20T10:57:42.942Z</time></trkpt><trkpt lat="33.0581733" lon="10.3193633"><ele>303.0</ele><time>2026-04-20T10:57:43.942Z</time></trkpt><trkpt lat="33.0580733" lon="10.3193883"><ele>302.25</ele><time>2026-04-20T10:57:44.942Z</time></trkpt><trkpt lat="33.0579633" lon="10.3193967"><ele>301.5</ele><time>2026-04-20T10:57:45.942Z</time></trkpt><trkpt lat="33.05785" lon="10.31939"><ele>300.75</ele><time>2026-04-20T10:57:46.942Z</time></trkpt><trkpt lat="33.0577317" lon="10.3193717"><ele>300.0</ele><time>2026-04-20T10:57:47.942Z</time></trkpt><trkpt lat="33.0576017" lon="10.3193583"><ele>300.0</ele><time>2026-04-20T10:57:48.942Z</time></trkpt><trkpt lat="33.057465" lon="10.3193583"><ele>300.0</ele><time>2026-04-20T10:57:49.941Z</time></trkpt><trkpt lat="33.057325" lon="10.3193517"><ele>300.0</ele><time>2026-04-20T10:57:50.941Z</time></trkpt><trkpt lat="33.0571867" lon="10.319355"><ele>300.0</ele><time>2026-04-20T10:57:51.941Z</time></trkpt><trkpt lat="33.0570483" lon="10.319355"><ele>299.5</ele><time>2026-04-20T10:57:52.941Z</time></trkpt><trkpt lat="33.0569133" lon="10.3193717"><ele>299.0</ele><time>2026-04-20T10:57:53.941Z</time></trkpt><trkpt lat="33.0567733" lon="10.3194083"><ele>298.5</ele><time>2026-04-20T10:57:54.941Z</time></trkpt><trkpt lat="33.05664" lon="10.3194517"><ele>298.0</ele><time>2026-04-20T10:57:55.941Z</time></trkpt><trkpt lat="33.0565133" lon="10.3195217"><ele>298.0</ele><time>2026-04-20T10:57:56.941Z</time></trkpt><trkpt lat="33.0563967" lon="10.3196017"><ele>298.0</ele><time>2026-04-20T10:57:57.941Z</time></trkpt><trkpt lat="33.056285" lon="10.3196833"><ele>298.0</ele><time>2026-04-20T10:57:58.941Z</time></trkpt><trkpt lat="33.056175" lon="10.3197667"><ele>298.0</ele><time>2026-04-20T10:57:59.941Z</time></trkpt><trkpt lat="33.05607" lon="10.319855"><ele>297.6</ele><time>2026-04-20T10:58:00.941Z</time></trkpt><trkpt lat="33.0559667" lon="10.3199367"><ele>297.20000000000005</ele><time>2026-04-20T10:58:01.941Z</time></trkpt><trkpt lat="33.05587" lon="10.3199983"><ele>296.8</ele><time>2026-04-20T10:58:02.941Z</time></trkpt><trkpt lat="33.0557867" lon="10.32004"><ele>296.40000000000003</ele><time>2026-04-20T10:58:03.941Z</time></trkpt><trkpt lat="33.055695" lon="10.320075"><ele>296.0</ele><time>2026-04-20T10:58:04.941Z</time></trkpt><trkpt lat="33.055595" lon="10.3200933"><ele>295.75</ele><time>2026-04-20T10:58:05.941Z</time></trkpt><trkpt lat="33.0554917" lon="10.320085"><ele>295.5</ele><time>2026-04-20T10:58:06.941Z</time></trkpt><trkpt lat="33.0553833" lon="10.320065"><ele>295.25</ele><time>2026-04-20T10:58:07.941Z</time></trkpt><trkpt lat="33.0552683" lon="10.3200467"><ele>295.0</ele><time>2026-04-20T10:58:08.941Z</time></trkpt><trkpt lat="33.055145" lon="10.3200217"><ele>295.0</ele><time>2026-04-20T10:58:09.941Z</time></trkpt><trkpt lat="33.0550133" lon="10.3199867"><ele>295.0</ele><time>2026-04-20T10:58:10.941Z</time></trkpt><trkpt lat="33.0548817" lon="10.3199517"><ele>295.0</ele><time>2026-04-20T10:58:11.941Z</time></trkpt><trkpt lat="33.054745" lon="10.319925"><ele>295.0</ele><time>2026-04-20T10:58:12.941Z</time></trkpt><trkpt lat="33.0546033" lon="10.3198917"><ele>294.75</ele><time>2026-04-20T10:58:13.941Z</time></trkpt><trkpt lat="33.0544567" lon="10.3198817"><ele>294.5</ele><time>2026-04-20T10:58:14.941Z</time></trkpt><trkpt lat="33.0543133" lon="10.3198967"><ele>294.25</ele><time>2026-04-20T10:58:15.941Z</time></trkpt><trkpt lat="33.054175" lon="10.3199433"><ele>294.0</ele><time>2026-04-20T10:58:16.941Z</time></trkpt><trkpt lat="33.0540383" lon="10.3200167"><ele>294.0</ele><time>2026-04-20T10:58:17.941Z</time></trkpt><trkpt lat="33.05391" lon="10.3201033"><ele>294.0</ele><time>2026-04-20T10:58:18.941Z</time></trkpt><trkpt lat="33.0537867" lon="10.3201917"><ele>294.0</ele><time>2026-04-20T10:58:19.941Z</time></trkpt><trkpt lat="33.0536717" lon="10.32029"><ele>294.0</ele><time>2026-04-20T10:58:20.941Z</time></trkpt><trkpt lat="33.0535583" lon="10.3203933"><ele>294.0</ele><time>2026-04-20T10:58:21.941Z</time></trkpt><trkpt lat="33.0534467" lon="10.3204983"><ele>294.0</ele><time>2026-04-20T10:58:22.941Z</time></trkpt><trkpt lat="33.0533333" lon="10.3206117"><ele>294.0</ele><time>2026-04-20T10:58:23.941Z</time></trkpt><trkpt lat="33.0532217" lon="10.3207183"><ele>294.0</ele><time>2026-04-20T10:58:24.941Z</time></trkpt><trkpt lat="33.0531183" lon="10.3208333"><ele>292.75</ele><time>2026-04-20T10:58:25.941Z</time></trkpt><trkpt lat="33.0530267" lon="10.3209717"><ele>291.5</ele><time>2026-04-20T10:58:26.941Z</time></trkpt><trkpt lat="33.0529367" lon="10.3210967"><ele>290.25</ele><time>2026-04-20T10:58:27.941Z</time></trkpt><trkpt lat="33.0528417" lon="10.32122"><ele>289.0</ele><time>2026-04-20T10:58:28.941Z</time></trkpt><trkpt lat="33.0527433" lon="10.32134"><ele>289.59999999999997</ele><time>2026-04-20T10:58:29.941Z</time></trkpt><trkpt lat="33.05264" lon="10.3214467"><ele>290.2</ele><time>2026-04-20T10:58:30.941Z</time></trkpt><trkpt lat="33.05255" lon="10.321545"><ele>290.79999999999995</ele><time>2026-04-20T10:58:31.941Z</time></trkpt><trkpt lat="33.0524733" lon="10.3216233"><ele>291.4</ele><time>2026-04-20T10:58:32.941Z</time></trkpt><trkpt lat="33.0524183" lon="10.32168"><ele>292.0</ele><time>2026-04-20T10:58:33.941Z</time></trkpt><trkpt lat="33.0523667" lon="10.3217333"><ele>292.2</ele><time>2026-04-20T10:58:34.941Z</time></trkpt><trkpt lat="33.0522917" lon="10.3218083"><ele>292.4</ele><time>2026-04-20T10:58:36.941Z</time></trkpt><trkpt lat="33.0522067" lon="10.3218767"><ele>292.6</ele><time>2026-04-20T10:59:33.941Z</time></trkpt><trkpt lat="33.052105" lon="10.321965"><ele>292.8</ele><time>2026-04-20T10:59:35.941Z</time></trkpt><trkpt lat="33.0520467" lon="10.3220167"><ele>293.0</ele><time>2026-04-20T10:59:36.941Z</time></trkpt><trkpt lat="33.0519783" lon="10.322075"><ele>293.0</ele><time>2026-04-20T10:59:37.941Z</time></trkpt><trkpt lat="33.0519067" lon="10.322145"><ele>293.0</ele><time>2026-04-20T10:59:38.941Z</time></trkpt><trkpt lat="33.0518283" lon="10.3222167"><ele>293.0</ele><time>2026-04-20T10:59:39.941Z</time></trkpt><trkpt lat="33.051735" lon="10.3222833"><ele>293.0</ele><time>2026-04-20T10:59:40.941Z</time></trkpt><trkpt lat="33.0516483" lon="10.32235"><ele>293.0</ele><time>2026-04-20T10:59:41.941Z</time></trkpt><trkpt lat="33.05156" lon="10.3224133"><ele>293.8</ele><time>2026-04-20T10:59:42.941Z</time></trkpt><trkpt lat="33.0514683" lon="10.3224833"><ele>294.6</ele><time>2026-04-20T10:59:43.941Z</time></trkpt><trkpt lat="33.05138" lon="10.3225433"><ele>295.4</ele><time>2026-04-20T10:59:44.941Z</time></trkpt><trkpt lat="33.051285" lon="10.32259"><ele>296.2</ele><time>2026-04-20T10:59:45.941Z</time></trkpt><trkpt lat="33.0511783" lon="10.3226417"><ele>297.0</ele><time>2026-04-20T10:59:46.941Z</time></trkpt><trkpt lat="33.0510583" lon="10.32269"><ele>297.0</ele><time>2026-04-20T10:59:47.941Z</time></trkpt><trkpt lat="33.0509333" lon="10.3227417"><ele>297.0</ele><time>2026-04-20T10:59:48.941Z</time></trkpt><trkpt lat="33.05081" lon="10.322775"><ele>297.0</ele><time>2026-04-20T10:59:49.941Z</time></trkpt><trkpt lat="33.0506733" lon="10.3228117"><ele>297.0</ele><time>2026-04-20T10:59:50.941Z</time></trkpt><trkpt lat="33.0505283" lon="10.3228533"><ele>298.0</ele><time>2026-04-20T10:59:51.941Z</time></trkpt><trkpt lat="33.0503767" lon="10.3229033"><ele>299.0</ele><time>2026-04-20T10:59:52.941Z</time></trkpt><trkpt lat="33.0502217" lon="10.3229517"><ele>300.0</ele><time>2026-04-20T10:59:53.941Z</time></trkpt><trkpt lat="33.050065" lon="10.3230017"><ele>301.0</ele><time>2026-04-20T10:59:54.941Z</time></trkpt><trkpt lat="33.0499017" lon="10.3230583"><ele>302.0</ele><time>2026-04-20T10:59:55.941Z</time></trkpt><trkpt lat="33.0497433" lon="10.3231083"><ele>303.0</ele><time>2026-04-20T10:59:56.941Z</time></trkpt><trkpt lat="33.0495767" lon="10.3231767"><ele>302.3333333333333</ele><time>2026-04-20T10:59:57.941Z</time></trkpt><trkpt lat="33.049415" lon="10.3232617"><ele>301.66666666666663</ele><time>2026-04-20T10:59:58.941Z</time></trkpt><trkpt lat="33.04926" lon="10.32337"><ele>301.0</ele><time>2026-04-20T10:59:59.941Z</time></trkpt><trkpt lat="33.04912" lon="10.3235033"><ele>301.0</ele><time>2026-04-20T11:00:00.941Z</time></trkpt><trkpt lat="33.0489933" lon="10.32366"><ele>301.0</ele><time>2026-04-20T11:00:01.941Z</time></trkpt><trkpt lat="33.04888" lon="10.3238333"><ele>301.0</ele><time>2026-04-20T11:00:02.941Z</time></trkpt><trkpt lat="33.0487833" lon="10.3240183"><ele>300.0</ele><time>2026-04-20T11:00:03.941Z</time></trkpt><trkpt lat="33.0487033" lon="10.324215"><ele>299.0</ele><time>2026-04-20T11:00:04.941Z</time></trkpt><trkpt lat="33.0486317" lon="10.3244333"><ele>298.0</ele><time>2026-04-20T11:00:05.941Z</time></trkpt><trkpt lat="33.0485883" lon="10.32467"><ele>298.3333333333333</ele><time>2026-04-20T11:00:06.941Z</time></trkpt><trkpt lat="33.04857" lon="10.324885"><ele>298.6666666666667</ele><time>2026-04-20T11:00:07.941Z</time></trkpt><trkpt lat="33.048545" lon="10.3251017"><ele>299.0</ele><time>2026-04-20T11:00:08.941Z</time></trkpt><trkpt lat="33.0484967" lon="10.3252933"><ele>299.0</ele><time>2026-04-20T11:00:09.941Z</time></trkpt><trkpt lat="33.0484333" lon="10.32546"><ele>299.0</ele><time>2026-04-20T11:00:10.941Z</time></trkpt><trkpt lat="33.04834" lon="10.3256017"><ele>299.0</ele><time>2026-04-20T11:00:11.941Z</time></trkpt><trkpt lat="33.0482233" lon="10.3257317"><ele>302.0</ele><time>2026-04-20T11:00:12.941Z</time></trkpt><trkpt lat="33.048095" lon="10.3258467"><ele>305.0</ele><time>2026-04-20T11:00:13.941Z</time></trkpt><trkpt lat="33.0479633" lon="10.32595"><ele>308.0</ele><time>2026-04-20T11:00:14.941Z</time></trkpt><trkpt lat="33.04783" lon="10.32605"><ele>308.0</ele><time>2026-04-20T11:00:15.941Z</time></trkpt><trkpt lat="33.0477017" lon="10.326155"><ele>308.0</ele><time>2026-04-20T11:00:16.941Z</time></trkpt><trkpt lat="33.0475583" lon="10.3262567"><ele>308.0</ele><time>2026-04-20T11:00:17.941Z</time></trkpt><trkpt lat="33.04743" lon="10.3263717"><ele>309.6666666666667</ele><time>2026-04-20T11:00:18.941Z</time></trkpt><trkpt lat="33.047305" lon="10.3264917"><ele>311.3333333333333</ele><time>2026-04-20T11:00:19.941Z</time></trkpt><trkpt lat="33.04718" lon="10.3266167"><ele>313.0</ele><time>2026-04-20T11:00:20.941Z</time></trkpt><trkpt lat="33.04706" lon="10.326765"><ele>313.0</ele><time>2026-04-20T11:00:21.941Z</time></trkpt><trkpt lat="33.046945" lon="10.3269283"><ele>313.0</ele><time>2026-04-20T11:00:22.941Z</time></trkpt><trkpt lat="33.0468367" lon="10.3270917"><ele>313.0</ele><time>2026-04-20T11:00:23.941Z</time></trkpt><trkpt lat="33.0467267" lon="10.3272667"><ele>313.3333333333333</ele><time>2026-04-20T11:00:24.941Z</time></trkpt><trkpt lat="33.0466183" lon="10.3274533"><ele>313.6666666666667</ele><time>2026-04-20T11:00:25.941Z</time></trkpt><trkpt lat="33.046525" lon="10.3276433"><ele>314.0</ele><time>2026-04-20T11:00:26.941Z</time></trkpt><trkpt lat="33.0464333" lon="10.3278367"><ele>314.0</ele><time>2026-04-20T11:00:27.941Z</time></trkpt><trkpt lat="33.0463517" lon="10.328035"><ele>314.0</ele><time>2026-04-20T11:00:28.941Z</time></trkpt><trkpt lat="33.0462733" lon="10.3282533"><ele>314.0</ele><time>2026-04-20T11:00:29.941Z</time></trkpt><trkpt lat="33.0462033" lon="10.3284767"><ele>315.33333333333337</ele><time>2026-04-20T11:00:30.941Z</time></trkpt><trkpt lat="33.0461283" lon="10.328695"><ele>316.6666666666667</ele><time>2026-04-20T11:00:31.941Z</time></trkpt><trkpt lat="33.04605" lon="10.3288917"><ele>318.0</ele><time>2026-04-20T11:00:32.941Z</time></trkpt><trkpt lat="33.045955" lon="10.3290683"><ele>318.0</ele><time>2026-04-20T11:00:33.941Z</time></trkpt><trkpt lat="33.0458367" lon="10.32924"><ele>318.0</ele><time>2026-04-20T11:00:34.941Z</time></trkpt><trkpt lat="33.0457117" lon="10.3293967"><ele>318.0</ele><time>2026-04-20T11:00:35.941Z</time></trkpt><trkpt lat="33.0455683" lon="10.3295467"><ele>318.3333333333333</ele><time>2026-04-20T11:00:36.941Z</time></trkpt><trkpt lat="33.0454117" lon="10.32968"><ele>318.66666666666663</ele><time>2026-04-20T11:00:37.941Z</time></trkpt><trkpt lat="33.0452517" lon="10.3298"><ele>319.0</ele><time>2026-04-20T11:00:38.941Z</time></trkpt><trkpt lat="33.045095" lon="10.32991"><ele>322.66666666666663</ele><time>2026-04-20T11:00:39.941Z</time></trkpt><trkpt lat="33.0449367" lon="10.3300233"><ele>326.3333333333333</ele><time>2026-04-20T11:00:40.941Z</time></trkpt><trkpt lat="33.0447633" lon="10.33013"><ele>330.0</ele><time>2026-04-20T11:00:41.941Z</time></trkpt><trkpt lat="33.0445883" lon="10.33022"><ele>330.0</ele><time>2026-04-20T11:00:42.941Z</time></trkpt><trkpt lat="33.044405" lon="10.3302817"><ele>330.0</ele><time>2026-04-20T11:00:43.941Z</time></trkpt><trkpt lat="33.044215" lon="10.3303317"><ele>330.0</ele><time>2026-04-20T11:00:44.941Z</time></trkpt><trkpt lat="33.0440267" lon="10.3303683"><ele>330.3333333333333</ele><time>2026-04-20T11:00:45.941Z</time></trkpt><trkpt lat="33.0438367" lon="10.330405"><ele>330.66666666666663</ele><time>2026-04-20T11:00:46.941Z</time></trkpt><trkpt lat="33.0436417" lon="10.33044"><ele>331.0</ele><time>2026-04-20T11:00:47.941Z</time></trkpt><trkpt lat="33.043435" lon="10.3304767"><ele>330.0</ele><time>2026-04-20T11:00:48.941Z</time></trkpt><trkpt lat="33.0432367" lon="10.3305067"><ele>329.0</ele><time>2026-04-20T11:00:49.941Z</time></trkpt><trkpt lat="33.043025" lon="10.3305467"><ele>328.0</ele><time>2026-04-20T11:00:50.941Z</time></trkpt><trkpt lat="33.0428167" lon="10.3305783"><ele>327.66666666666663</ele><time>2026-04-20T11:00:51.941Z</time></trkpt><trkpt lat="33.0426083" lon="10.33062"><ele>327.3333333333333</ele><time>2026-04-20T11:00:52.941Z</time></trkpt><trkpt lat="33.0424017" lon="10.33066"><ele>327.0</ele><time>2026-04-20T11:00:53.941Z</time></trkpt><trkpt lat="33.0421933" lon="10.330705"><ele>327.0</ele><time>2026-04-20T11:00:54.941Z</time></trkpt><trkpt lat="33.041985" lon="10.3307467"><ele>327.0</ele><time>2026-04-20T11:00:55.941Z</time></trkpt><trkpt lat="33.0417733" lon="10.33079"><ele>327.0</ele><time>2026-04-20T11:00:56.941Z</time></trkpt><trkpt lat="33.0415567" lon="10.3308383"><ele>327.0</ele><time>2026-04-20T11:00:57.941Z</time></trkpt><trkpt lat="33.0413367" lon="10.330895"><ele>327.0</ele><time>2026-04-20T11:00:58.941Z</time></trkpt><trkpt lat="33.0411267" lon="10.3309467"><ele>327.0</ele><time>2026-04-20T11:00:59.941Z</time></trkpt><trkpt lat="33.0409083" lon="10.331005"><ele>327.0</ele><time>2026-04-20T11:01:00.941Z</time></trkpt><trkpt lat="33.0406883" lon="10.3310617"><ele>327.0</ele><time>2026-04-20T11:01:01.941Z</time></trkpt><trkpt lat="33.04047" lon="10.3311233"><ele>327.0</ele><time>2026-04-20T11:01:02.941Z</time></trkpt><trkpt lat="33.0402533" lon="10.3311817"><ele>327.0</ele><time>2026-04-20T11:01:03.941Z</time></trkpt><trkpt lat="33.04003" lon="10.3312383"><ele>327.0</ele><time>2026-04-20T11:01:04.941Z</time></trkpt><trkpt lat="33.0398083" lon="10.3312967"><ele>325.5</ele><time>2026-04-20T11:01:05.941Z</time></trkpt><trkpt lat="33.0395817" lon="10.3313567"><ele>324.0</ele><time>2026-04-20T11:01:06.941Z</time></trkpt><trkpt lat="33.0393533" lon="10.33141"><ele>320.0</ele><time>2026-04-20T11:01:07.941Z</time></trkpt><trkpt lat="33.0391233" lon="10.331445"><ele>316.0</ele><time>2026-04-20T11:01:08.941Z</time></trkpt><trkpt lat="33.0388933" lon="10.3314633"><ele>316.0</ele><time>2026-04-20T11:01:09.941Z</time></trkpt><trkpt lat="33.03866" lon="10.3314833"><ele>316.0</ele><time>2026-04-20T11:01:10.941Z</time></trkpt><trkpt lat="33.038425" lon="10.3315033"><ele>314.0</ele><time>2026-04-20T11:01:11.941Z</time></trkpt><trkpt lat="33.0381833" lon="10.3315167"><ele>312.0</ele><time>2026-04-20T11:01:12.941Z</time></trkpt><trkpt lat="33.037935" lon="10.3315367"><ele>312.0</ele><time>2026-04-20T11:01:13.941Z</time></trkpt><trkpt lat="33.0376917" lon="10.3315483"><ele>312.0</ele><time>2026-04-20T11:01:14.941Z</time></trkpt><trkpt lat="33.037445" lon="10.3315567"><ele>311.0</ele><time>2026-04-20T11:01:15.941Z</time></trkpt><trkpt lat="33.0372" lon="10.3315633"><ele>310.0</ele><time>2026-04-20T11:01:16.941Z</time></trkpt><trkpt lat="33.03695" lon="10.33157"><ele>310.0</ele><time>2026-04-20T11:01:17.941Z</time></trkpt><trkpt lat="33.0367067" lon="10.3315633"><ele>310.0</ele><time>2026-04-20T11:01:18.941Z</time></trkpt><trkpt lat="33.0364667" lon="10.3315667"><ele>311.5</ele><time>2026-04-20T11:01:19.941Z</time></trkpt><trkpt lat="33.03623" lon="10.3315783"><ele>313.0</ele><time>2026-04-20T11:01:20.94Z</time></trkpt><trkpt lat="33.0359967" lon="10.3315917"><ele>312.5</ele><time>2026-04-20T11:01:21.94Z</time></trkpt><trkpt lat="33.0357517" lon="10.3316067"><ele>312.0</ele><time>2026-04-20T11:01:22.94Z</time></trkpt><trkpt lat="33.0355117" lon="10.331615"><ele>312.0</ele><time>2026-04-20T11:01:23.94Z</time></trkpt><trkpt lat="33.0352733" lon="10.3316217"><ele>312.0</ele><time>2026-04-20T11:01:24.94Z</time></trkpt><trkpt lat="33.035035" lon="10.3316333"><ele>311.0</ele><time>2026-04-20T11:01:25.94Z</time></trkpt><trkpt lat="33.0347967" lon="10.3316483"><ele>310.0</ele><time>2026-04-20T11:01:26.94Z</time></trkpt><trkpt lat="33.034555" lon="10.3316633"><ele>310.0</ele><time>2026-04-20T11:01:27.94Z</time></trkpt><trkpt lat="33.0343117" lon="10.331685"><ele>310.0</ele><time>2026-04-20T11:01:28.94Z</time></trkpt><trkpt lat="33.0340667" lon="10.3317067"><ele>309.0</ele><time>2026-04-20T11:01:29.94Z</time></trkpt><trkpt lat="33.0338233" lon="10.3317217"><ele>308.0</ele><time>2026-04-20T11:01:30.94Z</time></trkpt><trkpt lat="33.03358" lon="10.33173"><ele>308.0</ele><time>2026-04-20T11:01:31.94Z</time></trkpt><trkpt lat="33.033335" lon="10.3317317"><ele>308.0</ele><time>2026-04-20T11:01:32.94Z</time></trkpt><trkpt lat="33.0330867" lon="10.3317333"><ele>306.5</ele><time>2026-04-20T11:01:33.94Z</time></trkpt><trkpt lat="33.0328417" lon="10.3317283"><ele>305.0</ele><time>2026-04-20T11:01:34.94Z</time></trkpt><trkpt lat="33.03259" lon="10.3317283"><ele>306.5</ele><time>2026-04-20T11:01:35.94Z</time></trkpt><trkpt lat="33.0323483" lon="10.331725"><ele>308.0</ele><time>2026-04-20T11:01:36.94Z</time></trkpt><trkpt lat="33.0321067" lon="10.33173"><ele>308.0</ele><time>2026-04-20T11:01:37.94Z</time></trkpt><trkpt lat="33.0318633" lon="10.3317433"><ele>308.0</ele><time>2026-04-20T11:01:38.94Z</time></trkpt><trkpt lat="33.0316267" lon="10.331755"><ele>308.0</ele><time>2026-04-20T11:01:39.94Z</time></trkpt><trkpt lat="33.03139" lon="10.3317667"><ele>308.0</ele><time>2026-04-20T11:01:40.94Z</time></trkpt><trkpt lat="33.031155" lon="10.33178"><ele>308.0</ele><time>2026-04-20T11:01:41.94Z</time></trkpt><trkpt lat="33.03092" lon="10.33179"><ele>308.0</ele><time>2026-04-20T11:01:42.94Z</time></trkpt><trkpt lat="33.0306917" lon="10.3317917"><ele>308.5</ele><time>2026-04-20T11:01:43.94Z</time></trkpt><trkpt lat="33.0304567" lon="10.331795"><ele>309.0</ele><time>2026-04-20T11:01:44.94Z</time></trkpt><trkpt lat="33.0302267" lon="10.33179"><ele>309.0</ele><time>2026-04-20T11:01:45.94Z</time></trkpt><trkpt lat="33.029995" lon="10.3317867"><ele>309.0</ele><time>2026-04-20T11:01:46.94Z</time></trkpt><trkpt lat="33.0297583" lon="10.3317883"><ele>308.0</ele><time>2026-04-20T11:01:47.94Z</time></trkpt><trkpt lat="33.029525" lon="10.331795"><ele>307.0</ele><time>2026-04-20T11:01:48.94Z</time></trkpt><trkpt lat="33.029295" lon="10.331805"><ele>304.0</ele><time>2026-04-20T11:01:49.94Z</time></trkpt><trkpt lat="33.0290633" lon="10.331815"><ele>301.0</ele><time>2026-04-20T11:01:50.94Z</time></trkpt><trkpt lat="33.02883" lon="10.3318233"><ele>301.0</ele><time>2026-04-20T11:01:51.94Z</time></trkpt><trkpt lat="33.0285917" lon="10.3318283"><ele>301.0</ele><time>2026-04-20T11:01:52.94Z</time></trkpt><trkpt lat="33.0283517" lon="10.3318317"><ele>300.0</ele><time>2026-04-20T11:01:53.94Z</time></trkpt><trkpt lat="33.028115" lon="10.3318317"><ele>299.0</ele><time>2026-04-20T11:01:54.94Z</time></trkpt><trkpt lat="33.0278767" lon="10.3318283"><ele>299.0</ele><time>2026-04-20T11:01:55.94Z</time></trkpt><trkpt lat="33.027635" lon="10.33183"><ele>299.0</ele><time>2026-04-20T11:01:56.94Z</time></trkpt><trkpt lat="33.0273967" lon="10.3318283"><ele>298.0</ele><time>2026-04-20T11:01:57.94Z</time></trkpt><trkpt lat="33.0271633" lon="10.3318217"><ele>297.0</ele><time>2026-04-20T11:01:58.94Z</time></trkpt><trkpt lat="33.0269217" lon="10.331825"><ele>297.0</ele><time>2026-04-20T11:01:59.94Z</time></trkpt><trkpt lat="33.026685" lon="10.3318333"><ele>297.0</ele><time>2026-04-20T11:02:00.94Z</time></trkpt><trkpt lat="33.0264533" lon="10.33185"><ele>298.0</ele><time>2026-04-20T11:02:01.94Z</time></trkpt><trkpt lat="33.0262217" lon="10.33188"><ele>299.0</ele><time>2026-04-20T11:02:02.94Z</time></trkpt><trkpt lat="33.02599" lon="10.3319283"><ele>300.33333333333337</ele><time>2026-04-20T11:02:03.94Z</time></trkpt><trkpt lat="33.0257717" lon="10.3319917"><ele>301.6666666666667</ele><time>2026-04-20T11:02:04.94Z</time></trkpt><trkpt lat="33.0255583" lon="10.3320667"><ele>303.0</ele><time>2026-04-20T11:02:05.94Z</time></trkpt><trkpt lat="33.0253567" lon="10.3321467"><ele>302.3333333333333</ele><time>2026-04-20T11:02:06.94Z</time></trkpt><trkpt lat="33.025155" lon="10.3322333"><ele>301.66666666666663</ele><time>2026-04-20T11:02:07.94Z</time></trkpt><trkpt lat="33.0249733" lon="10.3323183"><ele>301.0</ele><time>2026-04-20T11:02:08.94Z</time></trkpt><trkpt lat="33.024795" lon="10.33241"><ele>300.0</ele><time>2026-04-20T11:02:09.94Z</time></trkpt><trkpt lat="33.0246217" lon="10.3325"><ele>299.0</ele><time>2026-04-20T11:02:10.94Z</time></trkpt><trkpt lat="33.0244467" lon="10.3325833"><ele>298.0</ele><time>2026-04-20T11:02:11.94Z</time></trkpt><trkpt lat="33.02427" lon="10.3326633"><ele>297.3333333333333</ele><time>2026-04-20T11:02:12.94Z</time></trkpt><trkpt lat="33.0240983" lon="10.3327467"><ele>296.6666666666667</ele><time>2026-04-20T11:02:13.94Z</time></trkpt><trkpt lat="33.0239267" lon="10.3328283"><ele>296.0</ele><time>2026-04-20T11:02:14.94Z</time></trkpt><trkpt lat="33.0237383" lon="10.3329117"><ele>296.0</ele><time>2026-04-20T11:02:15.94Z</time></trkpt><trkpt lat="33.02356" lon="10.33301"><ele>296.0</ele><time>2026-04-20T11:02:16.94Z</time></trkpt><trkpt lat="33.0233783" lon="10.3330983"><ele>296.0</ele><time>2026-04-20T11:02:17.94Z</time></trkpt><trkpt lat="33.023195" lon="10.3331817"><ele>295.0</ele><time>2026-04-20T11:02:18.94Z</time></trkpt><trkpt lat="33.023005" lon="10.3332767"><ele>294.0</ele><time>2026-04-20T11:02:19.94Z</time></trkpt><trkpt lat="33.0228117" lon="10.33337"><ele>293.0</ele><time>2026-04-20T11:02:20.94Z</time></trkpt><trkpt lat="33.0226183" lon="10.33346"><ele>292.6666666666667</ele><time>2026-04-20T11:02:21.94Z</time></trkpt><trkpt lat="33.0224267" lon="10.3335483"><ele>292.3333333333333</ele><time>2026-04-20T11:02:22.94Z</time></trkpt><trkpt lat="33.0222367" lon="10.3336383"><ele>292.0</ele><time>2026-04-20T11:02:23.94Z</time></trkpt><trkpt lat="33.02204" lon="10.3337317"><ele>292.0</ele><time>2026-04-20T11:02:24.94Z</time></trkpt><trkpt lat="33.0218467" lon="10.333825"><ele>292.0</ele><time>2026-04-20T11:02:25.94Z</time></trkpt><trkpt lat="33.021645" lon="10.33392"><ele>292.0</ele><time>2026-04-20T11:02:26.94Z</time></trkpt><trkpt lat="33.02144" lon="10.3340183"><ele>292.0</ele><time>2026-04-20T11:02:27.94Z</time></trkpt><trkpt lat="33.02123" lon="10.3341183"><ele>292.0</ele><time>2026-04-20T11:02:28.94Z</time></trkpt><trkpt lat="33.0210233" lon="10.33422"><ele>290.5</ele><time>2026-04-20T11:02:29.94Z</time></trkpt><trkpt lat="33.0208133" lon="10.3343183"><ele>289.0</ele><time>2026-04-20T11:02:30.94Z</time></trkpt><trkpt lat="33.0206" lon="10.33442"><ele>289.0</ele><time>2026-04-20T11:02:31.94Z</time></trkpt><trkpt lat="33.0203867" lon="10.33452"><ele>289.0</ele><time>2026-04-20T11:02:32.94Z</time></trkpt><trkpt lat="33.0201817" lon="10.3346217"><ele>289.3333333333333</ele><time>2026-04-20T11:02:33.94Z</time></trkpt><trkpt lat="33.0199733" lon="10.3347283"><ele>289.6666666666667</ele><time>2026-04-20T11:02:34.94Z</time></trkpt><trkpt lat="33.019775" lon="10.3348267"><ele>290.0</ele><time>2026-04-20T11:02:35.94Z</time></trkpt><trkpt lat="33.0195767" lon="10.3349283"><ele>290.0</ele><time>2026-04-20T11:02:36.94Z</time></trkpt><trkpt lat="33.0193817" lon="10.3350267"><ele>290.0</ele><time>2026-04-20T11:02:37.94Z</time></trkpt><trkpt lat="33.0191967" lon="10.3351267"><ele>290.0</ele><time>2026-04-20T11:02:38.94Z</time></trkpt><trkpt lat="33.019015" lon="10.3352233"><ele>288.33333333333337</ele><time>2026-04-20T11:02:39.94Z</time></trkpt><trkpt lat="33.0188467" lon="10.3353167"><ele>286.6666666666667</ele><time>2026-04-20T11:02:40.94Z</time></trkpt><trkpt lat="33.0186817" lon="10.3354033"><ele>285.0</ele><time>2026-04-20T11:02:41.94Z</time></trkpt><trkpt lat="33.0185167" lon="10.3355"><ele>285.0</ele><time>2026-04-20T11:02:42.94Z</time></trkpt><trkpt lat="33.018355" lon="10.3356"><ele>285.0</ele><time>2026-04-20T11:02:43.94Z</time></trkpt><trkpt lat="33.0181933" lon="10.335685"><ele>285.0</ele><time>2026-04-20T11:02:44.94Z</time></trkpt><trkpt lat="33.0180333" lon="10.3357683"><ele>284.3333333333333</ele><time>2026-04-20T11:02:45.94Z</time></trkpt><trkpt lat="33.0178783" lon="10.3358467"><ele>283.66666666666663</ele><time>2026-04-20T11:02:46.94Z</time></trkpt><trkpt lat="33.0177267" lon="10.33593"><ele>283.0</ele><time>2026-04-20T11:02:47.94Z</time></trkpt><trkpt lat="33.0175733" lon="10.336"><ele>282.5</ele><time>2026-04-20T11:02:48.94Z</time></trkpt><trkpt lat="33.0174283" lon="10.3360783"><ele>282.0</ele><time>2026-04-20T11:02:49.94Z</time></trkpt><trkpt lat="33.017295" lon="10.336145"><ele>281.5</ele><time>2026-04-20T11:02:50.94Z</time></trkpt><trkpt lat="33.0171733" lon="10.33621"><ele>281.0</ele><time>2026-04-20T11:02:51.94Z</time></trkpt><trkpt lat="33.0170517" lon="10.3362683"><ele>281.0</ele><time>2026-04-20T11:02:52.94Z</time></trkpt><trkpt lat="33.0169317" lon="10.3363217"><ele>281.0</ele><time>2026-04-20T11:02:53.94Z</time></trkpt><trkpt lat="33.01681" lon="10.33638"><ele>281.0</ele><time>2026-04-20T11:02:54.94Z</time></trkpt><trkpt lat="33.0166867" lon="10.3364417"><ele>281.0</ele><time>2026-04-20T11:02:55.94Z</time></trkpt><trkpt lat="33.01656" lon="10.3365067"><ele>281.0</ele><time>2026-04-20T11:02:56.94Z</time></trkpt><trkpt lat="33.016435" lon="10.3365817"><ele>281.0</ele><time>2026-04-20T11:02:57.94Z</time></trkpt><trkpt lat="33.0163067" lon="10.336665"><ele>281.0</ele><time>2026-04-20T11:02:58.94Z</time></trkpt><trkpt lat="33.01617" lon="10.3367483"><ele>281.0</ele><time>2026-04-20T11:02:59.94Z</time></trkpt><trkpt lat="33.0160317" lon="10.3368283"><ele>281.0</ele><time>2026-04-20T11:03:00.94Z</time></trkpt><trkpt lat="33.0158867" lon="10.3369067"><ele>281.0</ele><time>2026-04-20T11:03:01.94Z</time></trkpt><trkpt lat="33.015735" lon="10.3369867"><ele>281.0</ele><time>2026-04-20T11:03:02.94Z</time></trkpt><trkpt lat="33.01558" lon="10.3370617"><ele>281.0</ele><time>2026-04-20T11:03:03.94Z</time></trkpt><trkpt lat="33.0154167" lon="10.337135"><ele>281.0</ele><time>2026-04-20T11:03:04.94Z</time></trkpt><trkpt lat="33.0152533" lon="10.3372067"><ele>281.0</ele><time>2026-04-20T11:03:05.94Z</time></trkpt><trkpt lat="33.0150917" lon="10.3372767"><ele>281.0</ele><time>2026-04-20T11:03:06.94Z</time></trkpt><trkpt lat="33.0149217" lon="10.337355"><ele>281.0</ele><time>2026-04-20T11:03:07.94Z</time></trkpt><trkpt lat="33.0147533" lon="10.3374367"><ele>281.0</ele><time>2026-04-20T11:03:08.94Z</time></trkpt><trkpt lat="33.0145817" lon="10.33752"><ele>281.0</ele><time>2026-04-20T11:03:09.94Z</time></trkpt><trkpt lat="33.0144083" lon="10.3376133"><ele>281.0</ele><time>2026-04-20T11:03:10.94Z</time></trkpt><trkpt lat="33.0142317" lon="10.3377083"><ele>281.0</ele><time>2026-04-20T11:03:11.94Z</time></trkpt><trkpt lat="33.0140533" lon="10.33781"><ele>279.6666666666667</ele><time>2026-04-20T11:03:12.94Z</time></trkpt><trkpt lat="33.0138783" lon="10.33791"><ele>278.3333333333333</ele><time>2026-04-20T11:03:13.94Z</time></trkpt><trkpt lat="33.0136967" lon="10.3380133"><ele>277.0</ele><time>2026-04-20T11:03:14.94Z</time></trkpt><trkpt lat="33.0135117" lon="10.338125"><ele>277.0</ele><time>2026-04-20T11:03:15.94Z</time></trkpt><trkpt lat="33.013325" lon="10.338225"><ele>277.0</ele><time>2026-04-20T11:03:16.94Z</time></trkpt><trkpt lat="33.0131367" lon="10.338325"><ele>277.0</ele><time>2026-04-20T11:03:17.94Z</time></trkpt><trkpt lat="33.0129483" lon="10.3384167"><ele>278.0</ele><time>2026-04-20T11:03:18.94Z</time></trkpt><trkpt lat="33.01275" lon="10.3385133"><ele>279.0</ele><time>2026-04-20T11:03:19.94Z</time></trkpt><trkpt lat="33.0125517" lon="10.3386117"><ele>280.0</ele><time>2026-04-20T11:03:20.94Z</time></trkpt><trkpt lat="33.0123533" lon="10.3387167"><ele>280.0</ele><time>2026-04-20T11:03:21.94Z</time></trkpt><trkpt lat="33.0121583" lon="10.33882"><ele>280.0</ele><time>2026-04-20T11:03:22.94Z</time></trkpt><trkpt lat="33.0119683" lon="10.33893"><ele>280.0</ele><time>2026-04-20T11:03:23.94Z</time></trkpt><trkpt lat="33.011785" lon="10.33905"><ele>280.66666666666663</ele><time>2026-04-20T11:03:24.94Z</time></trkpt><trkpt lat="33.0116033" lon="10.33917"><ele>281.3333333333333</ele><time>2026-04-20T11:03:25.94Z</time></trkpt><trkpt lat="33.0114217" lon="10.3393067"><ele>282.0</ele><time>2026-04-20T11:03:26.94Z</time></trkpt><trkpt lat="33.0112417" lon="10.3394467"><ele>282.0</ele><time>2026-04-20T11:03:27.94Z</time></trkpt><trkpt lat="33.0110567" lon="10.3395933"><ele>282.0</ele><time>2026-04-20T11:03:28.94Z</time></trkpt><trkpt lat="33.010875" lon="10.339745"><ele>282.0</ele><time>2026-04-20T11:03:29.94Z</time></trkpt><trkpt lat="33.010695" lon="10.3399033"><ele>283.0</ele><time>2026-04-20T11:03:30.94Z</time></trkpt><trkpt lat="33.010515" lon="10.3400617"><ele>284.0</ele><time>2026-04-20T11:03:31.94Z</time></trkpt><trkpt lat="33.01034" lon="10.340215"><ele>285.0</ele><time>2026-04-20T11:03:32.94Z</time></trkpt><trkpt lat="33.0101533" lon="10.3403717"><ele>284.6666666666667</ele><time>2026-04-20T11:03:33.94Z</time></trkpt><trkpt lat="33.0099667" lon="10.3405133"><ele>284.33333333333337</ele><time>2026-04-20T11:03:34.94Z</time></trkpt><trkpt lat="33.0097683" lon="10.340645"><ele>284.0</ele><time>2026-04-20T11:03:35.94Z</time></trkpt><trkpt lat="33.0095633" lon="10.3407517"><ele>283.0</ele><time>2026-04-20T11:03:36.94Z</time></trkpt><trkpt lat="33.0093483" lon="10.34085"><ele>282.0</ele><time>2026-04-20T11:03:37.94Z</time></trkpt><trkpt lat="33.00913" lon="10.340945"><ele>280.5</ele><time>2026-04-20T11:03:38.94Z</time></trkpt><trkpt lat="33.0089133" lon="10.3410317"><ele>279.0</ele><time>2026-04-20T11:03:39.94Z</time></trkpt><trkpt lat="33.0086917" lon="10.34111"><ele>279.0</ele><time>2026-04-20T11:03:40.94Z</time></trkpt><trkpt lat="33.0084717" lon="10.3411867"><ele>279.0</ele><time>2026-04-20T11:03:41.94Z</time></trkpt><trkpt lat="33.0082433" lon="10.3412583"><ele>278.0</ele><time>2026-04-20T11:03:42.94Z</time></trkpt><trkpt lat="33.0080217" lon="10.3413183"><ele>277.0</ele><time>2026-04-20T11:03:43.94Z</time></trkpt><trkpt lat="33.0078" lon="10.3413767"><ele>278.0</ele><time>2026-04-20T11:03:44.94Z</time></trkpt><trkpt lat="33.0075733" lon="10.3414367"><ele>279.0</ele><time>2026-04-20T11:03:45.94Z</time></trkpt><trkpt lat="33.0073533" lon="10.3415033"><ele>279.5</ele><time>2026-04-20T11:03:46.94Z</time></trkpt><trkpt lat="33.0071317" lon="10.3415733"><ele>280.0</ele><time>2026-04-20T11:03:47.94Z</time></trkpt><trkpt lat="33.00691" lon="10.3416533"><ele>280.0</ele><time>2026-04-20T11:03:48.94Z</time></trkpt><trkpt lat="33.0066983" lon="10.3417267"><ele>280.0</ele><time>2026-04-20T11:03:49.94Z</time></trkpt><trkpt lat="33.006485" lon="10.3418117"><ele>280.0</ele><time>2026-04-20T11:03:50.94Z</time></trkpt><trkpt lat="33.006275" lon="10.3419083"><ele>278.0</ele><time>2026-04-20T11:03:51.94Z</time></trkpt><trkpt lat="33.0060617" lon="10.3420133"><ele>276.0</ele><time>2026-04-20T11:03:52.94Z</time></trkpt><trkpt lat="33.0058517" lon="10.3421183"><ele>277.0</ele><time>2026-04-20T11:03:53.94Z</time></trkpt><trkpt lat="33.0056383" lon="10.3422233"><ele>278.0</ele><time>2026-04-20T11:03:54.94Z</time></trkpt><trkpt lat="33.0054367" lon="10.3423367"><ele>278.0</ele><time>2026-04-20T11:03:55.94Z</time></trkpt><trkpt lat="33.00525" lon="10.3424467"><ele>278.0</ele><time>2026-04-20T11:03:56.94Z</time></trkpt><trkpt lat="33.0050733" lon="10.342545"><ele>278.0</ele><time>2026-04-20T11:03:57.94Z</time></trkpt><trkpt lat="33.004895" lon="10.342635"><ele>278.0</ele><time>2026-04-20T11:03:58.94Z</time></trkpt><trkpt lat="33.0047117" lon="10.3427217"><ele>278.0</ele><time>2026-04-20T11:03:59.94Z</time></trkpt><trkpt lat="33.004525" lon="10.3428017"><ele>278.0</ele><time>2026-04-20T11:04:00.94Z</time></trkpt><trkpt lat="33.0043317" lon="10.34288"><ele>278.33333333333337</ele><time>2026-04-20T11:04:01.94Z</time></trkpt><trkpt lat="33.0041417" lon="10.342945"><ele>278.6666666666667</ele><time>2026-04-20T11:04:02.94Z</time></trkpt><trkpt lat="33.0039433" lon="10.343015"><ele>279.0</ele><time>2026-04-20T11:04:03.94Z</time></trkpt><trkpt lat="33.0037417" lon="10.3430717"><ele>279.0</ele><time>2026-04-20T11:04:04.94Z</time></trkpt><trkpt lat="33.0035383" lon="10.34312"><ele>279.0</ele><time>2026-04-20T11:04:05.94Z</time></trkpt><trkpt lat="33.0033283" lon="10.3431633"><ele>279.0</ele><time>2026-04-20T11:04:06.94Z</time></trkpt><trkpt lat="33.0031133" lon="10.3432033"><ele>278.6666666666667</ele><time>2026-04-20T11:04:07.94Z</time></trkpt><trkpt lat="33.0029033" lon="10.3432433"><ele>278.33333333333337</ele><time>2026-04-20T11:04:08.94Z</time></trkpt><trkpt lat="33.0026917" lon="10.3432717"><ele>278.0</ele><time>2026-04-20T11:04:09.94Z</time></trkpt><trkpt lat="33.002485" lon="10.3432967"><ele>277.6666666666667</ele><time>2026-04-20T11:04:10.94Z</time></trkpt><trkpt lat="33.002265" lon="10.34332"><ele>277.3333333333333</ele><time>2026-04-20T11:04:11.94Z</time></trkpt><trkpt lat="33.0020433" lon="10.3433433"><ele>277.0</ele><time>2026-04-20T11:04:12.94Z</time></trkpt><trkpt lat="33.00182" lon="10.34335"><ele>276.66666666666663</ele><time>2026-04-20T11:04:13.94Z</time></trkpt><trkpt lat="33.0015967" lon="10.3433617"><ele>276.3333333333333</ele><time>2026-04-20T11:04:14.94Z</time></trkpt><trkpt lat="33.0013733" lon="10.343375"><ele>276.0</ele><time>2026-04-20T11:04:15.94Z</time></trkpt><trkpt lat="33.0011533" lon="10.3433783"><ele>276.0</ele><time>2026-04-20T11:04:16.94Z</time></trkpt><trkpt lat="33.0009317" lon="10.34339"><ele>276.0</ele><time>2026-04-20T11:04:17.94Z</time></trkpt><trkpt lat="33.0007067" lon="10.3433967"><ele>276.0</ele><time>2026-04-20T11:04:18.94Z</time></trkpt><trkpt lat="33.000475" lon="10.34341"><ele>275.0</ele><time>2026-04-20T11:04:19.94Z</time></trkpt><trkpt lat="33.0002467" lon="10.34342"><ele>274.0</ele><time>2026-04-20T11:04:20.94Z</time></trkpt><trkpt lat="33.0000167" lon="10.343435"><ele>274.0</ele><time>2026-04-20T11:04:21.94Z</time></trkpt><trkpt lat="32.9997833" lon="10.3434517"><ele>274.0</ele><time>2026-04-20T11:04:22.94Z</time></trkpt><trkpt lat="32.99955" lon="10.3434633"><ele>274.0</ele><time>2026-04-20T11:04:23.94Z</time></trkpt><trkpt lat="32.9993133" lon="10.3434817"><ele>274.0</ele><time>2026-04-20T11:04:24.94Z</time></trkpt><trkpt lat="32.9990867" lon="10.3434917"><ele>273.5</ele><time>2026-04-20T11:04:25.94Z</time></trkpt><trkpt lat="32.99886" lon="10.3435117"><ele>273.0</ele><time>2026-04-20T11:04:26.94Z</time></trkpt><trkpt lat="32.9986267" lon="10.34353"><ele>273.0</ele><time>2026-04-20T11:04:27.94Z</time></trkpt><trkpt lat="32.9983883" lon="10.3435417"><ele>273.0</ele><time>2026-04-20T11:04:28.94Z</time></trkpt><trkpt lat="32.99815" lon="10.3435467"><ele>273.0</ele><time>2026-04-20T11:04:29.94Z</time></trkpt><trkpt lat="32.9979133" lon="10.343555"><ele>273.0</ele><time>2026-04-20T11:04:30.94Z</time></trkpt><trkpt lat="32.9976767" lon="10.3435617"><ele>271.5</ele><time>2026-04-20T11:04:31.94Z</time></trkpt><trkpt lat="32.9974317" lon="10.3435683"><ele>270.0</ele><time>2026-04-20T11:04:32.94Z</time></trkpt><trkpt lat="32.99719" lon="10.343565"><ele>270.0</ele><time>2026-04-20T11:04:33.94Z</time></trkpt><trkpt lat="32.9969467" lon="10.3435533"><ele>270.0</ele><time>2026-04-20T11:04:34.94Z</time></trkpt><trkpt lat="32.9967017" lon="10.3435317"><ele>268.5</ele><time>2026-04-20T11:04:35.94Z</time></trkpt><trkpt lat="32.9964717" lon="10.3434833"><ele>267.0</ele><time>2026-04-20T11:04:36.94Z</time></trkpt><trkpt lat="32.9962333" lon="10.3434317"><ele>267.0</ele><time>2026-04-20T11:04:37.94Z</time></trkpt><trkpt lat="32.9959933" lon="10.34338"><ele>267.0</ele><time>2026-04-20T11:04:38.94Z</time></trkpt><trkpt lat="32.9957683" lon="10.343325"><ele>267.5</ele><time>2026-04-20T11:04:39.94Z</time></trkpt><trkpt lat="32.995545" lon="10.3432683"><ele>268.0</ele><time>2026-04-20T11:04:40.94Z</time></trkpt><trkpt lat="32.9953183" lon="10.34322"><ele>268.0</ele><time>2026-04-20T11:04:41.94Z</time></trkpt><trkpt lat="32.995095" lon="10.3431767"><ele>268.0</ele><time>2026-04-20T11:04:42.94Z</time></trkpt><trkpt lat="32.99487" lon="10.3431367"><ele>266.5</ele><time>2026-04-20T11:04:43.94Z</time></trkpt><trkpt lat="32.99464" lon="10.3431083"><ele>265.0</ele><time>2026-04-20T11:04:44.94Z</time></trkpt><trkpt lat="32.9944083" lon="10.34309"><ele>265.0</ele><time>2026-04-20T11:04:45.94Z</time></trkpt><trkpt lat="32.99418" lon="10.3430817"><ele>265.0</ele><time>2026-04-20T11:04:46.94Z</time></trkpt><trkpt lat="32.9939483" lon="10.3430833"><ele>265.5</ele><time>2026-04-20T11:04:47.94Z</time></trkpt><trkpt lat="32.99372" lon="10.34309"><ele>266.0</ele><time>2026-04-20T11:04:48.94Z</time></trkpt><trkpt lat="32.9934917" lon="10.3431017"><ele>265.5</ele><time>2026-04-20T11:04:49.94Z</time></trkpt><trkpt lat="32.9932633" lon="10.343105"><ele>265.0</ele><time>2026-04-20T11:04:50.94Z</time></trkpt><trkpt lat="32.9930283" lon="10.3431133"><ele>265.0</ele><time>2026-04-20T11:04:51.94Z</time></trkpt><trkpt lat="32.9927983" lon="10.343115"><ele>265.0</ele><time>2026-04-20T11:04:52.94Z</time></trkpt><trkpt lat="32.992565" lon="10.343115"><ele>263.0</ele><time>2026-04-20T11:04:53.94Z</time></trkpt><trkpt lat="32.9923383" lon="10.3431117"><ele>261.0</ele><time>2026-04-20T11:04:54.94Z</time></trkpt><trkpt lat="32.9921083" lon="10.3431083"><ele>261.0</ele><time>2026-04-20T11:04:55.94Z</time></trkpt><trkpt lat="32.9918817" lon="10.3431033"><ele>261.0</ele><time>2026-04-20T11:04:56.94Z</time></trkpt><trkpt lat="32.9916517" lon="10.3430933"><ele>261.5</ele><time>2026-04-20T11:04:57.94Z</time></trkpt><trkpt lat="32.9914233" lon="10.3430717"><ele>262.0</ele><time>2026-04-20T11:04:58.939Z</time></trkpt><trkpt lat="32.9911967" lon="10.3430233"><ele>262.0</ele><time>2026-04-20T11:04:59.939Z</time></trkpt><trkpt lat="32.9909783" lon="10.3429517"><ele>262.0</ele><time>2026-04-20T11:05:00.939Z</time></trkpt><trkpt lat="32.9907617" lon="10.3428733"><ele>261.66666666666663</ele><time>2026-04-20T11:05:01.939Z</time></trkpt><trkpt lat="32.990555" lon="10.342785"><ele>261.3333333333333</ele><time>2026-04-20T11:05:02.939Z</time></trkpt><trkpt lat="32.9903533" lon="10.3426933"><ele>261.0</ele><time>2026-04-20T11:05:03.939Z</time></trkpt><trkpt lat="32.9901417" lon="10.3426133"><ele>262.0</ele><time>2026-04-20T11:05:04.939Z</time></trkpt><trkpt lat="32.9899333" lon="10.3425233"><ele>263.0</ele><time>2026-04-20T11:05:05.939Z</time></trkpt><trkpt lat="32.9897267" lon="10.3424283"><ele>264.0</ele><time>2026-04-20T11:05:06.939Z</time></trkpt><trkpt lat="32.98952" lon="10.3423367"><ele>264.0</ele><time>2026-04-20T11:05:07.939Z</time></trkpt><trkpt lat="32.9893083" lon="10.342245"><ele>264.0</ele><time>2026-04-20T11:05:08.939Z</time></trkpt><trkpt lat="32.9890967" lon="10.3421567"><ele>264.0</ele><time>2026-04-20T11:05:09.939Z</time></trkpt><trkpt lat="32.9888867" lon="10.3420733"><ele>263.6666666666667</ele><time>2026-04-20T11:05:10.939Z</time></trkpt><trkpt lat="32.98868" lon="10.3419917"><ele>263.33333333333337</ele><time>2026-04-20T11:05:11.939Z</time></trkpt><trkpt lat="32.98847" lon="10.3419033"><ele>263.0</ele><time>2026-04-20T11:05:12.939Z</time></trkpt><trkpt lat="32.9882767" lon="10.3418083"><ele>263.0</ele><time>2026-04-20T11:05:13.939Z</time></trkpt><trkpt lat="32.98807" lon="10.3417217"><ele>263.0</ele><time>2026-04-20T11:05:14.939Z</time></trkpt><trkpt lat="32.9878683" lon="10.3416333"><ele>263.0</ele><time>2026-04-20T11:05:15.939Z</time></trkpt><trkpt lat="32.9876633" lon="10.3415467"><ele>262.6666666666667</ele><time>2026-04-20T11:05:16.939Z</time></trkpt><trkpt lat="32.9874533" lon="10.3414617"><ele>262.3333333333333</ele><time>2026-04-20T11:05:17.939Z</time></trkpt><trkpt lat="32.9872483" lon="10.3413717"><ele>262.0</ele><time>2026-04-20T11:05:18.939Z</time></trkpt><trkpt lat="32.9870467" lon="10.34129"><ele>262.0</ele><time>2026-04-20T11:05:19.939Z</time></trkpt><trkpt lat="32.9868433" lon="10.341215"><ele>262.0</ele><time>2026-04-20T11:05:20.939Z</time></trkpt><trkpt lat="32.9866567" lon="10.3411567"><ele>262.0</ele><time>2026-04-20T11:05:21.939Z</time></trkpt><trkpt lat="32.986465" lon="10.3411283"><ele>262.0</ele><time>2026-04-20T11:05:22.939Z</time></trkpt><trkpt lat="32.9862733" lon="10.3411167"><ele>262.0</ele><time>2026-04-20T11:05:23.939Z</time></trkpt><trkpt lat="32.9860883" lon="10.34113"><ele>262.0</ele><time>2026-04-20T11:05:24.939Z</time></trkpt><trkpt lat="32.98591" lon="10.34116"><ele>261.0</ele><time>2026-04-20T11:05:25.939Z</time></trkpt><trkpt lat="32.9857367" lon="10.3412"><ele>260.0</ele><time>2026-04-20T11:05:26.939Z</time></trkpt><trkpt lat="32.985585" lon="10.3412383"><ele>259.0</ele><time>2026-04-20T11:05:27.939Z</time></trkpt><trkpt lat="32.98545" lon="10.3413017"><ele>259.0</ele><time>2026-04-20T11:05:28.939Z</time></trkpt><trkpt lat="32.9853217" lon="10.34137"><ele>259.0</ele><time>2026-04-20T11:05:29.939Z</time></trkpt><trkpt lat="32.985205" lon="10.34143"><ele>259.0</ele><time>2026-04-20T11:05:30.939Z</time></trkpt><trkpt lat="32.9850933" lon="10.34149"><ele>259.0</ele><time>2026-04-20T11:05:31.939Z</time></trkpt><trkpt lat="32.984975" lon="10.3415517"><ele>259.59999999999997</ele><time>2026-04-20T11:05:32.939Z</time></trkpt><trkpt lat="32.9848617" lon="10.3416183"><ele>260.2</ele><time>2026-04-20T11:05:33.939Z</time></trkpt><trkpt lat="32.9847633" lon="10.3416833"><ele>260.79999999999995</ele><time>2026-04-20T11:05:34.939Z</time></trkpt><trkpt lat="32.9846833" lon="10.34175"><ele>261.4</ele><time>2026-04-20T11:05:35.939Z</time></trkpt><trkpt lat="32.98461" lon="10.3418183"><ele>262.0</ele><time>2026-04-20T11:05:36.939Z</time></trkpt><trkpt lat="32.9845467" lon="10.341885"><ele>262.0</ele><time>2026-04-20T11:05:37.939Z</time></trkpt><trkpt lat="32.9844933" lon="10.341935"><ele>262.0</ele><time>2026-04-20T11:05:38.939Z</time></trkpt><trkpt lat="32.9844083" lon="10.342005"><ele>262.0</ele><time>2026-04-20T11:05:40.939Z</time></trkpt><trkpt lat="32.9843567" lon="10.3420567"><ele>262.0</ele><time>2026-04-20T11:05:42.939Z</time></trkpt><trkpt lat="32.9844033" lon="10.341995"><ele>262.0</ele><time>2026-04-20T11:06:39.939Z</time></trkpt><trkpt lat="32.9843967" lon="10.3418867"><ele>262.0</ele><time>2026-04-20T11:06:41.939Z</time></trkpt><trkpt lat="32.98434" lon="10.3417967"><ele>262.0</ele><time>2026-04-20T11:06:43.939Z</time></trkpt><trkpt lat="32.984285" lon="10.3417083"><ele>262.0</ele><time>2026-04-20T11:06:45.939Z</time></trkpt><trkpt lat="32.9842167" lon="10.341625"><ele>262.0</ele><time>2026-04-20T11:06:47.939Z</time></trkpt><trkpt lat="32.9841583" lon="10.341535"><ele>262.0</ele><time>2026-04-20T11:06:49.939Z</time></trkpt><trkpt lat="32.9841" lon="10.3414533"><ele>262.0</ele><time>2026-04-20T11:06:51.939Z</time></trkpt><trkpt lat="32.9840367" lon="10.34137"><ele>262.16666666666663</ele><time>2026-04-20T11:06:53.939Z</time></trkpt><trkpt lat="32.9839483" lon="10.34127"><ele>262.3333333333333</ele><time>2026-04-20T11:06:55.939Z</time></trkpt><trkpt lat="32.9838983" lon="10.34121"><ele>262.5</ele><time>2026-04-20T11:06:56.939Z</time></trkpt><trkpt lat="32.983845" lon="10.34115"><ele>262.6666666666667</ele><time>2026-04-20T11:06:57.939Z</time></trkpt><trkpt lat="32.9837917" lon="10.341085"><ele>262.83333333333337</ele><time>2026-04-20T11:06:58.94Z</time></trkpt><trkpt lat="32.9837417" lon="10.3410217"><ele>263.0</ele><time>2026-04-20T11:06:59.939Z</time></trkpt><trkpt lat="32.9836733" lon="10.3409733"><ele>263.0</ele><time>2026-04-20T11:07:00.939Z</time></trkpt><trkpt lat="32.9835883" lon="10.3409533"><ele>263.0</ele><time>2026-04-20T11:07:01.939Z</time></trkpt><trkpt lat="32.9834933" lon="10.3409567"><ele>263.0</ele><time>2026-04-20T11:07:02.939Z</time></trkpt><trkpt lat="32.9833867" lon="10.340965"><ele>263.0</ele><time>2026-04-20T11:07:03.939Z</time></trkpt><trkpt lat="32.9832783" lon="10.340975"><ele>263.0</ele><time>2026-04-20T11:07:04.939Z</time></trkpt><trkpt lat="32.983175" lon="10.3409717"><ele>263.0</ele><time>2026-04-20T11:07:05.939Z</time></trkpt><trkpt lat="32.98306" lon="10.3409633"><ele>263.0</ele><time>2026-04-20T11:07:06.939Z</time></trkpt><trkpt lat="32.9829617" lon="10.34093"><ele>263.0</ele><time>2026-04-20T11:07:07.939Z</time></trkpt><trkpt lat="32.982875" lon="10.340875"><ele>263.0</ele><time>2026-04-20T11:07:08.939Z</time></trkpt><trkpt lat="32.9827817" lon="10.3408017"><ele>263.0</ele><time>2026-04-20T11:07:09.939Z</time></trkpt><trkpt lat="32.982695" lon="10.34072"><ele>263.0</ele><time>2026-04-20T11:07:10.939Z</time></trkpt><trkpt lat="32.9826017" lon="10.3406367"><ele>263.0</ele><time>2026-04-20T11:07:11.939Z</time></trkpt><trkpt lat="32.9825117" lon="10.34056"><ele>263.0</ele><time>2026-04-20T11:07:12.939Z</time></trkpt><trkpt lat="32.982415" lon="10.34048"><ele>263.0</ele><time>2026-04-20T11:07:13.939Z</time></trkpt><trkpt lat="32.982315" lon="10.340395"><ele>262.75</ele><time>2026-04-20T11:07:14.939Z</time></trkpt><trkpt lat="32.982215" lon="10.34031"><ele>262.5</ele><time>2026-04-20T11:07:15.939Z</time></trkpt><trkpt lat="32.9821083" lon="10.3402217"><ele>262.25</ele><time>2026-04-20T11:07:16.939Z</time></trkpt><trkpt lat="32.9820083" lon="10.340135"><ele>262.0</ele><time>2026-04-20T11:07:17.939Z</time></trkpt><trkpt lat="32.9819083" lon="10.3400533"><ele>262.0</ele><time>2026-04-20T11:07:18.939Z</time></trkpt><trkpt lat="32.9818017" lon="10.339985"><ele>262.0</ele><time>2026-04-20T11:07:19.939Z</time></trkpt><trkpt lat="32.9817133" lon="10.339925"><ele>262.0</ele><time>2026-04-20T11:07:20.939Z</time></trkpt><trkpt lat="32.98163" lon="10.3398583"><ele>262.0</ele><time>2026-04-20T11:07:21.939Z</time></trkpt><trkpt lat="32.9815617" lon="10.33977"><ele>262.0</ele><time>2026-04-20T11:07:22.939Z</time></trkpt><trkpt lat="32.981505" lon="10.3396533"><ele>262.5</ele><time>2026-04-20T11:07:23.939Z</time></trkpt><trkpt lat="32.9814683" lon="10.339525"><ele>263.0</ele><time>2026-04-20T11:07:24.939Z</time></trkpt><trkpt lat="32.9814367" lon="10.3393917"><ele>263.5</ele><time>2026-04-20T11:07:25.939Z</time></trkpt><trkpt lat="32.9813967" lon="10.3392567"><ele>264.0</ele><time>2026-04-20T11:07:26.939Z</time></trkpt><trkpt lat="32.981345" lon="10.3391183"><ele>264.0</ele><time>2026-04-20T11:07:27.939Z</time></trkpt><trkpt lat="32.9812833" lon="10.33899"><ele>264.0</ele><time>2026-04-20T11:07:28.939Z</time></trkpt><trkpt lat="32.98121" lon="10.3388717"><ele>264.0</ele><time>2026-04-20T11:07:29.939Z</time></trkpt><trkpt lat="32.981125" lon="10.338755"><ele>264.0</ele><time>2026-04-20T11:07:30.939Z</time></trkpt><trkpt lat="32.9810467" lon="10.338635"><ele>264.0</ele><time>2026-04-20T11:07:31.939Z</time></trkpt><trkpt lat="32.9809717" lon="10.3385133"><ele>264.0</ele><time>2026-04-20T11:07:32.939Z</time></trkpt><trkpt lat="32.9809017" lon="10.3383867"><ele>264.0</ele><time>2026-04-20T11:07:33.939Z</time></trkpt><trkpt lat="32.9808367" lon="10.3382633"><ele>264.0</ele><time>2026-04-20T11:07:34.939Z</time></trkpt><trkpt lat="32.980775" lon="10.3381367"><ele>263.5</ele><time>2026-04-20T11:07:35.939Z</time></trkpt><trkpt lat="32.9807117" lon="10.338015"><ele>263.0</ele><time>2026-04-20T11:07:36.939Z</time></trkpt><trkpt lat="32.9806433" lon="10.3379017"><ele>262.5</ele><time>2026-04-20T11:07:37.939Z</time></trkpt><trkpt lat="32.9805717" lon="10.3377867"><ele>262.0</ele><time>2026-04-20T11:07:38.939Z</time></trkpt><trkpt lat="32.980495" lon="10.33767"><ele>262.0</ele><time>2026-04-20T11:07:39.939Z</time></trkpt><trkpt lat="32.98042" lon="10.337545"><ele>262.0</ele><time>2026-04-20T11:07:40.939Z</time></trkpt><trkpt lat="32.9803483" lon="10.3374167"><ele>262.0</ele><time>2026-04-20T11:07:41.939Z</time></trkpt><trkpt lat="32.9802783" lon="10.3372867"><ele>262.0</ele><time>2026-04-20T11:07:42.939Z</time></trkpt><trkpt lat="32.9802" lon="10.33717"><ele>262.25</ele><time>2026-04-20T11:07:43.939Z</time></trkpt><trkpt lat="32.9801133" lon="10.3370467"><ele>262.5</ele><time>2026-04-20T11:07:44.939Z</time></trkpt><trkpt lat="32.9800267" lon="10.3369383"><ele>262.75</ele><time>2026-04-20T11:07:45.939Z</time></trkpt><trkpt lat="32.9799417" lon="10.33682"><ele>263.0</ele><time>2026-04-20T11:07:46.939Z</time></trkpt><trkpt lat="32.9798583" lon="10.3367067"><ele>263.0</ele><time>2026-04-20T11:07:47.939Z</time></trkpt><trkpt lat="32.979775" lon="10.336595"><ele>263.0</ele><time>2026-04-20T11:07:48.939Z</time></trkpt><trkpt lat="32.9796933" lon="10.3364817"><ele>263.0</ele><time>2026-04-20T11:07:49.939Z</time></trkpt><trkpt lat="32.97961" lon="10.336365"><ele>263.0</ele><time>2026-04-20T11:07:50.939Z</time></trkpt><trkpt lat="32.97953" lon="10.3362417"><ele>262.75</ele><time>2026-04-20T11:07:51.939Z</time></trkpt><trkpt lat="32.9794567" lon="10.3361083"><ele>262.5</ele><time>2026-04-20T11:07:52.939Z</time></trkpt><trkpt lat="32.9793867" lon="10.3359767"><ele>262.25</ele><time>2026-04-20T11:07:53.939Z</time></trkpt><trkpt lat="32.9793117" lon="10.3358517"><ele>262.0</ele><time>2026-04-20T11:07:54.939Z</time></trkpt><trkpt lat="32.9792383" lon="10.3357267"><ele>262.75</ele><time>2026-04-20T11:07:55.939Z</time></trkpt><trkpt lat="32.9791533" lon="10.3356"><ele>263.5</ele><time>2026-04-20T11:07:56.939Z</time></trkpt><trkpt lat="32.97908" lon="10.33547"><ele>264.25</ele><time>2026-04-20T11:07:57.939Z</time></trkpt><trkpt lat="32.9790033" lon="10.3353417"><ele>265.0</ele><time>2026-04-20T11:07:58.939Z</time></trkpt><trkpt lat="32.9789283" lon="10.3352083"><ele>265.0</ele><time>2026-04-20T11:07:59.939Z</time></trkpt><trkpt lat="32.97885" lon="10.3350783"><ele>265.0</ele><time>2026-04-20T11:08:00.939Z</time></trkpt><trkpt lat="32.9787717" lon="10.3349467"><ele>265.0</ele><time>2026-04-20T11:08:01.939Z</time></trkpt><trkpt lat="32.9786883" lon="10.3348267"><ele>265.0</ele><time>2026-04-20T11:08:02.939Z</time></trkpt><trkpt lat="32.978605" lon="10.3347067"><ele>265.25</ele><time>2026-04-20T11:08:03.939Z</time></trkpt><trkpt lat="32.9785233" lon="10.33458"><ele>265.5</ele><time>2026-04-20T11:08:04.939Z</time></trkpt><trkpt lat="32.9784433" lon="10.3344533"><ele>265.75</ele><time>2026-04-20T11:08:05.939Z</time></trkpt><trkpt lat="32.9783567" lon="10.3343333"><ele>266.0</ele><time>2026-04-20T11:08:06.939Z</time></trkpt><trkpt lat="32.9782717" lon="10.334195"><ele>266.25</ele><time>2026-04-20T11:08:07.939Z</time></trkpt><trkpt lat="32.97819" lon="10.3340567"><ele>266.5</ele><time>2026-04-20T11:08:08.939Z</time></trkpt><trkpt lat="32.9781133" lon="10.3339167"><ele>266.75</ele><time>2026-04-20T11:08:09.939Z</time></trkpt><trkpt lat="32.9780433" lon="10.333775"><ele>267.0</ele><time>2026-04-20T11:08:10.939Z</time></trkpt><trkpt lat="32.97797" lon="10.33363"><ele>267.5</ele><time>2026-04-20T11:08:11.939Z</time></trkpt><trkpt lat="32.977895" lon="10.3334933"><ele>268.0</ele><time>2026-04-20T11:08:12.939Z</time></trkpt><trkpt lat="32.9778167" lon="10.3333517"><ele>268.5</ele><time>2026-04-20T11:08:13.939Z</time></trkpt><trkpt lat="32.97773" lon="10.33322"><ele>269.0</ele><time>2026-04-20T11:08:14.939Z</time></trkpt><trkpt lat="32.977645" lon="10.3330783"><ele>268.75</ele><time>2026-04-20T11:08:15.939Z</time></trkpt><trkpt lat="32.9775617" lon="10.33294"><ele>268.5</ele><time>2026-04-20T11:08:16.939Z</time></trkpt><trkpt lat="32.9774833" lon="10.3328133"><ele>268.25</ele><time>2026-04-20T11:08:17.939Z</time></trkpt><trkpt lat="32.9774133" lon="10.33269"><ele>268.0</ele><time>2026-04-20T11:08:18.939Z</time></trkpt><trkpt lat="32.9773333" lon="10.33257"><ele>268.0</ele><time>2026-04-20T11:08:19.939Z</time></trkpt><trkpt lat="32.9772617" lon="10.33245"><ele>268.0</ele><time>2026-04-20T11:08:20.939Z</time></trkpt><trkpt lat="32.9771933" lon="10.3323267"><ele>268.0</ele><time>2026-04-20T11:08:21.939Z</time></trkpt><trkpt lat="32.9771133" lon="10.3322083"><ele>268.0</ele><time>2026-04-20T11:08:22.939Z</time></trkpt><trkpt lat="32.9770283" lon="10.3320917"><ele>267.75</ele><time>2026-04-20T11:08:23.939Z</time></trkpt><trkpt lat="32.9769367" lon="10.3319717"><ele>267.5</ele><time>2026-04-20T11:08:24.939Z</time></trkpt><trkpt lat="32.9768383" lon="10.331855"><ele>267.25</ele><time>2026-04-20T11:08:25.939Z</time></trkpt><trkpt lat="32.976735" lon="10.3317417"><ele>267.0</ele><time>2026-04-20T11:08:26.939Z</time></trkpt><trkpt lat="32.9766367" lon="10.3316117"><ele>267.75</ele><time>2026-04-20T11:08:27.939Z</time></trkpt><trkpt lat="32.97654" lon="10.3314933"><ele>268.5</ele><time>2026-04-20T11:08:28.939Z</time></trkpt><trkpt lat="32.9764467" lon="10.3313683"><ele>269.25</ele><time>2026-04-20T11:08:29.939Z</time></trkpt><trkpt lat="32.9763467" lon="10.3312417"><ele>270.0</ele><time>2026-04-20T11:08:30.939Z</time></trkpt><trkpt lat="32.97627" lon="10.33111"><ele>270.0</ele><time>2026-04-20T11:08:31.939Z</time></trkpt><trkpt lat="32.9762117" lon="10.3309817"><ele>270.0</ele><time>2026-04-20T11:08:32.939Z</time></trkpt><trkpt lat="32.976175" lon="10.3308467"><ele>270.0</ele><time>2026-04-20T11:08:33.938Z</time></trkpt><trkpt lat="32.9761483" lon="10.3307083"><ele>270.0</ele><time>2026-04-20T11:08:34.938Z</time></trkpt><trkpt lat="32.9761267" lon="10.3305517"><ele>269.5</ele><time>2026-04-20T11:08:35.938Z</time></trkpt><trkpt lat="32.9761033" lon="10.3304"><ele>269.0</ele><time>2026-04-20T11:08:36.938Z</time></trkpt><trkpt lat="32.976075" lon="10.3302517"><ele>268.5</ele><time>2026-04-20T11:08:37.938Z</time></trkpt><trkpt lat="32.9760333" lon="10.33011"><ele>268.0</ele><time>2026-04-20T11:08:38.938Z</time></trkpt><trkpt lat="32.97599" lon="10.3299633"><ele>268.0</ele><time>2026-04-20T11:08:39.938Z</time></trkpt><trkpt lat="32.9759367" lon="10.3298283"><ele>268.0</ele><time>2026-04-20T11:08:40.938Z</time></trkpt><trkpt lat="32.9758767" lon="10.3296833"><ele>268.0</ele><time>2026-04-20T11:08:41.938Z</time></trkpt><trkpt lat="32.9758117" lon="10.329535"><ele>268.0</ele><time>2026-04-20T11:08:42.938Z</time></trkpt><trkpt lat="32.9757583" lon="10.329395"><ele>269.25</ele><time>2026-04-20T11:08:43.938Z</time></trkpt><trkpt lat="32.9757033" lon="10.3292633"><ele>270.5</ele><time>2026-04-20T11:08:44.938Z</time></trkpt><trkpt lat="32.9756367" lon="10.3291467"><ele>271.75</ele><time>2026-04-20T11:08:45.938Z</time></trkpt><trkpt lat="32.9755567" lon="10.3290467"><ele>273.0</ele><time>2026-04-20T11:08:46.938Z</time></trkpt><trkpt lat="32.9754667" lon="10.3289517"><ele>273.0</ele><time>2026-04-20T11:08:47.938Z</time></trkpt><trkpt lat="32.9753733" lon="10.3288533"><ele>273.0</ele><time>2026-04-20T11:08:48.938Z</time></trkpt><trkpt lat="32.97528" lon="10.3287533"><ele>273.0</ele><time>2026-04-20T11:08:49.938Z</time></trkpt><trkpt lat="32.975195" lon="10.3286567"><ele>273.0</ele><time>2026-04-20T11:08:50.938Z</time></trkpt><trkpt lat="32.9751433" lon="10.32856"><ele>273.0</ele><time>2026-04-20T11:08:51.938Z</time></trkpt><trkpt lat="32.9751083" lon="10.3284667"><ele>273.0</ele><time>2026-04-20T11:08:52.938Z</time></trkpt><trkpt lat="32.9750933" lon="10.328355"><ele>273.0</ele><time>2026-04-20T11:08:53.938Z</time></trkpt><trkpt lat="32.9751017" lon="10.3282267"><ele>273.0</ele><time>2026-04-20T11:08:54.938Z</time></trkpt><trkpt lat="32.9751133" lon="10.328095"><ele>273.0</ele><time>2026-04-20T11:08:55.938Z</time></trkpt><trkpt lat="32.97514" lon="10.3279583"><ele>273.0</ele><time>2026-04-20T11:08:56.938Z</time></trkpt><trkpt lat="32.9751733" lon="10.32782"><ele>273.0</ele><time>2026-04-20T11:08:57.938Z</time></trkpt><trkpt lat="32.9752033" lon="10.3276817"><ele>273.0</ele><time>2026-04-20T11:08:58.939Z</time></trkpt><trkpt lat="32.9752233" lon="10.3275367"><ele>273.0</ele><time>2026-04-20T11:08:59.938Z</time></trkpt><trkpt lat="32.9752433" lon="10.3273817"><ele>273.0</ele><time>2026-04-20T11:09:00.938Z</time></trkpt><trkpt lat="32.97525" lon="10.3272233"><ele>273.0</ele><time>2026-04-20T11:09:01.938Z</time></trkpt><trkpt lat="32.975255" lon="10.3270683"><ele>273.0</ele><time>2026-04-20T11:09:02.938Z</time></trkpt><trkpt lat="32.9752483" lon="10.3269233"><ele>273.0</ele><time>2026-04-20T11:09:03.938Z</time></trkpt><trkpt lat="32.97522" lon="10.3267917"><ele>273.0</ele><time>2026-04-20T11:09:04.938Z</time></trkpt><trkpt lat="32.9751783" lon="10.326665"><ele>273.0</ele><time>2026-04-20T11:09:05.938Z</time></trkpt><trkpt lat="32.9751367" lon="10.3265517"><ele>273.0</ele><time>2026-04-20T11:09:06.938Z</time></trkpt><trkpt lat="32.9750883" lon="10.3264583"><ele>273.0</ele><time>2026-04-20T11:09:07.938Z</time></trkpt><trkpt lat="32.975045" lon="10.3263867"><ele>273.0</ele><time>2026-04-20T11:09:08.938Z</time></trkpt><trkpt lat="32.9749783" lon="10.32632"><ele>273.4</ele><time>2026-04-20T11:09:09.938Z</time></trkpt><trkpt lat="32.9749033" lon="10.3262583"><ele>273.8</ele><time>2026-04-20T11:09:10.938Z</time></trkpt><trkpt lat="32.97482" lon="10.3262017"><ele>274.2</ele><time>2026-04-20T11:09:11.938Z</time></trkpt><trkpt lat="32.9747183" lon="10.3261633"><ele>274.6</ele><time>2026-04-20T11:09:12.938Z</time></trkpt><trkpt lat="32.974615" lon="10.32612"><ele>275.0</ele><time>2026-04-20T11:09:13.938Z</time></trkpt><trkpt lat="32.9745233" lon="10.3260683"><ele>275.0</ele><time>2026-04-20T11:09:14.938Z</time></trkpt><trkpt lat="32.9744433" lon="10.32601"><ele>275.0</ele><time>2026-04-20T11:09:15.938Z</time></trkpt><trkpt lat="32.97438" lon="10.3259567"><ele>275.0</ele><time>2026-04-20T11:09:16.938Z</time></trkpt><trkpt lat="32.9743067" lon="10.32593"><ele>275.0</ele><time>2026-04-20T11:09:17.938Z</time></trkpt><trkpt lat="32.9742283" lon="10.3259267"><ele>275.0</ele><time>2026-04-20T11:09:18.938Z</time></trkpt><trkpt lat="32.974155" lon="10.325935"><ele>275.0</ele><time>2026-04-20T11:09:19.938Z</time></trkpt><trkpt lat="32.9740767" lon="10.3259717"><ele>275.0</ele><time>2026-04-20T11:09:20.938Z</time></trkpt><trkpt lat="32.974005" lon="10.32601"><ele>275.0</ele><time>2026-04-20T11:09:21.938Z</time></trkpt><trkpt lat="32.9739333" lon="10.3260433"><ele>275.0</ele><time>2026-04-20T11:09:22.938Z</time></trkpt><trkpt lat="32.973855" lon="10.3260767"><ele>275.0</ele><time>2026-04-20T11:09:23.938Z</time></trkpt><trkpt lat="32.9737733" lon="10.3260933"><ele>275.0</ele><time>2026-04-20T11:09:24.938Z</time></trkpt><trkpt lat="32.9736967" lon="10.3261"><ele>275.0</ele><time>2026-04-20T11:09:25.938Z</time></trkpt><trkpt lat="32.9736117" lon="10.3260833"><ele>275.0</ele><time>2026-04-20T11:09:26.938Z</time></trkpt><trkpt lat="32.9735233" lon="10.3260533"><ele>275.0</ele><time>2026-04-20T11:09:27.938Z</time></trkpt><trkpt lat="32.9734383" lon="10.32603"><ele>275.0</ele><time>2026-04-20T11:09:28.938Z</time></trkpt><trkpt lat="32.97335" lon="10.326005"><ele>275.0</ele><time>2026-04-20T11:09:29.938Z</time></trkpt><trkpt lat="32.9732667" lon="10.325985"><ele>275.0</ele><time>2026-04-20T11:09:30.938Z</time></trkpt><trkpt lat="32.973175" lon="10.3259583"><ele>275.0</ele><time>2026-04-20T11:09:31.938Z</time></trkpt><trkpt lat="32.973085" lon="10.32593"><ele>275.0</ele><time>2026-04-20T11:09:32.938Z</time></trkpt><trkpt lat="32.9729983" lon="10.3259"><ele>275.0</ele><time>2026-04-20T11:09:33.938Z</time></trkpt><trkpt lat="32.97293" lon="10.32586"><ele>275.0</ele><time>2026-04-20T11:09:34.938Z</time></trkpt><trkpt lat="32.9728883" lon="10.3258"><ele>275.0</ele><time>2026-04-20T11:09:35.938Z</time></trkpt><trkpt lat="32.9728517" lon="10.3256567"><ele>275.0</ele><time>2026-04-20T11:09:37.938Z</time></trkpt><trkpt lat="32.97283" lon="10.3255783"><ele>275.0</ele><time>2026-04-20T11:09:38.938Z</time></trkpt><trkpt lat="32.9728067" lon="10.3255"><ele>275.33333333333337</ele><time>2026-04-20T11:09:39.938Z</time></trkpt><trkpt lat="32.9727683" lon="10.3254267"><ele>275.6666666666667</ele><time>2026-04-20T11:09:40.938Z</time></trkpt><trkpt lat="32.9727217" lon="10.3253517"><ele>276.0</ele><time>2026-04-20T11:09:41.938Z</time></trkpt><trkpt lat="32.97267" lon="10.3252683"><ele>276.3333333333333</ele><time>2026-04-20T11:09:42.938Z</time></trkpt><trkpt lat="32.9726167" lon="10.3251783"><ele>276.66666666666663</ele><time>2026-04-20T11:09:43.938Z</time></trkpt><trkpt lat="32.9725567" lon="10.3250883"><ele>277.0</ele><time>2026-04-20T11:09:44.938Z</time></trkpt><trkpt lat="32.9725017" lon="10.3249933"><ele>277.0</ele><time>2026-04-20T11:09:45.938Z</time></trkpt><trkpt lat="32.972445" lon="10.324895"><ele>277.0</ele><time>2026-04-20T11:09:46.938Z</time></trkpt><trkpt lat="32.97239" lon="10.3247983"><ele>277.0</ele><time>2026-04-20T11:09:47.938Z</time></trkpt><trkpt lat="32.9723383" lon="10.3247"><ele>277.0</ele><time>2026-04-20T11:09:48.938Z</time></trkpt><trkpt lat="32.9722867" lon="10.3246117"><ele>277.0</ele><time>2026-04-20T11:09:49.938Z</time></trkpt><trkpt lat="32.972235" lon="10.324545"><ele>277.0</ele><time>2026-04-20T11:09:50.938Z</time></trkpt><trkpt lat="32.9721583" lon="10.324465"><ele>277.0</ele><time>2026-04-20T11:09:52.938Z</time></trkpt><trkpt lat="32.972095" lon="10.3244833"><ele>277.0</ele><time>2026-04-20T11:09:54.938Z</time></trkpt><trkpt lat="32.9720433" lon="10.324545"><ele>277.0</ele><time>2026-04-20T11:09:56.938Z</time></trkpt><trkpt lat="32.9719883" lon="10.324625"><ele>277.0</ele><time>2026-04-20T11:09:58.938Z</time></trkpt><trkpt lat="32.9719183" lon="10.3247133"><ele>277.0</ele><time>2026-04-20T11:10:00.938Z</time></trkpt><trkpt lat="32.9718483" lon="10.3247967"><ele>277.0</ele><time>2026-04-20T11:10:02.938Z</time></trkpt><trkpt lat="32.9717467" lon="10.3248567"><ele>277.0</ele><time>2026-04-20T11:10:04.938Z</time></trkpt><trkpt lat="32.971635" lon="10.32486"><ele>277.0</ele><time>2026-04-20T11:10:06.938Z</time></trkpt><trkpt lat="32.9715067" lon="10.324815"><ele>277.0</ele><time>2026-04-20T11:10:08.938Z</time></trkpt><trkpt lat="32.9714317" lon="10.324775"><ele>277.0</ele><time>2026-04-20T11:10:09.938Z</time></trkpt><trkpt lat="32.9713517" lon="10.324715"><ele>277.0</ele><time>2026-04-20T11:10:10.938Z</time></trkpt><trkpt lat="32.97126" lon="10.32465"><ele>277.0</ele><time>2026-04-20T11:10:11.938Z</time></trkpt><trkpt lat="32.9711583" lon="10.3245817"><ele>277.0</ele><time>2026-04-20T11:10:12.938Z</time></trkpt><trkpt lat="32.9710517" lon="10.32452"><ele>277.0</ele><time>2026-04-20T11:10:13.938Z</time></trkpt><trkpt lat="32.970935" lon="10.324455"><ele>277.0</ele><time>2026-04-20T11:10:14.938Z</time></trkpt><trkpt lat="32.970815" lon="10.3243917"><ele>277.0</ele><time>2026-04-20T11:10:15.938Z</time></trkpt><trkpt lat="32.9706983" lon="10.3243333"><ele>277.0</ele><time>2026-04-20T11:10:16.938Z</time></trkpt><trkpt lat="32.9705833" lon="10.3242667"><ele>277.0</ele><time>2026-04-20T11:10:17.938Z</time></trkpt><trkpt lat="32.9704733" lon="10.3242033"><ele>277.0</ele><time>2026-04-20T11:10:18.938Z</time></trkpt><trkpt lat="32.9703583" lon="10.32416"><ele>277.0</ele><time>2026-04-20T11:10:19.938Z</time></trkpt><trkpt lat="32.9702683" lon="10.3241333"><ele>277.0</ele><time>2026-04-20T11:10:20.938Z</time></trkpt><trkpt lat="32.9701833" lon="10.324105"><ele>277.0</ele><time>2026-04-20T11:10:21.938Z</time></trkpt><trkpt lat="32.9701017" lon="10.3240767"><ele>277.0</ele><time>2026-04-20T11:10:22.938Z</time></trkpt><trkpt lat="32.9700183" lon="10.324025"><ele>277.2</ele><time>2026-04-20T11:10:23.938Z</time></trkpt><trkpt lat="32.9699333" lon="10.3239717"><ele>277.4</ele><time>2026-04-20T11:10:24.938Z</time></trkpt><trkpt lat="32.9698417" lon="10.3239167"><ele>277.6</ele><time>2026-04-20T11:10:25.938Z</time></trkpt><trkpt lat="32.9697583" lon="10.3238667"><ele>277.8</ele><time>2026-04-20T11:10:26.938Z</time></trkpt><trkpt lat="32.9696717" lon="10.3237917"><ele>278.0</ele><time>2026-04-20T11:10:27.938Z</time></trkpt><trkpt lat="32.969595" lon="10.3237017"><ele>278.4</ele><time>2026-04-20T11:10:28.938Z</time></trkpt><trkpt lat="32.9695217" lon="10.3236083"><ele>278.8</ele><time>2026-04-20T11:10:29.938Z</time></trkpt><trkpt lat="32.9694483" lon="10.32351"><ele>279.2</ele><time>2026-04-20T11:10:30.938Z</time></trkpt><trkpt lat="32.96938" lon="10.3234117"><ele>279.6</ele><time>2026-04-20T11:10:31.938Z</time></trkpt><trkpt lat="32.96931" lon="10.3233333"><ele>280.0</ele><time>2026-04-20T11:10:32.938Z</time></trkpt><trkpt lat="32.9692417" lon="10.3232733"><ele>280.0</ele><time>2026-04-20T11:10:33.938Z</time></trkpt><trkpt lat="32.96916" lon="10.323195"><ele>280.0</ele><time>2026-04-20T11:10:34.938Z</time></trkpt><trkpt lat="32.9690767" lon="10.323115"><ele>280.0</ele><time>2026-04-20T11:10:35.938Z</time></trkpt><trkpt lat="32.9689917" lon="10.3230333"><ele>280.0</ele><time>2026-04-20T11:10:36.938Z</time></trkpt><trkpt lat="32.9689167" lon="10.3229433"><ele>280.0</ele><time>2026-04-20T11:10:37.938Z</time></trkpt><trkpt lat="32.9688417" lon="10.3228517"><ele>280.2</ele><time>2026-04-20T11:10:38.938Z</time></trkpt><trkpt lat="32.968765" lon="10.3227667"><ele>280.4</ele><time>2026-04-20T11:10:39.938Z</time></trkpt><trkpt lat="32.9686833" lon="10.3226867"><ele>280.6</ele><time>2026-04-20T11:10:40.938Z</time></trkpt><trkpt lat="32.9686" lon="10.3226133"><ele>280.8</ele><time>2026-04-20T11:10:41.938Z</time></trkpt><trkpt lat="32.968515" lon="10.3225333"><ele>281.0</ele><time>2026-04-20T11:10:42.938Z</time></trkpt><trkpt lat="32.9684333" lon="10.3224467"><ele>281.0</ele><time>2026-04-20T11:10:43.938Z</time></trkpt><trkpt lat="32.968345" lon="10.32236"><ele>281.0</ele><time>2026-04-20T11:10:44.938Z</time></trkpt><trkpt lat="32.96825" lon="10.3222817"><ele>281.0</ele><time>2026-04-20T11:10:45.938Z</time></trkpt><trkpt lat="32.9681533" lon="10.3222067"><ele>281.0</ele><time>2026-04-20T11:10:46.938Z</time></trkpt><trkpt lat="32.968055" lon="10.3221367"><ele>281.6</ele><time>2026-04-20T11:10:47.938Z</time></trkpt><trkpt lat="32.96796" lon="10.32206"><ele>282.20000000000005</ele><time>2026-04-20T11:10:48.938Z</time></trkpt><trkpt lat="32.96787" lon="10.321985"><ele>282.79999999999995</ele><time>2026-04-20T11:10:49.938Z</time></trkpt><trkpt lat="32.9677817" lon="10.3219117"><ele>283.4</ele><time>2026-04-20T11:10:50.938Z</time></trkpt><trkpt lat="32.9677033" lon="10.32184"><ele>284.0</ele><time>2026-04-20T11:10:51.938Z</time></trkpt><trkpt lat="32.9676467" lon="10.3217617"><ele>284.0</ele><time>2026-04-20T11:10:52.938Z</time></trkpt><trkpt lat="32.9676167" lon="10.3216683"><ele>284.0</ele><time>2026-04-20T11:10:53.938Z</time></trkpt><trkpt lat="32.967595" lon="10.32157"><ele>284.0</ele><time>2026-04-20T11:10:54.938Z</time></trkpt><trkpt lat="32.96759" lon="10.321465"><ele>284.0</ele><time>2026-04-20T11:10:55.938Z</time></trkpt><trkpt lat="32.9675933" lon="10.3213583"><ele>284.0</ele><time>2026-04-20T11:10:56.938Z</time></trkpt><trkpt lat="32.9675933" lon="10.32126"><ele>284.0</ele><time>2026-04-20T11:10:57.938Z</time></trkpt><trkpt lat="32.9675717" lon="10.3211817"><ele>284.0</ele><time>2026-04-20T11:10:58.938Z</time></trkpt><trkpt lat="32.967535" lon="10.3211033"><ele>284.0</ele><time>2026-04-20T11:10:59.938Z</time></trkpt><trkpt lat="32.9674817" lon="10.3210267"><ele>284.0</ele><time>2026-04-20T11:11:00.938Z</time></trkpt><trkpt lat="32.9674183" lon="10.320945"><ele>284.0</ele><time>2026-04-20T11:11:01.938Z</time></trkpt><trkpt lat="32.967335" lon="10.32086"><ele>284.0</ele><time>2026-04-20T11:11:02.938Z</time></trkpt><trkpt lat="32.967245" lon="10.3207733"><ele>284.0</ele><time>2026-04-20T11:11:03.938Z</time></trkpt><trkpt lat="32.9671467" lon="10.3206867"><ele>284.0</ele><time>2026-04-20T11:11:04.938Z</time></trkpt><trkpt lat="32.9670517" lon="10.32061"><ele>284.0</ele><time>2026-04-20T11:11:05.938Z</time></trkpt><trkpt lat="32.9669483" lon="10.320545"><ele>284.0</ele><time>2026-04-20T11:11:06.938Z</time></trkpt><trkpt lat="32.9668467" lon="10.3204783"><ele>283.75</ele><time>2026-04-20T11:11:07.938Z</time></trkpt><trkpt lat="32.9667517" lon="10.3203983"><ele>283.5</ele><time>2026-04-20T11:11:08.938Z</time></trkpt><trkpt lat="32.9666583" lon="10.3203"><ele>283.25</ele><time>2026-04-20T11:11:09.938Z</time></trkpt><trkpt lat="32.9665633" lon="10.3201933"><ele>283.0</ele><time>2026-04-20T11:11:10.938Z</time></trkpt><trkpt lat="32.966475" lon="10.32008"><ele>283.0</ele><time>2026-04-20T11:11:11.938Z</time></trkpt><trkpt lat="32.966385" lon="10.3199767"><ele>283.0</ele><time>2026-04-20T11:11:12.938Z</time></trkpt><trkpt lat="32.9663033" lon="10.3198667"><ele>283.0</ele><time>2026-04-20T11:11:13.938Z</time></trkpt><trkpt lat="32.966215" lon="10.3197583"><ele>283.0</ele><time>2026-04-20T11:11:14.938Z</time></trkpt><trkpt lat="32.9661217" lon="10.3196533"><ele>283.25</ele><time>2026-04-20T11:11:15.938Z</time></trkpt><trkpt lat="32.966025" lon="10.319555"><ele>283.5</ele><time>2026-04-20T11:11:16.938Z</time></trkpt><trkpt lat="32.96592" lon="10.3194533"><ele>283.75</ele><time>2026-04-20T11:11:17.938Z</time></trkpt><trkpt lat="32.965815" lon="10.3193417"><ele>284.0</ele><time>2026-04-20T11:11:18.938Z</time></trkpt><trkpt lat="32.9657067" lon="10.319225"><ele>284.0</ele><time>2026-04-20T11:11:19.938Z</time></trkpt><trkpt lat="32.9656" lon="10.3191367"><ele>284.0</ele><time>2026-04-20T11:11:20.938Z</time></trkpt><trkpt lat="32.965495" lon="10.3190583"><ele>284.0</ele><time>2026-04-20T11:11:21.938Z</time></trkpt><trkpt lat="32.9653917" lon="10.3189783"><ele>284.0</ele><time>2026-04-20T11:11:22.938Z</time></trkpt><trkpt lat="32.9653033" lon="10.3188767"><ele>284.5</ele><time>2026-04-20T11:11:23.938Z</time></trkpt><trkpt lat="32.9652283" lon="10.3187567"><ele>285.0</ele><time>2026-04-20T11:11:24.938Z</time></trkpt><trkpt lat="32.9651633" lon="10.3186267"><ele>285.5</ele><time>2026-04-20T11:11:25.938Z</time></trkpt><trkpt lat="32.9651033" lon="10.3184967"><ele>286.0</ele><time>2026-04-20T11:11:26.938Z</time></trkpt><trkpt lat="32.9650367" lon="10.3183833"><ele>286.0</ele><time>2026-04-20T11:11:27.938Z</time></trkpt><trkpt lat="32.9649533" lon="10.31828"><ele>286.0</ele><time>2026-04-20T11:11:28.938Z</time></trkpt><trkpt lat="32.964865" lon="10.318175"><ele>286.0</ele><time>2026-04-20T11:11:29.938Z</time></trkpt><trkpt lat="32.9647733" lon="10.3180833"><ele>286.0</ele><time>2026-04-20T11:11:30.938Z</time></trkpt><trkpt lat="32.9646717" lon="10.3179883"><ele>285.5</ele><time>2026-04-20T11:11:31.938Z</time></trkpt><trkpt lat="32.9645717" lon="10.3178933"><ele>285.0</ele><time>2026-04-20T11:11:32.938Z</time></trkpt><trkpt lat="32.9644617" lon="10.3177983"><ele>284.5</ele><time>2026-04-20T11:11:33.938Z</time></trkpt><trkpt lat="32.9643533" lon="10.3176933"><ele>284.0</ele><time>2026-04-20T11:11:34.938Z</time></trkpt><trkpt lat="32.9642417" lon="10.3175817"><ele>284.6666666666667</ele><time>2026-04-20T11:11:35.938Z</time></trkpt><trkpt lat="32.9641267" lon="10.31747"><ele>285.3333333333333</ele><time>2026-04-20T11:11:36.938Z</time></trkpt><trkpt lat="32.9640133" lon="10.31735"><ele>286.0</ele><time>2026-04-20T11:11:37.938Z</time></trkpt><trkpt lat="32.96391" lon="10.31722"><ele>286.3333333333333</ele><time>2026-04-20T11:11:38.938Z</time></trkpt><trkpt lat="32.9638117" lon="10.317075"><ele>286.6666666666667</ele><time>2026-04-20T11:11:39.938Z</time></trkpt><trkpt lat="32.9637167" lon="10.31693"><ele>287.0</ele><time>2026-04-20T11:11:40.938Z</time></trkpt><trkpt lat="32.9636267" lon="10.3168"><ele>287.0</ele><time>2026-04-20T11:11:41.938Z</time></trkpt><trkpt lat="32.9635183" lon="10.3166883"><ele>287.0</ele><time>2026-04-20T11:11:42.938Z</time></trkpt><trkpt lat="32.9634067" lon="10.3165717"><ele>287.0</ele><time>2026-04-20T11:11:43.938Z</time></trkpt><trkpt lat="32.9633167" lon="10.3164683"><ele>287.0</ele><time>2026-04-20T11:11:44.938Z</time></trkpt><trkpt lat="32.9632317" lon="10.31637"><ele>287.1666666666667</ele><time>2026-04-20T11:11:45.938Z</time></trkpt><trkpt lat="32.9631733" lon="10.316285"><ele>287.33333333333337</ele><time>2026-04-20T11:11:46.938Z</time></trkpt><trkpt lat="32.9631317" lon="10.3162167"><ele>287.5</ele><time>2026-04-20T11:11:47.938Z</time></trkpt><trkpt lat="32.9630717" lon="10.3161167"><ele>287.6666666666667</ele><time>2026-04-20T11:11:49.938Z</time></trkpt><trkpt lat="32.9630233" lon="10.3160683"><ele>287.8333333333333</ele><time>2026-04-20T11:11:51.938Z</time></trkpt><trkpt lat="32.96296" lon="10.3160617"><ele>288.0</ele><time>2026-04-20T11:11:57.938Z</time></trkpt><trkpt lat="32.9628817" lon="10.3160967"><ele>288.0</ele><time>2026-04-20T11:11:59.938Z</time></trkpt><trkpt lat="32.962785" lon="10.3161483"><ele>288.0</ele><time>2026-04-20T11:12:01.938Z</time></trkpt><trkpt lat="32.96272" lon="10.3161383"><ele>288.0</ele><time>2026-04-20T11:12:02.938Z</time></trkpt><trkpt lat="32.96265" lon="10.3161167"><ele>288.0</ele><time>2026-04-20T11:12:03.938Z</time></trkpt><trkpt lat="32.962575" lon="10.316095"><ele>288.0</ele><time>2026-04-20T11:12:04.937Z</time></trkpt><trkpt lat="32.9624983" lon="10.3160733"><ele>288.0</ele><time>2026-04-20T11:12:05.937Z</time></trkpt><trkpt lat="32.96242" lon="10.316055"><ele>288.0</ele><time>2026-04-20T11:12:06.937Z</time></trkpt><trkpt lat="32.9623317" lon="10.316045"><ele>288.0</ele><time>2026-04-20T11:12:07.937Z</time></trkpt><trkpt lat="32.9622367" lon="10.3160333"><ele>288.0</ele><time>2026-04-20T11:12:08.937Z</time></trkpt><trkpt lat="32.9621383" lon="10.3160117"><ele>288.0</ele><time>2026-04-20T11:12:09.937Z</time></trkpt><trkpt lat="32.96204" lon="10.316"><ele>288.0</ele><time>2026-04-20T11:12:10.937Z</time></trkpt><trkpt lat="32.9619367" lon="10.31599"><ele>288.0</ele><time>2026-04-20T11:12:11.937Z</time></trkpt><trkpt lat="32.9618317" lon="10.315985"><ele>288.0</ele><time>2026-04-20T11:12:12.937Z</time></trkpt><trkpt lat="32.9617217" lon="10.31598"><ele>288.0</ele><time>2026-04-20T11:12:13.937Z</time></trkpt><trkpt lat="32.9616033" lon="10.3159683"><ele>288.0</ele><time>2026-04-20T11:12:14.937Z</time></trkpt><trkpt lat="32.9614833" lon="10.31596"><ele>288.25</ele><time>2026-04-20T11:12:15.937Z</time></trkpt><trkpt lat="32.96136" lon="10.3159517"><ele>288.5</ele><time>2026-04-20T11:12:16.937Z</time></trkpt><trkpt lat="32.9612233" lon="10.315945"><ele>288.75</ele><time>2026-04-20T11:12:17.937Z</time></trkpt><trkpt lat="32.9610867" lon="10.31593"><ele>289.0</ele><time>2026-04-20T11:12:18.937Z</time></trkpt><trkpt lat="32.9609483" lon="10.3159217"><ele>289.25</ele><time>2026-04-20T11:12:19.937Z</time></trkpt><trkpt lat="32.9608167" lon="10.3159017"><ele>289.5</ele><time>2026-04-20T11:12:20.937Z</time></trkpt><trkpt lat="32.96068" lon="10.3158717"><ele>289.75</ele><time>2026-04-20T11:12:21.937Z</time></trkpt><trkpt lat="32.9605383" lon="10.31584"><ele>290.0</ele><time>2026-04-20T11:12:22.937Z</time></trkpt><trkpt lat="32.9604" lon="10.3157967"><ele>290.0</ele><time>2026-04-20T11:12:23.937Z</time></trkpt><trkpt lat="32.9602567" lon="10.3157483"><ele>290.0</ele><time>2026-04-20T11:12:24.937Z</time></trkpt><trkpt lat="32.9601117" lon="10.3156867"><ele>290.0</ele><time>2026-04-20T11:12:25.937Z</time></trkpt><trkpt lat="32.95996" lon="10.3156317"><ele>290.33333333333337</ele><time>2026-04-20T11:12:26.937Z</time></trkpt><trkpt lat="32.9597983" lon="10.3155733"><ele>290.6666666666667</ele><time>2026-04-20T11:12:27.937Z</time></trkpt><trkpt lat="32.9596417" lon="10.315515"><ele>291.0</ele><time>2026-04-20T11:12:28.937Z</time></trkpt><trkpt lat="32.959485" lon="10.31545"><ele>291.0</ele><time>2026-04-20T11:12:29.937Z</time></trkpt><trkpt lat="32.9593267" lon="10.3153833"><ele>291.0</ele><time>2026-04-20T11:12:30.937Z</time></trkpt><trkpt lat="32.9591567" lon="10.315315"><ele>291.0</ele><time>2026-04-20T11:12:31.937Z</time></trkpt><trkpt lat="32.9589867" lon="10.3152433"><ele>291.6666666666667</ele><time>2026-04-20T11:12:32.937Z</time></trkpt><trkpt lat="32.9588117" lon="10.31517"><ele>292.33333333333337</ele><time>2026-04-20T11:12:33.937Z</time></trkpt><trkpt lat="32.9586333" lon="10.3150917"><ele>293.0</ele><time>2026-04-20T11:12:34.937Z</time></trkpt><trkpt lat="32.9584583" lon="10.31501"><ele>293.0</ele><time>2026-04-20T11:12:35.937Z</time></trkpt><trkpt lat="32.9582733" lon="10.3149283"><ele>293.0</ele><time>2026-04-20T11:12:36.937Z</time></trkpt><trkpt lat="32.9580867" lon="10.3148367"><ele>293.0</ele><time>2026-04-20T11:12:37.937Z</time></trkpt><trkpt lat="32.9579033" lon="10.3147317"><ele>293.0</ele><time>2026-04-20T11:12:38.937Z</time></trkpt><trkpt lat="32.95772" lon="10.3146183"><ele>293.0</ele><time>2026-04-20T11:12:39.937Z</time></trkpt><trkpt lat="32.9575333" lon="10.3144933"><ele>293.0</ele><time>2026-04-20T11:12:40.937Z</time></trkpt><trkpt lat="32.9573433" lon="10.314365"><ele>294.0</ele><time>2026-04-20T11:12:41.937Z</time></trkpt><trkpt lat="32.9571517" lon="10.3142283"><ele>295.0</ele><time>2026-04-20T11:12:42.937Z</time></trkpt><trkpt lat="32.9569633" lon="10.3141"><ele>296.0</ele><time>2026-04-20T11:12:43.937Z</time></trkpt><trkpt lat="32.95677" lon="10.3139717"><ele>296.33333333333337</ele><time>2026-04-20T11:12:44.937Z</time></trkpt><trkpt lat="32.95658" lon="10.31384"><ele>296.6666666666667</ele><time>2026-04-20T11:12:45.937Z</time></trkpt><trkpt lat="32.9563883" lon="10.3137217"><ele>297.0</ele><time>2026-04-20T11:12:46.937Z</time></trkpt><trkpt lat="32.9562" lon="10.3135967"><ele>297.0</ele><time>2026-04-20T11:12:47.937Z</time></trkpt><trkpt lat="32.9560133" lon="10.31347"><ele>297.0</ele><time>2026-04-20T11:12:48.937Z</time></trkpt><trkpt lat="32.9558217" lon="10.3133483"><ele>297.0</ele><time>2026-04-20T11:12:49.937Z</time></trkpt><trkpt lat="32.9556217" lon="10.3132333"><ele>297.0</ele><time>2026-04-20T11:12:50.937Z</time></trkpt><trkpt lat="32.9554183" lon="10.31312"><ele>297.0</ele><time>2026-04-20T11:12:51.937Z</time></trkpt><trkpt lat="32.9552117" lon="10.3130033"><ele>297.5</ele><time>2026-04-20T11:12:52.937Z</time></trkpt><trkpt lat="32.9550083" lon="10.312885"><ele>298.0</ele><time>2026-04-20T11:12:53.937Z</time></trkpt><trkpt lat="32.9548017" lon="10.3127617"><ele>298.0</ele><time>2026-04-20T11:12:54.937Z</time></trkpt><trkpt lat="32.9545967" lon="10.31264"><ele>298.0</ele><time>2026-04-20T11:12:55.937Z</time></trkpt><trkpt lat="32.9543983" lon="10.31252"><ele>297.5</ele><time>2026-04-20T11:12:56.937Z</time></trkpt><trkpt lat="32.95419" lon="10.312405"><ele>297.0</ele><time>2026-04-20T11:12:57.937Z</time></trkpt><trkpt lat="32.9539817" lon="10.3122917"><ele>297.0</ele><time>2026-04-20T11:12:58.937Z</time></trkpt><trkpt lat="32.9537733" lon="10.31219"><ele>297.0</ele><time>2026-04-20T11:12:59.937Z</time></trkpt><trkpt lat="32.9535683" lon="10.3120983"><ele>297.0</ele><time>2026-04-20T11:13:00.937Z</time></trkpt><trkpt lat="32.9533633" lon="10.3120083"><ele>297.0</ele><time>2026-04-20T11:13:01.937Z</time></trkpt><trkpt lat="32.9531417" lon="10.31194"><ele>297.0</ele><time>2026-04-20T11:13:02.937Z</time></trkpt><trkpt lat="32.9529167" lon="10.31189"><ele>297.0</ele><time>2026-04-20T11:13:03.937Z</time></trkpt><trkpt lat="32.9526983" lon="10.3118383"><ele>297.0</ele><time>2026-04-20T11:13:04.937Z</time></trkpt><trkpt lat="32.952485" lon="10.3117833"><ele>297.0</ele><time>2026-04-20T11:13:05.937Z</time></trkpt><trkpt lat="32.9522633" lon="10.3117383"><ele>297.6666666666667</ele><time>2026-04-20T11:13:06.937Z</time></trkpt><trkpt lat="32.95205" lon="10.3116933"><ele>298.33333333333337</ele><time>2026-04-20T11:13:07.937Z</time></trkpt><trkpt lat="32.951835" lon="10.31165"><ele>299.0</ele><time>2026-04-20T11:13:08.937Z</time></trkpt><trkpt lat="32.9516183" lon="10.3116017"><ele>299.0</ele><time>2026-04-20T11:13:09.937Z</time></trkpt><trkpt lat="32.9513983" lon="10.3115583"><ele>299.0</ele><time>2026-04-20T11:13:10.937Z</time></trkpt><trkpt lat="32.95118" lon="10.3115217"><ele>299.0</ele><time>2026-04-20T11:13:11.937Z</time></trkpt><trkpt lat="32.9509617" lon="10.31147"><ele>300.5</ele><time>2026-04-20T11:13:12.937Z</time></trkpt><trkpt lat="32.9507433" lon="10.31141"><ele>302.0</ele><time>2026-04-20T11:13:13.937Z</time></trkpt><trkpt lat="32.9505183" lon="10.311355"><ele>302.33333333333337</ele><time>2026-04-20T11:13:14.937Z</time></trkpt><trkpt lat="32.9503033" lon="10.311295"><ele>302.6666666666667</ele><time>2026-04-20T11:13:15.937Z</time></trkpt><trkpt lat="32.9500817" lon="10.31123"><ele>303.0</ele><time>2026-04-20T11:13:16.937Z</time></trkpt><trkpt lat="32.949865" lon="10.3111633"><ele>303.0</ele><time>2026-04-20T11:13:17.937Z</time></trkpt><trkpt lat="32.949655" lon="10.3110917"><ele>303.0</ele><time>2026-04-20T11:13:18.937Z</time></trkpt><trkpt lat="32.94945" lon="10.3110317"><ele>303.0</ele><time>2026-04-20T11:13:19.937Z</time></trkpt><trkpt lat="32.94924" lon="10.3109667"><ele>303.0</ele><time>2026-04-20T11:13:20.937Z</time></trkpt><trkpt lat="32.9490267" lon="10.3109017"><ele>303.0</ele><time>2026-04-20T11:13:21.937Z</time></trkpt><trkpt lat="32.9488167" lon="10.310835"><ele>303.0</ele><time>2026-04-20T11:13:22.937Z</time></trkpt><trkpt lat="32.9486033" lon="10.3107767"><ele>303.0</ele><time>2026-04-20T11:13:23.937Z</time></trkpt><trkpt lat="32.94839" lon="10.310725"><ele>303.0</ele><time>2026-04-20T11:13:24.937Z</time></trkpt><trkpt lat="32.9481783" lon="10.31067"><ele>303.0</ele><time>2026-04-20T11:13:25.937Z</time></trkpt><trkpt lat="32.9479667" lon="10.3106167"><ele>303.3333333333333</ele><time>2026-04-20T11:13:26.937Z</time></trkpt><trkpt lat="32.94775" lon="10.3105667"><ele>303.66666666666663</ele><time>2026-04-20T11:13:27.937Z</time></trkpt><trkpt lat="32.9475317" lon="10.3105367"><ele>304.0</ele><time>2026-04-20T11:13:28.937Z</time></trkpt><trkpt lat="32.947315" lon="10.310515"><ele>304.3333333333333</ele><time>2026-04-20T11:13:29.937Z</time></trkpt><trkpt lat="32.9471033" lon="10.310505"><ele>304.6666666666667</ele><time>2026-04-20T11:13:30.937Z</time></trkpt><trkpt lat="32.9468933" lon="10.3105067"><ele>305.0</ele><time>2026-04-20T11:13:31.937Z</time></trkpt><trkpt lat="32.9466833" lon="10.3105117"><ele>305.0</ele><time>2026-04-20T11:13:32.937Z</time></trkpt><trkpt lat="32.9464733" lon="10.3105067"><ele>305.0</ele><time>2026-04-20T11:13:33.937Z</time></trkpt><trkpt lat="32.9462733" lon="10.3104717"><ele>305.0</ele><time>2026-04-20T11:13:34.937Z</time></trkpt><trkpt lat="32.9460783" lon="10.3104083"><ele>305.0</ele><time>2026-04-20T11:13:35.937Z</time></trkpt><trkpt lat="32.945885" lon="10.3103417"><ele>305.0</ele><time>2026-04-20T11:13:36.937Z</time></trkpt><trkpt lat="32.9457033" lon="10.3102483"><ele>305.0</ele><time>2026-04-20T11:13:37.937Z</time></trkpt><trkpt lat="32.9455233" lon="10.3101433"><ele>305.6666666666667</ele><time>2026-04-20T11:13:38.937Z</time></trkpt><trkpt lat="32.9453417" lon="10.31004"><ele>306.3333333333333</ele><time>2026-04-20T11:13:39.937Z</time></trkpt><trkpt lat="32.9451633" lon="10.3099283"><ele>307.0</ele><time>2026-04-20T11:13:40.937Z</time></trkpt><trkpt lat="32.94498" lon="10.3098367"><ele>307.3333333333333</ele><time>2026-04-20T11:13:41.937Z</time></trkpt><trkpt lat="32.9447933" lon="10.3097517"><ele>307.6666666666667</ele><time>2026-04-20T11:13:42.937Z</time></trkpt><trkpt lat="32.9445983" lon="10.3096733"><ele>308.0</ele><time>2026-04-20T11:13:43.937Z</time></trkpt><trkpt lat="32.9444033" lon="10.30961"><ele>308.0</ele><time>2026-04-20T11:13:44.937Z</time></trkpt><trkpt lat="32.9441983" lon="10.30956"><ele>308.0</ele><time>2026-04-20T11:13:45.937Z</time></trkpt><trkpt lat="32.9439917" lon="10.3095217"><ele>308.0</ele><time>2026-04-20T11:13:46.937Z</time></trkpt><trkpt lat="32.9437883" lon="10.309485"><ele>308.0</ele><time>2026-04-20T11:13:47.937Z</time></trkpt><trkpt lat="32.9435783" lon="10.30945"><ele>308.0</ele><time>2026-04-20T11:13:48.937Z</time></trkpt><trkpt lat="32.9433683" lon="10.3094183"><ele>308.0</ele><time>2026-04-20T11:13:49.937Z</time></trkpt><trkpt lat="32.943155" lon="10.3094"><ele>308.33333333333337</ele><time>2026-04-20T11:13:50.937Z</time></trkpt><trkpt lat="32.9429517" lon="10.3093833"><ele>308.6666666666667</ele><time>2026-04-20T11:13:51.937Z</time></trkpt><trkpt lat="32.94274" lon="10.30936"><ele>309.0</ele><time>2026-04-20T11:13:52.937Z</time></trkpt><trkpt lat="32.9425283" lon="10.3093267"><ele>309.3333333333333</ele><time>2026-04-20T11:13:53.937Z</time></trkpt><trkpt lat="32.9423183" lon="10.3092817"><ele>309.66666666666663</ele><time>2026-04-20T11:13:54.937Z</time></trkpt><trkpt lat="32.9421133" lon="10.3092233"><ele>310.0</ele><time>2026-04-20T11:13:55.937Z</time></trkpt><trkpt lat="32.9419117" lon="10.3091517"><ele>310.66666666666663</ele><time>2026-04-20T11:13:56.937Z</time></trkpt><trkpt lat="32.9417067" lon="10.309075"><ele>311.3333333333333</ele><time>2026-04-20T11:13:57.937Z</time></trkpt><trkpt lat="32.941505" lon="10.308995"><ele>312.0</ele><time>2026-04-20T11:13:58.937Z</time></trkpt><trkpt lat="32.9412967" lon="10.30892"><ele>312.0</ele><time>2026-04-20T11:13:59.937Z</time></trkpt><trkpt lat="32.9410867" lon="10.3088567"><ele>312.0</ele><time>2026-04-20T11:14:00.937Z</time></trkpt><trkpt lat="32.940885" lon="10.308775"><ele>312.0</ele><time>2026-04-20T11:14:01.937Z</time></trkpt><trkpt lat="32.94068" lon="10.3087017"><ele>313.3333333333333</ele><time>2026-04-20T11:14:02.937Z</time></trkpt><trkpt lat="32.9404783" lon="10.3086333"><ele>314.66666666666663</ele><time>2026-04-20T11:14:03.937Z</time></trkpt><trkpt lat="32.9402733" lon="10.308565"><ele>316.0</ele><time>2026-04-20T11:14:04.937Z</time></trkpt><trkpt lat="32.9400633" lon="10.3084983"><ele>317.0</ele><time>2026-04-20T11:14:05.937Z</time></trkpt><trkpt lat="32.9398567" lon="10.3084333"><ele>318.0</ele><time>2026-04-20T11:14:06.937Z</time></trkpt><trkpt lat="32.939655" lon="10.3083667"><ele>319.0</ele><time>2026-04-20T11:14:07.937Z</time></trkpt><trkpt lat="32.9394517" lon="10.3082983"><ele>319.0</ele><time>2026-04-20T11:14:08.937Z</time></trkpt><trkpt lat="32.9392467" lon="10.3082317"><ele>319.0</ele><time>2026-04-20T11:14:09.937Z</time></trkpt><trkpt lat="32.9390433" lon="10.3081633"><ele>319.0</ele><time>2026-04-20T11:14:10.937Z</time></trkpt><trkpt lat="32.9388417" lon="10.3080967"><ele>319.3333333333333</ele><time>2026-04-20T11:14:11.937Z</time></trkpt><trkpt lat="32.9386317" lon="10.3080283"><ele>319.6666666666667</ele><time>2026-04-20T11:14:12.937Z</time></trkpt><trkpt lat="32.9384217" lon="10.3079633"><ele>320.0</ele><time>2026-04-20T11:14:13.937Z</time></trkpt><trkpt lat="32.9382217" lon="10.307895"><ele>320.6666666666667</ele><time>2026-04-20T11:14:14.937Z</time></trkpt><trkpt lat="32.938015" lon="10.30782"><ele>321.3333333333333</ele><time>2026-04-20T11:14:15.937Z</time></trkpt><trkpt lat="32.9378083" lon="10.3077583"><ele>322.0</ele><time>2026-04-20T11:14:16.937Z</time></trkpt><trkpt lat="32.9375917" lon="10.307695"><ele>323.0</ele><time>2026-04-20T11:14:17.937Z</time></trkpt><trkpt lat="32.937385" lon="10.307635"><ele>324.0</ele><time>2026-04-20T11:14:18.937Z</time></trkpt><trkpt lat="32.9371733" lon="10.307585"><ele>325.0</ele><time>2026-04-20T11:14:19.937Z</time></trkpt><trkpt lat="32.9369667" lon="10.3075217"><ele>325.0</ele><time>2026-04-20T11:14:20.937Z</time></trkpt><trkpt lat="32.9367483" lon="10.3074633"><ele>325.0</ele><time>2026-04-20T11:14:21.937Z</time></trkpt><trkpt lat="32.9365267" lon="10.3074033"><ele>325.5</ele><time>2026-04-20T11:14:22.937Z</time></trkpt><trkpt lat="32.9363067" lon="10.307345"><ele>326.0</ele><time>2026-04-20T11:14:23.937Z</time></trkpt><trkpt lat="32.9360867" lon="10.3072883"><ele>327.5</ele><time>2026-04-20T11:14:24.937Z</time></trkpt><trkpt lat="32.9358733" lon="10.3072083"><ele>329.0</ele><time>2026-04-20T11:14:25.937Z</time></trkpt><trkpt lat="32.9356583" lon="10.3071167"><ele>329.0</ele><time>2026-04-20T11:14:26.937Z</time></trkpt><trkpt lat="32.9354483" lon="10.3070183"><ele>329.0</ele><time>2026-04-20T11:14:27.937Z</time></trkpt><trkpt lat="32.9352417" lon="10.30691"><ele>330.0</ele><time>2026-04-20T11:14:28.937Z</time></trkpt><trkpt lat="32.935045" lon="10.3068"><ele>331.0</ele><time>2026-04-20T11:14:29.937Z</time></trkpt><trkpt lat="32.9348617" lon="10.306665"><ele>332.0</ele><time>2026-04-20T11:14:30.937Z</time></trkpt><trkpt lat="32.9346983" lon="10.3065067"><ele>332.33333333333337</ele><time>2026-04-20T11:14:31.937Z</time></trkpt><trkpt lat="32.9345383" lon="10.3063383"><ele>332.6666666666667</ele><time>2026-04-20T11:14:32.937Z</time></trkpt><trkpt lat="32.9343917" lon="10.3061533"><ele>333.0</ele><time>2026-04-20T11:14:33.937Z</time></trkpt><trkpt lat="32.9342567" lon="10.3059533"><ele>333.0</ele><time>2026-04-20T11:14:34.937Z</time></trkpt><trkpt lat="32.9341267" lon="10.3057517"><ele>333.0</ele><time>2026-04-20T11:14:35.937Z</time></trkpt><trkpt lat="32.934005" lon="10.3055617"><ele>333.0</ele><time>2026-04-20T11:14:36.937Z</time></trkpt><trkpt lat="32.9338967" lon="10.3053817"><ele>333.0</ele><time>2026-04-20T11:14:37.937Z</time></trkpt><trkpt lat="32.9337783" lon="10.305215"><ele>333.0</ele><time>2026-04-20T11:14:38.937Z</time></trkpt><trkpt lat="32.9336483" lon="10.3050633"><ele>333.0</ele><time>2026-04-20T11:14:39.937Z</time></trkpt><trkpt lat="32.933505" lon="10.3049217"><ele>333.6666666666667</ele><time>2026-04-20T11:14:40.937Z</time></trkpt><trkpt lat="32.9333483" lon="10.3047867"><ele>334.33333333333337</ele><time>2026-04-20T11:14:41.937Z</time></trkpt><trkpt lat="32.93318" lon="10.3046633"><ele>335.0</ele><time>2026-04-20T11:14:42.937Z</time></trkpt><trkpt lat="32.9330067" lon="10.3045417"><ele>333.0</ele><time>2026-04-20T11:14:43.937Z</time></trkpt><trkpt lat="32.9328183" lon="10.3044283"><ele>331.0</ele><time>2026-04-20T11:14:44.937Z</time></trkpt><trkpt lat="32.9326283" lon="10.3043367"><ele>329.0</ele><time>2026-04-20T11:14:45.937Z</time></trkpt><trkpt lat="32.9324283" lon="10.3042767"><ele>329.0</ele><time>2026-04-20T11:14:46.937Z</time></trkpt><trkpt lat="32.9322133" lon="10.3042383"><ele>329.0</ele><time>2026-04-20T11:14:47.937Z</time></trkpt><trkpt lat="32.9320083" lon="10.3042083"><ele>329.0</ele><time>2026-04-20T11:14:48.937Z</time></trkpt><trkpt lat="32.9318083" lon="10.3041933"><ele>330.33333333333337</ele><time>2026-04-20T11:14:49.937Z</time></trkpt><trkpt lat="32.9316117" lon="10.3041983"><ele>331.6666666666667</ele><time>2026-04-20T11:14:50.937Z</time></trkpt><trkpt lat="32.9314167" lon="10.3042167"><ele>333.0</ele><time>2026-04-20T11:14:51.937Z</time></trkpt><trkpt lat="32.9312283" lon="10.3042567"><ele>333.0</ele><time>2026-04-20T11:14:52.937Z</time></trkpt><trkpt lat="32.9310433" lon="10.3043217"><ele>333.0</ele><time>2026-04-20T11:14:53.937Z</time></trkpt><trkpt lat="32.930865" lon="10.3044117"><ele>333.0</ele><time>2026-04-20T11:14:54.937Z</time></trkpt><trkpt lat="32.93069" lon="10.3045133"><ele>333.3333333333333</ele><time>2026-04-20T11:14:55.937Z</time></trkpt><trkpt lat="32.9305233" lon="10.304615"><ele>333.66666666666663</ele><time>2026-04-20T11:14:56.937Z</time></trkpt><trkpt lat="32.9303483" lon="10.3047183"><ele>334.0</ele><time>2026-04-20T11:14:57.937Z</time></trkpt><trkpt lat="32.9301767" lon="10.3048333"><ele>334.3333333333333</ele><time>2026-04-20T11:14:58.937Z</time></trkpt><trkpt lat="32.9299983" lon="10.3049467"><ele>334.6666666666667</ele><time>2026-04-20T11:14:59.937Z</time></trkpt><trkpt lat="32.92982" lon="10.3050633"><ele>335.0</ele><time>2026-04-20T11:15:00.937Z</time></trkpt><trkpt lat="32.9296417" lon="10.3051767"><ele>335.0</ele><time>2026-04-20T11:15:01.937Z</time></trkpt><trkpt lat="32.9294583" lon="10.305295"><ele>335.0</ele><time>2026-04-20T11:15:02.937Z</time></trkpt><trkpt lat="32.9292717" lon="10.3054167"><ele>335.0</ele><time>2026-04-20T11:15:03.937Z</time></trkpt><trkpt lat="32.929085" lon="10.305535"><ele>334.0</ele><time>2026-04-20T11:15:04.937Z</time></trkpt><trkpt lat="32.9288867" lon="10.3056533"><ele>333.0</ele><time>2026-04-20T11:15:05.937Z</time></trkpt><trkpt lat="32.9286883" lon="10.30577"><ele>332.0</ele><time>2026-04-20T11:15:06.937Z</time></trkpt><trkpt lat="32.9284817" lon="10.305875"><ele>333.33333333333337</ele><time>2026-04-20T11:15:07.937Z</time></trkpt><trkpt lat="32.9282733" lon="10.3059633"><ele>334.6666666666667</ele><time>2026-04-20T11:15:08.937Z</time></trkpt><trkpt lat="32.928055" lon="10.3060317"><ele>336.0</ele><time>2026-04-20T11:15:09.937Z</time></trkpt><trkpt lat="32.9278383" lon="10.3060683"><ele>336.0</ele><time>2026-04-20T11:15:10.937Z</time></trkpt><trkpt lat="32.927625" lon="10.30609"><ele>336.0</ele><time>2026-04-20T11:15:11.937Z</time></trkpt><trkpt lat="32.9274083" lon="10.3061067"><ele>336.0</ele><time>2026-04-20T11:15:12.937Z</time></trkpt><trkpt lat="32.9271933" lon="10.3061183"><ele>335.3333333333333</ele><time>2026-04-20T11:15:13.937Z</time></trkpt><trkpt lat="32.92698" lon="10.3061283"><ele>334.66666666666663</ele><time>2026-04-20T11:15:14.937Z</time></trkpt><trkpt lat="32.92677" lon="10.3061283"><ele>334.0</ele><time>2026-04-20T11:15:15.937Z</time></trkpt><trkpt lat="32.92655" lon="10.306135"><ele>334.0</ele><time>2026-04-20T11:15:16.937Z</time></trkpt><trkpt lat="32.9263267" lon="10.3061483"><ele>334.0</ele><time>2026-04-20T11:15:17.937Z</time></trkpt><trkpt lat="32.926115" lon="10.3061583"><ele>334.0</ele><time>2026-04-20T11:15:18.937Z</time></trkpt><trkpt lat="32.9258967" lon="10.306175"><ele>335.0</ele><time>2026-04-20T11:15:19.937Z</time></trkpt><trkpt lat="32.9256817" lon="10.3061883"><ele>336.0</ele><time>2026-04-20T11:15:20.937Z</time></trkpt><trkpt lat="32.9254733" lon="10.3062"><ele>337.0</ele><time>2026-04-20T11:15:21.937Z</time></trkpt><trkpt lat="32.9252567" lon="10.3062233"><ele>337.3333333333333</ele><time>2026-04-20T11:15:22.937Z</time></trkpt><trkpt lat="32.9250483" lon="10.3062333"><ele>337.6666666666667</ele><time>2026-04-20T11:15:23.937Z</time></trkpt><trkpt lat="32.9248317" lon="10.3062483"><ele>338.0</ele><time>2026-04-20T11:15:24.937Z</time></trkpt><trkpt lat="32.92462" lon="10.3062667"><ele>338.0</ele><time>2026-04-20T11:15:25.937Z</time></trkpt><trkpt lat="32.92441" lon="10.3062917"><ele>338.0</ele><time>2026-04-20T11:15:26.937Z</time></trkpt><trkpt lat="32.9241917" lon="10.3063333"><ele>338.0</ele><time>2026-04-20T11:15:27.937Z</time></trkpt><trkpt lat="32.9239783" lon="10.3063867"><ele>338.0</ele><time>2026-04-20T11:15:28.937Z</time></trkpt><trkpt lat="32.9237583" lon="10.3064467"><ele>338.0</ele><time>2026-04-20T11:15:29.937Z</time></trkpt><trkpt lat="32.9235467" lon="10.3065183"><ele>338.0</ele><time>2026-04-20T11:15:30.937Z</time></trkpt><trkpt lat="32.9233383" lon="10.3065983"><ele>337.33333333333337</ele><time>2026-04-20T11:15:31.937Z</time></trkpt><trkpt lat="32.9231367" lon="10.3066883"><ele>336.6666666666667</ele><time>2026-04-20T11:15:32.937Z</time></trkpt><trkpt lat="32.922935" lon="10.3068"><ele>336.0</ele><time>2026-04-20T11:15:33.937Z</time></trkpt><trkpt lat="32.9227317" lon="10.3069083"><ele>337.0</ele><time>2026-04-20T11:15:34.937Z</time></trkpt><trkpt lat="32.922525" lon="10.30702"><ele>338.0</ele><time>2026-04-20T11:15:35.937Z</time></trkpt><trkpt lat="32.9223133" lon="10.3071183"><ele>338.0</ele><time>2026-04-20T11:15:36.937Z</time></trkpt><trkpt lat="32.9221067" lon="10.3072167"><ele>338.0</ele><time>2026-04-20T11:15:37.936Z</time></trkpt><trkpt lat="32.921905" lon="10.3073183"><ele>338.0</ele><time>2026-04-20T11:15:38.936Z</time></trkpt><trkpt lat="32.921705" lon="10.3074183"><ele>338.33333333333337</ele><time>2026-04-20T11:15:39.936Z</time></trkpt><trkpt lat="32.9215083" lon="10.3075333"><ele>338.6666666666667</ele><time>2026-04-20T11:15:40.936Z</time></trkpt><trkpt lat="32.9213167" lon="10.3076517"><ele>339.0</ele><time>2026-04-20T11:15:41.936Z</time></trkpt><trkpt lat="32.9211283" lon="10.30777"><ele>339.0</ele><time>2026-04-20T11:15:42.936Z</time></trkpt><trkpt lat="32.9209333" lon="10.3078883"><ele>339.0</ele><time>2026-04-20T11:15:43.936Z</time></trkpt><trkpt lat="32.9207433" lon="10.308"><ele>339.0</ele><time>2026-04-20T11:15:44.936Z</time></trkpt><trkpt lat="32.9205483" lon="10.3081083"><ele>339.0</ele><time>2026-04-20T11:15:45.936Z</time></trkpt><trkpt lat="32.9203533" lon="10.308215"><ele>339.0</ele><time>2026-04-20T11:15:46.936Z</time></trkpt><trkpt lat="32.9201717" lon="10.3083117"><ele>339.0</ele><time>2026-04-20T11:15:47.936Z</time></trkpt><trkpt lat="32.9200017" lon="10.3083867"><ele>339.0</ele><time>2026-04-20T11:15:48.936Z</time></trkpt><trkpt lat="32.9198433" lon="10.3084517"><ele>339.0</ele><time>2026-04-20T11:15:49.936Z</time></trkpt><trkpt lat="32.9196933" lon="10.3085033"><ele>339.0</ele><time>2026-04-20T11:15:50.936Z</time></trkpt><trkpt lat="32.91956" lon="10.30855"><ele>339.0</ele><time>2026-04-20T11:15:51.936Z</time></trkpt><trkpt lat="32.9194467" lon="10.30859"><ele>339.0</ele><time>2026-04-20T11:15:52.936Z</time></trkpt><trkpt lat="32.919355" lon="10.308615"><ele>339.0</ele><time>2026-04-20T11:15:53.936Z</time></trkpt><trkpt lat="32.9192817" lon="10.3086283"><ele>339.0</ele><time>2026-04-20T11:15:54.936Z</time></trkpt><trkpt lat="32.9191967" lon="10.308605"><ele>339.0</ele><time>2026-04-20T11:15:56.936Z</time></trkpt><trkpt lat="32.919155" lon="10.3085167"><ele>339.8333333333333</ele><time>2026-04-20T11:15:58.936Z</time></trkpt><trkpt lat="32.9191383" lon="10.3084417"><ele>340.6666666666667</ele><time>2026-04-20T11:15:59.936Z</time></trkpt><trkpt lat="32.9191183" lon="10.30835"><ele>341.5</ele><time>2026-04-20T11:16:00.936Z</time></trkpt><trkpt lat="32.91909" lon="10.3082433"><ele>342.33333333333337</ele><time>2026-04-20T11:16:01.936Z</time></trkpt><trkpt lat="32.9190583" lon="10.30813"><ele>343.1666666666667</ele><time>2026-04-20T11:16:02.936Z</time></trkpt><trkpt lat="32.919025" lon="10.308005"><ele>344.0</ele><time>2026-04-20T11:16:03.936Z</time></trkpt><trkpt lat="32.9189833" lon="10.307865"><ele>344.0</ele><time>2026-04-20T11:16:04.936Z</time></trkpt><trkpt lat="32.918945" lon="10.3077167"><ele>344.0</ele><time>2026-04-20T11:16:05.936Z</time></trkpt><trkpt lat="32.9189033" lon="10.3075567"><ele>344.0</ele><time>2026-04-20T11:16:06.936Z</time></trkpt><trkpt lat="32.9188533" lon="10.3073867"><ele>344.0</ele><time>2026-04-20T11:16:07.936Z</time></trkpt><trkpt lat="32.9188067" lon="10.3072033"><ele>344.0</ele><time>2026-04-20T11:16:08.936Z</time></trkpt><trkpt lat="32.9187533" lon="10.307015"><ele>344.0</ele><time>2026-04-20T11:16:09.936Z</time></trkpt><trkpt lat="32.9186933" lon="10.3068233"><ele>344.0</ele><time>2026-04-20T11:16:10.936Z</time></trkpt><trkpt lat="32.918635" lon="10.306625"><ele>344.0</ele><time>2026-04-20T11:16:11.936Z</time></trkpt><trkpt lat="32.91858" lon="10.3064133"><ele>344.0</ele><time>2026-04-20T11:16:12.936Z</time></trkpt><trkpt lat="32.9185183" lon="10.3062"><ele>344.0</ele><time>2026-04-20T11:16:13.936Z</time></trkpt><trkpt lat="32.9184567" lon="10.3059817"><ele>343.6666666666667</ele><time>2026-04-20T11:16:14.936Z</time></trkpt><trkpt lat="32.918395" lon="10.3057583"><ele>343.3333333333333</ele><time>2026-04-20T11:16:15.936Z</time></trkpt><trkpt lat="32.918335" lon="10.305525"><ele>343.0</ele><time>2026-04-20T11:16:16.936Z</time></trkpt><trkpt lat="32.918265" lon="10.3052983"><ele>343.0</ele><time>2026-04-20T11:16:17.936Z</time></trkpt><trkpt lat="32.9181967" lon="10.3050667"><ele>343.0</ele><time>2026-04-20T11:16:18.936Z</time></trkpt><trkpt lat="32.9181333" lon="10.30483"><ele>343.0</ele><time>2026-04-20T11:16:19.936Z</time></trkpt><trkpt lat="32.91807" lon="10.3045933"><ele>343.0</ele><time>2026-04-20T11:16:20.936Z</time></trkpt><trkpt lat="32.9179933" lon="10.3043567"><ele>343.0</ele><time>2026-04-20T11:16:21.936Z</time></trkpt><trkpt lat="32.917925" lon="10.30411"><ele>343.0</ele><time>2026-04-20T11:16:22.936Z</time></trkpt><trkpt lat="32.917855" lon="10.303865"><ele>343.0</ele><time>2026-04-20T11:16:23.936Z</time></trkpt><trkpt lat="32.9177817" lon="10.3036183"><ele>343.0</ele><time>2026-04-20T11:16:24.936Z</time></trkpt><trkpt lat="32.9177117" lon="10.3033717"><ele>343.0</ele><time>2026-04-20T11:16:25.936Z</time></trkpt><trkpt lat="32.917635" lon="10.30312"><ele>342.5</ele><time>2026-04-20T11:16:26.936Z</time></trkpt><trkpt lat="32.91756" lon="10.30287"><ele>342.0</ele><time>2026-04-20T11:16:27.936Z</time></trkpt><trkpt lat="32.91748" lon="10.3026167"><ele>342.0</ele><time>2026-04-20T11:16:28.936Z</time></trkpt><trkpt lat="32.9174117" lon="10.3023667"><ele>342.0</ele><time>2026-04-20T11:16:29.936Z</time></trkpt><trkpt lat="32.91734" lon="10.3021133"><ele>342.0</ele><time>2026-04-20T11:16:30.936Z</time></trkpt><trkpt lat="32.9172517" lon="10.3018567"><ele>343.0</ele><time>2026-04-20T11:16:31.936Z</time></trkpt><trkpt lat="32.9171717" lon="10.3016067"><ele>344.0</ele><time>2026-04-20T11:16:32.936Z</time></trkpt><trkpt lat="32.9170917" lon="10.30135"><ele>344.0</ele><time>2026-04-20T11:16:33.936Z</time></trkpt><trkpt lat="32.91701" lon="10.3010983"><ele>344.0</ele><time>2026-04-20T11:16:34.936Z</time></trkpt><trkpt lat="32.916925" lon="10.300845"><ele>344.0</ele><time>2026-04-20T11:16:35.936Z</time></trkpt><trkpt lat="32.916845" lon="10.3005917"><ele>344.0</ele><time>2026-04-20T11:16:36.936Z</time></trkpt><trkpt lat="32.91676" lon="10.3003333"><ele>344.5</ele><time>2026-04-20T11:16:37.936Z</time></trkpt><trkpt lat="32.916685" lon="10.300075"><ele>345.0</ele><time>2026-04-20T11:16:38.936Z</time></trkpt><trkpt lat="32.9166183" lon="10.2998167"><ele>345.0</ele><time>2026-04-20T11:16:39.936Z</time></trkpt><trkpt lat="32.916545" lon="10.2995583"><ele>345.0</ele><time>2026-04-20T11:16:40.936Z</time></trkpt><trkpt lat="32.916475" lon="10.2992933"><ele>345.0</ele><time>2026-04-20T11:16:41.936Z</time></trkpt><trkpt lat="32.9163967" lon="10.2990333"><ele>345.0</ele><time>2026-04-20T11:16:42.936Z</time></trkpt><trkpt lat="32.9163367" lon="10.2987767"><ele>345.5</ele><time>2026-04-20T11:16:43.936Z</time></trkpt><trkpt lat="32.9162683" lon="10.298505"><ele>346.0</ele><time>2026-04-20T11:16:44.936Z</time></trkpt><trkpt lat="32.9161967" lon="10.2982483"><ele>345.5</ele><time>2026-04-20T11:16:45.936Z</time></trkpt><trkpt lat="32.9161317" lon="10.2979833"><ele>345.0</ele><time>2026-04-20T11:16:46.936Z</time></trkpt><trkpt lat="32.9160683" lon="10.29772"><ele>345.0</ele><time>2026-04-20T11:16:47.936Z</time></trkpt><trkpt lat="32.91601" lon="10.2974567"><ele>345.0</ele><time>2026-04-20T11:16:48.936Z</time></trkpt><trkpt lat="32.9159417" lon="10.2972"><ele>345.3333333333333</ele><time>2026-04-20T11:16:49.936Z</time></trkpt><trkpt lat="32.9158867" lon="10.2969367"><ele>345.66666666666663</ele><time>2026-04-20T11:16:50.936Z</time></trkpt><trkpt lat="32.9158417" lon="10.2966783"><ele>346.0</ele><time>2026-04-20T11:16:51.936Z</time></trkpt><trkpt lat="32.9157917" lon="10.29642"><ele>347.0</ele><time>2026-04-20T11:16:52.936Z</time></trkpt><trkpt lat="32.9157517" lon="10.2961583"><ele>348.0</ele><time>2026-04-20T11:16:53.936Z</time></trkpt><trkpt lat="32.9157183" lon="10.2958933"><ele>349.0</ele><time>2026-04-20T11:16:54.936Z</time></trkpt><trkpt lat="32.91569" lon="10.2956267"><ele>349.0</ele><time>2026-04-20T11:16:55.936Z</time></trkpt><trkpt lat="32.915655" lon="10.2953667"><ele>349.0</ele><time>2026-04-20T11:16:56.936Z</time></trkpt><trkpt lat="32.9156283" lon="10.2951067"><ele>349.0</ele><time>2026-04-20T11:16:57.936Z</time></trkpt><trkpt lat="32.915605" lon="10.294845"><ele>349.0</ele><time>2026-04-20T11:16:58.936Z</time></trkpt><trkpt lat="32.9155683" lon="10.29459"><ele>349.0</ele><time>2026-04-20T11:16:59.936Z</time></trkpt><trkpt lat="32.9155333" lon="10.294335"><ele>349.0</ele><time>2026-04-20T11:17:00.936Z</time></trkpt><trkpt lat="32.9155033" lon="10.2940717"><ele>349.66666666666663</ele><time>2026-04-20T11:17:01.936Z</time></trkpt><trkpt lat="32.9154733" lon="10.293815"><ele>350.3333333333333</ele><time>2026-04-20T11:17:02.936Z</time></trkpt><trkpt lat="32.915445" lon="10.2935533"><ele>351.0</ele><time>2026-04-20T11:17:03.936Z</time></trkpt><trkpt lat="32.9154133" lon="10.2932933"><ele>351.0</ele><time>2026-04-20T11:17:04.936Z</time></trkpt><trkpt lat="32.9153833" lon="10.2930333"><ele>351.0</ele><time>2026-04-20T11:17:05.936Z</time></trkpt><trkpt lat="32.9153467" lon="10.2927783"><ele>351.0</ele><time>2026-04-20T11:17:06.936Z</time></trkpt><trkpt lat="32.9153133" lon="10.29252"><ele>351.0</ele><time>2026-04-20T11:17:07.936Z</time></trkpt><trkpt lat="32.9152817" lon="10.29227"><ele>351.0</ele><time>2026-04-20T11:17:08.936Z</time></trkpt><trkpt lat="32.9152517" lon="10.2920133"><ele>351.0</ele><time>2026-04-20T11:17:09.936Z</time></trkpt><trkpt lat="32.9152233" lon="10.2917583"><ele>350.6666666666667</ele><time>2026-04-20T11:17:10.936Z</time></trkpt><trkpt lat="32.9151933" lon="10.291495"><ele>350.33333333333337</ele><time>2026-04-20T11:17:11.936Z</time></trkpt><trkpt lat="32.9151617" lon="10.291235"><ele>350.0</ele><time>2026-04-20T11:17:12.936Z</time></trkpt><trkpt lat="32.91513" lon="10.29097"><ele>350.0</ele><time>2026-04-20T11:17:13.936Z</time></trkpt><trkpt lat="32.91508" lon="10.2907133"><ele>350.0</ele><time>2026-04-20T11:17:14.936Z</time></trkpt><trkpt lat="32.9150267" lon="10.290465"><ele>350.0</ele><time>2026-04-20T11:17:15.936Z</time></trkpt><trkpt lat="32.9149617" lon="10.2902183"><ele>351.33333333333337</ele><time>2026-04-20T11:17:16.936Z</time></trkpt><trkpt lat="32.9148933" lon="10.2899733"><ele>352.6666666666667</ele><time>2026-04-20T11:17:17.936Z</time></trkpt><trkpt lat="32.9148267" lon="10.2897267"><ele>354.0</ele><time>2026-04-20T11:17:18.936Z</time></trkpt><trkpt lat="32.9147617" lon="10.2894817"><ele>354.0</ele><time>2026-04-20T11:17:19.936Z</time></trkpt><trkpt lat="32.9147017" lon="10.2892283"><ele>354.0</ele><time>2026-04-20T11:17:20.936Z</time></trkpt><trkpt lat="32.914635" lon="10.28898"><ele>354.0</ele><time>2026-04-20T11:17:21.936Z</time></trkpt><trkpt lat="32.9145667" lon="10.288735"><ele>354.6666666666667</ele><time>2026-04-20T11:17:22.936Z</time></trkpt><trkpt lat="32.914495" lon="10.28849"><ele>355.33333333333337</ele><time>2026-04-20T11:17:23.936Z</time></trkpt><trkpt lat="32.914425" lon="10.2882467"><ele>356.0</ele><time>2026-04-20T11:17:24.936Z</time></trkpt><trkpt lat="32.9143617" lon="10.2880033"><ele>357.0</ele><time>2026-04-20T11:17:25.936Z</time></trkpt><trkpt lat="32.9143" lon="10.2877517"><ele>358.0</ele><time>2026-04-20T11:17:26.936Z</time></trkpt><trkpt lat="32.9142283" lon="10.2874967"><ele>359.0</ele><time>2026-04-20T11:17:27.936Z</time></trkpt><trkpt lat="32.9141467" lon="10.2872517"><ele>359.33333333333337</ele><time>2026-04-20T11:17:28.936Z</time></trkpt><trkpt lat="32.91407" lon="10.2870067"><ele>359.6666666666667</ele><time>2026-04-20T11:17:29.936Z</time></trkpt><trkpt lat="32.9140017" lon="10.2867667"><ele>360.0</ele><time>2026-04-20T11:17:30.936Z</time></trkpt><trkpt lat="32.9139333" lon="10.28653"><ele>360.3333333333333</ele><time>2026-04-20T11:17:31.936Z</time></trkpt><trkpt lat="32.913865" lon="10.2862833"><ele>360.66666666666663</ele><time>2026-04-20T11:17:32.936Z</time></trkpt><trkpt lat="32.9137917" lon="10.2860433"><ele>361.0</ele><time>2026-04-20T11:17:33.936Z</time></trkpt><trkpt lat="32.9137233" lon="10.2858017"><ele>361.0</ele><time>2026-04-20T11:17:34.936Z</time></trkpt><trkpt lat="32.9136583" lon="10.285555"><ele>361.0</ele><time>2026-04-20T11:17:35.936Z</time></trkpt><trkpt lat="32.9135917" lon="10.285315"><ele>361.0</ele><time>2026-04-20T11:17:36.936Z</time></trkpt><trkpt lat="32.913535" lon="10.2850717"><ele>361.0</ele><time>2026-04-20T11:17:37.936Z</time></trkpt><trkpt lat="32.91347" lon="10.2848417"><ele>361.0</ele><time>2026-04-20T11:17:38.936Z</time></trkpt><trkpt lat="32.9134117" lon="10.2846017"><ele>361.0</ele><time>2026-04-20T11:17:39.936Z</time></trkpt><trkpt lat="32.9133583" lon="10.2843617"><ele>362.66666666666663</ele><time>2026-04-20T11:17:40.936Z</time></trkpt><trkpt lat="32.9133" lon="10.2841133"><ele>364.3333333333333</ele><time>2026-04-20T11:17:41.936Z</time></trkpt><trkpt lat="32.9132633" lon="10.28387"><ele>366.0</ele><time>2026-04-20T11:17:42.936Z</time></trkpt><trkpt lat="32.91324" lon="10.28361"><ele>366.0</ele><time>2026-04-20T11:17:43.936Z</time></trkpt><trkpt lat="32.913235" lon="10.2833517"><ele>366.0</ele><time>2026-04-20T11:17:44.936Z</time></trkpt><trkpt lat="32.9132483" lon="10.2830933"><ele>366.0</ele><time>2026-04-20T11:17:45.936Z</time></trkpt><trkpt lat="32.9132667" lon="10.2828383"><ele>366.0</ele><time>2026-04-20T11:17:46.936Z</time></trkpt><trkpt lat="32.9133067" lon="10.282595"><ele>366.0</ele><time>2026-04-20T11:17:47.936Z</time></trkpt><trkpt lat="32.913355" lon="10.282355"><ele>366.0</ele><time>2026-04-20T11:17:48.936Z</time></trkpt><trkpt lat="32.91342" lon="10.282125"><ele>365.6666666666667</ele><time>2026-04-20T11:17:49.936Z</time></trkpt><trkpt lat="32.9134767" lon="10.281885"><ele>365.33333333333337</ele><time>2026-04-20T11:17:50.936Z</time></trkpt><trkpt lat="32.9135367" lon="10.2816567"><ele>365.0</ele><time>2026-04-20T11:17:51.936Z</time></trkpt><trkpt lat="32.91361" lon="10.281435"><ele>366.0</ele><time>2026-04-20T11:17:52.936Z</time></trkpt><trkpt lat="32.9136817" lon="10.281225"><ele>367.0</ele><time>2026-04-20T11:17:53.936Z</time></trkpt><trkpt lat="32.9137567" lon="10.2810167"><ele>368.0</ele><time>2026-04-20T11:17:54.936Z</time></trkpt><trkpt lat="32.9138317" lon="10.2808267"><ele>368.0</ele><time>2026-04-20T11:17:55.936Z</time></trkpt><trkpt lat="32.9139117" lon="10.28065"><ele>368.0</ele><time>2026-04-20T11:17:56.936Z</time></trkpt><trkpt lat="32.91398" lon="10.280495"><ele>368.0</ele><time>2026-04-20T11:17:57.936Z</time></trkpt><trkpt lat="32.914035" lon="10.2803533"><ele>368.0</ele><time>2026-04-20T11:17:58.936Z</time></trkpt><trkpt lat="32.9140767" lon="10.2802533"><ele>367.79999999999995</ele><time>2026-04-20T11:17:59.936Z</time></trkpt><trkpt lat="32.9141117" lon="10.2801717"><ele>367.6</ele><time>2026-04-20T11:18:00.936Z</time></trkpt><trkpt lat="32.914165" lon="10.2800533"><ele>367.4</ele><time>2026-04-20T11:18:02.936Z</time></trkpt><trkpt lat="32.9141983" lon="10.279955"><ele>367.20000000000005</ele><time>2026-04-20T11:18:04.936Z</time></trkpt><trkpt lat="32.9142367" lon="10.279845"><ele>367.0</ele><time>2026-04-20T11:18:06.936Z</time></trkpt><trkpt lat="32.9142933" lon="10.2797117"><ele>367.0</ele><time>2026-04-20T11:18:08.936Z</time></trkpt><trkpt lat="32.91432" lon="10.2796267"><ele>367.0</ele><time>2026-04-20T11:18:09.936Z</time></trkpt><trkpt lat="32.9143517" lon="10.2795383"><ele>367.0</ele><time>2026-04-20T11:18:10.936Z</time></trkpt><trkpt lat="32.9143883" lon="10.2794417"><ele>367.0</ele><time>2026-04-20T11:18:11.936Z</time></trkpt><trkpt lat="32.914425" lon="10.2793433"><ele>367.0</ele><time>2026-04-20T11:18:12.936Z</time></trkpt><trkpt lat="32.9144633" lon="10.2792367"><ele>367.0</ele><time>2026-04-20T11:18:13.936Z</time></trkpt><trkpt lat="32.914505" lon="10.2791267"><ele>367.0</ele><time>2026-04-20T11:18:14.936Z</time></trkpt><trkpt lat="32.91455" lon="10.27901"><ele>367.0</ele><time>2026-04-20T11:18:15.936Z</time></trkpt><trkpt lat="32.9145983" lon="10.2788883"><ele>367.0</ele><time>2026-04-20T11:18:16.936Z</time></trkpt><trkpt lat="32.9146517" lon="10.278775"><ele>367.0</ele><time>2026-04-20T11:18:17.936Z</time></trkpt><trkpt lat="32.9146983" lon="10.278665"><ele>367.0</ele><time>2026-04-20T11:18:18.936Z</time></trkpt><trkpt lat="32.9147383" lon="10.27856"><ele>368.0</ele><time>2026-04-20T11:18:19.936Z</time></trkpt><trkpt lat="32.9147833" lon="10.2784583"><ele>369.0</ele><time>2026-04-20T11:18:20.936Z</time></trkpt><trkpt lat="32.91482" lon="10.2783583"><ele>370.0</ele><time>2026-04-20T11:18:21.936Z</time></trkpt><trkpt lat="32.9148583" lon="10.2782483"><ele>371.0</ele><time>2026-04-20T11:18:22.936Z</time></trkpt><trkpt lat="32.9149" lon="10.2781433"><ele>372.0</ele><time>2026-04-20T11:18:23.936Z</time></trkpt><trkpt lat="32.91495" lon="10.2780333"><ele>372.3333333333333</ele><time>2026-04-20T11:18:24.936Z</time></trkpt><trkpt lat="32.915" lon="10.2779233"><ele>372.6666666666667</ele><time>2026-04-20T11:18:25.936Z</time></trkpt><trkpt lat="32.9150517" lon="10.2778217"><ele>373.0</ele><time>2026-04-20T11:18:26.936Z</time></trkpt><trkpt lat="32.915095" lon="10.277735"><ele>373.33333333333337</ele><time>2026-04-20T11:18:27.936Z</time></trkpt><trkpt lat="32.915135" lon="10.27766"><ele>373.6666666666667</ele><time>2026-04-20T11:18:28.936Z</time></trkpt><trkpt lat="32.9151733" lon="10.2775883"><ele>374.0</ele><time>2026-04-20T11:18:29.936Z</time></trkpt><trkpt lat="32.9152133" lon="10.2775233"><ele>373.33333333333337</ele><time>2026-04-20T11:18:30.936Z</time></trkpt><trkpt lat="32.915295" lon="10.2773983"><ele>372.6666666666667</ele><time>2026-04-20T11:18:32.936Z</time></trkpt><trkpt lat="32.9153417" lon="10.2773267"><ele>372.0</ele><time>2026-04-20T11:18:33.936Z</time></trkpt><trkpt lat="32.91539" lon="10.2772617"><ele>371.3333333333333</ele><time>2026-04-20T11:18:34.936Z</time></trkpt><trkpt lat="32.9154433" lon="10.2771933"><ele>370.66666666666663</ele><time>2026-04-20T11:18:35.936Z</time></trkpt><trkpt lat="32.915505" lon="10.2771233"><ele>370.0</ele><time>2026-04-20T11:18:36.936Z</time></trkpt><trkpt lat="32.9155633" lon="10.2770433"><ele>369.8</ele><time>2026-04-20T11:18:37.936Z</time></trkpt><trkpt lat="32.9156317" lon="10.2769583"><ele>369.6</ele><time>2026-04-20T11:18:38.936Z</time></trkpt><trkpt lat="32.915695" lon="10.2768717"><ele>369.4</ele><time>2026-04-20T11:18:39.936Z</time></trkpt><trkpt lat="32.9157683" lon="10.2767783"><ele>369.2</ele><time>2026-04-20T11:18:40.936Z</time></trkpt><trkpt lat="32.9158467" lon="10.2766717"><ele>369.0</ele><time>2026-04-20T11:18:41.936Z</time></trkpt><trkpt lat="32.9159217" lon="10.2765583"><ele>368.5</ele><time>2026-04-20T11:18:42.936Z</time></trkpt><trkpt lat="32.9159967" lon="10.2764383"><ele>368.0</ele><time>2026-04-20T11:18:43.936Z</time></trkpt><trkpt lat="32.9160583" lon="10.2763133"><ele>367.5</ele><time>2026-04-20T11:18:44.936Z</time></trkpt><trkpt lat="32.9161083" lon="10.276185"><ele>367.0</ele><time>2026-04-20T11:18:45.936Z</time></trkpt><trkpt lat="32.9161417" lon="10.2760417"><ele>367.0</ele><time>2026-04-20T11:18:46.936Z</time></trkpt><trkpt lat="32.9161683" lon="10.2759"><ele>367.0</ele><time>2026-04-20T11:18:47.936Z</time></trkpt><trkpt lat="32.9161967" lon="10.2757583"><ele>367.0</ele><time>2026-04-20T11:18:48.936Z</time></trkpt><trkpt lat="32.9162333" lon="10.27562"><ele>367.0</ele><time>2026-04-20T11:18:49.936Z</time></trkpt><trkpt lat="32.91628" lon="10.275475"><ele>367.25</ele><time>2026-04-20T11:18:50.936Z</time></trkpt><trkpt lat="32.9163367" lon="10.27534"><ele>367.5</ele><time>2026-04-20T11:18:51.936Z</time></trkpt><trkpt lat="32.9163983" lon="10.2752183"><ele>367.75</ele><time>2026-04-20T11:18:52.936Z</time></trkpt><trkpt lat="32.9164667" lon="10.2751033"><ele>368.0</ele><time>2026-04-20T11:18:53.936Z</time></trkpt><trkpt lat="32.916555" lon="10.2750067"><ele>368.0</ele><time>2026-04-20T11:18:54.936Z</time></trkpt><trkpt lat="32.9166383" lon="10.2749233"><ele>368.0</ele><time>2026-04-20T11:18:55.936Z</time></trkpt><trkpt lat="32.916725" lon="10.274835"><ele>368.0</ele><time>2026-04-20T11:18:56.936Z</time></trkpt><trkpt lat="32.916805" lon="10.2747283"><ele>368.0</ele><time>2026-04-20T11:18:57.936Z</time></trkpt><trkpt lat="32.9168817" lon="10.2745967"><ele>365.33333333333337</ele><time>2026-04-20T11:18:58.936Z</time></trkpt><trkpt lat="32.9169567" lon="10.2744417"><ele>362.6666666666667</ele><time>2026-04-20T11:18:59.936Z</time></trkpt><trkpt lat="32.9170217" lon="10.2742783"><ele>360.0</ele><time>2026-04-20T11:19:00.936Z</time></trkpt><trkpt lat="32.917075" lon="10.2741033"><ele>360.0</ele><time>2026-04-20T11:19:01.936Z</time></trkpt><trkpt lat="32.9171033" lon="10.273905"><ele>360.0</ele><time>2026-04-20T11:19:02.936Z</time></trkpt><trkpt lat="32.9171233" lon="10.2737033"><ele>360.0</ele><time>2026-04-20T11:19:03.936Z</time></trkpt><trkpt lat="32.91713" lon="10.2734867"><ele>360.0</ele><time>2026-04-20T11:19:04.936Z</time></trkpt><trkpt lat="32.9171333" lon="10.2732883"><ele>360.0</ele><time>2026-04-20T11:19:05.936Z</time></trkpt><trkpt lat="32.9171417" lon="10.2730967"><ele>360.0</ele><time>2026-04-20T11:19:06.936Z</time></trkpt><trkpt lat="32.917145" lon="10.2729"><ele>360.3333333333333</ele><time>2026-04-20T11:19:07.936Z</time></trkpt><trkpt lat="32.9171533" lon="10.2727083"><ele>360.66666666666663</ele><time>2026-04-20T11:19:08.936Z</time></trkpt><trkpt lat="32.91716" lon="10.2725283"><ele>361.0</ele><time>2026-04-20T11:19:09.936Z</time></trkpt><trkpt lat="32.9171617" lon="10.2723367"><ele>361.66666666666663</ele><time>2026-04-20T11:19:10.936Z</time></trkpt><trkpt lat="32.91716" lon="10.27214"><ele>362.3333333333333</ele><time>2026-04-20T11:19:11.936Z</time></trkpt><trkpt lat="32.9171633" lon="10.2719583"><ele>363.0</ele><time>2026-04-20T11:19:12.936Z</time></trkpt><trkpt lat="32.91717" lon="10.2717767"><ele>363.0</ele><time>2026-04-20T11:19:13.935Z</time></trkpt><trkpt lat="32.91718" lon="10.2715833"><ele>363.0</ele><time>2026-04-20T11:19:14.935Z</time></trkpt><trkpt lat="32.9171867" lon="10.27139"><ele>363.0</ele><time>2026-04-20T11:19:15.935Z</time></trkpt><trkpt lat="32.9171917" lon="10.27119"><ele>363.3333333333333</ele><time>2026-04-20T11:19:16.935Z</time></trkpt><trkpt lat="32.9172" lon="10.2709817"><ele>363.66666666666663</ele><time>2026-04-20T11:19:17.935Z</time></trkpt><trkpt lat="32.9172133" lon="10.27077"><ele>364.0</ele><time>2026-04-20T11:19:18.935Z</time></trkpt><trkpt lat="32.9172217" lon="10.2705683"><ele>365.0</ele><time>2026-04-20T11:19:19.935Z</time></trkpt><trkpt lat="32.91723" lon="10.27036"><ele>366.0</ele><time>2026-04-20T11:19:20.935Z</time></trkpt><trkpt lat="32.9172383" lon="10.270145"><ele>367.0</ele><time>2026-04-20T11:19:21.935Z</time></trkpt><trkpt lat="32.917245" lon="10.2699383"><ele>366.3333333333333</ele><time>2026-04-20T11:19:22.935Z</time></trkpt><trkpt lat="32.9172533" lon="10.2697283"><ele>365.6666666666667</ele><time>2026-04-20T11:19:23.935Z</time></trkpt><trkpt lat="32.9172583" lon="10.269515"><ele>365.0</ele><time>2026-04-20T11:19:24.935Z</time></trkpt><trkpt lat="32.9172583" lon="10.2693017"><ele>365.0</ele><time>2026-04-20T11:19:25.935Z</time></trkpt><trkpt lat="32.917255" lon="10.2690883"><ele>365.0</ele><time>2026-04-20T11:19:26.935Z</time></trkpt><trkpt lat="32.9172467" lon="10.26888"><ele>365.0</ele><time>2026-04-20T11:19:27.935Z</time></trkpt><trkpt lat="32.9172317" lon="10.2686667"><ele>365.6666666666667</ele><time>2026-04-20T11:19:28.935Z</time></trkpt><trkpt lat="32.91721" lon="10.2684533"><ele>366.3333333333333</ele><time>2026-04-20T11:19:29.935Z</time></trkpt><trkpt lat="32.917185" lon="10.2682317"><ele>367.0</ele><time>2026-04-20T11:19:30.935Z</time></trkpt><trkpt lat="32.9171633" lon="10.2680133"><ele>367.3333333333333</ele><time>2026-04-20T11:19:31.935Z</time></trkpt><trkpt lat="32.9171367" lon="10.2677817"><ele>367.6666666666667</ele><time>2026-04-20T11:19:32.935Z</time></trkpt><trkpt lat="32.9171133" lon="10.26756"><ele>368.0</ele><time>2026-04-20T11:19:33.935Z</time></trkpt><trkpt lat="32.917085" lon="10.26734"><ele>368.6666666666667</ele><time>2026-04-20T11:19:34.935Z</time></trkpt><trkpt lat="32.91705" lon="10.26712"><ele>369.3333333333333</ele><time>2026-04-20T11:19:35.935Z</time></trkpt><trkpt lat="32.9170033" lon="10.26691"><ele>370.0</ele><time>2026-04-20T11:19:36.935Z</time></trkpt><trkpt lat="32.9169567" lon="10.2666983"><ele>370.0</ele><time>2026-04-20T11:19:37.935Z</time></trkpt><trkpt lat="32.916915" lon="10.2664833"><ele>370.0</ele><time>2026-04-20T11:19:38.935Z</time></trkpt><trkpt lat="32.9168667" lon="10.2662633"><ele>370.0</ele><time>2026-04-20T11:19:39.935Z</time></trkpt><trkpt lat="32.9168" lon="10.2660533"><ele>371.66666666666663</ele><time>2026-04-20T11:19:40.935Z</time></trkpt><trkpt lat="32.9167233" lon="10.2658417"><ele>373.3333333333333</ele><time>2026-04-20T11:19:41.935Z</time></trkpt><trkpt lat="32.9166533" lon="10.2656317"><ele>375.0</ele><time>2026-04-20T11:19:42.935Z</time></trkpt><trkpt lat="32.9165817" lon="10.26542"><ele>375.3333333333333</ele><time>2026-04-20T11:19:43.935Z</time></trkpt><trkpt lat="32.91652" lon="10.2652167"><ele>375.66666666666663</ele><time>2026-04-20T11:19:44.935Z</time></trkpt><trkpt lat="32.9164617" lon="10.265015"><ele>376.0</ele><time>2026-04-20T11:19:45.935Z</time></trkpt><trkpt lat="32.9164" lon="10.2648267"><ele>376.3333333333333</ele><time>2026-04-20T11:19:46.935Z</time></trkpt><trkpt lat="32.9163517" lon="10.2646367"><ele>376.6666666666667</ele><time>2026-04-20T11:19:47.935Z</time></trkpt><trkpt lat="32.9162967" lon="10.2644417"><ele>377.0</ele><time>2026-04-20T11:19:48.935Z</time></trkpt><trkpt lat="32.91623" lon="10.26425"><ele>377.0</ele><time>2026-04-20T11:19:49.935Z</time></trkpt><trkpt lat="32.916165" lon="10.2640533"><ele>377.0</ele><time>2026-04-20T11:19:50.935Z</time></trkpt><trkpt lat="32.9160983" lon="10.2638567"><ele>377.0</ele><time>2026-04-20T11:19:51.935Z</time></trkpt><trkpt lat="32.9160267" lon="10.26367"><ele>378.0</ele><time>2026-04-20T11:19:52.935Z</time></trkpt><trkpt lat="32.9159267" lon="10.2635083"><ele>379.0</ele><time>2026-04-20T11:19:53.935Z</time></trkpt><trkpt lat="32.9158167" lon="10.26336"><ele>380.0</ele><time>2026-04-20T11:19:54.935Z</time></trkpt><trkpt lat="32.9156917" lon="10.263225"><ele>382.0</ele><time>2026-04-20T11:19:55.935Z</time></trkpt><trkpt lat="32.91557" lon="10.26308"><ele>384.0</ele><time>2026-04-20T11:19:56.935Z</time></trkpt><trkpt lat="32.9154517" lon="10.262925"><ele>386.0</ele><time>2026-04-20T11:19:57.935Z</time></trkpt><trkpt lat="32.9153433" lon="10.262755"><ele>386.0</ele><time>2026-04-20T11:19:58.935Z</time></trkpt><trkpt lat="32.9152433" lon="10.2625883"><ele>386.0</ele><time>2026-04-20T11:19:59.935Z</time></trkpt><trkpt lat="32.9151417" lon="10.262425"><ele>386.0</ele><time>2026-04-20T11:20:00.935Z</time></trkpt><trkpt lat="32.915045" lon="10.262255"><ele>390.0</ele><time>2026-04-20T11:20:01.935Z</time></trkpt><trkpt lat="32.9149483" lon="10.2620917"><ele>394.0</ele><time>2026-04-20T11:20:02.935Z</time></trkpt><trkpt lat="32.9148567" lon="10.261925"><ele>398.0</ele><time>2026-04-20T11:20:03.935Z</time></trkpt><trkpt lat="32.9147633" lon="10.261775"><ele>398.0</ele><time>2026-04-20T11:20:04.935Z</time></trkpt><trkpt lat="32.9146667" lon="10.2616317"><ele>398.0</ele><time>2026-04-20T11:20:05.935Z</time></trkpt><trkpt lat="32.9145767" lon="10.2615017"><ele>398.0</ele><time>2026-04-20T11:20:06.935Z</time></trkpt><trkpt lat="32.914495" lon="10.2613783"><ele>398.0</ele><time>2026-04-20T11:20:07.935Z</time></trkpt><trkpt lat="32.9144317" lon="10.2612483"><ele>397.66666666666663</ele><time>2026-04-20T11:20:08.935Z</time></trkpt><trkpt lat="32.91439" lon="10.2611217"><ele>397.3333333333333</ele><time>2026-04-20T11:20:09.935Z</time></trkpt><trkpt lat="32.9143867" lon="10.261015"><ele>397.0</ele><time>2026-04-20T11:20:10.935Z</time></trkpt><trkpt lat="32.9144083" lon="10.26091"><ele>396.66666666666663</ele><time>2026-04-20T11:20:11.935Z</time></trkpt><trkpt lat="32.9144467" lon="10.260825"><ele>396.3333333333333</ele><time>2026-04-20T11:20:12.935Z</time></trkpt><trkpt lat="32.9144883" lon="10.2607617"><ele>396.0</ele><time>2026-04-20T11:20:13.935Z</time></trkpt><trkpt lat="32.9145133" lon="10.26066"><ele>395.1666666666667</ele><time>2026-04-20T11:20:15.935Z</time></trkpt><trkpt lat="32.9144817" lon="10.2605867"><ele>394.33333333333337</ele><time>2026-04-20T11:20:18.935Z</time></trkpt><trkpt lat="32.9144917" lon="10.2604933"><ele>393.5</ele><time>2026-04-20T11:20:21.935Z</time></trkpt><trkpt lat="32.9144383" lon="10.2603933"><ele>392.6666666666667</ele><time>2026-04-20T11:22:17.935Z</time></trkpt><trkpt lat="32.91433" lon="10.2603117"><ele>391.83333333333337</ele><time>2026-04-20T11:22:19.935Z</time></trkpt><trkpt lat="32.9142683" lon="10.2602683"><ele>391.0</ele><time>2026-04-20T11:22:20.935Z</time></trkpt><trkpt lat="32.9141917" lon="10.2602333"><ele>394.6</ele><time>2026-04-20T11:22:21.935Z</time></trkpt><trkpt lat="32.9141" lon="10.2602"><ele>398.20000000000005</ele><time>2026-04-20T11:22:22.935Z</time></trkpt><trkpt lat="32.914005" lon="10.26017"><ele>401.79999999999995</ele><time>2026-04-20T11:22:23.935Z</time></trkpt><trkpt lat="32.913915" lon="10.26014"><ele>405.4</ele><time>2026-04-20T11:22:24.935Z</time></trkpt><trkpt lat="32.913845" lon="10.2600683"><ele>409.0</ele><time>2026-04-20T11:22:25.935Z</time></trkpt><trkpt lat="32.9137733" lon="10.25997"><ele>409.0</ele><time>2026-04-20T11:22:26.935Z</time></trkpt><trkpt lat="32.9137033" lon="10.2598567"><ele>409.0</ele><time>2026-04-20T11:22:27.935Z</time></trkpt><trkpt lat="32.9136333" lon="10.25974"><ele>409.0</ele><time>2026-04-20T11:22:28.935Z</time></trkpt><trkpt lat="32.9135617" lon="10.2596233"><ele>409.0</ele><time>2026-04-20T11:22:29.935Z</time></trkpt><trkpt lat="32.9134833" lon="10.2595167"><ele>409.0</ele><time>2026-04-20T11:22:30.935Z</time></trkpt><trkpt lat="32.9134" lon="10.2594167"><ele>409.0</ele><time>2026-04-20T11:22:31.935Z</time></trkpt><trkpt lat="32.91331" lon="10.25934"><ele>409.0</ele><time>2026-04-20T11:22:32.935Z</time></trkpt><trkpt lat="32.9132067" lon="10.2592767"><ele>409.0</ele><time>2026-04-20T11:22:33.935Z</time></trkpt><trkpt lat="32.9130967" lon="10.2592283"><ele>409.0</ele><time>2026-04-20T11:22:34.935Z</time></trkpt><trkpt lat="32.9129767" lon="10.2591917"><ele>409.0</ele><time>2026-04-20T11:22:35.935Z</time></trkpt><trkpt lat="32.91286" lon="10.2591767"><ele>409.0</ele><time>2026-04-20T11:22:36.935Z</time></trkpt><trkpt lat="32.9127383" lon="10.259175"><ele>409.0</ele><time>2026-04-20T11:22:37.935Z</time></trkpt><trkpt lat="32.9126183" lon="10.25919"><ele>410.5</ele><time>2026-04-20T11:22:38.935Z</time></trkpt><trkpt lat="32.9125" lon="10.2592167"><ele>412.0</ele><time>2026-04-20T11:22:39.935Z</time></trkpt><trkpt lat="32.9123883" lon="10.25927"><ele>413.5</ele><time>2026-04-20T11:22:40.935Z</time></trkpt><trkpt lat="32.9122833" lon="10.25933"><ele>415.0</ele><time>2026-04-20T11:22:41.935Z</time></trkpt><trkpt lat="32.9121833" lon="10.2593983"><ele>415.0</ele><time>2026-04-20T11:22:42.935Z</time></trkpt><trkpt lat="32.9120967" lon="10.25945"><ele>415.0</ele><time>2026-04-20T11:22:43.934Z</time></trkpt><trkpt lat="32.912015" lon="10.2594883"><ele>415.0</ele><time>2026-04-20T11:22:44.934Z</time></trkpt><trkpt lat="32.9119317" lon="10.25951"><ele>415.0</ele><time>2026-04-20T11:22:45.934Z</time></trkpt><trkpt lat="32.911845" lon="10.2595383"><ele>415.0</ele><time>2026-04-20T11:22:46.934Z</time></trkpt><trkpt lat="32.91175" lon="10.2595467"><ele>414.2</ele><time>2026-04-20T11:22:47.934Z</time></trkpt><trkpt lat="32.9116533" lon="10.2595467"><ele>413.4</ele><time>2026-04-20T11:22:48.934Z</time></trkpt><trkpt lat="32.9115567" lon="10.2595367"><ele>412.6</ele><time>2026-04-20T11:22:49.934Z</time></trkpt><trkpt lat="32.9114633" lon="10.2595317"><ele>411.8</ele><time>2026-04-20T11:22:50.934Z</time></trkpt><trkpt lat="32.9113667" lon="10.259535"><ele>411.0</ele><time>2026-04-20T11:22:51.934Z</time></trkpt><trkpt lat="32.91127" lon="10.2595583"><ele>411.0</ele><time>2026-04-20T11:22:52.934Z</time></trkpt><trkpt lat="32.9111733" lon="10.2595983"><ele>411.0</ele><time>2026-04-20T11:22:53.934Z</time></trkpt><trkpt lat="32.91108" lon="10.25965"><ele>411.0</ele><time>2026-04-20T11:22:54.934Z</time></trkpt><trkpt lat="32.9109967" lon="10.259705"><ele>411.0</ele><time>2026-04-20T11:22:55.934Z</time></trkpt><trkpt lat="32.9109167" lon="10.2597717"><ele>411.0</ele><time>2026-04-20T11:22:56.934Z</time></trkpt><trkpt lat="32.9108467" lon="10.2598483"><ele>413.6</ele><time>2026-04-20T11:22:57.934Z</time></trkpt><trkpt lat="32.9107917" lon="10.2599367"><ele>416.20000000000005</ele><time>2026-04-20T11:22:58.934Z</time></trkpt><trkpt lat="32.9107583" lon="10.2600367"><ele>418.79999999999995</ele><time>2026-04-20T11:22:59.934Z</time></trkpt><trkpt lat="32.9107433" lon="10.26015"><ele>421.4</ele><time>2026-04-20T11:23:00.934Z</time></trkpt><trkpt lat="32.9107317" lon="10.260265"><ele>424.0</ele><time>2026-04-20T11:23:01.934Z</time></trkpt><trkpt lat="32.9107267" lon="10.2603733"><ele>424.00000000000006</ele><time>2026-04-20T11:23:02.934Z</time></trkpt><trkpt lat="32.9107167" lon="10.26048"><ele>424.0</ele><time>2026-04-20T11:23:03.934Z</time></trkpt><trkpt lat="32.9107117" lon="10.2605833"><ele>424.0</ele><time>2026-04-20T11:23:04.934Z</time></trkpt><trkpt lat="32.9107117" lon="10.2606867"><ele>424.0</ele><time>2026-04-20T11:23:05.934Z</time></trkpt><trkpt lat="32.9107117" lon="10.2607933"><ele>424.00000000000006</ele><time>2026-04-20T11:23:06.934Z</time></trkpt><trkpt lat="32.9106983" lon="10.2608867"><ele>424.0</ele><time>2026-04-20T11:23:07.934Z</time></trkpt><trkpt lat="32.9106833" lon="10.260975"><ele>425.50000000000006</ele><time>2026-04-20T11:23:08.934Z</time></trkpt><trkpt lat="32.9106267" lon="10.26109"><ele>427.0</ele><time>2026-04-20T11:23:10.934Z</time></trkpt><trkpt lat="32.91056" lon="10.2611517"><ele>428.5</ele><time>2026-04-20T11:23:12.934Z</time></trkpt><trkpt lat="32.9105467" lon="10.26124"><ele>430.0</ele><time>2026-04-20T11:23:15.934Z</time></trkpt><trkpt lat="32.91059" lon="10.261305"><ele>431.50000000000006</ele><time>2026-04-20T11:23:17.934Z</time></trkpt><trkpt lat="32.9106433" lon="10.26138"><ele>433.0</ele><time>2026-04-20T11:23:19.934Z</time></trkpt><trkpt lat="32.9107033" lon="10.2614483"><ele>434.00000000000006</ele><time>2026-04-20T11:23:21.934Z</time></trkpt><trkpt lat="32.910765" lon="10.2615217"><ele>435.0</ele><time>2026-04-20T11:23:23.934Z</time></trkpt><trkpt lat="32.9108317" lon="10.2615933"><ele>436.0</ele><time>2026-04-20T11:23:25.934Z</time></trkpt><trkpt lat="32.9108983" lon="10.26166"><ele>437.0</ele><time>2026-04-20T11:23:27.934Z</time></trkpt><trkpt lat="32.910955" lon="10.261725"><ele>438.00000000000006</ele><time>2026-04-20T11:23:29.934Z</time></trkpt><trkpt lat="32.9110233" lon="10.2617933"><ele>439.0</ele><time>2026-04-20T11:23:31.934Z</time></trkpt><trkpt lat="32.9110867" lon="10.261885"><ele>443.1666666666667</ele><time>2026-04-20T11:23:33.934Z</time></trkpt><trkpt lat="32.9111433" lon="10.2619833"><ele>447.33333333333337</ele><time>2026-04-20T11:23:35.934Z</time></trkpt><trkpt lat="32.9112" lon="10.26208"><ele>451.5</ele><time>2026-04-20T11:23:37.934Z</time></trkpt><trkpt lat="32.9112483" lon="10.2621667"><ele>455.66666666666663</ele><time>2026-04-20T11:23:39.934Z</time></trkpt><trkpt lat="32.9112817" lon="10.2622367"><ele>459.8333333333333</ele><time>2026-04-20T11:23:41.934Z</time></trkpt><trkpt lat="32.9113033" lon="10.2623083"><ele>464.0</ele><time>2026-04-20T11:23:43.934Z</time></trkpt><trkpt lat="32.91136" lon="10.2623883"><ele>463.99999999999994</ele><time>2026-04-20T11:25:24.934Z</time></trkpt><trkpt lat="32.91133" lon="10.2623217"><ele>464.0</ele><time>2026-04-20T11:25:29.934Z</time></trkpt><trkpt lat="32.9113033" lon="10.2622417"><ele>464.0</ele><time>2026-04-20T11:25:31.934Z</time></trkpt><trkpt lat="32.9112333" lon="10.2621033"><ele>464.0</ele><time>2026-04-20T11:25:33.934Z</time></trkpt><trkpt lat="32.9111867" lon="10.26203"><ele>463.99999999999994</ele><time>2026-04-20T11:25:34.934Z</time></trkpt><trkpt lat="32.9111467" lon="10.2619617"><ele>464.0</ele><time>2026-04-20T11:25:35.934Z</time></trkpt><trkpt lat="32.9110733" lon="10.2618433"><ele>464.0</ele><time>2026-04-20T11:25:37.934Z</time></trkpt><trkpt lat="32.9110383" lon="10.26178"><ele>464.0</ele><time>2026-04-20T11:25:38.934Z</time></trkpt><trkpt lat="32.910955" lon="10.261675"><ele>464.0</ele><time>2026-04-20T11:25:40.934Z</time></trkpt><trkpt lat="32.9108683" lon="10.261585"><ele>464.0</ele><time>2026-04-20T11:25:42.934Z</time></trkpt><trkpt lat="32.910775" lon="10.2615017"><ele>464.0</ele><time>2026-04-20T11:25:44.934Z</time></trkpt><trkpt lat="32.9106967" lon="10.2614067"><ele>458.8333333333333</ele><time>2026-04-20T11:25:46.934Z</time></trkpt><trkpt lat="32.9106367" lon="10.2613217"><ele>453.66666666666663</ele><time>2026-04-20T11:25:48.934Z</time></trkpt><trkpt lat="32.9106017" lon="10.2612267"><ele>448.5</ele><time>2026-04-20T11:25:50.934Z</time></trkpt><trkpt lat="32.91062" lon="10.261145"><ele>443.33333333333337</ele><time>2026-04-20T11:25:52.934Z</time></trkpt><trkpt lat="32.9106783" lon="10.2610233"><ele>438.1666666666667</ele><time>2026-04-20T11:25:54.934Z</time></trkpt><trkpt lat="32.9107033" lon="10.2609383"><ele>433.0</ele><time>2026-04-20T11:25:55.934Z</time></trkpt><trkpt lat="32.9107167" lon="10.2608283"><ele>433.00000000000006</ele><time>2026-04-20T11:25:56.934Z</time></trkpt><trkpt lat="32.9107267" lon="10.2607267"><ele>433.0</ele><time>2026-04-20T11:25:57.934Z</time></trkpt><trkpt lat="32.9107333" lon="10.26063"><ele>433.0</ele><time>2026-04-20T11:25:58.934Z</time></trkpt><trkpt lat="32.910735" lon="10.26054"><ele>433.0</ele><time>2026-04-20T11:25:59.934Z</time></trkpt><trkpt lat="32.9107433" lon="10.2604517"><ele>433.00000000000006</ele><time>2026-04-20T11:26:00.934Z</time></trkpt><trkpt lat="32.9107567" lon="10.2603633"><ele>433.0</ele><time>2026-04-20T11:26:01.934Z</time></trkpt><trkpt lat="32.91077" lon="10.2602633"><ele>433.1666666666667</ele><time>2026-04-20T11:26:02.933Z</time></trkpt><trkpt lat="32.9107783" lon="10.2601583"><ele>433.33333333333337</ele><time>2026-04-20T11:26:03.933Z</time></trkpt><trkpt lat="32.9107983" lon="10.2600567"><ele>433.5</ele><time>2026-04-20T11:26:04.933Z</time></trkpt><trkpt lat="32.9108283" lon="10.25997"><ele>433.66666666666663</ele><time>2026-04-20T11:26:05.933Z</time></trkpt><trkpt lat="32.910865" lon="10.2598917"><ele>433.8333333333333</ele><time>2026-04-20T11:26:06.933Z</time></trkpt><trkpt lat="32.91092" lon="10.2598233"><ele>434.0</ele><time>2026-04-20T11:26:07.933Z</time></trkpt><trkpt lat="32.9109667" lon="10.25976"><ele>430.16666666666663</ele><time>2026-04-20T11:26:08.933Z</time></trkpt><trkpt lat="32.9110267" lon="10.25971"><ele>426.3333333333333</ele><time>2026-04-20T11:26:09.933Z</time></trkpt><trkpt lat="32.9110967" lon="10.25966"><ele>422.5</ele><time>2026-04-20T11:26:10.933Z</time></trkpt><trkpt lat="32.911165" lon="10.2596133"><ele>418.66666666666663</ele><time>2026-04-20T11:26:11.933Z</time></trkpt><trkpt lat="32.9112483" lon="10.2595833"><ele>414.8333333333333</ele><time>2026-04-20T11:26:12.933Z</time></trkpt><trkpt lat="32.9113267" lon="10.2595567"><ele>411.0</ele><time>2026-04-20T11:26:13.933Z</time></trkpt><trkpt lat="32.9114067" lon="10.259545"><ele>411.0</ele><time>2026-04-20T11:26:14.933Z</time></trkpt><trkpt lat="32.9114867" lon="10.259545"><ele>411.0</ele><time>2026-04-20T11:26:15.933Z</time></trkpt><trkpt lat="32.9115717" lon="10.25955"><ele>411.0</ele><time>2026-04-20T11:26:16.933Z</time></trkpt><trkpt lat="32.91166" lon="10.2595567"><ele>411.0</ele><time>2026-04-20T11:26:17.932Z</time></trkpt><trkpt lat="32.91176" lon="10.25956"><ele>411.0</ele><time>2026-04-20T11:26:18.933Z</time></trkpt><trkpt lat="32.91187" lon="10.2595467"><ele>412.0</ele><time>2026-04-20T11:26:19.933Z</time></trkpt><trkpt lat="32.911995" lon="10.2595167"><ele>413.0</ele><time>2026-04-20T11:26:20.933Z</time></trkpt><trkpt lat="32.9121167" lon="10.2594617"><ele>414.0</ele><time>2026-04-20T11:26:21.933Z</time></trkpt><trkpt lat="32.912225" lon="10.2594033"><ele>415.0</ele><time>2026-04-20T11:26:22.933Z</time></trkpt><trkpt lat="32.912335" lon="10.2593317"><ele>415.0</ele><time>2026-04-20T11:26:23.933Z</time></trkpt><trkpt lat="32.9124533" lon="10.2592733"><ele>415.0</ele><time>2026-04-20T11:26:24.933Z</time></trkpt><trkpt lat="32.9125583" lon="10.25923"><ele>415.0</ele><time>2026-04-20T11:26:25.933Z</time></trkpt><trkpt lat="32.9126633" lon="10.2592083"><ele>415.0</ele><time>2026-04-20T11:26:26.933Z</time></trkpt><trkpt lat="32.9127733" lon="10.259195"><ele>413.8</ele><time>2026-04-20T11:26:27.933Z</time></trkpt><trkpt lat="32.9128833" lon="10.2591933"><ele>412.6</ele><time>2026-04-20T11:26:28.933Z</time></trkpt><trkpt lat="32.91298" lon="10.25921"><ele>411.4</ele><time>2026-04-20T11:26:29.933Z</time></trkpt><trkpt lat="32.91307" lon="10.259235"><ele>410.2</ele><time>2026-04-20T11:26:30.933Z</time></trkpt><trkpt lat="32.9131583" lon="10.2592733"><ele>409.0</ele><time>2026-04-20T11:26:31.933Z</time></trkpt><trkpt lat="32.91325" lon="10.2593117"><ele>409.0</ele><time>2026-04-20T11:26:32.933Z</time></trkpt><trkpt lat="32.91334" lon="10.2593633"><ele>409.0</ele><time>2026-04-20T11:26:33.933Z</time></trkpt><trkpt lat="32.9134233" lon="10.2594367"><ele>409.0</ele><time>2026-04-20T11:26:34.933Z</time></trkpt><trkpt lat="32.913495" lon="10.2595233"><ele>409.0</ele><time>2026-04-20T11:26:35.933Z</time></trkpt><trkpt lat="32.9135617" lon="10.2596233"><ele>409.0</ele><time>2026-04-20T11:26:36.933Z</time></trkpt><trkpt lat="32.9136233" lon="10.2597333"><ele>409.0</ele><time>2026-04-20T11:26:37.933Z</time></trkpt><trkpt lat="32.913685" lon="10.259845"><ele>409.0</ele><time>2026-04-20T11:26:38.933Z</time></trkpt><trkpt lat="32.91375" lon="10.2599533"><ele>409.0</ele><time>2026-04-20T11:26:39.933Z</time></trkpt><trkpt lat="32.9138117" lon="10.260055"><ele>409.0</ele><time>2026-04-20T11:26:40.933Z</time></trkpt><trkpt lat="32.9138783" lon="10.260135"><ele>409.0</ele><time>2026-04-20T11:26:41.933Z</time></trkpt><trkpt lat="32.9139533" lon="10.2601883"><ele>409.00000000000006</ele><time>2026-04-20T11:26:42.933Z</time></trkpt><trkpt lat="32.9140317" lon="10.2602117"><ele>409.0</ele><time>2026-04-20T11:26:43.933Z</time></trkpt><trkpt lat="32.9141133" lon="10.26023"><ele>409.0</ele><time>2026-04-20T11:26:44.933Z</time></trkpt><trkpt lat="32.9141883" lon="10.2602617"><ele>409.0</ele><time>2026-04-20T11:26:45.933Z</time></trkpt><trkpt lat="32.9142517" lon="10.26031"><ele>409.00000000000006</ele><time>2026-04-20T11:26:46.933Z</time></trkpt><trkpt lat="32.9143033" lon="10.2603767"><ele>409.0</ele><time>2026-04-20T11:26:47.933Z</time></trkpt><trkpt lat="32.9143433" lon="10.2604417"><ele>406.4</ele><time>2026-04-20T11:26:48.933Z</time></trkpt><trkpt lat="32.9143983" lon="10.2605667"><ele>403.79999999999995</ele><time>2026-04-20T11:26:50.933Z</time></trkpt><trkpt lat="32.914395" lon="10.2606833"><ele>401.20000000000005</ele><time>2026-04-20T11:26:52.933Z</time></trkpt><trkpt lat="32.9143467" lon="10.2607917"><ele>398.6</ele><time>2026-04-20T11:26:54.933Z</time></trkpt><trkpt lat="32.91428" lon="10.2608983"><ele>396.0</ele><time>2026-04-20T11:26:56.933Z</time></trkpt><trkpt lat="32.9142483" lon="10.2609717"><ele>399.42857142857144</ele><time>2026-04-20T11:26:57.933Z</time></trkpt><trkpt lat="32.9142233" lon="10.2610517"><ele>402.85714285714283</ele><time>2026-04-20T11:26:58.933Z</time></trkpt><trkpt lat="32.9142067" lon="10.261135"><ele>406.2857142857143</ele><time>2026-04-20T11:26:59.933Z</time></trkpt><trkpt lat="32.9142" lon="10.2612167"><ele>409.7142857142857</ele><time>2026-04-20T11:27:00.933Z</time></trkpt><trkpt lat="32.914195" lon="10.2613017"><ele>413.1428571428571</ele><time>2026-04-20T11:27:01.933Z</time></trkpt><trkpt lat="32.914195" lon="10.2613833"><ele>416.57142857142856</ele><time>2026-04-20T11:27:02.933Z</time></trkpt><trkpt lat="32.9142033" lon="10.2614733"><ele>420.0</ele><time>2026-04-20T11:27:03.933Z</time></trkpt><trkpt lat="32.914215" lon="10.2615717"><ele>420.5</ele><time>2026-04-20T11:27:04.933Z</time></trkpt><trkpt lat="32.91422" lon="10.2616767"><ele>421.0</ele><time>2026-04-20T11:27:05.933Z</time></trkpt><trkpt lat="32.9142283" lon="10.2617833"><ele>421.5</ele><time>2026-04-20T11:27:06.933Z</time></trkpt><trkpt lat="32.91423" lon="10.261885"><ele>422.0</ele><time>2026-04-20T11:27:07.933Z</time></trkpt><trkpt lat="32.9142267" lon="10.2619783"><ele>422.5</ele><time>2026-04-20T11:27:08.933Z</time></trkpt><trkpt lat="32.9142167" lon="10.26207"><ele>423.0</ele><time>2026-04-20T11:27:09.933Z</time></trkpt><trkpt lat="32.9141967" lon="10.2621667"><ele>423.0</ele><time>2026-04-20T11:27:10.933Z</time></trkpt><trkpt lat="32.9141717" lon="10.2622683"><ele>423.0</ele><time>2026-04-20T11:27:11.933Z</time></trkpt><trkpt lat="32.914145" lon="10.262375"><ele>423.0</ele><time>2026-04-20T11:27:12.933Z</time></trkpt><trkpt lat="32.9141183" lon="10.262475"><ele>423.0</ele><time>2026-04-20T11:27:13.933Z</time></trkpt><trkpt lat="32.914085" lon="10.2625817"><ele>423.0</ele><time>2026-04-20T11:27:14.933Z</time></trkpt><trkpt lat="32.91405" lon="10.262695"><ele>422.4</ele><time>2026-04-20T11:27:15.933Z</time></trkpt><trkpt lat="32.9140233" lon="10.262805"><ele>421.79999999999995</ele><time>2026-04-20T11:27:16.933Z</time></trkpt><trkpt lat="32.913995" lon="10.2629267"><ele>421.2</ele><time>2026-04-20T11:27:17.933Z</time></trkpt><trkpt lat="32.91398" lon="10.2630433"><ele>420.6</ele><time>2026-04-20T11:27:18.933Z</time></trkpt><trkpt lat="32.9139717" lon="10.263165"><ele>420.0</ele><time>2026-04-20T11:27:19.933Z</time></trkpt><trkpt lat="32.9139683" lon="10.263285"><ele>419.8333333333333</ele><time>2026-04-20T11:27:20.933Z</time></trkpt><trkpt lat="32.9139733" lon="10.26341"><ele>419.66666666666663</ele><time>2026-04-20T11:27:21.933Z</time></trkpt><trkpt lat="32.9139917" lon="10.2635167"><ele>419.5</ele><time>2026-04-20T11:27:22.933Z</time></trkpt><trkpt lat="32.9140067" lon="10.2636117"><ele>419.3333333333333</ele><time>2026-04-20T11:27:23.933Z</time></trkpt><trkpt lat="32.91401" lon="10.2637"><ele>419.16666666666663</ele><time>2026-04-20T11:27:24.933Z</time></trkpt><trkpt lat="32.91401" lon="10.2637917"><ele>419.0</ele><time>2026-04-20T11:27:25.933Z</time></trkpt><trkpt lat="32.9140083" lon="10.2639017"><ele>419.66666666666663</ele><time>2026-04-20T11:27:26.933Z</time></trkpt><trkpt lat="32.9140017" lon="10.26401"><ele>420.3333333333333</ele><time>2026-04-20T11:27:27.933Z</time></trkpt><trkpt lat="32.9139883" lon="10.264115"><ele>421.0</ele><time>2026-04-20T11:27:28.933Z</time></trkpt><trkpt lat="32.913955" lon="10.2642083"><ele>421.66666666666663</ele><time>2026-04-20T11:27:29.933Z</time></trkpt><trkpt lat="32.9139083" lon="10.2642817"><ele>422.3333333333333</ele><time>2026-04-20T11:27:30.933Z</time></trkpt><trkpt lat="32.9138533" lon="10.264335"><ele>423.0</ele><time>2026-04-20T11:27:31.933Z</time></trkpt><trkpt lat="32.91378" lon="10.2643817"><ele>423.0</ele><time>2026-04-20T11:27:32.933Z</time></trkpt><trkpt lat="32.9136917" lon="10.2644183"><ele>423.0</ele><time>2026-04-20T11:27:33.933Z</time></trkpt><trkpt lat="32.9136017" lon="10.2644467"><ele>423.0</ele><time>2026-04-20T11:27:34.933Z</time></trkpt><trkpt lat="32.91351" lon="10.2644733"><ele>423.0</ele><time>2026-04-20T11:27:35.933Z</time></trkpt><trkpt lat="32.913415" lon="10.2645083"><ele>423.0</ele><time>2026-04-20T11:27:36.933Z</time></trkpt><trkpt lat="32.9133217" lon="10.2645467"><ele>425.4</ele><time>2026-04-20T11:27:37.933Z</time></trkpt><trkpt lat="32.91322" lon="10.2645867"><ele>427.79999999999995</ele><time>2026-04-20T11:27:38.933Z</time></trkpt><trkpt lat="32.9131233" lon="10.2646283"><ele>430.2</ele><time>2026-04-20T11:27:39.933Z</time></trkpt><trkpt lat="32.91303" lon="10.26467"><ele>432.6</ele><time>2026-04-20T11:27:40.933Z</time></trkpt><trkpt lat="32.9129433" lon="10.264705"><ele>435.0</ele><time>2026-04-20T11:27:41.933Z</time></trkpt><trkpt lat="32.91286" lon="10.2647283"><ele>435.0</ele><time>2026-04-20T11:27:42.933Z</time></trkpt><trkpt lat="32.9127817" lon="10.2647667"><ele>435.0</ele><time>2026-04-20T11:27:43.933Z</time></trkpt><trkpt lat="32.9127117" lon="10.2648167"><ele>435.0</ele><time>2026-04-20T11:27:44.933Z</time></trkpt><trkpt lat="32.91265" lon="10.2648783"><ele>435.0</ele><time>2026-04-20T11:27:45.933Z</time></trkpt><trkpt lat="32.9125967" lon="10.2649633"><ele>435.0</ele><time>2026-04-20T11:27:46.933Z</time></trkpt><trkpt lat="32.9125467" lon="10.2650467"><ele>435.0</ele><time>2026-04-20T11:27:47.933Z</time></trkpt><trkpt lat="32.9124967" lon="10.2651267"><ele>434.2</ele><time>2026-04-20T11:27:48.933Z</time></trkpt><trkpt lat="32.9124533" lon="10.26522"><ele>433.4</ele><time>2026-04-20T11:27:49.933Z</time></trkpt><trkpt lat="32.91241" lon="10.265305"><ele>432.6</ele><time>2026-04-20T11:27:50.933Z</time></trkpt><trkpt lat="32.912365" lon="10.265415"><ele>431.8</ele><time>2026-04-20T11:27:51.933Z</time></trkpt><trkpt lat="32.912325" lon="10.265525"><ele>431.0</ele><time>2026-04-20T11:27:52.933Z</time></trkpt><trkpt lat="32.9122917" lon="10.2656283"><ele>429.8333333333333</ele><time>2026-04-20T11:27:53.933Z</time></trkpt><trkpt lat="32.91226" lon="10.2657333"><ele>428.66666666666663</ele><time>2026-04-20T11:27:54.933Z</time></trkpt><trkpt lat="32.9122283" lon="10.2658283"><ele>427.5</ele><time>2026-04-20T11:27:55.933Z</time></trkpt><trkpt lat="32.9121833" lon="10.265915"><ele>426.33333333333337</ele><time>2026-04-20T11:27:56.933Z</time></trkpt><trkpt lat="32.912125" lon="10.2659967"><ele>425.1666666666667</ele><time>2026-04-20T11:27:57.933Z</time></trkpt><trkpt lat="32.9120667" lon="10.26608"><ele>424.0</ele><time>2026-04-20T11:27:58.933Z</time></trkpt><trkpt lat="32.9120033" lon="10.2661667"><ele>424.0</ele><time>2026-04-20T11:27:59.933Z</time></trkpt><trkpt lat="32.911935" lon="10.2662467"><ele>424.0</ele><time>2026-04-20T11:28:00.933Z</time></trkpt><trkpt lat="32.9118683" lon="10.266335"><ele>424.0</ele><time>2026-04-20T11:28:01.933Z</time></trkpt><trkpt lat="32.9117983" lon="10.2664117"><ele>424.0</ele><time>2026-04-20T11:28:02.933Z</time></trkpt><trkpt lat="32.911725" lon="10.2664817"><ele>424.0</ele><time>2026-04-20T11:28:03.933Z</time></trkpt><trkpt lat="32.911655" lon="10.2665467"><ele>424.33333333333337</ele><time>2026-04-20T11:28:04.933Z</time></trkpt><trkpt lat="32.911585" lon="10.266605"><ele>424.6666666666667</ele><time>2026-04-20T11:28:05.933Z</time></trkpt><trkpt lat="32.911515" lon="10.26666"><ele>425.0</ele><time>2026-04-20T11:28:06.933Z</time></trkpt><trkpt lat="32.9114467" lon="10.266715"><ele>425.33333333333337</ele><time>2026-04-20T11:28:07.933Z</time></trkpt><trkpt lat="32.9113833" lon="10.2667783"><ele>425.6666666666667</ele><time>2026-04-20T11:28:08.933Z</time></trkpt><trkpt lat="32.9113283" lon="10.26685"><ele>426.0</ele><time>2026-04-20T11:28:09.933Z</time></trkpt><trkpt lat="32.9112817" lon="10.26693"><ele>426.0</ele><time>2026-04-20T11:28:10.933Z</time></trkpt><trkpt lat="32.9112383" lon="10.2670167"><ele>426.0</ele><time>2026-04-20T11:28:11.933Z</time></trkpt><trkpt lat="32.9112133" lon="10.2670983"><ele>426.0</ele><time>2026-04-20T11:28:12.933Z</time></trkpt><trkpt lat="32.91121" lon="10.2671767"><ele>426.0</ele><time>2026-04-20T11:28:13.933Z</time></trkpt><trkpt lat="32.9112333" lon="10.2672667"><ele>426.0</ele><time>2026-04-20T11:28:14.933Z</time></trkpt><trkpt lat="32.9112733" lon="10.2673483"><ele>426.0</ele><time>2026-04-20T11:28:15.933Z</time></trkpt><trkpt lat="32.91131" lon="10.267425"><ele>424.1666666666667</ele><time>2026-04-20T11:28:16.933Z</time></trkpt><trkpt lat="32.91134" lon="10.2675017"><ele>422.33333333333337</ele><time>2026-04-20T11:28:17.933Z</time></trkpt><trkpt lat="32.9113583" lon="10.2675817"><ele>420.5</ele><time>2026-04-20T11:28:18.933Z</time></trkpt><trkpt lat="32.9113733" lon="10.26772"><ele>418.6666666666667</ele><time>2026-04-20T11:28:20.933Z</time></trkpt><trkpt lat="32.9113733" lon="10.2678167"><ele>416.83333333333337</ele><time>2026-04-20T11:28:22.933Z</time></trkpt><trkpt lat="32.9113617" lon="10.2679083"><ele>415.0</ele><time>2026-04-20T11:28:24.933Z</time></trkpt><trkpt lat="32.911305" lon="10.2679867"><ele>415.00000000000006</ele><time>2026-04-20T11:28:27.933Z</time></trkpt><trkpt lat="32.9112617" lon="10.2679317"><ele>415.0</ele><time>2026-04-20T11:28:30.933Z</time></trkpt><trkpt lat="32.9112683" lon="10.2678133"><ele>415.0</ele><time>2026-04-20T11:28:32.933Z</time></trkpt><trkpt lat="32.911265" lon="10.2677333"><ele>415.0</ele><time>2026-04-20T11:28:33.933Z</time></trkpt><trkpt lat="32.9112517" lon="10.267645"><ele>415.00000000000006</ele><time>2026-04-20T11:28:34.933Z</time></trkpt><trkpt lat="32.911235" lon="10.2675567"><ele>415.0</ele><time>2026-04-20T11:28:35.933Z</time></trkpt><trkpt lat="32.9112117" lon="10.2674667"><ele>415.00000000000006</ele><time>2026-04-20T11:28:36.933Z</time></trkpt><trkpt lat="32.91118" lon="10.267375"><ele>415.0</ele><time>2026-04-20T11:28:37.933Z</time></trkpt><trkpt lat="32.91114" lon="10.2672783"><ele>415.0</ele><time>2026-04-20T11:28:38.933Z</time></trkpt><trkpt lat="32.9111017" lon="10.26718"><ele>415.0</ele><time>2026-04-20T11:28:39.933Z</time></trkpt><trkpt lat="32.9110667" lon="10.2670817"><ele>415.00000000000006</ele><time>2026-04-20T11:28:40.933Z</time></trkpt><trkpt lat="32.911005" lon="10.2670017"><ele>415.0</ele><time>2026-04-20T11:28:41.933Z</time></trkpt><trkpt lat="32.9109817" lon="10.266915"><ele>416.83333333333337</ele><time>2026-04-20T11:28:42.933Z</time></trkpt><trkpt lat="32.9110033" lon="10.266825"><ele>418.6666666666667</ele><time>2026-04-20T11:28:43.933Z</time></trkpt><trkpt lat="32.9110483" lon="10.2667533"><ele>420.5</ele><time>2026-04-20T11:28:44.933Z</time></trkpt><trkpt lat="32.911105" lon="10.2666817"><ele>422.33333333333337</ele><time>2026-04-20T11:28:45.933Z</time></trkpt><trkpt lat="32.911165" lon="10.2666267"><ele>424.1666666666667</ele><time>2026-04-20T11:28:46.933Z</time></trkpt><trkpt lat="32.9112167" lon="10.2665717"><ele>426.0</ele><time>2026-04-20T11:28:47.933Z</time></trkpt><trkpt lat="32.91127" lon="10.26652"><ele>426.0</ele><time>2026-04-20T11:28:48.933Z</time></trkpt><trkpt lat="32.9113233" lon="10.26647"><ele>426.0</ele><time>2026-04-20T11:28:49.933Z</time></trkpt><trkpt lat="32.91139" lon="10.2663617"><ele>426.0</ele><time>2026-04-20T11:28:51.933Z</time></trkpt><trkpt lat="32.911395" lon="10.2662333"><ele>426.0</ele><time>2026-04-20T11:28:53.933Z</time></trkpt><trkpt lat="32.9114033" lon="10.2661067"><ele>426.0</ele><time>2026-04-20T11:28:55.933Z</time></trkpt><trkpt lat="32.9114083" lon="10.2659833"><ele>430.0</ele><time>2026-04-20T11:28:57.933Z</time></trkpt><trkpt lat="32.9114283" lon="10.26587"><ele>434.0</ele><time>2026-04-20T11:28:59.933Z</time></trkpt><trkpt lat="32.9114767" lon="10.26575"><ele>438.0</ele><time>2026-04-20T11:29:01.933Z</time></trkpt><trkpt lat="32.91154" lon="10.2656483"><ele>442.0</ele><time>2026-04-20T11:29:03.933Z</time></trkpt><trkpt lat="32.911605" lon="10.2655433"><ele>446.0</ele><time>2026-04-20T11:29:05.933Z</time></trkpt><trkpt lat="32.9116433" lon="10.2654333"><ele>448.6</ele><time>2026-04-20T11:29:07.933Z</time></trkpt><trkpt lat="32.911625" lon="10.26532"><ele>451.20000000000005</ele><time>2026-04-20T11:29:09.932Z</time></trkpt><trkpt lat="32.9116117" lon="10.2652017"><ele>453.79999999999995</ele><time>2026-04-20T11:29:11.932Z</time></trkpt><trkpt lat="32.911645" lon="10.2650667"><ele>456.4</ele><time>2026-04-20T11:29:13.932Z</time></trkpt><trkpt lat="32.9116817" lon="10.264925"><ele>459.0</ele><time>2026-04-20T11:29:15.932Z</time></trkpt><trkpt lat="32.9117017" lon="10.2647867"><ele>459.0</ele><time>2026-04-20T11:29:17.932Z</time></trkpt><trkpt lat="32.9117233" lon="10.2646867"><ele>459.0</ele><time>2026-04-20T11:29:19.932Z</time></trkpt><trkpt lat="32.9116367" lon="10.264735"><ele>459.0</ele><time>2026-04-20T11:29:26.932Z</time></trkpt><trkpt lat="32.9115933" lon="10.2648633"><ele>459.0</ele><time>2026-04-20T11:29:28.932Z</time></trkpt><trkpt lat="32.911535" lon="10.2649517"><ele>459.0</ele><time>2026-04-20T11:29:30.932Z</time></trkpt><trkpt lat="32.9114967" lon="10.26488"><ele>461.1666666666667</ele><time>2026-04-20T11:29:37.932Z</time></trkpt><trkpt lat="32.9115117" lon="10.2647517"><ele>463.33333333333337</ele><time>2026-04-20T11:29:39.932Z</time></trkpt><trkpt lat="32.9115233" lon="10.2646767"><ele>465.5</ele><time>2026-04-20T11:29:40.933Z</time></trkpt><trkpt lat="32.91153" lon="10.2646017"><ele>467.6666666666667</ele><time>2026-04-20T11:29:41.932Z</time></trkpt><trkpt lat="32.9115333" lon="10.264525"><ele>469.83333333333337</ele><time>2026-04-20T11:29:42.932Z</time></trkpt><trkpt lat="32.9115833" lon="10.2643917"><ele>472.0</ele><time>2026-04-20T11:29:44.932Z</time></trkpt><trkpt lat="32.9116433" lon="10.2642633"><ele>472.00000000000006</ele><time>2026-04-20T11:29:46.932Z</time></trkpt><trkpt lat="32.9116933" lon="10.2641433"><ele>472.0</ele><time>2026-04-20T11:29:48.932Z</time></trkpt><trkpt lat="32.9117283" lon="10.2640283"><ele>472.0</ele><time>2026-04-20T11:29:50.932Z</time></trkpt><trkpt lat="32.9117433" lon="10.263945"><ele>472.0</ele><time>2026-04-20T11:29:57.932Z</time></trkpt><trkpt lat="32.91174" lon="10.2638617"><ele>472.00000000000006</ele><time>2026-04-20T11:30:02.932Z</time></trkpt><trkpt lat="32.9117133" lon="10.2639617"><ele>472.0</ele><time>2026-04-20T11:50:16.925Z</time></trkpt><trkpt lat="32.9116967" lon="10.26406"><ele>472.0</ele><time>2026-04-20T11:50:19.925Z</time></trkpt><trkpt lat="32.9116733" lon="10.2641517"><ele>472.00000000000006</ele><time>2026-04-20T11:50:21.925Z</time></trkpt><trkpt lat="32.91164" lon="10.2642533"><ele>472.00000000000006</ele><time>2026-04-20T11:50:23.925Z</time></trkpt><trkpt lat="32.911585" lon="10.2643683"><ele>472.0</ele><time>2026-04-20T11:50:25.925Z</time></trkpt><trkpt lat="32.9115433" lon="10.2644867"><ele>472.0</ele><time>2026-04-20T11:50:27.925Z</time></trkpt><trkpt lat="32.9115333" lon="10.2646083"><ele>472.0</ele><time>2026-04-20T11:50:29.925Z</time></trkpt><trkpt lat="32.9115283" lon="10.2647233"><ele>472.00000000000006</ele><time>2026-04-20T11:50:31.925Z</time></trkpt><trkpt lat="32.9115267" lon="10.2648267"><ele>472.00000000000006</ele><time>2026-04-20T11:50:33.925Z</time></trkpt><trkpt lat="32.9115233" lon="10.2649067"><ele>472.0</ele><time>2026-04-20T11:50:35.925Z</time></trkpt><trkpt lat="32.9115817" lon="10.26481"><ele>472.0</ele><time>2026-04-20T11:51:13.924Z</time></trkpt><trkpt lat="32.9116183" lon="10.26469"><ele>472.00000000000006</ele><time>2026-04-20T11:51:15.924Z</time></trkpt><trkpt lat="32.9116617" lon="10.2646267"><ele>472.0</ele><time>2026-04-20T11:51:17.924Z</time></trkpt><trkpt lat="32.9116867" lon="10.2647317"><ele>472.0</ele><time>2026-04-20T11:51:20.924Z</time></trkpt><trkpt lat="32.91168" lon="10.264815"><ele>472.0</ele><time>2026-04-20T11:51:21.924Z</time></trkpt><trkpt lat="32.9116667" lon="10.2649167"><ele>472.00000000000006</ele><time>2026-04-20T11:51:22.924Z</time></trkpt><trkpt lat="32.9116383" lon="10.265035"><ele>472.0</ele><time>2026-04-20T11:51:23.924Z</time></trkpt><trkpt lat="32.9116217" lon="10.265145"><ele>470.1428571428571</ele><time>2026-04-20T11:51:24.924Z</time></trkpt><trkpt lat="32.9116117" lon="10.2652417"><ele>468.28571428571433</ele><time>2026-04-20T11:51:25.924Z</time></trkpt><trkpt lat="32.9116133" lon="10.2653317"><ele>466.42857142857144</ele><time>2026-04-20T11:51:26.924Z</time></trkpt><trkpt lat="32.9116183" lon="10.26541"><ele>464.57142857142856</ele><time>2026-04-20T11:51:27.924Z</time></trkpt><trkpt lat="32.9116217" lon="10.265485"><ele>462.71428571428567</ele><time>2026-04-20T11:51:28.924Z</time></trkpt><trkpt lat="32.9116067" lon="10.2655867"><ele>460.8571428571429</ele><time>2026-04-20T11:51:30.924Z</time></trkpt><trkpt lat="32.911565" lon="10.2656583"><ele>459.0</ele><time>2026-04-20T11:51:32.924Z</time></trkpt><trkpt lat="32.9115283" lon="10.2657283"><ele>456.8333333333333</ele><time>2026-04-20T11:51:34.924Z</time></trkpt><trkpt lat="32.9114617" lon="10.265805"><ele>454.66666666666663</ele><time>2026-04-20T11:51:36.924Z</time></trkpt><trkpt lat="32.9114117" lon="10.26593"><ele>452.5</ele><time>2026-04-20T11:51:38.924Z</time></trkpt><trkpt lat="32.9114033" lon="10.2660167"><ele>450.3333333333333</ele><time>2026-04-20T11:51:39.924Z</time></trkpt><trkpt lat="32.9114083" lon="10.2661167"><ele>448.16666666666663</ele><time>2026-04-20T11:51:40.924Z</time></trkpt><trkpt lat="32.91141" lon="10.2662117"><ele>446.0</ele><time>2026-04-20T11:51:41.924Z</time></trkpt><trkpt lat="32.911405" lon="10.2662967"><ele>445.99999999999994</ele><time>2026-04-20T11:51:42.924Z</time></trkpt><trkpt lat="32.91139" lon="10.2663733"><ele>446.0</ele><time>2026-04-20T11:51:43.924Z</time></trkpt><trkpt lat="32.91136" lon="10.2664483"><ele>446.0</ele><time>2026-04-20T11:51:44.924Z</time></trkpt><trkpt lat="32.9113067" lon="10.2665217"><ele>446.0</ele><time>2026-04-20T11:51:45.924Z</time></trkpt><trkpt lat="32.911245" lon="10.2665867"><ele>445.99999999999994</ele><time>2026-04-20T11:51:46.924Z</time></trkpt><trkpt lat="32.9111733" lon="10.26666"><ele>446.0</ele><time>2026-04-20T11:51:47.924Z</time></trkpt><trkpt lat="32.9111117" lon="10.2667383"><ele>442.0</ele><time>2026-04-20T11:51:48.924Z</time></trkpt><trkpt lat="32.9110617" lon="10.26682"><ele>438.0</ele><time>2026-04-20T11:51:49.924Z</time></trkpt><trkpt lat="32.91104" lon="10.26692"><ele>434.0</ele><time>2026-04-20T11:51:50.924Z</time></trkpt><trkpt lat="32.9110417" lon="10.2670267"><ele>430.0</ele><time>2026-04-20T11:51:51.924Z</time></trkpt><trkpt lat="32.9110617" lon="10.267135"><ele>426.0</ele><time>2026-04-20T11:51:52.924Z</time></trkpt><trkpt lat="32.9110983" lon="10.26724"><ele>423.8</ele><time>2026-04-20T11:51:53.924Z</time></trkpt><trkpt lat="32.9111467" lon="10.2673417"><ele>421.6</ele><time>2026-04-20T11:51:54.924Z</time></trkpt><trkpt lat="32.911185" lon="10.26745"><ele>419.4</ele><time>2026-04-20T11:51:55.924Z</time></trkpt><trkpt lat="32.9112183" lon="10.2675633"><ele>417.2</ele><time>2026-04-20T11:51:56.924Z</time></trkpt><trkpt lat="32.9112517" lon="10.26768"><ele>415.0</ele><time>2026-04-20T11:51:57.924Z</time></trkpt><trkpt lat="32.9112717" lon="10.2677767"><ele>415.00000000000006</ele><time>2026-04-20T11:51:58.924Z</time></trkpt><trkpt lat="32.91128" lon="10.2678683"><ele>415.0</ele><time>2026-04-20T11:51:59.924Z</time></trkpt><trkpt lat="32.911285" lon="10.2679433"><ele>415.0</ele><time>2026-04-20T11:52:00.924Z</time></trkpt><trkpt lat="32.9112917" lon="10.2680383"><ele>415.0</ele><time>2026-04-20T11:52:02.924Z</time></trkpt><trkpt lat="32.9113667" lon="10.26804"><ele>415.00000000000006</ele><time>2026-04-20T11:52:06.924Z</time></trkpt><trkpt lat="32.9114" lon="10.26796"><ele>415.0</ele><time>2026-04-20T11:52:08.924Z</time></trkpt><trkpt lat="32.9114083" lon="10.2678417"><ele>415.00000000000006</ele><time>2026-04-20T11:52:10.924Z</time></trkpt><trkpt lat="32.9114083" lon="10.2677333"><ele>415.0</ele><time>2026-04-20T11:52:12.924Z</time></trkpt><trkpt lat="32.9113883" lon="10.267605"><ele>415.0</ele><time>2026-04-20T11:52:14.924Z</time></trkpt><trkpt lat="32.9113667" lon="10.2675267"><ele>415.0</ele><time>2026-04-20T11:52:15.924Z</time></trkpt><trkpt lat="32.91134" lon="10.2674433"><ele>415.00000000000006</ele><time>2026-04-20T11:52:16.924Z</time></trkpt><trkpt lat="32.9113117" lon="10.26736"><ele>415.0</ele><time>2026-04-20T11:52:17.924Z</time></trkpt><trkpt lat="32.9112783" lon="10.26727"><ele>416.83333333333337</ele><time>2026-04-20T11:52:18.924Z</time></trkpt><trkpt lat="32.9112533" lon="10.26718"><ele>418.6666666666667</ele><time>2026-04-20T11:52:19.924Z</time></trkpt><trkpt lat="32.91125" lon="10.267085"><ele>420.5</ele><time>2026-04-20T11:52:20.924Z</time></trkpt><trkpt lat="32.9112717" lon="10.2669917"><ele>422.33333333333337</ele><time>2026-04-20T11:52:21.924Z</time></trkpt><trkpt lat="32.911315" lon="10.2668983"><ele>424.1666666666667</ele><time>2026-04-20T11:52:22.924Z</time></trkpt><trkpt lat="32.9113717" lon="10.26682"><ele>426.0</ele><time>2026-04-20T11:52:23.924Z</time></trkpt><trkpt lat="32.911445" lon="10.2667367"><ele>426.0</ele><time>2026-04-20T11:52:24.924Z</time></trkpt><trkpt lat="32.9115283" lon="10.26666"><ele>426.0</ele><time>2026-04-20T11:52:25.924Z</time></trkpt><trkpt lat="32.9116167" lon="10.2665883"><ele>426.0</ele><time>2026-04-20T11:52:26.924Z</time></trkpt><trkpt lat="32.911705" lon="10.26652"><ele>426.0</ele><time>2026-04-20T11:52:27.924Z</time></trkpt><trkpt lat="32.9117883" lon="10.266455"><ele>426.0</ele><time>2026-04-20T11:52:28.924Z</time></trkpt><trkpt lat="32.9118717" lon="10.2663767"><ele>425.5</ele><time>2026-04-20T11:52:29.924Z</time></trkpt><trkpt lat="32.911955" lon="10.2662867"><ele>425.0</ele><time>2026-04-20T11:52:30.924Z</time></trkpt><trkpt lat="32.91203" lon="10.2661817"><ele>424.5</ele><time>2026-04-20T11:52:31.924Z</time></trkpt><trkpt lat="32.9121033" lon="10.26607"><ele>424.0</ele><time>2026-04-20T11:52:32.924Z</time></trkpt><trkpt lat="32.9121733" lon="10.2659683"><ele>424.0</ele><time>2026-04-20T11:52:33.924Z</time></trkpt><trkpt lat="32.91224" lon="10.265855"><ele>424.0</ele><time>2026-04-20T11:52:34.924Z</time></trkpt><trkpt lat="32.91229" lon="10.2657233"><ele>424.0</ele><time>2026-04-20T11:52:35.924Z</time></trkpt><trkpt lat="32.9123367" lon="10.26557"><ele>424.0</ele><time>2026-04-20T11:52:36.924Z</time></trkpt><trkpt lat="32.91239" lon="10.26542"><ele>422.5</ele><time>2026-04-20T11:52:37.924Z</time></trkpt><trkpt lat="32.9124533" lon="10.2652833"><ele>421.0</ele><time>2026-04-20T11:52:38.924Z</time></trkpt><trkpt lat="32.9125183" lon="10.2651467"><ele>419.5</ele><time>2026-04-20T11:52:39.924Z</time></trkpt><trkpt lat="32.91259" lon="10.2650167"><ele>418.0</ele><time>2026-04-20T11:52:40.924Z</time></trkpt><trkpt lat="32.9126617" lon="10.2648983"><ele>418.0</ele><time>2026-04-20T11:52:41.924Z</time></trkpt><trkpt lat="32.9127433" lon="10.2647983"><ele>418.0</ele><time>2026-04-20T11:52:42.924Z</time></trkpt><trkpt lat="32.912845" lon="10.2647317"><ele>418.0</ele><time>2026-04-20T11:52:43.924Z</time></trkpt><trkpt lat="32.9129533" lon="10.2646767"><ele>418.0</ele><time>2026-04-20T11:52:44.924Z</time></trkpt><trkpt lat="32.913065" lon="10.2646317"><ele>419.25</ele><time>2026-04-20T11:52:45.924Z</time></trkpt><trkpt lat="32.913195" lon="10.2645917"><ele>420.5</ele><time>2026-04-20T11:52:46.924Z</time></trkpt><trkpt lat="32.913325" lon="10.2645467"><ele>421.75</ele><time>2026-04-20T11:52:47.924Z</time></trkpt><trkpt lat="32.913465" lon="10.2645033"><ele>423.0</ele><time>2026-04-20T11:52:48.924Z</time></trkpt><trkpt lat="32.913605" lon="10.2644633"><ele>423.0</ele><time>2026-04-20T11:52:49.924Z</time></trkpt><trkpt lat="32.91373" lon="10.2644167"><ele>423.0</ele><time>2026-04-20T11:52:50.924Z</time></trkpt><trkpt lat="32.9138383" lon="10.26436"><ele>423.0</ele><time>2026-04-20T11:52:51.924Z</time></trkpt><trkpt lat="32.91392" lon="10.26429"><ele>423.0</ele><time>2026-04-20T11:52:52.924Z</time></trkpt><trkpt lat="32.9139767" lon="10.2642117"><ele>423.0</ele><time>2026-04-20T11:52:53.924Z</time></trkpt><trkpt lat="32.91401" lon="10.264125"><ele>423.0</ele><time>2026-04-20T11:52:54.924Z</time></trkpt><trkpt lat="32.91403" lon="10.2640267"><ele>423.0</ele><time>2026-04-20T11:52:55.924Z</time></trkpt><trkpt lat="32.91403" lon="10.2639167"><ele>423.0</ele><time>2026-04-20T11:52:56.924Z</time></trkpt><trkpt lat="32.9140233" lon="10.2638083"><ele>423.0</ele><time>2026-04-20T11:52:57.924Z</time></trkpt><trkpt lat="32.9140167" lon="10.2637067"><ele>423.0</ele><time>2026-04-20T11:52:58.924Z</time></trkpt><trkpt lat="32.9140133" lon="10.2636067"><ele>423.0</ele><time>2026-04-20T11:52:59.924Z</time></trkpt><trkpt lat="32.9140117" lon="10.2635017"><ele>422.4</ele><time>2026-04-20T11:53:00.924Z</time></trkpt><trkpt lat="32.9140083" lon="10.2633817"><ele>421.79999999999995</ele><time>2026-04-20T11:53:01.924Z</time></trkpt><trkpt lat="32.9140017" lon="10.2632517"><ele>421.2</ele><time>2026-04-20T11:53:02.924Z</time></trkpt><trkpt lat="32.9140017" lon="10.263115"><ele>420.6</ele><time>2026-04-20T11:53:03.924Z</time></trkpt><trkpt lat="32.91402" lon="10.2629767"><ele>420.0</ele><time>2026-04-20T11:53:04.924Z</time></trkpt><trkpt lat="32.9140417" lon="10.2628333"><ele>420.0</ele><time>2026-04-20T11:53:05.924Z</time></trkpt><trkpt lat="32.914075" lon="10.262695"><ele>420.0</ele><time>2026-04-20T11:53:06.924Z</time></trkpt><trkpt lat="32.9141217" lon="10.262555"><ele>420.0</ele><time>2026-04-20T11:53:07.924Z</time></trkpt><trkpt lat="32.9141567" lon="10.2624167"><ele>420.0</ele><time>2026-04-20T11:53:08.924Z</time></trkpt><trkpt lat="32.9141917" lon="10.2622783"><ele>420.75</ele><time>2026-04-20T11:53:09.924Z</time></trkpt><trkpt lat="32.9142283" lon="10.26214"><ele>421.5</ele><time>2026-04-20T11:53:10.924Z</time></trkpt><trkpt lat="32.9142533" lon="10.26201"><ele>422.25</ele><time>2026-04-20T11:53:11.924Z</time></trkpt><trkpt lat="32.9142667" lon="10.2618817"><ele>423.0</ele><time>2026-04-20T11:53:12.924Z</time></trkpt><trkpt lat="32.9142617" lon="10.2617517"><ele>423.0</ele><time>2026-04-20T11:53:13.924Z</time></trkpt><trkpt lat="32.914245" lon="10.2616283"><ele>423.0</ele><time>2026-04-20T11:53:14.924Z</time></trkpt><trkpt lat="32.9142233" lon="10.261505"><ele>423.0</ele><time>2026-04-20T11:53:15.924Z</time></trkpt><trkpt lat="32.914205" lon="10.261375"><ele>423.0</ele><time>2026-04-20T11:53:16.925Z</time></trkpt><trkpt lat="32.9142083" lon="10.2612467"><ele>423.0</ele><time>2026-04-20T11:53:17.924Z</time></trkpt><trkpt lat="32.91422" lon="10.261115"><ele>417.59999999999997</ele><time>2026-04-20T11:53:18.924Z</time></trkpt><trkpt lat="32.91424" lon="10.26099"><ele>412.2</ele><time>2026-04-20T11:53:19.924Z</time></trkpt><trkpt lat="32.91427" lon="10.2608883"><ele>406.8</ele><time>2026-04-20T11:53:20.923Z</time></trkpt><trkpt lat="32.91431" lon="10.2608083"><ele>401.4</ele><time>2026-04-20T11:53:21.924Z</time></trkpt><trkpt lat="32.9143483" lon="10.2607383"><ele>396.0</ele><time>2026-04-20T11:53:22.924Z</time></trkpt><trkpt lat="32.9144133" lon="10.2606417"><ele>395.0</ele><time>2026-04-20T11:53:24.924Z</time></trkpt><trkpt lat="32.914445" lon="10.2605667"><ele>394.0</ele><time>2026-04-20T11:53:26.924Z</time></trkpt><trkpt lat="32.91442" lon="10.260465"><ele>393.0</ele><time>2026-04-20T11:53:28.924Z</time></trkpt><trkpt lat="32.9143517" lon="10.2603617"><ele>392.0</ele><time>2026-04-20T11:53:30.924Z</time></trkpt><trkpt lat="32.914255" lon="10.260265"><ele>391.0</ele><time>2026-04-20T11:53:32.924Z</time></trkpt><trkpt lat="32.914195" lon="10.26023"><ele>393.57142857142856</ele><time>2026-04-20T11:53:33.924Z</time></trkpt><trkpt lat="32.91413" lon="10.2602033"><ele>396.1428571428571</ele><time>2026-04-20T11:53:34.924Z</time></trkpt><trkpt lat="32.914065" lon="10.260185"><ele>398.71428571428567</ele><time>2026-04-20T11:53:35.924Z</time></trkpt><trkpt lat="32.913995" lon="10.2601683"><ele>401.2857142857143</ele><time>2026-04-20T11:53:36.924Z</time></trkpt><trkpt lat="32.9139283" lon="10.260145"><ele>403.8571428571429</ele><time>2026-04-20T11:53:37.924Z</time></trkpt><trkpt lat="32.9138717" lon="10.2601033"><ele>406.4285714285714</ele><time>2026-04-20T11:53:38.924Z</time></trkpt><trkpt lat="32.913825" lon="10.2600433"><ele>409.0</ele><time>2026-04-20T11:53:39.924Z</time></trkpt><trkpt lat="32.9137783" lon="10.259975"><ele>409.00000000000006</ele><time>2026-04-20T11:53:40.924Z</time></trkpt><trkpt lat="32.9137383" lon="10.2598983"><ele>409.0</ele><time>2026-04-20T11:53:41.924Z</time></trkpt><trkpt lat="32.9136983" lon="10.25982"><ele>409.0</ele><time>2026-04-20T11:53:42.924Z</time></trkpt><trkpt lat="32.91366" lon="10.2597417"><ele>409.0</ele><time>2026-04-20T11:53:43.924Z</time></trkpt><trkpt lat="32.9136217" lon="10.259665"><ele>409.00000000000006</ele><time>2026-04-20T11:53:44.924Z</time></trkpt><trkpt lat="32.91358" lon="10.2595883"><ele>409.0</ele><time>2026-04-20T11:53:45.924Z</time></trkpt><trkpt lat="32.9135383" lon="10.2595117"><ele>409.00000000000006</ele><time>2026-04-20T11:53:46.924Z</time></trkpt><trkpt lat="32.9134817" lon="10.25944"><ele>409.0</ele><time>2026-04-20T11:53:47.924Z</time></trkpt><trkpt lat="32.913415" lon="10.2593783"><ele>409.0</ele><time>2026-04-20T11:53:48.924Z</time></trkpt><trkpt lat="32.913345" lon="10.25933"><ele>409.0</ele><time>2026-04-20T11:53:49.924Z</time></trkpt><trkpt lat="32.9132683" lon="10.259295"><ele>409.00000000000006</ele><time>2026-04-20T11:53:50.924Z</time></trkpt><trkpt lat="32.9131917" lon="10.259265"><ele>409.0</ele><time>2026-04-20T11:53:51.924Z</time></trkpt><trkpt lat="32.9131167" lon="10.25924"><ele>409.00000000000006</ele><time>2026-04-20T11:53:52.924Z</time></trkpt><trkpt lat="32.9130383" lon="10.2592167"><ele>409.0</ele><time>2026-04-20T11:53:53.924Z</time></trkpt><trkpt lat="32.9129517" lon="10.259195"><ele>409.0</ele><time>2026-04-20T11:53:54.924Z</time></trkpt><trkpt lat="32.9128633" lon="10.25918"><ele>409.0</ele><time>2026-04-20T11:53:55.923Z</time></trkpt><trkpt lat="32.9127817" lon="10.259175"><ele>409.00000000000006</ele><time>2026-04-20T11:53:56.923Z</time></trkpt><trkpt lat="32.9126833" lon="10.2591833"><ele>409.0</ele><time>2026-04-20T11:53:57.923Z</time></trkpt><trkpt lat="32.9125883" lon="10.2592033"><ele>410.2</ele><time>2026-04-20T11:53:58.923Z</time></trkpt><trkpt lat="32.912495" lon="10.2592283"><ele>411.4</ele><time>2026-04-20T11:53:59.923Z</time></trkpt><trkpt lat="32.9124083" lon="10.2592717"><ele>412.6</ele><time>2026-04-20T11:54:00.923Z</time></trkpt><trkpt lat="32.9123183" lon="10.2593233"><ele>413.8</ele><time>2026-04-20T11:54:01.923Z</time></trkpt><trkpt lat="32.9122283" lon="10.259375"><ele>415.0</ele><time>2026-04-20T11:54:02.923Z</time></trkpt><trkpt lat="32.91214" lon="10.2594233"><ele>415.0</ele><time>2026-04-20T11:54:03.923Z</time></trkpt><trkpt lat="32.9120467" lon="10.2594617"><ele>415.0</ele><time>2026-04-20T11:54:04.923Z</time></trkpt><trkpt lat="32.91195" lon="10.2595033"><ele>415.0</ele><time>2026-04-20T11:54:05.923Z</time></trkpt><trkpt lat="32.91185" lon="10.2595367"><ele>415.0</ele><time>2026-04-20T11:54:06.923Z</time></trkpt><trkpt lat="32.9117517" lon="10.2595667"><ele>415.0</ele><time>2026-04-20T11:54:07.923Z</time></trkpt><trkpt lat="32.9116567" lon="10.259565"><ele>414.2</ele><time>2026-04-20T11:54:08.923Z</time></trkpt><trkpt lat="32.9115517" lon="10.2595583"><ele>413.4</ele><time>2026-04-20T11:54:09.923Z</time></trkpt><trkpt lat="32.911445" lon="10.2595583"><ele>412.6</ele><time>2026-04-20T11:54:10.923Z</time></trkpt><trkpt lat="32.91134" lon="10.2595617"><ele>411.8</ele><time>2026-04-20T11:54:11.923Z</time></trkpt><trkpt lat="32.911245" lon="10.2595767"><ele>411.0</ele><time>2026-04-20T11:54:12.923Z</time></trkpt><trkpt lat="32.9111567" lon="10.2596083"><ele>411.0</ele><time>2026-04-20T11:54:13.923Z</time></trkpt><trkpt lat="32.9110633" lon="10.2596567"><ele>411.0</ele><time>2026-04-20T11:54:14.923Z</time></trkpt><trkpt lat="32.9109767" lon="10.2597133"><ele>411.0</ele><time>2026-04-20T11:54:15.923Z</time></trkpt><trkpt lat="32.9108967" lon="10.2597833"><ele>411.0</ele><time>2026-04-20T11:54:16.923Z</time></trkpt><trkpt lat="32.9108283" lon="10.25987"><ele>411.0</ele><time>2026-04-20T11:54:17.923Z</time></trkpt><trkpt lat="32.9107783" lon="10.2599733"><ele>413.6</ele><time>2026-04-20T11:54:18.923Z</time></trkpt><trkpt lat="32.9107517" lon="10.2600833"><ele>416.20000000000005</ele><time>2026-04-20T11:54:19.923Z</time></trkpt><trkpt lat="32.9107367" lon="10.2602017"><ele>418.79999999999995</ele><time>2026-04-20T11:54:20.923Z</time></trkpt><trkpt lat="32.9107233" lon="10.2603233"><ele>421.4</ele><time>2026-04-20T11:54:21.923Z</time></trkpt><trkpt lat="32.910725" lon="10.2604433"><ele>424.0</ele><time>2026-04-20T11:54:22.923Z</time></trkpt><trkpt lat="32.9107233" lon="10.2605583"><ele>425.50000000000006</ele><time>2026-04-20T11:54:23.924Z</time></trkpt><trkpt lat="32.9107233" lon="10.2606717"><ele>427.0</ele><time>2026-04-20T11:54:24.923Z</time></trkpt><trkpt lat="32.9107133" lon="10.260785"><ele>428.5</ele><time>2026-04-20T11:54:25.923Z</time></trkpt><trkpt lat="32.910695" lon="10.260885"><ele>430.0</ele><time>2026-04-20T11:54:26.923Z</time></trkpt><trkpt lat="32.910675" lon="10.2609733"><ele>431.50000000000006</ele><time>2026-04-20T11:54:27.923Z</time></trkpt><trkpt lat="32.9106333" lon="10.2610417"><ele>433.0</ele><time>2026-04-20T11:54:28.923Z</time></trkpt><trkpt lat="32.9105183" lon="10.261115"><ele>433.00000000000006</ele><time>2026-04-20T11:54:30.923Z</time></trkpt><trkpt lat="32.9104533" lon="10.2611467"><ele>433.0</ele><time>2026-04-20T11:54:31.923Z</time></trkpt><trkpt lat="32.9103817" lon="10.261175"><ele>433.0</ele><time>2026-04-20T11:54:32.923Z</time></trkpt><trkpt lat="32.9103017" lon="10.2611967"><ele>433.0</ele><time>2026-04-20T11:54:33.923Z</time></trkpt><trkpt lat="32.9102067" lon="10.2612083"><ele>433.00000000000006</ele><time>2026-04-20T11:54:34.923Z</time></trkpt><trkpt lat="32.9101067" lon="10.2612067"><ele>433.0</ele><time>2026-04-20T11:54:35.923Z</time></trkpt><trkpt lat="32.9100117" lon="10.2611817"><ele>429.75</ele><time>2026-04-20T11:54:36.923Z</time></trkpt><trkpt lat="32.909915" lon="10.2611317"><ele>426.5</ele><time>2026-04-20T11:54:37.923Z</time></trkpt><trkpt lat="32.90982" lon="10.2610617"><ele>423.25</ele><time>2026-04-20T11:54:38.923Z</time></trkpt><trkpt lat="32.909715" lon="10.261"><ele>420.0</ele><time>2026-04-20T11:54:39.923Z</time></trkpt><trkpt lat="32.9096117" lon="10.2609233"><ele>420.0</ele><time>2026-04-20T11:54:40.923Z</time></trkpt><trkpt lat="32.9094967" lon="10.26085"><ele>420.0</ele><time>2026-04-20T11:54:41.923Z</time></trkpt><trkpt lat="32.90939" lon="10.2607767"><ele>420.0</ele><time>2026-04-20T11:54:42.923Z</time></trkpt><trkpt lat="32.9092783" lon="10.2606983"><ele>420.0</ele><time>2026-04-20T11:54:43.923Z</time></trkpt><trkpt lat="32.90917" lon="10.260635"><ele>419.0</ele><time>2026-04-20T11:54:44.923Z</time></trkpt><trkpt lat="32.909065" lon="10.2606033"><ele>418.0</ele><time>2026-04-20T11:54:45.923Z</time></trkpt><trkpt lat="32.908955" lon="10.2605983"><ele>417.0</ele><time>2026-04-20T11:54:46.923Z</time></trkpt><trkpt lat="32.908845" lon="10.260605"><ele>416.0</ele><time>2026-04-20T11:54:47.923Z</time></trkpt><trkpt lat="32.9087233" lon="10.2606383"><ele>419.5</ele><time>2026-04-20T11:54:48.923Z</time></trkpt><trkpt lat="32.9086" lon="10.2606683"><ele>423.0</ele><time>2026-04-20T11:54:49.923Z</time></trkpt><trkpt lat="32.90848" lon="10.260675"><ele>426.5</ele><time>2026-04-20T11:54:50.923Z</time></trkpt><trkpt lat="32.908355" lon="10.260655"><ele>430.0</ele><time>2026-04-20T11:54:51.923Z</time></trkpt><trkpt lat="32.9082283" lon="10.2606267"><ele>430.75</ele><time>2026-04-20T11:54:52.923Z</time></trkpt><trkpt lat="32.9081083" lon="10.2605967"><ele>431.5</ele><time>2026-04-20T11:54:53.923Z</time></trkpt><trkpt lat="32.9079917" lon="10.2606"><ele>432.25</ele><time>2026-04-20T11:54:54.923Z</time></trkpt><trkpt lat="32.90787" lon="10.2606383"><ele>433.0</ele><time>2026-04-20T11:54:55.923Z</time></trkpt><trkpt lat="32.9077483" lon="10.2606883"><ele>433.0</ele><time>2026-04-20T11:54:56.923Z</time></trkpt><trkpt lat="32.9076183" lon="10.2607483"><ele>433.0</ele><time>2026-04-20T11:54:57.923Z</time></trkpt><trkpt lat="32.9074867" lon="10.2608133"><ele>433.0</ele><time>2026-04-20T11:54:58.923Z</time></trkpt><trkpt lat="32.9073567" lon="10.260885"><ele>433.0</ele><time>2026-04-20T11:54:59.923Z</time></trkpt><trkpt lat="32.9072267" lon="10.2609567"><ele>431.75</ele><time>2026-04-20T11:55:00.923Z</time></trkpt><trkpt lat="32.9070933" lon="10.2610383"><ele>430.5</ele><time>2026-04-20T11:55:01.923Z</time></trkpt><trkpt lat="32.9069717" lon="10.261125"><ele>429.25</ele><time>2026-04-20T11:55:02.923Z</time></trkpt><trkpt lat="32.9068517" lon="10.2612217"><ele>428.0</ele><time>2026-04-20T11:55:03.923Z</time></trkpt><trkpt lat="32.9067283" lon="10.2613283"><ele>428.0</ele><time>2026-04-20T11:55:04.923Z</time></trkpt><trkpt lat="32.9066167" lon="10.2614417"><ele>428.0</ele><time>2026-04-20T11:55:05.923Z</time></trkpt><trkpt lat="32.9065167" lon="10.2615633"><ele>428.0</ele><time>2026-04-20T11:55:06.923Z</time></trkpt><trkpt lat="32.9064283" lon="10.261695"><ele>428.0</ele><time>2026-04-20T11:55:07.923Z</time></trkpt><trkpt lat="32.9063583" lon="10.261835"><ele>428.0</ele><time>2026-04-20T11:55:08.923Z</time></trkpt><trkpt lat="32.906295" lon="10.2619783"><ele>428.0</ele><time>2026-04-20T11:55:09.923Z</time></trkpt><trkpt lat="32.9062167" lon="10.262085"><ele>428.0</ele><time>2026-04-20T11:55:10.923Z</time></trkpt><trkpt lat="32.9061233" lon="10.2621733"><ele>428.0</ele><time>2026-04-20T11:55:11.923Z</time></trkpt><trkpt lat="32.9060133" lon="10.26223"><ele>424.5</ele><time>2026-04-20T11:55:12.923Z</time></trkpt><trkpt lat="32.9058983" lon="10.2622317"><ele>421.0</ele><time>2026-04-20T11:55:13.923Z</time></trkpt><trkpt lat="32.9057817" lon="10.2622033"><ele>417.5</ele><time>2026-04-20T11:55:14.923Z</time></trkpt><trkpt lat="32.9056717" lon="10.262145"><ele>414.0</ele><time>2026-04-20T11:55:15.923Z</time></trkpt><trkpt lat="32.905565" lon="10.2620617"><ele>414.0</ele><time>2026-04-20T11:55:16.923Z</time></trkpt><trkpt lat="32.9054667" lon="10.2619683"><ele>414.0</ele><time>2026-04-20T11:55:17.923Z</time></trkpt><trkpt lat="32.905375" lon="10.261855"><ele>414.0</ele><time>2026-04-20T11:55:18.923Z</time></trkpt><trkpt lat="32.9052983" lon="10.261715"><ele>414.0</ele><time>2026-04-20T11:55:19.923Z</time></trkpt><trkpt lat="32.9052283" lon="10.2615583"><ele>414.25</ele><time>2026-04-20T11:55:20.923Z</time></trkpt><trkpt lat="32.9051533" lon="10.2614067"><ele>414.5</ele><time>2026-04-20T11:55:21.923Z</time></trkpt><trkpt lat="32.9050583" lon="10.261275"><ele>414.75</ele><time>2026-04-20T11:55:22.923Z</time></trkpt><trkpt lat="32.90494" lon="10.261165"><ele>415.0</ele><time>2026-04-20T11:55:23.923Z</time></trkpt><trkpt lat="32.9048167" lon="10.2610867"><ele>415.0</ele><time>2026-04-20T11:55:24.923Z</time></trkpt><trkpt lat="32.904675" lon="10.2610317"><ele>415.0</ele><time>2026-04-20T11:55:25.923Z</time></trkpt><trkpt lat="32.9045317" lon="10.26099"><ele>415.0</ele><time>2026-04-20T11:55:26.923Z</time></trkpt><trkpt lat="32.9043883" lon="10.2609767"><ele>415.0</ele><time>2026-04-20T11:55:27.923Z</time></trkpt><trkpt lat="32.9042317" lon="10.260985"><ele>417.33333333333337</ele><time>2026-04-20T11:55:28.923Z</time></trkpt><trkpt lat="32.9040717" lon="10.26101"><ele>419.66666666666663</ele><time>2026-04-20T11:55:29.923Z</time></trkpt><trkpt lat="32.9039033" lon="10.2610333"><ele>422.0</ele><time>2026-04-20T11:55:30.923Z</time></trkpt><trkpt lat="32.903735" lon="10.2610633"><ele>422.0</ele><time>2026-04-20T11:55:31.923Z</time></trkpt><trkpt lat="32.90358" lon="10.2611067"><ele>422.0</ele><time>2026-04-20T11:55:32.923Z</time></trkpt><trkpt lat="32.9034267" lon="10.2611617"><ele>422.0</ele><time>2026-04-20T11:55:33.923Z</time></trkpt><trkpt lat="32.9033" lon="10.26125"><ele>421.5</ele><time>2026-04-20T11:55:34.923Z</time></trkpt><trkpt lat="32.9031967" lon="10.2613617"><ele>421.0</ele><time>2026-04-20T11:55:35.923Z</time></trkpt><trkpt lat="32.9031133" lon="10.2614867"><ele>420.5</ele><time>2026-04-20T11:55:36.923Z</time></trkpt><trkpt lat="32.90304" lon="10.261625"><ele>420.0</ele><time>2026-04-20T11:55:37.923Z</time></trkpt><trkpt lat="32.902975" lon="10.261765"><ele>424.0</ele><time>2026-04-20T11:55:38.923Z</time></trkpt><trkpt lat="32.90291" lon="10.261885"><ele>428.0</ele><time>2026-04-20T11:55:39.923Z</time></trkpt><trkpt lat="32.90283" lon="10.2619933"><ele>432.0</ele><time>2026-04-20T11:55:40.923Z</time></trkpt><trkpt lat="32.9027367" lon="10.2620567"><ele>436.0</ele><time>2026-04-20T11:55:41.923Z</time></trkpt><trkpt lat="32.9026283" lon="10.2620617"><ele>432.6</ele><time>2026-04-20T11:55:42.923Z</time></trkpt><trkpt lat="32.90253" lon="10.2620317"><ele>429.20000000000005</ele><time>2026-04-20T11:55:43.923Z</time></trkpt><trkpt lat="32.9024483" lon="10.2619633"><ele>425.79999999999995</ele><time>2026-04-20T11:55:44.923Z</time></trkpt><trkpt lat="32.9023717" lon="10.261865"><ele>422.4</ele><time>2026-04-20T11:55:45.923Z</time></trkpt><trkpt lat="32.9023117" lon="10.2617517"><ele>419.0</ele><time>2026-04-20T11:55:46.923Z</time></trkpt><trkpt lat="32.9022467" lon="10.2616333"><ele>419.0</ele><time>2026-04-20T11:55:47.923Z</time></trkpt><trkpt lat="32.9021783" lon="10.2615133"><ele>419.0</ele><time>2026-04-20T11:55:48.923Z</time></trkpt><trkpt lat="32.9021117" lon="10.26139"><ele>419.0</ele><time>2026-04-20T11:55:49.923Z</time></trkpt><trkpt lat="32.9020483" lon="10.2612683"><ele>419.0</ele><time>2026-04-20T11:55:50.923Z</time></trkpt><trkpt lat="32.9019933" lon="10.2611533"><ele>417.2</ele><time>2026-04-20T11:55:51.923Z</time></trkpt><trkpt lat="32.901965" lon="10.2610383"><ele>415.4</ele><time>2026-04-20T11:55:52.923Z</time></trkpt><trkpt lat="32.9019617" lon="10.2609317"><ele>413.6</ele><time>2026-04-20T11:55:53.923Z</time></trkpt><trkpt lat="32.9019933" lon="10.2608317"><ele>411.8</ele><time>2026-04-20T11:55:54.923Z</time></trkpt><trkpt lat="32.9020383" lon="10.2607333"><ele>410.0</ele><time>2026-04-20T11:55:55.923Z</time></trkpt><trkpt lat="32.9020883" lon="10.2606283"><ele>409.75</ele><time>2026-04-20T11:55:56.923Z</time></trkpt><trkpt lat="32.9021317" lon="10.2604967"><ele>409.5</ele><time>2026-04-20T11:55:57.923Z</time></trkpt><trkpt lat="32.902165" lon="10.2603533"><ele>409.25</ele><time>2026-04-20T11:55:58.923Z</time></trkpt><trkpt lat="32.9021883" lon="10.260195"><ele>409.0</ele><time>2026-04-20T11:55:59.923Z</time></trkpt><trkpt lat="32.90219" lon="10.2600267"><ele>409.0</ele><time>2026-04-20T11:56:00.923Z</time></trkpt><trkpt lat="32.90218" lon="10.2598583"><ele>409.0</ele><time>2026-04-20T11:56:01.923Z</time></trkpt><trkpt lat="32.90218" lon="10.2596867"><ele>409.0</ele><time>2026-04-20T11:56:02.923Z</time></trkpt><trkpt lat="32.902195" lon="10.2595083"><ele>409.0</ele><time>2026-04-20T11:56:03.923Z</time></trkpt><trkpt lat="32.9022167" lon="10.25933"><ele>409.25</ele><time>2026-04-20T11:56:04.923Z</time></trkpt><trkpt lat="32.9022567" lon="10.2591633"><ele>409.5</ele><time>2026-04-20T11:56:05.923Z</time></trkpt><trkpt lat="32.9022817" lon="10.2589867"><ele>409.75</ele><time>2026-04-20T11:56:06.923Z</time></trkpt><trkpt lat="32.9022967" lon="10.2588133"><ele>410.0</ele><time>2026-04-20T11:56:07.923Z</time></trkpt><trkpt lat="32.9022867" lon="10.2586283"><ele>409.3333333333333</ele><time>2026-04-20T11:56:08.923Z</time></trkpt><trkpt lat="32.9022583" lon="10.258445"><ele>408.66666666666663</ele><time>2026-04-20T11:56:09.923Z</time></trkpt><trkpt lat="32.9022083" lon="10.2582633"><ele>408.0</ele><time>2026-04-20T11:56:10.923Z</time></trkpt><trkpt lat="32.9021383" lon="10.2580833"><ele>407.33333333333337</ele><time>2026-04-20T11:56:11.923Z</time></trkpt><trkpt lat="32.9020567" lon="10.25792"><ele>406.6666666666667</ele><time>2026-04-20T11:56:12.923Z</time></trkpt><trkpt lat="32.9019767" lon="10.257765"><ele>406.0</ele><time>2026-04-20T11:56:13.923Z</time></trkpt><trkpt lat="32.9018917" lon="10.25762"><ele>406.0</ele><time>2026-04-20T11:56:14.923Z</time></trkpt><trkpt lat="32.9018167" lon="10.2574767"><ele>406.0</ele><time>2026-04-20T11:56:15.923Z</time></trkpt><trkpt lat="32.9017867" lon="10.2573217"><ele>406.0</ele><time>2026-04-20T11:56:16.923Z</time></trkpt><trkpt lat="32.9017883" lon="10.25715"><ele>406.0</ele><time>2026-04-20T11:56:17.923Z</time></trkpt><trkpt lat="32.9018117" lon="10.256985"><ele>406.6</ele><time>2026-04-20T11:56:18.923Z</time></trkpt><trkpt lat="32.9018617" lon="10.2568383"><ele>407.20000000000005</ele><time>2026-04-20T11:56:19.923Z</time></trkpt><trkpt lat="32.9019167" lon="10.25673"><ele>407.79999999999995</ele><time>2026-04-20T11:56:20.923Z</time></trkpt><trkpt lat="32.9019733" lon="10.2566317"><ele>408.4</ele><time>2026-04-20T11:56:21.923Z</time></trkpt><trkpt lat="32.90202" lon="10.2565283"><ele>409.0</ele><time>2026-04-20T11:56:22.923Z</time></trkpt><trkpt lat="32.90203" lon="10.256405"><ele>409.25</ele><time>2026-04-20T11:56:23.923Z</time></trkpt><trkpt lat="32.902005" lon="10.25627"><ele>409.5</ele><time>2026-04-20T11:56:24.923Z</time></trkpt><trkpt lat="32.9019817" lon="10.256125"><ele>409.75</ele><time>2026-04-20T11:56:25.923Z</time></trkpt><trkpt lat="32.901955" lon="10.2559733"><ele>410.0</ele><time>2026-04-20T11:56:26.923Z</time></trkpt><trkpt lat="32.9019333" lon="10.2558083"><ele>410.0</ele><time>2026-04-20T11:56:27.923Z</time></trkpt><trkpt lat="32.901915" lon="10.255645"><ele>410.0</ele><time>2026-04-20T11:56:28.923Z</time></trkpt><trkpt lat="32.9019" lon="10.2554867"><ele>410.0</ele><time>2026-04-20T11:56:29.923Z</time></trkpt><trkpt lat="32.9018683" lon="10.2553417"><ele>410.0</ele><time>2026-04-20T11:56:30.923Z</time></trkpt><trkpt lat="32.9018117" lon="10.2552033"><ele>409.75</ele><time>2026-04-20T11:56:31.923Z</time></trkpt><trkpt lat="32.9017383" lon="10.25507"><ele>409.5</ele><time>2026-04-20T11:56:32.923Z</time></trkpt><trkpt lat="32.901635" lon="10.25495"><ele>409.25</ele><time>2026-04-20T11:56:33.923Z</time></trkpt><trkpt lat="32.901525" lon="10.2548333"><ele>409.0</ele><time>2026-04-20T11:56:34.923Z</time></trkpt><trkpt lat="32.9014083" lon="10.254715"><ele>409.0</ele><time>2026-04-20T11:56:35.923Z</time></trkpt><trkpt lat="32.9013" lon="10.2545767"><ele>409.0</ele><time>2026-04-20T11:56:36.923Z</time></trkpt><trkpt lat="32.9012017" lon="10.2544067"><ele>409.0</ele><time>2026-04-20T11:56:37.923Z</time></trkpt><trkpt lat="32.9011133" lon="10.25423"><ele>409.0</ele><time>2026-04-20T11:56:38.923Z</time></trkpt><trkpt lat="32.9010283" lon="10.25404"><ele>409.0</ele><time>2026-04-20T11:56:39.923Z</time></trkpt><trkpt lat="32.90096" lon="10.2538467"><ele>409.0</ele><time>2026-04-20T11:56:40.923Z</time></trkpt><trkpt lat="32.9008867" lon="10.2536417"><ele>410.33333333333337</ele><time>2026-04-20T11:56:41.923Z</time></trkpt><trkpt lat="32.90082" lon="10.25343"><ele>411.66666666666663</ele><time>2026-04-20T11:56:42.923Z</time></trkpt><trkpt lat="32.90077" lon="10.25321"><ele>413.0</ele><time>2026-04-20T11:56:43.923Z</time></trkpt><trkpt lat="32.9007383" lon="10.2530017"><ele>413.0</ele><time>2026-04-20T11:56:44.923Z</time></trkpt><trkpt lat="32.9007067" lon="10.252805"><ele>413.0</ele><time>2026-04-20T11:56:45.923Z</time></trkpt><trkpt lat="32.900675" lon="10.252605"><ele>413.0</ele><time>2026-04-20T11:56:46.923Z</time></trkpt><trkpt lat="32.9006267" lon="10.2524117"><ele>413.3333333333333</ele><time>2026-04-20T11:56:47.922Z</time></trkpt><trkpt lat="32.9005717" lon="10.2522167"><ele>413.66666666666663</ele><time>2026-04-20T11:56:48.922Z</time></trkpt><trkpt lat="32.9005" lon="10.25203"><ele>414.0</ele><time>2026-04-20T11:56:49.922Z</time></trkpt><trkpt lat="32.9004233" lon="10.2518417"><ele>414.0</ele><time>2026-04-20T11:56:50.922Z</time></trkpt><trkpt lat="32.9003333" lon="10.251655"><ele>414.0</ele><time>2026-04-20T11:56:51.922Z</time></trkpt><trkpt lat="32.9002483" lon="10.251475"><ele>414.0</ele><time>2026-04-20T11:56:52.922Z</time></trkpt><trkpt lat="32.90016" lon="10.251285"><ele>414.0</ele><time>2026-04-20T11:56:53.922Z</time></trkpt><trkpt lat="32.90007" lon="10.2510933"><ele>414.0</ele><time>2026-04-20T11:56:54.922Z</time></trkpt><trkpt lat="32.8999867" lon="10.2509"><ele>414.0</ele><time>2026-04-20T11:56:55.922Z</time></trkpt><trkpt lat="32.8999067" lon="10.2507083"><ele>415.0</ele><time>2026-04-20T11:56:56.922Z</time></trkpt><trkpt lat="32.8998217" lon="10.2505183"><ele>416.0</ele><time>2026-04-20T11:56:57.922Z</time></trkpt><trkpt lat="32.8997333" lon="10.2503383"><ele>417.0</ele><time>2026-04-20T11:56:58.922Z</time></trkpt><trkpt lat="32.8996533" lon="10.25015"><ele>417.0</ele><time>2026-04-20T11:56:59.922Z</time></trkpt><trkpt lat="32.89958" lon="10.2499633"><ele>417.0</ele><time>2026-04-20T11:57:00.922Z</time></trkpt><trkpt lat="32.8995083" lon="10.24978"><ele>417.0</ele><time>2026-04-20T11:57:01.922Z</time></trkpt><trkpt lat="32.8994567" lon="10.2495917"><ele>419.0</ele><time>2026-04-20T11:57:02.922Z</time></trkpt><trkpt lat="32.8993933" lon="10.2494033"><ele>421.0</ele><time>2026-04-20T11:57:03.922Z</time></trkpt><trkpt lat="32.899335" lon="10.2492133"><ele>423.0</ele><time>2026-04-20T11:57:04.922Z</time></trkpt><trkpt lat="32.8992733" lon="10.2490167"><ele>423.66666666666663</ele><time>2026-04-20T11:57:05.922Z</time></trkpt><trkpt lat="32.8991983" lon="10.248825"><ele>424.3333333333333</ele><time>2026-04-20T11:57:06.922Z</time></trkpt><trkpt lat="32.8991317" lon="10.248625"><ele>425.0</ele><time>2026-04-20T11:57:07.922Z</time></trkpt><trkpt lat="32.899065" lon="10.2484417"><ele>425.0</ele><time>2026-04-20T11:57:08.922Z</time></trkpt><trkpt lat="32.898975" lon="10.248285"><ele>425.0</ele><time>2026-04-20T11:57:09.922Z</time></trkpt><trkpt lat="32.898875" lon="10.248155"><ele>425.0</ele><time>2026-04-20T11:57:10.922Z</time></trkpt><trkpt lat="32.8987667" lon="10.248055"><ele>425.0</ele><time>2026-04-20T11:57:11.922Z</time></trkpt><trkpt lat="32.8986283" lon="10.2479967"><ele>426.5</ele><time>2026-04-20T11:57:12.922Z</time></trkpt><trkpt lat="32.8984833" lon="10.2479567"><ele>428.0</ele><time>2026-04-20T11:57:13.922Z</time></trkpt><trkpt lat="32.89834" lon="10.2479233"><ele>429.5</ele><time>2026-04-20T11:57:14.922Z</time></trkpt><trkpt lat="32.89819" lon="10.2478917"><ele>431.0</ele><time>2026-04-20T11:57:15.922Z</time></trkpt><trkpt lat="32.89804" lon="10.247855"><ele>431.0</ele><time>2026-04-20T11:57:16.922Z</time></trkpt><trkpt lat="32.8978833" lon="10.2478167"><ele>431.0</ele><time>2026-04-20T11:57:17.922Z</time></trkpt><trkpt lat="32.8977317" lon="10.24778"><ele>431.0</ele><time>2026-04-20T11:57:18.922Z</time></trkpt><trkpt lat="32.8975817" lon="10.2477383"><ele>430.0</ele><time>2026-04-20T11:57:19.922Z</time></trkpt><trkpt lat="32.8974333" lon="10.2476967"><ele>429.0</ele><time>2026-04-20T11:57:20.922Z</time></trkpt><trkpt lat="32.8972833" lon="10.2476433"><ele>428.0</ele><time>2026-04-20T11:57:21.922Z</time></trkpt><trkpt lat="32.8971433" lon="10.2475767"><ele>428.0</ele><time>2026-04-20T11:57:22.922Z</time></trkpt><trkpt lat="32.897" lon="10.247495"><ele>428.0</ele><time>2026-04-20T11:57:23.922Z</time></trkpt><trkpt lat="32.8968567" lon="10.247405"><ele>428.0</ele><time>2026-04-20T11:57:24.922Z</time></trkpt><trkpt lat="32.8967033" lon="10.2473117"><ele>428.3333333333333</ele><time>2026-04-20T11:57:25.922Z</time></trkpt><trkpt lat="32.8965483" lon="10.2472183"><ele>428.66666666666663</ele><time>2026-04-20T11:57:26.922Z</time></trkpt><trkpt lat="32.896395" lon="10.2471233"><ele>429.0</ele><time>2026-04-20T11:57:27.922Z</time></trkpt><trkpt lat="32.8962467" lon="10.24703"><ele>429.0</ele><time>2026-04-20T11:57:28.922Z</time></trkpt><trkpt lat="32.89611" lon="10.2469233"><ele>429.0</ele><time>2026-04-20T11:57:29.922Z</time></trkpt><trkpt lat="32.8959917" lon="10.24679"><ele>429.0</ele><time>2026-04-20T11:57:30.922Z</time></trkpt><trkpt lat="32.8958783" lon="10.2466617"><ele>429.66666666666663</ele><time>2026-04-20T11:57:31.922Z</time></trkpt><trkpt lat="32.8957617" lon="10.24653"><ele>430.3333333333333</ele><time>2026-04-20T11:57:32.922Z</time></trkpt><trkpt lat="32.89565" lon="10.2463983"><ele>431.0</ele><time>2026-04-20T11:57:33.922Z</time></trkpt><trkpt lat="32.895525" lon="10.246265"><ele>432.0</ele><time>2026-04-20T11:57:34.922Z</time></trkpt><trkpt lat="32.8954033" lon="10.2461317"><ele>433.0</ele><time>2026-04-20T11:57:35.922Z</time></trkpt><trkpt lat="32.8952733" lon="10.2460083"><ele>434.0</ele><time>2026-04-20T11:57:36.922Z</time></trkpt><trkpt lat="32.8951417" lon="10.2458833"><ele>435.0</ele><time>2026-04-20T11:57:37.922Z</time></trkpt><trkpt lat="32.894995" lon="10.24577"><ele>436.0</ele><time>2026-04-20T11:57:38.922Z</time></trkpt><trkpt lat="32.8948483" lon="10.2456517"><ele>437.0</ele><time>2026-04-20T11:57:39.922Z</time></trkpt><trkpt lat="32.89469" lon="10.2455367"><ele>437.66666666666663</ele><time>2026-04-20T11:57:40.922Z</time></trkpt><trkpt lat="32.8945283" lon="10.2454283"><ele>438.33333333333337</ele><time>2026-04-20T11:57:41.922Z</time></trkpt><trkpt lat="32.8943767" lon="10.2453233"><ele>439.0</ele><time>2026-04-20T11:57:42.922Z</time></trkpt><trkpt lat="32.8942267" lon="10.2452217"><ele>437.33333333333337</ele><time>2026-04-20T11:57:43.922Z</time></trkpt><trkpt lat="32.8940833" lon="10.24513"><ele>435.66666666666663</ele><time>2026-04-20T11:57:44.922Z</time></trkpt><trkpt lat="32.8939317" lon="10.2450483"><ele>434.0</ele><time>2026-04-20T11:57:45.922Z</time></trkpt><trkpt lat="32.8937833" lon="10.244975"><ele>434.0</ele><time>2026-04-20T11:57:46.922Z</time></trkpt><trkpt lat="32.8936167" lon="10.244905"><ele>434.0</ele><time>2026-04-20T11:57:47.922Z</time></trkpt><trkpt lat="32.8934633" lon="10.2448217"><ele>434.0</ele><time>2026-04-20T11:57:48.922Z</time></trkpt><trkpt lat="32.8933233" lon="10.244715"><ele>436.3333333333333</ele><time>2026-04-20T11:57:49.922Z</time></trkpt><trkpt lat="32.8931917" lon="10.244585"><ele>438.66666666666663</ele><time>2026-04-20T11:57:50.922Z</time></trkpt><trkpt lat="32.893095" lon="10.2444333"><ele>441.0</ele><time>2026-04-20T11:57:51.922Z</time></trkpt><trkpt lat="32.893015" lon="10.244265"><ele>441.0</ele><time>2026-04-20T11:57:52.922Z</time></trkpt><trkpt lat="32.8929383" lon="10.2440933"><ele>441.0</ele><time>2026-04-20T11:57:53.922Z</time></trkpt><trkpt lat="32.8928567" lon="10.243955"><ele>441.0</ele><time>2026-04-20T11:57:54.922Z</time></trkpt><trkpt lat="32.8927633" lon="10.2438533"><ele>441.0</ele><time>2026-04-20T11:57:55.922Z</time></trkpt><trkpt lat="32.8926567" lon="10.24379"><ele>443.0</ele><time>2026-04-20T11:57:56.922Z</time></trkpt><trkpt lat="32.8925383" lon="10.2437567"><ele>445.0</ele><time>2026-04-20T11:57:57.922Z</time></trkpt><trkpt lat="32.8924117" lon="10.243755"><ele>447.0</ele><time>2026-04-20T11:57:58.922Z</time></trkpt><trkpt lat="32.89228" lon="10.2437617"><ele>449.0</ele><time>2026-04-20T11:57:59.922Z</time></trkpt><trkpt lat="32.8921733" lon="10.243745"><ele>449.0</ele><time>2026-04-20T11:58:00.922Z</time></trkpt><trkpt lat="32.8920833" lon="10.2437083"><ele>449.0</ele><time>2026-04-20T11:58:01.922Z</time></trkpt><trkpt lat="32.8920117" lon="10.2436417"><ele>449.0</ele><time>2026-04-20T11:58:02.922Z</time></trkpt><trkpt lat="32.8919533" lon="10.2435517"><ele>449.0</ele><time>2026-04-20T11:58:03.922Z</time></trkpt><trkpt lat="32.891905" lon="10.2434367"><ele>449.0</ele><time>2026-04-20T11:58:04.922Z</time></trkpt><trkpt lat="32.8918517" lon="10.2433133"><ele>449.0</ele><time>2026-04-20T11:58:05.922Z</time></trkpt><trkpt lat="32.89179" lon="10.2431833"><ele>449.0</ele><time>2026-04-20T11:58:06.922Z</time></trkpt><trkpt lat="32.891725" lon="10.2430483"><ele>449.0</ele><time>2026-04-20T11:58:07.922Z</time></trkpt><trkpt lat="32.891655" lon="10.2429133"><ele>449.0</ele><time>2026-04-20T11:58:08.922Z</time></trkpt><trkpt lat="32.8915833" lon="10.2427767"><ele>449.5</ele><time>2026-04-20T11:58:09.922Z</time></trkpt><trkpt lat="32.8915067" lon="10.2426383"><ele>450.0</ele><time>2026-04-20T11:58:10.922Z</time></trkpt><trkpt lat="32.8914417" lon="10.2424917"><ele>450.5</ele><time>2026-04-20T11:58:11.922Z</time></trkpt><trkpt lat="32.89139" lon="10.2423317"><ele>451.0</ele><time>2026-04-20T11:58:12.922Z</time></trkpt><trkpt lat="32.8913833" lon="10.2421617"><ele>451.0</ele><time>2026-04-20T11:58:13.922Z</time></trkpt><trkpt lat="32.8914067" lon="10.2419983"><ele>451.0</ele><time>2026-04-20T11:58:14.922Z</time></trkpt><trkpt lat="32.8914283" lon="10.2418467"><ele>451.0</ele><time>2026-04-20T11:58:15.922Z</time></trkpt><trkpt lat="32.8914483" lon="10.24169"><ele>451.0</ele><time>2026-04-20T11:58:16.922Z</time></trkpt><trkpt lat="32.891455" lon="10.2415367"><ele>450.25</ele><time>2026-04-20T11:58:17.922Z</time></trkpt><trkpt lat="32.89143" lon="10.2413867"><ele>449.5</ele><time>2026-04-20T11:58:18.922Z</time></trkpt><trkpt lat="32.8913883" lon="10.2412383"><ele>448.75</ele><time>2026-04-20T11:58:19.922Z</time></trkpt><trkpt lat="32.8913383" lon="10.241095"><ele>448.0</ele><time>2026-04-20T11:58:20.922Z</time></trkpt><trkpt lat="32.891295" lon="10.2409583"><ele>448.0</ele><time>2026-04-20T11:58:21.922Z</time></trkpt><trkpt lat="32.8912733" lon="10.2407983"><ele>448.0</ele><time>2026-04-20T11:58:22.922Z</time></trkpt><trkpt lat="32.89127" lon="10.2406433"><ele>448.0</ele><time>2026-04-20T11:58:23.922Z</time></trkpt><trkpt lat="32.8912817" lon="10.2404817"><ele>448.0</ele><time>2026-04-20T11:58:24.922Z</time></trkpt><trkpt lat="32.8913183" lon="10.2403233"><ele>447.75</ele><time>2026-04-20T11:58:25.922Z</time></trkpt><trkpt lat="32.8913583" lon="10.2401533"><ele>447.5</ele><time>2026-04-20T11:58:26.922Z</time></trkpt><trkpt lat="32.8914067" lon="10.2399917"><ele>447.25</ele><time>2026-04-20T11:58:27.922Z</time></trkpt><trkpt lat="32.8914517" lon="10.2398217"><ele>447.0</ele><time>2026-04-20T11:58:28.922Z</time></trkpt><trkpt lat="32.891505" lon="10.2396483"><ele>448.33333333333337</ele><time>2026-04-20T11:58:29.922Z</time></trkpt><trkpt lat="32.8915583" lon="10.2394733"><ele>449.6666666666667</ele><time>2026-04-20T11:58:30.922Z</time></trkpt><trkpt lat="32.8916117" lon="10.2392967"><ele>451.0</ele><time>2026-04-20T11:58:31.922Z</time></trkpt><trkpt lat="32.891665" lon="10.2391233"><ele>452.0</ele><time>2026-04-20T11:58:32.922Z</time></trkpt><trkpt lat="32.8917117" lon="10.238945"><ele>453.0</ele><time>2026-04-20T11:58:33.922Z</time></trkpt><trkpt lat="32.8917717" lon="10.23875"><ele>454.0</ele><time>2026-04-20T11:58:34.922Z</time></trkpt><trkpt lat="32.8918317" lon="10.238565"><ele>454.0</ele><time>2026-04-20T11:58:35.922Z</time></trkpt><trkpt lat="32.8919133" lon="10.2383983"><ele>454.0</ele><time>2026-04-20T11:58:36.922Z</time></trkpt><trkpt lat="32.8920233" lon="10.23824"><ele>454.0</ele><time>2026-04-20T11:58:37.922Z</time></trkpt><trkpt lat="32.89215" lon="10.2381167"><ele>456.33333333333337</ele><time>2026-04-20T11:58:38.922Z</time></trkpt><trkpt lat="32.8922983" lon="10.23801"><ele>458.66666666666663</ele><time>2026-04-20T11:58:39.922Z</time></trkpt><trkpt lat="32.89245" lon="10.237925"><ele>461.0</ele><time>2026-04-20T11:58:40.922Z</time></trkpt><trkpt lat="32.8926167" lon="10.2378667"><ele>461.0</ele><time>2026-04-20T11:58:41.922Z</time></trkpt><trkpt lat="32.89278" lon="10.2378333"><ele>461.0</ele><time>2026-04-20T11:58:42.922Z</time></trkpt><trkpt lat="32.8929517" lon="10.2378083"><ele>461.0</ele><time>2026-04-20T11:58:43.922Z</time></trkpt><trkpt lat="32.893135" lon="10.23777"><ele>461.0</ele><time>2026-04-20T11:58:44.922Z</time></trkpt><trkpt lat="32.8933117" lon="10.2377083"><ele>461.0</ele><time>2026-04-20T11:58:45.922Z</time></trkpt><trkpt lat="32.89348" lon="10.2376367"><ele>461.0</ele><time>2026-04-20T11:58:46.921Z</time></trkpt><trkpt lat="32.89364" lon="10.2375417"><ele>460.3333333333333</ele><time>2026-04-20T11:58:47.922Z</time></trkpt><trkpt lat="32.8938" lon="10.2374317"><ele>459.66666666666663</ele><time>2026-04-20T11:58:48.922Z</time></trkpt><trkpt lat="32.893955" lon="10.2373083"><ele>459.0</ele><time>2026-04-20T11:58:49.922Z</time></trkpt><trkpt lat="32.8940983" lon="10.237175"><ele>461.0</ele><time>2026-04-20T11:58:50.922Z</time></trkpt><trkpt lat="32.8942417" lon="10.237025"><ele>463.0</ele><time>2026-04-20T11:58:51.922Z</time></trkpt><trkpt lat="32.89438" lon="10.236865"><ele>465.0</ele><time>2026-04-20T11:58:52.922Z</time></trkpt><trkpt lat="32.8945067" lon="10.2367033"><ele>465.0</ele><time>2026-04-20T11:58:53.922Z</time></trkpt><trkpt lat="32.8946333" lon="10.23654"><ele>465.0</ele><time>2026-04-20T11:58:54.922Z</time></trkpt><trkpt lat="32.8947567" lon="10.2363817"><ele>465.0</ele><time>2026-04-20T11:58:55.922Z</time></trkpt><trkpt lat="32.89488" lon="10.2362217"><ele>464.66666666666663</ele><time>2026-04-20T11:58:56.922Z</time></trkpt><trkpt lat="32.89498" lon="10.236045"><ele>464.3333333333333</ele><time>2026-04-20T11:58:57.922Z</time></trkpt><trkpt lat="32.8950467" lon="10.23586"><ele>464.0</ele><time>2026-04-20T11:58:58.922Z</time></trkpt><trkpt lat="32.895085" lon="10.2356633"><ele>467.0</ele><time>2026-04-20T11:58:59.922Z</time></trkpt><trkpt lat="32.895115" lon="10.2354617"><ele>470.0</ele><time>2026-04-20T11:59:00.922Z</time></trkpt><trkpt lat="32.8951283" lon="10.2352667"><ele>473.0</ele><time>2026-04-20T11:59:01.922Z</time></trkpt><trkpt lat="32.8951267" lon="10.235075"><ele>473.0</ele><time>2026-04-20T11:59:02.922Z</time></trkpt><trkpt lat="32.895105" lon="10.2348767"><ele>473.0</ele><time>2026-04-20T11:59:03.922Z</time></trkpt><trkpt lat="32.895055" lon="10.234685"><ele>473.0</ele><time>2026-04-20T11:59:04.922Z</time></trkpt><trkpt lat="32.8949783" lon="10.2345017"><ele>471.66666666666663</ele><time>2026-04-20T11:59:05.922Z</time></trkpt><trkpt lat="32.8948967" lon="10.2343167"><ele>470.33333333333337</ele><time>2026-04-20T11:59:06.922Z</time></trkpt><trkpt lat="32.8948133" lon="10.2341417"><ele>469.0</ele><time>2026-04-20T11:59:07.922Z</time></trkpt><trkpt lat="32.894725" lon="10.233965"><ele>472.0</ele><time>2026-04-20T11:59:08.922Z</time></trkpt><trkpt lat="32.894645" lon="10.233785"><ele>475.0</ele><time>2026-04-20T11:59:09.922Z</time></trkpt><trkpt lat="32.89456" lon="10.2335983"><ele>478.0</ele><time>2026-04-20T11:59:10.922Z</time></trkpt><trkpt lat="32.8944667" lon="10.233415"><ele>478.0</ele><time>2026-04-20T11:59:11.922Z</time></trkpt><trkpt lat="32.8943583" lon="10.2332533"><ele>478.0</ele><time>2026-04-20T11:59:12.922Z</time></trkpt><trkpt lat="32.89424" lon="10.2331133"><ele>478.0</ele><time>2026-04-20T11:59:13.922Z</time></trkpt><trkpt lat="32.8941167" lon="10.2329933"><ele>476.33333333333337</ele><time>2026-04-20T11:59:14.922Z</time></trkpt><trkpt lat="32.89398" lon="10.2328883"><ele>474.66666666666663</ele><time>2026-04-20T11:59:15.922Z</time></trkpt><trkpt lat="32.8938283" lon="10.2327983"><ele>473.0</ele><time>2026-04-20T11:59:16.922Z</time></trkpt><trkpt lat="32.8936717" lon="10.23271"><ele>473.0</ele><time>2026-04-20T11:59:17.922Z</time></trkpt><trkpt lat="32.8935067" lon="10.2326267"><ele>473.0</ele><time>2026-04-20T11:59:18.922Z</time></trkpt><trkpt lat="32.8933433" lon="10.2325217"><ele>473.0</ele><time>2026-04-20T11:59:19.922Z</time></trkpt><trkpt lat="32.893205" lon="10.2323933"><ele>475.66666666666663</ele><time>2026-04-20T11:59:20.922Z</time></trkpt><trkpt lat="32.893075" lon="10.232245"><ele>478.33333333333337</ele><time>2026-04-20T11:59:21.922Z</time></trkpt><trkpt lat="32.8929567" lon="10.232085"><ele>481.0</ele><time>2026-04-20T11:59:22.922Z</time></trkpt><trkpt lat="32.892835" lon="10.2319217"><ele>481.0</ele><time>2026-04-20T11:59:23.922Z</time></trkpt><trkpt lat="32.8927067" lon="10.2317583"><ele>481.0</ele><time>2026-04-20T11:59:24.922Z</time></trkpt><trkpt lat="32.8925733" lon="10.2315983"><ele>481.0</ele><time>2026-04-20T11:59:25.922Z</time></trkpt><trkpt lat="32.89243" lon="10.2314467"><ele>481.6666666666667</ele><time>2026-04-20T11:59:26.922Z</time></trkpt><trkpt lat="32.8922783" lon="10.2313067"><ele>482.33333333333337</ele><time>2026-04-20T11:59:27.922Z</time></trkpt><trkpt lat="32.892125" lon="10.23119"><ele>483.0</ele><time>2026-04-20T11:59:28.922Z</time></trkpt><trkpt lat="32.8919767" lon="10.2310983"><ele>483.0</ele><time>2026-04-20T11:59:29.922Z</time></trkpt><trkpt lat="32.8918283" lon="10.2310333"><ele>483.0</ele><time>2026-04-20T11:59:30.922Z</time></trkpt><trkpt lat="32.8916917" lon="10.230995"><ele>483.0</ele><time>2026-04-20T11:59:31.922Z</time></trkpt><trkpt lat="32.8915417" lon="10.231"><ele>483.0</ele><time>2026-04-20T11:59:32.922Z</time></trkpt><trkpt lat="32.8913983" lon="10.2310083"><ele>482.25</ele><time>2026-04-20T11:59:33.922Z</time></trkpt><trkpt lat="32.89125" lon="10.2309917"><ele>481.5</ele><time>2026-04-20T11:59:34.922Z</time></trkpt><trkpt lat="32.8911133" lon="10.230935"><ele>480.75</ele><time>2026-04-20T11:59:35.922Z</time></trkpt><trkpt lat="32.8909933" lon="10.2308417"><ele>480.0</ele><time>2026-04-20T11:59:36.922Z</time></trkpt><trkpt lat="32.8908767" lon="10.2307467"><ele>480.0</ele><time>2026-04-20T11:59:37.922Z</time></trkpt><trkpt lat="32.89076" lon="10.230655"><ele>480.0</ele><time>2026-04-20T11:59:38.922Z</time></trkpt><trkpt lat="32.89066" lon="10.2305583"><ele>480.0</ele><time>2026-04-20T11:59:39.922Z</time></trkpt><trkpt lat="32.890595" lon="10.2304433"><ele>480.0</ele><time>2026-04-20T11:59:40.922Z</time></trkpt><trkpt lat="32.8905767" lon="10.2303067"><ele>481.25</ele><time>2026-04-20T11:59:41.922Z</time></trkpt><trkpt lat="32.8905667" lon="10.2301717"><ele>482.5</ele><time>2026-04-20T11:59:42.922Z</time></trkpt><trkpt lat="32.8905667" lon="10.2300317"><ele>483.75</ele><time>2026-04-20T11:59:43.922Z</time></trkpt><trkpt lat="32.890555" lon="10.2298983"><ele>485.0</ele><time>2026-04-20T11:59:44.922Z</time></trkpt><trkpt lat="32.8905083" lon="10.2297733"><ele>486.75</ele><time>2026-04-20T11:59:45.922Z</time></trkpt><trkpt lat="32.89043" lon="10.2296767"><ele>488.5</ele><time>2026-04-20T11:59:46.922Z</time></trkpt><trkpt lat="32.8903267" lon="10.2296067"><ele>490.25</ele><time>2026-04-20T11:59:47.922Z</time></trkpt><trkpt lat="32.8902017" lon="10.22957"><ele>492.0</ele><time>2026-04-20T11:59:48.922Z</time></trkpt><trkpt lat="32.89007" lon="10.2295417"><ele>492.0</ele><time>2026-04-20T11:59:49.922Z</time></trkpt><trkpt lat="32.8899217" lon="10.2295367"><ele>492.0</ele><time>2026-04-20T11:59:50.922Z</time></trkpt><trkpt lat="32.889775" lon="10.229535"><ele>492.0</ele><time>2026-04-20T11:59:51.922Z</time></trkpt><trkpt lat="32.88963" lon="10.2295117"><ele>492.0</ele><time>2026-04-20T11:59:52.922Z</time></trkpt><trkpt lat="32.8894967" lon="10.2294667"><ele>492.0</ele><time>2026-04-20T11:59:53.922Z</time></trkpt><trkpt lat="32.88937" lon="10.22939"><ele>492.0</ele><time>2026-04-20T11:59:54.922Z</time></trkpt><trkpt lat="32.88924" lon="10.2293017"><ele>492.0</ele><time>2026-04-20T11:59:55.921Z</time></trkpt><trkpt lat="32.88911" lon="10.2292017"><ele>492.0</ele><time>2026-04-20T11:59:56.921Z</time></trkpt><trkpt lat="32.8889733" lon="10.2291067"><ele>490.33333333333337</ele><time>2026-04-20T11:59:57.921Z</time></trkpt><trkpt lat="32.888825" lon="10.2290133"><ele>488.6666666666667</ele><time>2026-04-20T11:59:58.921Z</time></trkpt><trkpt lat="32.888675" lon="10.228915"><ele>487.0</ele><time>2026-04-20T11:59:59.921Z</time></trkpt><trkpt lat="32.8885183" lon="10.228815"><ele>489.33333333333337</ele><time>2026-04-20T12:00:00.921Z</time></trkpt><trkpt lat="32.8883633" lon="10.2287117"><ele>491.66666666666663</ele><time>2026-04-20T12:00:01.921Z</time></trkpt><trkpt lat="32.8881983" lon="10.2286117"><ele>494.0</ele><time>2026-04-20T12:00:02.921Z</time></trkpt><trkpt lat="32.888025" lon="10.2285083"><ele>494.0</ele><time>2026-04-20T12:00:03.921Z</time></trkpt><trkpt lat="32.8878417" lon="10.2284133"><ele>494.0</ele><time>2026-04-20T12:00:04.921Z</time></trkpt><trkpt lat="32.887665" lon="10.2283367"><ele>494.0</ele><time>2026-04-20T12:00:05.921Z</time></trkpt><trkpt lat="32.8874967" lon="10.2282517"><ele>496.66666666666663</ele><time>2026-04-20T12:00:06.921Z</time></trkpt><trkpt lat="32.8873417" lon="10.228135"><ele>499.33333333333337</ele><time>2026-04-20T12:00:07.921Z</time></trkpt><trkpt lat="32.8871967" lon="10.2279967"><ele>502.0</ele><time>2026-04-20T12:00:08.921Z</time></trkpt><trkpt lat="32.8870483" lon="10.2278683"><ele>502.0</ele><time>2026-04-20T12:00:09.921Z</time></trkpt><trkpt lat="32.8868817" lon="10.22775"><ele>502.0</ele><time>2026-04-20T12:00:10.921Z</time></trkpt><trkpt lat="32.8867117" lon="10.227635"><ele>502.0</ele><time>2026-04-20T12:00:11.921Z</time></trkpt><trkpt lat="32.8865533" lon="10.2275083"><ele>500.33333333333337</ele><time>2026-04-20T12:00:12.921Z</time></trkpt><trkpt lat="32.8864067" lon="10.2273617"><ele>498.66666666666663</ele><time>2026-04-20T12:00:13.921Z</time></trkpt><trkpt lat="32.8862683" lon="10.2271967"><ele>497.0</ele><time>2026-04-20T12:00:14.921Z</time></trkpt><trkpt lat="32.8861433" lon="10.2270133"><ele>497.0</ele><time>2026-04-20T12:00:15.921Z</time></trkpt><trkpt lat="32.8860167" lon="10.2268233"><ele>497.0</ele><time>2026-04-20T12:00:16.921Z</time></trkpt><trkpt lat="32.885895" lon="10.22664"><ele>497.0</ele><time>2026-04-20T12:00:17.921Z</time></trkpt><trkpt lat="32.8857833" lon="10.22647"><ele>496.75</ele><time>2026-04-20T12:00:18.921Z</time></trkpt><trkpt lat="32.8856833" lon="10.2263217"><ele>496.5</ele><time>2026-04-20T12:00:19.921Z</time></trkpt><trkpt lat="32.8855817" lon="10.2262167"><ele>496.25</ele><time>2026-04-20T12:00:20.921Z</time></trkpt><trkpt lat="32.8854733" lon="10.2261433"><ele>496.0</ele><time>2026-04-20T12:00:21.921Z</time></trkpt><trkpt lat="32.8853533" lon="10.226105"><ele>496.0</ele><time>2026-04-20T12:00:22.921Z</time></trkpt><trkpt lat="32.885235" lon="10.2260883"><ele>496.0</ele><time>2026-04-20T12:00:23.921Z</time></trkpt><trkpt lat="32.8851317" lon="10.226075"><ele>496.0</ele><time>2026-04-20T12:00:24.921Z</time></trkpt><trkpt lat="32.8850417" lon="10.22606"><ele>496.0</ele><time>2026-04-20T12:00:25.921Z</time></trkpt><trkpt lat="32.8849667" lon="10.2260483"><ele>496.0</ele><time>2026-04-20T12:00:26.921Z</time></trkpt><trkpt lat="32.8848683" lon="10.226035"><ele>497.00000000000006</ele><time>2026-04-20T12:00:28.921Z</time></trkpt><trkpt lat="32.8848267" lon="10.2259567"><ele>498.0</ele><time>2026-04-20T12:02:33.921Z</time></trkpt><trkpt lat="32.8848067" lon="10.225825"><ele>499.0</ele><time>2026-04-20T12:02:35.921Z</time></trkpt><trkpt lat="32.8848083" lon="10.2257417"><ele>500.0</ele><time>2026-04-20T12:02:36.921Z</time></trkpt><trkpt lat="32.8848333" lon="10.2256633"><ele>501.00000000000006</ele><time>2026-04-20T12:02:37.921Z</time></trkpt><trkpt lat="32.884875" lon="10.2255833"><ele>502.0</ele><time>2026-04-20T12:02:38.921Z</time></trkpt><trkpt lat="32.88493" lon="10.225505"><ele>502.20000000000005</ele><time>2026-04-20T12:02:39.921Z</time></trkpt><trkpt lat="32.885" lon="10.2254233"><ele>502.40000000000003</ele><time>2026-04-20T12:02:40.921Z</time></trkpt><trkpt lat="32.8850783" lon="10.22534"><ele>502.59999999999997</ele><time>2026-04-20T12:02:41.921Z</time></trkpt><trkpt lat="32.8851683" lon="10.2252483"><ele>502.79999999999995</ele><time>2026-04-20T12:02:42.921Z</time></trkpt><trkpt lat="32.885265" lon="10.225155"><ele>503.0</ele><time>2026-04-20T12:02:43.921Z</time></trkpt><trkpt lat="32.8853633" lon="10.2250633"><ele>502.25</ele><time>2026-04-20T12:02:44.921Z</time></trkpt><trkpt lat="32.885455" lon="10.224965"><ele>501.5</ele><time>2026-04-20T12:02:45.921Z</time></trkpt><trkpt lat="32.8855567" lon="10.2248667"><ele>500.75</ele><time>2026-04-20T12:02:46.921Z</time></trkpt><trkpt lat="32.8856567" lon="10.2247567"><ele>500.0</ele><time>2026-04-20T12:02:47.921Z</time></trkpt><trkpt lat="32.8857683" lon="10.2246433"><ele>501.0</ele><time>2026-04-20T12:02:48.921Z</time></trkpt><trkpt lat="32.8858817" lon="10.2245233"><ele>502.0</ele><time>2026-04-20T12:02:49.921Z</time></trkpt><trkpt lat="32.8859967" lon="10.2244067"><ele>503.0</ele><time>2026-04-20T12:02:50.921Z</time></trkpt><trkpt lat="32.8861067" lon="10.2242867"><ele>503.0</ele><time>2026-04-20T12:02:51.921Z</time></trkpt><trkpt lat="32.8862167" lon="10.2241583"><ele>503.0</ele><time>2026-04-20T12:02:52.921Z</time></trkpt><trkpt lat="32.8863333" lon="10.2240317"><ele>503.0</ele><time>2026-04-20T12:02:53.921Z</time></trkpt><trkpt lat="32.8864533" lon="10.2239067"><ele>503.3333333333333</ele><time>2026-04-20T12:02:54.921Z</time></trkpt><trkpt lat="32.8865833" lon="10.223785"><ele>503.66666666666663</ele><time>2026-04-20T12:02:55.921Z</time></trkpt><trkpt lat="32.88672" lon="10.2236667"><ele>504.0</ele><time>2026-04-20T12:02:56.921Z</time></trkpt><trkpt lat="32.8868667" lon="10.2235483"><ele>504.0</ele><time>2026-04-20T12:02:57.921Z</time></trkpt><trkpt lat="32.8870117" lon="10.2234467"><ele>504.0</ele><time>2026-04-20T12:02:58.921Z</time></trkpt><trkpt lat="32.88717" lon="10.22337"><ele>504.0</ele><time>2026-04-20T12:02:59.921Z</time></trkpt><trkpt lat="32.887335" lon="10.2233217"><ele>504.0</ele><time>2026-04-20T12:03:00.921Z</time></trkpt><trkpt lat="32.8875133" lon="10.2233017"><ele>504.0</ele><time>2026-04-20T12:03:01.921Z</time></trkpt><trkpt lat="32.8876867" lon="10.2233067"><ele>504.0</ele><time>2026-04-20T12:03:02.921Z</time></trkpt><trkpt lat="32.88787" lon="10.2233383"><ele>503.66666666666663</ele><time>2026-04-20T12:03:03.921Z</time></trkpt><trkpt lat="32.8880467" lon="10.223385"><ele>503.3333333333333</ele><time>2026-04-20T12:03:04.921Z</time></trkpt><trkpt lat="32.8882283" lon="10.223445"><ele>503.0</ele><time>2026-04-20T12:03:05.921Z</time></trkpt><trkpt lat="32.8884083" lon="10.22351"><ele>503.0</ele><time>2026-04-20T12:03:06.921Z</time></trkpt><trkpt lat="32.8885867" lon="10.2235917"><ele>503.0</ele><time>2026-04-20T12:03:07.921Z</time></trkpt><trkpt lat="32.8887583" lon="10.22368"><ele>503.0</ele><time>2026-04-20T12:03:08.921Z</time></trkpt><trkpt lat="32.8889317" lon="10.22378"><ele>503.0</ele><time>2026-04-20T12:03:09.921Z</time></trkpt><trkpt lat="32.8890867" lon="10.2238917"><ele>503.0</ele><time>2026-04-20T12:03:10.921Z</time></trkpt><trkpt lat="32.8892433" lon="10.2240017"><ele>503.0</ele><time>2026-04-20T12:03:11.921Z</time></trkpt><trkpt lat="32.8894033" lon="10.2241117"><ele>503.3333333333333</ele><time>2026-04-20T12:03:12.921Z</time></trkpt><trkpt lat="32.889555" lon="10.2241917"><ele>503.66666666666663</ele><time>2026-04-20T12:03:13.922Z</time></trkpt><trkpt lat="32.889705" lon="10.2242233"><ele>504.0</ele><time>2026-04-20T12:03:14.921Z</time></trkpt><trkpt lat="32.8898383" lon="10.2242233"><ele>504.0</ele><time>2026-04-20T12:03:15.92Z</time></trkpt><trkpt lat="32.8899667" lon="10.2241917"><ele>504.0</ele><time>2026-04-20T12:03:16.92Z</time></trkpt><trkpt lat="32.8900817" lon="10.2241417"><ele>504.0</ele><time>2026-04-20T12:03:17.92Z</time></trkpt><trkpt lat="32.8902067" lon="10.2240633"><ele>504.0</ele><time>2026-04-20T12:03:18.92Z</time></trkpt><trkpt lat="32.8903383" lon="10.223975"><ele>504.0</ele><time>2026-04-20T12:03:19.92Z</time></trkpt><trkpt lat="32.8904733" lon="10.223885"><ele>504.0</ele><time>2026-04-20T12:03:20.92Z</time></trkpt><trkpt lat="32.8906083" lon="10.2237933"><ele>504.0</ele><time>2026-04-20T12:03:21.92Z</time></trkpt><trkpt lat="32.8907517" lon="10.2236983"><ele>504.0</ele><time>2026-04-20T12:03:22.92Z</time></trkpt><trkpt lat="32.8909033" lon="10.2236067"><ele>504.0</ele><time>2026-04-20T12:03:23.92Z</time></trkpt><trkpt lat="32.891055" lon="10.2235133"><ele>504.0</ele><time>2026-04-20T12:03:24.92Z</time></trkpt><trkpt lat="32.8912083" lon="10.2234283"><ele>504.66666666666663</ele><time>2026-04-20T12:03:25.92Z</time></trkpt><trkpt lat="32.8913667" lon="10.2233383"><ele>505.3333333333333</ele><time>2026-04-20T12:03:26.92Z</time></trkpt><trkpt lat="32.891525" lon="10.223255"><ele>506.0</ele><time>2026-04-20T12:03:27.92Z</time></trkpt><trkpt lat="32.891685" lon="10.2231717"><ele>503.66666666666663</ele><time>2026-04-20T12:03:28.92Z</time></trkpt><trkpt lat="32.8918467" lon="10.22309"><ele>501.33333333333337</ele><time>2026-04-20T12:03:29.92Z</time></trkpt><trkpt lat="32.89199" lon="10.2230233"><ele>499.0</ele><time>2026-04-20T12:03:30.92Z</time></trkpt><trkpt lat="32.892125" lon="10.222975"><ele>499.0</ele><time>2026-04-20T12:03:31.92Z</time></trkpt><trkpt lat="32.892235" lon="10.2229233"><ele>499.0</ele><time>2026-04-20T12:03:32.92Z</time></trkpt><trkpt lat="32.8923167" lon="10.22289"><ele>499.0</ele><time>2026-04-20T12:03:33.92Z</time></trkpt><trkpt lat="32.8924083" lon="10.2228383"><ele>499.0</ele><time>2026-04-20T12:03:35.92Z</time></trkpt><trkpt lat="32.892475" lon="10.2228"><ele>499.0</ele><time>2026-04-20T12:03:37.92Z</time></trkpt><trkpt lat="32.8925617" lon="10.22276"><ele>499.0</ele><time>2026-04-20T12:03:39.92Z</time></trkpt><trkpt lat="32.89263" lon="10.2227317"><ele>499.0</ele><time>2026-04-20T12:03:40.92Z</time></trkpt><trkpt lat="32.8927183" lon="10.2226933"><ele>499.0</ele><time>2026-04-20T12:03:41.92Z</time></trkpt><trkpt lat="32.8928083" lon="10.2226517"><ele>499.0</ele><time>2026-04-20T12:03:42.92Z</time></trkpt><trkpt lat="32.89291" lon="10.2226133"><ele>499.0</ele><time>2026-04-20T12:03:43.92Z</time></trkpt><trkpt lat="32.89301" lon="10.2225683"><ele>499.00000000000006</ele><time>2026-04-20T12:03:44.92Z</time></trkpt><trkpt lat="32.8931017" lon="10.2225317"><ele>499.0</ele><time>2026-04-20T12:03:45.92Z</time></trkpt><trkpt lat="32.893185" lon="10.2225"><ele>499.0</ele><time>2026-04-20T12:03:46.92Z</time></trkpt><trkpt lat="32.893255" lon="10.222475"><ele>499.0</ele><time>2026-04-20T12:03:47.92Z</time></trkpt><trkpt lat="32.8933167" lon="10.2224567"><ele>499.00000000000006</ele><time>2026-04-20T12:03:48.92Z</time></trkpt><trkpt lat="32.89341" lon="10.222415"><ele>499.0</ele><time>2026-04-20T12:03:50.92Z</time></trkpt><trkpt lat="32.8934967" lon="10.2223733"><ele>498.6</ele><time>2026-04-20T12:04:17.92Z</time></trkpt><trkpt lat="32.89357" lon="10.2222883"><ele>498.2</ele><time>2026-04-20T12:04:19.92Z</time></trkpt><trkpt lat="32.8936167" lon="10.2222217"><ele>497.80000000000007</ele><time>2026-04-20T12:04:20.92Z</time></trkpt><trkpt lat="32.8936683" lon="10.2221467"><ele>497.40000000000003</ele><time>2026-04-20T12:04:21.92Z</time></trkpt><trkpt lat="32.8937267" lon="10.2220583"><ele>497.0</ele><time>2026-04-20T12:04:22.92Z</time></trkpt><trkpt lat="32.89379" lon="10.2219617"><ele>497.0</ele><time>2026-04-20T12:04:23.92Z</time></trkpt><trkpt lat="32.8938367" lon="10.22185"><ele>497.00000000000006</ele><time>2026-04-20T12:04:24.92Z</time></trkpt><trkpt lat="32.8938717" lon="10.221725"><ele>497.00000000000006</ele><time>2026-04-20T12:04:25.92Z</time></trkpt><trkpt lat="32.89389" lon="10.22159"><ele>497.0</ele><time>2026-04-20T12:04:26.92Z</time></trkpt><trkpt lat="32.8938917" lon="10.2214517"><ele>497.0</ele><time>2026-04-20T12:04:27.92Z</time></trkpt><trkpt lat="32.8938833" lon="10.22131"><ele>496.25</ele><time>2026-04-20T12:04:28.92Z</time></trkpt><trkpt lat="32.89385" lon="10.22116"><ele>495.5</ele><time>2026-04-20T12:04:29.92Z</time></trkpt><trkpt lat="32.893805" lon="10.2210117"><ele>494.75</ele><time>2026-04-20T12:04:30.92Z</time></trkpt><trkpt lat="32.89375" lon="10.22086"><ele>494.0</ele><time>2026-04-20T12:04:31.92Z</time></trkpt><trkpt lat="32.893685" lon="10.2206933"><ele>494.66666666666663</ele><time>2026-04-20T12:04:32.92Z</time></trkpt><trkpt lat="32.89361" lon="10.2205117"><ele>495.33333333333337</ele><time>2026-04-20T12:04:33.92Z</time></trkpt><trkpt lat="32.8935333" lon="10.2203183"><ele>496.0</ele><time>2026-04-20T12:04:34.92Z</time></trkpt><trkpt lat="32.8934517" lon="10.2201167"><ele>496.6666666666667</ele><time>2026-04-20T12:04:35.92Z</time></trkpt><trkpt lat="32.8933717" lon="10.2199117"><ele>497.33333333333337</ele><time>2026-04-20T12:04:36.92Z</time></trkpt><trkpt lat="32.8933017" lon="10.2197067"><ele>498.0</ele><time>2026-04-20T12:04:37.92Z</time></trkpt><trkpt lat="32.8932283" lon="10.219495"><ele>499.66666666666663</ele><time>2026-04-20T12:04:38.92Z</time></trkpt><trkpt lat="32.89317" lon="10.2192767"><ele>501.3333333333333</ele><time>2026-04-20T12:04:39.92Z</time></trkpt><trkpt lat="32.89311" lon="10.2190667"><ele>503.0</ele><time>2026-04-20T12:04:40.92Z</time></trkpt><trkpt lat="32.8930567" lon="10.2188667"><ele>504.66666666666663</ele><time>2026-04-20T12:04:41.92Z</time></trkpt><trkpt lat="32.893" lon="10.2186817"><ele>506.33333333333337</ele><time>2026-04-20T12:04:42.92Z</time></trkpt><trkpt lat="32.89295" lon="10.2185083"><ele>508.0</ele><time>2026-04-20T12:04:43.92Z</time></trkpt><trkpt lat="32.8929267" lon="10.2183533"><ele>508.0</ele><time>2026-04-20T12:04:44.92Z</time></trkpt><trkpt lat="32.8929183" lon="10.218185"><ele>508.0</ele><time>2026-04-20T12:04:45.92Z</time></trkpt><trkpt lat="32.8929183" lon="10.218"><ele>508.0</ele><time>2026-04-20T12:04:46.92Z</time></trkpt><trkpt lat="32.892945" lon="10.2178133"><ele>507.0</ele><time>2026-04-20T12:04:47.92Z</time></trkpt><trkpt lat="32.8929733" lon="10.2176317"><ele>506.0</ele><time>2026-04-20T12:04:48.92Z</time></trkpt><trkpt lat="32.8930233" lon="10.2174517"><ele>505.0</ele><time>2026-04-20T12:04:49.92Z</time></trkpt><trkpt lat="32.893085" lon="10.21727"><ele>503.75</ele><time>2026-04-20T12:04:50.92Z</time></trkpt><trkpt lat="32.893135" lon="10.2171"><ele>502.5</ele><time>2026-04-20T12:04:51.92Z</time></trkpt><trkpt lat="32.89317" lon="10.2169267"><ele>501.25</ele><time>2026-04-20T12:04:52.92Z</time></trkpt><trkpt lat="32.8931883" lon="10.216755"><ele>500.0</ele><time>2026-04-20T12:04:53.92Z</time></trkpt><trkpt lat="32.8931867" lon="10.2165867"><ele>499.0</ele><time>2026-04-20T12:04:54.92Z</time></trkpt><trkpt lat="32.8931717" lon="10.21642"><ele>498.0</ele><time>2026-04-20T12:04:55.92Z</time></trkpt><trkpt lat="32.8931483" lon="10.216245"><ele>497.0</ele><time>2026-04-20T12:04:56.92Z</time></trkpt><trkpt lat="32.8931167" lon="10.2160683"><ele>496.0</ele><time>2026-04-20T12:04:57.92Z</time></trkpt><trkpt lat="32.8930967" lon="10.2158983"><ele>496.0</ele><time>2026-04-20T12:04:58.92Z</time></trkpt><trkpt lat="32.893095" lon="10.2157233"><ele>496.0</ele><time>2026-04-20T12:04:59.92Z</time></trkpt><trkpt lat="32.89311" lon="10.21554"><ele>496.0</ele><time>2026-04-20T12:05:00.92Z</time></trkpt><trkpt lat="32.8931517" lon="10.215345"><ele>495.0</ele><time>2026-04-20T12:05:01.92Z</time></trkpt><trkpt lat="32.8931983" lon="10.21515"><ele>494.0</ele><time>2026-04-20T12:05:02.92Z</time></trkpt><trkpt lat="32.8932483" lon="10.214945"><ele>493.0</ele><time>2026-04-20T12:05:03.92Z</time></trkpt><trkpt lat="32.8933083" lon="10.21475"><ele>492.33333333333337</ele><time>2026-04-20T12:05:04.92Z</time></trkpt><trkpt lat="32.8933617" lon="10.214545"><ele>491.66666666666663</ele><time>2026-04-20T12:05:05.92Z</time></trkpt><trkpt lat="32.89341" lon="10.2143383"><ele>491.0</ele><time>2026-04-20T12:05:06.92Z</time></trkpt><trkpt lat="32.8934567" lon="10.2141267"><ele>492.3333333333333</ele><time>2026-04-20T12:05:07.92Z</time></trkpt><trkpt lat="32.8935117" lon="10.2139117"><ele>493.66666666666663</ele><time>2026-04-20T12:05:08.92Z</time></trkpt><trkpt lat="32.893555" lon="10.2137067"><ele>495.0</ele><time>2026-04-20T12:05:09.92Z</time></trkpt><trkpt lat="32.8935933" lon="10.213495"><ele>495.0</ele><time>2026-04-20T12:05:10.92Z</time></trkpt><trkpt lat="32.8936367" lon="10.213285"><ele>495.0</ele><time>2026-04-20T12:05:11.92Z</time></trkpt><trkpt lat="32.893685" lon="10.2130717"><ele>495.0</ele><time>2026-04-20T12:05:12.92Z</time></trkpt><trkpt lat="32.893735" lon="10.2128667"><ele>494.0</ele><time>2026-04-20T12:05:13.92Z</time></trkpt><trkpt lat="32.8937667" lon="10.2126733"><ele>493.0</ele><time>2026-04-20T12:05:14.92Z</time></trkpt><trkpt lat="32.8938" lon="10.2124917"><ele>492.0</ele><time>2026-04-20T12:05:15.92Z</time></trkpt><trkpt lat="32.8938167" lon="10.2123217"><ele>492.0</ele><time>2026-04-20T12:05:16.92Z</time></trkpt><trkpt lat="32.8938117" lon="10.2121517"><ele>492.0</ele><time>2026-04-20T12:05:17.92Z</time></trkpt><trkpt lat="32.8937917" lon="10.211985"><ele>492.0</ele><time>2026-04-20T12:05:18.92Z</time></trkpt><trkpt lat="32.893755" lon="10.211825"><ele>492.0</ele><time>2026-04-20T12:05:19.92Z</time></trkpt><trkpt lat="32.8936867" lon="10.2116583"><ele>493.66666666666663</ele><time>2026-04-20T12:05:20.92Z</time></trkpt><trkpt lat="32.8936167" lon="10.2114883"><ele>495.3333333333333</ele><time>2026-04-20T12:05:21.92Z</time></trkpt><trkpt lat="32.89353" lon="10.211315"><ele>497.0</ele><time>2026-04-20T12:05:22.92Z</time></trkpt><trkpt lat="32.8934417" lon="10.2111333"><ele>493.66666666666663</ele><time>2026-04-20T12:05:23.92Z</time></trkpt><trkpt lat="32.8933533" lon="10.2109583"><ele>490.33333333333337</ele><time>2026-04-20T12:05:24.92Z</time></trkpt><trkpt lat="32.8932717" lon="10.2107833"><ele>487.0</ele><time>2026-04-20T12:05:25.92Z</time></trkpt><trkpt lat="32.8931983" lon="10.2106133"><ele>486.75</ele><time>2026-04-20T12:05:26.92Z</time></trkpt><trkpt lat="32.8931283" lon="10.210445"><ele>486.5</ele><time>2026-04-20T12:05:27.92Z</time></trkpt><trkpt lat="32.8930717" lon="10.210305"><ele>486.25</ele><time>2026-04-20T12:05:28.92Z</time></trkpt><trkpt lat="32.8930417" lon="10.2101933"><ele>486.0</ele><time>2026-04-20T12:05:29.92Z</time></trkpt><trkpt lat="32.893025" lon="10.210085"><ele>486.0</ele><time>2026-04-20T12:05:30.92Z</time></trkpt><trkpt lat="32.8930333" lon="10.20998"><ele>486.0</ele><time>2026-04-20T12:05:31.92Z</time></trkpt><trkpt lat="32.8930567" lon="10.2098783"><ele>486.0</ele><time>2026-04-20T12:05:32.92Z</time></trkpt><trkpt lat="32.8931083" lon="10.20978"><ele>486.0</ele><time>2026-04-20T12:05:33.92Z</time></trkpt><trkpt lat="32.893185" lon="10.20968"><ele>486.0</ele><time>2026-04-20T12:05:34.92Z</time></trkpt><trkpt lat="32.893275" lon="10.209575"><ele>485.0</ele><time>2026-04-20T12:05:35.92Z</time></trkpt><trkpt lat="32.8933633" lon="10.209475"><ele>484.0</ele><time>2026-04-20T12:05:36.92Z</time></trkpt><trkpt lat="32.8934467" lon="10.2093633"><ele>483.0</ele><time>2026-04-20T12:05:37.92Z</time></trkpt><trkpt lat="32.8935233" lon="10.2092367"><ele>482.0</ele><time>2026-04-20T12:05:38.92Z</time></trkpt><trkpt lat="32.893575" lon="10.2090817"><ele>481.5</ele><time>2026-04-20T12:05:39.92Z</time></trkpt><trkpt lat="32.89361" lon="10.208905"><ele>481.0</ele><time>2026-04-20T12:05:40.92Z</time></trkpt><trkpt lat="32.8936383" lon="10.2087267"><ele>480.5</ele><time>2026-04-20T12:05:41.92Z</time></trkpt><trkpt lat="32.8936317" lon="10.20856"><ele>480.0</ele><time>2026-04-20T12:05:42.92Z</time></trkpt><trkpt lat="32.893625" lon="10.2083967"><ele>480.0</ele><time>2026-04-20T12:05:43.92Z</time></trkpt><trkpt lat="32.89361" lon="10.208225"><ele>480.0</ele><time>2026-04-20T12:05:44.92Z</time></trkpt><trkpt lat="32.8935833" lon="10.208045"><ele>480.0</ele><time>2026-04-20T12:05:45.92Z</time></trkpt><trkpt lat="32.89356" lon="10.2078617"><ele>480.66666666666663</ele><time>2026-04-20T12:05:46.92Z</time></trkpt><trkpt lat="32.89352" lon="10.2076667"><ele>481.3333333333333</ele><time>2026-04-20T12:05:47.92Z</time></trkpt><trkpt lat="32.89347" lon="10.2074633"><ele>482.0</ele><time>2026-04-20T12:05:48.92Z</time></trkpt><trkpt lat="32.8934267" lon="10.2072633"><ele>482.66666666666663</ele><time>2026-04-20T12:05:49.92Z</time></trkpt><trkpt lat="32.8933783" lon="10.2070633"><ele>483.33333333333337</ele><time>2026-04-20T12:05:50.92Z</time></trkpt><trkpt lat="32.8933267" lon="10.206875"><ele>484.0</ele><time>2026-04-20T12:05:51.92Z</time></trkpt><trkpt lat="32.8932783" lon="10.2066933"><ele>484.0</ele><time>2026-04-20T12:05:52.92Z</time></trkpt><trkpt lat="32.8932283" lon="10.2065117"><ele>484.0</ele><time>2026-04-20T12:05:53.92Z</time></trkpt><trkpt lat="32.8931867" lon="10.2063433"><ele>484.0</ele><time>2026-04-20T12:05:54.92Z</time></trkpt><trkpt lat="32.8931517" lon="10.2061717"><ele>484.6666666666667</ele><time>2026-04-20T12:05:55.92Z</time></trkpt><trkpt lat="32.8931217" lon="10.20599"><ele>485.33333333333337</ele><time>2026-04-20T12:05:56.92Z</time></trkpt><trkpt lat="32.8930883" lon="10.2058083"><ele>486.0</ele><time>2026-04-20T12:05:57.92Z</time></trkpt><trkpt lat="32.8930583" lon="10.205625"><ele>486.0</ele><time>2026-04-20T12:05:58.92Z</time></trkpt><trkpt lat="32.8930233" lon="10.2054417"><ele>486.0</ele><time>2026-04-20T12:05:59.92Z</time></trkpt><trkpt lat="32.893005" lon="10.2052583"><ele>486.0</ele><time>2026-04-20T12:06:00.92Z</time></trkpt><trkpt lat="32.892995" lon="10.20507"><ele>486.0</ele><time>2026-04-20T12:06:01.92Z</time></trkpt><trkpt lat="32.893" lon="10.2048783"><ele>486.0</ele><time>2026-04-20T12:06:02.92Z</time></trkpt><trkpt lat="32.893015" lon="10.2046867"><ele>486.0</ele><time>2026-04-20T12:06:03.92Z</time></trkpt><trkpt lat="32.893035" lon="10.2044933"><ele>486.66666666666663</ele><time>2026-04-20T12:06:04.92Z</time></trkpt><trkpt lat="32.89305" lon="10.2042883"><ele>487.3333333333333</ele><time>2026-04-20T12:06:05.92Z</time></trkpt><trkpt lat="32.8930717" lon="10.2041017"><ele>488.0</ele><time>2026-04-20T12:06:06.92Z</time></trkpt><trkpt lat="32.893085" lon="10.2039333"><ele>488.5</ele><time>2026-04-20T12:06:07.92Z</time></trkpt><trkpt lat="32.8930817" lon="10.2037933"><ele>489.0</ele><time>2026-04-20T12:06:08.92Z</time></trkpt><trkpt lat="32.89307" lon="10.203655"><ele>489.5</ele><time>2026-04-20T12:06:09.92Z</time></trkpt><trkpt lat="32.89305" lon="10.2035233"><ele>490.0</ele><time>2026-04-20T12:06:10.92Z</time></trkpt><trkpt lat="32.8930317" lon="10.2033817"><ele>490.0</ele><time>2026-04-20T12:06:11.92Z</time></trkpt><trkpt lat="32.8930183" lon="10.2032517"><ele>490.0</ele><time>2026-04-20T12:06:12.92Z</time></trkpt><trkpt lat="32.8930017" lon="10.203125"><ele>490.0</ele><time>2026-04-20T12:06:13.92Z</time></trkpt><trkpt lat="32.8929767" lon="10.203"><ele>490.0</ele><time>2026-04-20T12:06:14.92Z</time></trkpt><trkpt lat="32.8929583" lon="10.202875"><ele>490.0</ele><time>2026-04-20T12:06:15.92Z</time></trkpt><trkpt lat="32.8929467" lon="10.202755"><ele>489.2</ele><time>2026-04-20T12:06:16.92Z</time></trkpt><trkpt lat="32.8929317" lon="10.2026367"><ele>488.4</ele><time>2026-04-20T12:06:17.92Z</time></trkpt><trkpt lat="32.89293" lon="10.2025233"><ele>487.6</ele><time>2026-04-20T12:06:18.92Z</time></trkpt><trkpt lat="32.8929367" lon="10.202405"><ele>486.8</ele><time>2026-04-20T12:06:19.92Z</time></trkpt><trkpt lat="32.892945" lon="10.20228"><ele>486.0</ele><time>2026-04-20T12:06:20.92Z</time></trkpt><trkpt lat="32.89296" lon="10.2021533"><ele>484.4</ele><time>2026-04-20T12:06:21.92Z</time></trkpt><trkpt lat="32.892975" lon="10.202025"><ele>482.8</ele><time>2026-04-20T12:06:22.92Z</time></trkpt><trkpt lat="32.892995" lon="10.2019033"><ele>481.19999999999993</ele><time>2026-04-20T12:06:23.92Z</time></trkpt><trkpt lat="32.8930167" lon="10.2017883"><ele>479.59999999999997</ele><time>2026-04-20T12:06:24.92Z</time></trkpt><trkpt lat="32.8930483" lon="10.2016767"><ele>478.0</ele><time>2026-04-20T12:06:25.92Z</time></trkpt><trkpt lat="32.8930783" lon="10.2015583"><ele>476.79999999999995</ele><time>2026-04-20T12:06:26.92Z</time></trkpt><trkpt lat="32.89311" lon="10.2014383"><ele>475.59999999999997</ele><time>2026-04-20T12:06:27.92Z</time></trkpt><trkpt lat="32.8931317" lon="10.2013167"><ele>474.40000000000003</ele><time>2026-04-20T12:06:28.92Z</time></trkpt><trkpt lat="32.8931467" lon="10.2011867"><ele>473.20000000000005</ele><time>2026-04-20T12:06:29.92Z</time></trkpt><trkpt lat="32.893155" lon="10.2010467"><ele>472.0</ele><time>2026-04-20T12:06:30.92Z</time></trkpt><trkpt lat="32.8931767" lon="10.2009"><ele>472.0</ele><time>2026-04-20T12:06:31.919Z</time></trkpt><trkpt lat="32.893205" lon="10.2007567"><ele>472.0</ele><time>2026-04-20T12:06:32.919Z</time></trkpt><trkpt lat="32.893215" lon="10.200615"><ele>472.0</ele><time>2026-04-20T12:06:33.919Z</time></trkpt><trkpt lat="32.893215" lon="10.2004717"><ele>472.0</ele><time>2026-04-20T12:06:34.919Z</time></trkpt><trkpt lat="32.8932217" lon="10.2003267"><ele>471.75</ele><time>2026-04-20T12:06:35.919Z</time></trkpt><trkpt lat="32.89323" lon="10.2001833"><ele>471.5</ele><time>2026-04-20T12:06:36.919Z</time></trkpt><trkpt lat="32.8932367" lon="10.200045"><ele>471.25</ele><time>2026-04-20T12:06:37.919Z</time></trkpt><trkpt lat="32.893245" lon="10.1999033"><ele>471.0</ele><time>2026-04-20T12:06:38.919Z</time></trkpt><trkpt lat="32.8932483" lon="10.1997533"><ele>471.0</ele><time>2026-04-20T12:06:39.919Z</time></trkpt><trkpt lat="32.89325" lon="10.199595"><ele>471.0</ele><time>2026-04-20T12:06:40.919Z</time></trkpt><trkpt lat="32.8932417" lon="10.19944"><ele>471.0</ele><time>2026-04-20T12:06:41.919Z</time></trkpt><trkpt lat="32.893235" lon="10.1992817"><ele>471.0</ele><time>2026-04-20T12:06:42.919Z</time></trkpt><trkpt lat="32.8932217" lon="10.1991183"><ele>469.75</ele><time>2026-04-20T12:06:43.919Z</time></trkpt><trkpt lat="32.89322" lon="10.19896"><ele>468.5</ele><time>2026-04-20T12:06:44.919Z</time></trkpt><trkpt lat="32.8932017" lon="10.1988"><ele>467.25</ele><time>2026-04-20T12:06:45.919Z</time></trkpt><trkpt lat="32.89318" lon="10.198635"><ele>466.0</ele><time>2026-04-20T12:06:46.919Z</time></trkpt><trkpt lat="32.893145" lon="10.198475"><ele>466.0</ele><time>2026-04-20T12:06:47.919Z</time></trkpt><trkpt lat="32.8931133" lon="10.1983083"><ele>466.0</ele><time>2026-04-20T12:06:48.919Z</time></trkpt><trkpt lat="32.8930867" lon="10.198145"><ele>466.0</ele><time>2026-04-20T12:06:49.919Z</time></trkpt><trkpt lat="32.8930617" lon="10.197985"><ele>466.0</ele><time>2026-04-20T12:06:50.919Z</time></trkpt><trkpt lat="32.8930433" lon="10.1978233"><ele>465.25</ele><time>2026-04-20T12:06:51.919Z</time></trkpt><trkpt lat="32.893035" lon="10.1976617"><ele>464.5</ele><time>2026-04-20T12:06:52.919Z</time></trkpt><trkpt lat="32.89303" lon="10.197495"><ele>463.75</ele><time>2026-04-20T12:06:53.919Z</time></trkpt><trkpt lat="32.8930317" lon="10.1973183"><ele>463.0</ele><time>2026-04-20T12:06:54.919Z</time></trkpt><trkpt lat="32.8930217" lon="10.1971417"><ele>463.0</ele><time>2026-04-20T12:06:55.919Z</time></trkpt><trkpt lat="32.8930017" lon="10.1969717"><ele>463.0</ele><time>2026-04-20T12:06:56.919Z</time></trkpt><trkpt lat="32.8929633" lon="10.1968167"><ele>463.0</ele><time>2026-04-20T12:06:57.919Z</time></trkpt><trkpt lat="32.8929133" lon="10.1966783"><ele>463.0</ele><time>2026-04-20T12:06:58.919Z</time></trkpt><trkpt lat="32.8928467" lon="10.196555"><ele>462.79999999999995</ele><time>2026-04-20T12:06:59.919Z</time></trkpt><trkpt lat="32.8927817" lon="10.1964417"><ele>462.59999999999997</ele><time>2026-04-20T12:07:00.919Z</time></trkpt><trkpt lat="32.8927333" lon="10.1963367"><ele>462.40000000000003</ele><time>2026-04-20T12:07:01.919Z</time></trkpt><trkpt lat="32.8927" lon="10.1962317"><ele>462.20000000000005</ele><time>2026-04-20T12:07:02.919Z</time></trkpt><trkpt lat="32.8926967" lon="10.1961083"><ele>462.0</ele><time>2026-04-20T12:07:03.919Z</time></trkpt><trkpt lat="32.8927167" lon="10.1959767"><ele>462.0</ele><time>2026-04-20T12:07:04.919Z</time></trkpt><trkpt lat="32.8927417" lon="10.1958367"><ele>462.0</ele><time>2026-04-20T12:07:05.919Z</time></trkpt><trkpt lat="32.8927567" lon="10.1956833"><ele>462.0</ele><time>2026-04-20T12:07:06.919Z</time></trkpt><trkpt lat="32.89276" lon="10.195515"><ele>462.0</ele><time>2026-04-20T12:07:07.919Z</time></trkpt><trkpt lat="32.8927583" lon="10.195335"><ele>462.0</ele><time>2026-04-20T12:07:08.919Z</time></trkpt><trkpt lat="32.8927583" lon="10.1951533"><ele>462.0</ele><time>2026-04-20T12:07:09.919Z</time></trkpt><trkpt lat="32.892755" lon="10.19496"><ele>462.0</ele><time>2026-04-20T12:07:10.919Z</time></trkpt><trkpt lat="32.8927483" lon="10.1947617"><ele>461.66666666666663</ele><time>2026-04-20T12:07:11.919Z</time></trkpt><trkpt lat="32.8927417" lon="10.19456"><ele>461.3333333333333</ele><time>2026-04-20T12:07:12.919Z</time></trkpt><trkpt lat="32.8927383" lon="10.1943683"><ele>461.0</ele><time>2026-04-20T12:07:13.919Z</time></trkpt><trkpt lat="32.89272" lon="10.1941967"><ele>461.0</ele><time>2026-04-20T12:07:14.919Z</time></trkpt><trkpt lat="32.8926917" lon="10.19403"><ele>461.0</ele><time>2026-04-20T12:07:15.919Z</time></trkpt><trkpt lat="32.892655" lon="10.193865"><ele>461.0</ele><time>2026-04-20T12:07:16.919Z</time></trkpt><trkpt lat="32.8926067" lon="10.1937083"><ele>461.0</ele><time>2026-04-20T12:07:17.919Z</time></trkpt><trkpt lat="32.8925667" lon="10.1935367"><ele>461.0</ele><time>2026-04-20T12:07:18.919Z</time></trkpt><trkpt lat="32.892525" lon="10.1933583"><ele>461.0</ele><time>2026-04-20T12:07:19.919Z</time></trkpt><trkpt lat="32.89249" lon="10.1931733"><ele>461.0</ele><time>2026-04-20T12:07:20.919Z</time></trkpt><trkpt lat="32.8924617" lon="10.1929867"><ele>461.3333333333333</ele><time>2026-04-20T12:07:21.919Z</time></trkpt><trkpt lat="32.8924317" lon="10.1927917"><ele>461.66666666666663</ele><time>2026-04-20T12:07:22.919Z</time></trkpt><trkpt lat="32.8923933" lon="10.1925933"><ele>462.0</ele><time>2026-04-20T12:07:23.919Z</time></trkpt><trkpt lat="32.89236" lon="10.1923867"><ele>461.33333333333337</ele><time>2026-04-20T12:07:24.919Z</time></trkpt><trkpt lat="32.89232" lon="10.192175"><ele>460.6666666666667</ele><time>2026-04-20T12:07:25.919Z</time></trkpt><trkpt lat="32.8922833" lon="10.1919783"><ele>460.0</ele><time>2026-04-20T12:07:26.919Z</time></trkpt><trkpt lat="32.8922733" lon="10.1917817"><ele>460.0</ele><time>2026-04-20T12:07:27.919Z</time></trkpt><trkpt lat="32.8922483" lon="10.1916"><ele>460.0</ele><time>2026-04-20T12:07:28.919Z</time></trkpt><trkpt lat="32.8922167" lon="10.191415"><ele>460.0</ele><time>2026-04-20T12:07:29.919Z</time></trkpt><trkpt lat="32.8921717" lon="10.1912333"><ele>459.0</ele><time>2026-04-20T12:07:30.919Z</time></trkpt><trkpt lat="32.8921217" lon="10.1910483"><ele>458.0</ele><time>2026-04-20T12:07:31.919Z</time></trkpt><trkpt lat="32.892065" lon="10.1908633"><ele>457.0</ele><time>2026-04-20T12:07:32.919Z</time></trkpt><trkpt lat="32.8920017" lon="10.1906833"><ele>457.33333333333337</ele><time>2026-04-20T12:07:33.919Z</time></trkpt><trkpt lat="32.89193" lon="10.1905083"><ele>457.66666666666663</ele><time>2026-04-20T12:07:34.919Z</time></trkpt><trkpt lat="32.891855" lon="10.1903333"><ele>458.0</ele><time>2026-04-20T12:07:35.919Z</time></trkpt><trkpt lat="32.8917867" lon="10.1901567"><ele>458.3333333333333</ele><time>2026-04-20T12:07:36.919Z</time></trkpt><trkpt lat="32.8917283" lon="10.189985"><ele>458.66666666666663</ele><time>2026-04-20T12:07:37.919Z</time></trkpt><trkpt lat="32.891685" lon="10.1898133"><ele>459.0</ele><time>2026-04-20T12:07:38.919Z</time></trkpt><trkpt lat="32.8916467" lon="10.18964"><ele>459.0</ele><time>2026-04-20T12:07:39.919Z</time></trkpt><trkpt lat="32.8916217" lon="10.1894683"><ele>459.0</ele><time>2026-04-20T12:07:40.919Z</time></trkpt><trkpt lat="32.89158" lon="10.1892867"><ele>459.0</ele><time>2026-04-20T12:07:41.919Z</time></trkpt><trkpt lat="32.8915433" lon="10.1891083"><ele>458.66666666666663</ele><time>2026-04-20T12:07:42.919Z</time></trkpt><trkpt lat="32.8915067" lon="10.18893"><ele>458.3333333333333</ele><time>2026-04-20T12:07:43.919Z</time></trkpt><trkpt lat="32.8914733" lon="10.1887483"><ele>458.0</ele><time>2026-04-20T12:07:44.919Z</time></trkpt><trkpt lat="32.8914467" lon="10.188555"><ele>458.0</ele><time>2026-04-20T12:07:45.919Z</time></trkpt><trkpt lat="32.8914233" lon="10.1883567"><ele>458.0</ele><time>2026-04-20T12:07:46.919Z</time></trkpt><trkpt lat="32.891395" lon="10.1881467"><ele>458.0</ele><time>2026-04-20T12:07:47.919Z</time></trkpt><trkpt lat="32.89136" lon="10.1879433"><ele>457.3333333333333</ele><time>2026-04-20T12:07:48.919Z</time></trkpt><trkpt lat="32.89134" lon="10.1877333"><ele>456.66666666666663</ele><time>2026-04-20T12:07:49.919Z</time></trkpt><trkpt lat="32.8913117" lon="10.18752"><ele>456.0</ele><time>2026-04-20T12:07:50.919Z</time></trkpt><trkpt lat="32.8912817" lon="10.1873183"><ele>455.66666666666663</ele><time>2026-04-20T12:07:51.919Z</time></trkpt><trkpt lat="32.8912483" lon="10.187115"><ele>455.3333333333333</ele><time>2026-04-20T12:07:52.919Z</time></trkpt><trkpt lat="32.8912183" lon="10.1869117"><ele>455.0</ele><time>2026-04-20T12:07:53.919Z</time></trkpt><trkpt lat="32.89119" lon="10.186705"><ele>455.66666666666663</ele><time>2026-04-20T12:07:54.919Z</time></trkpt><trkpt lat="32.8911733" lon="10.186495"><ele>456.33333333333337</ele><time>2026-04-20T12:07:55.919Z</time></trkpt><trkpt lat="32.8911567" lon="10.18629"><ele>457.0</ele><time>2026-04-20T12:07:56.919Z</time></trkpt><trkpt lat="32.8911417" lon="10.18608"><ele>457.0</ele><time>2026-04-20T12:07:57.919Z</time></trkpt><trkpt lat="32.891125" lon="10.1858683"><ele>457.0</ele><time>2026-04-20T12:07:58.919Z</time></trkpt><trkpt lat="32.8911083" lon="10.18566"><ele>457.0</ele><time>2026-04-20T12:07:59.919Z</time></trkpt><trkpt lat="32.8910883" lon="10.1854517"><ele>457.0</ele><time>2026-04-20T12:08:00.919Z</time></trkpt><trkpt lat="32.8910733" lon="10.1852383"><ele>457.0</ele><time>2026-04-20T12:08:01.919Z</time></trkpt><trkpt lat="32.8910617" lon="10.185025"><ele>457.0</ele><time>2026-04-20T12:08:02.919Z</time></trkpt><trkpt lat="32.8910467" lon="10.184815"><ele>457.0</ele><time>2026-04-20T12:08:03.919Z</time></trkpt><trkpt lat="32.891035" lon="10.1846017"><ele>457.0</ele><time>2026-04-20T12:08:04.919Z</time></trkpt><trkpt lat="32.8910183" lon="10.1843883"><ele>457.0</ele><time>2026-04-20T12:08:05.919Z</time></trkpt><trkpt lat="32.891005" lon="10.184175"><ele>457.0</ele><time>2026-04-20T12:08:06.919Z</time></trkpt><trkpt lat="32.8909717" lon="10.1839683"><ele>457.0</ele><time>2026-04-20T12:08:07.919Z</time></trkpt><trkpt lat="32.8909433" lon="10.1837867"><ele>457.0</ele><time>2026-04-20T12:08:08.919Z</time></trkpt><trkpt lat="32.8909017" lon="10.1836183"><ele>457.0</ele><time>2026-04-20T12:08:09.919Z</time></trkpt><trkpt lat="32.89086" lon="10.1834717"><ele>457.0</ele><time>2026-04-20T12:08:10.919Z</time></trkpt><trkpt lat="32.890805" lon="10.18333"><ele>457.0</ele><time>2026-04-20T12:08:11.919Z</time></trkpt><trkpt lat="32.89075" lon="10.1831817"><ele>457.0</ele><time>2026-04-20T12:08:12.919Z</time></trkpt><trkpt lat="32.8907017" lon="10.18302"><ele>457.6666666666667</ele><time>2026-04-20T12:08:13.919Z</time></trkpt><trkpt lat="32.8906617" lon="10.1828483"><ele>458.33333333333337</ele><time>2026-04-20T12:08:14.919Z</time></trkpt><trkpt lat="32.8906317" lon="10.1826717"><ele>459.0</ele><time>2026-04-20T12:08:15.919Z</time></trkpt><trkpt lat="32.890605" lon="10.182485"><ele>457.33333333333337</ele><time>2026-04-20T12:08:16.919Z</time></trkpt><trkpt lat="32.8905733" lon="10.1823033"><ele>455.6666666666667</ele><time>2026-04-20T12:08:17.919Z</time></trkpt><trkpt lat="32.890535" lon="10.1821283"><ele>454.0</ele><time>2026-04-20T12:08:18.919Z</time></trkpt><trkpt lat="32.890495" lon="10.18196"><ele>454.0</ele><time>2026-04-20T12:08:19.919Z</time></trkpt><trkpt lat="32.8904533" lon="10.1817917"><ele>454.0</ele><time>2026-04-20T12:08:20.919Z</time></trkpt><trkpt lat="32.8904067" lon="10.1816117"><ele>454.0</ele><time>2026-04-20T12:08:21.919Z</time></trkpt><trkpt lat="32.89035" lon="10.1814383"><ele>453.6666666666667</ele><time>2026-04-20T12:08:22.919Z</time></trkpt><trkpt lat="32.89029" lon="10.181265"><ele>453.33333333333337</ele><time>2026-04-20T12:08:23.919Z</time></trkpt><trkpt lat="32.8902433" lon="10.1810933"><ele>453.0</ele><time>2026-04-20T12:08:24.919Z</time></trkpt><trkpt lat="32.890185" lon="10.1809167"><ele>453.0</ele><time>2026-04-20T12:08:25.919Z</time></trkpt><trkpt lat="32.890115" lon="10.18075"><ele>453.0</ele><time>2026-04-20T12:08:26.919Z</time></trkpt><trkpt lat="32.8900367" lon="10.1805883"><ele>453.0</ele><time>2026-04-20T12:08:27.919Z</time></trkpt><trkpt lat="32.8899533" lon="10.1804217"><ele>453.33333333333337</ele><time>2026-04-20T12:08:28.919Z</time></trkpt><trkpt lat="32.8898733" lon="10.1802433"><ele>453.6666666666667</ele><time>2026-04-20T12:08:29.919Z</time></trkpt><trkpt lat="32.8897883" lon="10.18006"><ele>454.0</ele><time>2026-04-20T12:08:30.92Z</time></trkpt><trkpt lat="32.8897033" lon="10.17988"><ele>453.6666666666667</ele><time>2026-04-20T12:08:31.919Z</time></trkpt><trkpt lat="32.889615" lon="10.179705"><ele>453.33333333333337</ele><time>2026-04-20T12:08:32.919Z</time></trkpt><trkpt lat="32.88953" lon="10.1795183"><ele>453.0</ele><time>2026-04-20T12:08:33.919Z</time></trkpt><trkpt lat="32.889445" lon="10.1793383"><ele>453.0</ele><time>2026-04-20T12:08:34.919Z</time></trkpt><trkpt lat="32.8893517" lon="10.1791567"><ele>453.0</ele><time>2026-04-20T12:08:35.919Z</time></trkpt><trkpt lat="32.8892567" lon="10.1789867"><ele>453.0</ele><time>2026-04-20T12:08:36.919Z</time></trkpt><trkpt lat="32.8891633" lon="10.17882"><ele>453.0</ele><time>2026-04-20T12:08:37.919Z</time></trkpt><trkpt lat="32.88907" lon="10.178645"><ele>453.0</ele><time>2026-04-20T12:08:38.919Z</time></trkpt><trkpt lat="32.8889883" lon="10.1784867"><ele>453.0</ele><time>2026-04-20T12:08:39.919Z</time></trkpt><trkpt lat="32.8889083" lon="10.17834"><ele>453.0</ele><time>2026-04-20T12:08:40.919Z</time></trkpt><trkpt lat="32.888855" lon="10.1782067"><ele>452.99999999999994</ele><time>2026-04-20T12:08:41.919Z</time></trkpt><trkpt lat="32.888815" lon="10.178095"><ele>452.99999999999994</ele><time>2026-04-20T12:08:42.919Z</time></trkpt><trkpt lat="32.8887917" lon="10.1779933"><ele>453.0</ele><time>2026-04-20T12:08:43.919Z</time></trkpt><trkpt lat="32.8887783" lon="10.17789"><ele>453.0</ele><time>2026-04-20T12:08:44.919Z</time></trkpt><trkpt lat="32.888775" lon="10.1777917"><ele>452.6666666666667</ele><time>2026-04-20T12:08:45.919Z</time></trkpt><trkpt lat="32.8887883" lon="10.1777133"><ele>452.33333333333337</ele><time>2026-04-20T12:08:46.919Z</time></trkpt><trkpt lat="32.888825" lon="10.1775867"><ele>452.0</ele><time>2026-04-20T12:08:48.919Z</time></trkpt><trkpt lat="32.8888583" lon="10.1775167"><ele>451.6666666666667</ele><time>2026-04-20T12:08:50.919Z</time></trkpt><trkpt lat="32.8888883" lon="10.17742"><ele>451.33333333333337</ele><time>2026-04-20T12:09:24.919Z</time></trkpt><trkpt lat="32.8889217" lon="10.17734"><ele>451.0</ele><time>2026-04-20T12:09:25.919Z</time></trkpt><trkpt lat="32.88897" lon="10.1772383"><ele>451.0</ele><time>2026-04-20T12:09:26.919Z</time></trkpt><trkpt lat="32.8890133" lon="10.17712"><ele>451.0</ele><time>2026-04-20T12:09:27.919Z</time></trkpt><trkpt lat="32.8890333" lon="10.1770183"><ele>451.0</ele><time>2026-04-20T12:09:28.919Z</time></trkpt><trkpt lat="32.88904" lon="10.1769133"><ele>451.0</ele><time>2026-04-20T12:09:29.919Z</time></trkpt><trkpt lat="32.889025" lon="10.1768"><ele>451.0</ele><time>2026-04-20T12:09:30.919Z</time></trkpt><trkpt lat="32.8889883" lon="10.1766817"><ele>451.0</ele><time>2026-04-20T12:09:31.919Z</time></trkpt><trkpt lat="32.88895" lon="10.1765517"><ele>451.0</ele><time>2026-04-20T12:09:32.919Z</time></trkpt><trkpt lat="32.8889117" lon="10.1764167"><ele>451.0</ele><time>2026-04-20T12:09:33.919Z</time></trkpt><trkpt lat="32.8888717" lon="10.1762683"><ele>451.0</ele><time>2026-04-20T12:09:34.919Z</time></trkpt><trkpt lat="32.8888217" lon="10.1761083"><ele>450.75</ele><time>2026-04-20T12:09:35.919Z</time></trkpt><trkpt lat="32.8887767" lon="10.1759483"><ele>450.5</ele><time>2026-04-20T12:09:36.919Z</time></trkpt><trkpt lat="32.8887317" lon="10.17578"><ele>450.25</ele><time>2026-04-20T12:09:37.919Z</time></trkpt><trkpt lat="32.8886833" lon="10.175605"><ele>450.0</ele><time>2026-04-20T12:09:38.919Z</time></trkpt><trkpt lat="32.8886383" lon="10.17543"><ele>450.0</ele><time>2026-04-20T12:09:39.919Z</time></trkpt><trkpt lat="32.8886" lon="10.1752517"><ele>450.0</ele><time>2026-04-20T12:09:40.919Z</time></trkpt><trkpt lat="32.88857" lon="10.1750733"><ele>450.0</ele><time>2026-04-20T12:09:41.919Z</time></trkpt><trkpt lat="32.8885333" lon="10.1748917"><ele>449.66666666666663</ele><time>2026-04-20T12:09:42.919Z</time></trkpt><trkpt lat="32.8884833" lon="10.1747167"><ele>449.3333333333333</ele><time>2026-04-20T12:09:43.919Z</time></trkpt><trkpt lat="32.8884233" lon="10.1745367"><ele>449.0</ele><time>2026-04-20T12:09:44.919Z</time></trkpt><trkpt lat="32.8883717" lon="10.1743567"><ele>449.0</ele><time>2026-04-20T12:09:45.919Z</time></trkpt><trkpt lat="32.8883283" lon="10.1741783"><ele>449.0</ele><time>2026-04-20T12:09:46.919Z</time></trkpt><trkpt lat="32.8882917" lon="10.1739967"><ele>449.0</ele><time>2026-04-20T12:09:47.919Z</time></trkpt><trkpt lat="32.88825" lon="10.1738167"><ele>450.0</ele><time>2026-04-20T12:09:48.919Z</time></trkpt><trkpt lat="32.8882" lon="10.173635"><ele>451.0</ele><time>2026-04-20T12:09:49.919Z</time></trkpt><trkpt lat="32.8881433" lon="10.17345"><ele>452.0</ele><time>2026-04-20T12:09:50.919Z</time></trkpt><trkpt lat="32.88808" lon="10.173285"><ele>451.75</ele><time>2026-04-20T12:09:51.919Z</time></trkpt><trkpt lat="32.888015" lon="10.17312"><ele>451.5</ele><time>2026-04-20T12:09:52.919Z</time></trkpt><trkpt lat="32.8879567" lon="10.1729717"><ele>451.25</ele><time>2026-04-20T12:09:53.918Z</time></trkpt><trkpt lat="32.88791" lon="10.17282"><ele>451.0</ele><time>2026-04-20T12:09:54.918Z</time></trkpt><trkpt lat="32.8878717" lon="10.17266"><ele>451.0</ele><time>2026-04-20T12:09:55.918Z</time></trkpt><trkpt lat="32.887835" lon="10.1725183"><ele>451.0</ele><time>2026-04-20T12:09:56.918Z</time></trkpt><trkpt lat="32.8878217" lon="10.1723883"><ele>451.0</ele><time>2026-04-20T12:09:57.918Z</time></trkpt><trkpt lat="32.8878267" lon="10.1722733"><ele>451.0</ele><time>2026-04-20T12:09:58.918Z</time></trkpt><trkpt lat="32.887845" lon="10.172155"><ele>451.0</ele><time>2026-04-20T12:09:59.918Z</time></trkpt><trkpt lat="32.8878983" lon="10.172055"><ele>451.25</ele><time>2026-04-20T12:10:00.918Z</time></trkpt><trkpt lat="32.88796" lon="10.1719483"><ele>451.5</ele><time>2026-04-20T12:10:01.918Z</time></trkpt><trkpt lat="32.888015" lon="10.1718267"><ele>451.75</ele><time>2026-04-20T12:10:02.918Z</time></trkpt><trkpt lat="32.8880517" lon="10.1716983"><ele>452.0</ele><time>2026-04-20T12:10:03.918Z</time></trkpt><trkpt lat="32.888075" lon="10.17156"><ele>452.8</ele><time>2026-04-20T12:10:04.918Z</time></trkpt><trkpt lat="32.8881" lon="10.1714217"><ele>453.6</ele><time>2026-04-20T12:10:05.918Z</time></trkpt><trkpt lat="32.8881233" lon="10.17129"><ele>454.40000000000003</ele><time>2026-04-20T12:10:06.918Z</time></trkpt><trkpt lat="32.8881583" lon="10.1711733"><ele>455.20000000000005</ele><time>2026-04-20T12:10:07.918Z</time></trkpt><trkpt lat="32.8882133" lon="10.171075"><ele>456.0</ele><time>2026-04-20T12:10:08.918Z</time></trkpt><trkpt lat="32.88828" lon="10.17099"><ele>456.0</ele><time>2026-04-20T12:10:09.918Z</time></trkpt><trkpt lat="32.8883633" lon="10.1709117"><ele>456.0</ele><time>2026-04-20T12:10:10.918Z</time></trkpt><trkpt lat="32.8884583" lon="10.1708317"><ele>456.0</ele><time>2026-04-20T12:10:11.918Z</time></trkpt><trkpt lat="32.8885533" lon="10.170745"><ele>456.0</ele><time>2026-04-20T12:10:12.918Z</time></trkpt><trkpt lat="32.8886433" lon="10.17067"><ele>456.20000000000005</ele><time>2026-04-20T12:10:13.918Z</time></trkpt><trkpt lat="32.8887133" lon="10.1705917"><ele>456.40000000000003</ele><time>2026-04-20T12:10:14.918Z</time></trkpt><trkpt lat="32.888775" lon="10.1705017"><ele>456.6</ele><time>2026-04-20T12:10:15.918Z</time></trkpt><trkpt lat="32.88882" lon="10.1704083"><ele>456.8</ele><time>2026-04-20T12:10:16.918Z</time></trkpt><trkpt lat="32.8888483" lon="10.1703167"><ele>457.0</ele><time>2026-04-20T12:10:17.918Z</time></trkpt><trkpt lat="32.88887" lon="10.17022"><ele>457.0</ele><time>2026-04-20T12:10:18.918Z</time></trkpt><trkpt lat="32.8888683" lon="10.1701067"><ele>457.00000000000006</ele><time>2026-04-20T12:10:19.918Z</time></trkpt><trkpt lat="32.8888583" lon="10.1699817"><ele>457.00000000000006</ele><time>2026-04-20T12:10:20.918Z</time></trkpt><trkpt lat="32.8888433" lon="10.1698467"><ele>457.0</ele><time>2026-04-20T12:10:21.918Z</time></trkpt><trkpt lat="32.88883" lon="10.1697017"><ele>457.0</ele><time>2026-04-20T12:10:22.918Z</time></trkpt><trkpt lat="32.8888183" lon="10.16955"><ele>456.5</ele><time>2026-04-20T12:10:23.918Z</time></trkpt><trkpt lat="32.8888183" lon="10.1693933"><ele>456.0</ele><time>2026-04-20T12:10:24.918Z</time></trkpt><trkpt lat="32.8888167" lon="10.169235"><ele>455.5</ele><time>2026-04-20T12:10:25.918Z</time></trkpt><trkpt lat="32.888815" lon="10.16908"><ele>455.0</ele><time>2026-04-20T12:10:26.918Z</time></trkpt><trkpt lat="32.8888033" lon="10.16892"><ele>455.0</ele><time>2026-04-20T12:10:27.918Z</time></trkpt><trkpt lat="32.8887767" lon="10.1687517"><ele>455.0</ele><time>2026-04-20T12:10:28.918Z</time></trkpt><trkpt lat="32.8887483" lon="10.1685783"><ele>455.0</ele><time>2026-04-20T12:10:29.918Z</time></trkpt><trkpt lat="32.88873" lon="10.1683983"><ele>455.0</ele><time>2026-04-20T12:10:30.918Z</time></trkpt><trkpt lat="32.8887167" lon="10.1682167"><ele>455.0</ele><time>2026-04-20T12:10:31.918Z</time></trkpt><trkpt lat="32.888705" lon="10.1680283"><ele>455.0</ele><time>2026-04-20T12:10:32.918Z</time></trkpt><trkpt lat="32.8887" lon="10.1678283"><ele>455.0</ele><time>2026-04-20T12:10:33.918Z</time></trkpt><trkpt lat="32.8886917" lon="10.167625"><ele>455.0</ele><time>2026-04-20T12:10:34.918Z</time></trkpt><trkpt lat="32.8886767" lon="10.16742"><ele>455.0</ele><time>2026-04-20T12:10:35.918Z</time></trkpt><trkpt lat="32.8886683" lon="10.1672133"><ele>455.0</ele><time>2026-04-20T12:10:36.918Z</time></trkpt><trkpt lat="32.8886733" lon="10.167"><ele>454.66666666666663</ele><time>2026-04-20T12:10:37.918Z</time></trkpt><trkpt lat="32.8886783" lon="10.1667783"><ele>454.33333333333337</ele><time>2026-04-20T12:10:38.918Z</time></trkpt><trkpt lat="32.8886767" lon="10.16656"><ele>454.0</ele><time>2026-04-20T12:10:39.918Z</time></trkpt><trkpt lat="32.88868" lon="10.1663467"><ele>452.33333333333337</ele><time>2026-04-20T12:10:40.918Z</time></trkpt><trkpt lat="32.88869" lon="10.1661367"><ele>450.66666666666663</ele><time>2026-04-20T12:10:41.918Z</time></trkpt><trkpt lat="32.8887033" lon="10.1659133"><ele>449.0</ele><time>2026-04-20T12:10:42.918Z</time></trkpt><trkpt lat="32.8887183" lon="10.1656883"><ele>448.0</ele><time>2026-04-20T12:10:43.918Z</time></trkpt><trkpt lat="32.88873" lon="10.1654667"><ele>447.0</ele><time>2026-04-20T12:10:44.918Z</time></trkpt><trkpt lat="32.888735" lon="10.16525"><ele>446.0</ele><time>2026-04-20T12:10:45.918Z</time></trkpt><trkpt lat="32.88874" lon="10.1650483"><ele>445.66666666666663</ele><time>2026-04-20T12:10:46.918Z</time></trkpt><trkpt lat="32.888735" lon="10.1648583"><ele>445.33333333333337</ele><time>2026-04-20T12:10:47.918Z</time></trkpt><trkpt lat="32.888745" lon="10.1646717"><ele>445.0</ele><time>2026-04-20T12:10:48.918Z</time></trkpt><trkpt lat="32.8887583" lon="10.1644933"><ele>445.0</ele><time>2026-04-20T12:10:49.918Z</time></trkpt><trkpt lat="32.888765" lon="10.16431"><ele>445.0</ele><time>2026-04-20T12:10:50.918Z</time></trkpt><trkpt lat="32.8887683" lon="10.1641333"><ele>445.0</ele><time>2026-04-20T12:10:51.918Z</time></trkpt><trkpt lat="32.888775" lon="10.163945"><ele>445.0</ele><time>2026-04-20T12:10:52.918Z</time></trkpt><trkpt lat="32.8887617" lon="10.1637483"><ele>445.0</ele><time>2026-04-20T12:10:53.918Z</time></trkpt><trkpt lat="32.8887567" lon="10.16354"><ele>445.0</ele><time>2026-04-20T12:10:54.918Z</time></trkpt><trkpt lat="32.88875" lon="10.163335"><ele>445.33333333333337</ele><time>2026-04-20T12:10:55.918Z</time></trkpt><trkpt lat="32.8887267" lon="10.1631367"><ele>445.66666666666663</ele><time>2026-04-20T12:10:56.918Z</time></trkpt><trkpt lat="32.8887083" lon="10.162955"><ele>446.0</ele><time>2026-04-20T12:10:57.918Z</time></trkpt><trkpt lat="32.88867" lon="10.1627833"><ele>446.0</ele><time>2026-04-20T12:10:58.918Z</time></trkpt><trkpt lat="32.88863" lon="10.1626183"><ele>446.0</ele><time>2026-04-20T12:10:59.918Z</time></trkpt><trkpt lat="32.8885683" lon="10.1624533"><ele>446.0</ele><time>2026-04-20T12:11:00.918Z</time></trkpt><trkpt lat="32.8884967" lon="10.1623"><ele>446.0</ele><time>2026-04-20T12:11:01.918Z</time></trkpt><trkpt lat="32.88841" lon="10.1621517"><ele>445.66666666666663</ele><time>2026-04-20T12:11:02.918Z</time></trkpt><trkpt lat="32.888305" lon="10.162"><ele>445.33333333333337</ele><time>2026-04-20T12:11:03.918Z</time></trkpt><trkpt lat="32.888205" lon="10.1618517"><ele>445.0</ele><time>2026-04-20T12:11:04.918Z</time></trkpt><trkpt lat="32.8880933" lon="10.1617"><ele>445.0</ele><time>2026-04-20T12:11:05.918Z</time></trkpt><trkpt lat="32.8879733" lon="10.161545"><ele>445.0</ele><time>2026-04-20T12:11:06.918Z</time></trkpt><trkpt lat="32.8878667" lon="10.1613917"><ele>445.0</ele><time>2026-04-20T12:11:07.918Z</time></trkpt><trkpt lat="32.88777" lon="10.1612467"><ele>445.25</ele><time>2026-04-20T12:11:08.918Z</time></trkpt><trkpt lat="32.88769" lon="10.1611033"><ele>445.5</ele><time>2026-04-20T12:11:09.918Z</time></trkpt><trkpt lat="32.88762" lon="10.1609667"><ele>445.75</ele><time>2026-04-20T12:11:10.918Z</time></trkpt><trkpt lat="32.8875767" lon="10.160835"><ele>446.0</ele><time>2026-04-20T12:11:11.918Z</time></trkpt><trkpt lat="32.8875683" lon="10.1607067"><ele>446.0</ele><time>2026-04-20T12:11:12.918Z</time></trkpt><trkpt lat="32.8876017" lon="10.1605983"><ele>446.0</ele><time>2026-04-20T12:11:13.918Z</time></trkpt><trkpt lat="32.8876617" lon="10.1604867"><ele>446.0</ele><time>2026-04-20T12:11:14.918Z</time></trkpt><trkpt lat="32.887735" lon="10.1603667"><ele>446.0</ele><time>2026-04-20T12:11:15.918Z</time></trkpt><trkpt lat="32.88781" lon="10.160235"><ele>446.0</ele><time>2026-04-20T12:11:16.918Z</time></trkpt><trkpt lat="32.887885" lon="10.16009"><ele>446.0</ele><time>2026-04-20T12:11:17.918Z</time></trkpt><trkpt lat="32.88796" lon="10.15993"><ele>446.0</ele><time>2026-04-20T12:11:18.918Z</time></trkpt><trkpt lat="32.8880417" lon="10.1597533"><ele>446.0</ele><time>2026-04-20T12:11:19.918Z</time></trkpt><trkpt lat="32.8881283" lon="10.1595717"><ele>446.0</ele><time>2026-04-20T12:11:20.918Z</time></trkpt><trkpt lat="32.8882167" lon="10.159385"><ele>446.0</ele><time>2026-04-20T12:11:21.918Z</time></trkpt><trkpt lat="32.8883033" lon="10.159195"><ele>446.0</ele><time>2026-04-20T12:11:22.918Z</time></trkpt><trkpt lat="32.8883867" lon="10.159005"><ele>446.0</ele><time>2026-04-20T12:11:23.918Z</time></trkpt><trkpt lat="32.8884683" lon="10.1588167"><ele>446.0</ele><time>2026-04-20T12:11:24.918Z</time></trkpt><trkpt lat="32.888555" lon="10.15862"><ele>446.0</ele><time>2026-04-20T12:11:25.918Z</time></trkpt><trkpt lat="32.8886317" lon="10.1584167"><ele>446.0</ele><time>2026-04-20T12:11:26.918Z</time></trkpt><trkpt lat="32.88871" lon="10.1582183"><ele>446.0</ele><time>2026-04-20T12:11:27.918Z</time></trkpt><trkpt lat="32.8887883" lon="10.158015"><ele>446.0</ele><time>2026-04-20T12:11:28.918Z</time></trkpt><trkpt lat="32.88887" lon="10.1578183"><ele>446.0</ele><time>2026-04-20T12:11:29.918Z</time></trkpt><trkpt lat="32.88894" lon="10.1576283"><ele>446.0</ele><time>2026-04-20T12:11:30.918Z</time></trkpt><trkpt lat="32.8890083" lon="10.157435"><ele>447.3333333333333</ele><time>2026-04-20T12:11:31.918Z</time></trkpt><trkpt lat="32.8890717" lon="10.1572417"><ele>448.66666666666663</ele><time>2026-04-20T12:11:32.918Z</time></trkpt><trkpt lat="32.8891217" lon="10.157055"><ele>450.0</ele><time>2026-04-20T12:11:33.918Z</time></trkpt><trkpt lat="32.88917" lon="10.1568817"><ele>450.0</ele><time>2026-04-20T12:11:34.918Z</time></trkpt><trkpt lat="32.8892133" lon="10.1567033"><ele>450.0</ele><time>2026-04-20T12:11:35.918Z</time></trkpt><trkpt lat="32.889255" lon="10.1565233"><ele>450.0</ele><time>2026-04-20T12:11:36.918Z</time></trkpt><trkpt lat="32.8892933" lon="10.1563433"><ele>450.33333333333337</ele><time>2026-04-20T12:11:37.918Z</time></trkpt><trkpt lat="32.889335" lon="10.1561467"><ele>450.6666666666667</ele><time>2026-04-20T12:11:38.918Z</time></trkpt><trkpt lat="32.889375" lon="10.1559617"><ele>451.0</ele><time>2026-04-20T12:11:39.918Z</time></trkpt><trkpt lat="32.8894067" lon="10.15578"><ele>451.5</ele><time>2026-04-20T12:11:40.918Z</time></trkpt><trkpt lat="32.8894367" lon="10.1556133"><ele>452.0</ele><time>2026-04-20T12:11:41.918Z</time></trkpt><trkpt lat="32.8894583" lon="10.1554533"><ele>452.5</ele><time>2026-04-20T12:11:42.918Z</time></trkpt><trkpt lat="32.8894817" lon="10.155305"><ele>453.0</ele><time>2026-04-20T12:11:43.918Z</time></trkpt><trkpt lat="32.889495" lon="10.155155"><ele>453.0</ele><time>2026-04-20T12:11:44.918Z</time></trkpt><trkpt lat="32.8895" lon="10.1550033"><ele>453.0</ele><time>2026-04-20T12:11:45.918Z</time></trkpt><trkpt lat="32.8895067" lon="10.154845"><ele>453.0</ele><time>2026-04-20T12:11:46.918Z</time></trkpt><trkpt lat="32.889515" lon="10.1546867"><ele>453.0</ele><time>2026-04-20T12:11:47.918Z</time></trkpt><trkpt lat="32.8895167" lon="10.1545233"><ele>453.0</ele><time>2026-04-20T12:11:48.918Z</time></trkpt><trkpt lat="32.8895183" lon="10.1543533"><ele>453.0</ele><time>2026-04-20T12:11:49.918Z</time></trkpt><trkpt lat="32.889515" lon="10.1541833"><ele>453.0</ele><time>2026-04-20T12:11:50.918Z</time></trkpt><trkpt lat="32.8895083" lon="10.1540133"><ele>453.0</ele><time>2026-04-20T12:11:51.918Z</time></trkpt><trkpt lat="32.8894883" lon="10.1538367"><ele>453.0</ele><time>2026-04-20T12:11:52.918Z</time></trkpt><trkpt lat="32.8894483" lon="10.15366"><ele>453.0</ele><time>2026-04-20T12:11:53.918Z</time></trkpt><trkpt lat="32.8894117" lon="10.1534767"><ele>453.0</ele><time>2026-04-20T12:11:54.918Z</time></trkpt><trkpt lat="32.889375" lon="10.1533"><ele>453.33333333333337</ele><time>2026-04-20T12:11:55.918Z</time></trkpt><trkpt lat="32.8893367" lon="10.153125"><ele>453.6666666666667</ele><time>2026-04-20T12:11:56.918Z</time></trkpt><trkpt lat="32.8892917" lon="10.152945"><ele>454.0</ele><time>2026-04-20T12:11:57.918Z</time></trkpt><trkpt lat="32.889245" lon="10.1527583"><ele>454.0</ele><time>2026-04-20T12:11:58.918Z</time></trkpt><trkpt lat="32.8891983" lon="10.15257"><ele>454.0</ele><time>2026-04-20T12:11:59.918Z</time></trkpt><trkpt lat="32.8891533" lon="10.1523767"><ele>454.0</ele><time>2026-04-20T12:12:00.918Z</time></trkpt><trkpt lat="32.8891033" lon="10.1521817"><ele>452.6666666666667</ele><time>2026-04-20T12:12:01.918Z</time></trkpt><trkpt lat="32.8890517" lon="10.15198"><ele>451.33333333333337</ele><time>2026-04-20T12:12:02.918Z</time></trkpt><trkpt lat="32.889" lon="10.1517733"><ele>450.0</ele><time>2026-04-20T12:12:03.918Z</time></trkpt><trkpt lat="32.8889567" lon="10.15157"><ele>450.33333333333337</ele><time>2026-04-20T12:12:04.918Z</time></trkpt><trkpt lat="32.8889083" lon="10.1513633"><ele>450.6666666666667</ele><time>2026-04-20T12:12:05.918Z</time></trkpt><trkpt lat="32.8888617" lon="10.1511583"><ele>451.0</ele><time>2026-04-20T12:12:06.918Z</time></trkpt><trkpt lat="32.888835" lon="10.1509467"><ele>451.0</ele><time>2026-04-20T12:12:07.918Z</time></trkpt><trkpt lat="32.88881" lon="10.15073"><ele>451.0</ele><time>2026-04-20T12:12:08.918Z</time></trkpt><trkpt lat="32.8887833" lon="10.150515"><ele>451.0</ele><time>2026-04-20T12:12:09.918Z</time></trkpt><trkpt lat="32.8887433" lon="10.1503033"><ele>451.0</ele><time>2026-04-20T12:12:10.918Z</time></trkpt><trkpt lat="32.8887117" lon="10.1500883"><ele>451.0</ele><time>2026-04-20T12:12:11.918Z</time></trkpt><trkpt lat="32.8886833" lon="10.1498717"><ele>451.0</ele><time>2026-04-20T12:12:12.918Z</time></trkpt><trkpt lat="32.8886433" lon="10.14965"><ele>450.6666666666667</ele><time>2026-04-20T12:12:13.918Z</time></trkpt><trkpt lat="32.8886083" lon="10.1494283"><ele>450.33333333333337</ele><time>2026-04-20T12:12:14.918Z</time></trkpt><trkpt lat="32.8885733" lon="10.149205"><ele>450.0</ele><time>2026-04-20T12:12:15.918Z</time></trkpt><trkpt lat="32.8885433" lon="10.1489917"><ele>450.0</ele><time>2026-04-20T12:12:16.918Z</time></trkpt><trkpt lat="32.888515" lon="10.148785"><ele>450.0</ele><time>2026-04-20T12:12:17.918Z</time></trkpt><trkpt lat="32.88848" lon="10.1485867"><ele>450.0</ele><time>2026-04-20T12:12:18.918Z</time></trkpt><trkpt lat="32.8884567" lon="10.1483883"><ele>450.33333333333337</ele><time>2026-04-20T12:12:19.918Z</time></trkpt><trkpt lat="32.88843" lon="10.14819"><ele>450.6666666666667</ele><time>2026-04-20T12:12:20.918Z</time></trkpt><trkpt lat="32.88841" lon="10.14799"><ele>451.0</ele><time>2026-04-20T12:12:21.918Z</time></trkpt><trkpt lat="32.8883917" lon="10.14778"><ele>450.33333333333337</ele><time>2026-04-20T12:12:22.918Z</time></trkpt><trkpt lat="32.8883733" lon="10.1475717"><ele>449.66666666666663</ele><time>2026-04-20T12:12:23.918Z</time></trkpt><trkpt lat="32.8883667" lon="10.14737"><ele>449.0</ele><time>2026-04-20T12:12:24.918Z</time></trkpt><trkpt lat="32.888355" lon="10.1471633"><ele>447.66666666666663</ele><time>2026-04-20T12:12:25.918Z</time></trkpt><trkpt lat="32.8883433" lon="10.14697"><ele>446.33333333333337</ele><time>2026-04-20T12:12:26.918Z</time></trkpt><trkpt lat="32.88833" lon="10.14678"><ele>445.0</ele><time>2026-04-20T12:12:27.918Z</time></trkpt><trkpt lat="32.8883183" lon="10.1466"><ele>445.33333333333337</ele><time>2026-04-20T12:12:28.918Z</time></trkpt><trkpt lat="32.8883067" lon="10.1464183"><ele>445.66666666666663</ele><time>2026-04-20T12:12:29.918Z</time></trkpt><trkpt lat="32.8883033" lon="10.14624"><ele>446.0</ele><time>2026-04-20T12:12:30.918Z</time></trkpt><trkpt lat="32.8883033" lon="10.1460533"><ele>446.0</ele><time>2026-04-20T12:12:31.918Z</time></trkpt><trkpt lat="32.8883133" lon="10.1458567"><ele>446.0</ele><time>2026-04-20T12:12:32.918Z</time></trkpt><trkpt lat="32.8883183" lon="10.145665"><ele>446.0</ele><time>2026-04-20T12:12:33.918Z</time></trkpt><trkpt lat="32.8883117" lon="10.1454667"><ele>445.66666666666663</ele><time>2026-04-20T12:12:34.918Z</time></trkpt><trkpt lat="32.8883167" lon="10.14527"><ele>445.33333333333337</ele><time>2026-04-20T12:12:35.918Z</time></trkpt><trkpt lat="32.888315" lon="10.14507"><ele>445.0</ele><time>2026-04-20T12:12:36.918Z</time></trkpt><trkpt lat="32.8883083" lon="10.144865"><ele>444.33333333333337</ele><time>2026-04-20T12:12:37.918Z</time></trkpt><trkpt lat="32.8883117" lon="10.14466"><ele>443.66666666666663</ele><time>2026-04-20T12:12:38.918Z</time></trkpt><trkpt lat="32.88832" lon="10.1444533"><ele>443.0</ele><time>2026-04-20T12:12:39.918Z</time></trkpt><trkpt lat="32.8883467" lon="10.1442467"><ele>442.66666666666663</ele><time>2026-04-20T12:12:40.918Z</time></trkpt><trkpt lat="32.888365" lon="10.1440433"><ele>442.33333333333337</ele><time>2026-04-20T12:12:41.918Z</time></trkpt><trkpt lat="32.88838" lon="10.143835"><ele>442.0</ele><time>2026-04-20T12:12:42.918Z</time></trkpt><trkpt lat="32.88839" lon="10.1436333"><ele>442.0</ele><time>2026-04-20T12:12:43.918Z</time></trkpt><trkpt lat="32.888395" lon="10.1434367"><ele>442.0</ele><time>2026-04-20T12:12:44.918Z</time></trkpt><trkpt lat="32.8883933" lon="10.1432483"><ele>442.0</ele><time>2026-04-20T12:12:45.918Z</time></trkpt><trkpt lat="32.8883967" lon="10.1430617"><ele>441.33333333333337</ele><time>2026-04-20T12:12:46.918Z</time></trkpt><trkpt lat="32.8884017" lon="10.142875"><ele>440.66666666666663</ele><time>2026-04-20T12:12:47.918Z</time></trkpt><trkpt lat="32.8884" lon="10.1426783"><ele>440.0</ele><time>2026-04-20T12:12:48.918Z</time></trkpt><trkpt lat="32.8884117" lon="10.14248"><ele>440.0</ele><time>2026-04-20T12:12:49.918Z</time></trkpt><trkpt lat="32.8884283" lon="10.1422767"><ele>440.0</ele><time>2026-04-20T12:12:50.918Z</time></trkpt><trkpt lat="32.8884483" lon="10.14207"><ele>440.0</ele><time>2026-04-20T12:12:51.918Z</time></trkpt><trkpt lat="32.88847" lon="10.1418783"><ele>440.0</ele><time>2026-04-20T12:12:52.918Z</time></trkpt><trkpt lat="32.8885017" lon="10.1416883"><ele>440.0</ele><time>2026-04-20T12:12:53.918Z</time></trkpt><trkpt lat="32.88854" lon="10.1415083"><ele>440.0</ele><time>2026-04-20T12:12:54.918Z</time></trkpt><trkpt lat="32.8885833" lon="10.1413217"><ele>440.3333333333333</ele><time>2026-04-20T12:12:55.918Z</time></trkpt><trkpt lat="32.8886483" lon="10.1411383"><ele>440.66666666666663</ele><time>2026-04-20T12:12:56.918Z</time></trkpt><trkpt lat="32.8886967" lon="10.14095"><ele>441.0</ele><time>2026-04-20T12:12:57.918Z</time></trkpt><trkpt lat="32.8887433" lon="10.14077"><ele>440.5</ele><time>2026-04-20T12:12:58.918Z</time></trkpt><trkpt lat="32.8887667" lon="10.1406017"><ele>440.0</ele><time>2026-04-20T12:12:59.918Z</time></trkpt><trkpt lat="32.8887667" lon="10.1404517"><ele>439.5</ele><time>2026-04-20T12:13:00.918Z</time></trkpt><trkpt lat="32.888755" lon="10.1403217"><ele>439.0</ele><time>2026-04-20T12:13:01.918Z</time></trkpt><trkpt lat="32.8887417" lon="10.14021"><ele>439.0</ele><time>2026-04-20T12:13:02.918Z</time></trkpt><trkpt lat="32.88871" lon="10.1401233"><ele>439.0</ele><time>2026-04-20T12:13:03.918Z</time></trkpt><trkpt lat="32.8886633" lon="10.1400383"><ele>439.0</ele><time>2026-04-20T12:13:04.918Z</time></trkpt><trkpt lat="32.8886233" lon="10.1399417"><ele>439.0</ele><time>2026-04-20T12:13:05.918Z</time></trkpt><trkpt lat="32.8886017" lon="10.1398283"><ele>439.0</ele><time>2026-04-20T12:13:06.918Z</time></trkpt><trkpt lat="32.888585" lon="10.1397"><ele>439.0</ele><time>2026-04-20T12:13:07.918Z</time></trkpt><trkpt lat="32.8885717" lon="10.139575"><ele>439.0</ele><time>2026-04-20T12:13:08.918Z</time></trkpt><trkpt lat="32.8885683" lon="10.139465"><ele>439.0</ele><time>2026-04-20T12:13:09.918Z</time></trkpt><trkpt lat="32.888575" lon="10.1393617"><ele>439.0</ele><time>2026-04-20T12:13:10.918Z</time></trkpt><trkpt lat="32.8885967" lon="10.139255"><ele>439.0</ele><time>2026-04-20T12:13:11.918Z</time></trkpt><trkpt lat="32.8886367" lon="10.139145"><ele>439.5</ele><time>2026-04-20T12:13:12.918Z</time></trkpt><trkpt lat="32.8886867" lon="10.1390333"><ele>440.0</ele><time>2026-04-20T12:13:13.918Z</time></trkpt><trkpt lat="32.888755" lon="10.1389133"><ele>440.5</ele><time>2026-04-20T12:13:14.918Z</time></trkpt><trkpt lat="32.8888133" lon="10.138785"><ele>441.0</ele><time>2026-04-20T12:13:15.918Z</time></trkpt><trkpt lat="32.8888633" lon="10.1386383"><ele>441.0</ele><time>2026-04-20T12:13:16.918Z</time></trkpt><trkpt lat="32.8889183" lon="10.138485"><ele>441.0</ele><time>2026-04-20T12:13:17.918Z</time></trkpt><trkpt lat="32.8889717" lon="10.1383233"><ele>441.0</ele><time>2026-04-20T12:13:18.917Z</time></trkpt><trkpt lat="32.8890217" lon="10.1381583"><ele>441.0</ele><time>2026-04-20T12:13:19.917Z</time></trkpt><trkpt lat="32.8890633" lon="10.137985"><ele>442.33333333333337</ele><time>2026-04-20T12:13:20.917Z</time></trkpt><trkpt lat="32.8891017" lon="10.1378117"><ele>443.6666666666667</ele><time>2026-04-20T12:13:21.917Z</time></trkpt><trkpt lat="32.889135" lon="10.13763"><ele>445.0</ele><time>2026-04-20T12:13:22.917Z</time></trkpt><trkpt lat="32.8891767" lon="10.13744"><ele>445.6666666666667</ele><time>2026-04-20T12:13:23.917Z</time></trkpt><trkpt lat="32.8892117" lon="10.137255"><ele>446.33333333333337</ele><time>2026-04-20T12:13:24.917Z</time></trkpt><trkpt lat="32.8892483" lon="10.1370633"><ele>447.0</ele><time>2026-04-20T12:13:25.917Z</time></trkpt><trkpt lat="32.8892867" lon="10.1368767"><ele>448.0</ele><time>2026-04-20T12:13:26.917Z</time></trkpt><trkpt lat="32.889325" lon="10.1366967"><ele>449.0</ele><time>2026-04-20T12:13:27.917Z</time></trkpt><trkpt lat="32.8893767" lon="10.1365117"><ele>450.0</ele><time>2026-04-20T12:13:28.917Z</time></trkpt><trkpt lat="32.8894183" lon="10.13632"><ele>450.0</ele><time>2026-04-20T12:13:29.917Z</time></trkpt><trkpt lat="32.8894583" lon="10.1361267"><ele>450.0</ele><time>2026-04-20T12:13:30.917Z</time></trkpt><trkpt lat="32.889485" lon="10.135935"><ele>450.0</ele><time>2026-04-20T12:13:31.917Z</time></trkpt><trkpt lat="32.8895183" lon="10.1357517"><ele>449.33333333333337</ele><time>2026-04-20T12:13:32.917Z</time></trkpt><trkpt lat="32.88955" lon="10.1355633"><ele>448.6666666666667</ele><time>2026-04-20T12:13:33.917Z</time></trkpt><trkpt lat="32.8895783" lon="10.13537"><ele>448.0</ele><time>2026-04-20T12:13:34.917Z</time></trkpt><trkpt lat="32.8896033" lon="10.1351833"><ele>448.0</ele><time>2026-04-20T12:13:35.917Z</time></trkpt><trkpt lat="32.8896133" lon="10.134995"><ele>448.0</ele><time>2026-04-20T12:13:36.917Z</time></trkpt><trkpt lat="32.8896083" lon="10.134795"><ele>448.0</ele><time>2026-04-20T12:13:37.917Z</time></trkpt><trkpt lat="32.8895967" lon="10.1345883"><ele>447.6666666666667</ele><time>2026-04-20T12:13:38.917Z</time></trkpt><trkpt lat="32.8895967" lon="10.13439"><ele>447.33333333333337</ele><time>2026-04-20T12:13:39.917Z</time></trkpt><trkpt lat="32.8896133" lon="10.1341933"><ele>447.0</ele><time>2026-04-20T12:13:40.917Z</time></trkpt><trkpt lat="32.8896367" lon="10.1339983"><ele>446.0</ele><time>2026-04-20T12:13:41.917Z</time></trkpt><trkpt lat="32.88966" lon="10.1337983"><ele>445.0</ele><time>2026-04-20T12:13:42.917Z</time></trkpt><trkpt lat="32.88968" lon="10.133595"><ele>444.0</ele><time>2026-04-20T12:13:43.917Z</time></trkpt><trkpt lat="32.8897017" lon="10.1333983"><ele>443.66666666666663</ele><time>2026-04-20T12:13:44.917Z</time></trkpt><trkpt lat="32.8897183" lon="10.1332"><ele>443.3333333333333</ele><time>2026-04-20T12:13:45.917Z</time></trkpt><trkpt lat="32.8897333" lon="10.133"><ele>443.0</ele><time>2026-04-20T12:13:46.917Z</time></trkpt><trkpt lat="32.889745" lon="10.1328067"><ele>443.0</ele><time>2026-04-20T12:13:47.917Z</time></trkpt><trkpt lat="32.8897567" lon="10.1326267"><ele>443.0</ele><time>2026-04-20T12:13:48.917Z</time></trkpt><trkpt lat="32.8897717" lon="10.1324583"><ele>443.0</ele><time>2026-04-20T12:13:49.917Z</time></trkpt><trkpt lat="32.8897617" lon="10.132295"><ele>443.0</ele><time>2026-04-20T12:13:50.917Z</time></trkpt><trkpt lat="32.8897433" lon="10.1321333"><ele>443.25</ele><time>2026-04-20T12:13:51.917Z</time></trkpt><trkpt lat="32.889715" lon="10.1319633"><ele>443.5</ele><time>2026-04-20T12:13:52.917Z</time></trkpt><trkpt lat="32.8896933" lon="10.131795"><ele>443.75</ele><time>2026-04-20T12:13:53.917Z</time></trkpt><trkpt lat="32.8896817" lon="10.1316167"><ele>444.0</ele><time>2026-04-20T12:13:54.917Z</time></trkpt><trkpt lat="32.8896733" lon="10.13143"><ele>444.0</ele><time>2026-04-20T12:13:55.917Z</time></trkpt><trkpt lat="32.8896567" lon="10.13124"><ele>444.0</ele><time>2026-04-20T12:13:56.917Z</time></trkpt><trkpt lat="32.88964" lon="10.131045"><ele>444.0</ele><time>2026-04-20T12:13:57.917Z</time></trkpt><trkpt lat="32.8896217" lon="10.130855"><ele>444.33333333333337</ele><time>2026-04-20T12:13:58.917Z</time></trkpt><trkpt lat="32.8895983" lon="10.1306567"><ele>444.6666666666667</ele><time>2026-04-20T12:13:59.917Z</time></trkpt><trkpt lat="32.88957" lon="10.1304567"><ele>445.0</ele><time>2026-04-20T12:14:00.917Z</time></trkpt><trkpt lat="32.88954" lon="10.1302667"><ele>445.0</ele><time>2026-04-20T12:14:01.917Z</time></trkpt><trkpt lat="32.889505" lon="10.1300867"><ele>445.0</ele><time>2026-04-20T12:14:02.917Z</time></trkpt><trkpt lat="32.8894783" lon="10.12992"><ele>445.0</ele><time>2026-04-20T12:14:03.917Z</time></trkpt><trkpt lat="32.889455" lon="10.12977"><ele>445.0</ele><time>2026-04-20T12:14:04.917Z</time></trkpt><trkpt lat="32.8894367" lon="10.1296317"><ele>444.5</ele><time>2026-04-20T12:14:05.917Z</time></trkpt><trkpt lat="32.8894167" lon="10.1295"><ele>444.0</ele><time>2026-04-20T12:14:06.917Z</time></trkpt><trkpt lat="32.8894083" lon="10.12936"><ele>443.5</ele><time>2026-04-20T12:14:07.917Z</time></trkpt><trkpt lat="32.8894" lon="10.1292083"><ele>443.0</ele><time>2026-04-20T12:14:08.917Z</time></trkpt><trkpt lat="32.8893933" lon="10.1290433"><ele>443.0</ele><time>2026-04-20T12:14:09.917Z</time></trkpt><trkpt lat="32.88939" lon="10.12887"><ele>443.0</ele><time>2026-04-20T12:14:10.917Z</time></trkpt><trkpt lat="32.88939" lon="10.1286883"><ele>443.0</ele><time>2026-04-20T12:14:11.917Z</time></trkpt><trkpt lat="32.889385" lon="10.128505"><ele>443.0</ele><time>2026-04-20T12:14:12.917Z</time></trkpt><trkpt lat="32.8893767" lon="10.1283167"><ele>443.0</ele><time>2026-04-20T12:14:13.917Z</time></trkpt><trkpt lat="32.8893683" lon="10.1281283"><ele>443.0</ele><time>2026-04-20T12:14:14.917Z</time></trkpt><trkpt lat="32.889365" lon="10.127945"><ele>442.0</ele><time>2026-04-20T12:14:15.917Z</time></trkpt><trkpt lat="32.8893483" lon="10.127755"><ele>441.0</ele><time>2026-04-20T12:14:16.917Z</time></trkpt><trkpt lat="32.8893233" lon="10.127565"><ele>440.0</ele><time>2026-04-20T12:14:17.917Z</time></trkpt><trkpt lat="32.8892917" lon="10.1273767"><ele>440.0</ele><time>2026-04-20T12:14:18.917Z</time></trkpt><trkpt lat="32.889255" lon="10.127185"><ele>440.0</ele><time>2026-04-20T12:14:19.917Z</time></trkpt><trkpt lat="32.8892133" lon="10.1269833"><ele>440.0</ele><time>2026-04-20T12:14:20.917Z</time></trkpt><trkpt lat="32.8891583" lon="10.1267817"><ele>440.0</ele><time>2026-04-20T12:14:21.917Z</time></trkpt><trkpt lat="32.8891017" lon="10.126575"><ele>440.0</ele><time>2026-04-20T12:14:22.917Z</time></trkpt><trkpt lat="32.88905" lon="10.12637"><ele>440.0</ele><time>2026-04-20T12:14:23.917Z</time></trkpt><trkpt lat="32.889" lon="10.1261667"><ele>439.3333333333333</ele><time>2026-04-20T12:14:24.917Z</time></trkpt><trkpt lat="32.8889617" lon="10.125965"><ele>438.66666666666663</ele><time>2026-04-20T12:14:25.917Z</time></trkpt><trkpt lat="32.8889367" lon="10.1257567"><ele>438.0</ele><time>2026-04-20T12:14:26.917Z</time></trkpt><trkpt lat="32.8889167" lon="10.12555"><ele>437.33333333333337</ele><time>2026-04-20T12:14:27.917Z</time></trkpt><trkpt lat="32.8888983" lon="10.1253467"><ele>436.6666666666667</ele><time>2026-04-20T12:14:28.917Z</time></trkpt><trkpt lat="32.8889033" lon="10.1251267"><ele>436.0</ele><time>2026-04-20T12:14:29.917Z</time></trkpt><trkpt lat="32.888915" lon="10.1249117"><ele>436.6666666666667</ele><time>2026-04-20T12:14:30.917Z</time></trkpt><trkpt lat="32.8889217" lon="10.1246917"><ele>437.33333333333337</ele><time>2026-04-20T12:14:31.917Z</time></trkpt><trkpt lat="32.88895" lon="10.1244733"><ele>438.0</ele><time>2026-04-20T12:14:32.917Z</time></trkpt><trkpt lat="32.888995" lon="10.1242617"><ele>437.0</ele><time>2026-04-20T12:14:33.917Z</time></trkpt><trkpt lat="32.8890333" lon="10.1240467"><ele>436.0</ele><time>2026-04-20T12:14:34.917Z</time></trkpt><trkpt lat="32.8890633" lon="10.1238333"><ele>435.0</ele><time>2026-04-20T12:14:35.917Z</time></trkpt><trkpt lat="32.889095" lon="10.1236183"><ele>435.0</ele><time>2026-04-20T12:14:36.917Z</time></trkpt><trkpt lat="32.8891333" lon="10.123405"><ele>435.0</ele><time>2026-04-20T12:14:37.917Z</time></trkpt><trkpt lat="32.88918" lon="10.1231983"><ele>435.0</ele><time>2026-04-20T12:14:38.917Z</time></trkpt><trkpt lat="32.8892283" lon="10.1229933"><ele>434.66666666666663</ele><time>2026-04-20T12:14:39.917Z</time></trkpt><trkpt lat="32.8892833" lon="10.1227833"><ele>434.3333333333333</ele><time>2026-04-20T12:14:40.917Z</time></trkpt><trkpt lat="32.8893417" lon="10.1225733"><ele>434.0</ele><time>2026-04-20T12:14:41.917Z</time></trkpt><trkpt lat="32.8893917" lon="10.1223617"><ele>434.0</ele><time>2026-04-20T12:14:42.917Z</time></trkpt><trkpt lat="32.88944" lon="10.1221467"><ele>434.0</ele><time>2026-04-20T12:14:43.917Z</time></trkpt><trkpt lat="32.8894967" lon="10.12194"><ele>434.0</ele><time>2026-04-20T12:14:44.917Z</time></trkpt><trkpt lat="32.88956" lon="10.121745"><ele>434.0</ele><time>2026-04-20T12:14:45.917Z</time></trkpt><trkpt lat="32.8896367" lon="10.1215533"><ele>434.0</ele><time>2026-04-20T12:14:46.917Z</time></trkpt><trkpt lat="32.88971" lon="10.1213533"><ele>434.0</ele><time>2026-04-20T12:14:47.917Z</time></trkpt><trkpt lat="32.8897833" lon="10.1211567"><ele>434.0</ele><time>2026-04-20T12:14:48.917Z</time></trkpt><trkpt lat="32.889865" lon="10.1209617"><ele>434.0</ele><time>2026-04-20T12:14:49.917Z</time></trkpt><trkpt lat="32.8899517" lon="10.1207617"><ele>434.0</ele><time>2026-04-20T12:14:50.917Z</time></trkpt><trkpt lat="32.890025" lon="10.120565"><ele>433.3333333333333</ele><time>2026-04-20T12:14:51.917Z</time></trkpt><trkpt lat="32.89009" lon="10.1203683"><ele>432.66666666666663</ele><time>2026-04-20T12:14:52.917Z</time></trkpt><trkpt lat="32.89015" lon="10.1201817"><ele>432.0</ele><time>2026-04-20T12:14:53.917Z</time></trkpt><trkpt lat="32.8901933" lon="10.1199933"><ele>430.66666666666663</ele><time>2026-04-20T12:14:54.917Z</time></trkpt><trkpt lat="32.890235" lon="10.1197983"><ele>429.3333333333333</ele><time>2026-04-20T12:14:55.917Z</time></trkpt><trkpt lat="32.8902683" lon="10.1196083"><ele>428.0</ele><time>2026-04-20T12:14:56.917Z</time></trkpt><trkpt lat="32.8903167" lon="10.11942"><ele>428.0</ele><time>2026-04-20T12:14:57.917Z</time></trkpt><trkpt lat="32.89037" lon="10.119235"><ele>428.0</ele><time>2026-04-20T12:14:58.917Z</time></trkpt><trkpt lat="32.8904367" lon="10.1190533"><ele>428.0</ele><time>2026-04-20T12:14:59.917Z</time></trkpt><trkpt lat="32.8905067" lon="10.1188617"><ele>428.3333333333333</ele><time>2026-04-20T12:15:00.917Z</time></trkpt><trkpt lat="32.8905733" lon="10.11866"><ele>428.66666666666663</ele><time>2026-04-20T12:15:01.917Z</time></trkpt><trkpt lat="32.890645" lon="10.11846"><ele>429.0</ele><time>2026-04-20T12:15:02.917Z</time></trkpt><trkpt lat="32.89072" lon="10.1182567"><ele>429.66666666666663</ele><time>2026-04-20T12:15:03.917Z</time></trkpt><trkpt lat="32.8907867" lon="10.1180483"><ele>430.3333333333333</ele><time>2026-04-20T12:15:04.917Z</time></trkpt><trkpt lat="32.8908567" lon="10.1178517"><ele>431.0</ele><time>2026-04-20T12:15:05.917Z</time></trkpt><trkpt lat="32.890925" lon="10.1176467"><ele>429.66666666666663</ele><time>2026-04-20T12:15:06.917Z</time></trkpt><trkpt lat="32.8909933" lon="10.1174433"><ele>428.33333333333337</ele><time>2026-04-20T12:15:07.917Z</time></trkpt><trkpt lat="32.8910667" lon="10.1172367"><ele>427.0</ele><time>2026-04-20T12:15:08.917Z</time></trkpt><trkpt lat="32.8911467" lon="10.117035"><ele>427.0</ele><time>2026-04-20T12:15:09.917Z</time></trkpt><trkpt lat="32.8912233" lon="10.1168383"><ele>427.0</ele><time>2026-04-20T12:15:10.917Z</time></trkpt><trkpt lat="32.8913083" lon="10.11664"><ele>427.0</ele><time>2026-04-20T12:15:11.917Z</time></trkpt><trkpt lat="32.8913833" lon="10.1164467"><ele>427.33333333333337</ele><time>2026-04-20T12:15:12.917Z</time></trkpt><trkpt lat="32.8914567" lon="10.1162567"><ele>427.66666666666663</ele><time>2026-04-20T12:15:13.917Z</time></trkpt><trkpt lat="32.8915267" lon="10.1160667"><ele>428.0</ele><time>2026-04-20T12:15:14.917Z</time></trkpt><trkpt lat="32.8915867" lon="10.1158683"><ele>428.0</ele><time>2026-04-20T12:15:15.917Z</time></trkpt><trkpt lat="32.891645" lon="10.11567"><ele>428.0</ele><time>2026-04-20T12:15:16.917Z</time></trkpt><trkpt lat="32.8916933" lon="10.1154583"><ele>428.0</ele><time>2026-04-20T12:15:17.917Z</time></trkpt><trkpt lat="32.8917517" lon="10.1152567"><ele>427.66666666666663</ele><time>2026-04-20T12:15:18.917Z</time></trkpt><trkpt lat="32.8918183" lon="10.1150583"><ele>427.33333333333337</ele><time>2026-04-20T12:15:19.917Z</time></trkpt><trkpt lat="32.8918917" lon="10.11485"><ele>427.0</ele><time>2026-04-20T12:15:20.917Z</time></trkpt><trkpt lat="32.8919583" lon="10.114645"><ele>426.6666666666667</ele><time>2026-04-20T12:15:21.917Z</time></trkpt><trkpt lat="32.8920283" lon="10.11444"><ele>426.33333333333337</ele><time>2026-04-20T12:15:22.917Z</time></trkpt><trkpt lat="32.8920967" lon="10.1142333"><ele>426.0</ele><time>2026-04-20T12:15:23.917Z</time></trkpt><trkpt lat="32.8921683" lon="10.1140183"><ele>426.0</ele><time>2026-04-20T12:15:24.917Z</time></trkpt><trkpt lat="32.8922417" lon="10.1138133"><ele>426.0</ele><time>2026-04-20T12:15:25.917Z</time></trkpt><trkpt lat="32.892325" lon="10.1136133"><ele>426.0</ele><time>2026-04-20T12:15:26.917Z</time></trkpt><trkpt lat="32.8924033" lon="10.1133983"><ele>425.33333333333337</ele><time>2026-04-20T12:15:27.917Z</time></trkpt><trkpt lat="32.89248" lon="10.1131867"><ele>424.6666666666667</ele><time>2026-04-20T12:15:28.917Z</time></trkpt><trkpt lat="32.8925533" lon="10.1129767"><ele>424.0</ele><time>2026-04-20T12:15:29.917Z</time></trkpt><trkpt lat="32.8925883" lon="10.112785"><ele>423.6666666666667</ele><time>2026-04-20T12:15:30.917Z</time></trkpt><trkpt lat="32.892655" lon="10.1125667"><ele>423.33333333333337</ele><time>2026-04-20T12:15:31.917Z</time></trkpt><trkpt lat="32.8927167" lon="10.1123567"><ele>423.0</ele><time>2026-04-20T12:15:32.917Z</time></trkpt><trkpt lat="32.892785" lon="10.112155"><ele>423.0</ele><time>2026-04-20T12:15:33.917Z</time></trkpt><trkpt lat="32.8928483" lon="10.1119733"><ele>423.0</ele><time>2026-04-20T12:15:34.917Z</time></trkpt><trkpt lat="32.892915" lon="10.1117883"><ele>423.0</ele><time>2026-04-20T12:15:35.917Z</time></trkpt><trkpt lat="32.8929767" lon="10.1115967"><ele>423.0</ele><time>2026-04-20T12:15:36.917Z</time></trkpt><trkpt lat="32.8930467" lon="10.111405"><ele>423.0</ele><time>2026-04-20T12:15:37.917Z</time></trkpt><trkpt lat="32.8931117" lon="10.111205"><ele>423.0</ele><time>2026-04-20T12:15:38.917Z</time></trkpt><trkpt lat="32.893175" lon="10.1110033"><ele>423.0</ele><time>2026-04-20T12:15:39.917Z</time></trkpt><trkpt lat="32.8932433" lon="10.1107967"><ele>423.0</ele><time>2026-04-20T12:15:40.917Z</time></trkpt><trkpt lat="32.8933117" lon="10.1105867"><ele>423.0</ele><time>2026-04-20T12:15:41.917Z</time></trkpt><trkpt lat="32.893385" lon="10.1103817"><ele>422.33333333333337</ele><time>2026-04-20T12:15:42.917Z</time></trkpt><trkpt lat="32.8934533" lon="10.110175"><ele>421.6666666666667</ele><time>2026-04-20T12:15:43.917Z</time></trkpt><trkpt lat="32.8935183" lon="10.1099733"><ele>421.0</ele><time>2026-04-20T12:15:44.917Z</time></trkpt><trkpt lat="32.8935583" lon="10.1097717"><ele>420.6666666666667</ele><time>2026-04-20T12:15:45.917Z</time></trkpt><trkpt lat="32.8935983" lon="10.109575"><ele>420.33333333333337</ele><time>2026-04-20T12:15:46.917Z</time></trkpt><trkpt lat="32.8936433" lon="10.1093733"><ele>420.0</ele><time>2026-04-20T12:15:47.917Z</time></trkpt><trkpt lat="32.8936983" lon="10.1091783"><ele>420.0</ele><time>2026-04-20T12:15:48.917Z</time></trkpt><trkpt lat="32.8937633" lon="10.1089717"><ele>420.0</ele><time>2026-04-20T12:15:49.917Z</time></trkpt><trkpt lat="32.8938167" lon="10.108765"><ele>420.0</ele><time>2026-04-20T12:15:50.917Z</time></trkpt><trkpt lat="32.8938783" lon="10.1085633"><ele>420.0</ele><time>2026-04-20T12:15:51.917Z</time></trkpt><trkpt lat="32.893935" lon="10.1083683"><ele>420.0</ele><time>2026-04-20T12:15:52.917Z</time></trkpt><trkpt lat="32.8939733" lon="10.1081583"><ele>420.0</ele><time>2026-04-20T12:15:53.917Z</time></trkpt><trkpt lat="32.8940217" lon="10.1079583"><ele>421.0</ele><time>2026-04-20T12:15:54.917Z</time></trkpt><trkpt lat="32.8940667" lon="10.1077583"><ele>422.0</ele><time>2026-04-20T12:15:55.917Z</time></trkpt><trkpt lat="32.8941167" lon="10.107555"><ele>423.0</ele><time>2026-04-20T12:15:56.917Z</time></trkpt><trkpt lat="32.8941667" lon="10.107355"><ele>423.0</ele><time>2026-04-20T12:15:57.917Z</time></trkpt><trkpt lat="32.894215" lon="10.1071617"><ele>423.0</ele><time>2026-04-20T12:15:58.917Z</time></trkpt><trkpt lat="32.8942717" lon="10.106965"><ele>423.0</ele><time>2026-04-20T12:15:59.917Z</time></trkpt><trkpt lat="32.89432" lon="10.10677"><ele>421.33333333333337</ele><time>2026-04-20T12:16:00.917Z</time></trkpt><trkpt lat="32.8943617" lon="10.1065683"><ele>419.6666666666667</ele><time>2026-04-20T12:16:01.917Z</time></trkpt><trkpt lat="32.8943983" lon="10.1063633"><ele>418.0</ele><time>2026-04-20T12:16:02.917Z</time></trkpt><trkpt lat="32.8944417" lon="10.1061567"><ele>418.0</ele><time>2026-04-20T12:16:03.917Z</time></trkpt><trkpt lat="32.8944817" lon="10.1059533"><ele>418.0</ele><time>2026-04-20T12:16:04.917Z</time></trkpt><trkpt lat="32.8945267" lon="10.10575"><ele>418.0</ele><time>2026-04-20T12:16:05.917Z</time></trkpt><trkpt lat="32.8945833" lon="10.1055533"><ele>418.33333333333337</ele><time>2026-04-20T12:16:06.917Z</time></trkpt><trkpt lat="32.8946333" lon="10.10535"><ele>418.66666666666663</ele><time>2026-04-20T12:16:07.917Z</time></trkpt><trkpt lat="32.894685" lon="10.1051533"><ele>419.0</ele><time>2026-04-20T12:16:08.917Z</time></trkpt><trkpt lat="32.8947383" lon="10.1049633"><ele>419.0</ele><time>2026-04-20T12:16:09.917Z</time></trkpt><trkpt lat="32.894775" lon="10.1047717"><ele>419.0</ele><time>2026-04-20T12:16:10.917Z</time></trkpt><trkpt lat="32.894825" lon="10.10458"><ele>419.0</ele><time>2026-04-20T12:16:11.917Z</time></trkpt><trkpt lat="32.8948583" lon="10.1043983"><ele>419.0</ele><time>2026-04-20T12:16:12.917Z</time></trkpt><trkpt lat="32.8948933" lon="10.1042067"><ele>419.0</ele><time>2026-04-20T12:16:13.917Z</time></trkpt><trkpt lat="32.8949067" lon="10.104015"><ele>419.0</ele><time>2026-04-20T12:16:14.917Z</time></trkpt><trkpt lat="32.89493" lon="10.103835"><ele>419.66666666666663</ele><time>2026-04-20T12:16:15.917Z</time></trkpt><trkpt lat="32.8949667" lon="10.103665"><ele>420.33333333333337</ele><time>2026-04-20T12:16:16.917Z</time></trkpt><trkpt lat="32.895025" lon="10.1034933"><ele>421.0</ele><time>2026-04-20T12:16:17.917Z</time></trkpt><trkpt lat="32.8950767" lon="10.1033183"><ele>420.33333333333337</ele><time>2026-04-20T12:16:18.917Z</time></trkpt><trkpt lat="32.895135" lon="10.1031267"><ele>419.66666666666663</ele><time>2026-04-20T12:16:19.917Z</time></trkpt><trkpt lat="32.8951867" lon="10.1029383"><ele>419.0</ele><time>2026-04-20T12:16:20.917Z</time></trkpt><trkpt lat="32.8952367" lon="10.1027383"><ele>419.0</ele><time>2026-04-20T12:16:21.917Z</time></trkpt><trkpt lat="32.895275" lon="10.10254"><ele>419.0</ele><time>2026-04-20T12:16:22.917Z</time></trkpt><trkpt lat="32.89532" lon="10.1023417"><ele>419.0</ele><time>2026-04-20T12:16:23.917Z</time></trkpt><trkpt lat="32.8953667" lon="10.1021317"><ele>418.3333333333333</ele><time>2026-04-20T12:16:24.917Z</time></trkpt><trkpt lat="32.8954167" lon="10.1019233"><ele>417.66666666666663</ele><time>2026-04-20T12:16:25.917Z</time></trkpt><trkpt lat="32.8954667" lon="10.1017183"><ele>417.0</ele><time>2026-04-20T12:16:26.917Z</time></trkpt><trkpt lat="32.8955133" lon="10.1015133"><ele>416.33333333333337</ele><time>2026-04-20T12:16:27.917Z</time></trkpt><trkpt lat="32.8955567" lon="10.1012983"><ele>415.6666666666667</ele><time>2026-04-20T12:16:28.917Z</time></trkpt><trkpt lat="32.8955983" lon="10.101105"><ele>415.0</ele><time>2026-04-20T12:16:29.917Z</time></trkpt><trkpt lat="32.8956433" lon="10.1009117"><ele>416.6666666666667</ele><time>2026-04-20T12:16:30.917Z</time></trkpt><trkpt lat="32.89568" lon="10.1007183"><ele>418.33333333333337</ele><time>2026-04-20T12:16:31.917Z</time></trkpt><trkpt lat="32.8957" lon="10.1005167"><ele>420.0</ele><time>2026-04-20T12:16:32.917Z</time></trkpt><trkpt lat="32.8957217" lon="10.100305"><ele>420.0</ele><time>2026-04-20T12:16:33.917Z</time></trkpt><trkpt lat="32.89574" lon="10.1001083"><ele>420.0</ele><time>2026-04-20T12:16:34.917Z</time></trkpt><trkpt lat="32.8957633" lon="10.0999017"><ele>420.0</ele><time>2026-04-20T12:16:35.917Z</time></trkpt><trkpt lat="32.89578" lon="10.09969"><ele>419.66666666666663</ele><time>2026-04-20T12:16:36.917Z</time></trkpt><trkpt lat="32.895805" lon="10.0994767"><ele>419.3333333333333</ele><time>2026-04-20T12:16:37.917Z</time></trkpt><trkpt lat="32.8958267" lon="10.0992633"><ele>419.0</ele><time>2026-04-20T12:16:38.917Z</time></trkpt><trkpt lat="32.89584" lon="10.0990483"><ele>417.66666666666663</ele><time>2026-04-20T12:16:39.917Z</time></trkpt><trkpt lat="32.895855" lon="10.0988283"><ele>416.33333333333337</ele><time>2026-04-20T12:16:40.917Z</time></trkpt><trkpt lat="32.895875" lon="10.098605"><ele>415.0</ele><time>2026-04-20T12:16:41.917Z</time></trkpt><trkpt lat="32.8958933" lon="10.09838"><ele>414.6666666666667</ele><time>2026-04-20T12:16:42.917Z</time></trkpt><trkpt lat="32.8959133" lon="10.0981583"><ele>414.33333333333337</ele><time>2026-04-20T12:16:43.917Z</time></trkpt><trkpt lat="32.8959283" lon="10.097945"><ele>414.0</ele><time>2026-04-20T12:16:44.917Z</time></trkpt><trkpt lat="32.8959483" lon="10.0977367"><ele>414.0</ele><time>2026-04-20T12:16:45.917Z</time></trkpt><trkpt lat="32.89596" lon="10.0975233"><ele>414.0</ele><time>2026-04-20T12:16:46.917Z</time></trkpt><trkpt lat="32.8959883" lon="10.0973117"><ele>414.0</ele><time>2026-04-20T12:16:47.917Z</time></trkpt><trkpt lat="32.8960117" lon="10.0971017"><ele>414.0</ele><time>2026-04-20T12:16:48.917Z</time></trkpt><trkpt lat="32.89604" lon="10.0968867"><ele>414.0</ele><time>2026-04-20T12:16:49.916Z</time></trkpt><trkpt lat="32.8960733" lon="10.0966783"><ele>414.0</ele><time>2026-04-20T12:16:50.916Z</time></trkpt><trkpt lat="32.8960933" lon="10.0964767"><ele>413.66666666666663</ele><time>2026-04-20T12:16:51.917Z</time></trkpt><trkpt lat="32.8961217" lon="10.0962667"><ele>413.3333333333333</ele><time>2026-04-20T12:16:52.916Z</time></trkpt><trkpt lat="32.8961583" lon="10.0960583"><ele>413.0</ele><time>2026-04-20T12:16:53.916Z</time></trkpt><trkpt lat="32.896185" lon="10.09585"><ele>413.3333333333333</ele><time>2026-04-20T12:16:54.916Z</time></trkpt><trkpt lat="32.89621" lon="10.0956483"><ele>413.66666666666663</ele><time>2026-04-20T12:16:55.916Z</time></trkpt><trkpt lat="32.89624" lon="10.095445"><ele>414.0</ele><time>2026-04-20T12:16:56.916Z</time></trkpt><trkpt lat="32.8962717" lon="10.0952383"><ele>414.0</ele><time>2026-04-20T12:16:57.916Z</time></trkpt><trkpt lat="32.8963067" lon="10.0950467"><ele>414.0</ele><time>2026-04-20T12:16:58.916Z</time></trkpt><trkpt lat="32.8963467" lon="10.09485"><ele>414.0</ele><time>2026-04-20T12:16:59.916Z</time></trkpt><trkpt lat="32.8963767" lon="10.0946467"><ele>413.66666666666663</ele><time>2026-04-20T12:17:00.916Z</time></trkpt><trkpt lat="32.896405" lon="10.0944467"><ele>413.3333333333333</ele><time>2026-04-20T12:17:01.916Z</time></trkpt><trkpt lat="32.8964333" lon="10.094245"><ele>413.0</ele><time>2026-04-20T12:17:02.916Z</time></trkpt><trkpt lat="32.8964517" lon="10.0940433"><ele>414.0</ele><time>2026-04-20T12:17:03.916Z</time></trkpt><trkpt lat="32.8964717" lon="10.0938467"><ele>415.0</ele><time>2026-04-20T12:17:04.916Z</time></trkpt><trkpt lat="32.8964917" lon="10.093645"><ele>416.0</ele><time>2026-04-20T12:17:05.916Z</time></trkpt><trkpt lat="32.8965217" lon="10.0934683"><ele>416.0</ele><time>2026-04-20T12:17:06.916Z</time></trkpt><trkpt lat="32.8965517" lon="10.0932933"><ele>416.0</ele><time>2026-04-20T12:17:07.916Z</time></trkpt><trkpt lat="32.896575" lon="10.0931283"><ele>416.0</ele><time>2026-04-20T12:17:08.916Z</time></trkpt><trkpt lat="32.896605" lon="10.0929833"><ele>416.0</ele><time>2026-04-20T12:17:09.916Z</time></trkpt><trkpt lat="32.8966333" lon="10.0928483"><ele>415.66666666666663</ele><time>2026-04-20T12:17:10.916Z</time></trkpt><trkpt lat="32.8966583" lon="10.09273"><ele>415.3333333333333</ele><time>2026-04-20T12:17:11.917Z</time></trkpt><trkpt lat="32.8966733" lon="10.0926267"><ele>415.0</ele><time>2026-04-20T12:17:12.916Z</time></trkpt><trkpt lat="32.8966817" lon="10.0925383"><ele>414.66666666666663</ele><time>2026-04-20T12:17:13.916Z</time></trkpt><trkpt lat="32.8966883" lon="10.0924633"><ele>414.3333333333333</ele><time>2026-04-20T12:17:14.916Z</time></trkpt><trkpt lat="32.896695" lon="10.0923717"><ele>414.0</ele><time>2026-04-20T12:17:16.916Z</time></trkpt><trkpt lat="32.89671" lon="10.0922667"><ele>413.8333333333333</ele><time>2026-04-20T12:20:01.916Z</time></trkpt><trkpt lat="32.896675" lon="10.0921283"><ele>413.66666666666663</ele><time>2026-04-20T12:20:03.916Z</time></trkpt><trkpt lat="32.8966467" lon="10.0920467"><ele>413.5</ele><time>2026-04-20T12:20:04.916Z</time></trkpt><trkpt lat="32.896615" lon="10.091965"><ele>413.3333333333333</ele><time>2026-04-20T12:20:05.916Z</time></trkpt><trkpt lat="32.89659" lon="10.091875"><ele>413.16666666666663</ele><time>2026-04-20T12:20:06.916Z</time></trkpt><trkpt lat="32.8965617" lon="10.091775"><ele>413.0</ele><time>2026-04-20T12:20:07.916Z</time></trkpt><trkpt lat="32.896535" lon="10.0916683"><ele>413.59999999999997</ele><time>2026-04-20T12:20:08.916Z</time></trkpt><trkpt lat="32.8965033" lon="10.0915533"><ele>414.2</ele><time>2026-04-20T12:20:09.916Z</time></trkpt><trkpt lat="32.8964733" lon="10.091435"><ele>414.8</ele><time>2026-04-20T12:20:10.916Z</time></trkpt><trkpt lat="32.8964383" lon="10.0913117"><ele>415.4</ele><time>2026-04-20T12:20:11.916Z</time></trkpt><trkpt lat="32.8964033" lon="10.0911817"><ele>416.0</ele><time>2026-04-20T12:20:12.916Z</time></trkpt><trkpt lat="32.8963667" lon="10.0910517"><ele>416.0</ele><time>2026-04-20T12:20:13.916Z</time></trkpt><trkpt lat="32.8963317" lon="10.090915"><ele>416.0</ele><time>2026-04-20T12:20:14.916Z</time></trkpt><trkpt lat="32.8962917" lon="10.090775"><ele>416.0</ele><time>2026-04-20T12:20:15.916Z</time></trkpt><trkpt lat="32.8962483" lon="10.090635"><ele>416.0</ele><time>2026-04-20T12:20:16.915Z</time></trkpt><trkpt lat="32.8962067" lon="10.0904917"><ele>416.0</ele><time>2026-04-20T12:20:17.915Z</time></trkpt><trkpt lat="32.89617" lon="10.090345"><ele>416.0</ele><time>2026-04-20T12:20:18.915Z</time></trkpt><trkpt lat="32.89613" lon="10.0901967"><ele>416.0</ele><time>2026-04-20T12:20:19.915Z</time></trkpt><trkpt lat="32.896085" lon="10.09004"><ele>416.0</ele><time>2026-04-20T12:20:20.915Z</time></trkpt><trkpt lat="32.8960417" lon="10.089885"><ele>416.75</ele><time>2026-04-20T12:20:21.915Z</time></trkpt><trkpt lat="32.8960017" lon="10.0897233"><ele>417.5</ele><time>2026-04-20T12:20:22.915Z</time></trkpt><trkpt lat="32.8959617" lon="10.08956"><ele>418.25</ele><time>2026-04-20T12:20:23.915Z</time></trkpt><trkpt lat="32.8959267" lon="10.089395"><ele>419.0</ele><time>2026-04-20T12:20:24.915Z</time></trkpt><trkpt lat="32.8958967" lon="10.08923"><ele>417.75</ele><time>2026-04-20T12:20:25.915Z</time></trkpt><trkpt lat="32.8958633" lon="10.0890617"><ele>416.5</ele><time>2026-04-20T12:20:26.915Z</time></trkpt><trkpt lat="32.895825" lon="10.0888917"><ele>415.25</ele><time>2026-04-20T12:20:27.915Z</time></trkpt><trkpt lat="32.8957917" lon="10.0887183"><ele>414.0</ele><time>2026-04-20T12:20:28.915Z</time></trkpt><trkpt lat="32.8957633" lon="10.0885367"><ele>414.0</ele><time>2026-04-20T12:20:29.915Z</time></trkpt><trkpt lat="32.8957333" lon="10.0883533"><ele>414.0</ele><time>2026-04-20T12:20:30.915Z</time></trkpt><trkpt lat="32.8956967" lon="10.0881717"><ele>414.0</ele><time>2026-04-20T12:20:31.915Z</time></trkpt><trkpt lat="32.8956583" lon="10.0879867"><ele>415.33333333333337</ele><time>2026-04-20T12:20:32.915Z</time></trkpt><trkpt lat="32.8956183" lon="10.0878"><ele>416.6666666666667</ele><time>2026-04-20T12:20:33.915Z</time></trkpt><trkpt lat="32.8955883" lon="10.0876083"><ele>418.0</ele><time>2026-04-20T12:20:34.915Z</time></trkpt><trkpt lat="32.8955667" lon="10.0874117"><ele>419.0</ele><time>2026-04-20T12:20:35.915Z</time></trkpt><trkpt lat="32.8955367" lon="10.0872167"><ele>420.0</ele><time>2026-04-20T12:20:36.915Z</time></trkpt><trkpt lat="32.8955133" lon="10.0870217"><ele>421.0</ele><time>2026-04-20T12:20:37.915Z</time></trkpt><trkpt lat="32.89549" lon="10.08682"><ele>421.0</ele><time>2026-04-20T12:20:38.915Z</time></trkpt><trkpt lat="32.8954683" lon="10.086615"><ele>421.0</ele><time>2026-04-20T12:20:39.915Z</time></trkpt><trkpt lat="32.8954367" lon="10.086415"><ele>421.0</ele><time>2026-04-20T12:20:40.915Z</time></trkpt><trkpt lat="32.895405" lon="10.0862117"><ele>422.0</ele><time>2026-04-20T12:20:41.915Z</time></trkpt><trkpt lat="32.89538" lon="10.0860067"><ele>423.0</ele><time>2026-04-20T12:20:42.915Z</time></trkpt><trkpt lat="32.8953567" lon="10.0858067"><ele>424.0</ele><time>2026-04-20T12:20:43.915Z</time></trkpt><trkpt lat="32.8953333" lon="10.0856033"><ele>424.0</ele><time>2026-04-20T12:20:44.915Z</time></trkpt><trkpt lat="32.8953233" lon="10.085395"><ele>424.0</ele><time>2026-04-20T12:20:45.915Z</time></trkpt><trkpt lat="32.8953117" lon="10.0851833"><ele>424.0</ele><time>2026-04-20T12:20:46.915Z</time></trkpt><trkpt lat="32.8953033" lon="10.0849583"><ele>424.6666666666667</ele><time>2026-04-20T12:20:47.915Z</time></trkpt><trkpt lat="32.8953" lon="10.0847367"><ele>425.33333333333337</ele><time>2026-04-20T12:20:48.915Z</time></trkpt><trkpt lat="32.8953067" lon="10.0845233"><ele>426.0</ele><time>2026-04-20T12:20:49.915Z</time></trkpt><trkpt lat="32.8953083" lon="10.084305"><ele>425.66666666666663</ele><time>2026-04-20T12:20:50.915Z</time></trkpt><trkpt lat="32.89531" lon="10.08409"><ele>425.3333333333333</ele><time>2026-04-20T12:20:51.915Z</time></trkpt><trkpt lat="32.89532" lon="10.0838667"><ele>425.0</ele><time>2026-04-20T12:20:52.915Z</time></trkpt><trkpt lat="32.89533" lon="10.083645"><ele>425.0</ele><time>2026-04-20T12:20:53.915Z</time></trkpt><trkpt lat="32.8953367" lon="10.0834133"><ele>425.0</ele><time>2026-04-20T12:20:54.915Z</time></trkpt><trkpt lat="32.89533" lon="10.083185"><ele>425.0</ele><time>2026-04-20T12:20:55.915Z</time></trkpt><trkpt lat="32.89533" lon="10.0829533"><ele>425.0</ele><time>2026-04-20T12:20:56.915Z</time></trkpt><trkpt lat="32.8953183" lon="10.0827233"><ele>425.0</ele><time>2026-04-20T12:20:57.915Z</time></trkpt><trkpt lat="32.8953" lon="10.0824883"><ele>425.0</ele><time>2026-04-20T12:20:58.915Z</time></trkpt><trkpt lat="32.8952883" lon="10.08225"><ele>424.66666666666663</ele><time>2026-04-20T12:20:59.915Z</time></trkpt><trkpt lat="32.8952617" lon="10.082015"><ele>424.33333333333337</ele><time>2026-04-20T12:21:00.915Z</time></trkpt><trkpt lat="32.8952333" lon="10.081775"><ele>424.0</ele><time>2026-04-20T12:21:01.915Z</time></trkpt><trkpt lat="32.8951867" lon="10.0815367"><ele>424.0</ele><time>2026-04-20T12:21:02.915Z</time></trkpt><trkpt lat="32.8951483" lon="10.0812967"><ele>424.0</ele><time>2026-04-20T12:21:03.915Z</time></trkpt><trkpt lat="32.8951117" lon="10.0810533"><ele>424.0</ele><time>2026-04-20T12:21:04.915Z</time></trkpt><trkpt lat="32.8950683" lon="10.0808083"><ele>423.33333333333337</ele><time>2026-04-20T12:21:05.915Z</time></trkpt><trkpt lat="32.8950267" lon="10.080555"><ele>422.66666666666663</ele><time>2026-04-20T12:21:06.915Z</time></trkpt><trkpt lat="32.89498" lon="10.0803033"><ele>422.0</ele><time>2026-04-20T12:21:07.915Z</time></trkpt><trkpt lat="32.8949383" lon="10.0800483"><ele>422.3333333333333</ele><time>2026-04-20T12:21:08.915Z</time></trkpt><trkpt lat="32.8949" lon="10.079795"><ele>422.66666666666663</ele><time>2026-04-20T12:21:09.915Z</time></trkpt><trkpt lat="32.8948567" lon="10.0795333"><ele>423.0</ele><time>2026-04-20T12:21:10.915Z</time></trkpt><trkpt lat="32.8948117" lon="10.0792683"><ele>422.33333333333337</ele><time>2026-04-20T12:21:11.915Z</time></trkpt><trkpt lat="32.8947733" lon="10.0790033"><ele>421.6666666666667</ele><time>2026-04-20T12:21:12.915Z</time></trkpt><trkpt lat="32.8947333" lon="10.0787467"><ele>421.0</ele><time>2026-04-20T12:21:13.915Z</time></trkpt><trkpt lat="32.8946933" lon="10.0784883"><ele>420.6666666666667</ele><time>2026-04-20T12:21:14.915Z</time></trkpt><trkpt lat="32.894655" lon="10.0782267"><ele>420.33333333333337</ele><time>2026-04-20T12:21:15.915Z</time></trkpt><trkpt lat="32.8946083" lon="10.077965"><ele>420.0</ele><time>2026-04-20T12:21:16.915Z</time></trkpt><trkpt lat="32.8945633" lon="10.07771"><ele>420.0</ele><time>2026-04-20T12:21:17.915Z</time></trkpt><trkpt lat="32.89452" lon="10.0774533"><ele>420.0</ele><time>2026-04-20T12:21:18.915Z</time></trkpt><trkpt lat="32.8944767" lon="10.0771967"><ele>420.0</ele><time>2026-04-20T12:21:19.915Z</time></trkpt><trkpt lat="32.8944433" lon="10.0769367"><ele>420.33333333333337</ele><time>2026-04-20T12:21:20.915Z</time></trkpt><trkpt lat="32.894415" lon="10.0766717"><ele>420.6666666666667</ele><time>2026-04-20T12:21:21.915Z</time></trkpt><trkpt lat="32.894395" lon="10.0764117"><ele>421.0</ele><time>2026-04-20T12:21:22.915Z</time></trkpt><trkpt lat="32.8943867" lon="10.076145"><ele>421.5</ele><time>2026-04-20T12:21:23.915Z</time></trkpt><trkpt lat="32.8944033" lon="10.075875"><ele>422.0</ele><time>2026-04-20T12:21:24.915Z</time></trkpt><trkpt lat="32.8944217" lon="10.0756"><ele>422.0</ele><time>2026-04-20T12:21:25.915Z</time></trkpt><trkpt lat="32.894455" lon="10.075335"><ele>422.0</ele><time>2026-04-20T12:21:26.915Z</time></trkpt><trkpt lat="32.8945033" lon="10.07508"><ele>422.0</ele><time>2026-04-20T12:21:27.915Z</time></trkpt><trkpt lat="32.89457" lon="10.0748133"><ele>421.0</ele><time>2026-04-20T12:21:28.915Z</time></trkpt><trkpt lat="32.894645" lon="10.0745567"><ele>420.0</ele><time>2026-04-20T12:21:29.915Z</time></trkpt><trkpt lat="32.8947283" lon="10.0742967"><ele>420.5</ele><time>2026-04-20T12:21:30.915Z</time></trkpt><trkpt lat="32.8948167" lon="10.074035"><ele>421.0</ele><time>2026-04-20T12:21:31.915Z</time></trkpt><trkpt lat="32.8949117" lon="10.0737717"><ele>421.0</ele><time>2026-04-20T12:21:32.915Z</time></trkpt><trkpt lat="32.8950033" lon="10.0735033"><ele>421.0</ele><time>2026-04-20T12:21:33.915Z</time></trkpt><trkpt lat="32.8950983" lon="10.0732383"><ele>418.0</ele><time>2026-04-20T12:21:34.915Z</time></trkpt><trkpt lat="32.8951917" lon="10.07297"><ele>415.0</ele><time>2026-04-20T12:21:35.915Z</time></trkpt><trkpt lat="32.895295" lon="10.0727067"><ele>415.0</ele><time>2026-04-20T12:21:36.915Z</time></trkpt><trkpt lat="32.8954117" lon="10.0724533"><ele>415.0</ele><time>2026-04-20T12:21:37.915Z</time></trkpt><trkpt lat="32.8955333" lon="10.0721983"><ele>414.5</ele><time>2026-04-20T12:21:38.915Z</time></trkpt><trkpt lat="32.8956567" lon="10.071955"><ele>414.0</ele><time>2026-04-20T12:21:39.915Z</time></trkpt><trkpt lat="32.8957833" lon="10.071715"><ele>413.5</ele><time>2026-04-20T12:21:40.916Z</time></trkpt><trkpt lat="32.8959233" lon="10.0714833"><ele>413.0</ele><time>2026-04-20T12:21:41.915Z</time></trkpt><trkpt lat="32.89608" lon="10.0712617"><ele>413.0</ele><time>2026-04-20T12:21:42.915Z</time></trkpt><trkpt lat="32.8962433" lon="10.0710417"><ele>413.0</ele><time>2026-04-20T12:21:43.915Z</time></trkpt><trkpt lat="32.8964117" lon="10.07083"><ele>412.0</ele><time>2026-04-20T12:21:44.915Z</time></trkpt><trkpt lat="32.8965817" lon="10.070625"><ele>411.0</ele><time>2026-04-20T12:21:45.915Z</time></trkpt><trkpt lat="32.89676" lon="10.0704267"><ele>410.0</ele><time>2026-04-20T12:21:46.915Z</time></trkpt><trkpt lat="32.8969367" lon="10.0702333"><ele>409.0</ele><time>2026-04-20T12:21:47.915Z</time></trkpt><trkpt lat="32.8971233" lon="10.0700433"><ele>408.5</ele><time>2026-04-20T12:21:48.915Z</time></trkpt><trkpt lat="32.8973117" lon="10.0698533"><ele>408.0</ele><time>2026-04-20T12:21:49.915Z</time></trkpt><trkpt lat="32.897495" lon="10.0696633"><ele>408.5</ele><time>2026-04-20T12:21:50.915Z</time></trkpt><trkpt lat="32.8976733" lon="10.0694767"><ele>409.0</ele><time>2026-04-20T12:21:51.915Z</time></trkpt><trkpt lat="32.8978583" lon="10.0692767"><ele>409.0</ele><time>2026-04-20T12:21:52.915Z</time></trkpt><trkpt lat="32.8980333" lon="10.0690783"><ele>409.0</ele><time>2026-04-20T12:21:53.915Z</time></trkpt><trkpt lat="32.89821" lon="10.06888"><ele>409.0</ele><time>2026-04-20T12:21:54.915Z</time></trkpt><trkpt lat="32.8983833" lon="10.0686767"><ele>409.0</ele><time>2026-04-20T12:21:55.915Z</time></trkpt><trkpt lat="32.8985433" lon="10.068465"><ele>407.5</ele><time>2026-04-20T12:21:56.915Z</time></trkpt><trkpt lat="32.89869" lon="10.0682217"><ele>406.0</ele><time>2026-04-20T12:21:57.915Z</time></trkpt><trkpt lat="32.898825" lon="10.06797"><ele>406.0</ele><time>2026-04-20T12:21:58.915Z</time></trkpt><trkpt lat="32.89894" lon="10.06771"><ele>406.0</ele><time>2026-04-20T12:21:59.915Z</time></trkpt><trkpt lat="32.899035" lon="10.067445"><ele>406.5</ele><time>2026-04-20T12:22:00.915Z</time></trkpt><trkpt lat="32.899125" lon="10.0671683"><ele>407.0</ele><time>2026-04-20T12:22:01.915Z</time></trkpt><trkpt lat="32.8992083" lon="10.066895"><ele>406.0</ele><time>2026-04-20T12:22:02.915Z</time></trkpt><trkpt lat="32.899285" lon="10.0666167"><ele>405.0</ele><time>2026-04-20T12:22:03.915Z</time></trkpt><trkpt lat="32.89936" lon="10.0663383"><ele>405.0</ele><time>2026-04-20T12:22:04.915Z</time></trkpt><trkpt lat="32.89943" lon="10.0660517"><ele>405.0</ele><time>2026-04-20T12:22:05.915Z</time></trkpt><trkpt lat="32.8994933" lon="10.0657667"><ele>406.5</ele><time>2026-04-20T12:22:06.915Z</time></trkpt><trkpt lat="32.8995617" lon="10.065485"><ele>408.0</ele><time>2026-04-20T12:22:07.915Z</time></trkpt><trkpt lat="32.899625" lon="10.0652017"><ele>409.0</ele><time>2026-04-20T12:22:08.915Z</time></trkpt><trkpt lat="32.899695" lon="10.064915"><ele>410.0</ele><time>2026-04-20T12:22:09.915Z</time></trkpt><trkpt lat="32.89977" lon="10.0646333"><ele>410.0</ele><time>2026-04-20T12:22:10.915Z</time></trkpt><trkpt lat="32.89984" lon="10.0643483"><ele>410.0</ele><time>2026-04-20T12:22:11.915Z</time></trkpt><trkpt lat="32.8999167" lon="10.0640733"><ele>408.5</ele><time>2026-04-20T12:22:12.915Z</time></trkpt><trkpt lat="32.8999867" lon="10.0637967"><ele>407.0</ele><time>2026-04-20T12:22:13.915Z</time></trkpt><trkpt lat="32.9000483" lon="10.063515"><ele>405.0</ele><time>2026-04-20T12:22:14.915Z</time></trkpt><trkpt lat="32.9001167" lon="10.0632367"><ele>403.0</ele><time>2026-04-20T12:22:15.915Z</time></trkpt><trkpt lat="32.9001883" lon="10.0629567"><ele>403.0</ele><time>2026-04-20T12:22:16.915Z</time></trkpt><trkpt lat="32.90026" lon="10.0626767"><ele>403.0</ele><time>2026-04-20T12:22:17.915Z</time></trkpt><trkpt lat="32.9003283" lon="10.0623983"><ele>404.0</ele><time>2026-04-20T12:22:18.915Z</time></trkpt><trkpt lat="32.9003983" lon="10.0621233"><ele>405.0</ele><time>2026-04-20T12:22:19.915Z</time></trkpt><trkpt lat="32.9004683" lon="10.0618433"><ele>404.5</ele><time>2026-04-20T12:22:20.915Z</time></trkpt><trkpt lat="32.9005383" lon="10.0615617"><ele>404.0</ele><time>2026-04-20T12:22:21.915Z</time></trkpt><trkpt lat="32.900605" lon="10.0612783"><ele>404.0</ele><time>2026-04-20T12:22:22.915Z</time></trkpt><trkpt lat="32.9006717" lon="10.0609983"><ele>404.0</ele><time>2026-04-20T12:22:23.915Z</time></trkpt><trkpt lat="32.90074" lon="10.0607167"><ele>404.0</ele><time>2026-04-20T12:22:24.915Z</time></trkpt><trkpt lat="32.9008067" lon="10.0604367"><ele>404.0</ele><time>2026-04-20T12:22:25.915Z</time></trkpt><trkpt lat="32.9008733" lon="10.060155"><ele>402.0</ele><time>2026-04-20T12:22:26.915Z</time></trkpt><trkpt lat="32.9009383" lon="10.0598783"><ele>400.0</ele><time>2026-04-20T12:22:27.915Z</time></trkpt><trkpt lat="32.9010083" lon="10.0596"><ele>400.0</ele><time>2026-04-20T12:22:28.915Z</time></trkpt><trkpt lat="32.9010767" lon="10.0593217"><ele>400.0</ele><time>2026-04-20T12:22:29.915Z</time></trkpt><trkpt lat="32.901145" lon="10.0590483"><ele>399.0</ele><time>2026-04-20T12:22:30.915Z</time></trkpt><trkpt lat="32.9012167" lon="10.0587767"><ele>398.0</ele><time>2026-04-20T12:22:31.915Z</time></trkpt><trkpt lat="32.9012833" lon="10.0585"><ele>398.0</ele><time>2026-04-20T12:22:32.915Z</time></trkpt><trkpt lat="32.9013533" lon="10.0582217"><ele>398.0</ele><time>2026-04-20T12:22:33.915Z</time></trkpt><trkpt lat="32.901425" lon="10.0579483"><ele>398.0</ele><time>2026-04-20T12:22:34.915Z</time></trkpt><trkpt lat="32.9014983" lon="10.0576733"><ele>398.0</ele><time>2026-04-20T12:22:35.915Z</time></trkpt><trkpt lat="32.9015767" lon="10.0574"><ele>398.5</ele><time>2026-04-20T12:22:36.915Z</time></trkpt><trkpt lat="32.901645" lon="10.057125"><ele>399.0</ele><time>2026-04-20T12:22:37.915Z</time></trkpt><trkpt lat="32.90171" lon="10.0568483"><ele>397.5</ele><time>2026-04-20T12:22:38.915Z</time></trkpt><trkpt lat="32.9017733" lon="10.0565717"><ele>396.0</ele><time>2026-04-20T12:22:39.915Z</time></trkpt><trkpt lat="32.901835" lon="10.0562967"><ele>396.0</ele><time>2026-04-20T12:22:40.915Z</time></trkpt><trkpt lat="32.901905" lon="10.0560167"><ele>396.0</ele><time>2026-04-20T12:22:41.915Z</time></trkpt><trkpt lat="32.90197" lon="10.055735"><ele>396.5</ele><time>2026-04-20T12:22:42.915Z</time></trkpt><trkpt lat="32.9020267" lon="10.0554517"><ele>397.0</ele><time>2026-04-20T12:22:43.915Z</time></trkpt><trkpt lat="32.9020867" lon="10.0551733"><ele>397.0</ele><time>2026-04-20T12:22:44.915Z</time></trkpt><trkpt lat="32.90214" lon="10.0548917"><ele>397.0</ele><time>2026-04-20T12:22:45.915Z</time></trkpt><trkpt lat="32.90218" lon="10.0546083"><ele>397.0</ele><time>2026-04-20T12:22:46.915Z</time></trkpt><trkpt lat="32.9022133" lon="10.0543267"><ele>397.0</ele><time>2026-04-20T12:22:47.915Z</time></trkpt><trkpt lat="32.9022367" lon="10.0540417"><ele>397.0</ele><time>2026-04-20T12:22:48.915Z</time></trkpt><trkpt lat="32.9022567" lon="10.053755"><ele>397.0</ele><time>2026-04-20T12:22:49.915Z</time></trkpt><trkpt lat="32.9022667" lon="10.0534683"><ele>398.0</ele><time>2026-04-20T12:22:50.915Z</time></trkpt><trkpt lat="32.9022767" lon="10.0531883"><ele>399.0</ele><time>2026-04-20T12:22:51.915Z</time></trkpt><trkpt lat="32.9022883" lon="10.0529033"><ele>399.0</ele><time>2026-04-20T12:22:52.915Z</time></trkpt><trkpt lat="32.9022983" lon="10.0526167"><ele>399.0</ele><time>2026-04-20T12:22:53.915Z</time></trkpt><trkpt lat="32.9022967" lon="10.05233"><ele>398.0</ele><time>2026-04-20T12:22:54.915Z</time></trkpt><trkpt lat="32.9022983" lon="10.05204"><ele>397.0</ele><time>2026-04-20T12:22:55.915Z</time></trkpt><trkpt lat="32.9023067" lon="10.0517533"><ele>396.5</ele><time>2026-04-20T12:22:56.915Z</time></trkpt><trkpt lat="32.9023133" lon="10.051465"><ele>396.0</ele><time>2026-04-20T12:22:57.915Z</time></trkpt><trkpt lat="32.902315" lon="10.0511867"><ele>396.0</ele><time>2026-04-20T12:22:58.915Z</time></trkpt><trkpt lat="32.9023167" lon="10.0509033"><ele>396.0</ele><time>2026-04-20T12:22:59.915Z</time></trkpt><trkpt lat="32.90233" lon="10.0506167"><ele>396.0</ele><time>2026-04-20T12:23:00.915Z</time></trkpt><trkpt lat="32.902335" lon="10.0503317"><ele>396.0</ele><time>2026-04-20T12:23:01.915Z</time></trkpt><trkpt lat="32.902345" lon="10.0500467"><ele>395.0</ele><time>2026-04-20T12:23:02.915Z</time></trkpt><trkpt lat="32.9023533" lon="10.0497533"><ele>394.0</ele><time>2026-04-20T12:23:03.915Z</time></trkpt><trkpt lat="32.90236" lon="10.0494633"><ele>394.0</ele><time>2026-04-20T12:23:04.915Z</time></trkpt><trkpt lat="32.9023667" lon="10.04917"><ele>394.0</ele><time>2026-04-20T12:23:05.915Z</time></trkpt><trkpt lat="32.9023733" lon="10.0488817"><ele>394.5</ele><time>2026-04-20T12:23:06.915Z</time></trkpt><trkpt lat="32.902375" lon="10.04859"><ele>395.0</ele><time>2026-04-20T12:23:07.915Z</time></trkpt><trkpt lat="32.902385" lon="10.0483"><ele>393.5</ele><time>2026-04-20T12:23:08.915Z</time></trkpt><trkpt lat="32.90239" lon="10.048005"><ele>392.0</ele><time>2026-04-20T12:23:09.915Z</time></trkpt><trkpt lat="32.9023967" lon="10.0477083"><ele>393.5</ele><time>2026-04-20T12:23:10.915Z</time></trkpt><trkpt lat="32.9024017" lon="10.0474117"><ele>395.0</ele><time>2026-04-20T12:23:11.915Z</time></trkpt><trkpt lat="32.9024067" lon="10.0471133"><ele>395.0</ele><time>2026-04-20T12:23:12.915Z</time></trkpt><trkpt lat="32.9024167" lon="10.0468117"><ele>395.0</ele><time>2026-04-20T12:23:13.915Z</time></trkpt><trkpt lat="32.9024267" lon="10.0465133"><ele>395.0</ele><time>2026-04-20T12:23:14.915Z</time></trkpt><trkpt lat="32.9024367" lon="10.04622"><ele>395.0</ele><time>2026-04-20T12:23:15.915Z</time></trkpt><trkpt lat="32.9024467" lon="10.0459233"><ele>393.5</ele><time>2026-04-20T12:23:16.915Z</time></trkpt><trkpt lat="32.9024583" lon="10.0456267"><ele>392.0</ele><time>2026-04-20T12:23:17.915Z</time></trkpt><trkpt lat="32.902465" lon="10.04533"><ele>392.0</ele><time>2026-04-20T12:23:18.915Z</time></trkpt><trkpt lat="32.902475" lon="10.0450433"><ele>392.0</ele><time>2026-04-20T12:23:19.915Z</time></trkpt><trkpt lat="32.9024867" lon="10.0447533"><ele>393.0</ele><time>2026-04-20T12:23:20.915Z</time></trkpt><trkpt lat="32.9025" lon="10.0444633"><ele>394.0</ele><time>2026-04-20T12:23:21.915Z</time></trkpt><trkpt lat="32.9025133" lon="10.0441717"><ele>394.0</ele><time>2026-04-20T12:23:22.915Z</time></trkpt><trkpt lat="32.90252" lon="10.0438817"><ele>394.0</ele><time>2026-04-20T12:23:23.915Z</time></trkpt><trkpt lat="32.9025233" lon="10.0435867"><ele>393.5</ele><time>2026-04-20T12:23:24.915Z</time></trkpt><trkpt lat="32.9025317" lon="10.043295"><ele>393.0</ele><time>2026-04-20T12:23:25.915Z</time></trkpt><trkpt lat="32.9025333" lon="10.043"><ele>393.0</ele><time>2026-04-20T12:23:26.915Z</time></trkpt><trkpt lat="32.9025333" lon="10.042705"><ele>393.0</ele><time>2026-04-20T12:23:27.915Z</time></trkpt><trkpt lat="32.9025367" lon="10.0424117"><ele>393.5</ele><time>2026-04-20T12:23:28.915Z</time></trkpt><trkpt lat="32.902545" lon="10.0421167"><ele>394.0</ele><time>2026-04-20T12:23:29.915Z</time></trkpt><trkpt lat="32.9025517" lon="10.0418233"><ele>395.0</ele><time>2026-04-20T12:23:30.915Z</time></trkpt><trkpt lat="32.9025583" lon="10.04153"><ele>396.0</ele><time>2026-04-20T12:23:31.915Z</time></trkpt><trkpt lat="32.902575" lon="10.0412367"><ele>396.0</ele><time>2026-04-20T12:23:32.915Z</time></trkpt><trkpt lat="32.9025783" lon="10.04095"><ele>396.0</ele><time>2026-04-20T12:23:33.915Z</time></trkpt><trkpt lat="32.9025817" lon="10.04067"><ele>396.5</ele><time>2026-04-20T12:23:34.915Z</time></trkpt><trkpt lat="32.9025933" lon="10.0403933"><ele>397.0</ele><time>2026-04-20T12:23:35.915Z</time></trkpt><trkpt lat="32.902605" lon="10.0401183"><ele>397.5</ele><time>2026-04-20T12:23:36.915Z</time></trkpt><trkpt lat="32.9026083" lon="10.03985"><ele>398.0</ele><time>2026-04-20T12:23:37.915Z</time></trkpt><trkpt lat="32.9026167" lon="10.03958"><ele>398.0</ele><time>2026-04-20T12:23:38.915Z</time></trkpt><trkpt lat="32.9026267" lon="10.03931"><ele>398.0</ele><time>2026-04-20T12:23:39.915Z</time></trkpt><trkpt lat="32.9026367" lon="10.0390333"><ele>398.0</ele><time>2026-04-20T12:23:40.915Z</time></trkpt><trkpt lat="32.9026383" lon="10.03876"><ele>398.0</ele><time>2026-04-20T12:23:41.915Z</time></trkpt><trkpt lat="32.90263" lon="10.038485"><ele>398.0</ele><time>2026-04-20T12:23:42.914Z</time></trkpt><trkpt lat="32.9026133" lon="10.0382133"><ele>398.0</ele><time>2026-04-20T12:23:43.914Z</time></trkpt><trkpt lat="32.902585" lon="10.0379417"><ele>398.0</ele><time>2026-04-20T12:23:44.914Z</time></trkpt><trkpt lat="32.90256" lon="10.03767"><ele>398.0</ele><time>2026-04-20T12:23:45.914Z</time></trkpt><trkpt lat="32.9025267" lon="10.0373967"><ele>395.5</ele><time>2026-04-20T12:23:46.914Z</time></trkpt><trkpt lat="32.9025" lon="10.0371217"><ele>393.0</ele><time>2026-04-20T12:23:47.914Z</time></trkpt><trkpt lat="32.9024667" lon="10.0368433"><ele>393.0</ele><time>2026-04-20T12:23:48.914Z</time></trkpt><trkpt lat="32.902425" lon="10.036565"><ele>393.0</ele><time>2026-04-20T12:23:49.914Z</time></trkpt><trkpt lat="32.90239" lon="10.03628"><ele>393.0</ele><time>2026-04-20T12:23:50.914Z</time></trkpt><trkpt lat="32.9023683" lon="10.0359967"><ele>393.0</ele><time>2026-04-20T12:23:51.914Z</time></trkpt><trkpt lat="32.9023367" lon="10.0357117"><ele>392.5</ele><time>2026-04-20T12:23:52.914Z</time></trkpt><trkpt lat="32.9023033" lon="10.035425"><ele>392.0</ele><time>2026-04-20T12:23:53.914Z</time></trkpt><trkpt lat="32.90227" lon="10.0351367"><ele>393.0</ele><time>2026-04-20T12:23:54.914Z</time></trkpt><trkpt lat="32.9022333" lon="10.0348433"><ele>394.0</ele><time>2026-04-20T12:23:55.914Z</time></trkpt><trkpt lat="32.9021883" lon="10.0345533"><ele>394.0</ele><time>2026-04-20T12:23:56.914Z</time></trkpt><trkpt lat="32.9021533" lon="10.0342567"><ele>394.0</ele><time>2026-04-20T12:23:57.914Z</time></trkpt><trkpt lat="32.9021183" lon="10.033965"><ele>393.0</ele><time>2026-04-20T12:23:58.914Z</time></trkpt><trkpt lat="32.9020783" lon="10.03367"><ele>392.0</ele><time>2026-04-20T12:23:59.914Z</time></trkpt><trkpt lat="32.90204" lon="10.0333733"><ele>390.5</ele><time>2026-04-20T12:24:00.914Z</time></trkpt><trkpt lat="32.9020083" lon="10.0330817"><ele>389.0</ele><time>2026-04-20T12:24:01.914Z</time></trkpt><trkpt lat="32.9019683" lon="10.0327867"><ele>389.0</ele><time>2026-04-20T12:24:02.914Z</time></trkpt><trkpt lat="32.9019333" lon="10.0324933"><ele>389.0</ele><time>2026-04-20T12:24:03.914Z</time></trkpt><trkpt lat="32.9019033" lon="10.0322017"><ele>386.5</ele><time>2026-04-20T12:24:04.914Z</time></trkpt><trkpt lat="32.9018667" lon="10.031905"><ele>384.0</ele><time>2026-04-20T12:24:05.914Z</time></trkpt><trkpt lat="32.901825" lon="10.031605"><ele>383.5</ele><time>2026-04-20T12:24:06.914Z</time></trkpt><trkpt lat="32.9017833" lon="10.031305"><ele>383.0</ele><time>2026-04-20T12:24:07.914Z</time></trkpt><trkpt lat="32.901745" lon="10.03101"><ele>382.5</ele><time>2026-04-20T12:24:08.914Z</time></trkpt><trkpt lat="32.9016983" lon="10.03071"><ele>382.0</ele><time>2026-04-20T12:24:09.914Z</time></trkpt><trkpt lat="32.9016633" lon="10.0304083"><ele>382.0</ele><time>2026-04-20T12:24:10.914Z</time></trkpt><trkpt lat="32.9016317" lon="10.0301133"><ele>382.0</ele><time>2026-04-20T12:24:11.914Z</time></trkpt><trkpt lat="32.901595" lon="10.0298217"><ele>382.5</ele><time>2026-04-20T12:24:12.914Z</time></trkpt><trkpt lat="32.9015617" lon="10.0295317"><ele>383.0</ele><time>2026-04-20T12:24:13.914Z</time></trkpt><trkpt lat="32.90153" lon="10.0292367"><ele>384.0</ele><time>2026-04-20T12:24:14.914Z</time></trkpt><trkpt lat="32.9015" lon="10.028945"><ele>385.0</ele><time>2026-04-20T12:24:15.914Z</time></trkpt><trkpt lat="32.90147" lon="10.0286533"><ele>385.0</ele><time>2026-04-20T12:24:16.914Z</time></trkpt><trkpt lat="32.9014383" lon="10.0283667"><ele>385.0</ele><time>2026-04-20T12:24:17.914Z</time></trkpt><trkpt lat="32.9014167" lon="10.028085"><ele>383.5</ele><time>2026-04-20T12:24:18.914Z</time></trkpt><trkpt lat="32.9013933" lon="10.0278"><ele>382.0</ele><time>2026-04-20T12:24:19.914Z</time></trkpt><trkpt lat="32.9013833" lon="10.0275117"><ele>382.0</ele><time>2026-04-20T12:24:20.914Z</time></trkpt><trkpt lat="32.9013767" lon="10.0272267"><ele>382.0</ele><time>2026-04-20T12:24:21.914Z</time></trkpt><trkpt lat="32.9013767" lon="10.0269433"><ele>382.0</ele><time>2026-04-20T12:24:22.914Z</time></trkpt><trkpt lat="32.901375" lon="10.026655"><ele>382.0</ele><time>2026-04-20T12:24:23.914Z</time></trkpt><trkpt lat="32.9013767" lon="10.0263667"><ele>381.0</ele><time>2026-04-20T12:24:24.914Z</time></trkpt><trkpt lat="32.9013767" lon="10.0260767"><ele>380.0</ele><time>2026-04-20T12:24:25.914Z</time></trkpt><trkpt lat="32.901375" lon="10.025785"><ele>379.0</ele><time>2026-04-20T12:24:26.914Z</time></trkpt><trkpt lat="32.9013767" lon="10.025495"><ele>378.0</ele><time>2026-04-20T12:24:27.914Z</time></trkpt><trkpt lat="32.901375" lon="10.025205"><ele>376.5</ele><time>2026-04-20T12:24:28.914Z</time></trkpt><trkpt lat="32.9013717" lon="10.0249117"><ele>375.0</ele><time>2026-04-20T12:24:29.914Z</time></trkpt><trkpt lat="32.9013683" lon="10.024615"><ele>375.0</ele><time>2026-04-20T12:24:30.914Z</time></trkpt><trkpt lat="32.9013667" lon="10.0243183"><ele>375.0</ele><time>2026-04-20T12:24:31.914Z</time></trkpt><trkpt lat="32.9013683" lon="10.02402"><ele>374.5</ele><time>2026-04-20T12:24:32.914Z</time></trkpt><trkpt lat="32.901365" lon="10.0237233"><ele>374.0</ele><time>2026-04-20T12:24:33.914Z</time></trkpt><trkpt lat="32.901365" lon="10.023425"><ele>374.5</ele><time>2026-04-20T12:24:34.914Z</time></trkpt><trkpt lat="32.9013667" lon="10.0231317"><ele>375.0</ele><time>2026-04-20T12:24:35.914Z</time></trkpt><trkpt lat="32.9013633" lon="10.0228417"><ele>375.0</ele><time>2026-04-20T12:24:36.914Z</time></trkpt><trkpt lat="32.9013583" lon="10.02255"><ele>375.0</ele><time>2026-04-20T12:24:37.914Z</time></trkpt><trkpt lat="32.901365" lon="10.0222567"><ele>374.5</ele><time>2026-04-20T12:24:38.914Z</time></trkpt><trkpt lat="32.9013717" lon="10.0219617"><ele>374.0</ele><time>2026-04-20T12:24:39.914Z</time></trkpt><trkpt lat="32.9013733" lon="10.02167"><ele>373.0</ele><time>2026-04-20T12:24:40.914Z</time></trkpt><trkpt lat="32.9013717" lon="10.021375"><ele>372.0</ele><time>2026-04-20T12:24:41.914Z</time></trkpt><trkpt lat="32.9013717" lon="10.0210817"><ele>371.5</ele><time>2026-04-20T12:24:42.914Z</time></trkpt><trkpt lat="32.9013667" lon="10.0207833"><ele>371.0</ele><time>2026-04-20T12:24:43.914Z</time></trkpt><trkpt lat="32.901365" lon="10.020485"><ele>371.0</ele><time>2026-04-20T12:24:44.914Z</time></trkpt><trkpt lat="32.9013683" lon="10.02019"><ele>371.0</ele><time>2026-04-20T12:24:45.914Z</time></trkpt><trkpt lat="32.9013667" lon="10.0198967"><ele>372.0</ele><time>2026-04-20T12:24:46.914Z</time></trkpt><trkpt lat="32.9013733" lon="10.0195933"><ele>373.0</ele><time>2026-04-20T12:24:47.914Z</time></trkpt><trkpt lat="32.9013717" lon="10.0192933"><ele>372.5</ele><time>2026-04-20T12:24:48.914Z</time></trkpt><trkpt lat="32.9013683" lon="10.0189983"><ele>372.0</ele><time>2026-04-20T12:24:49.914Z</time></trkpt><trkpt lat="32.901365" lon="10.0187"><ele>372.0</ele><time>2026-04-20T12:24:50.914Z</time></trkpt><trkpt lat="32.9013683" lon="10.0184067"><ele>372.0</ele><time>2026-04-20T12:24:51.914Z</time></trkpt><trkpt lat="32.9013683" lon="10.01811"><ele>371.5</ele><time>2026-04-20T12:24:52.914Z</time></trkpt><trkpt lat="32.9013667" lon="10.017815"><ele>371.0</ele><time>2026-04-20T12:24:53.914Z</time></trkpt><trkpt lat="32.9013583" lon="10.01752"><ele>369.5</ele><time>2026-04-20T12:24:54.914Z</time></trkpt><trkpt lat="32.90135" lon="10.0172267"><ele>368.0</ele><time>2026-04-20T12:24:55.914Z</time></trkpt><trkpt lat="32.9013467" lon="10.0169367"><ele>369.0</ele><time>2026-04-20T12:24:56.914Z</time></trkpt><trkpt lat="32.9013433" lon="10.016645"><ele>370.0</ele><time>2026-04-20T12:24:57.914Z</time></trkpt><trkpt lat="32.9013433" lon="10.01635"><ele>370.0</ele><time>2026-04-20T12:24:58.914Z</time></trkpt><trkpt lat="32.9013483" lon="10.0160533"><ele>370.0</ele><time>2026-04-20T12:24:59.914Z</time></trkpt><trkpt lat="32.90135" lon="10.015755"><ele>369.0</ele><time>2026-04-20T12:25:00.914Z</time></trkpt><trkpt lat="32.90135" lon="10.01546"><ele>368.0</ele><time>2026-04-20T12:25:01.914Z</time></trkpt><trkpt lat="32.90135" lon="10.0151683"><ele>368.0</ele><time>2026-04-20T12:25:02.914Z</time></trkpt><trkpt lat="32.9013467" lon="10.01488"><ele>368.0</ele><time>2026-04-20T12:25:03.914Z</time></trkpt><trkpt lat="32.9013467" lon="10.0145867"><ele>368.0</ele><time>2026-04-20T12:25:04.914Z</time></trkpt><trkpt lat="32.9013467" lon="10.0142933"><ele>368.0</ele><time>2026-04-20T12:25:05.915Z</time></trkpt><trkpt lat="32.9013483" lon="10.0140017"><ele>368.0</ele><time>2026-04-20T12:25:06.914Z</time></trkpt><trkpt lat="32.90135" lon="10.0137067"><ele>368.0</ele><time>2026-04-20T12:25:07.914Z</time></trkpt><trkpt lat="32.9013517" lon="10.01341"><ele>367.0</ele><time>2026-04-20T12:25:08.914Z</time></trkpt><trkpt lat="32.90135" lon="10.013115"><ele>366.0</ele><time>2026-04-20T12:25:09.914Z</time></trkpt><trkpt lat="32.9013467" lon="10.012815"><ele>366.0</ele><time>2026-04-20T12:25:10.914Z</time></trkpt><trkpt lat="32.9013467" lon="10.0125167"><ele>366.0</ele><time>2026-04-20T12:25:11.914Z</time></trkpt><trkpt lat="32.9013467" lon="10.012215"><ele>365.5</ele><time>2026-04-20T12:25:12.914Z</time></trkpt><trkpt lat="32.9013483" lon="10.01192"><ele>365.0</ele><time>2026-04-20T12:25:13.914Z</time></trkpt><trkpt lat="32.9013467" lon="10.0116183"><ele>365.0</ele><time>2026-04-20T12:25:14.914Z</time></trkpt><trkpt lat="32.90135" lon="10.0113133"><ele>365.0</ele><time>2026-04-20T12:25:15.914Z</time></trkpt><trkpt lat="32.9013517" lon="10.0110067"><ele>365.0</ele><time>2026-04-20T12:25:16.914Z</time></trkpt><trkpt lat="32.90135" lon="10.0107067"><ele>365.0</ele><time>2026-04-20T12:25:17.914Z</time></trkpt><trkpt lat="32.901345" lon="10.0103983"><ele>365.0</ele><time>2026-04-20T12:25:18.914Z</time></trkpt><trkpt lat="32.901345" lon="10.0100917"><ele>365.0</ele><time>2026-04-20T12:25:19.914Z</time></trkpt><trkpt lat="32.9013367" lon="10.0097883"><ele>363.5</ele><time>2026-04-20T12:25:20.914Z</time></trkpt><trkpt lat="32.9013383" lon="10.0094817"><ele>362.0</ele><time>2026-04-20T12:25:21.914Z</time></trkpt><trkpt lat="32.90134" lon="10.0091783"><ele>361.0</ele><time>2026-04-20T12:25:22.914Z</time></trkpt><trkpt lat="32.90134" lon="10.00887"><ele>360.0</ele><time>2026-04-20T12:25:23.914Z</time></trkpt><trkpt lat="32.9013367" lon="10.008565"><ele>360.0</ele><time>2026-04-20T12:25:24.914Z</time></trkpt><trkpt lat="32.901335" lon="10.008265"><ele>360.0</ele><time>2026-04-20T12:25:25.914Z</time></trkpt><trkpt lat="32.9013317" lon="10.0079633"><ele>360.0</ele><time>2026-04-20T12:25:26.914Z</time></trkpt><trkpt lat="32.90133" lon="10.00766"><ele>360.0</ele><time>2026-04-20T12:25:27.914Z</time></trkpt><trkpt lat="32.901335" lon="10.007355"><ele>360.5</ele><time>2026-04-20T12:25:28.914Z</time></trkpt><trkpt lat="32.9013367" lon="10.007055"><ele>361.0</ele><time>2026-04-20T12:25:29.914Z</time></trkpt><trkpt lat="32.9013383" lon="10.00675"><ele>359.5</ele><time>2026-04-20T12:25:30.914Z</time></trkpt><trkpt lat="32.9013383" lon="10.0064467"><ele>358.0</ele><time>2026-04-20T12:25:31.914Z</time></trkpt><trkpt lat="32.9013367" lon="10.0061433"><ele>358.0</ele><time>2026-04-20T12:25:32.914Z</time></trkpt><trkpt lat="32.9013333" lon="10.005845"><ele>358.0</ele><time>2026-04-20T12:25:33.914Z</time></trkpt><trkpt lat="32.9013283" lon="10.0055433"><ele>358.0</ele><time>2026-04-20T12:25:34.914Z</time></trkpt><trkpt lat="32.9013233" lon="10.0052417"><ele>358.0</ele><time>2026-04-20T12:25:35.914Z</time></trkpt><trkpt lat="32.9013167" lon="10.0049383"><ele>357.5</ele><time>2026-04-20T12:25:36.914Z</time></trkpt><trkpt lat="32.90131" lon="10.004635"><ele>357.0</ele><time>2026-04-20T12:25:37.914Z</time></trkpt><trkpt lat="32.9013067" lon="10.0043317"><ele>357.0</ele><time>2026-04-20T12:25:38.914Z</time></trkpt><trkpt lat="32.9013083" lon="10.0040317"><ele>357.0</ele><time>2026-04-20T12:25:39.914Z</time></trkpt><trkpt lat="32.9013083" lon="10.0037283"><ele>357.0</ele><time>2026-04-20T12:25:40.914Z</time></trkpt><trkpt lat="32.901315" lon="10.003425"><ele>357.0</ele><time>2026-04-20T12:25:41.914Z</time></trkpt><trkpt lat="32.90131" lon="10.003125"><ele>357.0</ele><time>2026-04-20T12:25:42.914Z</time></trkpt><trkpt lat="32.9013083" lon="10.0028167"><ele>357.0</ele><time>2026-04-20T12:25:43.914Z</time></trkpt><trkpt lat="32.9013083" lon="10.00251"><ele>356.5</ele><time>2026-04-20T12:25:44.914Z</time></trkpt><trkpt lat="32.901305" lon="10.002205"><ele>356.0</ele><time>2026-04-20T12:25:45.914Z</time></trkpt><trkpt lat="32.9013083" lon="10.0018983"><ele>355.0</ele><time>2026-04-20T12:25:46.914Z</time></trkpt><trkpt lat="32.9013033" lon="10.00159"><ele>354.0</ele><time>2026-04-20T12:25:47.914Z</time></trkpt><trkpt lat="32.9012983" lon="10.001285"><ele>354.0</ele><time>2026-04-20T12:25:48.914Z</time></trkpt><trkpt lat="32.901295" lon="10.0009783"><ele>354.0</ele><time>2026-04-20T12:25:49.914Z</time></trkpt><trkpt lat="32.901295" lon="10.0006717"><ele>354.5</ele><time>2026-04-20T12:25:50.914Z</time></trkpt><trkpt lat="32.9012983" lon="10.0003633"><ele>355.0</ele><time>2026-04-20T12:25:51.914Z</time></trkpt><trkpt lat="32.9013" lon="10.0000633"><ele>355.0</ele><time>2026-04-20T12:25:52.914Z</time></trkpt><trkpt lat="32.9012967" lon="9.9997617"><ele>355.0</ele><time>2026-04-20T12:25:53.914Z</time></trkpt><trkpt lat="32.9012983" lon="9.99946"><ele>354.0</ele><time>2026-04-20T12:25:54.914Z</time></trkpt><trkpt lat="32.901295" lon="9.9991567"><ele>353.0</ele><time>2026-04-20T12:25:55.914Z</time></trkpt><trkpt lat="32.90129" lon="9.998855"><ele>353.0</ele><time>2026-04-20T12:25:56.914Z</time></trkpt><trkpt lat="32.9012817" lon="9.9985617"><ele>353.0</ele><time>2026-04-20T12:25:57.914Z</time></trkpt><trkpt lat="32.901275" lon="9.9982833"><ele>353.0</ele><time>2026-04-20T12:25:58.914Z</time></trkpt><trkpt lat="32.9012667" lon="9.9980017"><ele>353.0</ele><time>2026-04-20T12:25:59.914Z</time></trkpt><trkpt lat="32.9012633" lon="9.9977233"><ele>354.0</ele><time>2026-04-20T12:26:00.914Z</time></trkpt><trkpt lat="32.9012717" lon="9.9974483"><ele>355.0</ele><time>2026-04-20T12:26:01.914Z</time></trkpt><trkpt lat="32.9012783" lon="9.9971717"><ele>355.0</ele><time>2026-04-20T12:26:02.914Z</time></trkpt><trkpt lat="32.9012767" lon="9.9968933"><ele>355.0</ele><time>2026-04-20T12:26:03.914Z</time></trkpt><trkpt lat="32.9012767" lon="9.996615"><ele>356.0</ele><time>2026-04-20T12:26:04.914Z</time></trkpt><trkpt lat="32.901275" lon="9.9963317"><ele>357.0</ele><time>2026-04-20T12:26:05.914Z</time></trkpt><trkpt lat="32.9012767" lon="9.996045"><ele>357.0</ele><time>2026-04-20T12:26:06.914Z</time></trkpt><trkpt lat="32.901275" lon="9.99576"><ele>357.0</ele><time>2026-04-20T12:26:07.914Z</time></trkpt><trkpt lat="32.9012667" lon="9.995475"><ele>357.0</ele><time>2026-04-20T12:26:08.914Z</time></trkpt><trkpt lat="32.9012617" lon="9.9951833"><ele>357.0</ele><time>2026-04-20T12:26:09.914Z</time></trkpt><trkpt lat="32.9012583" lon="9.9948917"><ele>354.5</ele><time>2026-04-20T12:26:10.914Z</time></trkpt><trkpt lat="32.9012617" lon="9.9946017"><ele>352.0</ele><time>2026-04-20T12:26:11.914Z</time></trkpt><trkpt lat="32.9012633" lon="9.99431"><ele>351.0</ele><time>2026-04-20T12:26:12.914Z</time></trkpt><trkpt lat="32.9012683" lon="9.9940217"><ele>350.0</ele><time>2026-04-20T12:26:13.914Z</time></trkpt><trkpt lat="32.9012717" lon="9.9937367"><ele>350.0</ele><time>2026-04-20T12:26:14.914Z</time></trkpt><trkpt lat="32.9012683" lon="9.9934533"><ele>350.0</ele><time>2026-04-20T12:26:15.914Z</time></trkpt><trkpt lat="32.9012633" lon="9.9931783"><ele>351.33333333333337</ele><time>2026-04-20T12:26:16.914Z</time></trkpt><trkpt lat="32.9012517" lon="9.992915"><ele>352.6666666666667</ele><time>2026-04-20T12:26:17.914Z</time></trkpt><trkpt lat="32.90125" lon="9.9926617"><ele>354.0</ele><time>2026-04-20T12:26:18.914Z</time></trkpt><trkpt lat="32.9012433" lon="9.992415"><ele>356.3333333333333</ele><time>2026-04-20T12:26:19.914Z</time></trkpt><trkpt lat="32.901245" lon="9.992175"><ele>358.66666666666663</ele><time>2026-04-20T12:26:20.914Z</time></trkpt><trkpt lat="32.9012467" lon="9.9919433"><ele>361.0</ele><time>2026-04-20T12:26:21.914Z</time></trkpt><trkpt lat="32.90124" lon="9.991715"><ele>360.66666666666663</ele><time>2026-04-20T12:26:22.914Z</time></trkpt><trkpt lat="32.9012367" lon="9.9914933"><ele>360.3333333333333</ele><time>2026-04-20T12:26:23.914Z</time></trkpt><trkpt lat="32.90124" lon="9.9912767"><ele>360.0</ele><time>2026-04-20T12:26:24.914Z</time></trkpt><trkpt lat="32.9012417" lon="9.9910583"><ele>360.0</ele><time>2026-04-20T12:26:25.914Z</time></trkpt><trkpt lat="32.90124" lon="9.990845"><ele>360.0</ele><time>2026-04-20T12:26:26.914Z</time></trkpt><trkpt lat="32.9012433" lon="9.9906233"><ele>360.0</ele><time>2026-04-20T12:26:27.914Z</time></trkpt><trkpt lat="32.9012483" lon="9.9904017"><ele>359.3333333333333</ele><time>2026-04-20T12:26:28.914Z</time></trkpt><trkpt lat="32.9012733" lon="9.9901817"><ele>358.66666666666663</ele><time>2026-04-20T12:26:29.914Z</time></trkpt><trkpt lat="32.9013067" lon="9.98996"><ele>358.0</ele><time>2026-04-20T12:26:30.914Z</time></trkpt><trkpt lat="32.901355" lon="9.9897383"><ele>356.66666666666663</ele><time>2026-04-20T12:26:31.914Z</time></trkpt><trkpt lat="32.9014133" lon="9.9895233"><ele>355.3333333333333</ele><time>2026-04-20T12:26:32.914Z</time></trkpt><trkpt lat="32.9014867" lon="9.98932"><ele>354.0</ele><time>2026-04-20T12:26:33.914Z</time></trkpt><trkpt lat="32.9015733" lon="9.9891183"><ele>352.3333333333333</ele><time>2026-04-20T12:26:34.914Z</time></trkpt><trkpt lat="32.9016617" lon="9.9889233"><ele>350.66666666666663</ele><time>2026-04-20T12:26:35.914Z</time></trkpt><trkpt lat="32.90176" lon="9.9887283"><ele>349.0</ele><time>2026-04-20T12:26:36.914Z</time></trkpt><trkpt lat="32.901865" lon="9.98853"><ele>347.0</ele><time>2026-04-20T12:26:37.914Z</time></trkpt><trkpt lat="32.9019767" lon="9.9883333"><ele>345.0</ele><time>2026-04-20T12:26:38.914Z</time></trkpt><trkpt lat="32.9020933" lon="9.9881317"><ele>343.0</ele><time>2026-04-20T12:26:39.914Z</time></trkpt><trkpt lat="32.9022083" lon="9.987925"><ele>343.0</ele><time>2026-04-20T12:26:40.914Z</time></trkpt><trkpt lat="32.9023233" lon="9.987715"><ele>343.0</ele><time>2026-04-20T12:26:41.914Z</time></trkpt><trkpt lat="32.9024417" lon="9.9875017"><ele>343.0</ele><time>2026-04-20T12:26:42.914Z</time></trkpt><trkpt lat="32.9025583" lon="9.9872883"><ele>343.66666666666663</ele><time>2026-04-20T12:26:43.914Z</time></trkpt><trkpt lat="32.902675" lon="9.9870717"><ele>344.3333333333333</ele><time>2026-04-20T12:26:44.914Z</time></trkpt><trkpt lat="32.90279" lon="9.986855"><ele>345.0</ele><time>2026-04-20T12:26:45.914Z</time></trkpt><trkpt lat="32.902915" lon="9.9866367"><ele>345.0</ele><time>2026-04-20T12:26:46.914Z</time></trkpt><trkpt lat="32.9030317" lon="9.9864117"><ele>345.0</ele><time>2026-04-20T12:26:47.914Z</time></trkpt><trkpt lat="32.9031467" lon="9.986195"><ele>345.0</ele><time>2026-04-20T12:26:48.914Z</time></trkpt><trkpt lat="32.9032633" lon="9.9859733"><ele>345.0</ele><time>2026-04-20T12:26:49.914Z</time></trkpt><trkpt lat="32.9033767" lon="9.9857517"><ele>345.0</ele><time>2026-04-20T12:26:50.914Z</time></trkpt><trkpt lat="32.9034717" lon="9.9855167"><ele>345.0</ele><time>2026-04-20T12:26:51.914Z</time></trkpt><trkpt lat="32.9035467" lon="9.9852767"><ele>345.0</ele><time>2026-04-20T12:26:52.914Z</time></trkpt><trkpt lat="32.9036133" lon="9.9850267"><ele>345.0</ele><time>2026-04-20T12:26:53.914Z</time></trkpt><trkpt lat="32.9036783" lon="9.9847733"><ele>345.0</ele><time>2026-04-20T12:26:54.914Z</time></trkpt><trkpt lat="32.9037317" lon="9.9845267"><ele>346.0</ele><time>2026-04-20T12:26:55.914Z</time></trkpt><trkpt lat="32.9037783" lon="9.98427"><ele>347.0</ele><time>2026-04-20T12:26:56.914Z</time></trkpt><trkpt lat="32.903815" lon="9.984015"><ele>348.0</ele><time>2026-04-20T12:26:57.914Z</time></trkpt><trkpt lat="32.9038417" lon="9.983755"><ele>348.6666666666667</ele><time>2026-04-20T12:26:58.914Z</time></trkpt><trkpt lat="32.9038717" lon="9.9834983"><ele>349.33333333333337</ele><time>2026-04-20T12:26:59.914Z</time></trkpt><trkpt lat="32.9039117" lon="9.9832467"><ele>350.0</ele><time>2026-04-20T12:27:00.914Z</time></trkpt><trkpt lat="32.9039517" lon="9.98299"><ele>350.6666666666667</ele><time>2026-04-20T12:27:01.914Z</time></trkpt><trkpt lat="32.9039867" lon="9.9827317"><ele>351.3333333333333</ele><time>2026-04-20T12:27:02.914Z</time></trkpt><trkpt lat="32.9040217" lon="9.9824667"><ele>352.0</ele><time>2026-04-20T12:27:03.914Z</time></trkpt><trkpt lat="32.9040533" lon="9.9822117"><ele>352.66666666666663</ele><time>2026-04-20T12:27:04.914Z</time></trkpt><trkpt lat="32.904075" lon="9.981955"><ele>353.3333333333333</ele><time>2026-04-20T12:27:05.914Z</time></trkpt><trkpt lat="32.9041067" lon="9.9817017"><ele>354.0</ele><time>2026-04-20T12:27:06.914Z</time></trkpt><trkpt lat="32.904135" lon="9.9814467"><ele>354.3333333333333</ele><time>2026-04-20T12:27:07.914Z</time></trkpt><trkpt lat="32.9041633" lon="9.9811917"><ele>354.66666666666663</ele><time>2026-04-20T12:27:08.914Z</time></trkpt><trkpt lat="32.904185" lon="9.9809283"><ele>355.0</ele><time>2026-04-20T12:27:09.914Z</time></trkpt><trkpt lat="32.904205" lon="9.9806617"><ele>355.0</ele><time>2026-04-20T12:27:10.914Z</time></trkpt><trkpt lat="32.9042233" lon="9.9803933"><ele>355.0</ele><time>2026-04-20T12:27:11.914Z</time></trkpt><trkpt lat="32.9042367" lon="9.980125"><ele>355.5</ele><time>2026-04-20T12:27:12.914Z</time></trkpt><trkpt lat="32.9042533" lon="9.9798567"><ele>356.0</ele><time>2026-04-20T12:27:13.914Z</time></trkpt><trkpt lat="32.9042667" lon="9.9795833"><ele>356.0</ele><time>2026-04-20T12:27:14.914Z</time></trkpt><trkpt lat="32.90428" lon="9.9793033"><ele>356.0</ele><time>2026-04-20T12:27:15.914Z</time></trkpt><trkpt lat="32.9043" lon="9.9790267"><ele>353.0</ele><time>2026-04-20T12:27:16.914Z</time></trkpt><trkpt lat="32.904315" lon="9.97875"><ele>350.0</ele><time>2026-04-20T12:27:17.914Z</time></trkpt><trkpt lat="32.9043333" lon="9.9784667"><ele>348.5</ele><time>2026-04-20T12:27:18.913Z</time></trkpt><trkpt lat="32.90435" lon="9.9781833"><ele>347.0</ele><time>2026-04-20T12:27:19.913Z</time></trkpt><trkpt lat="32.9043683" lon="9.9779017"><ele>347.0</ele><time>2026-04-20T12:27:20.913Z</time></trkpt><trkpt lat="32.9043817" lon="9.9776217"><ele>347.0</ele><time>2026-04-20T12:27:21.913Z</time></trkpt><trkpt lat="32.9043883" lon="9.9773467"><ele>348.0</ele><time>2026-04-20T12:27:22.913Z</time></trkpt><trkpt lat="32.9044083" lon="9.9770667"><ele>349.0</ele><time>2026-04-20T12:27:23.913Z</time></trkpt><trkpt lat="32.9044267" lon="9.9767917"><ele>349.0</ele><time>2026-04-20T12:27:24.913Z</time></trkpt><trkpt lat="32.9044417" lon="9.9765133"><ele>349.0</ele><time>2026-04-20T12:27:25.913Z</time></trkpt><trkpt lat="32.90446" lon="9.9762383"><ele>349.0</ele><time>2026-04-20T12:27:26.913Z</time></trkpt><trkpt lat="32.9044817" lon="9.97596"><ele>349.0</ele><time>2026-04-20T12:27:27.913Z</time></trkpt><trkpt lat="32.9045033" lon="9.975685"><ele>348.5</ele><time>2026-04-20T12:27:28.913Z</time></trkpt><trkpt lat="32.9045317" lon="9.9754067"><ele>348.0</ele><time>2026-04-20T12:27:29.913Z</time></trkpt><trkpt lat="32.9045617" lon="9.9751333"><ele>348.5</ele><time>2026-04-20T12:27:30.913Z</time></trkpt><trkpt lat="32.9046017" lon="9.97486"><ele>349.0</ele><time>2026-04-20T12:27:31.913Z</time></trkpt><trkpt lat="32.9046533" lon="9.9745867"><ele>349.0</ele><time>2026-04-20T12:27:32.913Z</time></trkpt><trkpt lat="32.9047083" lon="9.9743133"><ele>349.0</ele><time>2026-04-20T12:27:33.913Z</time></trkpt><trkpt lat="32.90476" lon="9.9740417"><ele>346.5</ele><time>2026-04-20T12:27:34.913Z</time></trkpt><trkpt lat="32.9048117" lon="9.973765"><ele>344.0</ele><time>2026-04-20T12:27:35.913Z</time></trkpt><trkpt lat="32.904865" lon="9.9734867"><ele>342.0</ele><time>2026-04-20T12:27:36.913Z</time></trkpt><trkpt lat="32.904915" lon="9.97321"><ele>340.0</ele><time>2026-04-20T12:27:37.913Z</time></trkpt><trkpt lat="32.9049667" lon="9.97294"><ele>340.0</ele><time>2026-04-20T12:27:38.913Z</time></trkpt><trkpt lat="32.90502" lon="9.9726567"><ele>340.0</ele><time>2026-04-20T12:27:39.913Z</time></trkpt><trkpt lat="32.90507" lon="9.9723733"><ele>340.5</ele><time>2026-04-20T12:27:40.913Z</time></trkpt><trkpt lat="32.90512" lon="9.9720933"><ele>341.0</ele><time>2026-04-20T12:27:41.913Z</time></trkpt><trkpt lat="32.9051667" lon="9.9718133"><ele>341.0</ele><time>2026-04-20T12:27:42.913Z</time></trkpt><trkpt lat="32.9052267" lon="9.9715383"><ele>341.0</ele><time>2026-04-20T12:27:43.913Z</time></trkpt><trkpt lat="32.9052783" lon="9.9712567"><ele>341.0</ele><time>2026-04-20T12:27:44.913Z</time></trkpt><trkpt lat="32.9053283" lon="9.97098"><ele>341.0</ele><time>2026-04-20T12:27:45.913Z</time></trkpt><trkpt lat="32.9053733" lon="9.9707017"><ele>340.5</ele><time>2026-04-20T12:27:46.913Z</time></trkpt><trkpt lat="32.9054233" lon="9.9704183"><ele>340.0</ele><time>2026-04-20T12:27:47.913Z</time></trkpt><trkpt lat="32.9054683" lon="9.9701333"><ele>339.5</ele><time>2026-04-20T12:27:48.913Z</time></trkpt><trkpt lat="32.9055067" lon="9.9698433"><ele>339.0</ele><time>2026-04-20T12:27:49.913Z</time></trkpt><trkpt lat="32.905535" lon="9.969555"><ele>339.0</ele><time>2026-04-20T12:27:50.913Z</time></trkpt><trkpt lat="32.90555" lon="9.969265"><ele>339.0</ele><time>2026-04-20T12:27:51.913Z</time></trkpt><trkpt lat="32.9055617" lon="9.9689783"><ele>339.0</ele><time>2026-04-20T12:27:52.913Z</time></trkpt><trkpt lat="32.905565" lon="9.9686933"><ele>339.0</ele><time>2026-04-20T12:27:53.913Z</time></trkpt><trkpt lat="32.9055667" lon="9.9684083"><ele>339.0</ele><time>2026-04-20T12:27:54.913Z</time></trkpt><trkpt lat="32.90557" lon="9.9681217"><ele>339.0</ele><time>2026-04-20T12:27:55.913Z</time></trkpt><trkpt lat="32.9055683" lon="9.96784"><ele>339.0</ele><time>2026-04-20T12:27:56.913Z</time></trkpt><trkpt lat="32.9055717" lon="9.967555"><ele>339.0</ele><time>2026-04-20T12:27:57.913Z</time></trkpt><trkpt lat="32.9055733" lon="9.96727"><ele>337.5</ele><time>2026-04-20T12:27:58.913Z</time></trkpt><trkpt lat="32.90558" lon="9.9669867"><ele>336.0</ele><time>2026-04-20T12:27:59.913Z</time></trkpt><trkpt lat="32.9055883" lon="9.9667067"><ele>336.0</ele><time>2026-04-20T12:28:00.913Z</time></trkpt><trkpt lat="32.9056033" lon="9.9664283"><ele>336.0</ele><time>2026-04-20T12:28:01.913Z</time></trkpt><trkpt lat="32.9056267" lon="9.9661517"><ele>336.0</ele><time>2026-04-20T12:28:02.913Z</time></trkpt><trkpt lat="32.90566" lon="9.9658783"><ele>336.0</ele><time>2026-04-20T12:28:03.913Z</time></trkpt><trkpt lat="32.9057083" lon="9.9656033"><ele>335.0</ele><time>2026-04-20T12:28:04.913Z</time></trkpt><trkpt lat="32.9057767" lon="9.9653333"><ele>334.0</ele><time>2026-04-20T12:28:05.913Z</time></trkpt><trkpt lat="32.9058567" lon="9.96507"><ele>335.0</ele><time>2026-04-20T12:28:06.913Z</time></trkpt><trkpt lat="32.9059417" lon="9.96481"><ele>336.0</ele><time>2026-04-20T12:28:07.913Z</time></trkpt><trkpt lat="32.90603" lon="9.9645517"><ele>336.0</ele><time>2026-04-20T12:28:08.913Z</time></trkpt><trkpt lat="32.9061117" lon="9.96429"><ele>336.0</ele><time>2026-04-20T12:28:09.913Z</time></trkpt><trkpt lat="32.9061883" lon="9.9640267"><ele>333.5</ele><time>2026-04-20T12:28:10.913Z</time></trkpt><trkpt lat="32.9062767" lon="9.9637667"><ele>331.0</ele><time>2026-04-20T12:28:11.913Z</time></trkpt><trkpt lat="32.9063567" lon="9.9635017"><ele>330.5</ele><time>2026-04-20T12:28:12.913Z</time></trkpt><trkpt lat="32.9064433" lon="9.9632483"><ele>330.0</ele><time>2026-04-20T12:28:13.913Z</time></trkpt><trkpt lat="32.9065233" lon="9.9629867"><ele>330.0</ele><time>2026-04-20T12:28:14.913Z</time></trkpt><trkpt lat="32.9065967" lon="9.9627333"><ele>330.0</ele><time>2026-04-20T12:28:15.913Z</time></trkpt><trkpt lat="32.906675" lon="9.96248"><ele>330.0</ele><time>2026-04-20T12:28:16.913Z</time></trkpt><trkpt lat="32.9067517" lon="9.962225"><ele>330.0</ele><time>2026-04-20T12:28:17.913Z</time></trkpt><trkpt lat="32.90683" lon="9.9619667"><ele>330.0</ele><time>2026-04-20T12:28:18.913Z</time></trkpt><trkpt lat="32.9069" lon="9.9617033"><ele>330.0</ele><time>2026-04-20T12:28:19.913Z</time></trkpt><trkpt lat="32.9069583" lon="9.961435"><ele>330.0</ele><time>2026-04-20T12:28:20.913Z</time></trkpt><trkpt lat="32.9070067" lon="9.961165"><ele>330.0</ele><time>2026-04-20T12:28:21.913Z</time></trkpt><trkpt lat="32.907045" lon="9.9608983"><ele>328.5</ele><time>2026-04-20T12:28:22.913Z</time></trkpt><trkpt lat="32.9070767" lon="9.9606267"><ele>327.0</ele><time>2026-04-20T12:28:23.913Z</time></trkpt><trkpt lat="32.9070933" lon="9.9603533"><ele>327.0</ele><time>2026-04-20T12:28:24.913Z</time></trkpt><trkpt lat="32.9071017" lon="9.9600833"><ele>327.0</ele><time>2026-04-20T12:28:25.913Z</time></trkpt><trkpt lat="32.9070983" lon="9.9598167"><ele>327.3333333333333</ele><time>2026-04-20T12:28:26.913Z</time></trkpt><trkpt lat="32.9070817" lon="9.9595533"><ele>327.66666666666663</ele><time>2026-04-20T12:28:27.913Z</time></trkpt><trkpt lat="32.907065" lon="9.9592867"><ele>328.0</ele><time>2026-04-20T12:28:28.913Z</time></trkpt><trkpt lat="32.90704" lon="9.9590133"><ele>330.0</ele><time>2026-04-20T12:28:29.913Z</time></trkpt><trkpt lat="32.9070117" lon="9.9587467"><ele>332.0</ele><time>2026-04-20T12:28:30.913Z</time></trkpt><trkpt lat="32.9069833" lon="9.9584783"><ele>332.5</ele><time>2026-04-20T12:28:31.913Z</time></trkpt><trkpt lat="32.9069583" lon="9.9582033"><ele>333.0</ele><time>2026-04-20T12:28:32.913Z</time></trkpt><trkpt lat="32.9069383" lon="9.9579333"><ele>333.0</ele><time>2026-04-20T12:28:33.913Z</time></trkpt><trkpt lat="32.9069183" lon="9.9576617"><ele>333.0</ele><time>2026-04-20T12:28:34.913Z</time></trkpt><trkpt lat="32.9068917" lon="9.9573917"><ele>331.5</ele><time>2026-04-20T12:28:35.913Z</time></trkpt><trkpt lat="32.9068733" lon="9.9571233"><ele>330.0</ele><time>2026-04-20T12:28:36.913Z</time></trkpt><trkpt lat="32.9068583" lon="9.956855"><ele>329.0</ele><time>2026-04-20T12:28:37.913Z</time></trkpt><trkpt lat="32.9068333" lon="9.9565867"><ele>328.0</ele><time>2026-04-20T12:28:38.913Z</time></trkpt><trkpt lat="32.9068133" lon="9.956315"><ele>328.0</ele><time>2026-04-20T12:28:39.913Z</time></trkpt><trkpt lat="32.9067833" lon="9.956045"><ele>328.0</ele><time>2026-04-20T12:28:40.913Z</time></trkpt><trkpt lat="32.906765" lon="9.9557733"><ele>326.0</ele><time>2026-04-20T12:28:41.913Z</time></trkpt><trkpt lat="32.9067433" lon="9.9555"><ele>324.0</ele><time>2026-04-20T12:28:42.913Z</time></trkpt><trkpt lat="32.9067233" lon="9.9552283"><ele>324.0</ele><time>2026-04-20T12:28:43.913Z</time></trkpt><trkpt lat="32.90671" lon="9.954955"><ele>324.0</ele><time>2026-04-20T12:28:44.913Z</time></trkpt><trkpt lat="32.906685" lon="9.95468"><ele>324.0</ele><time>2026-04-20T12:28:45.913Z</time></trkpt><trkpt lat="32.90666" lon="9.9544067"><ele>324.0</ele><time>2026-04-20T12:28:46.913Z</time></trkpt><trkpt lat="32.906635" lon="9.9541333"><ele>323.5</ele><time>2026-04-20T12:28:47.913Z</time></trkpt><trkpt lat="32.9066117" lon="9.9538617"><ele>323.0</ele><time>2026-04-20T12:28:48.913Z</time></trkpt><trkpt lat="32.9065917" lon="9.9535917"><ele>324.0</ele><time>2026-04-20T12:28:49.913Z</time></trkpt><trkpt lat="32.90657" lon="9.9533167"><ele>325.0</ele><time>2026-04-20T12:28:50.913Z</time></trkpt><trkpt lat="32.9065517" lon="9.953045"><ele>325.0</ele><time>2026-04-20T12:28:51.913Z</time></trkpt><trkpt lat="32.906535" lon="9.9527733"><ele>325.0</ele><time>2026-04-20T12:28:52.913Z</time></trkpt><trkpt lat="32.90652" lon="9.952505"><ele>324.66666666666663</ele><time>2026-04-20T12:28:53.913Z</time></trkpt><trkpt lat="32.9065033" lon="9.95224"><ele>324.3333333333333</ele><time>2026-04-20T12:28:54.913Z</time></trkpt><trkpt lat="32.9064883" lon="9.9519717"><ele>324.0</ele><time>2026-04-20T12:28:55.913Z</time></trkpt><trkpt lat="32.906475" lon="9.9517017"><ele>323.3333333333333</ele><time>2026-04-20T12:28:56.913Z</time></trkpt><trkpt lat="32.9064717" lon="9.9514367"><ele>322.66666666666663</ele><time>2026-04-20T12:28:57.913Z</time></trkpt><trkpt lat="32.906475" lon="9.9511717"><ele>322.0</ele><time>2026-04-20T12:28:58.913Z</time></trkpt><trkpt lat="32.9064833" lon="9.9509067"><ele>321.0</ele><time>2026-04-20T12:28:59.913Z</time></trkpt><trkpt lat="32.9065" lon="9.95064"><ele>320.0</ele><time>2026-04-20T12:29:00.913Z</time></trkpt><trkpt lat="32.9065233" lon="9.95037"><ele>320.0</ele><time>2026-04-20T12:29:01.913Z</time></trkpt><trkpt lat="32.9065517" lon="9.9501067"><ele>320.0</ele><time>2026-04-20T12:29:02.913Z</time></trkpt><trkpt lat="32.9065833" lon="9.949865"><ele>320.0</ele><time>2026-04-20T12:29:03.913Z</time></trkpt><trkpt lat="32.9066117" lon="9.94963"><ele>319.33333333333337</ele><time>2026-04-20T12:29:04.913Z</time></trkpt><trkpt lat="32.9066417" lon="9.9494067"><ele>318.6666666666667</ele><time>2026-04-20T12:29:05.913Z</time></trkpt><trkpt lat="32.90667" lon="9.94919"><ele>318.0</ele><time>2026-04-20T12:29:06.913Z</time></trkpt><trkpt lat="32.9066983" lon="9.9489833"><ele>318.0</ele><time>2026-04-20T12:29:07.913Z</time></trkpt><trkpt lat="32.90672" lon="9.9487767"><ele>318.0</ele><time>2026-04-20T12:29:08.913Z</time></trkpt><trkpt lat="32.9067417" lon="9.9485683"><ele>318.0</ele><time>2026-04-20T12:29:09.913Z</time></trkpt><trkpt lat="32.90676" lon="9.9483583"><ele>318.0</ele><time>2026-04-20T12:29:10.913Z</time></trkpt><trkpt lat="32.9067733" lon="9.9481467"><ele>318.0</ele><time>2026-04-20T12:29:11.913Z</time></trkpt><trkpt lat="32.9067867" lon="9.9479383"><ele>318.0</ele><time>2026-04-20T12:29:12.913Z</time></trkpt><trkpt lat="32.9067833" lon="9.9477267"><ele>317.6666666666667</ele><time>2026-04-20T12:29:13.913Z</time></trkpt><trkpt lat="32.9067533" lon="9.94751"><ele>317.33333333333337</ele><time>2026-04-20T12:29:14.913Z</time></trkpt><trkpt lat="32.9067067" lon="9.94731"><ele>317.0</ele><time>2026-04-20T12:29:15.913Z</time></trkpt><trkpt lat="32.90665" lon="9.9471167"><ele>317.0</ele><time>2026-04-20T12:29:16.913Z</time></trkpt><trkpt lat="32.9065767" lon="9.9469333"><ele>317.0</ele><time>2026-04-20T12:29:17.913Z</time></trkpt><trkpt lat="32.9065" lon="9.9467583"><ele>317.0</ele><time>2026-04-20T12:29:18.913Z</time></trkpt><trkpt lat="32.9064133" lon="9.9465867"><ele>316.0</ele><time>2026-04-20T12:29:19.913Z</time></trkpt><trkpt lat="32.906315" lon="9.9464167"><ele>315.0</ele><time>2026-04-20T12:29:20.913Z</time></trkpt><trkpt lat="32.9062133" lon="9.9462517"><ele>314.0</ele><time>2026-04-20T12:29:21.913Z</time></trkpt><trkpt lat="32.9061" lon="9.9460967"><ele>314.0</ele><time>2026-04-20T12:29:22.913Z</time></trkpt><trkpt lat="32.9059983" lon="9.9459367"><ele>314.0</ele><time>2026-04-20T12:29:23.913Z</time></trkpt><trkpt lat="32.9058933" lon="9.9457767"><ele>314.0</ele><time>2026-04-20T12:29:24.913Z</time></trkpt><trkpt lat="32.905795" lon="9.9456217"><ele>315.33333333333337</ele><time>2026-04-20T12:29:25.913Z</time></trkpt><trkpt lat="32.9056933" lon="9.945465"><ele>316.6666666666667</ele><time>2026-04-20T12:29:26.913Z</time></trkpt><trkpt lat="32.9055967" lon="9.9453117"><ele>318.0</ele><time>2026-04-20T12:29:27.913Z</time></trkpt><trkpt lat="32.9054967" lon="9.945165"><ele>318.3333333333333</ele><time>2026-04-20T12:29:28.913Z</time></trkpt><trkpt lat="32.9053933" lon="9.9450183"><ele>318.66666666666663</ele><time>2026-04-20T12:29:29.913Z</time></trkpt><trkpt lat="32.905305" lon="9.9448683"><ele>319.0</ele><time>2026-04-20T12:29:30.913Z</time></trkpt><trkpt lat="32.905215" lon="9.9447167"><ele>319.0</ele><time>2026-04-20T12:29:31.913Z</time></trkpt><trkpt lat="32.905125" lon="9.944565"><ele>319.0</ele><time>2026-04-20T12:29:32.913Z</time></trkpt><trkpt lat="32.9050317" lon="9.9444167"><ele>319.0</ele><time>2026-04-20T12:29:33.913Z</time></trkpt><trkpt lat="32.90494" lon="9.9442733"><ele>319.25</ele><time>2026-04-20T12:29:34.913Z</time></trkpt><trkpt lat="32.9048467" lon="9.9441233"><ele>319.5</ele><time>2026-04-20T12:29:35.913Z</time></trkpt><trkpt lat="32.9047617" lon="9.9439817"><ele>319.75</ele><time>2026-04-20T12:29:36.913Z</time></trkpt><trkpt lat="32.9046733" lon="9.9438483"><ele>320.0</ele><time>2026-04-20T12:29:37.913Z</time></trkpt><trkpt lat="32.904595" lon="9.94372"><ele>320.0</ele><time>2026-04-20T12:29:38.913Z</time></trkpt><trkpt lat="32.9045233" lon="9.943605"><ele>320.0</ele><time>2026-04-20T12:29:39.913Z</time></trkpt><trkpt lat="32.9044583" lon="9.9434883"><ele>320.0</ele><time>2026-04-20T12:29:40.913Z</time></trkpt><trkpt lat="32.9043817" lon="9.94337"><ele>320.0</ele><time>2026-04-20T12:29:41.913Z</time></trkpt><trkpt lat="32.9043083" lon="9.9432633"><ele>319.4</ele><time>2026-04-20T12:29:42.913Z</time></trkpt><trkpt lat="32.9042433" lon="9.9431617"><ele>318.8</ele><time>2026-04-20T12:29:43.913Z</time></trkpt><trkpt lat="32.9041867" lon="9.9430583"><ele>318.2</ele><time>2026-04-20T12:29:44.913Z</time></trkpt><trkpt lat="32.90414" lon="9.94297"><ele>317.6</ele><time>2026-04-20T12:29:45.913Z</time></trkpt><trkpt lat="32.9041017" lon="9.942905"><ele>317.0</ele><time>2026-04-20T12:29:46.913Z</time></trkpt><trkpt lat="32.9040483" lon="9.9428233"><ele>317.0</ele><time>2026-04-20T12:29:48.913Z</time></trkpt><trkpt lat="32.9040117" lon="9.9427583"><ele>317.0</ele><time>2026-04-20T12:29:51.913Z</time></trkpt><trkpt lat="32.903965" lon="9.94269"><ele>317.0</ele><time>2026-04-20T12:30:51.913Z</time></trkpt><trkpt lat="32.90392" lon="9.9426283"><ele>317.0</ele><time>2026-04-20T12:30:52.913Z</time></trkpt><trkpt lat="32.9038733" lon="9.9425567"><ele>317.0</ele><time>2026-04-20T12:30:53.913Z</time></trkpt><trkpt lat="32.903825" lon="9.94248"><ele>317.0</ele><time>2026-04-20T12:30:54.913Z</time></trkpt><trkpt lat="32.9037667" lon="9.942385"><ele>318.75</ele><time>2026-04-20T12:30:55.912Z</time></trkpt><trkpt lat="32.9037067" lon="9.9422883"><ele>320.5</ele><time>2026-04-20T12:30:56.912Z</time></trkpt><trkpt lat="32.9036383" lon="9.942185"><ele>322.25</ele><time>2026-04-20T12:30:57.912Z</time></trkpt><trkpt lat="32.9035633" lon="9.942075"><ele>324.0</ele><time>2026-04-20T12:30:58.912Z</time></trkpt><trkpt lat="32.903485" lon="9.941955"><ele>323.25</ele><time>2026-04-20T12:30:59.912Z</time></trkpt><trkpt lat="32.9034083" lon="9.9418283"><ele>322.5</ele><time>2026-04-20T12:31:00.912Z</time></trkpt><trkpt lat="32.9033317" lon="9.9416983"><ele>321.75</ele><time>2026-04-20T12:31:01.912Z</time></trkpt><trkpt lat="32.9032583" lon="9.9415683"><ele>321.0</ele><time>2026-04-20T12:31:02.912Z</time></trkpt><trkpt lat="32.9031733" lon="9.9414383"><ele>321.0</ele><time>2026-04-20T12:31:03.912Z</time></trkpt><trkpt lat="32.9030833" lon="9.941305"><ele>321.0</ele><time>2026-04-20T12:31:04.912Z</time></trkpt><trkpt lat="32.90299" lon="9.9411683"><ele>321.0</ele><time>2026-04-20T12:31:05.912Z</time></trkpt><trkpt lat="32.90289" lon="9.9410283"><ele>321.0</ele><time>2026-04-20T12:31:06.912Z</time></trkpt><trkpt lat="32.9027933" lon="9.94089"><ele>320.6666666666667</ele><time>2026-04-20T12:31:07.912Z</time></trkpt><trkpt lat="32.9026917" lon="9.9407517"><ele>320.33333333333337</ele><time>2026-04-20T12:31:08.912Z</time></trkpt><trkpt lat="32.9025867" lon="9.9406117"><ele>320.0</ele><time>2026-04-20T12:31:09.912Z</time></trkpt><trkpt lat="32.902475" lon="9.9404667"><ele>320.0</ele><time>2026-04-20T12:31:10.912Z</time></trkpt><trkpt lat="32.9023633" lon="9.9403217"><ele>320.0</ele><time>2026-04-20T12:31:11.912Z</time></trkpt><trkpt lat="32.9022417" lon="9.94017"><ele>320.0</ele><time>2026-04-20T12:31:12.912Z</time></trkpt><trkpt lat="32.9021183" lon="9.9400183"><ele>320.33333333333337</ele><time>2026-04-20T12:31:13.912Z</time></trkpt><trkpt lat="32.90199" lon="9.9398667"><ele>320.6666666666667</ele><time>2026-04-20T12:31:14.912Z</time></trkpt><trkpt lat="32.9018617" lon="9.9397183"><ele>321.0</ele><time>2026-04-20T12:31:15.912Z</time></trkpt><trkpt lat="32.9017333" lon="9.9395783"><ele>321.0</ele><time>2026-04-20T12:31:16.912Z</time></trkpt><trkpt lat="32.9015967" lon="9.9394367"><ele>321.0</ele><time>2026-04-20T12:31:17.912Z</time></trkpt><trkpt lat="32.901465" lon="9.9392883"><ele>321.0</ele><time>2026-04-20T12:31:18.912Z</time></trkpt><trkpt lat="32.90133" lon="9.9391433"><ele>321.6666666666667</ele><time>2026-04-20T12:31:19.912Z</time></trkpt><trkpt lat="32.9011933" lon="9.9389983"><ele>322.33333333333337</ele><time>2026-04-20T12:31:20.912Z</time></trkpt><trkpt lat="32.9010583" lon="9.9388533"><ele>323.0</ele><time>2026-04-20T12:31:21.912Z</time></trkpt><trkpt lat="32.9009183" lon="9.9387017"><ele>323.0</ele><time>2026-04-20T12:31:22.912Z</time></trkpt><trkpt lat="32.9007783" lon="9.93855"><ele>323.0</ele><time>2026-04-20T12:31:23.912Z</time></trkpt><trkpt lat="32.9006383" lon="9.9383983"><ele>323.0</ele><time>2026-04-20T12:31:24.912Z</time></trkpt><trkpt lat="32.9004967" lon="9.9382417"><ele>323.0</ele><time>2026-04-20T12:31:25.912Z</time></trkpt><trkpt lat="32.9003467" lon="9.9380917"><ele>323.0</ele><time>2026-04-20T12:31:26.912Z</time></trkpt><trkpt lat="32.9002" lon="9.9379383"><ele>323.0</ele><time>2026-04-20T12:31:27.912Z</time></trkpt><trkpt lat="32.9000533" lon="9.9377817"><ele>323.0</ele><time>2026-04-20T12:31:28.912Z</time></trkpt><trkpt lat="32.899905" lon="9.93763"><ele>323.0</ele><time>2026-04-20T12:31:29.912Z</time></trkpt><trkpt lat="32.8997567" lon="9.937475"><ele>323.0</ele><time>2026-04-20T12:31:30.912Z</time></trkpt><trkpt lat="32.8996067" lon="9.9373183"><ele>323.0</ele><time>2026-04-20T12:31:31.912Z</time></trkpt><trkpt lat="32.8994467" lon="9.9371617"><ele>323.0</ele><time>2026-04-20T12:31:32.912Z</time></trkpt><trkpt lat="32.8992917" lon="9.937005"><ele>323.0</ele><time>2026-04-20T12:31:33.912Z</time></trkpt><trkpt lat="32.8991283" lon="9.9368383"><ele>322.6666666666667</ele><time>2026-04-20T12:31:34.912Z</time></trkpt><trkpt lat="32.898975" lon="9.9366717"><ele>322.3333333333333</ele><time>2026-04-20T12:31:35.912Z</time></trkpt><trkpt lat="32.8988217" lon="9.9365083"><ele>322.0</ele><time>2026-04-20T12:31:36.912Z</time></trkpt><trkpt lat="32.8986683" lon="9.93634"><ele>322.0</ele><time>2026-04-20T12:31:37.912Z</time></trkpt><trkpt lat="32.8985117" lon="9.9361817"><ele>322.0</ele><time>2026-04-20T12:31:38.912Z</time></trkpt><trkpt lat="32.89836" lon="9.9360183"><ele>322.0</ele><time>2026-04-20T12:31:39.912Z</time></trkpt><trkpt lat="32.8982" lon="9.93586"><ele>323.0</ele><time>2026-04-20T12:31:40.912Z</time></trkpt><trkpt lat="32.8980483" lon="9.9356983"><ele>324.0</ele><time>2026-04-20T12:31:41.912Z</time></trkpt><trkpt lat="32.897895" lon="9.9355317"><ele>325.0</ele><time>2026-04-20T12:31:42.912Z</time></trkpt><trkpt lat="32.8977333" lon="9.935365"><ele>325.3333333333333</ele><time>2026-04-20T12:31:43.912Z</time></trkpt><trkpt lat="32.8975733" lon="9.9351983"><ele>325.6666666666667</ele><time>2026-04-20T12:31:44.912Z</time></trkpt><trkpt lat="32.8974133" lon="9.9350283"><ele>326.0</ele><time>2026-04-20T12:31:45.912Z</time></trkpt><trkpt lat="32.89726" lon="9.9348583"><ele>325.0</ele><time>2026-04-20T12:31:46.912Z</time></trkpt><trkpt lat="32.8971033" lon="9.9346967"><ele>324.0</ele><time>2026-04-20T12:31:47.912Z</time></trkpt><trkpt lat="32.8969433" lon="9.9345333"><ele>323.0</ele><time>2026-04-20T12:31:48.912Z</time></trkpt><trkpt lat="32.8967933" lon="9.9343617"><ele>323.33333333333337</ele><time>2026-04-20T12:31:49.912Z</time></trkpt><trkpt lat="32.8966433" lon="9.9341817"><ele>323.6666666666667</ele><time>2026-04-20T12:31:50.912Z</time></trkpt><trkpt lat="32.8964983" lon="9.934"><ele>324.0</ele><time>2026-04-20T12:31:51.912Z</time></trkpt><trkpt lat="32.896355" lon="9.9338117"><ele>324.0</ele><time>2026-04-20T12:31:52.912Z</time></trkpt><trkpt lat="32.896225" lon="9.933615"><ele>324.0</ele><time>2026-04-20T12:31:53.912Z</time></trkpt><trkpt lat="32.8960917" lon="9.933425"><ele>324.0</ele><time>2026-04-20T12:31:54.911Z</time></trkpt><trkpt lat="32.895975" lon="9.933225"><ele>324.6666666666667</ele><time>2026-04-20T12:31:55.912Z</time></trkpt><trkpt lat="32.89586" lon="9.9330183"><ele>325.33333333333337</ele><time>2026-04-20T12:31:56.912Z</time></trkpt><trkpt lat="32.895755" lon="9.9328117"><ele>326.0</ele><time>2026-04-20T12:31:57.912Z</time></trkpt><trkpt lat="32.8956567" lon="9.932605"><ele>326.6666666666667</ele><time>2026-04-20T12:31:58.912Z</time></trkpt><trkpt lat="32.89556" lon="9.9323967"><ele>327.3333333333333</ele><time>2026-04-20T12:31:59.912Z</time></trkpt><trkpt lat="32.895475" lon="9.932185"><ele>328.0</ele><time>2026-04-20T12:32:00.912Z</time></trkpt><trkpt lat="32.8953783" lon="9.9319767"><ele>328.0</ele><time>2026-04-20T12:32:01.912Z</time></trkpt><trkpt lat="32.8952817" lon="9.9317667"><ele>328.0</ele><time>2026-04-20T12:32:02.912Z</time></trkpt><trkpt lat="32.8951817" lon="9.9315617"><ele>328.0</ele><time>2026-04-20T12:32:03.912Z</time></trkpt><trkpt lat="32.89508" lon="9.931365"><ele>330.0</ele><time>2026-04-20T12:32:04.912Z</time></trkpt><trkpt lat="32.8949767" lon="9.93118"><ele>332.0</ele><time>2026-04-20T12:32:05.912Z</time></trkpt><trkpt lat="32.8948633" lon="9.931"><ele>334.0</ele><time>2026-04-20T12:32:06.912Z</time></trkpt><trkpt lat="32.8947433" lon="9.9308267"><ele>335.66666666666663</ele><time>2026-04-20T12:32:07.912Z</time></trkpt><trkpt lat="32.894615" lon="9.9306583"><ele>337.3333333333333</ele><time>2026-04-20T12:32:08.912Z</time></trkpt><trkpt lat="32.89448" lon="9.9304967"><ele>339.0</ele><time>2026-04-20T12:32:09.912Z</time></trkpt><trkpt lat="32.894345" lon="9.9303433"><ele>339.6666666666667</ele><time>2026-04-20T12:32:10.912Z</time></trkpt><trkpt lat="32.8942033" lon="9.930205"><ele>340.33333333333337</ele><time>2026-04-20T12:32:11.912Z</time></trkpt><trkpt lat="32.89405" lon="9.930075"><ele>341.0</ele><time>2026-04-20T12:32:12.912Z</time></trkpt><trkpt lat="32.893895" lon="9.92995"><ele>342.0</ele><time>2026-04-20T12:32:13.912Z</time></trkpt><trkpt lat="32.89373" lon="9.92984"><ele>343.0</ele><time>2026-04-20T12:32:14.912Z</time></trkpt><trkpt lat="32.8935833" lon="9.92973"><ele>344.0</ele><time>2026-04-20T12:32:15.912Z</time></trkpt><trkpt lat="32.8934317" lon="9.92963"><ele>344.33333333333337</ele><time>2026-04-20T12:32:16.912Z</time></trkpt><trkpt lat="32.8932817" lon="9.9295317"><ele>344.6666666666667</ele><time>2026-04-20T12:32:17.912Z</time></trkpt><trkpt lat="32.8931383" lon="9.9294317"><ele>345.0</ele><time>2026-04-20T12:32:18.912Z</time></trkpt><trkpt lat="32.8929917" lon="9.92933"><ele>345.3333333333333</ele><time>2026-04-20T12:32:19.912Z</time></trkpt><trkpt lat="32.892845" lon="9.9292217"><ele>345.66666666666663</ele><time>2026-04-20T12:32:20.912Z</time></trkpt><trkpt lat="32.892705" lon="9.9291083"><ele>346.0</ele><time>2026-04-20T12:32:21.912Z</time></trkpt><trkpt lat="32.8925767" lon="9.9289817"><ele>346.0</ele><time>2026-04-20T12:32:22.912Z</time></trkpt><trkpt lat="32.89244" lon="9.92886"><ele>346.0</ele><time>2026-04-20T12:32:23.912Z</time></trkpt><trkpt lat="32.89231" lon="9.9287133"><ele>346.0</ele><time>2026-04-20T12:32:24.912Z</time></trkpt><trkpt lat="32.8921983" lon="9.9285667"><ele>346.0</ele><time>2026-04-20T12:32:25.912Z</time></trkpt><trkpt lat="32.8920783" lon="9.928405"><ele>346.0</ele><time>2026-04-20T12:32:26.912Z</time></trkpt><trkpt lat="32.8919583" lon="9.9282467"><ele>346.0</ele><time>2026-04-20T12:32:27.912Z</time></trkpt><trkpt lat="32.8918467" lon="9.9280767"><ele>346.3333333333333</ele><time>2026-04-20T12:32:28.912Z</time></trkpt><trkpt lat="32.8917367" lon="9.9279033"><ele>346.6666666666667</ele><time>2026-04-20T12:32:29.912Z</time></trkpt><trkpt lat="32.8916283" lon="9.9277333"><ele>347.0</ele><time>2026-04-20T12:32:30.912Z</time></trkpt><trkpt lat="32.8915133" lon="9.927565"><ele>347.0</ele><time>2026-04-20T12:32:31.912Z</time></trkpt><trkpt lat="32.891405" lon="9.927395"><ele>347.0</ele><time>2026-04-20T12:32:32.912Z</time></trkpt><trkpt lat="32.8912983" lon="9.9272267"><ele>347.0</ele><time>2026-04-20T12:32:33.912Z</time></trkpt><trkpt lat="32.8912017" lon="9.9270483"><ele>347.0</ele><time>2026-04-20T12:32:34.912Z</time></trkpt><trkpt lat="32.891105" lon="9.9268667"><ele>347.0</ele><time>2026-04-20T12:32:35.912Z</time></trkpt><trkpt lat="32.8910117" lon="9.92667"><ele>347.0</ele><time>2026-04-20T12:32:36.912Z</time></trkpt><trkpt lat="32.8909317" lon="9.9264767"><ele>347.6666666666667</ele><time>2026-04-20T12:32:37.912Z</time></trkpt><trkpt lat="32.8908483" lon="9.9262733"><ele>348.3333333333333</ele><time>2026-04-20T12:32:38.912Z</time></trkpt><trkpt lat="32.89077" lon="9.926075"><ele>349.0</ele><time>2026-04-20T12:32:39.912Z</time></trkpt><trkpt lat="32.8907033" lon="9.9258767"><ele>349.0</ele><time>2026-04-20T12:32:40.912Z</time></trkpt><trkpt lat="32.890625" lon="9.925675"><ele>349.0</ele><time>2026-04-20T12:32:41.912Z</time></trkpt><trkpt lat="32.8905567" lon="9.9254783"><ele>349.0</ele><time>2026-04-20T12:32:42.912Z</time></trkpt><trkpt lat="32.8904967" lon="9.925275"><ele>349.0</ele><time>2026-04-20T12:32:43.912Z</time></trkpt><trkpt lat="32.8904433" lon="9.925075"><ele>349.0</ele><time>2026-04-20T12:32:44.912Z</time></trkpt><trkpt lat="32.8903967" lon="9.92487"><ele>349.0</ele><time>2026-04-20T12:32:45.912Z</time></trkpt><trkpt lat="32.890355" lon="9.9246633"><ele>349.3333333333333</ele><time>2026-04-20T12:32:46.912Z</time></trkpt><trkpt lat="32.8903083" lon="9.92446"><ele>349.6666666666667</ele><time>2026-04-20T12:32:47.912Z</time></trkpt><trkpt lat="32.890265" lon="9.9242533"><ele>350.0</ele><time>2026-04-20T12:32:48.912Z</time></trkpt><trkpt lat="32.8902217" lon="9.92405"><ele>350.6666666666667</ele><time>2026-04-20T12:32:49.912Z</time></trkpt><trkpt lat="32.890175" lon="9.9238467"><ele>351.3333333333333</ele><time>2026-04-20T12:32:50.912Z</time></trkpt><trkpt lat="32.8901283" lon="9.9236433"><ele>352.0</ele><time>2026-04-20T12:32:51.912Z</time></trkpt><trkpt lat="32.8900833" lon="9.9234383"><ele>352.66666666666663</ele><time>2026-04-20T12:32:52.912Z</time></trkpt><trkpt lat="32.8900417" lon="9.92323"><ele>353.3333333333333</ele><time>2026-04-20T12:32:53.912Z</time></trkpt><trkpt lat="32.88999" lon="9.92302"><ele>354.0</ele><time>2026-04-20T12:32:54.912Z</time></trkpt><trkpt lat="32.889945" lon="9.9228133"><ele>354.0</ele><time>2026-04-20T12:32:55.912Z</time></trkpt><trkpt lat="32.8898967" lon="9.9225967"><ele>354.0</ele><time>2026-04-20T12:32:56.912Z</time></trkpt><trkpt lat="32.8898467" lon="9.9223867"><ele>354.0</ele><time>2026-04-20T12:32:57.912Z</time></trkpt><trkpt lat="32.8897933" lon="9.9221783"><ele>354.3333333333333</ele><time>2026-04-20T12:32:58.912Z</time></trkpt><trkpt lat="32.889745" lon="9.9219667"><ele>354.66666666666663</ele><time>2026-04-20T12:32:59.912Z</time></trkpt><trkpt lat="32.8896917" lon="9.9217583"><ele>355.0</ele><time>2026-04-20T12:33:00.912Z</time></trkpt><trkpt lat="32.8896367" lon="9.92155"><ele>355.3333333333333</ele><time>2026-04-20T12:33:01.912Z</time></trkpt><trkpt lat="32.8895767" lon="9.9213533"><ele>355.6666666666667</ele><time>2026-04-20T12:33:02.912Z</time></trkpt><trkpt lat="32.8895167" lon="9.9211567"><ele>356.0</ele><time>2026-04-20T12:33:03.912Z</time></trkpt><trkpt lat="32.8894483" lon="9.9209583"><ele>356.33333333333337</ele><time>2026-04-20T12:33:04.912Z</time></trkpt><trkpt lat="32.8893817" lon="9.9207583"><ele>356.6666666666667</ele><time>2026-04-20T12:33:05.912Z</time></trkpt><trkpt lat="32.8893117" lon="9.920555"><ele>357.0</ele><time>2026-04-20T12:33:06.912Z</time></trkpt><trkpt lat="32.8892467" lon="9.920355"><ele>357.0</ele><time>2026-04-20T12:33:07.912Z</time></trkpt><trkpt lat="32.8891833" lon="9.9201533"><ele>357.0</ele><time>2026-04-20T12:33:08.912Z</time></trkpt><trkpt lat="32.8891217" lon="9.9199417"><ele>357.0</ele><time>2026-04-20T12:33:09.912Z</time></trkpt><trkpt lat="32.88906" lon="9.9197383"><ele>356.6666666666667</ele><time>2026-04-20T12:33:10.912Z</time></trkpt><trkpt lat="32.8889883" lon="9.9195433"><ele>356.33333333333337</ele><time>2026-04-20T12:33:11.912Z</time></trkpt><trkpt lat="32.8889133" lon="9.91936"><ele>356.0</ele><time>2026-04-20T12:33:12.912Z</time></trkpt><trkpt lat="32.8888133" lon="9.919185"><ele>356.0</ele><time>2026-04-20T12:33:13.912Z</time></trkpt><trkpt lat="32.8887083" lon="9.9190217"><ele>356.0</ele><time>2026-04-20T12:33:14.912Z</time></trkpt><trkpt lat="32.88859" lon="9.91887"><ele>356.0</ele><time>2026-04-20T12:33:15.912Z</time></trkpt><trkpt lat="32.8884567" lon="9.9187383"><ele>357.0</ele><time>2026-04-20T12:33:16.912Z</time></trkpt><trkpt lat="32.8883117" lon="9.91862"><ele>358.0</ele><time>2026-04-20T12:33:17.912Z</time></trkpt><trkpt lat="32.88815" lon="9.9185333"><ele>359.0</ele><time>2026-04-20T12:33:18.912Z</time></trkpt><trkpt lat="32.8879867" lon="9.918455"><ele>359.6666666666667</ele><time>2026-04-20T12:33:19.912Z</time></trkpt><trkpt lat="32.88782" lon="9.9183767"><ele>360.3333333333333</ele><time>2026-04-20T12:33:20.912Z</time></trkpt><trkpt lat="32.887655" lon="9.9182967"><ele>361.0</ele><time>2026-04-20T12:33:21.912Z</time></trkpt><trkpt lat="32.8874983" lon="9.9182083"><ele>361.0</ele><time>2026-04-20T12:33:22.912Z</time></trkpt><trkpt lat="32.8873433" lon="9.91813"><ele>361.0</ele><time>2026-04-20T12:33:23.912Z</time></trkpt><trkpt lat="32.8871917" lon="9.9180417"><ele>361.0</ele><time>2026-04-20T12:33:24.912Z</time></trkpt><trkpt lat="32.88705" lon="9.917945"><ele>361.0</ele><time>2026-04-20T12:33:25.912Z</time></trkpt><trkpt lat="32.8869183" lon="9.9178417"><ele>361.0</ele><time>2026-04-20T12:33:26.912Z</time></trkpt><trkpt lat="32.8867833" lon="9.917735"><ele>361.0</ele><time>2026-04-20T12:33:27.912Z</time></trkpt><trkpt lat="32.88666" lon="9.917625"><ele>361.3333333333333</ele><time>2026-04-20T12:33:28.912Z</time></trkpt><trkpt lat="32.8865367" lon="9.9175083"><ele>361.6666666666667</ele><time>2026-04-20T12:33:29.912Z</time></trkpt><trkpt lat="32.8864217" lon="9.9173917"><ele>362.0</ele><time>2026-04-20T12:33:30.912Z</time></trkpt><trkpt lat="32.88631" lon="9.9172833"><ele>362.0</ele><time>2026-04-20T12:33:31.912Z</time></trkpt><trkpt lat="32.8862283" lon="9.9171917"><ele>362.0</ele><time>2026-04-20T12:33:32.912Z</time></trkpt><trkpt lat="32.886175" lon="9.9171133"><ele>362.0</ele><time>2026-04-20T12:33:33.912Z</time></trkpt><trkpt lat="32.886115" lon="9.9170667"><ele>362.0</ele><time>2026-04-20T12:33:34.912Z</time></trkpt><trkpt lat="32.88605" lon="9.9170217"><ele>362.0</ele><time>2026-04-20T12:33:36.912Z</time></trkpt><trkpt lat="32.8859333" lon="9.9170033"><ele>362.0</ele><time>2026-04-20T12:33:52.912Z</time></trkpt><trkpt lat="32.88587" lon="9.91699"><ele>362.0</ele><time>2026-04-20T12:33:53.912Z</time></trkpt><trkpt lat="32.8858067" lon="9.9169567"><ele>362.0</ele><time>2026-04-20T12:33:54.912Z</time></trkpt><trkpt lat="32.8857467" lon="9.9169117"><ele>362.0</ele><time>2026-04-20T12:33:55.912Z</time></trkpt><trkpt lat="32.8856883" lon="9.9168517"><ele>362.0</ele><time>2026-04-20T12:33:56.912Z</time></trkpt><trkpt lat="32.8856317" lon="9.91678"><ele>362.0</ele><time>2026-04-20T12:33:57.912Z</time></trkpt><trkpt lat="32.88558" lon="9.9166983"><ele>362.33333333333337</ele><time>2026-04-20T12:33:58.912Z</time></trkpt><trkpt lat="32.885535" lon="9.9166117"><ele>362.6666666666667</ele><time>2026-04-20T12:33:59.912Z</time></trkpt><trkpt lat="32.8854817" lon="9.9165267"><ele>363.0</ele><time>2026-04-20T12:34:00.912Z</time></trkpt><trkpt lat="32.8854283" lon="9.91644"><ele>363.3333333333333</ele><time>2026-04-20T12:34:01.912Z</time></trkpt><trkpt lat="32.885385" lon="9.916355"><ele>363.66666666666663</ele><time>2026-04-20T12:34:02.912Z</time></trkpt><trkpt lat="32.885345" lon="9.9162617"><ele>364.0</ele><time>2026-04-20T12:34:03.912Z</time></trkpt><trkpt lat="32.8853067" lon="9.91616"><ele>364.0</ele><time>2026-04-20T12:34:04.912Z</time></trkpt><trkpt lat="32.8852717" lon="9.91605"><ele>364.0</ele><time>2026-04-20T12:34:05.912Z</time></trkpt><trkpt lat="32.8852267" lon="9.9159367"><ele>364.0</ele><time>2026-04-20T12:34:06.912Z</time></trkpt><trkpt lat="32.88518" lon="9.91582"><ele>364.0</ele><time>2026-04-20T12:34:07.912Z</time></trkpt><trkpt lat="32.8851267" lon="9.9157167"><ele>364.0</ele><time>2026-04-20T12:34:08.912Z</time></trkpt><trkpt lat="32.8850533" lon="9.91562"><ele>364.0</ele><time>2026-04-20T12:34:09.912Z</time></trkpt><trkpt lat="32.8849783" lon="9.9155183"><ele>364.0</ele><time>2026-04-20T12:34:10.912Z</time></trkpt><trkpt lat="32.8849067" lon="9.915415"><ele>364.0</ele><time>2026-04-20T12:34:11.912Z</time></trkpt><trkpt lat="32.8848417" lon="9.9153083"><ele>364.0</ele><time>2026-04-20T12:34:12.912Z</time></trkpt><trkpt lat="32.8847767" lon="9.9152"><ele>364.0</ele><time>2026-04-20T12:34:13.912Z</time></trkpt><trkpt lat="32.88471" lon="9.9150867"><ele>363.79999999999995</ele><time>2026-04-20T12:34:14.912Z</time></trkpt><trkpt lat="32.8846367" lon="9.91498"><ele>363.59999999999997</ele><time>2026-04-20T12:34:15.912Z</time></trkpt><trkpt lat="32.88457" lon="9.9148717"><ele>363.4</ele><time>2026-04-20T12:34:16.912Z</time></trkpt><trkpt lat="32.8845117" lon="9.9147583"><ele>363.2</ele><time>2026-04-20T12:34:17.912Z</time></trkpt><trkpt lat="32.8844583" lon="9.914645"><ele>363.0</ele><time>2026-04-20T12:34:18.912Z</time></trkpt><trkpt lat="32.8844067" lon="9.914525"><ele>363.0</ele><time>2026-04-20T12:34:19.912Z</time></trkpt><trkpt lat="32.8843583" lon="9.9144"><ele>363.0</ele><time>2026-04-20T12:34:20.912Z</time></trkpt><trkpt lat="32.8843167" lon="9.9142867"><ele>363.0</ele><time>2026-04-20T12:34:21.912Z</time></trkpt><trkpt lat="32.8842667" lon="9.9141833"><ele>363.0</ele><time>2026-04-20T12:34:22.912Z</time></trkpt><trkpt lat="32.884225" lon="9.9140883"><ele>363.0</ele><time>2026-04-20T12:34:23.912Z</time></trkpt><trkpt lat="32.884195" lon="9.9139983"><ele>362.4285714285714</ele><time>2026-04-20T12:34:24.912Z</time></trkpt><trkpt lat="32.8841683" lon="9.9139167"><ele>361.85714285714283</ele><time>2026-04-20T12:34:25.912Z</time></trkpt><trkpt lat="32.884145" lon="9.9138367"><ele>361.2857142857143</ele><time>2026-04-20T12:34:26.912Z</time></trkpt><trkpt lat="32.88411" lon="9.913765"><ele>360.71428571428567</ele><time>2026-04-20T12:34:27.912Z</time></trkpt><trkpt lat="32.88407" lon="9.91369"><ele>360.14285714285717</ele><time>2026-04-20T12:34:28.912Z</time></trkpt><trkpt lat="32.8840183" lon="9.9136283"><ele>359.57142857142856</ele><time>2026-04-20T12:34:29.912Z</time></trkpt><trkpt lat="32.8839533" lon="9.9135617"><ele>359.0</ele><time>2026-04-20T12:34:30.912Z</time></trkpt><trkpt lat="32.8839" lon="9.91349"><ele>359.0</ele><time>2026-04-20T12:34:31.912Z</time></trkpt><trkpt lat="32.8838417" lon="9.9134217"><ele>359.0</ele><time>2026-04-20T12:34:32.912Z</time></trkpt><trkpt lat="32.88379" lon="9.9133483"><ele>359.0</ele><time>2026-04-20T12:34:33.912Z</time></trkpt><trkpt lat="32.88374" lon="9.91328"><ele>359.0</ele><time>2026-04-20T12:34:34.912Z</time></trkpt><trkpt lat="32.8836983" lon="9.9132117"><ele>359.0</ele><time>2026-04-20T12:34:35.911Z</time></trkpt><trkpt lat="32.88366" lon="9.9131483"><ele>359.0</ele><time>2026-04-20T12:34:36.911Z</time></trkpt><trkpt lat="32.8836183" lon="9.91309"><ele>359.0</ele><time>2026-04-20T12:34:37.911Z</time></trkpt><trkpt lat="32.88357" lon="9.9130317"><ele>359.0</ele><time>2026-04-20T12:34:38.911Z</time></trkpt><trkpt lat="32.8835183" lon="9.91297"><ele>359.0</ele><time>2026-04-20T12:34:39.911Z</time></trkpt><trkpt lat="32.8834783" lon="9.9129"><ele>359.0</ele><time>2026-04-20T12:34:40.911Z</time></trkpt><trkpt lat="32.88343" lon="9.912845"><ele>359.0</ele><time>2026-04-20T12:34:41.911Z</time></trkpt><trkpt lat="32.88331" lon="9.9127933"><ele>359.0</ele><time>2026-04-20T12:34:43.911Z</time></trkpt><trkpt lat="32.8832267" lon="9.9127833"><ele>359.0</ele><time>2026-04-20T12:34:44.911Z</time></trkpt><trkpt lat="32.88313" lon="9.91277"><ele>358.4</ele><time>2026-04-20T12:34:45.911Z</time></trkpt><trkpt lat="32.8830267" lon="9.9127567"><ele>357.79999999999995</ele><time>2026-04-20T12:34:46.911Z</time></trkpt><trkpt lat="32.8829233" lon="9.9127533"><ele>357.20000000000005</ele><time>2026-04-20T12:34:47.911Z</time></trkpt><trkpt lat="32.8828217" lon="9.9127533"><ele>356.6</ele><time>2026-04-20T12:34:48.911Z</time></trkpt><trkpt lat="32.882715" lon="9.9127583"><ele>356.0</ele><time>2026-04-20T12:34:49.911Z</time></trkpt><trkpt lat="32.882625" lon="9.9127633"><ele>355.4</ele><time>2026-04-20T12:34:50.911Z</time></trkpt><trkpt lat="32.8825333" lon="9.9127417"><ele>354.8</ele><time>2026-04-20T12:34:51.911Z</time></trkpt><trkpt lat="32.8824317" lon="9.91271"><ele>354.2</ele><time>2026-04-20T12:34:52.911Z</time></trkpt><trkpt lat="32.8823317" lon="9.9126633"><ele>353.59999999999997</ele><time>2026-04-20T12:34:53.911Z</time></trkpt><trkpt lat="32.8822283" lon="9.9126133"><ele>353.0</ele><time>2026-04-20T12:34:54.911Z</time></trkpt><trkpt lat="32.8821233" lon="9.9125717"><ele>352.59999999999997</ele><time>2026-04-20T12:34:55.911Z</time></trkpt><trkpt lat="32.8820233" lon="9.91253"><ele>352.2</ele><time>2026-04-20T12:34:56.911Z</time></trkpt><trkpt lat="32.8819267" lon="9.9124833"><ele>351.8</ele><time>2026-04-20T12:34:57.911Z</time></trkpt><trkpt lat="32.8818367" lon="9.91243"><ele>351.4</ele><time>2026-04-20T12:34:58.911Z</time></trkpt><trkpt lat="32.8817467" lon="9.9123633"><ele>351.0</ele><time>2026-04-20T12:34:59.911Z</time></trkpt><trkpt lat="32.8816583" lon="9.9122933"><ele>350.0</ele><time>2026-04-20T12:35:00.911Z</time></trkpt><trkpt lat="32.88156" lon="9.9122283"><ele>349.0</ele><time>2026-04-20T12:35:01.911Z</time></trkpt><trkpt lat="32.881445" lon="9.9121883"><ele>348.0</ele><time>2026-04-20T12:35:02.911Z</time></trkpt><trkpt lat="32.8813233" lon="9.9121617"><ele>347.0</ele><time>2026-04-20T12:35:03.911Z</time></trkpt><trkpt lat="32.881205" lon="9.9121317"><ele>347.0</ele><time>2026-04-20T12:35:04.911Z</time></trkpt><trkpt lat="32.8810783" lon="9.9120817"><ele>347.0</ele><time>2026-04-20T12:35:05.911Z</time></trkpt><trkpt lat="32.880955" lon="9.9120183"><ele>347.0</ele><time>2026-04-20T12:35:06.911Z</time></trkpt><trkpt lat="32.8808333" lon="9.9119383"><ele>347.0</ele><time>2026-04-20T12:35:07.911Z</time></trkpt><trkpt lat="32.880705" lon="9.9118633"><ele>346.75</ele><time>2026-04-20T12:35:08.911Z</time></trkpt><trkpt lat="32.88058" lon="9.9118033"><ele>346.5</ele><time>2026-04-20T12:35:09.911Z</time></trkpt><trkpt lat="32.88045" lon="9.9117467"><ele>346.25</ele><time>2026-04-20T12:35:10.911Z</time></trkpt><trkpt lat="32.8803267" lon="9.9117017"><ele>346.0</ele><time>2026-04-20T12:35:11.911Z</time></trkpt><trkpt lat="32.8802017" lon="9.9116467"><ele>345.25</ele><time>2026-04-20T12:35:12.911Z</time></trkpt><trkpt lat="32.880075" lon="9.9115933"><ele>344.5</ele><time>2026-04-20T12:35:13.911Z</time></trkpt><trkpt lat="32.879965" lon="9.9115267"><ele>343.75</ele><time>2026-04-20T12:35:14.911Z</time></trkpt><trkpt lat="32.8798617" lon="9.9114633"><ele>343.0</ele><time>2026-04-20T12:35:15.911Z</time></trkpt><trkpt lat="32.879745" lon="9.9114117"><ele>343.0</ele><time>2026-04-20T12:35:16.911Z</time></trkpt><trkpt lat="32.8796283" lon="9.91137"><ele>343.0</ele><time>2026-04-20T12:35:17.911Z</time></trkpt><trkpt lat="32.8795083" lon="9.9113317"><ele>343.0</ele><time>2026-04-20T12:35:18.911Z</time></trkpt><trkpt lat="32.8793933" lon="9.9112767"><ele>343.0</ele><time>2026-04-20T12:35:19.911Z</time></trkpt><trkpt lat="32.879275" lon="9.9112317"><ele>342.4</ele><time>2026-04-20T12:35:20.911Z</time></trkpt><trkpt lat="32.879165" lon="9.9111817"><ele>341.79999999999995</ele><time>2026-04-20T12:35:21.911Z</time></trkpt><trkpt lat="32.879055" lon="9.9111383"><ele>341.2</ele><time>2026-04-20T12:35:22.911Z</time></trkpt><trkpt lat="32.8789517" lon="9.9110883"><ele>340.6</ele><time>2026-04-20T12:35:23.911Z</time></trkpt><trkpt lat="32.8788583" lon="9.9110367"><ele>340.0</ele><time>2026-04-20T12:35:24.911Z</time></trkpt><trkpt lat="32.8787733" lon="9.9109767"><ele>340.0</ele><time>2026-04-20T12:35:25.911Z</time></trkpt><trkpt lat="32.8786983" lon="9.910925"><ele>340.0</ele><time>2026-04-20T12:35:26.911Z</time></trkpt><trkpt lat="32.8786167" lon="9.9108717"><ele>340.0</ele><time>2026-04-20T12:35:27.911Z</time></trkpt><trkpt lat="32.87853" lon="9.9108167"><ele>340.0</ele><time>2026-04-20T12:35:28.911Z</time></trkpt><trkpt lat="32.8784383" lon="9.9107567"><ele>340.0</ele><time>2026-04-20T12:35:29.911Z</time></trkpt><trkpt lat="32.87835" lon="9.9106917"><ele>340.0</ele><time>2026-04-20T12:35:30.911Z</time></trkpt><trkpt lat="32.87826" lon="9.9106283"><ele>340.0</ele><time>2026-04-20T12:35:31.911Z</time></trkpt><trkpt lat="32.8781733" lon="9.9105583"><ele>340.0</ele><time>2026-04-20T12:35:32.911Z</time></trkpt><trkpt lat="32.8780833" lon="9.91049"><ele>340.0</ele><time>2026-04-20T12:35:33.911Z</time></trkpt><trkpt lat="32.8779917" lon="9.91042"><ele>340.0</ele><time>2026-04-20T12:35:34.911Z</time></trkpt><trkpt lat="32.8779033" lon="9.91035"><ele>340.0</ele><time>2026-04-20T12:35:35.911Z</time></trkpt><trkpt lat="32.8778117" lon="9.9102733"><ele>340.0</ele><time>2026-04-20T12:35:36.911Z</time></trkpt><trkpt lat="32.8777217" lon="9.9101983"><ele>340.0</ele><time>2026-04-20T12:35:37.911Z</time></trkpt><trkpt lat="32.8776333" lon="9.9101183"><ele>340.0</ele><time>2026-04-20T12:35:38.911Z</time></trkpt><trkpt lat="32.877535" lon="9.9100367"><ele>339.25</ele><time>2026-04-20T12:35:39.911Z</time></trkpt><trkpt lat="32.87744" lon="9.9099583"><ele>338.5</ele><time>2026-04-20T12:35:40.911Z</time></trkpt><trkpt lat="32.8773483" lon="9.90988"><ele>337.75</ele><time>2026-04-20T12:35:41.911Z</time></trkpt><trkpt lat="32.8772567" lon="9.90979"><ele>337.0</ele><time>2026-04-20T12:35:42.911Z</time></trkpt><trkpt lat="32.877165" lon="9.909705"><ele>337.0</ele><time>2026-04-20T12:35:43.911Z</time></trkpt><trkpt lat="32.87707" lon="9.9096233"><ele>337.0</ele><time>2026-04-20T12:35:44.911Z</time></trkpt><trkpt lat="32.8769783" lon="9.9095383"><ele>337.0</ele><time>2026-04-20T12:35:45.911Z</time></trkpt><trkpt lat="32.8768933" lon="9.9094467"><ele>337.0</ele><time>2026-04-20T12:35:46.911Z</time></trkpt><trkpt lat="32.8768083" lon="9.9093617"><ele>336.6</ele><time>2026-04-20T12:35:47.911Z</time></trkpt><trkpt lat="32.8767233" lon="9.909275"><ele>336.20000000000005</ele><time>2026-04-20T12:35:48.911Z</time></trkpt><trkpt lat="32.87664" lon="9.909195"><ele>335.8</ele><time>2026-04-20T12:35:49.911Z</time></trkpt><trkpt lat="32.8765633" lon="9.909115"><ele>335.4</ele><time>2026-04-20T12:35:50.911Z</time></trkpt><trkpt lat="32.8764883" lon="9.9090317"><ele>335.0</ele><time>2026-04-20T12:35:51.911Z</time></trkpt><trkpt lat="32.8764067" lon="9.9089533"><ele>334.75</ele><time>2026-04-20T12:35:52.911Z</time></trkpt><trkpt lat="32.87632" lon="9.9088733"><ele>334.5</ele><time>2026-04-20T12:35:53.911Z</time></trkpt><trkpt lat="32.876235" lon="9.9087883"><ele>334.25</ele><time>2026-04-20T12:35:54.911Z</time></trkpt><trkpt lat="32.876145" lon="9.908705"><ele>334.0</ele><time>2026-04-20T12:35:55.911Z</time></trkpt><trkpt lat="32.8760567" lon="9.9086117"><ele>334.0</ele><time>2026-04-20T12:35:56.911Z</time></trkpt><trkpt lat="32.8759667" lon="9.90853"><ele>334.0</ele><time>2026-04-20T12:35:57.911Z</time></trkpt><trkpt lat="32.875895" lon="9.908455"><ele>334.0</ele><time>2026-04-20T12:35:58.911Z</time></trkpt><trkpt lat="32.8758367" lon="9.9083933"><ele>334.0</ele><time>2026-04-20T12:35:59.911Z</time></trkpt><trkpt lat="32.8757867" lon="9.908325"><ele>334.0</ele><time>2026-04-20T12:36:00.911Z</time></trkpt><trkpt lat="32.875745" lon="9.908265"><ele>334.0</ele><time>2026-04-20T12:36:01.911Z</time></trkpt><trkpt lat="32.87566" lon="9.9081617"><ele>333.8333333333333</ele><time>2026-04-20T12:36:03.911Z</time></trkpt><trkpt lat="32.8755883" lon="9.9080817"><ele>333.66666666666663</ele><time>2026-04-20T12:36:05.911Z</time></trkpt><trkpt lat="32.8755383" lon="9.9080167"><ele>333.5</ele><time>2026-04-20T12:36:07.911Z</time></trkpt><trkpt lat="32.8754783" lon="9.90796"><ele>333.3333333333333</ele><time>2026-04-20T12:36:28.911Z</time></trkpt><trkpt lat="32.8754017" lon="9.90788"><ele>333.1666666666667</ele><time>2026-04-20T12:36:30.911Z</time></trkpt><trkpt lat="32.8753483" lon="9.90783"><ele>333.0</ele><time>2026-04-20T12:36:31.911Z</time></trkpt><trkpt lat="32.8752883" lon="9.9077717"><ele>333.0</ele><time>2026-04-20T12:36:32.911Z</time></trkpt><trkpt lat="32.8752233" lon="9.9077133"><ele>333.0</ele><time>2026-04-20T12:36:33.911Z</time></trkpt><trkpt lat="32.8751583" lon="9.90766"><ele>333.0</ele><time>2026-04-20T12:36:34.911Z</time></trkpt><trkpt lat="32.8750917" lon="9.9076067"><ele>333.0</ele><time>2026-04-20T12:36:35.911Z</time></trkpt><trkpt lat="32.875025" lon="9.9075583"><ele>333.0</ele><time>2026-04-20T12:36:36.911Z</time></trkpt><trkpt lat="32.8749667" lon="9.9075083"><ele>333.0</ele><time>2026-04-20T12:36:37.911Z</time></trkpt><trkpt lat="32.874905" lon="9.9074567"><ele>332.5</ele><time>2026-04-20T12:36:38.911Z</time></trkpt><trkpt lat="32.8748383" lon="9.9073933"><ele>332.0</ele><time>2026-04-20T12:36:39.911Z</time></trkpt><trkpt lat="32.8747833" lon="9.90733"><ele>331.5</ele><time>2026-04-20T12:36:40.911Z</time></trkpt><trkpt lat="32.8747267" lon="9.907275"><ele>331.0</ele><time>2026-04-20T12:36:41.911Z</time></trkpt><trkpt lat="32.8746767" lon="9.9072183"><ele>330.5</ele><time>2026-04-20T12:36:42.911Z</time></trkpt><trkpt lat="32.87462" lon="9.90716"><ele>330.0</ele><time>2026-04-20T12:36:43.911Z</time></trkpt><trkpt lat="32.8745667" lon="9.9070967"><ele>330.0</ele><time>2026-04-20T12:36:44.911Z</time></trkpt><trkpt lat="32.874505" lon="9.9070233"><ele>330.0</ele><time>2026-04-20T12:36:45.911Z</time></trkpt><trkpt lat="32.8744567" lon="9.9069417"><ele>330.0</ele><time>2026-04-20T12:36:46.911Z</time></trkpt><trkpt lat="32.8743933" lon="9.90688"><ele>330.0</ele><time>2026-04-20T12:36:47.911Z</time></trkpt><trkpt lat="32.87432" lon="9.9068317"><ele>330.0</ele><time>2026-04-20T12:36:48.911Z</time></trkpt><trkpt lat="32.8742433" lon="9.9067683"><ele>330.0</ele><time>2026-04-20T12:36:49.911Z</time></trkpt><trkpt lat="32.874175" lon="9.9066983"><ele>329.6</ele><time>2026-04-20T12:36:50.911Z</time></trkpt><trkpt lat="32.87411" lon="9.906615"><ele>329.2</ele><time>2026-04-20T12:36:51.911Z</time></trkpt><trkpt lat="32.874045" lon="9.90654"><ele>328.79999999999995</ele><time>2026-04-20T12:36:52.911Z</time></trkpt><trkpt lat="32.8739783" lon="9.9064733"><ele>328.4</ele><time>2026-04-20T12:36:53.911Z</time></trkpt><trkpt lat="32.8738983" lon="9.90642"><ele>328.0</ele><time>2026-04-20T12:36:54.911Z</time></trkpt><trkpt lat="32.8738183" lon="9.9063733"><ele>327.99999999999994</ele><time>2026-04-20T12:36:55.911Z</time></trkpt><trkpt lat="32.8737567" lon="9.90633"><ele>328.0</ele><time>2026-04-20T12:36:56.911Z</time></trkpt><trkpt lat="32.8736983" lon="9.9062967"><ele>328.0</ele><time>2026-04-20T12:36:57.911Z</time></trkpt><trkpt lat="32.8736417" lon="9.90626"><ele>328.0</ele><time>2026-04-20T12:36:58.911Z</time></trkpt><trkpt lat="32.8735833" lon="9.9062217"><ele>328.0</ele><time>2026-04-20T12:36:59.911Z</time></trkpt><trkpt lat="32.8735217" lon="9.9061833"><ele>327.99999999999994</ele><time>2026-04-20T12:37:00.911Z</time></trkpt><trkpt lat="32.873465" lon="9.906135"><ele>328.0</ele><time>2026-04-20T12:37:01.911Z</time></trkpt><trkpt lat="32.873405" lon="9.90609"><ele>328.16666666666663</ele><time>2026-04-20T12:37:02.911Z</time></trkpt><trkpt lat="32.87334" lon="9.9060417"><ele>328.3333333333333</ele><time>2026-04-20T12:37:03.911Z</time></trkpt><trkpt lat="32.8732683" lon="9.9059883"><ele>328.5</ele><time>2026-04-20T12:37:04.911Z</time></trkpt><trkpt lat="32.8731983" lon="9.905935"><ele>328.6666666666667</ele><time>2026-04-20T12:37:05.911Z</time></trkpt><trkpt lat="32.873125" lon="9.90588"><ele>328.83333333333337</ele><time>2026-04-20T12:37:06.911Z</time></trkpt><trkpt lat="32.873045" lon="9.9058333"><ele>329.0</ele><time>2026-04-20T12:37:07.911Z</time></trkpt><trkpt lat="32.872965" lon="9.90579"><ele>329.0</ele><time>2026-04-20T12:37:08.911Z</time></trkpt><trkpt lat="32.8728833" lon="9.9057333"><ele>329.0</ele><time>2026-04-20T12:37:09.911Z</time></trkpt><trkpt lat="32.872795" lon="9.9056783"><ele>329.0</ele><time>2026-04-20T12:37:10.911Z</time></trkpt><trkpt lat="32.872705" lon="9.9056167"><ele>329.0</ele><time>2026-04-20T12:37:11.911Z</time></trkpt><trkpt lat="32.87262" lon="9.9055583"><ele>329.0</ele><time>2026-04-20T12:37:12.911Z</time></trkpt><trkpt lat="32.872535" lon="9.9054967"><ele>328.79999999999995</ele><time>2026-04-20T12:37:13.911Z</time></trkpt><trkpt lat="32.87245" lon="9.9054317"><ele>328.59999999999997</ele><time>2026-04-20T12:37:14.911Z</time></trkpt><trkpt lat="32.87236" lon="9.90536"><ele>328.4</ele><time>2026-04-20T12:37:15.911Z</time></trkpt><trkpt lat="32.8722767" lon="9.9052783"><ele>328.2</ele><time>2026-04-20T12:37:16.911Z</time></trkpt><trkpt lat="32.8721933" lon="9.9051983"><ele>328.0</ele><time>2026-04-20T12:37:17.911Z</time></trkpt><trkpt lat="32.87211" lon="9.9050967"><ele>327.75</ele><time>2026-04-20T12:37:18.911Z</time></trkpt><trkpt lat="32.8720383" lon="9.904995"><ele>327.5</ele><time>2026-04-20T12:37:19.911Z</time></trkpt><trkpt lat="32.87197" lon="9.90489"><ele>327.25</ele><time>2026-04-20T12:37:20.911Z</time></trkpt><trkpt lat="32.8719017" lon="9.9047817"><ele>327.0</ele><time>2026-04-20T12:37:21.911Z</time></trkpt><trkpt lat="32.8718233" lon="9.904675"><ele>327.20000000000005</ele><time>2026-04-20T12:37:22.911Z</time></trkpt><trkpt lat="32.8717617" lon="9.9045733"><ele>327.4</ele><time>2026-04-20T12:37:23.911Z</time></trkpt><trkpt lat="32.8717067" lon="9.904475"><ele>327.6</ele><time>2026-04-20T12:37:24.911Z</time></trkpt><trkpt lat="32.8716617" lon="9.904395"><ele>327.79999999999995</ele><time>2026-04-20T12:37:25.911Z</time></trkpt><trkpt lat="32.8716133" lon="9.90432"><ele>328.0</ele><time>2026-04-20T12:37:26.911Z</time></trkpt><trkpt lat="32.87155" lon="9.9042483"><ele>328.4</ele><time>2026-04-20T12:37:27.911Z</time></trkpt><trkpt lat="32.8714817" lon="9.9041717"><ele>328.79999999999995</ele><time>2026-04-20T12:37:28.911Z</time></trkpt><trkpt lat="32.8714083" lon="9.9040917"><ele>329.2</ele><time>2026-04-20T12:37:29.911Z</time></trkpt><trkpt lat="32.8713383" lon="9.904"><ele>329.6</ele><time>2026-04-20T12:37:30.911Z</time></trkpt><trkpt lat="32.871265" lon="9.9039033"><ele>330.0</ele><time>2026-04-20T12:37:31.911Z</time></trkpt><trkpt lat="32.8711833" lon="9.9038133"><ele>330.0</ele><time>2026-04-20T12:37:32.911Z</time></trkpt><trkpt lat="32.8710983" lon="9.9037267"><ele>330.0</ele><time>2026-04-20T12:37:33.911Z</time></trkpt><trkpt lat="32.8710117" lon="9.903645"><ele>330.0</ele><time>2026-04-20T12:37:34.911Z</time></trkpt><trkpt lat="32.8709317" lon="9.9035433"><ele>330.0</ele><time>2026-04-20T12:37:35.911Z</time></trkpt><trkpt lat="32.8708517" lon="9.9034333"><ele>329.75</ele><time>2026-04-20T12:37:36.911Z</time></trkpt><trkpt lat="32.8707783" lon="9.9033217"><ele>329.5</ele><time>2026-04-20T12:37:37.911Z</time></trkpt><trkpt lat="32.8707067" lon="9.9032133"><ele>329.25</ele><time>2026-04-20T12:37:38.911Z</time></trkpt><trkpt lat="32.8706267" lon="9.9031"><ele>329.0</ele><time>2026-04-20T12:37:39.911Z</time></trkpt><trkpt lat="32.8705483" lon="9.9029917"><ele>329.0</ele><time>2026-04-20T12:37:40.911Z</time></trkpt><trkpt lat="32.8704617" lon="9.90289"><ele>329.0</ele><time>2026-04-20T12:37:41.911Z</time></trkpt><trkpt lat="32.8703783" lon="9.90279"><ele>329.0</ele><time>2026-04-20T12:37:42.911Z</time></trkpt><trkpt lat="32.8702933" lon="9.90268"><ele>329.0</ele><time>2026-04-20T12:37:43.911Z</time></trkpt><trkpt lat="32.8701983" lon="9.9025667"><ele>328.75</ele><time>2026-04-20T12:37:44.911Z</time></trkpt><trkpt lat="32.8701133" lon="9.90245"><ele>328.5</ele><time>2026-04-20T12:37:45.911Z</time></trkpt><trkpt lat="32.8700317" lon="9.9023283"><ele>328.25</ele><time>2026-04-20T12:37:46.911Z</time></trkpt><trkpt lat="32.8699567" lon="9.902205"><ele>328.0</ele><time>2026-04-20T12:37:47.911Z</time></trkpt><trkpt lat="32.8698917" lon="9.9020833"><ele>328.0</ele><time>2026-04-20T12:37:48.911Z</time></trkpt><trkpt lat="32.8698233" lon="9.901965"><ele>328.0</ele><time>2026-04-20T12:37:49.911Z</time></trkpt><trkpt lat="32.8697517" lon="9.90185"><ele>328.0</ele><time>2026-04-20T12:37:50.911Z</time></trkpt><trkpt lat="32.8696767" lon="9.9017333"><ele>328.0</ele><time>2026-04-20T12:37:51.911Z</time></trkpt><trkpt lat="32.8696067" lon="9.901615"><ele>328.0</ele><time>2026-04-20T12:37:52.911Z</time></trkpt><trkpt lat="32.86953" lon="9.9015033"><ele>328.0</ele><time>2026-04-20T12:37:53.911Z</time></trkpt><trkpt lat="32.8694517" lon="9.9013833"><ele>328.0</ele><time>2026-04-20T12:37:54.911Z</time></trkpt><trkpt lat="32.86937" lon="9.901265"><ele>328.0</ele><time>2026-04-20T12:37:55.911Z</time></trkpt><trkpt lat="32.8692867" lon="9.9011467"><ele>328.25</ele><time>2026-04-20T12:37:56.911Z</time></trkpt><trkpt lat="32.8691933" lon="9.9010333"><ele>328.5</ele><time>2026-04-20T12:37:57.911Z</time></trkpt><trkpt lat="32.8691117" lon="9.9009133"><ele>328.75</ele><time>2026-04-20T12:37:58.911Z</time></trkpt><trkpt lat="32.8690283" lon="9.9007917"><ele>329.0</ele><time>2026-04-20T12:37:59.911Z</time></trkpt><trkpt lat="32.868935" lon="9.9006883"><ele>329.0</ele><time>2026-04-20T12:38:00.911Z</time></trkpt><trkpt lat="32.868845" lon="9.900585"><ele>329.0</ele><time>2026-04-20T12:38:01.911Z</time></trkpt><trkpt lat="32.8687467" lon="9.900485"><ele>329.0</ele><time>2026-04-20T12:38:02.911Z</time></trkpt><trkpt lat="32.8686567" lon="9.9003817"><ele>329.0</ele><time>2026-04-20T12:38:03.911Z</time></trkpt><trkpt lat="32.8685767" lon="9.9002733"><ele>329.0</ele><time>2026-04-20T12:38:04.911Z</time></trkpt><trkpt lat="32.868495" lon="9.9001583"><ele>329.0</ele><time>2026-04-20T12:38:05.911Z</time></trkpt><trkpt lat="32.868405" lon="9.9000617"><ele>329.0</ele><time>2026-04-20T12:38:06.911Z</time></trkpt><trkpt lat="32.8683033" lon="9.89998"><ele>329.0</ele><time>2026-04-20T12:38:07.911Z</time></trkpt><trkpt lat="32.8681917" lon="9.8999083"><ele>329.0</ele><time>2026-04-20T12:38:08.911Z</time></trkpt><trkpt lat="32.8680817" lon="9.89984"><ele>329.0</ele><time>2026-04-20T12:38:09.911Z</time></trkpt><trkpt lat="32.8679867" lon="9.8997767"><ele>329.0</ele><time>2026-04-20T12:38:10.911Z</time></trkpt><trkpt lat="32.8679067" lon="9.8997033"><ele>329.0</ele><time>2026-04-20T12:38:11.91Z</time></trkpt><trkpt lat="32.8678283" lon="9.8996217"><ele>329.0</ele><time>2026-04-20T12:38:12.91Z</time></trkpt><trkpt lat="32.8677567" lon="9.8995283"><ele>329.0</ele><time>2026-04-20T12:38:13.91Z</time></trkpt><trkpt lat="32.86769" lon="9.899445"><ele>329.0</ele><time>2026-04-20T12:38:14.91Z</time></trkpt><trkpt lat="32.8676183" lon="9.89936"><ele>329.0</ele><time>2026-04-20T12:38:15.91Z</time></trkpt><trkpt lat="32.86754" lon="9.8992767"><ele>329.0</ele><time>2026-04-20T12:38:16.91Z</time></trkpt><trkpt lat="32.8674583" lon="9.8992017"><ele>329.0</ele><time>2026-04-20T12:38:17.91Z</time></trkpt><trkpt lat="32.8673717" lon="9.8991267"><ele>328.79999999999995</ele><time>2026-04-20T12:38:18.91Z</time></trkpt><trkpt lat="32.8672833" lon="9.899045"><ele>328.59999999999997</ele><time>2026-04-20T12:38:19.91Z</time></trkpt><trkpt lat="32.8672" lon="9.8989683"><ele>328.4</ele><time>2026-04-20T12:38:20.91Z</time></trkpt><trkpt lat="32.8671167" lon="9.8988867"><ele>328.2</ele><time>2026-04-20T12:38:21.91Z</time></trkpt><trkpt lat="32.8670417" lon="9.8988033"><ele>328.0</ele><time>2026-04-20T12:38:22.91Z</time></trkpt><trkpt lat="32.86697" lon="9.898725"><ele>328.0</ele><time>2026-04-20T12:38:23.91Z</time></trkpt><trkpt lat="32.8669033" lon="9.8986567"><ele>328.0</ele><time>2026-04-20T12:38:24.91Z</time></trkpt><trkpt lat="32.86684" lon="9.8986067"><ele>328.0</ele><time>2026-04-20T12:38:25.91Z</time></trkpt><trkpt lat="32.866775" lon="9.898565"><ele>328.0</ele><time>2026-04-20T12:38:26.91Z</time></trkpt><trkpt lat="32.8667067" lon="9.898525"><ele>328.0</ele><time>2026-04-20T12:38:27.91Z</time></trkpt><trkpt lat="32.8666417" lon="9.89848"><ele>328.0</ele><time>2026-04-20T12:38:28.91Z</time></trkpt><trkpt lat="32.8665817" lon="9.89843"><ele>328.0</ele><time>2026-04-20T12:38:29.91Z</time></trkpt><trkpt lat="32.86653" lon="9.898375"><ele>328.0</ele><time>2026-04-20T12:38:30.91Z</time></trkpt><trkpt lat="32.8664783" lon="9.8983183"><ele>328.0</ele><time>2026-04-20T12:38:31.91Z</time></trkpt><trkpt lat="32.8664117" lon="9.8982583"><ele>328.0</ele><time>2026-04-20T12:38:32.91Z</time></trkpt><trkpt lat="32.866345" lon="9.8982033"><ele>328.0</ele><time>2026-04-20T12:38:33.91Z</time></trkpt><trkpt lat="32.8662717" lon="9.89814"><ele>328.0</ele><time>2026-04-20T12:38:34.91Z</time></trkpt><trkpt lat="32.8662" lon="9.8980667"><ele>328.0</ele><time>2026-04-20T12:38:35.91Z</time></trkpt><trkpt lat="32.8661317" lon="9.8979933"><ele>328.0</ele><time>2026-04-20T12:38:36.91Z</time></trkpt><trkpt lat="32.86606" lon="9.897915"><ele>328.0</ele><time>2026-04-20T12:38:37.91Z</time></trkpt><trkpt lat="32.8659883" lon="9.89783"><ele>328.0</ele><time>2026-04-20T12:38:38.91Z</time></trkpt><trkpt lat="32.8659183" lon="9.89775"><ele>328.0</ele><time>2026-04-20T12:38:39.91Z</time></trkpt><trkpt lat="32.8658417" lon="9.89767"><ele>328.0</ele><time>2026-04-20T12:38:40.91Z</time></trkpt><trkpt lat="32.86577" lon="9.89759"><ele>328.0</ele><time>2026-04-20T12:38:41.91Z</time></trkpt><trkpt lat="32.8657017" lon="9.89751"><ele>328.0</ele><time>2026-04-20T12:38:42.91Z</time></trkpt><trkpt lat="32.8656467" lon="9.8974367"><ele>328.0</ele><time>2026-04-20T12:38:43.91Z</time></trkpt><trkpt lat="32.8656" lon="9.8973717"><ele>328.0</ele><time>2026-04-20T12:38:44.91Z</time></trkpt><trkpt lat="32.86555" lon="9.897235"><ele>328.0</ele><time>2026-04-20T12:38:46.91Z</time></trkpt><trkpt lat="32.86554" lon="9.8971533"><ele>328.0</ele><time>2026-04-20T12:38:47.91Z</time></trkpt><trkpt lat="32.8655417" lon="9.8970583"><ele>328.0</ele><time>2026-04-20T12:38:48.91Z</time></trkpt><trkpt lat="32.8655533" lon="9.8969617"><ele>328.0</ele><time>2026-04-20T12:38:49.91Z</time></trkpt><trkpt lat="32.86557" lon="9.89686"><ele>328.0</ele><time>2026-04-20T12:38:50.91Z</time></trkpt><trkpt lat="32.8656017" lon="9.8967567"><ele>328.0</ele><time>2026-04-20T12:38:51.91Z</time></trkpt><trkpt lat="32.86564" lon="9.896655"><ele>328.2</ele><time>2026-04-20T12:38:52.91Z</time></trkpt><trkpt lat="32.865675" lon="9.8965467"><ele>328.4</ele><time>2026-04-20T12:38:53.91Z</time></trkpt><trkpt lat="32.8657033" lon="9.8964383"><ele>328.59999999999997</ele><time>2026-04-20T12:38:54.91Z</time></trkpt><trkpt lat="32.8657217" lon="9.8963217"><ele>328.79999999999995</ele><time>2026-04-20T12:38:55.91Z</time></trkpt><trkpt lat="32.86573" lon="9.8962117"><ele>329.0</ele><time>2026-04-20T12:38:56.91Z</time></trkpt><trkpt lat="32.8657383" lon="9.8961067"><ele>329.0</ele><time>2026-04-20T12:38:57.91Z</time></trkpt><trkpt lat="32.865745" lon="9.8960083"><ele>329.0</ele><time>2026-04-20T12:38:58.91Z</time></trkpt><trkpt lat="32.8657517" lon="9.895925"><ele>329.0</ele><time>2026-04-20T12:38:59.91Z</time></trkpt><trkpt lat="32.8657617" lon="9.8957667"><ele>329.0</ele><time>2026-04-20T12:39:01.91Z</time></trkpt><trkpt lat="32.8657683" lon="9.8956717"><ele>329.0</ele><time>2026-04-20T12:39:02.91Z</time></trkpt><trkpt lat="32.8657833" lon="9.8955683"><ele>329.6666666666667</ele><time>2026-04-20T12:39:03.91Z</time></trkpt><trkpt lat="32.8657967" lon="9.8954567"><ele>330.33333333333337</ele><time>2026-04-20T12:39:04.91Z</time></trkpt><trkpt lat="32.86581" lon="9.8953433"><ele>331.0</ele><time>2026-04-20T12:39:05.91Z</time></trkpt><trkpt lat="32.8658233" lon="9.8952417"><ele>331.6666666666667</ele><time>2026-04-20T12:39:06.91Z</time></trkpt><trkpt lat="32.8658333" lon="9.8951567"><ele>332.3333333333333</ele><time>2026-04-20T12:39:07.91Z</time></trkpt><trkpt lat="32.8658317" lon="9.8950817"><ele>333.0</ele><time>2026-04-20T12:39:08.91Z</time></trkpt><trkpt lat="32.8658383" lon="9.89499"><ele>333.0</ele><time>2026-04-20T12:39:10.91Z</time></trkpt><trkpt lat="32.8658183" lon="9.8951"><ele>333.0</ele><time>2026-04-20T12:39:22.91Z</time></trkpt><trkpt lat="32.8658067" lon="9.8952417"><ele>333.0</ele><time>2026-04-20T12:39:24.91Z</time></trkpt><trkpt lat="32.8657967" lon="9.8953317"><ele>333.0</ele><time>2026-04-20T12:39:25.91Z</time></trkpt><trkpt lat="32.8657867" lon="9.895425"><ele>333.0</ele><time>2026-04-20T12:39:26.91Z</time></trkpt><trkpt lat="32.8657783" lon="9.8955317"><ele>333.0</ele><time>2026-04-20T12:39:27.91Z</time></trkpt><trkpt lat="32.86577" lon="9.8956367"><ele>333.0</ele><time>2026-04-20T12:39:28.91Z</time></trkpt><trkpt lat="32.8657567" lon="9.8957383"><ele>333.0</ele><time>2026-04-20T12:39:29.91Z</time></trkpt><trkpt lat="32.8657433" lon="9.8958283"><ele>333.0</ele><time>2026-04-20T12:39:30.911Z</time></trkpt><trkpt lat="32.8657117" lon="9.89594"><ele>333.0</ele><time>2026-04-20T12:39:32.91Z</time></trkpt><trkpt lat="32.8656433" lon="9.8959983"><ele>333.0</ele><time>2026-04-20T12:39:35.91Z</time></trkpt><trkpt lat="32.8655717" lon="9.8959517"><ele>333.0</ele><time>2026-04-20T12:39:37.91Z</time></trkpt><trkpt lat="32.86547" lon="9.8958467"><ele>333.0</ele><time>2026-04-20T12:39:39.91Z</time></trkpt><trkpt lat="32.8654017" lon="9.895795"><ele>333.0</ele><time>2026-04-20T12:39:40.91Z</time></trkpt><trkpt lat="32.865335" lon="9.89573"><ele>333.0</ele><time>2026-04-20T12:39:41.91Z</time></trkpt><trkpt lat="32.8652617" lon="9.8956483"><ele>333.0</ele><time>2026-04-20T12:39:42.91Z</time></trkpt><trkpt lat="32.8651917" lon="9.895565"><ele>333.0</ele><time>2026-04-20T12:39:43.91Z</time></trkpt><trkpt lat="32.8651183" lon="9.89548"><ele>333.0</ele><time>2026-04-20T12:39:44.91Z</time></trkpt><trkpt lat="32.8650433" lon="9.8953933"><ele>333.0</ele><time>2026-04-20T12:39:45.91Z</time></trkpt><trkpt lat="32.864965" lon="9.8953083"><ele>333.0</ele><time>2026-04-20T12:39:46.91Z</time></trkpt><trkpt lat="32.8648883" lon="9.8952167"><ele>333.0</ele><time>2026-04-20T12:39:47.91Z</time></trkpt><trkpt lat="32.8648183" lon="9.895115"><ele>333.5</ele><time>2026-04-20T12:39:48.91Z</time></trkpt><trkpt lat="32.8647383" lon="9.89502"><ele>334.0</ele><time>2026-04-20T12:39:49.91Z</time></trkpt><trkpt lat="32.8646533" lon="9.8949183"><ele>334.5</ele><time>2026-04-20T12:39:50.91Z</time></trkpt><trkpt lat="32.864565" lon="9.8948133"><ele>335.0</ele><time>2026-04-20T12:39:51.91Z</time></trkpt><trkpt lat="32.8644783" lon="9.894715"><ele>335.0</ele><time>2026-04-20T12:39:52.91Z</time></trkpt><trkpt lat="32.8643983" lon="9.894605"><ele>335.0</ele><time>2026-04-20T12:39:53.911Z</time></trkpt><trkpt lat="32.8643233" lon="9.8944833"><ele>335.0</ele><time>2026-04-20T12:39:54.91Z</time></trkpt><trkpt lat="32.8642633" lon="9.8943583"><ele>335.0</ele><time>2026-04-20T12:39:55.91Z</time></trkpt><trkpt lat="32.8642067" lon="9.8942317"><ele>336.0</ele><time>2026-04-20T12:39:56.91Z</time></trkpt><trkpt lat="32.864155" lon="9.8941067"><ele>337.0</ele><time>2026-04-20T12:39:57.91Z</time></trkpt><trkpt lat="32.8641033" lon="9.8939733"><ele>338.0</ele><time>2026-04-20T12:39:58.91Z</time></trkpt><trkpt lat="32.86405" lon="9.8938383"><ele>339.0</ele><time>2026-04-20T12:39:59.91Z</time></trkpt><trkpt lat="32.86399" lon="9.8937017"><ele>339.0</ele><time>2026-04-20T12:40:00.91Z</time></trkpt><trkpt lat="32.8639283" lon="9.8935567"><ele>339.0</ele><time>2026-04-20T12:40:01.91Z</time></trkpt><trkpt lat="32.8638683" lon="9.89341"><ele>339.0</ele><time>2026-04-20T12:40:02.91Z</time></trkpt><trkpt lat="32.8638133" lon="9.8932633"><ele>339.0</ele><time>2026-04-20T12:40:03.91Z</time></trkpt><trkpt lat="32.8637567" lon="9.893115"><ele>339.75</ele><time>2026-04-20T12:40:04.91Z</time></trkpt><trkpt lat="32.8636983" lon="9.8929717"><ele>340.5</ele><time>2026-04-20T12:40:05.91Z</time></trkpt><trkpt lat="32.8636433" lon="9.8928233"><ele>341.25</ele><time>2026-04-20T12:40:06.91Z</time></trkpt><trkpt lat="32.8635983" lon="9.89268"><ele>342.0</ele><time>2026-04-20T12:40:07.91Z</time></trkpt><trkpt lat="32.8635617" lon="9.8925417"><ele>342.0</ele><time>2026-04-20T12:40:08.91Z</time></trkpt><trkpt lat="32.8635217" lon="9.8924033"><ele>342.0</ele><time>2026-04-20T12:40:09.91Z</time></trkpt><trkpt lat="32.863485" lon="9.8922667"><ele>342.0</ele><time>2026-04-20T12:40:10.91Z</time></trkpt><trkpt lat="32.8634483" lon="9.8921317"><ele>342.0</ele><time>2026-04-20T12:40:11.91Z</time></trkpt><trkpt lat="32.8634167" lon="9.892"><ele>342.0</ele><time>2026-04-20T12:40:12.91Z</time></trkpt><trkpt lat="32.8633867" lon="9.89187"><ele>342.0</ele><time>2026-04-20T12:40:13.91Z</time></trkpt><trkpt lat="32.863355" lon="9.891735"><ele>342.0</ele><time>2026-04-20T12:40:14.91Z</time></trkpt><trkpt lat="32.86331" lon="9.8916"><ele>342.0</ele><time>2026-04-20T12:40:15.91Z</time></trkpt><trkpt lat="32.863255" lon="9.8914583"><ele>342.5</ele><time>2026-04-20T12:40:16.91Z</time></trkpt><trkpt lat="32.86319" lon="9.89132"><ele>343.0</ele><time>2026-04-20T12:40:17.91Z</time></trkpt><trkpt lat="32.8631183" lon="9.89118"><ele>343.5</ele><time>2026-04-20T12:40:18.91Z</time></trkpt><trkpt lat="32.86304" lon="9.8910333"><ele>344.0</ele><time>2026-04-20T12:40:19.91Z</time></trkpt><trkpt lat="32.8629617" lon="9.89089"><ele>344.0</ele><time>2026-04-20T12:40:20.91Z</time></trkpt><trkpt lat="32.8628833" lon="9.890745"><ele>344.0</ele><time>2026-04-20T12:40:21.91Z</time></trkpt><trkpt lat="32.86279" lon="9.8906067"><ele>344.0</ele><time>2026-04-20T12:40:22.91Z</time></trkpt><trkpt lat="32.8626933" lon="9.890475"><ele>344.0</ele><time>2026-04-20T12:40:23.91Z</time></trkpt><trkpt lat="32.86259" lon="9.890345"><ele>344.5</ele><time>2026-04-20T12:40:24.91Z</time></trkpt><trkpt lat="32.862485" lon="9.8902183"><ele>345.0</ele><time>2026-04-20T12:40:25.91Z</time></trkpt><trkpt lat="32.8623717" lon="9.8901"><ele>345.5</ele><time>2026-04-20T12:40:26.91Z</time></trkpt><trkpt lat="32.8622567" lon="9.8899883"><ele>346.0</ele><time>2026-04-20T12:40:27.91Z</time></trkpt><trkpt lat="32.8621367" lon="9.8898767"><ele>346.0</ele><time>2026-04-20T12:40:28.91Z</time></trkpt><trkpt lat="32.86202" lon="9.8897633"><ele>346.0</ele><time>2026-04-20T12:40:29.91Z</time></trkpt><trkpt lat="32.8619167" lon="9.8896417"><ele>346.0</ele><time>2026-04-20T12:40:30.91Z</time></trkpt><trkpt lat="32.861815" lon="9.8895133"><ele>346.0</ele><time>2026-04-20T12:40:31.91Z</time></trkpt><trkpt lat="32.8617083" lon="9.8893917"><ele>346.0</ele><time>2026-04-20T12:40:32.91Z</time></trkpt><trkpt lat="32.8616" lon="9.88929"><ele>346.0</ele><time>2026-04-20T12:40:33.91Z</time></trkpt><trkpt lat="32.8614967" lon="9.8891783"><ele>346.0</ele><time>2026-04-20T12:40:34.91Z</time></trkpt><trkpt lat="32.8614" lon="9.88906"><ele>346.0</ele><time>2026-04-20T12:40:35.91Z</time></trkpt><trkpt lat="32.86132" lon="9.8889217"><ele>345.75</ele><time>2026-04-20T12:40:36.91Z</time></trkpt><trkpt lat="32.8612483" lon="9.8887817"><ele>345.5</ele><time>2026-04-20T12:40:37.91Z</time></trkpt><trkpt lat="32.861175" lon="9.8886433"><ele>345.25</ele><time>2026-04-20T12:40:38.91Z</time></trkpt><trkpt lat="32.8611017" lon="9.8885117"><ele>345.0</ele><time>2026-04-20T12:40:39.91Z</time></trkpt><trkpt lat="32.8610217" lon="9.8883917"><ele>345.0</ele><time>2026-04-20T12:40:40.91Z</time></trkpt><trkpt lat="32.8609517" lon="9.8882683"><ele>345.0</ele><time>2026-04-20T12:40:41.91Z</time></trkpt><trkpt lat="32.8609083" lon="9.8881383"><ele>345.0</ele><time>2026-04-20T12:40:42.91Z</time></trkpt><trkpt lat="32.860885" lon="9.888005"><ele>345.0</ele><time>2026-04-20T12:40:43.91Z</time></trkpt><trkpt lat="32.86087" lon="9.887865"><ele>345.0</ele><time>2026-04-20T12:40:44.91Z</time></trkpt><trkpt lat="32.860865" lon="9.8877283"><ele>345.0</ele><time>2026-04-20T12:40:45.91Z</time></trkpt><trkpt lat="32.860865" lon="9.8875883"><ele>345.0</ele><time>2026-04-20T12:40:46.91Z</time></trkpt><trkpt lat="32.8608683" lon="9.8874517"><ele>345.0</ele><time>2026-04-20T12:40:47.91Z</time></trkpt><trkpt lat="32.8608783" lon="9.887315"><ele>345.0</ele><time>2026-04-20T12:40:48.91Z</time></trkpt><trkpt lat="32.86089" lon="9.8871733"><ele>345.0</ele><time>2026-04-20T12:40:49.91Z</time></trkpt><trkpt lat="32.860905" lon="9.88703"><ele>345.0</ele><time>2026-04-20T12:40:50.91Z</time></trkpt><trkpt lat="32.860905" lon="9.88688"><ele>345.0</ele><time>2026-04-20T12:40:51.91Z</time></trkpt><trkpt lat="32.860895" lon="9.8867367"><ele>345.25</ele><time>2026-04-20T12:40:52.91Z</time></trkpt><trkpt lat="32.8608817" lon="9.8865967"><ele>345.5</ele><time>2026-04-20T12:40:53.91Z</time></trkpt><trkpt lat="32.860865" lon="9.8864667"><ele>345.75</ele><time>2026-04-20T12:40:54.91Z</time></trkpt><trkpt lat="32.8608467" lon="9.8863333"><ele>346.0</ele><time>2026-04-20T12:40:55.91Z</time></trkpt><trkpt lat="32.8608367" lon="9.8862"><ele>346.0</ele><time>2026-04-20T12:40:56.91Z</time></trkpt><trkpt lat="32.8608367" lon="9.88606"><ele>346.0</ele><time>2026-04-20T12:40:57.91Z</time></trkpt><trkpt lat="32.860835" lon="9.8859183"><ele>346.0</ele><time>2026-04-20T12:40:58.91Z</time></trkpt><trkpt lat="32.8608317" lon="9.8857667"><ele>346.0</ele><time>2026-04-20T12:40:59.91Z</time></trkpt><trkpt lat="32.8608317" lon="9.8856183"><ele>345.75</ele><time>2026-04-20T12:41:00.91Z</time></trkpt><trkpt lat="32.8608333" lon="9.8854667"><ele>345.5</ele><time>2026-04-20T12:41:01.91Z</time></trkpt><trkpt lat="32.8608317" lon="9.8853233"><ele>345.25</ele><time>2026-04-20T12:41:02.91Z</time></trkpt><trkpt lat="32.8608333" lon="9.8851817"><ele>345.0</ele><time>2026-04-20T12:41:03.91Z</time></trkpt><trkpt lat="32.8608317" lon="9.8850417"><ele>344.5</ele><time>2026-04-20T12:41:04.91Z</time></trkpt><trkpt lat="32.8608417" lon="9.8848933"><ele>344.0</ele><time>2026-04-20T12:41:05.91Z</time></trkpt><trkpt lat="32.860845" lon="9.8847433"><ele>343.5</ele><time>2026-04-20T12:41:06.91Z</time></trkpt><trkpt lat="32.860845" lon="9.8845917"><ele>343.0</ele><time>2026-04-20T12:41:07.91Z</time></trkpt><trkpt lat="32.8608433" lon="9.8844383"><ele>343.0</ele><time>2026-04-20T12:41:08.91Z</time></trkpt><trkpt lat="32.860845" lon="9.8842933"><ele>343.0</ele><time>2026-04-20T12:41:09.91Z</time></trkpt><trkpt lat="32.8608417" lon="9.8841417"><ele>343.0</ele><time>2026-04-20T12:41:10.91Z</time></trkpt><trkpt lat="32.86084" lon="9.883995"><ele>343.0</ele><time>2026-04-20T12:41:11.91Z</time></trkpt><trkpt lat="32.8608367" lon="9.8838417"><ele>343.0</ele><time>2026-04-20T12:41:12.91Z</time></trkpt><trkpt lat="32.8608333" lon="9.8836883"><ele>343.0</ele><time>2026-04-20T12:41:13.91Z</time></trkpt><trkpt lat="32.86083" lon="9.8835367"><ele>343.0</ele><time>2026-04-20T12:41:14.91Z</time></trkpt><trkpt lat="32.8608283" lon="9.883385"><ele>343.0</ele><time>2026-04-20T12:41:15.91Z</time></trkpt><trkpt lat="32.86083" lon="9.8832367"><ele>342.75</ele><time>2026-04-20T12:41:16.91Z</time></trkpt><trkpt lat="32.8608267" lon="9.8830833"><ele>342.5</ele><time>2026-04-20T12:41:17.91Z</time></trkpt><trkpt lat="32.860825" lon="9.8829433"><ele>342.25</ele><time>2026-04-20T12:41:18.91Z</time></trkpt><trkpt lat="32.86082" lon="9.8827933"><ele>342.0</ele><time>2026-04-20T12:41:19.91Z</time></trkpt><trkpt lat="32.8608167" lon="9.882645"><ele>341.8</ele><time>2026-04-20T12:41:20.91Z</time></trkpt><trkpt lat="32.8608067" lon="9.8825083"><ele>341.6</ele><time>2026-04-20T12:41:21.91Z</time></trkpt><trkpt lat="32.8608033" lon="9.88238"><ele>341.40000000000003</ele><time>2026-04-20T12:41:22.91Z</time></trkpt><trkpt lat="32.8607983" lon="9.8822617"><ele>341.20000000000005</ele><time>2026-04-20T12:41:23.91Z</time></trkpt><trkpt lat="32.8607967" lon="9.8821467"><ele>341.0</ele><time>2026-04-20T12:41:24.91Z</time></trkpt><trkpt lat="32.860795" lon="9.8820217"><ele>341.0</ele><time>2026-04-20T12:41:25.91Z</time></trkpt><trkpt lat="32.8607933" lon="9.8818783"><ele>341.0</ele><time>2026-04-20T12:41:26.91Z</time></trkpt><trkpt lat="32.86079" lon="9.881735"><ele>341.0</ele><time>2026-04-20T12:41:27.91Z</time></trkpt><trkpt lat="32.8607917" lon="9.8815933"><ele>341.0</ele><time>2026-04-20T12:41:28.91Z</time></trkpt><trkpt lat="32.8607933" lon="9.8814583"><ele>340.8</ele><time>2026-04-20T12:41:29.91Z</time></trkpt><trkpt lat="32.8607967" lon="9.881325"><ele>340.6</ele><time>2026-04-20T12:41:30.91Z</time></trkpt><trkpt lat="32.8607917" lon="9.8812033"><ele>340.4</ele><time>2026-04-20T12:41:31.91Z</time></trkpt><trkpt lat="32.86078" lon="9.88108"><ele>340.2</ele><time>2026-04-20T12:41:32.91Z</time></trkpt><trkpt lat="32.8607733" lon="9.8809533"><ele>340.0</ele><time>2026-04-20T12:41:33.91Z</time></trkpt><trkpt lat="32.8607667" lon="9.8808267"><ele>340.0</ele><time>2026-04-20T12:41:34.91Z</time></trkpt><trkpt lat="32.8607683" lon="9.8807"><ele>340.0</ele><time>2026-04-20T12:41:35.91Z</time></trkpt><trkpt lat="32.86077" lon="9.88056"><ele>340.0</ele><time>2026-04-20T12:41:36.91Z</time></trkpt><trkpt lat="32.8607733" lon="9.88042"><ele>340.0</ele><time>2026-04-20T12:41:37.91Z</time></trkpt><trkpt lat="32.8607817" lon="9.8802833"><ele>340.0</ele><time>2026-04-20T12:41:38.91Z</time></trkpt><trkpt lat="32.8607917" lon="9.8801483"><ele>340.0</ele><time>2026-04-20T12:41:39.91Z</time></trkpt><trkpt lat="32.8607917" lon="9.8800133"><ele>340.0</ele><time>2026-04-20T12:41:40.91Z</time></trkpt><trkpt lat="32.86079" lon="9.879885"><ele>340.0</ele><time>2026-04-20T12:41:41.91Z</time></trkpt><trkpt lat="32.8607867" lon="9.879755"><ele>340.0</ele><time>2026-04-20T12:41:42.91Z</time></trkpt><trkpt lat="32.8607783" lon="9.8796183"><ele>340.0</ele><time>2026-04-20T12:41:43.91Z</time></trkpt><trkpt lat="32.860775" lon="9.8794667"><ele>340.0</ele><time>2026-04-20T12:41:44.91Z</time></trkpt><trkpt lat="32.860775" lon="9.8793167"><ele>340.0</ele><time>2026-04-20T12:41:45.91Z</time></trkpt><trkpt lat="32.8607733" lon="9.8791733"><ele>340.0</ele><time>2026-04-20T12:41:46.91Z</time></trkpt><trkpt lat="32.8607767" lon="9.879025"><ele>339.75</ele><time>2026-04-20T12:41:47.91Z</time></trkpt><trkpt lat="32.8607767" lon="9.8788767"><ele>339.5</ele><time>2026-04-20T12:41:48.91Z</time></trkpt><trkpt lat="32.8607733" lon="9.878725"><ele>339.25</ele><time>2026-04-20T12:41:49.909Z</time></trkpt><trkpt lat="32.8607617" lon="9.878575"><ele>339.0</ele><time>2026-04-20T12:41:50.909Z</time></trkpt><trkpt lat="32.86075" lon="9.8784267"><ele>338.75</ele><time>2026-04-20T12:41:51.909Z</time></trkpt><trkpt lat="32.860735" lon="9.8782817"><ele>338.5</ele><time>2026-04-20T12:41:52.909Z</time></trkpt><trkpt lat="32.860725" lon="9.8781367"><ele>338.25</ele><time>2026-04-20T12:41:53.909Z</time></trkpt><trkpt lat="32.86071" lon="9.8779967"><ele>338.0</ele><time>2026-04-20T12:41:54.909Z</time></trkpt><trkpt lat="32.8607017" lon="9.8778583"><ele>338.0</ele><time>2026-04-20T12:41:55.909Z</time></trkpt><trkpt lat="32.86069" lon="9.877715"><ele>338.0</ele><time>2026-04-20T12:41:56.909Z</time></trkpt><trkpt lat="32.860675" lon="9.8775667"><ele>338.0</ele><time>2026-04-20T12:41:57.909Z</time></trkpt><trkpt lat="32.86066" lon="9.8774217"><ele>338.0</ele><time>2026-04-20T12:41:58.909Z</time></trkpt><trkpt lat="32.860645" lon="9.8772783"><ele>337.75</ele><time>2026-04-20T12:41:59.909Z</time></trkpt><trkpt lat="32.8606333" lon="9.8771383"><ele>337.5</ele><time>2026-04-20T12:42:00.909Z</time></trkpt><trkpt lat="32.8606167" lon="9.87699"><ele>337.25</ele><time>2026-04-20T12:42:01.909Z</time></trkpt><trkpt lat="32.8606133" lon="9.876845"><ele>337.0</ele><time>2026-04-20T12:42:02.909Z</time></trkpt><trkpt lat="32.8606083" lon="9.8766967"><ele>337.0</ele><time>2026-04-20T12:42:03.909Z</time></trkpt><trkpt lat="32.8606033" lon="9.8765383"><ele>337.0</ele><time>2026-04-20T12:42:04.909Z</time></trkpt><trkpt lat="32.8605983" lon="9.8763817"><ele>337.0</ele><time>2026-04-20T12:42:05.909Z</time></trkpt><trkpt lat="32.8605933" lon="9.8762217"><ele>337.0</ele><time>2026-04-20T12:42:06.909Z</time></trkpt><trkpt lat="32.8605883" lon="9.8760633"><ele>336.5</ele><time>2026-04-20T12:42:07.909Z</time></trkpt><trkpt lat="32.86058" lon="9.8759"><ele>336.0</ele><time>2026-04-20T12:42:08.909Z</time></trkpt><trkpt lat="32.860575" lon="9.875735"><ele>335.5</ele><time>2026-04-20T12:42:09.909Z</time></trkpt><trkpt lat="32.8605717" lon="9.8755717"><ele>335.0</ele><time>2026-04-20T12:42:10.909Z</time></trkpt><trkpt lat="32.86057" lon="9.87541"><ele>335.0</ele><time>2026-04-20T12:42:11.909Z</time></trkpt><trkpt lat="32.86057" lon="9.87525"><ele>335.0</ele><time>2026-04-20T12:42:12.909Z</time></trkpt><trkpt lat="32.86057" lon="9.8750883"><ele>335.0</ele><time>2026-04-20T12:42:13.909Z</time></trkpt><trkpt lat="32.8605683" lon="9.87493"><ele>335.0</ele><time>2026-04-20T12:42:14.909Z</time></trkpt><trkpt lat="32.860565" lon="9.8747783"><ele>334.5</ele><time>2026-04-20T12:42:15.909Z</time></trkpt><trkpt lat="32.8605617" lon="9.8746133"><ele>334.0</ele><time>2026-04-20T12:42:16.909Z</time></trkpt><trkpt lat="32.8605617" lon="9.8744433"><ele>333.5</ele><time>2026-04-20T12:42:17.909Z</time></trkpt><trkpt lat="32.8605567" lon="9.8742767"><ele>333.0</ele><time>2026-04-20T12:42:18.909Z</time></trkpt><trkpt lat="32.86055" lon="9.8741117"><ele>332.75</ele><time>2026-04-20T12:42:19.909Z</time></trkpt><trkpt lat="32.8605433" lon="9.873945"><ele>332.5</ele><time>2026-04-20T12:42:20.909Z</time></trkpt><trkpt lat="32.8605367" lon="9.8737667"><ele>332.25</ele><time>2026-04-20T12:42:21.909Z</time></trkpt><trkpt lat="32.8605333" lon="9.8735917"><ele>332.0</ele><time>2026-04-20T12:42:22.909Z</time></trkpt><trkpt lat="32.8605217" lon="9.8734117"><ele>331.75</ele><time>2026-04-20T12:42:23.909Z</time></trkpt><trkpt lat="32.8605067" lon="9.873235"><ele>331.5</ele><time>2026-04-20T12:42:24.909Z</time></trkpt><trkpt lat="32.86049" lon="9.8730683"><ele>331.25</ele><time>2026-04-20T12:42:25.909Z</time></trkpt><trkpt lat="32.86048" lon="9.8728933"><ele>331.0</ele><time>2026-04-20T12:42:26.909Z</time></trkpt><trkpt lat="32.8604767" lon="9.8727167"><ele>331.0</ele><time>2026-04-20T12:42:27.909Z</time></trkpt><trkpt lat="32.8604783" lon="9.8725433"><ele>331.0</ele><time>2026-04-20T12:42:28.909Z</time></trkpt><trkpt lat="32.860475" lon="9.8723717"><ele>331.0</ele><time>2026-04-20T12:42:29.909Z</time></trkpt><trkpt lat="32.8604717" lon="9.8721933"><ele>331.0</ele><time>2026-04-20T12:42:30.909Z</time></trkpt><trkpt lat="32.8604667" lon="9.872005"><ele>331.0</ele><time>2026-04-20T12:42:31.909Z</time></trkpt><trkpt lat="32.8604567" lon="9.871825"><ele>331.0</ele><time>2026-04-20T12:42:32.909Z</time></trkpt><trkpt lat="32.8604517" lon="9.87164"><ele>331.0</ele><time>2026-04-20T12:42:33.909Z</time></trkpt><trkpt lat="32.860445" lon="9.8714583"><ele>330.3333333333333</ele><time>2026-04-20T12:42:34.909Z</time></trkpt><trkpt lat="32.86044" lon="9.8712817"><ele>329.6666666666667</ele><time>2026-04-20T12:42:35.909Z</time></trkpt><trkpt lat="32.8604367" lon="9.8711033"><ele>329.0</ele><time>2026-04-20T12:42:36.909Z</time></trkpt><trkpt lat="32.8604283" lon="9.8709167"><ele>328.75</ele><time>2026-04-20T12:42:37.909Z</time></trkpt><trkpt lat="32.8604183" lon="9.87074"><ele>328.5</ele><time>2026-04-20T12:42:38.909Z</time></trkpt><trkpt lat="32.86042" lon="9.8705617"><ele>328.25</ele><time>2026-04-20T12:42:39.909Z</time></trkpt><trkpt lat="32.860415" lon="9.8703833"><ele>328.0</ele><time>2026-04-20T12:42:40.909Z</time></trkpt><trkpt lat="32.860405" lon="9.8702017"><ele>328.0</ele><time>2026-04-20T12:42:41.909Z</time></trkpt><trkpt lat="32.8603967" lon="9.870025"><ele>328.0</ele><time>2026-04-20T12:42:42.909Z</time></trkpt><trkpt lat="32.860395" lon="9.8698633"><ele>328.0</ele><time>2026-04-20T12:42:43.909Z</time></trkpt><trkpt lat="32.8603867" lon="9.86972"><ele>328.0</ele><time>2026-04-20T12:42:44.909Z</time></trkpt><trkpt lat="32.8603817" lon="9.8695983"><ele>328.0</ele><time>2026-04-20T12:42:45.909Z</time></trkpt><trkpt lat="32.8603767" lon="9.8694817"><ele>328.0</ele><time>2026-04-20T12:42:46.909Z</time></trkpt><trkpt lat="32.8603733" lon="9.8693667"><ele>328.0</ele><time>2026-04-20T12:42:47.909Z</time></trkpt><trkpt lat="32.8603717" lon="9.8692517"><ele>328.0</ele><time>2026-04-20T12:42:48.909Z</time></trkpt><trkpt lat="32.8603633" lon="9.8691367"><ele>328.0</ele><time>2026-04-20T12:42:49.909Z</time></trkpt><trkpt lat="32.8603533" lon="9.8690217"><ele>327.25</ele><time>2026-04-20T12:42:50.909Z</time></trkpt><trkpt lat="32.86036" lon="9.8688933"><ele>326.5</ele><time>2026-04-20T12:42:51.909Z</time></trkpt><trkpt lat="32.86036" lon="9.86876"><ele>325.75</ele><time>2026-04-20T12:42:52.909Z</time></trkpt><trkpt lat="32.8603683" lon="9.8686183"><ele>325.0</ele><time>2026-04-20T12:42:53.909Z</time></trkpt><trkpt lat="32.8603783" lon="9.8684733"><ele>324.75</ele><time>2026-04-20T12:42:54.909Z</time></trkpt><trkpt lat="32.8603767" lon="9.868325"><ele>324.5</ele><time>2026-04-20T12:42:55.909Z</time></trkpt><trkpt lat="32.8603783" lon="9.8681767"><ele>324.25</ele><time>2026-04-20T12:42:56.909Z</time></trkpt><trkpt lat="32.8603783" lon="9.8680283"><ele>324.0</ele><time>2026-04-20T12:42:57.909Z</time></trkpt><trkpt lat="32.8603767" lon="9.8678817"><ele>324.0</ele><time>2026-04-20T12:42:58.909Z</time></trkpt><trkpt lat="32.8603733" lon="9.8677333"><ele>324.0</ele><time>2026-04-20T12:42:59.909Z</time></trkpt><trkpt lat="32.86037" lon="9.867585"><ele>324.0</ele><time>2026-04-20T12:43:00.909Z</time></trkpt><trkpt lat="32.86037" lon="9.8674417"><ele>324.0</ele><time>2026-04-20T12:43:01.909Z</time></trkpt><trkpt lat="32.8603583" lon="9.8672933"><ele>324.0</ele><time>2026-04-20T12:43:02.909Z</time></trkpt><trkpt lat="32.8603483" lon="9.8671467"><ele>324.0</ele><time>2026-04-20T12:43:03.909Z</time></trkpt><trkpt lat="32.8603267" lon="9.867"><ele>324.0</ele><time>2026-04-20T12:43:04.909Z</time></trkpt><trkpt lat="32.86031" lon="9.8668367"><ele>324.0</ele><time>2026-04-20T12:43:05.909Z</time></trkpt><trkpt lat="32.8602867" lon="9.866675"><ele>323.75</ele><time>2026-04-20T12:43:06.909Z</time></trkpt><trkpt lat="32.8602683" lon="9.866515"><ele>323.5</ele><time>2026-04-20T12:43:07.909Z</time></trkpt><trkpt lat="32.8602517" lon="9.8663533"><ele>323.25</ele><time>2026-04-20T12:43:08.909Z</time></trkpt><trkpt lat="32.8602433" lon="9.8661833"><ele>323.0</ele><time>2026-04-20T12:43:09.909Z</time></trkpt><trkpt lat="32.8602467" lon="9.8660133"><ele>323.0</ele><time>2026-04-20T12:43:10.909Z</time></trkpt><trkpt lat="32.8602517" lon="9.8658283"><ele>323.0</ele><time>2026-04-20T12:43:11.909Z</time></trkpt><trkpt lat="32.8602533" lon="9.8656533"><ele>323.0</ele><time>2026-04-20T12:43:12.909Z</time></trkpt><trkpt lat="32.8602467" lon="9.8654667"><ele>323.0</ele><time>2026-04-20T12:43:13.909Z</time></trkpt><trkpt lat="32.86025" lon="9.8652817"><ele>323.0</ele><time>2026-04-20T12:43:14.909Z</time></trkpt><trkpt lat="32.860255" lon="9.865095"><ele>323.0</ele><time>2026-04-20T12:43:15.909Z</time></trkpt><trkpt lat="32.860265" lon="9.8649183"><ele>322.75</ele><time>2026-04-20T12:43:16.909Z</time></trkpt><trkpt lat="32.8602633" lon="9.8647433"><ele>322.5</ele><time>2026-04-20T12:43:17.909Z</time></trkpt><trkpt lat="32.8602667" lon="9.864565"><ele>322.25</ele><time>2026-04-20T12:43:18.909Z</time></trkpt><trkpt lat="32.86027" lon="9.8644017"><ele>322.0</ele><time>2026-04-20T12:43:19.909Z</time></trkpt><trkpt lat="32.86027" lon="9.8642683"><ele>321.8</ele><time>2026-04-20T12:43:20.909Z</time></trkpt><trkpt lat="32.86027" lon="9.8641583"><ele>321.6</ele><time>2026-04-20T12:43:21.909Z</time></trkpt><trkpt lat="32.8602717" lon="9.8640617"><ele>321.40000000000003</ele><time>2026-04-20T12:43:22.909Z</time></trkpt><trkpt lat="32.8602717" lon="9.86395"><ele>321.20000000000005</ele><time>2026-04-20T12:43:23.909Z</time></trkpt><trkpt lat="32.86027" lon="9.8638233"><ele>321.0</ele><time>2026-04-20T12:43:24.909Z</time></trkpt><trkpt lat="32.86027" lon="9.8637017"><ele>321.0</ele><time>2026-04-20T12:43:25.909Z</time></trkpt><trkpt lat="32.860275" lon="9.8635733"><ele>321.0</ele><time>2026-04-20T12:43:26.909Z</time></trkpt><trkpt lat="32.8602733" lon="9.86344"><ele>321.0</ele><time>2026-04-20T12:43:27.909Z</time></trkpt><trkpt lat="32.8602717" lon="9.863295"><ele>321.0</ele><time>2026-04-20T12:43:28.909Z</time></trkpt><trkpt lat="32.8602733" lon="9.863145"><ele>320.5</ele><time>2026-04-20T12:43:29.909Z</time></trkpt><trkpt lat="32.8602667" lon="9.8629967"><ele>320.0</ele><time>2026-04-20T12:43:30.909Z</time></trkpt><trkpt lat="32.8602617" lon="9.8628417"><ele>319.5</ele><time>2026-04-20T12:43:31.909Z</time></trkpt><trkpt lat="32.8602517" lon="9.8626917"><ele>319.0</ele><time>2026-04-20T12:43:32.909Z</time></trkpt><trkpt lat="32.860255" lon="9.8625467"><ele>318.75</ele><time>2026-04-20T12:43:33.909Z</time></trkpt><trkpt lat="32.8602633" lon="9.862405"><ele>318.5</ele><time>2026-04-20T12:43:34.909Z</time></trkpt><trkpt lat="32.8602667" lon="9.86226"><ele>318.25</ele><time>2026-04-20T12:43:35.909Z</time></trkpt><trkpt lat="32.8602667" lon="9.8621217"><ele>318.0</ele><time>2026-04-20T12:43:36.909Z</time></trkpt><trkpt lat="32.860265" lon="9.8619767"><ele>318.0</ele><time>2026-04-20T12:43:37.909Z</time></trkpt><trkpt lat="32.8602633" lon="9.86183"><ele>318.0</ele><time>2026-04-20T12:43:38.909Z</time></trkpt><trkpt lat="32.8602633" lon="9.8616783"><ele>318.0</ele><time>2026-04-20T12:43:39.909Z</time></trkpt><trkpt lat="32.86026" lon="9.8615283"><ele>318.0</ele><time>2026-04-20T12:43:40.909Z</time></trkpt><trkpt lat="32.860255" lon="9.86138"><ele>318.25</ele><time>2026-04-20T12:43:41.909Z</time></trkpt><trkpt lat="32.860255" lon="9.86123"><ele>318.5</ele><time>2026-04-20T12:43:42.909Z</time></trkpt><trkpt lat="32.8602517" lon="9.8610767"><ele>318.75</ele><time>2026-04-20T12:43:43.909Z</time></trkpt><trkpt lat="32.8602517" lon="9.8609167"><ele>319.0</ele><time>2026-04-20T12:43:44.909Z</time></trkpt><trkpt lat="32.8602517" lon="9.8607633"><ele>319.5</ele><time>2026-04-20T12:43:45.909Z</time></trkpt><trkpt lat="32.8602533" lon="9.8606067"><ele>320.0</ele><time>2026-04-20T12:43:46.909Z</time></trkpt><trkpt lat="32.860255" lon="9.8604617"><ele>320.5</ele><time>2026-04-20T12:43:47.909Z</time></trkpt><trkpt lat="32.860255" lon="9.8603083"><ele>321.0</ele><time>2026-04-20T12:43:48.909Z</time></trkpt><trkpt lat="32.860255" lon="9.8601767"><ele>321.25</ele><time>2026-04-20T12:43:49.909Z</time></trkpt><trkpt lat="32.8602483" lon="9.8600367"><ele>321.5</ele><time>2026-04-20T12:43:50.909Z</time></trkpt><trkpt lat="32.8602433" lon="9.859895"><ele>321.75</ele><time>2026-04-20T12:43:51.909Z</time></trkpt><trkpt lat="32.8602367" lon="9.8597517"><ele>322.0</ele><time>2026-04-20T12:43:52.909Z</time></trkpt><trkpt lat="32.8602333" lon="9.8596017"><ele>322.0</ele><time>2026-04-20T12:43:53.909Z</time></trkpt><trkpt lat="32.86023" lon="9.8594433"><ele>322.0</ele><time>2026-04-20T12:43:54.909Z</time></trkpt><trkpt lat="32.8602317" lon="9.8592917"><ele>322.0</ele><time>2026-04-20T12:43:55.909Z</time></trkpt><trkpt lat="32.8602417" lon="9.8591617"><ele>322.0</ele><time>2026-04-20T12:43:56.909Z</time></trkpt><trkpt lat="32.8602417" lon="9.8590367"><ele>321.8</ele><time>2026-04-20T12:43:57.909Z</time></trkpt><trkpt lat="32.86024" lon="9.85891"><ele>321.6</ele><time>2026-04-20T12:43:58.909Z</time></trkpt><trkpt lat="32.86024" lon="9.858785"><ele>321.40000000000003</ele><time>2026-04-20T12:43:59.909Z</time></trkpt><trkpt lat="32.8602383" lon="9.8586583"><ele>321.20000000000005</ele><time>2026-04-20T12:44:00.909Z</time></trkpt><trkpt lat="32.8602383" lon="9.8585167"><ele>321.0</ele><time>2026-04-20T12:44:01.909Z</time></trkpt><trkpt lat="32.86023" lon="9.8583733"><ele>321.0</ele><time>2026-04-20T12:44:02.909Z</time></trkpt><trkpt lat="32.8602233" lon="9.85823"><ele>321.0</ele><time>2026-04-20T12:44:03.909Z</time></trkpt><trkpt lat="32.8602233" lon="9.8580817"><ele>321.0</ele><time>2026-04-20T12:44:04.909Z</time></trkpt><trkpt lat="32.86022" lon="9.8579317"><ele>321.0</ele><time>2026-04-20T12:44:05.909Z</time></trkpt><trkpt lat="32.86022" lon="9.8577767"><ele>321.0</ele><time>2026-04-20T12:44:06.909Z</time></trkpt><trkpt lat="32.8602183" lon="9.8576267"><ele>321.0</ele><time>2026-04-20T12:44:07.909Z</time></trkpt><trkpt lat="32.8602183" lon="9.85748"><ele>321.0</ele><time>2026-04-20T12:44:08.909Z</time></trkpt><trkpt lat="32.8602167" lon="9.8573267"><ele>321.0</ele><time>2026-04-20T12:44:09.909Z</time></trkpt><trkpt lat="32.8602117" lon="9.8571717"><ele>321.0</ele><time>2026-04-20T12:44:10.909Z</time></trkpt><trkpt lat="32.8602083" lon="9.8570167"><ele>321.0</ele><time>2026-04-20T12:44:11.909Z</time></trkpt><trkpt lat="32.8602033" lon="9.8568633"><ele>321.0</ele><time>2026-04-20T12:44:12.909Z</time></trkpt><trkpt lat="32.8602017" lon="9.8567033"><ele>321.0</ele><time>2026-04-20T12:44:13.909Z</time></trkpt><trkpt lat="32.8601967" lon="9.8565533"><ele>321.0</ele><time>2026-04-20T12:44:14.909Z</time></trkpt><trkpt lat="32.8601933" lon="9.8563967"><ele>321.0</ele><time>2026-04-20T12:44:15.909Z</time></trkpt><trkpt lat="32.8601883" lon="9.8562283"><ele>321.0</ele><time>2026-04-20T12:44:16.909Z</time></trkpt><trkpt lat="32.86019" lon="9.8560833"><ele>321.0</ele><time>2026-04-20T12:44:17.909Z</time></trkpt><trkpt lat="32.86019" lon="9.8559567"><ele>320.8333333333333</ele><time>2026-04-20T12:44:18.909Z</time></trkpt><trkpt lat="32.8601917" lon="9.85585"><ele>320.6666666666667</ele><time>2026-04-20T12:44:19.909Z</time></trkpt><trkpt lat="32.8602" lon="9.8557517"><ele>320.5</ele><time>2026-04-20T12:44:20.909Z</time></trkpt><trkpt lat="32.8602017" lon="9.8556633"><ele>320.33333333333337</ele><time>2026-04-20T12:44:21.909Z</time></trkpt><trkpt lat="32.8602083" lon="9.8555267"><ele>320.1666666666667</ele><time>2026-04-20T12:44:23.909Z</time></trkpt><trkpt lat="32.8602167" lon="9.8554333"><ele>320.0</ele><time>2026-04-20T12:44:25.909Z</time></trkpt><trkpt lat="32.8602133" lon="9.8553583"><ele>320.0</ele><time>2026-04-20T12:44:44.909Z</time></trkpt><trkpt lat="32.8602067" lon="9.8552433"><ele>320.0</ele><time>2026-04-20T12:44:46.909Z</time></trkpt><trkpt lat="32.8602067" lon="9.8550917"><ele>320.0</ele><time>2026-04-20T12:44:48.909Z</time></trkpt><trkpt lat="32.8602033" lon="9.855005"><ele>320.0</ele><time>2026-04-20T12:44:49.909Z</time></trkpt><trkpt lat="32.8602017" lon="9.8549083"><ele>320.0</ele><time>2026-04-20T12:44:50.909Z</time></trkpt><trkpt lat="32.860205" lon="9.8548017"><ele>320.0</ele><time>2026-04-20T12:44:51.909Z</time></trkpt><trkpt lat="32.860205" lon="9.8546817"><ele>320.0</ele><time>2026-04-20T12:44:52.909Z</time></trkpt><trkpt lat="32.86021" lon="9.8545633"><ele>320.0</ele><time>2026-04-20T12:44:53.909Z</time></trkpt><trkpt lat="32.8602067" lon="9.8544283"><ele>320.0</ele><time>2026-04-20T12:44:54.909Z</time></trkpt><trkpt lat="32.8602133" lon="9.8542817"><ele>320.0</ele><time>2026-04-20T12:44:55.909Z</time></trkpt><trkpt lat="32.860215" lon="9.85414"><ele>320.0</ele><time>2026-04-20T12:44:56.909Z</time></trkpt><trkpt lat="32.8602217" lon="9.8539933"><ele>320.0</ele><time>2026-04-20T12:44:57.909Z</time></trkpt><trkpt lat="32.8602233" lon="9.8538433"><ele>320.0</ele><time>2026-04-20T12:44:58.909Z</time></trkpt><trkpt lat="32.86024" lon="9.85369"><ele>320.0</ele><time>2026-04-20T12:44:59.909Z</time></trkpt><trkpt lat="32.8602583" lon="9.8535383"><ele>319.75</ele><time>2026-04-20T12:45:00.909Z</time></trkpt><trkpt lat="32.8602733" lon="9.853385"><ele>319.5</ele><time>2026-04-20T12:45:01.909Z</time></trkpt><trkpt lat="32.8602917" lon="9.85323"><ele>319.25</ele><time>2026-04-20T12:45:02.909Z</time></trkpt><trkpt lat="32.8603067" lon="9.853075"><ele>319.0</ele><time>2026-04-20T12:45:03.909Z</time></trkpt><trkpt lat="32.8603183" lon="9.8529267"><ele>319.0</ele><time>2026-04-20T12:45:04.909Z</time></trkpt><trkpt lat="32.860325" lon="9.85278"><ele>319.0</ele><time>2026-04-20T12:45:05.909Z</time></trkpt><trkpt lat="32.8603283" lon="9.8526283"><ele>319.0</ele><time>2026-04-20T12:45:06.909Z</time></trkpt><trkpt lat="32.8603367" lon="9.8524767"><ele>319.0</ele><time>2026-04-20T12:45:07.909Z</time></trkpt><trkpt lat="32.860345" lon="9.852325"><ele>319.0</ele><time>2026-04-20T12:45:08.909Z</time></trkpt><trkpt lat="32.8603483" lon="9.8521667"><ele>319.0</ele><time>2026-04-20T12:45:09.909Z</time></trkpt><trkpt lat="32.86035" lon="9.8520133"><ele>319.0</ele><time>2026-04-20T12:45:10.909Z</time></trkpt><trkpt lat="32.86036" lon="9.8518567"><ele>319.0</ele><time>2026-04-20T12:45:11.909Z</time></trkpt><trkpt lat="32.8603667" lon="9.8516967"><ele>319.0</ele><time>2026-04-20T12:45:12.909Z</time></trkpt><trkpt lat="32.8603717" lon="9.85154"><ele>319.0</ele><time>2026-04-20T12:45:13.909Z</time></trkpt><trkpt lat="32.86037" lon="9.8513817"><ele>319.0</ele><time>2026-04-20T12:45:14.909Z</time></trkpt><trkpt lat="32.8603633" lon="9.851225"><ele>319.0</ele><time>2026-04-20T12:45:15.909Z</time></trkpt><trkpt lat="32.8603583" lon="9.8510733"><ele>318.75</ele><time>2026-04-20T12:45:16.909Z</time></trkpt><trkpt lat="32.8603467" lon="9.8509217"><ele>318.5</ele><time>2026-04-20T12:45:17.909Z</time></trkpt><trkpt lat="32.8603367" lon="9.8507617"><ele>318.25</ele><time>2026-04-20T12:45:18.909Z</time></trkpt><trkpt lat="32.8603233" lon="9.8506"><ele>318.0</ele><time>2026-04-20T12:45:19.909Z</time></trkpt><trkpt lat="32.8603067" lon="9.8504467"><ele>318.0</ele><time>2026-04-20T12:45:20.909Z</time></trkpt><trkpt lat="32.8602967" lon="9.8502883"><ele>318.0</ele><time>2026-04-20T12:45:21.909Z</time></trkpt><trkpt lat="32.8602883" lon="9.8501283"><ele>318.0</ele><time>2026-04-20T12:45:22.909Z</time></trkpt><trkpt lat="32.8602717" lon="9.8499683"><ele>318.0</ele><time>2026-04-20T12:45:23.909Z</time></trkpt><trkpt lat="32.8602617" lon="9.8498"><ele>318.0</ele><time>2026-04-20T12:45:24.909Z</time></trkpt><trkpt lat="32.8602533" lon="9.8496417"><ele>318.0</ele><time>2026-04-20T12:45:25.909Z</time></trkpt><trkpt lat="32.8602517" lon="9.8494733"><ele>318.0</ele><time>2026-04-20T12:45:26.908Z</time></trkpt><trkpt lat="32.8602583" lon="9.8492967"><ele>318.0</ele><time>2026-04-20T12:45:27.908Z</time></trkpt><trkpt lat="32.8602567" lon="9.8491283"><ele>318.0</ele><time>2026-04-20T12:45:28.908Z</time></trkpt><trkpt lat="32.86026" lon="9.8489433"><ele>318.0</ele><time>2026-04-20T12:45:29.908Z</time></trkpt><trkpt lat="32.86026" lon="9.848765"><ele>318.0</ele><time>2026-04-20T12:45:30.908Z</time></trkpt><trkpt lat="32.8602667" lon="9.8485767"><ele>319.3333333333333</ele><time>2026-04-20T12:45:31.908Z</time></trkpt><trkpt lat="32.8602667" lon="9.8483883"><ele>320.66666666666663</ele><time>2026-04-20T12:45:32.908Z</time></trkpt><trkpt lat="32.8602667" lon="9.8481983"><ele>322.0</ele><time>2026-04-20T12:45:33.908Z</time></trkpt><trkpt lat="32.8602667" lon="9.848005"><ele>322.0</ele><time>2026-04-20T12:45:34.908Z</time></trkpt><trkpt lat="32.8602717" lon="9.84782"><ele>322.0</ele><time>2026-04-20T12:45:35.908Z</time></trkpt><trkpt lat="32.860275" lon="9.8476417"><ele>322.0</ele><time>2026-04-20T12:45:36.909Z</time></trkpt><trkpt lat="32.8602767" lon="9.84746"><ele>322.0</ele><time>2026-04-20T12:45:37.908Z</time></trkpt><trkpt lat="32.8602833" lon="9.8472767"><ele>322.0</ele><time>2026-04-20T12:45:38.908Z</time></trkpt><trkpt lat="32.8602883" lon="9.8470967"><ele>322.0</ele><time>2026-04-20T12:45:39.908Z</time></trkpt><trkpt lat="32.86029" lon="9.846915"><ele>321.66666666666663</ele><time>2026-04-20T12:45:40.908Z</time></trkpt><trkpt lat="32.8602967" lon="9.8467333"><ele>321.3333333333333</ele><time>2026-04-20T12:45:41.908Z</time></trkpt><trkpt lat="32.8603067" lon="9.8465433"><ele>321.0</ele><time>2026-04-20T12:45:42.908Z</time></trkpt><trkpt lat="32.860315" lon="9.846345"><ele>321.0</ele><time>2026-04-20T12:45:43.908Z</time></trkpt><trkpt lat="32.8603217" lon="9.846155"><ele>321.0</ele><time>2026-04-20T12:45:44.908Z</time></trkpt><trkpt lat="32.8603233" lon="9.845965"><ele>321.0</ele><time>2026-04-20T12:45:45.908Z</time></trkpt><trkpt lat="32.860325" lon="9.84579"><ele>320.0</ele><time>2026-04-20T12:45:46.908Z</time></trkpt><trkpt lat="32.8603183" lon="9.8456117"><ele>319.0</ele><time>2026-04-20T12:45:47.908Z</time></trkpt><trkpt lat="32.8603217" lon="9.8454317"><ele>318.0</ele><time>2026-04-20T12:45:48.908Z</time></trkpt><trkpt lat="32.86032" lon="9.845245"><ele>317.75</ele><time>2026-04-20T12:45:49.908Z</time></trkpt><trkpt lat="32.8603167" lon="9.8450683"><ele>317.5</ele><time>2026-04-20T12:45:50.908Z</time></trkpt><trkpt lat="32.86032" lon="9.8449017"><ele>317.25</ele><time>2026-04-20T12:45:51.908Z</time></trkpt><trkpt lat="32.860315" lon="9.84476"><ele>317.0</ele><time>2026-04-20T12:45:52.908Z</time></trkpt><trkpt lat="32.8603133" lon="9.844635"><ele>317.0</ele><time>2026-04-20T12:45:53.908Z</time></trkpt><trkpt lat="32.8603117" lon="9.8445117"><ele>317.0</ele><time>2026-04-20T12:45:54.908Z</time></trkpt><trkpt lat="32.8603067" lon="9.8443783"><ele>317.0</ele><time>2026-04-20T12:45:55.908Z</time></trkpt><trkpt lat="32.8603033" lon="9.8442317"><ele>317.0</ele><time>2026-04-20T12:45:56.908Z</time></trkpt><trkpt lat="32.8602967" lon="9.844085"><ele>316.75</ele><time>2026-04-20T12:45:57.908Z</time></trkpt><trkpt lat="32.8602933" lon="9.8439317"><ele>316.5</ele><time>2026-04-20T12:45:58.908Z</time></trkpt><trkpt lat="32.8602933" lon="9.84377"><ele>316.25</ele><time>2026-04-20T12:45:59.908Z</time></trkpt><trkpt lat="32.8602917" lon="9.8436083"><ele>316.0</ele><time>2026-04-20T12:46:00.908Z</time></trkpt><trkpt lat="32.8602817" lon="9.843445"><ele>315.75</ele><time>2026-04-20T12:46:01.908Z</time></trkpt><trkpt lat="32.8602733" lon="9.843275"><ele>315.5</ele><time>2026-04-20T12:46:02.908Z</time></trkpt><trkpt lat="32.8602683" lon="9.8431017"><ele>315.25</ele><time>2026-04-20T12:46:03.908Z</time></trkpt><trkpt lat="32.860265" lon="9.8429267"><ele>315.0</ele><time>2026-04-20T12:46:04.908Z</time></trkpt><trkpt lat="32.8602683" lon="9.8427483"><ele>314.0</ele><time>2026-04-20T12:46:05.908Z</time></trkpt><trkpt lat="32.8602683" lon="9.84257"><ele>313.0</ele><time>2026-04-20T12:46:06.908Z</time></trkpt><trkpt lat="32.860265" lon="9.8423917"><ele>312.0</ele><time>2026-04-20T12:46:07.908Z</time></trkpt><trkpt lat="32.8602567" lon="9.8422083"><ele>312.0</ele><time>2026-04-20T12:46:08.908Z</time></trkpt><trkpt lat="32.8602467" lon="9.8420217"><ele>312.0</ele><time>2026-04-20T12:46:09.908Z</time></trkpt><trkpt lat="32.8602417" lon="9.841835"><ele>312.0</ele><time>2026-04-20T12:46:10.908Z</time></trkpt><trkpt lat="32.860235" lon="9.84165"><ele>312.0</ele><time>2026-04-20T12:46:11.908Z</time></trkpt><trkpt lat="32.86023" lon="9.8414583"><ele>312.0</ele><time>2026-04-20T12:46:12.908Z</time></trkpt><trkpt lat="32.8602283" lon="9.8412767"><ele>312.0</ele><time>2026-04-20T12:46:13.908Z</time></trkpt><trkpt lat="32.8602283" lon="9.8410983"><ele>312.6666666666667</ele><time>2026-04-20T12:46:14.908Z</time></trkpt><trkpt lat="32.86023" lon="9.8409217"><ele>313.33333333333337</ele><time>2026-04-20T12:46:15.908Z</time></trkpt><trkpt lat="32.8602333" lon="9.8407367"><ele>314.0</ele><time>2026-04-20T12:46:16.908Z</time></trkpt><trkpt lat="32.860235" lon="9.8405617"><ele>314.0</ele><time>2026-04-20T12:46:17.908Z</time></trkpt><trkpt lat="32.8602317" lon="9.840385"><ele>314.0</ele><time>2026-04-20T12:46:18.908Z</time></trkpt><trkpt lat="32.860235" lon="9.8402067"><ele>314.0</ele><time>2026-04-20T12:46:19.908Z</time></trkpt><trkpt lat="32.8602333" lon="9.8400217"><ele>313.6666666666667</ele><time>2026-04-20T12:46:20.908Z</time></trkpt><trkpt lat="32.8602283" lon="9.839835"><ele>313.3333333333333</ele><time>2026-04-20T12:46:21.908Z</time></trkpt><trkpt lat="32.8602233" lon="9.83965"><ele>313.0</ele><time>2026-04-20T12:46:22.908Z</time></trkpt><trkpt lat="32.8602217" lon="9.839465"><ele>312.3333333333333</ele><time>2026-04-20T12:46:23.908Z</time></trkpt><trkpt lat="32.86022" lon="9.8392767"><ele>311.6666666666667</ele><time>2026-04-20T12:46:24.908Z</time></trkpt><trkpt lat="32.8602183" lon="9.83909"><ele>311.0</ele><time>2026-04-20T12:46:25.908Z</time></trkpt><trkpt lat="32.8602167" lon="9.8389117"><ele>311.0</ele><time>2026-04-20T12:46:26.908Z</time></trkpt><trkpt lat="32.8602117" lon="9.8387267"><ele>311.0</ele><time>2026-04-20T12:46:27.908Z</time></trkpt><trkpt lat="32.8602033" lon="9.838555"><ele>311.0</ele><time>2026-04-20T12:46:28.908Z</time></trkpt><trkpt lat="32.8601967" lon="9.8383817"><ele>311.0</ele><time>2026-04-20T12:46:29.908Z</time></trkpt><trkpt lat="32.8601933" lon="9.8382033"><ele>311.0</ele><time>2026-04-20T12:46:30.908Z</time></trkpt><trkpt lat="32.8601883" lon="9.8380233"><ele>311.0</ele><time>2026-04-20T12:46:31.908Z</time></trkpt><trkpt lat="32.8601817" lon="9.8378383"><ele>311.0</ele><time>2026-04-20T12:46:32.908Z</time></trkpt><trkpt lat="32.86017" lon="9.8376583"><ele>310.6666666666667</ele><time>2026-04-20T12:46:33.908Z</time></trkpt><trkpt lat="32.86017" lon="9.8374783"><ele>310.3333333333333</ele><time>2026-04-20T12:46:34.908Z</time></trkpt><trkpt lat="32.8601733" lon="9.8372917"><ele>310.0</ele><time>2026-04-20T12:46:35.908Z</time></trkpt><trkpt lat="32.8601767" lon="9.8371033"><ele>310.0</ele><time>2026-04-20T12:46:36.908Z</time></trkpt><trkpt lat="32.860175" lon="9.836915"><ele>310.0</ele><time>2026-04-20T12:46:37.908Z</time></trkpt><trkpt lat="32.8601717" lon="9.8367233"><ele>310.0</ele><time>2026-04-20T12:46:38.908Z</time></trkpt><trkpt lat="32.8601667" lon="9.8365317"><ele>310.0</ele><time>2026-04-20T12:46:39.908Z</time></trkpt><trkpt lat="32.8601617" lon="9.8363367"><ele>310.0</ele><time>2026-04-20T12:46:40.908Z</time></trkpt><trkpt lat="32.8601583" lon="9.8361433"><ele>310.0</ele><time>2026-04-20T12:46:41.908Z</time></trkpt><trkpt lat="32.8601567" lon="9.8359533"><ele>310.0</ele><time>2026-04-20T12:46:42.908Z</time></trkpt><trkpt lat="32.86016" lon="9.8357717"><ele>310.0</ele><time>2026-04-20T12:46:43.908Z</time></trkpt><trkpt lat="32.8601517" lon="9.8355983"><ele>310.0</ele><time>2026-04-20T12:46:44.908Z</time></trkpt><trkpt lat="32.86014" lon="9.8354283"><ele>310.0</ele><time>2026-04-20T12:46:45.908Z</time></trkpt><trkpt lat="32.8601217" lon="9.8352583"><ele>309.75</ele><time>2026-04-20T12:46:46.908Z</time></trkpt><trkpt lat="32.860105" lon="9.8350933"><ele>309.5</ele><time>2026-04-20T12:46:47.908Z</time></trkpt><trkpt lat="32.8600917" lon="9.8349217"><ele>309.25</ele><time>2026-04-20T12:46:48.908Z</time></trkpt><trkpt lat="32.860085" lon="9.83474"><ele>309.0</ele><time>2026-04-20T12:46:49.908Z</time></trkpt><trkpt lat="32.860085" lon="9.83455"><ele>309.0</ele><time>2026-04-20T12:46:50.908Z</time></trkpt><trkpt lat="32.860095" lon="9.8343617"><ele>309.0</ele><time>2026-04-20T12:46:51.908Z</time></trkpt><trkpt lat="32.8601067" lon="9.8341733"><ele>309.0</ele><time>2026-04-20T12:46:52.908Z</time></trkpt><trkpt lat="32.860115" lon="9.83399"><ele>308.6666666666667</ele><time>2026-04-20T12:46:53.908Z</time></trkpt><trkpt lat="32.8601167" lon="9.8337967"><ele>308.33333333333337</ele><time>2026-04-20T12:46:54.908Z</time></trkpt><trkpt lat="32.8601133" lon="9.833595"><ele>308.0</ele><time>2026-04-20T12:46:55.908Z</time></trkpt><trkpt lat="32.8601133" lon="9.8334"><ele>308.6666666666667</ele><time>2026-04-20T12:46:56.908Z</time></trkpt><trkpt lat="32.8601083" lon="9.8332067"><ele>309.3333333333333</ele><time>2026-04-20T12:46:57.908Z</time></trkpt><trkpt lat="32.86011" lon="9.8330133"><ele>310.0</ele><time>2026-04-20T12:46:58.908Z</time></trkpt><trkpt lat="32.8601067" lon="9.8328167"><ele>310.66666666666663</ele><time>2026-04-20T12:46:59.908Z</time></trkpt><trkpt lat="32.8601067" lon="9.8326233"><ele>311.3333333333333</ele><time>2026-04-20T12:47:00.908Z</time></trkpt><trkpt lat="32.8601083" lon="9.8324283"><ele>312.0</ele><time>2026-04-20T12:47:01.908Z</time></trkpt><trkpt lat="32.8601083" lon="9.8322283"><ele>312.0</ele><time>2026-04-20T12:47:02.908Z</time></trkpt><trkpt lat="32.86011" lon="9.83204"><ele>312.0</ele><time>2026-04-20T12:47:03.908Z</time></trkpt><trkpt lat="32.8601017" lon="9.8318633"><ele>312.0</ele><time>2026-04-20T12:47:04.908Z</time></trkpt><trkpt lat="32.8601017" lon="9.8316917"><ele>312.0</ele><time>2026-04-20T12:47:05.908Z</time></trkpt><trkpt lat="32.860105" lon="9.8315183"><ele>312.0</ele><time>2026-04-20T12:47:06.908Z</time></trkpt><trkpt lat="32.8601067" lon="9.8313383"><ele>312.0</ele><time>2026-04-20T12:47:07.908Z</time></trkpt><trkpt lat="32.8601067" lon="9.8311567"><ele>312.0</ele><time>2026-04-20T12:47:08.908Z</time></trkpt><trkpt lat="32.8601033" lon="9.83097"><ele>311.3333333333333</ele><time>2026-04-20T12:47:09.908Z</time></trkpt><trkpt lat="32.8601017" lon="9.8307883"><ele>310.66666666666663</ele><time>2026-04-20T12:47:10.908Z</time></trkpt><trkpt lat="32.8601033" lon="9.8306033"><ele>310.0</ele><time>2026-04-20T12:47:11.908Z</time></trkpt><trkpt lat="32.860105" lon="9.83042"><ele>310.0</ele><time>2026-04-20T12:47:12.908Z</time></trkpt><trkpt lat="32.8601083" lon="9.830235"><ele>310.0</ele><time>2026-04-20T12:47:13.908Z</time></trkpt><trkpt lat="32.8601033" lon="9.8300433"><ele>310.0</ele><time>2026-04-20T12:47:14.908Z</time></trkpt><trkpt lat="32.8601067" lon="9.8298583"><ele>310.0</ele><time>2026-04-20T12:47:15.908Z</time></trkpt><trkpt lat="32.8601133" lon="9.829675"><ele>310.0</ele><time>2026-04-20T12:47:16.908Z</time></trkpt><trkpt lat="32.8601167" lon="9.8294883"><ele>310.0</ele><time>2026-04-20T12:47:17.908Z</time></trkpt><trkpt lat="32.8601167" lon="9.829305"><ele>310.0</ele><time>2026-04-20T12:47:18.908Z</time></trkpt><trkpt lat="32.86011" lon="9.8291233"><ele>310.0</ele><time>2026-04-20T12:47:19.908Z</time></trkpt><trkpt lat="32.8601067" lon="9.8289517"><ele>310.0</ele><time>2026-04-20T12:47:20.908Z</time></trkpt><trkpt lat="32.8600983" lon="9.8287733"><ele>310.0</ele><time>2026-04-20T12:47:21.909Z</time></trkpt><trkpt lat="32.86009" lon="9.8286033"><ele>310.0</ele><time>2026-04-20T12:47:22.908Z</time></trkpt><trkpt lat="32.860065" lon="9.8284283"><ele>310.0</ele><time>2026-04-20T12:47:23.908Z</time></trkpt><trkpt lat="32.8600333" lon="9.828265"><ele>310.0</ele><time>2026-04-20T12:47:24.908Z</time></trkpt><trkpt lat="32.860005" lon="9.8281117"><ele>310.0</ele><time>2026-04-20T12:47:25.908Z</time></trkpt><trkpt lat="32.8599717" lon="9.8279733"><ele>310.0</ele><time>2026-04-20T12:47:26.908Z</time></trkpt><trkpt lat="32.8599533" lon="9.8278417"><ele>310.0</ele><time>2026-04-20T12:47:27.908Z</time></trkpt><trkpt lat="32.8599517" lon="9.8277117"><ele>310.0</ele><time>2026-04-20T12:47:28.908Z</time></trkpt><trkpt lat="32.8599617" lon="9.827585"><ele>310.0</ele><time>2026-04-20T12:47:29.908Z</time></trkpt><trkpt lat="32.8599717" lon="9.8274467"><ele>310.0</ele><time>2026-04-20T12:47:30.908Z</time></trkpt><trkpt lat="32.859975" lon="9.8273083"><ele>310.5</ele><time>2026-04-20T12:47:31.908Z</time></trkpt><trkpt lat="32.8599867" lon="9.8271683"><ele>311.0</ele><time>2026-04-20T12:47:32.908Z</time></trkpt><trkpt lat="32.8600067" lon="9.8270267"><ele>311.5</ele><time>2026-04-20T12:47:33.908Z</time></trkpt><trkpt lat="32.860025" lon="9.8268867"><ele>312.0</ele><time>2026-04-20T12:47:34.908Z</time></trkpt><trkpt lat="32.860045" lon="9.8267367"><ele>312.4</ele><time>2026-04-20T12:47:35.908Z</time></trkpt><trkpt lat="32.860045" lon="9.8265967"><ele>312.79999999999995</ele><time>2026-04-20T12:47:36.908Z</time></trkpt><trkpt lat="32.8600433" lon="9.8264717"><ele>313.2</ele><time>2026-04-20T12:47:37.908Z</time></trkpt><trkpt lat="32.8600433" lon="9.8263583"><ele>313.59999999999997</ele><time>2026-04-20T12:47:38.908Z</time></trkpt><trkpt lat="32.860045" lon="9.8262383"><ele>314.0</ele><time>2026-04-20T12:47:39.908Z</time></trkpt><trkpt lat="32.86005" lon="9.8261017"><ele>314.75</ele><time>2026-04-20T12:47:40.908Z</time></trkpt><trkpt lat="32.8600483" lon="9.82596"><ele>315.5</ele><time>2026-04-20T12:47:41.908Z</time></trkpt><trkpt lat="32.8600467" lon="9.82581"><ele>316.25</ele><time>2026-04-20T12:47:42.908Z</time></trkpt><trkpt lat="32.8600483" lon="9.8256533"><ele>317.0</ele><time>2026-04-20T12:47:43.908Z</time></trkpt><trkpt lat="32.8600517" lon="9.8254917"><ele>317.0</ele><time>2026-04-20T12:47:44.908Z</time></trkpt><trkpt lat="32.86005" lon="9.8253383"><ele>317.0</ele><time>2026-04-20T12:47:45.908Z</time></trkpt><trkpt lat="32.8600483" lon="9.8251817"><ele>317.0</ele><time>2026-04-20T12:47:46.908Z</time></trkpt><trkpt lat="32.8600583" lon="9.8250333"><ele>317.0</ele><time>2026-04-20T12:47:47.908Z</time></trkpt><trkpt lat="32.8600667" lon="9.8249"><ele>317.0</ele><time>2026-04-20T12:47:48.908Z</time></trkpt><trkpt lat="32.860075" lon="9.8247833"><ele>317.0</ele><time>2026-04-20T12:47:49.908Z</time></trkpt><trkpt lat="32.860085" lon="9.8246883"><ele>317.0</ele><time>2026-04-20T12:47:50.908Z</time></trkpt><trkpt lat="32.8600933" lon="9.8246067"><ele>317.0</ele><time>2026-04-20T12:47:51.908Z</time></trkpt><trkpt lat="32.8601167" lon="9.8244817"><ele>317.0</ele><time>2026-04-20T12:47:53.908Z</time></trkpt><trkpt lat="32.860135" lon="9.8243983"><ele>317.0</ele><time>2026-04-20T12:47:55.908Z</time></trkpt><trkpt lat="32.86006" lon="9.824345"><ele>316.83333333333337</ele><time>2026-04-20T13:08:44.901Z</time></trkpt><trkpt lat="32.8601083" lon="9.82428"><ele>316.6666666666667</ele><time>2026-04-20T13:08:46.901Z</time></trkpt><trkpt lat="32.8601567" lon="9.8241967"><ele>316.5</ele><time>2026-04-20T13:08:48.901Z</time></trkpt><trkpt lat="32.8602" lon="9.8241083"><ele>316.3333333333333</ele><time>2026-04-20T13:08:50.901Z</time></trkpt><trkpt lat="32.860255" lon="9.82402"><ele>316.16666666666663</ele><time>2026-04-20T13:08:52.901Z</time></trkpt><trkpt lat="32.8602983" lon="9.823915"><ele>316.0</ele><time>2026-04-20T13:08:54.901Z</time></trkpt><trkpt lat="32.8603567" lon="9.8237817"><ele>316.0</ele><time>2026-04-20T13:08:56.901Z</time></trkpt><trkpt lat="32.8603917" lon="9.8237033"><ele>316.0</ele><time>2026-04-20T13:08:57.901Z</time></trkpt><trkpt lat="32.8604317" lon="9.82362"><ele>316.0</ele><time>2026-04-20T13:08:58.901Z</time></trkpt><trkpt lat="32.8604783" lon="9.823535"><ele>316.0</ele><time>2026-04-20T13:08:59.901Z</time></trkpt><trkpt lat="32.860525" lon="9.82345"><ele>316.0</ele><time>2026-04-20T13:09:00.901Z</time></trkpt><trkpt lat="32.8605717" lon="9.8233583"><ele>316.0</ele><time>2026-04-20T13:09:01.901Z</time></trkpt><trkpt lat="32.860615" lon="9.82327"><ele>315.8333333333333</ele><time>2026-04-20T13:09:02.901Z</time></trkpt><trkpt lat="32.8606517" lon="9.823185"><ele>315.66666666666663</ele><time>2026-04-20T13:09:03.901Z</time></trkpt><trkpt lat="32.86069" lon="9.823105"><ele>315.5</ele><time>2026-04-20T13:09:04.901Z</time></trkpt><trkpt lat="32.8607283" lon="9.8230367"><ele>315.3333333333333</ele><time>2026-04-20T13:09:05.901Z</time></trkpt><trkpt lat="32.8607817" lon="9.822935"><ele>315.1666666666667</ele><time>2026-04-20T13:09:07.901Z</time></trkpt><trkpt lat="32.8608317" lon="9.8228483"><ele>315.0</ele><time>2026-04-20T13:09:09.901Z</time></trkpt><trkpt lat="32.8608933" lon="9.8227433"><ele>314.8</ele><time>2026-04-20T13:09:11.901Z</time></trkpt><trkpt lat="32.8609867" lon="9.8226367"><ele>314.6</ele><time>2026-04-20T13:09:13.901Z</time></trkpt><trkpt lat="32.8610367" lon="9.82257"><ele>314.4</ele><time>2026-04-20T13:09:14.901Z</time></trkpt><trkpt lat="32.8610983" lon="9.8224967"><ele>314.2</ele><time>2026-04-20T13:09:15.901Z</time></trkpt><trkpt lat="32.8611617" lon="9.8224217"><ele>314.0</ele><time>2026-04-20T13:09:16.901Z</time></trkpt><trkpt lat="32.8612283" lon="9.822345"><ele>314.0</ele><time>2026-04-20T13:09:17.901Z</time></trkpt><trkpt lat="32.861305" lon="9.8222733"><ele>314.0</ele><time>2026-04-20T13:09:18.901Z</time></trkpt><trkpt lat="32.8613767" lon="9.8221967"><ele>314.0</ele><time>2026-04-20T13:09:19.901Z</time></trkpt><trkpt lat="32.8614533" lon="9.822125"><ele>314.0</ele><time>2026-04-20T13:09:20.901Z</time></trkpt><trkpt lat="32.861535" lon="9.8220467"><ele>314.0</ele><time>2026-04-20T13:09:21.901Z</time></trkpt><trkpt lat="32.8616117" lon="9.82196"><ele>314.0</ele><time>2026-04-20T13:09:22.901Z</time></trkpt><trkpt lat="32.8616883" lon="9.8218717"><ele>314.0</ele><time>2026-04-20T13:09:23.901Z</time></trkpt><trkpt lat="32.8617533" lon="9.8217833"><ele>314.0</ele><time>2026-04-20T13:09:24.901Z</time></trkpt><trkpt lat="32.8618183" lon="9.82169"><ele>314.0</ele><time>2026-04-20T13:09:25.901Z</time></trkpt><trkpt lat="32.8618817" lon="9.8215933"><ele>314.0</ele><time>2026-04-20T13:09:26.901Z</time></trkpt><trkpt lat="32.8619467" lon="9.8214917"><ele>314.0</ele><time>2026-04-20T13:09:27.901Z</time></trkpt><trkpt lat="32.862" lon="9.8213867"><ele>314.0</ele><time>2026-04-20T13:09:28.901Z</time></trkpt><trkpt lat="32.86205" lon="9.8212867"><ele>314.0</ele><time>2026-04-20T13:09:29.901Z</time></trkpt><trkpt lat="32.8620983" lon="9.8211733"><ele>314.0</ele><time>2026-04-20T13:09:30.901Z</time></trkpt><trkpt lat="32.862145" lon="9.8210633"><ele>314.0</ele><time>2026-04-20T13:09:31.901Z</time></trkpt><trkpt lat="32.86219" lon="9.8209483"><ele>314.0</ele><time>2026-04-20T13:09:32.901Z</time></trkpt><trkpt lat="32.862225" lon="9.8208267"><ele>314.0</ele><time>2026-04-20T13:09:33.902Z</time></trkpt><trkpt lat="32.862255" lon="9.8206967"><ele>314.0</ele><time>2026-04-20T13:09:34.901Z</time></trkpt><trkpt lat="32.8622967" lon="9.8205633"><ele>314.0</ele><time>2026-04-20T13:09:35.901Z</time></trkpt><trkpt lat="32.8623233" lon="9.8204267"><ele>314.0</ele><time>2026-04-20T13:09:36.901Z</time></trkpt><trkpt lat="32.86235" lon="9.8202867"><ele>314.0</ele><time>2026-04-20T13:09:37.901Z</time></trkpt><trkpt lat="32.86238" lon="9.8201367"><ele>314.0</ele><time>2026-04-20T13:09:38.901Z</time></trkpt><trkpt lat="32.8624017" lon="9.8199933"><ele>314.0</ele><time>2026-04-20T13:09:39.901Z</time></trkpt><trkpt lat="32.86243" lon="9.8198517"><ele>314.2</ele><time>2026-04-20T13:09:40.901Z</time></trkpt><trkpt lat="32.8624617" lon="9.819715"><ele>314.4</ele><time>2026-04-20T13:09:41.901Z</time></trkpt><trkpt lat="32.862495" lon="9.8195833"><ele>314.6</ele><time>2026-04-20T13:09:42.901Z</time></trkpt><trkpt lat="32.8625267" lon="9.8194667"><ele>314.8</ele><time>2026-04-20T13:09:43.901Z</time></trkpt><trkpt lat="32.8625667" lon="9.8193583"><ele>315.0</ele><time>2026-04-20T13:09:44.901Z</time></trkpt><trkpt lat="32.8626267" lon="9.8192533"><ele>314.0</ele><time>2026-04-20T13:09:45.901Z</time></trkpt><trkpt lat="32.8626817" lon="9.819145"><ele>313.0</ele><time>2026-04-20T13:09:46.901Z</time></trkpt><trkpt lat="32.862755" lon="9.8190467"><ele>312.0</ele><time>2026-04-20T13:09:47.901Z</time></trkpt><trkpt lat="32.8628317" lon="9.8189483"><ele>311.0</ele><time>2026-04-20T13:09:48.901Z</time></trkpt><trkpt lat="32.8629183" lon="9.81885"><ele>310.0</ele><time>2026-04-20T13:09:49.901Z</time></trkpt><trkpt lat="32.86301" lon="9.81875"><ele>310.0</ele><time>2026-04-20T13:09:50.901Z</time></trkpt><trkpt lat="32.863105" lon="9.81865"><ele>310.0</ele><time>2026-04-20T13:09:51.901Z</time></trkpt><trkpt lat="32.8632" lon="9.818555"><ele>310.0</ele><time>2026-04-20T13:09:52.901Z</time></trkpt><trkpt lat="32.863295" lon="9.8184617"><ele>310.0</ele><time>2026-04-20T13:09:53.901Z</time></trkpt><trkpt lat="32.8633833" lon="9.818365"><ele>310.0</ele><time>2026-04-20T13:09:54.901Z</time></trkpt><trkpt lat="32.8634767" lon="9.81827"><ele>310.0</ele><time>2026-04-20T13:09:55.901Z</time></trkpt><trkpt lat="32.8635633" lon="9.8181733"><ele>310.0</ele><time>2026-04-20T13:09:56.901Z</time></trkpt><trkpt lat="32.86365" lon="9.8180683"><ele>310.0</ele><time>2026-04-20T13:09:57.901Z</time></trkpt><trkpt lat="32.8637283" lon="9.8179733"><ele>310.0</ele><time>2026-04-20T13:09:58.901Z</time></trkpt><trkpt lat="32.8638133" lon="9.8178733"><ele>310.0</ele><time>2026-04-20T13:09:59.901Z</time></trkpt><trkpt lat="32.863895" lon="9.8177783"><ele>310.0</ele><time>2026-04-20T13:10:00.901Z</time></trkpt><trkpt lat="32.86398" lon="9.8176917"><ele>310.0</ele><time>2026-04-20T13:10:01.901Z</time></trkpt><trkpt lat="32.8640683" lon="9.8175967"><ele>310.2</ele><time>2026-04-20T13:10:02.901Z</time></trkpt><trkpt lat="32.8641583" lon="9.8175083"><ele>310.4</ele><time>2026-04-20T13:10:03.901Z</time></trkpt><trkpt lat="32.8642383" lon="9.81742"><ele>310.6</ele><time>2026-04-20T13:10:04.901Z</time></trkpt><trkpt lat="32.8643117" lon="9.8173267"><ele>310.8</ele><time>2026-04-20T13:10:05.901Z</time></trkpt><trkpt lat="32.8643833" lon="9.8172283"><ele>311.0</ele><time>2026-04-20T13:10:06.901Z</time></trkpt><trkpt lat="32.8644533" lon="9.8171317"><ele>311.0</ele><time>2026-04-20T13:10:07.901Z</time></trkpt><trkpt lat="32.864525" lon="9.81702"><ele>311.0</ele><time>2026-04-20T13:10:08.901Z</time></trkpt><trkpt lat="32.8646033" lon="9.8169083"><ele>311.0</ele><time>2026-04-20T13:10:09.901Z</time></trkpt><trkpt lat="32.86468" lon="9.8167983"><ele>311.0</ele><time>2026-04-20T13:10:10.901Z</time></trkpt><trkpt lat="32.8647517" lon="9.8166833"><ele>311.0</ele><time>2026-04-20T13:10:11.901Z</time></trkpt><trkpt lat="32.8648283" lon="9.8165617"><ele>311.0</ele><time>2026-04-20T13:10:12.901Z</time></trkpt><trkpt lat="32.8649017" lon="9.8164317"><ele>311.0</ele><time>2026-04-20T13:10:13.901Z</time></trkpt><trkpt lat="32.86497" lon="9.8163"><ele>311.0</ele><time>2026-04-20T13:10:14.901Z</time></trkpt><trkpt lat="32.8650467" lon="9.816165"><ele>311.0</ele><time>2026-04-20T13:10:15.901Z</time></trkpt><trkpt lat="32.8651083" lon="9.8160283"><ele>311.0</ele><time>2026-04-20T13:10:16.901Z</time></trkpt><trkpt lat="32.8651783" lon="9.8158917"><ele>311.0</ele><time>2026-04-20T13:10:17.901Z</time></trkpt><trkpt lat="32.8652417" lon="9.815745"><ele>311.0</ele><time>2026-04-20T13:10:18.901Z</time></trkpt><trkpt lat="32.8653117" lon="9.8156067"><ele>310.5</ele><time>2026-04-20T13:10:19.901Z</time></trkpt><trkpt lat="32.8653767" lon="9.8154617"><ele>310.0</ele><time>2026-04-20T13:10:20.901Z</time></trkpt><trkpt lat="32.8654433" lon="9.815315"><ele>309.5</ele><time>2026-04-20T13:10:21.901Z</time></trkpt><trkpt lat="32.865515" lon="9.8151633"><ele>309.0</ele><time>2026-04-20T13:10:22.901Z</time></trkpt><trkpt lat="32.8655833" lon="9.8150067"><ele>308.75</ele><time>2026-04-20T13:10:23.901Z</time></trkpt><trkpt lat="32.865645" lon="9.81485"><ele>308.5</ele><time>2026-04-20T13:10:24.901Z</time></trkpt><trkpt lat="32.865705" lon="9.8146883"><ele>308.25</ele><time>2026-04-20T13:10:25.901Z</time></trkpt><trkpt lat="32.8657583" lon="9.81452"><ele>308.0</ele><time>2026-04-20T13:10:26.901Z</time></trkpt><trkpt lat="32.865815" lon="9.814355"><ele>307.75</ele><time>2026-04-20T13:10:27.901Z</time></trkpt><trkpt lat="32.86588" lon="9.814195"><ele>307.5</ele><time>2026-04-20T13:10:28.901Z</time></trkpt><trkpt lat="32.865945" lon="9.8140383"><ele>307.25</ele><time>2026-04-20T13:10:29.901Z</time></trkpt><trkpt lat="32.8660067" lon="9.81388"><ele>307.0</ele><time>2026-04-20T13:10:30.901Z</time></trkpt><trkpt lat="32.8660717" lon="9.8137283"><ele>306.75</ele><time>2026-04-20T13:10:31.901Z</time></trkpt><trkpt lat="32.8661333" lon="9.81358"><ele>306.5</ele><time>2026-04-20T13:10:32.901Z</time></trkpt><trkpt lat="32.8661983" lon="9.8134233"><ele>306.25</ele><time>2026-04-20T13:10:33.901Z</time></trkpt><trkpt lat="32.8662767" lon="9.81327"><ele>306.0</ele><time>2026-04-20T13:10:34.901Z</time></trkpt><trkpt lat="32.8663617" lon="9.813125"><ele>305.75</ele><time>2026-04-20T13:10:35.901Z</time></trkpt><trkpt lat="32.8664383" lon="9.8129833"><ele>305.5</ele><time>2026-04-20T13:10:36.901Z</time></trkpt><trkpt lat="32.8665133" lon="9.8128367"><ele>305.25</ele><time>2026-04-20T13:10:37.901Z</time></trkpt><trkpt lat="32.86659" lon="9.812695"><ele>305.0</ele><time>2026-04-20T13:10:38.901Z</time></trkpt><trkpt lat="32.8666667" lon="9.8125433"><ele>304.6666666666667</ele><time>2026-04-20T13:10:39.901Z</time></trkpt><trkpt lat="32.866745" lon="9.8123883"><ele>304.3333333333333</ele><time>2026-04-20T13:10:40.901Z</time></trkpt><trkpt lat="32.866825" lon="9.8122283"><ele>304.0</ele><time>2026-04-20T13:10:41.901Z</time></trkpt><trkpt lat="32.8669017" lon="9.8120717"><ele>304.0</ele><time>2026-04-20T13:10:42.901Z</time></trkpt><trkpt lat="32.8669933" lon="9.8119233"><ele>304.0</ele><time>2026-04-20T13:10:43.901Z</time></trkpt><trkpt lat="32.86708" lon="9.8117733"><ele>304.0</ele><time>2026-04-20T13:10:44.901Z</time></trkpt><trkpt lat="32.8671567" lon="9.8116167"><ele>303.66666666666663</ele><time>2026-04-20T13:10:45.901Z</time></trkpt><trkpt lat="32.867235" lon="9.8114533"><ele>303.3333333333333</ele><time>2026-04-20T13:10:46.901Z</time></trkpt><trkpt lat="32.86731" lon="9.8112933"><ele>303.0</ele><time>2026-04-20T13:10:47.901Z</time></trkpt><trkpt lat="32.8673783" lon="9.81113"><ele>302.3333333333333</ele><time>2026-04-20T13:10:48.901Z</time></trkpt><trkpt lat="32.86745" lon="9.8109717"><ele>301.66666666666663</ele><time>2026-04-20T13:10:49.901Z</time></trkpt><trkpt lat="32.8675117" lon="9.8108067"><ele>301.0</ele><time>2026-04-20T13:10:50.901Z</time></trkpt><trkpt lat="32.8675767" lon="9.8106467"><ele>301.3333333333333</ele><time>2026-04-20T13:10:51.901Z</time></trkpt><trkpt lat="32.86765" lon="9.8104867"><ele>301.6666666666667</ele><time>2026-04-20T13:10:52.901Z</time></trkpt><trkpt lat="32.8677167" lon="9.8103267"><ele>302.0</ele><time>2026-04-20T13:10:53.901Z</time></trkpt><trkpt lat="32.8677817" lon="9.81017"><ele>302.0</ele><time>2026-04-20T13:10:54.901Z</time></trkpt><trkpt lat="32.8678533" lon="9.8100167"><ele>302.0</ele><time>2026-04-20T13:10:55.901Z</time></trkpt><trkpt lat="32.8679283" lon="9.809865"><ele>302.0</ele><time>2026-04-20T13:10:56.901Z</time></trkpt><trkpt lat="32.8680017" lon="9.8097133"><ele>302.0</ele><time>2026-04-20T13:10:57.901Z</time></trkpt><trkpt lat="32.8680817" lon="9.8095717"><ele>302.0</ele><time>2026-04-20T13:10:58.901Z</time></trkpt><trkpt lat="32.8681583" lon="9.8094317"><ele>302.0</ele><time>2026-04-20T13:10:59.901Z</time></trkpt><trkpt lat="32.8682317" lon="9.809285"><ele>302.0</ele><time>2026-04-20T13:11:00.901Z</time></trkpt><trkpt lat="32.8683033" lon="9.8091383"><ele>302.0</ele><time>2026-04-20T13:11:01.901Z</time></trkpt><trkpt lat="32.86837" lon="9.80899"><ele>301.75</ele><time>2026-04-20T13:11:02.901Z</time></trkpt><trkpt lat="32.8684317" lon="9.8088367"><ele>301.5</ele><time>2026-04-20T13:11:03.901Z</time></trkpt><trkpt lat="32.8684883" lon="9.8086867"><ele>301.25</ele><time>2026-04-20T13:11:04.901Z</time></trkpt><trkpt lat="32.8685433" lon="9.808535"><ele>301.0</ele><time>2026-04-20T13:11:05.901Z</time></trkpt><trkpt lat="32.8685933" lon="9.808375"><ele>300.25</ele><time>2026-04-20T13:11:06.901Z</time></trkpt><trkpt lat="32.868645" lon="9.8082183"><ele>299.5</ele><time>2026-04-20T13:11:07.901Z</time></trkpt><trkpt lat="32.868695" lon="9.8080667"><ele>298.75</ele><time>2026-04-20T13:11:08.901Z</time></trkpt><trkpt lat="32.8687517" lon="9.8079067"><ele>298.0</ele><time>2026-04-20T13:11:09.901Z</time></trkpt><trkpt lat="32.8688083" lon="9.8077483"><ele>298.0</ele><time>2026-04-20T13:11:10.901Z</time></trkpt><trkpt lat="32.8688683" lon="9.8075867"><ele>298.0</ele><time>2026-04-20T13:11:11.901Z</time></trkpt><trkpt lat="32.86893" lon="9.807425"><ele>298.0</ele><time>2026-04-20T13:11:12.901Z</time></trkpt><trkpt lat="32.868985" lon="9.8072583"><ele>298.0</ele><time>2026-04-20T13:11:13.901Z</time></trkpt><trkpt lat="32.8690333" lon="9.8070883"><ele>298.0</ele><time>2026-04-20T13:11:14.901Z</time></trkpt><trkpt lat="32.8690817" lon="9.806915"><ele>298.0</ele><time>2026-04-20T13:11:15.901Z</time></trkpt><trkpt lat="32.869125" lon="9.8067367"><ele>298.0</ele><time>2026-04-20T13:11:16.901Z</time></trkpt><trkpt lat="32.8691633" lon="9.80656"><ele>297.66666666666663</ele><time>2026-04-20T13:11:17.901Z</time></trkpt><trkpt lat="32.86921" lon="9.8063883"><ele>297.3333333333333</ele><time>2026-04-20T13:11:18.901Z</time></trkpt><trkpt lat="32.8692567" lon="9.8062217"><ele>297.0</ele><time>2026-04-20T13:11:19.901Z</time></trkpt><trkpt lat="32.8693067" lon="9.8060517"><ele>297.5</ele><time>2026-04-20T13:11:20.901Z</time></trkpt><trkpt lat="32.8693517" lon="9.805885"><ele>298.0</ele><time>2026-04-20T13:11:21.901Z</time></trkpt><trkpt lat="32.8694" lon="9.8057183"><ele>298.5</ele><time>2026-04-20T13:11:22.901Z</time></trkpt><trkpt lat="32.8694517" lon="9.8055583"><ele>299.0</ele><time>2026-04-20T13:11:23.901Z</time></trkpt><trkpt lat="32.8695017" lon="9.805395"><ele>299.0</ele><time>2026-04-20T13:11:24.901Z</time></trkpt><trkpt lat="32.8695583" lon="9.8052517"><ele>299.0</ele><time>2026-04-20T13:11:25.901Z</time></trkpt><trkpt lat="32.869615" lon="9.8051267"><ele>299.0</ele><time>2026-04-20T13:11:26.901Z</time></trkpt><trkpt lat="32.8696767" lon="9.80501"><ele>299.0</ele><time>2026-04-20T13:11:27.901Z</time></trkpt><trkpt lat="32.86973" lon="9.8049033"><ele>299.0</ele><time>2026-04-20T13:11:28.901Z</time></trkpt><trkpt lat="32.869795" lon="9.8048133"><ele>299.0</ele><time>2026-04-20T13:11:29.901Z</time></trkpt><trkpt lat="32.8698633" lon="9.80472"><ele>299.0</ele><time>2026-04-20T13:11:30.901Z</time></trkpt><trkpt lat="32.8699383" lon="9.8046233"><ele>299.0</ele><time>2026-04-20T13:11:31.901Z</time></trkpt><trkpt lat="32.8700217" lon="9.8045317"><ele>299.0</ele><time>2026-04-20T13:11:32.901Z</time></trkpt><trkpt lat="32.8701033" lon="9.804435"><ele>299.0</ele><time>2026-04-20T13:11:33.901Z</time></trkpt><trkpt lat="32.870195" lon="9.8043333"><ele>299.0</ele><time>2026-04-20T13:11:34.901Z</time></trkpt><trkpt lat="32.8702783" lon="9.8042267"><ele>299.0</ele><time>2026-04-20T13:11:35.901Z</time></trkpt><trkpt lat="32.8703667" lon="9.80412"><ele>299.0</ele><time>2026-04-20T13:11:36.901Z</time></trkpt><trkpt lat="32.8704517" lon="9.8040167"><ele>298.75</ele><time>2026-04-20T13:11:37.901Z</time></trkpt><trkpt lat="32.8705383" lon="9.803905"><ele>298.5</ele><time>2026-04-20T13:11:38.901Z</time></trkpt><trkpt lat="32.8706283" lon="9.80379"><ele>298.25</ele><time>2026-04-20T13:11:39.9Z</time></trkpt><trkpt lat="32.870715" lon="9.8036783"><ele>298.0</ele><time>2026-04-20T13:11:40.9Z</time></trkpt><trkpt lat="32.8708017" lon="9.8035617"><ele>298.5</ele><time>2026-04-20T13:11:41.9Z</time></trkpt><trkpt lat="32.8708917" lon="9.8034433"><ele>299.0</ele><time>2026-04-20T13:11:42.9Z</time></trkpt><trkpt lat="32.87098" lon="9.80332"><ele>299.5</ele><time>2026-04-20T13:11:43.9Z</time></trkpt><trkpt lat="32.87107" lon="9.8032083"><ele>300.0</ele><time>2026-04-20T13:11:44.9Z</time></trkpt><trkpt lat="32.8711583" lon="9.8030933"><ele>300.0</ele><time>2026-04-20T13:11:45.9Z</time></trkpt><trkpt lat="32.8712433" lon="9.8029817"><ele>300.0</ele><time>2026-04-20T13:11:46.9Z</time></trkpt><trkpt lat="32.8713233" lon="9.8028767"><ele>300.0</ele><time>2026-04-20T13:11:47.9Z</time></trkpt><trkpt lat="32.87141" lon="9.80277"><ele>300.0</ele><time>2026-04-20T13:11:48.9Z</time></trkpt><trkpt lat="32.8714983" lon="9.8026717"><ele>300.4</ele><time>2026-04-20T13:11:49.9Z</time></trkpt><trkpt lat="32.871575" lon="9.8025783"><ele>300.8</ele><time>2026-04-20T13:11:50.9Z</time></trkpt><trkpt lat="32.8716483" lon="9.802485"><ele>301.2</ele><time>2026-04-20T13:11:51.9Z</time></trkpt><trkpt lat="32.8717233" lon="9.8023817"><ele>301.6</ele><time>2026-04-20T13:11:52.9Z</time></trkpt><trkpt lat="32.8718" lon="9.8022783"><ele>302.0</ele><time>2026-04-20T13:11:53.9Z</time></trkpt><trkpt lat="32.8718717" lon="9.8021717"><ele>302.5</ele><time>2026-04-20T13:11:54.9Z</time></trkpt><trkpt lat="32.8719417" lon="9.8020617"><ele>303.0</ele><time>2026-04-20T13:11:55.9Z</time></trkpt><trkpt lat="32.8720117" lon="9.80194"><ele>303.5</ele><time>2026-04-20T13:11:56.9Z</time></trkpt><trkpt lat="32.872085" lon="9.80182"><ele>304.0</ele><time>2026-04-20T13:11:57.9Z</time></trkpt><trkpt lat="32.872155" lon="9.8016917"><ele>304.0</ele><time>2026-04-20T13:11:58.9Z</time></trkpt><trkpt lat="32.8722217" lon="9.80156"><ele>304.0</ele><time>2026-04-20T13:11:59.9Z</time></trkpt><trkpt lat="32.8722917" lon="9.8014267"><ele>304.0</ele><time>2026-04-20T13:12:00.9Z</time></trkpt><trkpt lat="32.872355" lon="9.8013"><ele>304.0</ele><time>2026-04-20T13:12:01.9Z</time></trkpt><trkpt lat="32.872415" lon="9.8011717"><ele>304.0</ele><time>2026-04-20T13:12:02.9Z</time></trkpt><trkpt lat="32.8724817" lon="9.8010467"><ele>304.0</ele><time>2026-04-20T13:12:03.9Z</time></trkpt><trkpt lat="32.872545" lon="9.8009183"><ele>304.0</ele><time>2026-04-20T13:12:04.9Z</time></trkpt><trkpt lat="32.872605" lon="9.8007917"><ele>304.0</ele><time>2026-04-20T13:12:05.9Z</time></trkpt><trkpt lat="32.8726633" lon="9.8006633"><ele>304.0</ele><time>2026-04-20T13:12:06.9Z</time></trkpt><trkpt lat="32.87273" lon="9.80054"><ele>304.0</ele><time>2026-04-20T13:12:07.9Z</time></trkpt><trkpt lat="32.8727883" lon="9.8004067"><ele>304.0</ele><time>2026-04-20T13:12:08.9Z</time></trkpt><trkpt lat="32.87286" lon="9.80028"><ele>304.0</ele><time>2026-04-20T13:12:09.9Z</time></trkpt><trkpt lat="32.8729333" lon="9.80015"><ele>304.0</ele><time>2026-04-20T13:12:10.9Z</time></trkpt><trkpt lat="32.873005" lon="9.8000233"><ele>304.0</ele><time>2026-04-20T13:12:11.9Z</time></trkpt><trkpt lat="32.8730717" lon="9.799895"><ele>304.0</ele><time>2026-04-20T13:12:12.9Z</time></trkpt><trkpt lat="32.87314" lon="9.7997567"><ele>304.0</ele><time>2026-04-20T13:12:13.9Z</time></trkpt><trkpt lat="32.8732167" lon="9.7996233"><ele>304.0</ele><time>2026-04-20T13:12:14.9Z</time></trkpt><trkpt lat="32.8732883" lon="9.7994883"><ele>304.0</ele><time>2026-04-20T13:12:15.9Z</time></trkpt><trkpt lat="32.8733583" lon="9.7993483"><ele>304.0</ele><time>2026-04-20T13:12:16.9Z</time></trkpt><trkpt lat="32.8734217" lon="9.79921"><ele>304.0</ele><time>2026-04-20T13:12:17.9Z</time></trkpt><trkpt lat="32.8734717" lon="9.799065"><ele>304.25</ele><time>2026-04-20T13:12:18.9Z</time></trkpt><trkpt lat="32.8735217" lon="9.7989217"><ele>304.5</ele><time>2026-04-20T13:12:19.9Z</time></trkpt><trkpt lat="32.873555" lon="9.79878"><ele>304.75</ele><time>2026-04-20T13:12:20.9Z</time></trkpt><trkpt lat="32.87359" lon="9.7986317"><ele>305.0</ele><time>2026-04-20T13:12:21.9Z</time></trkpt><trkpt lat="32.873615" lon="9.7984867"><ele>306.0</ele><time>2026-04-20T13:12:22.9Z</time></trkpt><trkpt lat="32.87364" lon="9.798345"><ele>307.0</ele><time>2026-04-20T13:12:23.9Z</time></trkpt><trkpt lat="32.8736567" lon="9.7981983"><ele>308.0</ele><time>2026-04-20T13:12:24.9Z</time></trkpt><trkpt lat="32.8736733" lon="9.7980467"><ele>309.0</ele><time>2026-04-20T13:12:25.9Z</time></trkpt><trkpt lat="32.8736867" lon="9.7978983"><ele>309.0</ele><time>2026-04-20T13:12:26.9Z</time></trkpt><trkpt lat="32.8736983" lon="9.79775"><ele>309.0</ele><time>2026-04-20T13:12:27.9Z</time></trkpt><trkpt lat="32.87371" lon="9.797595"><ele>309.0</ele><time>2026-04-20T13:12:28.9Z</time></trkpt><trkpt lat="32.87372" lon="9.797445"><ele>309.0</ele><time>2026-04-20T13:12:29.9Z</time></trkpt><trkpt lat="32.8737183" lon="9.7972933"><ele>309.25</ele><time>2026-04-20T13:12:30.9Z</time></trkpt><trkpt lat="32.87372" lon="9.79715"><ele>309.5</ele><time>2026-04-20T13:12:31.901Z</time></trkpt><trkpt lat="32.87372" lon="9.7969967"><ele>309.75</ele><time>2026-04-20T13:12:32.9Z</time></trkpt><trkpt lat="32.8737167" lon="9.7968433"><ele>310.0</ele><time>2026-04-20T13:12:33.9Z</time></trkpt><trkpt lat="32.8737133" lon="9.7966867"><ele>310.0</ele><time>2026-04-20T13:12:34.9Z</time></trkpt><trkpt lat="32.8737183" lon="9.796535"><ele>310.0</ele><time>2026-04-20T13:12:35.9Z</time></trkpt><trkpt lat="32.8737267" lon="9.7963867"><ele>310.0</ele><time>2026-04-20T13:12:36.9Z</time></trkpt><trkpt lat="32.8737433" lon="9.7962467"><ele>310.0</ele><time>2026-04-20T13:12:37.9Z</time></trkpt><trkpt lat="32.8737767" lon="9.7961033"><ele>309.5</ele><time>2026-04-20T13:12:38.9Z</time></trkpt><trkpt lat="32.873805" lon="9.7959633"><ele>309.0</ele><time>2026-04-20T13:12:39.9Z</time></trkpt><trkpt lat="32.8738383" lon="9.795815"><ele>308.5</ele><time>2026-04-20T13:12:40.9Z</time></trkpt><trkpt lat="32.873885" lon="9.7956783"><ele>308.0</ele><time>2026-04-20T13:12:41.9Z</time></trkpt><trkpt lat="32.8739317" lon="9.7955467"><ele>308.0</ele><time>2026-04-20T13:12:42.9Z</time></trkpt><trkpt lat="32.8739917" lon="9.7954117"><ele>308.0</ele><time>2026-04-20T13:12:43.9Z</time></trkpt><trkpt lat="32.8740383" lon="9.79528"><ele>308.0</ele><time>2026-04-20T13:12:44.9Z</time></trkpt><trkpt lat="32.8741083" lon="9.7951367"><ele>308.0</ele><time>2026-04-20T13:12:45.9Z</time></trkpt><trkpt lat="32.8741617" lon="9.7949883"><ele>308.25</ele><time>2026-04-20T13:12:46.9Z</time></trkpt><trkpt lat="32.87424" lon="9.7948583"><ele>308.5</ele><time>2026-04-20T13:12:47.9Z</time></trkpt><trkpt lat="32.8743067" lon="9.7947333"><ele>308.75</ele><time>2026-04-20T13:12:48.9Z</time></trkpt><trkpt lat="32.87437" lon="9.7946167"><ele>309.0</ele><time>2026-04-20T13:12:49.9Z</time></trkpt><trkpt lat="32.87442" lon="9.7944967"><ele>309.0</ele><time>2026-04-20T13:12:50.9Z</time></trkpt><trkpt lat="32.8744717" lon="9.794375"><ele>309.0</ele><time>2026-04-20T13:12:51.9Z</time></trkpt><trkpt lat="32.8745233" lon="9.7942467"><ele>309.0</ele><time>2026-04-20T13:12:52.9Z</time></trkpt><trkpt lat="32.8745767" lon="9.794115"><ele>309.0</ele><time>2026-04-20T13:12:53.9Z</time></trkpt><trkpt lat="32.874635" lon="9.7939833"><ele>309.0</ele><time>2026-04-20T13:12:54.9Z</time></trkpt><trkpt lat="32.8746967" lon="9.7938467"><ele>309.0</ele><time>2026-04-20T13:12:55.9Z</time></trkpt><trkpt lat="32.87476" lon="9.7937133"><ele>309.0</ele><time>2026-04-20T13:12:56.9Z</time></trkpt><trkpt lat="32.874825" lon="9.7935917"><ele>309.0</ele><time>2026-04-20T13:12:57.9Z</time></trkpt><trkpt lat="32.8748967" lon="9.7934717"><ele>309.25</ele><time>2026-04-20T13:12:58.9Z</time></trkpt><trkpt lat="32.874975" lon="9.7933517"><ele>309.5</ele><time>2026-04-20T13:12:59.9Z</time></trkpt><trkpt lat="32.8750483" lon="9.7932317"><ele>309.75</ele><time>2026-04-20T13:13:00.9Z</time></trkpt><trkpt lat="32.8751333" lon="9.7931117"><ele>310.0</ele><time>2026-04-20T13:13:01.9Z</time></trkpt><trkpt lat="32.875225" lon="9.7929983"><ele>310.5</ele><time>2026-04-20T13:13:02.9Z</time></trkpt><trkpt lat="32.8753217" lon="9.7928933"><ele>311.0</ele><time>2026-04-20T13:13:03.9Z</time></trkpt><trkpt lat="32.875415" lon="9.7927833"><ele>311.5</ele><time>2026-04-20T13:13:04.9Z</time></trkpt><trkpt lat="32.8755117" lon="9.7926733"><ele>312.0</ele><time>2026-04-20T13:13:05.9Z</time></trkpt><trkpt lat="32.875605" lon="9.7925667"><ele>312.25</ele><time>2026-04-20T13:13:06.9Z</time></trkpt><trkpt lat="32.8756967" lon="9.7924583"><ele>312.5</ele><time>2026-04-20T13:13:07.9Z</time></trkpt><trkpt lat="32.8757817" lon="9.792345"><ele>312.75</ele><time>2026-04-20T13:13:08.9Z</time></trkpt><trkpt lat="32.8758617" lon="9.792225"><ele>313.0</ele><time>2026-04-20T13:13:09.9Z</time></trkpt><trkpt lat="32.8759417" lon="9.792105"><ele>313.0</ele><time>2026-04-20T13:13:10.9Z</time></trkpt><trkpt lat="32.8760183" lon="9.791985"><ele>313.0</ele><time>2026-04-20T13:13:11.9Z</time></trkpt><trkpt lat="32.8760983" lon="9.79186"><ele>313.0</ele><time>2026-04-20T13:13:12.9Z</time></trkpt><trkpt lat="32.8761817" lon="9.7917367"><ele>313.0</ele><time>2026-04-20T13:13:13.9Z</time></trkpt><trkpt lat="32.87626" lon="9.7916167"><ele>313.5</ele><time>2026-04-20T13:13:14.9Z</time></trkpt><trkpt lat="32.8763417" lon="9.7914983"><ele>314.0</ele><time>2026-04-20T13:13:15.9Z</time></trkpt><trkpt lat="32.8764167" lon="9.7913817"><ele>314.5</ele><time>2026-04-20T13:13:16.9Z</time></trkpt><trkpt lat="32.8764883" lon="9.79127"><ele>315.0</ele><time>2026-04-20T13:13:17.9Z</time></trkpt><trkpt lat="32.8765617" lon="9.7911667"><ele>315.0</ele><time>2026-04-20T13:13:18.9Z</time></trkpt><trkpt lat="32.876645" lon="9.791065"><ele>315.0</ele><time>2026-04-20T13:13:19.9Z</time></trkpt><trkpt lat="32.876725" lon="9.790955"><ele>315.0</ele><time>2026-04-20T13:13:20.9Z</time></trkpt><trkpt lat="32.8768067" lon="9.7908533"><ele>315.0</ele><time>2026-04-20T13:13:21.9Z</time></trkpt><trkpt lat="32.8768817" lon="9.7907533"><ele>315.4</ele><time>2026-04-20T13:13:22.9Z</time></trkpt><trkpt lat="32.876955" lon="9.7906767"><ele>315.8</ele><time>2026-04-20T13:13:23.9Z</time></trkpt><trkpt lat="32.87701" lon="9.7906033"><ele>316.2</ele><time>2026-04-20T13:13:24.9Z</time></trkpt><trkpt lat="32.8770483" lon="9.790535"><ele>316.6</ele><time>2026-04-20T13:13:25.9Z</time></trkpt><trkpt lat="32.87712" lon="9.7904217"><ele>317.0</ele><time>2026-04-20T13:13:27.9Z</time></trkpt><trkpt lat="32.87717" lon="9.7903283"><ele>317.0</ele><time>2026-04-20T13:13:29.9Z</time></trkpt><trkpt lat="32.8772083" lon="9.7902583"><ele>317.0</ele><time>2026-04-20T13:14:39.9Z</time></trkpt><trkpt lat="32.8772717" lon="9.7901367"><ele>317.0</ele><time>2026-04-20T13:14:41.9Z</time></trkpt><trkpt lat="32.8773117" lon="9.79005"><ele>317.0</ele><time>2026-04-20T13:14:42.9Z</time></trkpt><trkpt lat="32.8773567" lon="9.7899617"><ele>317.0</ele><time>2026-04-20T13:14:43.9Z</time></trkpt><trkpt lat="32.877405" lon="9.7898617"><ele>316.75</ele><time>2026-04-20T13:14:44.9Z</time></trkpt><trkpt lat="32.8774517" lon="9.7897567"><ele>316.5</ele><time>2026-04-20T13:14:45.9Z</time></trkpt><trkpt lat="32.8774983" lon="9.7896467"><ele>316.25</ele><time>2026-04-20T13:14:46.9Z</time></trkpt><trkpt lat="32.8775817" lon="9.7894017"><ele>316.0</ele><time>2026-04-20T13:14:48.9Z</time></trkpt><trkpt lat="32.877615" lon="9.789275"><ele>315.25</ele><time>2026-04-20T13:14:49.9Z</time></trkpt><trkpt lat="32.8776583" lon="9.78915"><ele>314.5</ele><time>2026-04-20T13:14:50.9Z</time></trkpt><trkpt lat="32.8777" lon="9.7890217"><ele>313.75</ele><time>2026-04-20T13:14:51.9Z</time></trkpt><trkpt lat="32.8777483" lon="9.7888967"><ele>313.0</ele><time>2026-04-20T13:14:52.9Z</time></trkpt><trkpt lat="32.8777867" lon="9.7887583"><ele>313.0</ele><time>2026-04-20T13:14:53.9Z</time></trkpt><trkpt lat="32.8778133" lon="9.7886283"><ele>313.0</ele><time>2026-04-20T13:14:54.9Z</time></trkpt><trkpt lat="32.87784" lon="9.7884983"><ele>313.0</ele><time>2026-04-20T13:14:55.9Z</time></trkpt><trkpt lat="32.8778667" lon="9.7883633"><ele>313.0</ele><time>2026-04-20T13:14:56.9Z</time></trkpt><trkpt lat="32.8778983" lon="9.7882183"><ele>312.75</ele><time>2026-04-20T13:14:57.9Z</time></trkpt><trkpt lat="32.877935" lon="9.78808"><ele>312.5</ele><time>2026-04-20T13:14:58.9Z</time></trkpt><trkpt lat="32.877965" lon="9.7879333"><ele>312.25</ele><time>2026-04-20T13:14:59.899Z</time></trkpt><trkpt lat="32.878" lon="9.787795"><ele>312.0</ele><time>2026-04-20T13:15:00.899Z</time></trkpt><trkpt lat="32.8780367" lon="9.787665"><ele>312.0</ele><time>2026-04-20T13:15:01.899Z</time></trkpt><trkpt lat="32.8780583" lon="9.78754"><ele>312.0</ele><time>2026-04-20T13:15:02.899Z</time></trkpt><trkpt lat="32.8780783" lon="9.7874133"><ele>312.0</ele><time>2026-04-20T13:15:03.899Z</time></trkpt><trkpt lat="32.8780983" lon="9.7872883"><ele>312.0</ele><time>2026-04-20T13:15:04.899Z</time></trkpt><trkpt lat="32.8781167" lon="9.787155"><ele>312.0</ele><time>2026-04-20T13:15:05.899Z</time></trkpt><trkpt lat="32.8781283" lon="9.7870233"><ele>312.0</ele><time>2026-04-20T13:15:06.899Z</time></trkpt><trkpt lat="32.8781367" lon="9.7868867"><ele>312.0</ele><time>2026-04-20T13:15:07.899Z</time></trkpt><trkpt lat="32.8781417" lon="9.7867383"><ele>312.0</ele><time>2026-04-20T13:15:08.899Z</time></trkpt><trkpt lat="32.8781367" lon="9.786595"><ele>312.0</ele><time>2026-04-20T13:15:09.899Z</time></trkpt><trkpt lat="32.8781317" lon="9.786445"><ele>311.25</ele><time>2026-04-20T13:15:10.899Z</time></trkpt><trkpt lat="32.87813" lon="9.7862867"><ele>310.5</ele><time>2026-04-20T13:15:11.899Z</time></trkpt><trkpt lat="32.8781283" lon="9.7861267"><ele>309.75</ele><time>2026-04-20T13:15:12.899Z</time></trkpt><trkpt lat="32.8781217" lon="9.7859683"><ele>309.0</ele><time>2026-04-20T13:15:13.899Z</time></trkpt><trkpt lat="32.8781117" lon="9.7858033"><ele>308.5</ele><time>2026-04-20T13:15:14.899Z</time></trkpt><trkpt lat="32.8781067" lon="9.785645"><ele>308.0</ele><time>2026-04-20T13:15:15.899Z</time></trkpt><trkpt lat="32.8780833" lon="9.7854917"><ele>307.5</ele><time>2026-04-20T13:15:16.899Z</time></trkpt><trkpt lat="32.878055" lon="9.785325"><ele>307.0</ele><time>2026-04-20T13:15:17.899Z</time></trkpt><trkpt lat="32.87803" lon="9.78516"><ele>306.0</ele><time>2026-04-20T13:15:18.899Z</time></trkpt><trkpt lat="32.878005" lon="9.7849917"><ele>305.0</ele><time>2026-04-20T13:15:19.899Z</time></trkpt><trkpt lat="32.8779783" lon="9.7848217"><ele>304.0</ele><time>2026-04-20T13:15:20.899Z</time></trkpt><trkpt lat="32.8779467" lon="9.7846533"><ele>303.0</ele><time>2026-04-20T13:15:21.899Z</time></trkpt><trkpt lat="32.8779133" lon="9.78448"><ele>302.3333333333333</ele><time>2026-04-20T13:15:22.899Z</time></trkpt><trkpt lat="32.8778867" lon="9.784305"><ele>301.66666666666663</ele><time>2026-04-20T13:15:23.899Z</time></trkpt><trkpt lat="32.8778617" lon="9.7841267"><ele>301.0</ele><time>2026-04-20T13:15:24.899Z</time></trkpt><trkpt lat="32.8778333" lon="9.783945"><ele>301.0</ele><time>2026-04-20T13:15:25.899Z</time></trkpt><trkpt lat="32.8778083" lon="9.783765"><ele>301.0</ele><time>2026-04-20T13:15:26.899Z</time></trkpt><trkpt lat="32.877785" lon="9.7835817"><ele>301.0</ele><time>2026-04-20T13:15:27.899Z</time></trkpt><trkpt lat="32.877765" lon="9.7834067"><ele>301.5</ele><time>2026-04-20T13:15:28.899Z</time></trkpt><trkpt lat="32.8777567" lon="9.78324"><ele>302.0</ele><time>2026-04-20T13:15:29.899Z</time></trkpt><trkpt lat="32.8777517" lon="9.7830633"><ele>302.5</ele><time>2026-04-20T13:15:30.899Z</time></trkpt><trkpt lat="32.877745" lon="9.7828783"><ele>303.0</ele><time>2026-04-20T13:15:31.899Z</time></trkpt><trkpt lat="32.8777367" lon="9.7827017"><ele>303.5</ele><time>2026-04-20T13:15:32.899Z</time></trkpt><trkpt lat="32.8777267" lon="9.7825317"><ele>304.0</ele><time>2026-04-20T13:15:33.899Z</time></trkpt><trkpt lat="32.8777233" lon="9.7823533"><ele>304.5</ele><time>2026-04-20T13:15:34.899Z</time></trkpt><trkpt lat="32.877715" lon="9.7821733"><ele>305.0</ele><time>2026-04-20T13:15:35.899Z</time></trkpt><trkpt lat="32.8777133" lon="9.7819983"><ele>305.5</ele><time>2026-04-20T13:15:36.899Z</time></trkpt><trkpt lat="32.877725" lon="9.7818183"><ele>306.0</ele><time>2026-04-20T13:15:37.899Z</time></trkpt><trkpt lat="32.8777383" lon="9.7816383"><ele>306.5</ele><time>2026-04-20T13:15:38.899Z</time></trkpt><trkpt lat="32.877755" lon="9.7814717"><ele>307.0</ele><time>2026-04-20T13:15:39.899Z</time></trkpt><trkpt lat="32.8777717" lon="9.7812983"><ele>307.0</ele><time>2026-04-20T13:15:40.899Z</time></trkpt><trkpt lat="32.877795" lon="9.7811333"><ele>307.0</ele><time>2026-04-20T13:15:41.899Z</time></trkpt><trkpt lat="32.8778233" lon="9.7809733"><ele>307.0</ele><time>2026-04-20T13:15:42.899Z</time></trkpt><trkpt lat="32.8778483" lon="9.78082"><ele>307.0</ele><time>2026-04-20T13:15:43.899Z</time></trkpt><trkpt lat="32.87788" lon="9.780685"><ele>307.25</ele><time>2026-04-20T13:15:44.899Z</time></trkpt><trkpt lat="32.877915" lon="9.7805717"><ele>307.5</ele><time>2026-04-20T13:15:45.899Z</time></trkpt><trkpt lat="32.8779583" lon="9.7804683"><ele>307.75</ele><time>2026-04-20T13:15:46.899Z</time></trkpt><trkpt lat="32.8780633" lon="9.7802667"><ele>308.0</ele><time>2026-04-20T13:15:48.899Z</time></trkpt><trkpt lat="32.87812" lon="9.7801717"><ele>308.0</ele><time>2026-04-20T13:15:49.899Z</time></trkpt><trkpt lat="32.8781833" lon="9.7800683"><ele>308.0</ele><time>2026-04-20T13:15:50.899Z</time></trkpt><trkpt lat="32.8782417" lon="9.779965"><ele>308.0</ele><time>2026-04-20T13:15:51.899Z</time></trkpt><trkpt lat="32.8783017" lon="9.7798683"><ele>308.0</ele><time>2026-04-20T13:15:52.899Z</time></trkpt><trkpt lat="32.8783583" lon="9.7797717"><ele>308.0</ele><time>2026-04-20T13:15:53.899Z</time></trkpt><trkpt lat="32.87842" lon="9.7796683"><ele>307.5</ele><time>2026-04-20T13:15:54.899Z</time></trkpt><trkpt lat="32.8784933" lon="9.7795683"><ele>307.0</ele><time>2026-04-20T13:15:55.899Z</time></trkpt><trkpt lat="32.878565" lon="9.779465"><ele>306.5</ele><time>2026-04-20T13:15:56.899Z</time></trkpt><trkpt lat="32.8786417" lon="9.7793567"><ele>306.0</ele><time>2026-04-20T13:15:57.899Z</time></trkpt><trkpt lat="32.87873" lon="9.7792533"><ele>306.0</ele><time>2026-04-20T13:15:58.899Z</time></trkpt><trkpt lat="32.8788133" lon="9.7791533"><ele>306.0</ele><time>2026-04-20T13:15:59.899Z</time></trkpt><trkpt lat="32.878905" lon="9.7790567"><ele>306.0</ele><time>2026-04-20T13:16:00.899Z</time></trkpt><trkpt lat="32.8790033" lon="9.7789567"><ele>306.0</ele><time>2026-04-20T13:16:01.899Z</time></trkpt><trkpt lat="32.8791" lon="9.77886"><ele>306.0</ele><time>2026-04-20T13:16:02.899Z</time></trkpt><trkpt lat="32.8791933" lon="9.778765"><ele>306.0</ele><time>2026-04-20T13:16:03.899Z</time></trkpt><trkpt lat="32.8792833" lon="9.778665"><ele>306.0</ele><time>2026-04-20T13:16:04.899Z</time></trkpt><trkpt lat="32.8793767" lon="9.7785717"><ele>306.0</ele><time>2026-04-20T13:16:05.899Z</time></trkpt><trkpt lat="32.8794683" lon="9.7784733"><ele>305.0</ele><time>2026-04-20T13:16:06.899Z</time></trkpt><trkpt lat="32.8795567" lon="9.7783683"><ele>304.0</ele><time>2026-04-20T13:16:07.899Z</time></trkpt><trkpt lat="32.87963" lon="9.7782583"><ele>303.0</ele><time>2026-04-20T13:16:08.899Z</time></trkpt><trkpt lat="32.8797133" lon="9.77814"><ele>302.0</ele><time>2026-04-20T13:16:09.899Z</time></trkpt><trkpt lat="32.8797917" lon="9.7780167"><ele>302.0</ele><time>2026-04-20T13:16:10.899Z</time></trkpt><trkpt lat="32.8798533" lon="9.777895"><ele>302.0</ele><time>2026-04-20T13:16:11.899Z</time></trkpt><trkpt lat="32.879915" lon="9.7777783"><ele>302.0</ele><time>2026-04-20T13:16:12.899Z</time></trkpt><trkpt lat="32.8799767" lon="9.7776517"><ele>302.0</ele><time>2026-04-20T13:16:13.899Z</time></trkpt><trkpt lat="32.88003" lon="9.7775183"><ele>301.75</ele><time>2026-04-20T13:16:14.899Z</time></trkpt><trkpt lat="32.88008" lon="9.7773867"><ele>301.5</ele><time>2026-04-20T13:16:15.899Z</time></trkpt><trkpt lat="32.880125" lon="9.7772517"><ele>301.25</ele><time>2026-04-20T13:16:16.899Z</time></trkpt><trkpt lat="32.8801767" lon="9.7771117"><ele>301.0</ele><time>2026-04-20T13:16:17.899Z</time></trkpt><trkpt lat="32.8802283" lon="9.7769783"><ele>300.5</ele><time>2026-04-20T13:16:18.899Z</time></trkpt><trkpt lat="32.880275" lon="9.7768483"><ele>300.0</ele><time>2026-04-20T13:16:19.899Z</time></trkpt><trkpt lat="32.880325" lon="9.7767117"><ele>299.5</ele><time>2026-04-20T13:16:20.899Z</time></trkpt><trkpt lat="32.8803733" lon="9.7765767"><ele>299.0</ele><time>2026-04-20T13:16:21.899Z</time></trkpt><trkpt lat="32.880425" lon="9.776445"><ele>299.0</ele><time>2026-04-20T13:16:22.899Z</time></trkpt><trkpt lat="32.880475" lon="9.77632"><ele>299.0</ele><time>2026-04-20T13:16:23.899Z</time></trkpt><trkpt lat="32.88053" lon="9.776195"><ele>299.0</ele><time>2026-04-20T13:16:24.899Z</time></trkpt><trkpt lat="32.8805867" lon="9.7760683"><ele>299.0</ele><time>2026-04-20T13:16:25.899Z</time></trkpt><trkpt lat="32.8806467" lon="9.7759417"><ele>298.5</ele><time>2026-04-20T13:16:26.899Z</time></trkpt><trkpt lat="32.8807133" lon="9.7758183"><ele>298.0</ele><time>2026-04-20T13:16:27.899Z</time></trkpt><trkpt lat="32.8807867" lon="9.7756867"><ele>297.5</ele><time>2026-04-20T13:16:28.899Z</time></trkpt><trkpt lat="32.8808617" lon="9.7755633"><ele>297.0</ele><time>2026-04-20T13:16:29.899Z</time></trkpt><trkpt lat="32.8809383" lon="9.7754383"><ele>297.0</ele><time>2026-04-20T13:16:30.899Z</time></trkpt><trkpt lat="32.8810067" lon="9.7753067"><ele>297.0</ele><time>2026-04-20T13:16:31.899Z</time></trkpt><trkpt lat="32.8810733" lon="9.7751633"><ele>297.0</ele><time>2026-04-20T13:16:32.899Z</time></trkpt><trkpt lat="32.8811467" lon="9.7750183"><ele>297.0</ele><time>2026-04-20T13:16:33.899Z</time></trkpt><trkpt lat="32.881225" lon="9.7748733"><ele>295.6666666666667</ele><time>2026-04-20T13:16:34.899Z</time></trkpt><trkpt lat="32.881315" lon="9.7747267"><ele>294.33333333333337</ele><time>2026-04-20T13:16:35.899Z</time></trkpt><trkpt lat="32.8814083" lon="9.77458"><ele>293.0</ele><time>2026-04-20T13:16:36.899Z</time></trkpt><trkpt lat="32.8814983" lon="9.7744267"><ele>292.0</ele><time>2026-04-20T13:16:37.899Z</time></trkpt><trkpt lat="32.8815883" lon="9.7742767"><ele>291.0</ele><time>2026-04-20T13:16:38.899Z</time></trkpt><trkpt lat="32.88168" lon="9.7741317"><ele>290.0</ele><time>2026-04-20T13:16:39.899Z</time></trkpt><trkpt lat="32.8817567" lon="9.7739833"><ele>290.0</ele><time>2026-04-20T13:16:40.899Z</time></trkpt><trkpt lat="32.88182" lon="9.7738483"><ele>290.0</ele><time>2026-04-20T13:16:41.899Z</time></trkpt><trkpt lat="32.8818767" lon="9.77372"><ele>290.0</ele><time>2026-04-20T13:16:42.899Z</time></trkpt><trkpt lat="32.8819267" lon="9.7736167"><ele>290.0</ele><time>2026-04-20T13:16:43.899Z</time></trkpt><trkpt lat="32.88197" lon="9.7735217"><ele>290.0</ele><time>2026-04-20T13:16:44.899Z</time></trkpt><trkpt lat="32.8820083" lon="9.773455"><ele>290.0</ele><time>2026-04-20T13:16:45.899Z</time></trkpt><trkpt lat="32.8820733" lon="9.7733717"><ele>290.0</ele><time>2026-04-20T13:16:47.899Z</time></trkpt><trkpt lat="32.8821467" lon="9.773345"><ele>290.0</ele><time>2026-04-20T13:16:49.899Z</time></trkpt><trkpt lat="32.8822483" lon="9.773385"><ele>290.0</ele><time>2026-04-20T13:16:51.899Z</time></trkpt><trkpt lat="32.8823033" lon="9.7734233"><ele>290.0</ele><time>2026-04-20T13:16:52.899Z</time></trkpt><trkpt lat="32.8823617" lon="9.77347"><ele>290.0</ele><time>2026-04-20T13:16:53.899Z</time></trkpt><trkpt lat="32.8824233" lon="9.7735183"><ele>290.2857142857143</ele><time>2026-04-20T13:16:54.899Z</time></trkpt><trkpt lat="32.8824833" lon="9.7735633"><ele>290.5714285714286</ele><time>2026-04-20T13:16:55.899Z</time></trkpt><trkpt lat="32.8825433" lon="9.7736"><ele>290.8571428571429</ele><time>2026-04-20T13:16:56.899Z</time></trkpt><trkpt lat="32.8826" lon="9.7736367"><ele>291.14285714285717</ele><time>2026-04-20T13:16:57.899Z</time></trkpt><trkpt lat="32.8826617" lon="9.7736667"><ele>291.42857142857144</ele><time>2026-04-20T13:16:58.899Z</time></trkpt><trkpt lat="32.88273" lon="9.7736917"><ele>291.7142857142857</ele><time>2026-04-20T13:16:59.899Z</time></trkpt><trkpt lat="32.8828" lon="9.7737083"><ele>292.0</ele><time>2026-04-20T13:17:00.899Z</time></trkpt><trkpt lat="32.882875" lon="9.7737217"><ele>292.3333333333333</ele><time>2026-04-20T13:17:01.899Z</time></trkpt><trkpt lat="32.882955" lon="9.7737383"><ele>292.66666666666663</ele><time>2026-04-20T13:17:02.899Z</time></trkpt><trkpt lat="32.8830433" lon="9.7737517"><ele>293.0</ele><time>2026-04-20T13:17:03.899Z</time></trkpt><trkpt lat="32.8831333" lon="9.773765"><ele>293.3333333333333</ele><time>2026-04-20T13:17:04.899Z</time></trkpt><trkpt lat="32.8832233" lon="9.77378"><ele>293.6666666666667</ele><time>2026-04-20T13:17:05.899Z</time></trkpt><trkpt lat="32.8833133" lon="9.7737983"><ele>294.0</ele><time>2026-04-20T13:17:06.899Z</time></trkpt><trkpt lat="32.8834033" lon="9.7738133"><ele>293.5</ele><time>2026-04-20T13:17:07.899Z</time></trkpt><trkpt lat="32.8834967" lon="9.7738183"><ele>293.0</ele><time>2026-04-20T13:17:08.899Z</time></trkpt><trkpt lat="32.883585" lon="9.7738233"><ele>292.5</ele><time>2026-04-20T13:17:09.899Z</time></trkpt><trkpt lat="32.8836717" lon="9.773825"><ele>292.0</ele><time>2026-04-20T13:17:10.899Z</time></trkpt><trkpt lat="32.88376" lon="9.773825"><ele>291.5</ele><time>2026-04-20T13:17:11.899Z</time></trkpt><trkpt lat="32.8838467" lon="9.77382"><ele>291.0</ele><time>2026-04-20T13:17:12.899Z</time></trkpt><trkpt lat="32.8839217" lon="9.77382"><ele>291.0</ele><time>2026-04-20T13:17:13.899Z</time></trkpt><trkpt lat="32.8839917" lon="9.7738233"><ele>291.0</ele><time>2026-04-20T13:17:14.899Z</time></trkpt><trkpt lat="32.8840583" lon="9.7738233"><ele>291.0</ele><time>2026-04-20T13:17:15.899Z</time></trkpt><trkpt lat="32.8841283" lon="9.7738217"><ele>291.0</ele><time>2026-04-20T13:17:16.899Z</time></trkpt><trkpt lat="32.8842033" lon="9.773825"><ele>291.0</ele><time>2026-04-20T13:17:17.899Z</time></trkpt><trkpt lat="32.884275" lon="9.773825"><ele>291.0</ele><time>2026-04-20T13:17:18.899Z</time></trkpt><trkpt lat="32.8843517" lon="9.7738267"><ele>291.0</ele><time>2026-04-20T13:17:19.899Z</time></trkpt><trkpt lat="32.8844267" lon="9.77382"><ele>291.2</ele><time>2026-04-20T13:17:20.899Z</time></trkpt><trkpt lat="32.8845067" lon="9.77382"><ele>291.40000000000003</ele><time>2026-04-20T13:17:21.899Z</time></trkpt><trkpt lat="32.8845933" lon="9.7738133"><ele>291.6</ele><time>2026-04-20T13:17:22.899Z</time></trkpt><trkpt lat="32.8846817" lon="9.7738"><ele>291.8</ele><time>2026-04-20T13:17:23.899Z</time></trkpt><trkpt lat="32.8847733" lon="9.7737917"><ele>292.0</ele><time>2026-04-20T13:17:24.899Z</time></trkpt><trkpt lat="32.8848767" lon="9.7737767"><ele>292.0</ele><time>2026-04-20T13:17:25.899Z</time></trkpt><trkpt lat="32.8849783" lon="9.7737633"><ele>292.0</ele><time>2026-04-20T13:17:26.899Z</time></trkpt><trkpt lat="32.8850767" lon="9.77374"><ele>292.0</ele><time>2026-04-20T13:17:27.899Z</time></trkpt><trkpt lat="32.8851783" lon="9.7737183"><ele>292.0</ele><time>2026-04-20T13:17:28.899Z</time></trkpt><trkpt lat="32.8852833" lon="9.773695"><ele>292.0</ele><time>2026-04-20T13:17:29.899Z</time></trkpt><trkpt lat="32.8853833" lon="9.7736683"><ele>292.6</ele><time>2026-04-20T13:17:30.899Z</time></trkpt><trkpt lat="32.8854883" lon="9.7736517"><ele>293.2</ele><time>2026-04-20T13:17:31.899Z</time></trkpt><trkpt lat="32.8855917" lon="9.77363"><ele>293.8</ele><time>2026-04-20T13:17:32.899Z</time></trkpt><trkpt lat="32.8856867" lon="9.773605"><ele>294.4</ele><time>2026-04-20T13:17:33.899Z</time></trkpt><trkpt lat="32.885785" lon="9.7735783"><ele>295.0</ele><time>2026-04-20T13:17:34.899Z</time></trkpt><trkpt lat="32.885875" lon="9.7735533"><ele>295.16666666666663</ele><time>2026-04-20T13:17:35.899Z</time></trkpt><trkpt lat="32.885955" lon="9.7735333"><ele>295.3333333333333</ele><time>2026-04-20T13:17:36.899Z</time></trkpt><trkpt lat="32.8860317" lon="9.7735217"><ele>295.5</ele><time>2026-04-20T13:17:37.899Z</time></trkpt><trkpt lat="32.886115" lon="9.7735067"><ele>295.6666666666667</ele><time>2026-04-20T13:17:38.899Z</time></trkpt><trkpt lat="32.8862067" lon="9.7734917"><ele>295.83333333333337</ele><time>2026-04-20T13:17:39.899Z</time></trkpt><trkpt lat="32.8863033" lon="9.7734667"><ele>296.0</ele><time>2026-04-20T13:17:40.899Z</time></trkpt><trkpt lat="32.8863967" lon="9.7734417"><ele>296.40000000000003</ele><time>2026-04-20T13:17:41.899Z</time></trkpt><trkpt lat="32.8864933" lon="9.7734283"><ele>296.8</ele><time>2026-04-20T13:17:42.899Z</time></trkpt><trkpt lat="32.88659" lon="9.7734183"><ele>297.20000000000005</ele><time>2026-04-20T13:17:43.899Z</time></trkpt><trkpt lat="32.88668" lon="9.773405"><ele>297.6</ele><time>2026-04-20T13:17:44.899Z</time></trkpt><trkpt lat="32.8867717" lon="9.773385"><ele>298.0</ele><time>2026-04-20T13:17:45.899Z</time></trkpt><trkpt lat="32.8868467" lon="9.773375"><ele>298.0</ele><time>2026-04-20T13:17:46.899Z</time></trkpt><trkpt lat="32.88691" lon="9.7733683"><ele>298.0</ele><time>2026-04-20T13:17:47.899Z</time></trkpt><trkpt lat="32.8870267" lon="9.7733517"><ele>298.0</ele><time>2026-04-20T13:17:49.899Z</time></trkpt><trkpt lat="32.8871517" lon="9.77333"><ele>298.0</ele><time>2026-04-20T13:17:51.899Z</time></trkpt><trkpt lat="32.88722" lon="9.7733167"><ele>298.0</ele><time>2026-04-20T13:17:52.899Z</time></trkpt><trkpt lat="32.88729" lon="9.773305"><ele>298.0</ele><time>2026-04-20T13:17:53.899Z</time></trkpt><trkpt lat="32.8873617" lon="9.7732917"><ele>298.0</ele><time>2026-04-20T13:17:54.899Z</time></trkpt><trkpt lat="32.8874433" lon="9.7732767"><ele>298.0</ele><time>2026-04-20T13:17:55.899Z</time></trkpt><trkpt lat="32.8875233" lon="9.7732633"><ele>298.0</ele><time>2026-04-20T13:17:56.899Z</time></trkpt><trkpt lat="32.8875983" lon="9.7732433"><ele>298.0</ele><time>2026-04-20T13:17:57.899Z</time></trkpt><trkpt lat="32.8876833" lon="9.7732183"><ele>298.0</ele><time>2026-04-20T13:17:58.899Z</time></trkpt><trkpt lat="32.887775" lon="9.7732"><ele>298.0</ele><time>2026-04-20T13:17:59.899Z</time></trkpt><trkpt lat="32.8878683" lon="9.77318"><ele>298.0</ele><time>2026-04-20T13:18:00.899Z</time></trkpt><trkpt lat="32.8879583" lon="9.7731533"><ele>298.0</ele><time>2026-04-20T13:18:01.899Z</time></trkpt><trkpt lat="32.88805" lon="9.7731283"><ele>298.0</ele><time>2026-04-20T13:18:02.899Z</time></trkpt><trkpt lat="32.888145" lon="9.7731033"><ele>298.0</ele><time>2026-04-20T13:18:03.899Z</time></trkpt><trkpt lat="32.88824" lon="9.7730917"><ele>298.0</ele><time>2026-04-20T13:18:04.899Z</time></trkpt><trkpt lat="32.8883283" lon="9.7730767"><ele>298.0</ele><time>2026-04-20T13:18:05.899Z</time></trkpt><trkpt lat="32.8884233" lon="9.7730717"><ele>298.0</ele><time>2026-04-20T13:18:06.899Z</time></trkpt><trkpt lat="32.8885167" lon="9.773075"><ele>298.0</ele><time>2026-04-20T13:18:07.899Z</time></trkpt><trkpt lat="32.88861" lon="9.7730783"><ele>298.0</ele><time>2026-04-20T13:18:08.899Z</time></trkpt><trkpt lat="32.8887017" lon="9.7730833"><ele>298.0</ele><time>2026-04-20T13:18:09.898Z</time></trkpt><trkpt lat="32.8887967" lon="9.7730883"><ele>298.0</ele><time>2026-04-20T13:18:10.898Z</time></trkpt><trkpt lat="32.8888883" lon="9.7730917"><ele>298.0</ele><time>2026-04-20T13:18:11.898Z</time></trkpt><trkpt lat="32.88898" lon="9.7730917"><ele>298.0</ele><time>2026-04-20T13:18:12.898Z</time></trkpt><trkpt lat="32.8890717" lon="9.773095"><ele>298.0</ele><time>2026-04-20T13:18:13.898Z</time></trkpt><trkpt lat="32.8891683" lon="9.7730967"><ele>298.0</ele><time>2026-04-20T13:18:14.898Z</time></trkpt><trkpt lat="32.8892667" lon="9.7731017"><ele>297.2</ele><time>2026-04-20T13:18:15.898Z</time></trkpt><trkpt lat="32.8893683" lon="9.7731083"><ele>296.4</ele><time>2026-04-20T13:18:16.898Z</time></trkpt><trkpt lat="32.889465" lon="9.7731267"><ele>295.59999999999997</ele><time>2026-04-20T13:18:17.898Z</time></trkpt><trkpt lat="32.8895667" lon="9.7731367"><ele>294.8</ele><time>2026-04-20T13:18:18.898Z</time></trkpt><trkpt lat="32.889675" lon="9.7731467"><ele>294.0</ele><time>2026-04-20T13:18:19.898Z</time></trkpt><trkpt lat="32.8897833" lon="9.7731533"><ele>294.0</ele><time>2026-04-20T13:18:20.898Z</time></trkpt><trkpt lat="32.889885" lon="9.7731667"><ele>294.0</ele><time>2026-04-20T13:18:21.898Z</time></trkpt><trkpt lat="32.8899883" lon="9.77318"><ele>294.0</ele><time>2026-04-20T13:18:22.898Z</time></trkpt><trkpt lat="32.89009" lon="9.7731867"><ele>294.0</ele><time>2026-04-20T13:18:23.898Z</time></trkpt><trkpt lat="32.8901917" lon="9.7731917"><ele>294.0</ele><time>2026-04-20T13:18:24.898Z</time></trkpt><trkpt lat="32.8902967" lon="9.7732"><ele>293.4</ele><time>2026-04-20T13:18:25.898Z</time></trkpt><trkpt lat="32.8904017" lon="9.7732017"><ele>292.79999999999995</ele><time>2026-04-20T13:18:26.898Z</time></trkpt><trkpt lat="32.8905067" lon="9.7732"><ele>292.20000000000005</ele><time>2026-04-20T13:18:27.898Z</time></trkpt><trkpt lat="32.8906117" lon="9.7732033"><ele>291.6</ele><time>2026-04-20T13:18:28.898Z</time></trkpt><trkpt lat="32.8907167" lon="9.7732083"><ele>291.0</ele><time>2026-04-20T13:18:29.898Z</time></trkpt><trkpt lat="32.8908233" lon="9.7732033"><ele>291.2</ele><time>2026-04-20T13:18:30.898Z</time></trkpt><trkpt lat="32.890935" lon="9.7732067"><ele>291.40000000000003</ele><time>2026-04-20T13:18:31.898Z</time></trkpt><trkpt lat="32.891045" lon="9.7732017"><ele>291.6</ele><time>2026-04-20T13:18:32.898Z</time></trkpt><trkpt lat="32.8911533" lon="9.77319"><ele>291.8</ele><time>2026-04-20T13:18:33.898Z</time></trkpt><trkpt lat="32.8912633" lon="9.7731833"><ele>292.0</ele><time>2026-04-20T13:18:34.898Z</time></trkpt><trkpt lat="32.8913733" lon="9.7731767"><ele>292.0</ele><time>2026-04-20T13:18:35.898Z</time></trkpt><trkpt lat="32.8914817" lon="9.7731783"><ele>292.0</ele><time>2026-04-20T13:18:36.898Z</time></trkpt><trkpt lat="32.89159" lon="9.7731783"><ele>292.0</ele><time>2026-04-20T13:18:37.898Z</time></trkpt><trkpt lat="32.89169" lon="9.7731833"><ele>292.0</ele><time>2026-04-20T13:18:38.898Z</time></trkpt><trkpt lat="32.8917917" lon="9.7731917"><ele>292.0</ele><time>2026-04-20T13:18:39.898Z</time></trkpt><trkpt lat="32.8918933" lon="9.7732033"><ele>291.2</ele><time>2026-04-20T13:18:40.898Z</time></trkpt><trkpt lat="32.89199" lon="9.773225"><ele>290.4</ele><time>2026-04-20T13:18:41.898Z</time></trkpt><trkpt lat="32.8920883" lon="9.77324"><ele>289.6</ele><time>2026-04-20T13:18:42.898Z</time></trkpt><trkpt lat="32.892185" lon="9.7732467"><ele>288.8</ele><time>2026-04-20T13:18:43.898Z</time></trkpt><trkpt lat="32.892285" lon="9.773255"><ele>288.0</ele><time>2026-04-20T13:18:44.898Z</time></trkpt><trkpt lat="32.89238" lon="9.77326"><ele>288.0</ele><time>2026-04-20T13:18:45.898Z</time></trkpt><trkpt lat="32.89246" lon="9.77327"><ele>288.0</ele><time>2026-04-20T13:18:46.898Z</time></trkpt><trkpt lat="32.8925317" lon="9.773275"><ele>288.0</ele><time>2026-04-20T13:18:47.898Z</time></trkpt><trkpt lat="32.8925983" lon="9.7732783"><ele>288.0</ele><time>2026-04-20T13:18:48.898Z</time></trkpt><trkpt lat="32.8926617" lon="9.7732833"><ele>288.0</ele><time>2026-04-20T13:18:49.898Z</time></trkpt><trkpt lat="32.8927867" lon="9.7733017"><ele>288.0</ele><time>2026-04-20T13:18:51.898Z</time></trkpt><trkpt lat="32.8928533" lon="9.7733083"><ele>288.0</ele><time>2026-04-20T13:18:52.898Z</time></trkpt><trkpt lat="32.8929283" lon="9.773305"><ele>288.0</ele><time>2026-04-20T13:18:53.898Z</time></trkpt><trkpt lat="32.8930067" lon="9.7733017"><ele>288.0</ele><time>2026-04-20T13:18:54.898Z</time></trkpt><trkpt lat="32.8930983" lon="9.7732967"><ele>288.0</ele><time>2026-04-20T13:18:55.898Z</time></trkpt><trkpt lat="32.8931867" lon="9.7732883"><ele>288.0</ele><time>2026-04-20T13:18:56.898Z</time></trkpt><trkpt lat="32.8932783" lon="9.7732817"><ele>288.0</ele><time>2026-04-20T13:18:57.898Z</time></trkpt><trkpt lat="32.89337" lon="9.7732883"><ele>287.6666666666667</ele><time>2026-04-20T13:18:58.898Z</time></trkpt><trkpt lat="32.8934617" lon="9.77328"><ele>287.3333333333333</ele><time>2026-04-20T13:18:59.898Z</time></trkpt><trkpt lat="32.8935517" lon="9.7732833"><ele>287.0</ele><time>2026-04-20T13:19:00.898Z</time></trkpt><trkpt lat="32.893635" lon="9.7732917"><ele>286.66666666666663</ele><time>2026-04-20T13:19:01.898Z</time></trkpt><trkpt lat="32.89372" lon="9.77329"><ele>286.3333333333333</ele><time>2026-04-20T13:19:02.898Z</time></trkpt><trkpt lat="32.8938" lon="9.77329"><ele>286.0</ele><time>2026-04-20T13:19:03.898Z</time></trkpt><trkpt lat="32.89387" lon="9.7732967"><ele>286.0</ele><time>2026-04-20T13:19:04.898Z</time></trkpt><trkpt lat="32.8939433" lon="9.7733"><ele>286.0</ele><time>2026-04-20T13:19:05.898Z</time></trkpt><trkpt lat="32.894025" lon="9.7733033"><ele>286.0</ele><time>2026-04-20T13:19:06.898Z</time></trkpt><trkpt lat="32.8941167" lon="9.7733067"><ele>286.0</ele><time>2026-04-20T13:19:07.898Z</time></trkpt><trkpt lat="32.894215" lon="9.7733167"><ele>286.0</ele><time>2026-04-20T13:19:08.898Z</time></trkpt><trkpt lat="32.8943117" lon="9.773325"><ele>286.0</ele><time>2026-04-20T13:19:09.898Z</time></trkpt><trkpt lat="32.89439" lon="9.77333"><ele>285.8333333333333</ele><time>2026-04-20T13:19:10.898Z</time></trkpt><trkpt lat="32.8944967" lon="9.7733383"><ele>285.66666666666663</ele><time>2026-04-20T13:19:12.898Z</time></trkpt><trkpt lat="32.89457" lon="9.7733517"><ele>285.5</ele><time>2026-04-20T13:19:14.898Z</time></trkpt><trkpt lat="32.894645" lon="9.77336"><ele>285.3333333333333</ele><time>2026-04-20T13:19:16.898Z</time></trkpt><trkpt lat="32.894735" lon="9.7733517"><ele>285.1666666666667</ele><time>2026-04-20T13:19:18.898Z</time></trkpt><trkpt lat="32.8948" lon="9.7733433"><ele>285.0</ele><time>2026-04-20T13:19:19.898Z</time></trkpt><trkpt lat="32.89487" lon="9.7733317"><ele>285.0</ele><time>2026-04-20T13:19:20.898Z</time></trkpt><trkpt lat="32.8949467" lon="9.7733283"><ele>285.0</ele><time>2026-04-20T13:19:21.898Z</time></trkpt><trkpt lat="32.895035" lon="9.7733283"><ele>285.0</ele><time>2026-04-20T13:19:22.898Z</time></trkpt><trkpt lat="32.895125" lon="9.7733317"><ele>285.0</ele><time>2026-04-20T13:19:23.898Z</time></trkpt><trkpt lat="32.8952233" lon="9.7733383"><ele>285.0</ele><time>2026-04-20T13:19:24.898Z</time></trkpt><trkpt lat="32.8953217" lon="9.7733417"><ele>285.0</ele><time>2026-04-20T13:19:25.898Z</time></trkpt><trkpt lat="32.895415" lon="9.7733467"><ele>285.0</ele><time>2026-04-20T13:19:26.898Z</time></trkpt><trkpt lat="32.895515" lon="9.7733617"><ele>285.0</ele><time>2026-04-20T13:19:27.898Z</time></trkpt><trkpt lat="32.8956133" lon="9.773375"><ele>285.0</ele><time>2026-04-20T13:19:28.898Z</time></trkpt><trkpt lat="32.8957017" lon="9.77339"><ele>285.0</ele><time>2026-04-20T13:19:29.898Z</time></trkpt><trkpt lat="32.89578" lon="9.773405"><ele>285.0</ele><time>2026-04-20T13:19:30.898Z</time></trkpt><trkpt lat="32.895865" lon="9.7734133"><ele>285.0</ele><time>2026-04-20T13:19:31.898Z</time></trkpt><trkpt lat="32.89595" lon="9.7734183"><ele>285.0</ele><time>2026-04-20T13:19:32.898Z</time></trkpt><trkpt lat="32.89604" lon="9.7734183"><ele>285.0</ele><time>2026-04-20T13:19:33.898Z</time></trkpt><trkpt lat="32.8961367" lon="9.7734133"><ele>285.0</ele><time>2026-04-20T13:19:34.898Z</time></trkpt><trkpt lat="32.8962333" lon="9.77342"><ele>284.4</ele><time>2026-04-20T13:19:35.898Z</time></trkpt><trkpt lat="32.8963317" lon="9.7734217"><ele>283.8</ele><time>2026-04-20T13:19:36.898Z</time></trkpt><trkpt lat="32.8964317" lon="9.773425"><ele>283.2</ele><time>2026-04-20T13:19:37.898Z</time></trkpt><trkpt lat="32.8965233" lon="9.7734267"><ele>282.6</ele><time>2026-04-20T13:19:38.898Z</time></trkpt><trkpt lat="32.8966167" lon="9.7734267"><ele>282.0</ele><time>2026-04-20T13:19:39.898Z</time></trkpt><trkpt lat="32.89671" lon="9.77342"><ele>282.2</ele><time>2026-04-20T13:19:40.898Z</time></trkpt><trkpt lat="32.8968067" lon="9.7734233"><ele>282.4</ele><time>2026-04-20T13:19:41.898Z</time></trkpt><trkpt lat="32.896895" lon="9.773425"><ele>282.6</ele><time>2026-04-20T13:19:42.898Z</time></trkpt><trkpt lat="32.896975" lon="9.7734217"><ele>282.8</ele><time>2026-04-20T13:19:43.898Z</time></trkpt><trkpt lat="32.8970667" lon="9.77342"><ele>283.0</ele><time>2026-04-20T13:19:44.898Z</time></trkpt><trkpt lat="32.89716" lon="9.77342"><ele>283.0</ele><time>2026-04-20T13:19:45.898Z</time></trkpt><trkpt lat="32.8972533" lon="9.773425"><ele>283.0</ele><time>2026-04-20T13:19:46.898Z</time></trkpt><trkpt lat="32.8973467" lon="9.77343"><ele>283.0</ele><time>2026-04-20T13:19:47.898Z</time></trkpt><trkpt lat="32.8974417" lon="9.7734483"><ele>283.0</ele><time>2026-04-20T13:19:48.898Z</time></trkpt><trkpt lat="32.89753" lon="9.7734583"><ele>283.0</ele><time>2026-04-20T13:19:49.898Z</time></trkpt><trkpt lat="32.8976267" lon="9.7734683"><ele>282.6</ele><time>2026-04-20T13:19:50.898Z</time></trkpt><trkpt lat="32.8977217" lon="9.7734717"><ele>282.20000000000005</ele><time>2026-04-20T13:19:51.898Z</time></trkpt><trkpt lat="32.8978217" lon="9.7734783"><ele>281.8</ele><time>2026-04-20T13:19:52.898Z</time></trkpt><trkpt lat="32.8979183" lon="9.7734833"><ele>281.40000000000003</ele><time>2026-04-20T13:19:53.898Z</time></trkpt><trkpt lat="32.8980117" lon="9.7734733"><ele>281.0</ele><time>2026-04-20T13:19:54.898Z</time></trkpt><trkpt lat="32.89811" lon="9.773455"><ele>281.0</ele><time>2026-04-20T13:19:55.898Z</time></trkpt><trkpt lat="32.8982017" lon="9.773435"><ele>281.0</ele><time>2026-04-20T13:19:56.898Z</time></trkpt><trkpt lat="32.8982917" lon="9.773415"><ele>281.0</ele><time>2026-04-20T13:19:57.898Z</time></trkpt><trkpt lat="32.8983817" lon="9.7733867"><ele>281.0</ele><time>2026-04-20T13:19:58.898Z</time></trkpt><trkpt lat="32.8984783" lon="9.7733533"><ele>281.0</ele><time>2026-04-20T13:19:59.898Z</time></trkpt><trkpt lat="32.8985783" lon="9.7733183"><ele>281.5</ele><time>2026-04-20T13:20:00.898Z</time></trkpt><trkpt lat="32.89869" lon="9.7732783"><ele>282.0</ele><time>2026-04-20T13:20:01.898Z</time></trkpt><trkpt lat="32.898805" lon="9.7732433"><ele>282.5</ele><time>2026-04-20T13:20:02.898Z</time></trkpt><trkpt lat="32.8989167" lon="9.7732033"><ele>283.0</ele><time>2026-04-20T13:20:03.898Z</time></trkpt><trkpt lat="32.899025" lon="9.773155"><ele>283.0</ele><time>2026-04-20T13:20:04.898Z</time></trkpt><trkpt lat="32.899115" lon="9.77311"><ele>283.0</ele><time>2026-04-20T13:20:05.898Z</time></trkpt><trkpt lat="32.8991967" lon="9.7730717"><ele>283.0</ele><time>2026-04-20T13:20:06.898Z</time></trkpt><trkpt lat="32.8992733" lon="9.7730367"><ele>283.0</ele><time>2026-04-20T13:20:07.898Z</time></trkpt><trkpt lat="32.899345" lon="9.7729967"><ele>283.0</ele><time>2026-04-20T13:20:08.898Z</time></trkpt><trkpt lat="32.8994117" lon="9.7729517"><ele>283.0</ele><time>2026-04-20T13:20:09.898Z</time></trkpt><trkpt lat="32.8994733" lon="9.77291"><ele>283.0</ele><time>2026-04-20T13:20:10.898Z</time></trkpt><trkpt lat="32.8995333" lon="9.7728633"><ele>283.0</ele><time>2026-04-20T13:20:11.898Z</time></trkpt><trkpt lat="32.8995917" lon="9.7728183"><ele>283.0</ele><time>2026-04-20T13:20:12.898Z</time></trkpt><trkpt lat="32.899645" lon="9.7727767"><ele>283.0</ele><time>2026-04-20T13:20:13.898Z</time></trkpt><trkpt lat="32.8997383" lon="9.77269"><ele>283.0</ele><time>2026-04-20T13:20:15.898Z</time></trkpt><trkpt lat="32.8997917" lon="9.7726467"><ele>283.0</ele><time>2026-04-20T13:20:16.898Z</time></trkpt><trkpt lat="32.899885" lon="9.7725517"><ele>282.66666666666663</ele><time>2026-04-20T13:20:18.898Z</time></trkpt><trkpt lat="32.8999767" lon="9.7724533"><ele>282.3333333333333</ele><time>2026-04-20T13:20:20.898Z</time></trkpt><trkpt lat="32.90002" lon="9.772395"><ele>282.0</ele><time>2026-04-20T13:20:21.898Z</time></trkpt><trkpt lat="32.900065" lon="9.7723283"><ele>281.6666666666667</ele><time>2026-04-20T13:20:22.898Z</time></trkpt><trkpt lat="32.9001167" lon="9.7722533"><ele>281.33333333333337</ele><time>2026-04-20T13:20:23.898Z</time></trkpt><trkpt lat="32.9001733" lon="9.7721783"><ele>281.0</ele><time>2026-04-20T13:20:24.898Z</time></trkpt><trkpt lat="32.9002217" lon="9.7721083"><ele>281.00000000000006</ele><time>2026-04-20T13:20:25.898Z</time></trkpt><trkpt lat="32.9002667" lon="9.7720483"><ele>281.0</ele><time>2026-04-20T13:20:26.898Z</time></trkpt><trkpt lat="32.90032" lon="9.7719933"><ele>281.0</ele><time>2026-04-20T13:20:27.898Z</time></trkpt><trkpt lat="32.9003733" lon="9.7719383"><ele>281.0</ele><time>2026-04-20T13:20:28.898Z</time></trkpt><trkpt lat="32.9004333" lon="9.7718767"><ele>281.0</ele><time>2026-04-20T13:20:29.898Z</time></trkpt><trkpt lat="32.9004967" lon="9.7718233"><ele>281.00000000000006</ele><time>2026-04-20T13:20:30.898Z</time></trkpt><trkpt lat="32.90056" lon="9.7717667"><ele>281.0</ele><time>2026-04-20T13:20:31.898Z</time></trkpt><trkpt lat="32.9006217" lon="9.771715"><ele>281.00000000000006</ele><time>2026-04-20T13:20:32.898Z</time></trkpt><trkpt lat="32.900675" lon="9.77167"><ele>281.0</ele><time>2026-04-20T13:20:33.898Z</time></trkpt><trkpt lat="32.900735" lon="9.77164"><ele>281.0</ele><time>2026-04-20T13:20:34.898Z</time></trkpt><trkpt lat="32.9008067" lon="9.7716067"><ele>281.0</ele><time>2026-04-20T13:20:35.898Z</time></trkpt><trkpt lat="32.9008783" lon="9.771565"><ele>281.0</ele><time>2026-04-20T13:20:36.898Z</time></trkpt><trkpt lat="32.90094" lon="9.771525"><ele>281.00000000000006</ele><time>2026-04-20T13:20:37.898Z</time></trkpt><trkpt lat="32.9010083" lon="9.7714783"><ele>281.0</ele><time>2026-04-20T13:20:38.898Z</time></trkpt><trkpt lat="32.901085" lon="9.7714283"><ele>280.83333333333337</ele><time>2026-04-20T13:20:39.898Z</time></trkpt><trkpt lat="32.901165" lon="9.7713833"><ele>280.6666666666667</ele><time>2026-04-20T13:20:40.898Z</time></trkpt><trkpt lat="32.9012467" lon="9.7713417"><ele>280.5</ele><time>2026-04-20T13:20:41.898Z</time></trkpt><trkpt lat="32.9013283" lon="9.7712933"><ele>280.3333333333333</ele><time>2026-04-20T13:20:42.898Z</time></trkpt><trkpt lat="32.901405" lon="9.7712517"><ele>280.16666666666663</ele><time>2026-04-20T13:20:43.898Z</time></trkpt><trkpt lat="32.9014683" lon="9.77122"><ele>280.0</ele><time>2026-04-20T13:20:44.898Z</time></trkpt><trkpt lat="32.901535" lon="9.7711933"><ele>280.0</ele><time>2026-04-20T13:20:45.898Z</time></trkpt><trkpt lat="32.9015983" lon="9.7711783"><ele>280.0</ele><time>2026-04-20T13:20:46.898Z</time></trkpt><trkpt lat="32.9016617" lon="9.7711617"><ele>280.0</ele><time>2026-04-20T13:20:47.898Z</time></trkpt><trkpt lat="32.901725" lon="9.771135"><ele>280.0</ele><time>2026-04-20T13:20:48.898Z</time></trkpt><trkpt lat="32.9017867" lon="9.7711083"><ele>280.0</ele><time>2026-04-20T13:20:49.898Z</time></trkpt><trkpt lat="32.9018517" lon="9.7710883"><ele>280.0</ele><time>2026-04-20T13:20:50.898Z</time></trkpt><trkpt lat="32.9019217" lon="9.7710617"><ele>280.0</ele><time>2026-04-20T13:20:51.898Z</time></trkpt><trkpt lat="32.9019867" lon="9.771045"><ele>279.8</ele><time>2026-04-20T13:20:52.898Z</time></trkpt><trkpt lat="32.9020483" lon="9.7710217"><ele>279.6</ele><time>2026-04-20T13:20:53.898Z</time></trkpt><trkpt lat="32.9021617" lon="9.7709783"><ele>279.4</ele><time>2026-04-20T13:20:55.898Z</time></trkpt><trkpt lat="32.9022767" lon="9.77096"><ele>279.2</ele><time>2026-04-20T13:20:57.898Z</time></trkpt><trkpt lat="32.9024" lon="9.7709383"><ele>279.0</ele><time>2026-04-20T13:20:59.898Z</time></trkpt><trkpt lat="32.9025217" lon="9.7709183"><ele>278.8333333333333</ele><time>2026-04-20T13:21:01.898Z</time></trkpt><trkpt lat="32.9025867" lon="9.7709017"><ele>278.6666666666667</ele><time>2026-04-20T13:21:02.898Z</time></trkpt><trkpt lat="32.902655" lon="9.7708767"><ele>278.5</ele><time>2026-04-20T13:21:03.898Z</time></trkpt><trkpt lat="32.9027183" lon="9.7708433"><ele>278.33333333333337</ele><time>2026-04-20T13:21:04.898Z</time></trkpt><trkpt lat="32.902815" lon="9.770795"><ele>278.1666666666667</ele><time>2026-04-20T13:21:06.898Z</time></trkpt><trkpt lat="32.9028817" lon="9.770725"><ele>278.0</ele><time>2026-04-20T13:21:21.897Z</time></trkpt><trkpt lat="32.9029517" lon="9.77066"><ele>278.0</ele><time>2026-04-20T13:21:23.897Z</time></trkpt><trkpt lat="32.9030017" lon="9.7706117"><ele>278.0</ele><time>2026-04-20T13:21:24.897Z</time></trkpt><trkpt lat="32.9030633" lon="9.770555"><ele>278.0</ele><time>2026-04-20T13:21:25.897Z</time></trkpt><trkpt lat="32.9031317" lon="9.7705067"><ele>278.0</ele><time>2026-04-20T13:21:26.897Z</time></trkpt><trkpt lat="32.9031867" lon="9.7704467"><ele>278.0</ele><time>2026-04-20T13:21:27.897Z</time></trkpt><trkpt lat="32.9032433" lon="9.77039"><ele>278.0</ele><time>2026-04-20T13:21:28.897Z</time></trkpt><trkpt lat="32.9033017" lon="9.7703233"><ele>278.0</ele><time>2026-04-20T13:21:29.897Z</time></trkpt><trkpt lat="32.903365" lon="9.770255"><ele>278.0</ele><time>2026-04-20T13:21:30.897Z</time></trkpt><trkpt lat="32.903425" lon="9.7701933"><ele>278.0</ele><time>2026-04-20T13:21:31.897Z</time></trkpt><trkpt lat="32.9034817" lon="9.770135"><ele>278.0</ele><time>2026-04-20T13:21:32.897Z</time></trkpt><trkpt lat="32.9035467" lon="9.770075"><ele>278.0</ele><time>2026-04-20T13:21:33.897Z</time></trkpt><trkpt lat="32.903615" lon="9.7700217"><ele>278.0</ele><time>2026-04-20T13:21:34.897Z</time></trkpt><trkpt lat="32.90369" lon="9.7699633"><ele>278.4</ele><time>2026-04-20T13:21:35.897Z</time></trkpt><trkpt lat="32.9037667" lon="9.7699317"><ele>278.8</ele><time>2026-04-20T13:21:36.897Z</time></trkpt><trkpt lat="32.9038583" lon="9.769915"><ele>279.2</ele><time>2026-04-20T13:21:37.897Z</time></trkpt><trkpt lat="32.9039533" lon="9.7698983"><ele>279.6</ele><time>2026-04-20T13:21:38.897Z</time></trkpt><trkpt lat="32.9040483" lon="9.7698767"><ele>280.0</ele><time>2026-04-20T13:21:39.897Z</time></trkpt><trkpt lat="32.904135" lon="9.769855"><ele>280.0</ele><time>2026-04-20T13:21:40.897Z</time></trkpt><trkpt lat="32.9042267" lon="9.76983"><ele>280.0</ele><time>2026-04-20T13:21:41.897Z</time></trkpt><trkpt lat="32.9043217" lon="9.7697967"><ele>280.0</ele><time>2026-04-20T13:21:42.897Z</time></trkpt><trkpt lat="32.9044117" lon="9.7697567"><ele>280.0</ele><time>2026-04-20T13:21:43.897Z</time></trkpt><trkpt lat="32.904505" lon="9.7697117"><ele>280.0</ele><time>2026-04-20T13:21:44.897Z</time></trkpt><trkpt lat="32.904585" lon="9.7696783"><ele>280.0</ele><time>2026-04-20T13:21:45.897Z</time></trkpt><trkpt lat="32.9046683" lon="9.7696433"><ele>280.0</ele><time>2026-04-20T13:21:46.897Z</time></trkpt><trkpt lat="32.9047517" lon="9.7696083"><ele>280.0</ele><time>2026-04-20T13:21:47.897Z</time></trkpt><trkpt lat="32.90483" lon="9.7695683"><ele>280.0</ele><time>2026-04-20T13:21:48.897Z</time></trkpt><trkpt lat="32.9049" lon="9.7695183"><ele>280.0</ele><time>2026-04-20T13:21:49.897Z</time></trkpt><trkpt lat="32.904975" lon="9.7694683"><ele>280.0</ele><time>2026-04-20T13:21:50.897Z</time></trkpt><trkpt lat="32.90506" lon="9.7694167"><ele>280.0</ele><time>2026-04-20T13:21:51.897Z</time></trkpt><trkpt lat="32.90515" lon="9.769355"><ele>280.0</ele><time>2026-04-20T13:21:52.897Z</time></trkpt><trkpt lat="32.905245" lon="9.76929"><ele>280.0</ele><time>2026-04-20T13:21:53.897Z</time></trkpt><trkpt lat="32.9053367" lon="9.769235"><ele>280.0</ele><time>2026-04-20T13:21:54.897Z</time></trkpt><trkpt lat="32.9054267" lon="9.7691717"><ele>280.0</ele><time>2026-04-20T13:21:55.897Z</time></trkpt><trkpt lat="32.90551" lon="9.7691067"><ele>280.0</ele><time>2026-04-20T13:21:56.897Z</time></trkpt><trkpt lat="32.905595" lon="9.7690317"><ele>280.0</ele><time>2026-04-20T13:21:57.897Z</time></trkpt><trkpt lat="32.90567" lon="9.76896"><ele>280.0</ele><time>2026-04-20T13:21:58.897Z</time></trkpt><trkpt lat="32.9057283" lon="9.7688817"><ele>280.0</ele><time>2026-04-20T13:21:59.897Z</time></trkpt><trkpt lat="32.9057933" lon="9.7688217"><ele>280.0</ele><time>2026-04-20T13:22:00.897Z</time></trkpt><trkpt lat="32.9058517" lon="9.7687683"><ele>280.0</ele><time>2026-04-20T13:22:01.897Z</time></trkpt><trkpt lat="32.9059117" lon="9.76872"><ele>279.8333333333333</ele><time>2026-04-20T13:22:02.897Z</time></trkpt><trkpt lat="32.9059667" lon="9.7686783"><ele>279.66666666666663</ele><time>2026-04-20T13:22:03.897Z</time></trkpt><trkpt lat="32.9060333" lon="9.768625"><ele>279.5</ele><time>2026-04-20T13:22:05.897Z</time></trkpt><trkpt lat="32.9060967" lon="9.768575"><ele>279.3333333333333</ele><time>2026-04-20T13:22:13.897Z</time></trkpt><trkpt lat="32.9061283" lon="9.7684983"><ele>279.1666666666667</ele><time>2026-04-20T13:22:16.897Z</time></trkpt><trkpt lat="32.906145" lon="9.7683967"><ele>279.0</ele><time>2026-04-20T13:23:47.897Z</time></trkpt><trkpt lat="32.9061483" lon="9.7682583"><ele>279.0</ele><time>2026-04-20T13:23:49.897Z</time></trkpt><trkpt lat="32.90615" lon="9.7681733"><ele>279.0</ele><time>2026-04-20T13:23:50.897Z</time></trkpt><trkpt lat="32.9061533" lon="9.7680867"><ele>279.0</ele><time>2026-04-20T13:23:51.897Z</time></trkpt><trkpt lat="32.9061617" lon="9.7679883"><ele>279.0</ele><time>2026-04-20T13:23:52.897Z</time></trkpt><trkpt lat="32.9061717" lon="9.7678783"><ele>279.0</ele><time>2026-04-20T13:23:53.897Z</time></trkpt><trkpt lat="32.9061883" lon="9.7677567"><ele>279.0</ele><time>2026-04-20T13:23:54.897Z</time></trkpt><trkpt lat="32.9062017" lon="9.7676183"><ele>278.25</ele><time>2026-04-20T13:23:55.897Z</time></trkpt><trkpt lat="32.9062167" lon="9.7674783"><ele>277.5</ele><time>2026-04-20T13:23:56.897Z</time></trkpt><trkpt lat="32.9062283" lon="9.7673233"><ele>276.75</ele><time>2026-04-20T13:23:57.897Z</time></trkpt><trkpt lat="32.9062433" lon="9.7671633"><ele>276.0</ele><time>2026-04-20T13:23:58.897Z</time></trkpt><trkpt lat="32.90626" lon="9.767"><ele>275.25</ele><time>2026-04-20T13:23:59.897Z</time></trkpt><trkpt lat="32.90627" lon="9.7668333"><ele>274.5</ele><time>2026-04-20T13:24:00.897Z</time></trkpt><trkpt lat="32.9062817" lon="9.76667"><ele>273.75</ele><time>2026-04-20T13:24:01.897Z</time></trkpt><trkpt lat="32.906295" lon="9.7665017"><ele>273.0</ele><time>2026-04-20T13:24:02.897Z</time></trkpt><trkpt lat="32.9063067" lon="9.7663317"><ele>273.0</ele><time>2026-04-20T13:24:03.897Z</time></trkpt><trkpt lat="32.9063217" lon="9.76616"><ele>273.0</ele><time>2026-04-20T13:24:04.897Z</time></trkpt><trkpt lat="32.9063333" lon="9.7659783"><ele>273.0</ele><time>2026-04-20T13:24:05.897Z</time></trkpt><trkpt lat="32.9063567" lon="9.7658"><ele>273.0</ele><time>2026-04-20T13:24:06.897Z</time></trkpt><trkpt lat="32.9063817" lon="9.7656183"><ele>273.0</ele><time>2026-04-20T13:24:07.897Z</time></trkpt><trkpt lat="32.9063967" lon="9.765425"><ele>273.0</ele><time>2026-04-20T13:24:08.897Z</time></trkpt><trkpt lat="32.906415" lon="9.76523"><ele>273.0</ele><time>2026-04-20T13:24:09.897Z</time></trkpt><trkpt lat="32.9064317" lon="9.765035"><ele>272.6666666666667</ele><time>2026-04-20T13:24:10.897Z</time></trkpt><trkpt lat="32.9064483" lon="9.76484"><ele>272.33333333333337</ele><time>2026-04-20T13:24:11.897Z</time></trkpt><trkpt lat="32.9064617" lon="9.7646383"><ele>272.0</ele><time>2026-04-20T13:24:12.897Z</time></trkpt><trkpt lat="32.906485" lon="9.7644333"><ele>271.0</ele><time>2026-04-20T13:24:13.896Z</time></trkpt><trkpt lat="32.9065133" lon="9.764235"><ele>270.0</ele><time>2026-04-20T13:24:14.896Z</time></trkpt><trkpt lat="32.9065417" lon="9.76404"><ele>269.0</ele><time>2026-04-20T13:24:15.896Z</time></trkpt><trkpt lat="32.90656" lon="9.7638417"><ele>269.0</ele><time>2026-04-20T13:24:16.896Z</time></trkpt><trkpt lat="32.9065767" lon="9.7636433"><ele>269.0</ele><time>2026-04-20T13:24:17.896Z</time></trkpt><trkpt lat="32.9065933" lon="9.7634517"><ele>269.0</ele><time>2026-04-20T13:24:18.896Z</time></trkpt><trkpt lat="32.9066167" lon="9.7632517"><ele>268.6666666666667</ele><time>2026-04-20T13:24:19.896Z</time></trkpt><trkpt lat="32.9066417" lon="9.763055"><ele>268.3333333333333</ele><time>2026-04-20T13:24:20.896Z</time></trkpt><trkpt lat="32.9066633" lon="9.7628583"><ele>268.0</ele><time>2026-04-20T13:24:21.896Z</time></trkpt><trkpt lat="32.9066917" lon="9.7626583"><ele>268.66666666666663</ele><time>2026-04-20T13:24:22.896Z</time></trkpt><trkpt lat="32.9067117" lon="9.7624667"><ele>269.3333333333333</ele><time>2026-04-20T13:24:23.896Z</time></trkpt><trkpt lat="32.9067317" lon="9.7622683"><ele>270.0</ele><time>2026-04-20T13:24:24.897Z</time></trkpt><trkpt lat="32.9067583" lon="9.7620683"><ele>270.0</ele><time>2026-04-20T13:24:25.896Z</time></trkpt><trkpt lat="32.9067833" lon="9.7618667"><ele>270.0</ele><time>2026-04-20T13:24:26.896Z</time></trkpt><trkpt lat="32.9068083" lon="9.761665"><ele>270.0</ele><time>2026-04-20T13:24:27.896Z</time></trkpt><trkpt lat="32.9068367" lon="9.76146"><ele>270.0</ele><time>2026-04-20T13:24:28.896Z</time></trkpt><trkpt lat="32.90686" lon="9.7612467"><ele>270.0</ele><time>2026-04-20T13:24:29.896Z</time></trkpt><trkpt lat="32.90689" lon="9.7610367"><ele>270.0</ele><time>2026-04-20T13:24:30.896Z</time></trkpt><trkpt lat="32.9069217" lon="9.7608233"><ele>269.6666666666667</ele><time>2026-04-20T13:24:31.896Z</time></trkpt><trkpt lat="32.9069567" lon="9.760615"><ele>269.33333333333337</ele><time>2026-04-20T13:24:32.896Z</time></trkpt><trkpt lat="32.9069883" lon="9.760405"><ele>269.0</ele><time>2026-04-20T13:24:33.896Z</time></trkpt><trkpt lat="32.90702" lon="9.760195"><ele>269.0</ele><time>2026-04-20T13:24:34.896Z</time></trkpt><trkpt lat="32.907045" lon="9.759985"><ele>269.0</ele><time>2026-04-20T13:24:35.896Z</time></trkpt><trkpt lat="32.9070733" lon="9.7597733"><ele>269.0</ele><time>2026-04-20T13:24:36.896Z</time></trkpt><trkpt lat="32.9071083" lon="9.75956"><ele>269.6666666666667</ele><time>2026-04-20T13:24:37.896Z</time></trkpt><trkpt lat="32.9071467" lon="9.759345"><ele>270.3333333333333</ele><time>2026-04-20T13:24:38.896Z</time></trkpt><trkpt lat="32.9071733" lon="9.75913"><ele>271.0</ele><time>2026-04-20T13:24:39.896Z</time></trkpt><trkpt lat="32.907205" lon="9.7589167"><ele>271.0</ele><time>2026-04-20T13:24:40.896Z</time></trkpt><trkpt lat="32.9072383" lon="9.7587017"><ele>271.0</ele><time>2026-04-20T13:24:41.896Z</time></trkpt><trkpt lat="32.9072767" lon="9.75849"><ele>271.0</ele><time>2026-04-20T13:24:42.896Z</time></trkpt><trkpt lat="32.90731" lon="9.75826"><ele>271.0</ele><time>2026-04-20T13:24:43.896Z</time></trkpt><trkpt lat="32.9073417" lon="9.7580467"><ele>271.0</ele><time>2026-04-20T13:24:44.896Z</time></trkpt><trkpt lat="32.907365" lon="9.7578267"><ele>271.0</ele><time>2026-04-20T13:24:45.896Z</time></trkpt><trkpt lat="32.9073883" lon="9.7576083"><ele>270.66666666666663</ele><time>2026-04-20T13:24:46.896Z</time></trkpt><trkpt lat="32.9074133" lon="9.7573883"><ele>270.3333333333333</ele><time>2026-04-20T13:24:47.896Z</time></trkpt><trkpt lat="32.9074267" lon="9.7571717"><ele>270.0</ele><time>2026-04-20T13:24:48.896Z</time></trkpt><trkpt lat="32.9074467" lon="9.7569467"><ele>270.6666666666667</ele><time>2026-04-20T13:24:49.896Z</time></trkpt><trkpt lat="32.9074667" lon="9.7567217"><ele>271.33333333333337</ele><time>2026-04-20T13:24:50.896Z</time></trkpt><trkpt lat="32.90749" lon="9.75649"><ele>272.0</ele><time>2026-04-20T13:24:51.896Z</time></trkpt><trkpt lat="32.907515" lon="9.7562633"><ele>272.6666666666667</ele><time>2026-04-20T13:24:52.896Z</time></trkpt><trkpt lat="32.9075417" lon="9.7560367"><ele>273.3333333333333</ele><time>2026-04-20T13:24:53.896Z</time></trkpt><trkpt lat="32.9075717" lon="9.7558133"><ele>274.0</ele><time>2026-04-20T13:24:54.896Z</time></trkpt><trkpt lat="32.9075967" lon="9.755595"><ele>274.0</ele><time>2026-04-20T13:24:55.896Z</time></trkpt><trkpt lat="32.9076183" lon="9.755375"><ele>274.0</ele><time>2026-04-20T13:24:56.896Z</time></trkpt><trkpt lat="32.9076417" lon="9.7551567"><ele>274.0</ele><time>2026-04-20T13:24:57.896Z</time></trkpt><trkpt lat="32.9076717" lon="9.75494"><ele>274.66666666666663</ele><time>2026-04-20T13:24:58.896Z</time></trkpt><trkpt lat="32.9077117" lon="9.7547317"><ele>275.3333333333333</ele><time>2026-04-20T13:24:59.896Z</time></trkpt><trkpt lat="32.9077633" lon="9.75453"><ele>276.0</ele><time>2026-04-20T13:25:00.896Z</time></trkpt><trkpt lat="32.9078217" lon="9.75433"><ele>278.5</ele><time>2026-04-20T13:25:01.896Z</time></trkpt><trkpt lat="32.9079433" lon="9.753935"><ele>281.0</ele><time>2026-04-20T13:25:03.896Z</time></trkpt><trkpt lat="32.9080133" lon="9.7537533"><ele>281.0</ele><time>2026-04-20T13:25:04.896Z</time></trkpt><trkpt lat="32.90809" lon="9.75357"><ele>281.0</ele><time>2026-04-20T13:25:05.896Z</time></trkpt><trkpt lat="32.9081717" lon="9.7533883"><ele>281.0</ele><time>2026-04-20T13:25:06.896Z</time></trkpt><trkpt lat="32.9082683" lon="9.75322"><ele>281.6666666666667</ele><time>2026-04-20T13:25:07.896Z</time></trkpt><trkpt lat="32.9083667" lon="9.7530517"><ele>282.3333333333333</ele><time>2026-04-20T13:25:08.896Z</time></trkpt><trkpt lat="32.9084617" lon="9.7528867"><ele>283.0</ele><time>2026-04-20T13:25:09.896Z</time></trkpt><trkpt lat="32.908565" lon="9.75273"><ele>283.66666666666663</ele><time>2026-04-20T13:25:10.896Z</time></trkpt><trkpt lat="32.9086683" lon="9.752575"><ele>284.3333333333333</ele><time>2026-04-20T13:25:11.896Z</time></trkpt><trkpt lat="32.90877" lon="9.7524183"><ele>285.0</ele><time>2026-04-20T13:25:12.897Z</time></trkpt><trkpt lat="32.9088633" lon="9.75226"><ele>285.0</ele><time>2026-04-20T13:25:13.896Z</time></trkpt><trkpt lat="32.90897" lon="9.7521067"><ele>285.0</ele><time>2026-04-20T13:25:14.896Z</time></trkpt><trkpt lat="32.9090683" lon="9.75195"><ele>285.0</ele><time>2026-04-20T13:25:15.896Z</time></trkpt><trkpt lat="32.90917" lon="9.7517883"><ele>285.3333333333333</ele><time>2026-04-20T13:25:16.896Z</time></trkpt><trkpt lat="32.909265" lon="9.7516267"><ele>285.66666666666663</ele><time>2026-04-20T13:25:17.896Z</time></trkpt><trkpt lat="32.9093533" lon="9.7514683"><ele>286.0</ele><time>2026-04-20T13:25:18.896Z</time></trkpt><trkpt lat="32.9094367" lon="9.7513067"><ele>286.0</ele><time>2026-04-20T13:25:19.896Z</time></trkpt><trkpt lat="32.90952" lon="9.751155"><ele>286.0</ele><time>2026-04-20T13:25:20.896Z</time></trkpt><trkpt lat="32.9095917" lon="9.7510067"><ele>286.0</ele><time>2026-04-20T13:25:21.896Z</time></trkpt><trkpt lat="32.9096533" lon="9.7508733"><ele>286.0</ele><time>2026-04-20T13:25:22.896Z</time></trkpt><trkpt lat="32.9097083" lon="9.7507567"><ele>285.8333333333333</ele><time>2026-04-20T13:25:23.896Z</time></trkpt><trkpt lat="32.9097617" lon="9.75066"><ele>285.66666666666663</ele><time>2026-04-20T13:25:24.896Z</time></trkpt><trkpt lat="32.9098017" lon="9.7505833"><ele>285.5</ele><time>2026-04-20T13:25:25.896Z</time></trkpt><trkpt lat="32.90986" lon="9.7504717"><ele>285.3333333333333</ele><time>2026-04-20T13:25:27.896Z</time></trkpt><trkpt lat="32.9098967" lon="9.7503967"><ele>285.1666666666667</ele><time>2026-04-20T13:26:02.896Z</time></trkpt><trkpt lat="32.9099267" lon="9.750325"><ele>285.0</ele><time>2026-04-20T13:26:04.896Z</time></trkpt><trkpt lat="32.9099767" lon="9.7501967"><ele>285.0</ele><time>2026-04-20T13:26:06.896Z</time></trkpt><trkpt lat="32.9100067" lon="9.7501133"><ele>285.0</ele><time>2026-04-20T13:26:07.896Z</time></trkpt><trkpt lat="32.9100467" lon="9.7500267"><ele>285.0</ele><time>2026-04-20T13:26:08.896Z</time></trkpt><trkpt lat="32.9100933" lon="9.7499383"><ele>285.0</ele><time>2026-04-20T13:26:09.896Z</time></trkpt><trkpt lat="32.9101483" lon="9.7498317"><ele>285.0</ele><time>2026-04-20T13:26:10.896Z</time></trkpt><trkpt lat="32.9102117" lon="9.7497233"><ele>284.5</ele><time>2026-04-20T13:26:11.896Z</time></trkpt><trkpt lat="32.9103233" lon="9.7495017"><ele>284.0</ele><time>2026-04-20T13:26:13.896Z</time></trkpt><trkpt lat="32.910375" lon="9.74939"><ele>283.5</ele><time>2026-04-20T13:26:14.896Z</time></trkpt><trkpt lat="32.9104283" lon="9.7492733"><ele>283.0</ele><time>2026-04-20T13:26:15.896Z</time></trkpt><trkpt lat="32.9104833" lon="9.7491633"><ele>283.0</ele><time>2026-04-20T13:26:16.896Z</time></trkpt><trkpt lat="32.9105433" lon="9.749065"><ele>283.0</ele><time>2026-04-20T13:26:17.896Z</time></trkpt><trkpt lat="32.9106083" lon="9.74896"><ele>283.0</ele><time>2026-04-20T13:26:18.896Z</time></trkpt><trkpt lat="32.9106683" lon="9.748845"><ele>283.0</ele><time>2026-04-20T13:26:19.896Z</time></trkpt><trkpt lat="32.9107283" lon="9.748735"><ele>283.0</ele><time>2026-04-20T13:26:20.896Z</time></trkpt><trkpt lat="32.9107933" lon="9.748615"><ele>282.5</ele><time>2026-04-20T13:26:21.896Z</time></trkpt><trkpt lat="32.9108583" lon="9.7485"><ele>282.0</ele><time>2026-04-20T13:26:22.896Z</time></trkpt><trkpt lat="32.9109267" lon="9.7483817"><ele>281.5</ele><time>2026-04-20T13:26:23.896Z</time></trkpt><trkpt lat="32.9109933" lon="9.7482617"><ele>281.0</ele><time>2026-04-20T13:26:24.896Z</time></trkpt><trkpt lat="32.9110433" lon="9.7481533"><ele>281.0</ele><time>2026-04-20T13:26:25.896Z</time></trkpt><trkpt lat="32.911085" lon="9.748055"><ele>281.0</ele><time>2026-04-20T13:26:26.896Z</time></trkpt><trkpt lat="32.9111233" lon="9.7479567"><ele>281.0</ele><time>2026-04-20T13:26:27.896Z</time></trkpt><trkpt lat="32.911165" lon="9.7478667"><ele>281.0</ele><time>2026-04-20T13:26:28.896Z</time></trkpt><trkpt lat="32.911205" lon="9.7477767"><ele>281.0</ele><time>2026-04-20T13:26:29.896Z</time></trkpt><trkpt lat="32.9112433" lon="9.747685"><ele>281.0</ele><time>2026-04-20T13:26:30.896Z</time></trkpt><trkpt lat="32.9112817" lon="9.747605"><ele>281.2</ele><time>2026-04-20T13:26:31.896Z</time></trkpt><trkpt lat="32.91134" lon="9.7475117"><ele>281.40000000000003</ele><time>2026-04-20T13:26:32.896Z</time></trkpt><trkpt lat="32.9113917" lon="9.747405"><ele>281.6</ele><time>2026-04-20T13:26:33.896Z</time></trkpt><trkpt lat="32.91144" lon="9.7473"><ele>281.8</ele><time>2026-04-20T13:26:34.896Z</time></trkpt><trkpt lat="32.9114883" lon="9.7471933"><ele>282.0</ele><time>2026-04-20T13:26:35.896Z</time></trkpt><trkpt lat="32.9115333" lon="9.74708"><ele>282.0</ele><time>2026-04-20T13:26:36.896Z</time></trkpt><trkpt lat="32.911585" lon="9.746965"><ele>282.0</ele><time>2026-04-20T13:26:37.896Z</time></trkpt><trkpt lat="32.9116433" lon="9.7468517"><ele>282.0</ele><time>2026-04-20T13:26:38.896Z</time></trkpt><trkpt lat="32.91171" lon="9.746735"><ele>282.0</ele><time>2026-04-20T13:26:39.896Z</time></trkpt><trkpt lat="32.9117733" lon="9.7466183"><ele>281.75</ele><time>2026-04-20T13:26:40.896Z</time></trkpt><trkpt lat="32.91184" lon="9.7465033"><ele>281.5</ele><time>2026-04-20T13:26:41.896Z</time></trkpt><trkpt lat="32.9118983" lon="9.7463867"><ele>281.25</ele><time>2026-04-20T13:26:42.896Z</time></trkpt><trkpt lat="32.9119633" lon="9.746275"><ele>281.0</ele><time>2026-04-20T13:26:43.896Z</time></trkpt><trkpt lat="32.9120267" lon="9.7461567"><ele>281.0</ele><time>2026-04-20T13:26:44.896Z</time></trkpt><trkpt lat="32.9120867" lon="9.746055"><ele>281.0</ele><time>2026-04-20T13:26:45.896Z</time></trkpt><trkpt lat="32.912155" lon="9.745945"><ele>281.0</ele><time>2026-04-20T13:26:46.896Z</time></trkpt><trkpt lat="32.9122367" lon="9.7458417"><ele>281.0</ele><time>2026-04-20T13:26:47.896Z</time></trkpt><trkpt lat="32.91232" lon="9.74574"><ele>281.0</ele><time>2026-04-20T13:26:48.896Z</time></trkpt><trkpt lat="32.9123983" lon="9.7456383"><ele>281.0</ele><time>2026-04-20T13:26:49.896Z</time></trkpt><trkpt lat="32.9124883" lon="9.7455433"><ele>281.0</ele><time>2026-04-20T13:26:50.896Z</time></trkpt><trkpt lat="32.9125767" lon="9.745445"><ele>281.0</ele><time>2026-04-20T13:26:51.896Z</time></trkpt><trkpt lat="32.9126683" lon="9.74535"><ele>281.0</ele><time>2026-04-20T13:26:52.896Z</time></trkpt><trkpt lat="32.9127583" lon="9.745255"><ele>281.0</ele><time>2026-04-20T13:26:53.896Z</time></trkpt><trkpt lat="32.9128467" lon="9.745155"><ele>281.0</ele><time>2026-04-20T13:26:54.896Z</time></trkpt><trkpt lat="32.912935" lon="9.745055"><ele>281.0</ele><time>2026-04-20T13:26:55.896Z</time></trkpt><trkpt lat="32.91302" lon="9.7449583"><ele>280.5</ele><time>2026-04-20T13:26:56.896Z</time></trkpt><trkpt lat="32.9131017" lon="9.7448567"><ele>280.0</ele><time>2026-04-20T13:26:57.896Z</time></trkpt><trkpt lat="32.9131817" lon="9.744755"><ele>279.5</ele><time>2026-04-20T13:26:58.896Z</time></trkpt><trkpt lat="32.9132617" lon="9.7446483"><ele>279.0</ele><time>2026-04-20T13:26:59.896Z</time></trkpt><trkpt lat="32.91334" lon="9.7445433"><ele>278.5</ele><time>2026-04-20T13:27:00.896Z</time></trkpt><trkpt lat="32.9134267" lon="9.7444467"><ele>278.0</ele><time>2026-04-20T13:27:01.896Z</time></trkpt><trkpt lat="32.91351" lon="9.744345"><ele>277.5</ele><time>2026-04-20T13:27:02.896Z</time></trkpt><trkpt lat="32.91359" lon="9.744235"><ele>277.0</ele><time>2026-04-20T13:27:03.896Z</time></trkpt><trkpt lat="32.9136633" lon="9.7441117"><ele>277.0</ele><time>2026-04-20T13:27:04.896Z</time></trkpt><trkpt lat="32.9137333" lon="9.7439917"><ele>277.0</ele><time>2026-04-20T13:27:05.896Z</time></trkpt><trkpt lat="32.9137967" lon="9.7438717"><ele>277.0</ele><time>2026-04-20T13:27:06.896Z</time></trkpt><trkpt lat="32.9138633" lon="9.74374"><ele>277.0</ele><time>2026-04-20T13:27:07.896Z</time></trkpt><trkpt lat="32.9139317" lon="9.7436183"><ele>276.75</ele><time>2026-04-20T13:27:08.896Z</time></trkpt><trkpt lat="32.913985" lon="9.7434933"><ele>276.5</ele><time>2026-04-20T13:27:09.896Z</time></trkpt><trkpt lat="32.9140417" lon="9.7433617"><ele>276.25</ele><time>2026-04-20T13:27:10.896Z</time></trkpt><trkpt lat="32.91409" lon="9.7432233"><ele>276.0</ele><time>2026-04-20T13:27:11.896Z</time></trkpt><trkpt lat="32.9141433" lon="9.7430933"><ele>276.0</ele><time>2026-04-20T13:27:12.896Z</time></trkpt><trkpt lat="32.9142" lon="9.7429483"><ele>276.0</ele><time>2026-04-20T13:27:13.895Z</time></trkpt><trkpt lat="32.91425" lon="9.74281"><ele>276.0</ele><time>2026-04-20T13:27:14.895Z</time></trkpt><trkpt lat="32.9143" lon="9.7426717"><ele>276.0</ele><time>2026-04-20T13:27:15.895Z</time></trkpt><trkpt lat="32.9143483" lon="9.74253"><ele>275.5</ele><time>2026-04-20T13:27:16.895Z</time></trkpt><trkpt lat="32.9144" lon="9.74238"><ele>275.0</ele><time>2026-04-20T13:27:17.895Z</time></trkpt><trkpt lat="32.9144533" lon="9.74224"><ele>274.5</ele><time>2026-04-20T13:27:18.895Z</time></trkpt><trkpt lat="32.9145067" lon="9.7421"><ele>274.0</ele><time>2026-04-20T13:27:19.895Z</time></trkpt><trkpt lat="32.9145583" lon="9.741965"><ele>274.5</ele><time>2026-04-20T13:27:20.895Z</time></trkpt><trkpt lat="32.91461" lon="9.741835"><ele>275.0</ele><time>2026-04-20T13:27:21.895Z</time></trkpt><trkpt lat="32.9146633" lon="9.7417"><ele>275.5</ele><time>2026-04-20T13:27:22.895Z</time></trkpt><trkpt lat="32.9147183" lon="9.74156"><ele>276.0</ele><time>2026-04-20T13:27:23.895Z</time></trkpt><trkpt lat="32.9147683" lon="9.7414133"><ele>276.0</ele><time>2026-04-20T13:27:24.895Z</time></trkpt><trkpt lat="32.9148167" lon="9.74127"><ele>276.0</ele><time>2026-04-20T13:27:25.895Z</time></trkpt><trkpt lat="32.9148617" lon="9.7411317"><ele>276.0</ele><time>2026-04-20T13:27:26.895Z</time></trkpt><trkpt lat="32.914915" lon="9.7409983"><ele>276.0</ele><time>2026-04-20T13:27:27.895Z</time></trkpt><trkpt lat="32.91496" lon="9.74087"><ele>275.25</ele><time>2026-04-20T13:27:28.895Z</time></trkpt><trkpt lat="32.9150133" lon="9.7407267"><ele>274.5</ele><time>2026-04-20T13:27:29.895Z</time></trkpt><trkpt lat="32.915065" lon="9.740595"><ele>273.75</ele><time>2026-04-20T13:27:30.895Z</time></trkpt><trkpt lat="32.91511" lon="9.74046"><ele>273.0</ele><time>2026-04-20T13:27:31.895Z</time></trkpt><trkpt lat="32.915155" lon="9.740315"><ele>273.5</ele><time>2026-04-20T13:27:32.895Z</time></trkpt><trkpt lat="32.9152" lon="9.740185"><ele>274.0</ele><time>2026-04-20T13:27:33.895Z</time></trkpt><trkpt lat="32.9152517" lon="9.7400417"><ele>274.5</ele><time>2026-04-20T13:27:34.895Z</time></trkpt><trkpt lat="32.9153017" lon="9.7399033"><ele>275.0</ele><time>2026-04-20T13:27:35.895Z</time></trkpt><trkpt lat="32.91536" lon="9.739755"><ele>275.0</ele><time>2026-04-20T13:27:36.895Z</time></trkpt><trkpt lat="32.91541" lon="9.7396067"><ele>275.0</ele><time>2026-04-20T13:27:37.895Z</time></trkpt><trkpt lat="32.91546" lon="9.7394683"><ele>275.0</ele><time>2026-04-20T13:27:38.895Z</time></trkpt><trkpt lat="32.9155167" lon="9.7393283"><ele>275.0</ele><time>2026-04-20T13:27:39.895Z</time></trkpt><trkpt lat="32.91557" lon="9.739185"><ele>275.0</ele><time>2026-04-20T13:27:40.895Z</time></trkpt><trkpt lat="32.9156183" lon="9.739045"><ele>275.0</ele><time>2026-04-20T13:27:41.895Z</time></trkpt><trkpt lat="32.9156717" lon="9.738905"><ele>275.0</ele><time>2026-04-20T13:27:42.895Z</time></trkpt><trkpt lat="32.9157217" lon="9.7387633"><ele>275.0</ele><time>2026-04-20T13:27:43.895Z</time></trkpt><trkpt lat="32.91577" lon="9.7386283"><ele>275.25</ele><time>2026-04-20T13:27:44.895Z</time></trkpt><trkpt lat="32.9158183" lon="9.7384917"><ele>275.5</ele><time>2026-04-20T13:27:45.895Z</time></trkpt><trkpt lat="32.9158667" lon="9.7383383"><ele>275.75</ele><time>2026-04-20T13:27:46.895Z</time></trkpt><trkpt lat="32.9159117" lon="9.7381883"><ele>276.0</ele><time>2026-04-20T13:27:47.895Z</time></trkpt><trkpt lat="32.9159683" lon="9.738055"><ele>275.5</ele><time>2026-04-20T13:27:48.895Z</time></trkpt><trkpt lat="32.9160233" lon="9.7379033"><ele>275.0</ele><time>2026-04-20T13:27:49.895Z</time></trkpt><trkpt lat="32.9160767" lon="9.7377617"><ele>274.5</ele><time>2026-04-20T13:27:50.895Z</time></trkpt><trkpt lat="32.9161233" lon="9.7376183"><ele>274.0</ele><time>2026-04-20T13:27:51.895Z</time></trkpt><trkpt lat="32.9161733" lon="9.7374767"><ele>274.0</ele><time>2026-04-20T13:27:52.895Z</time></trkpt><trkpt lat="32.9162217" lon="9.7373367"><ele>274.0</ele><time>2026-04-20T13:27:53.895Z</time></trkpt><trkpt lat="32.9162667" lon="9.7371933"><ele>274.0</ele><time>2026-04-20T13:27:54.895Z</time></trkpt><trkpt lat="32.9163167" lon="9.7370483"><ele>274.0</ele><time>2026-04-20T13:27:55.895Z</time></trkpt><trkpt lat="32.9163667" lon="9.736915"><ele>273.75</ele><time>2026-04-20T13:27:56.895Z</time></trkpt><trkpt lat="32.91642" lon="9.7367767"><ele>273.5</ele><time>2026-04-20T13:27:57.895Z</time></trkpt><trkpt lat="32.91647" lon="9.7366383"><ele>273.25</ele><time>2026-04-20T13:27:58.895Z</time></trkpt><trkpt lat="32.9165233" lon="9.7364967"><ele>273.0</ele><time>2026-04-20T13:27:59.895Z</time></trkpt><trkpt lat="32.916575" lon="9.7363633"><ele>273.0</ele><time>2026-04-20T13:28:00.895Z</time></trkpt><trkpt lat="32.9166317" lon="9.736225"><ele>273.0</ele><time>2026-04-20T13:28:01.895Z</time></trkpt><trkpt lat="32.91668" lon="9.736085"><ele>273.0</ele><time>2026-04-20T13:28:02.895Z</time></trkpt><trkpt lat="32.9167417" lon="9.735935"><ele>273.0</ele><time>2026-04-20T13:28:03.895Z</time></trkpt><trkpt lat="32.9167967" lon="9.7357983"><ele>273.25</ele><time>2026-04-20T13:28:04.895Z</time></trkpt><trkpt lat="32.91684" lon="9.7356583"><ele>273.5</ele><time>2026-04-20T13:28:05.895Z</time></trkpt><trkpt lat="32.91689" lon="9.735525"><ele>273.75</ele><time>2026-04-20T13:28:06.895Z</time></trkpt><trkpt lat="32.9169383" lon="9.7353883"><ele>274.0</ele><time>2026-04-20T13:28:07.895Z</time></trkpt><trkpt lat="32.91698" lon="9.735255"><ele>273.5</ele><time>2026-04-20T13:28:08.895Z</time></trkpt><trkpt lat="32.9170283" lon="9.7351167"><ele>273.0</ele><time>2026-04-20T13:28:09.895Z</time></trkpt><trkpt lat="32.9170817" lon="9.734975"><ele>272.5</ele><time>2026-04-20T13:28:10.895Z</time></trkpt><trkpt lat="32.9171367" lon="9.73485"><ele>272.0</ele><time>2026-04-20T13:28:11.895Z</time></trkpt><trkpt lat="32.9171967" lon="9.734715"><ele>272.0</ele><time>2026-04-20T13:28:12.895Z</time></trkpt><trkpt lat="32.9172467" lon="9.7345767"><ele>272.0</ele><time>2026-04-20T13:28:13.895Z</time></trkpt><trkpt lat="32.9173083" lon="9.734445"><ele>272.0</ele><time>2026-04-20T13:28:14.895Z</time></trkpt><trkpt lat="32.9173583" lon="9.7343133"><ele>272.0</ele><time>2026-04-20T13:28:15.895Z</time></trkpt><trkpt lat="32.9174083" lon="9.7341733"><ele>272.5</ele><time>2026-04-20T13:28:16.895Z</time></trkpt><trkpt lat="32.9174683" lon="9.7340317"><ele>273.0</ele><time>2026-04-20T13:28:17.895Z</time></trkpt><trkpt lat="32.91752" lon="9.7338933"><ele>273.5</ele><time>2026-04-20T13:28:18.895Z</time></trkpt><trkpt lat="32.9175633" lon="9.7337517"><ele>274.0</ele><time>2026-04-20T13:28:19.895Z</time></trkpt><trkpt lat="32.9176017" lon="9.7336133"><ele>274.0</ele><time>2026-04-20T13:28:20.895Z</time></trkpt><trkpt lat="32.9176467" lon="9.7334717"><ele>274.0</ele><time>2026-04-20T13:28:21.895Z</time></trkpt><trkpt lat="32.9176933" lon="9.73333"><ele>274.0</ele><time>2026-04-20T13:28:22.895Z</time></trkpt><trkpt lat="32.9177517" lon="9.7331967"><ele>274.0</ele><time>2026-04-20T13:28:23.895Z</time></trkpt><trkpt lat="32.91781" lon="9.7330733"><ele>274.0</ele><time>2026-04-20T13:28:24.895Z</time></trkpt><trkpt lat="32.9178617" lon="9.732945"><ele>274.0</ele><time>2026-04-20T13:28:25.895Z</time></trkpt><trkpt lat="32.9179067" lon="9.732815"><ele>274.0</ele><time>2026-04-20T13:28:26.895Z</time></trkpt><trkpt lat="32.9179433" lon="9.732675"><ele>274.0</ele><time>2026-04-20T13:28:27.895Z</time></trkpt><trkpt lat="32.91798" lon="9.7325367"><ele>273.75</ele><time>2026-04-20T13:28:28.895Z</time></trkpt><trkpt lat="32.9180233" lon="9.7323967"><ele>273.5</ele><time>2026-04-20T13:28:29.895Z</time></trkpt><trkpt lat="32.918075" lon="9.7322583"><ele>273.25</ele><time>2026-04-20T13:28:30.895Z</time></trkpt><trkpt lat="32.9181283" lon="9.732125"><ele>273.0</ele><time>2026-04-20T13:28:31.895Z</time></trkpt><trkpt lat="32.9181917" lon="9.731985"><ele>272.5</ele><time>2026-04-20T13:28:32.895Z</time></trkpt><trkpt lat="32.9182433" lon="9.731845"><ele>272.0</ele><time>2026-04-20T13:28:33.895Z</time></trkpt><trkpt lat="32.918295" lon="9.7317067"><ele>271.5</ele><time>2026-04-20T13:28:34.895Z</time></trkpt><trkpt lat="32.9183417" lon="9.73157"><ele>271.0</ele><time>2026-04-20T13:28:35.895Z</time></trkpt><trkpt lat="32.91839" lon="9.7314367"><ele>271.25</ele><time>2026-04-20T13:28:36.895Z</time></trkpt><trkpt lat="32.9184367" lon="9.731305"><ele>271.5</ele><time>2026-04-20T13:28:37.895Z</time></trkpt><trkpt lat="32.9184883" lon="9.7311733"><ele>271.75</ele><time>2026-04-20T13:28:38.895Z</time></trkpt><trkpt lat="32.9185417" lon="9.7310533"><ele>272.0</ele><time>2026-04-20T13:28:39.895Z</time></trkpt><trkpt lat="32.918595" lon="9.7309183"><ele>272.0</ele><time>2026-04-20T13:28:40.895Z</time></trkpt><trkpt lat="32.9186417" lon="9.7307933"><ele>272.0</ele><time>2026-04-20T13:28:41.895Z</time></trkpt><trkpt lat="32.9186867" lon="9.7306567"><ele>272.0</ele><time>2026-04-20T13:28:42.895Z</time></trkpt><trkpt lat="32.9187333" lon="9.7305183"><ele>272.0</ele><time>2026-04-20T13:28:43.895Z</time></trkpt><trkpt lat="32.9187883" lon="9.7303783"><ele>272.0</ele><time>2026-04-20T13:28:44.895Z</time></trkpt><trkpt lat="32.918835" lon="9.730245"><ele>272.0</ele><time>2026-04-20T13:28:45.896Z</time></trkpt><trkpt lat="32.9188867" lon="9.730115"><ele>272.0</ele><time>2026-04-20T13:28:46.895Z</time></trkpt><trkpt lat="32.9189367" lon="9.7299867"><ele>272.0</ele><time>2026-04-20T13:28:47.895Z</time></trkpt><trkpt lat="32.918985" lon="9.7298567"><ele>271.5</ele><time>2026-04-20T13:28:48.895Z</time></trkpt><trkpt lat="32.9190383" lon="9.7297233"><ele>271.0</ele><time>2026-04-20T13:28:49.895Z</time></trkpt><trkpt lat="32.9190817" lon="9.729595"><ele>270.5</ele><time>2026-04-20T13:28:50.895Z</time></trkpt><trkpt lat="32.9191383" lon="9.7294667"><ele>270.0</ele><time>2026-04-20T13:28:51.895Z</time></trkpt><trkpt lat="32.9191917" lon="9.72933"><ele>270.0</ele><time>2026-04-20T13:28:52.895Z</time></trkpt><trkpt lat="32.9192367" lon="9.7292"><ele>270.0</ele><time>2026-04-20T13:28:53.895Z</time></trkpt><trkpt lat="32.9192883" lon="9.7290683"><ele>270.0</ele><time>2026-04-20T13:28:54.895Z</time></trkpt><trkpt lat="32.919345" lon="9.7289433"><ele>270.0</ele><time>2026-04-20T13:28:55.895Z</time></trkpt><trkpt lat="32.91939" lon="9.72882"><ele>270.0</ele><time>2026-04-20T13:28:56.895Z</time></trkpt><trkpt lat="32.91944" lon="9.7286933"><ele>270.0</ele><time>2026-04-20T13:28:57.895Z</time></trkpt><trkpt lat="32.919485" lon="9.7285667"><ele>270.0</ele><time>2026-04-20T13:28:58.895Z</time></trkpt><trkpt lat="32.919525" lon="9.728435"><ele>270.0</ele><time>2026-04-20T13:28:59.895Z</time></trkpt><trkpt lat="32.919575" lon="9.7283017"><ele>269.75</ele><time>2026-04-20T13:29:00.895Z</time></trkpt><trkpt lat="32.919625" lon="9.728165"><ele>269.5</ele><time>2026-04-20T13:29:01.895Z</time></trkpt><trkpt lat="32.919675" lon="9.7280317"><ele>269.25</ele><time>2026-04-20T13:29:02.895Z</time></trkpt><trkpt lat="32.9197283" lon="9.7279033"><ele>269.0</ele><time>2026-04-20T13:29:03.895Z</time></trkpt><trkpt lat="32.9197783" lon="9.7277783"><ele>269.0</ele><time>2026-04-20T13:29:04.895Z</time></trkpt><trkpt lat="32.9198317" lon="9.7276583"><ele>269.0</ele><time>2026-04-20T13:29:05.895Z</time></trkpt><trkpt lat="32.9198833" lon="9.72753"><ele>269.0</ele><time>2026-04-20T13:29:06.895Z</time></trkpt><trkpt lat="32.91993" lon="9.7274117"><ele>269.0</ele><time>2026-04-20T13:29:07.895Z</time></trkpt><trkpt lat="32.9199667" lon="9.7272983"><ele>269.0</ele><time>2026-04-20T13:29:08.895Z</time></trkpt><trkpt lat="32.9199983" lon="9.7271967"><ele>269.0</ele><time>2026-04-20T13:29:09.895Z</time></trkpt><trkpt lat="32.9200283" lon="9.7270983"><ele>269.0</ele><time>2026-04-20T13:29:10.895Z</time></trkpt><trkpt lat="32.9200567" lon="9.7270117"><ele>269.0</ele><time>2026-04-20T13:29:11.895Z</time></trkpt><trkpt lat="32.9200867" lon="9.7269183"><ele>269.0</ele><time>2026-04-20T13:29:12.895Z</time></trkpt><trkpt lat="32.9201183" lon="9.7268183"><ele>269.0</ele><time>2026-04-20T13:29:13.895Z</time></trkpt><trkpt lat="32.920155" lon="9.7267117"><ele>269.0</ele><time>2026-04-20T13:29:14.895Z</time></trkpt><trkpt lat="32.9201983" lon="9.7266033"><ele>268.59999999999997</ele><time>2026-04-20T13:29:15.895Z</time></trkpt><trkpt lat="32.9202383" lon="9.7265033"><ele>268.2</ele><time>2026-04-20T13:29:16.895Z</time></trkpt><trkpt lat="32.9202833" lon="9.7264083"><ele>267.79999999999995</ele><time>2026-04-20T13:29:17.895Z</time></trkpt><trkpt lat="32.9203183" lon="9.7263"><ele>267.4</ele><time>2026-04-20T13:29:18.895Z</time></trkpt><trkpt lat="32.9203667" lon="9.7262033"><ele>267.0</ele><time>2026-04-20T13:29:19.895Z</time></trkpt><trkpt lat="32.9204083" lon="9.7260983"><ele>266.8</ele><time>2026-04-20T13:29:20.895Z</time></trkpt><trkpt lat="32.9204467" lon="9.726"><ele>266.6</ele><time>2026-04-20T13:29:21.895Z</time></trkpt><trkpt lat="32.9204883" lon="9.7258983"><ele>266.40000000000003</ele><time>2026-04-20T13:29:22.895Z</time></trkpt><trkpt lat="32.9205267" lon="9.7257983"><ele>266.2</ele><time>2026-04-20T13:29:23.895Z</time></trkpt><trkpt lat="32.9205567" lon="9.7256917"><ele>266.0</ele><time>2026-04-20T13:29:24.895Z</time></trkpt><trkpt lat="32.9206017" lon="9.7255767"><ele>266.0</ele><time>2026-04-20T13:29:25.895Z</time></trkpt><trkpt lat="32.920645" lon="9.7254533"><ele>266.0</ele><time>2026-04-20T13:29:26.895Z</time></trkpt><trkpt lat="32.920685" lon="9.7253217"><ele>266.0</ele><time>2026-04-20T13:29:27.895Z</time></trkpt><trkpt lat="32.9207333" lon="9.7251917"><ele>266.0</ele><time>2026-04-20T13:29:28.895Z</time></trkpt><trkpt lat="32.92079" lon="9.7250517"><ele>265.75</ele><time>2026-04-20T13:29:29.895Z</time></trkpt><trkpt lat="32.9208333" lon="9.724915"><ele>265.5</ele><time>2026-04-20T13:29:30.895Z</time></trkpt><trkpt lat="32.9208683" lon="9.7247717"><ele>265.25</ele><time>2026-04-20T13:29:31.895Z</time></trkpt><trkpt lat="32.9209117" lon="9.7246283"><ele>265.0</ele><time>2026-04-20T13:29:32.895Z</time></trkpt><trkpt lat="32.9209667" lon="9.7244917"><ele>265.0</ele><time>2026-04-20T13:29:33.895Z</time></trkpt><trkpt lat="32.9210333" lon="9.72435"><ele>265.0</ele><time>2026-04-20T13:29:34.895Z</time></trkpt><trkpt lat="32.9210967" lon="9.7242117"><ele>265.0</ele><time>2026-04-20T13:29:35.895Z</time></trkpt><trkpt lat="32.9211583" lon="9.7240883"><ele>265.0</ele><time>2026-04-20T13:29:36.895Z</time></trkpt><trkpt lat="32.9212067" lon="9.7239533"><ele>265.0</ele><time>2026-04-20T13:29:37.895Z</time></trkpt><trkpt lat="32.9212567" lon="9.7238167"><ele>265.0</ele><time>2026-04-20T13:29:38.895Z</time></trkpt><trkpt lat="32.9213083" lon="9.7236817"><ele>265.0</ele><time>2026-04-20T13:29:39.895Z</time></trkpt><trkpt lat="32.9213617" lon="9.723545"><ele>265.0</ele><time>2026-04-20T13:29:40.895Z</time></trkpt><trkpt lat="32.9214017" lon="9.7234033"><ele>264.75</ele><time>2026-04-20T13:29:41.895Z</time></trkpt><trkpt lat="32.9214617" lon="9.7232617"><ele>264.5</ele><time>2026-04-20T13:29:42.895Z</time></trkpt><trkpt lat="32.9215167" lon="9.72313"><ele>264.25</ele><time>2026-04-20T13:29:43.895Z</time></trkpt><trkpt lat="32.9215667" lon="9.7229967"><ele>264.0</ele><time>2026-04-20T13:29:44.895Z</time></trkpt><trkpt lat="32.9216133" lon="9.72286"><ele>264.5</ele><time>2026-04-20T13:29:45.895Z</time></trkpt><trkpt lat="32.9216617" lon="9.7227267"><ele>265.0</ele><time>2026-04-20T13:29:46.895Z</time></trkpt><trkpt lat="32.9217133" lon="9.72259"><ele>265.5</ele><time>2026-04-20T13:29:47.895Z</time></trkpt><trkpt lat="32.9217667" lon="9.722445"><ele>266.0</ele><time>2026-04-20T13:29:48.895Z</time></trkpt><trkpt lat="32.921825" lon="9.722305"><ele>266.25</ele><time>2026-04-20T13:29:49.895Z</time></trkpt><trkpt lat="32.92187" lon="9.7221733"><ele>266.5</ele><time>2026-04-20T13:29:50.895Z</time></trkpt><trkpt lat="32.9219133" lon="9.7220317"><ele>266.75</ele><time>2026-04-20T13:29:51.895Z</time></trkpt><trkpt lat="32.9219517" lon="9.7219033"><ele>267.0</ele><time>2026-04-20T13:29:52.895Z</time></trkpt><trkpt lat="32.9219917" lon="9.7217683"><ele>266.5</ele><time>2026-04-20T13:29:53.895Z</time></trkpt><trkpt lat="32.92203" lon="9.72163"><ele>266.0</ele><time>2026-04-20T13:29:54.895Z</time></trkpt><trkpt lat="32.9220867" lon="9.7214917"><ele>265.5</ele><time>2026-04-20T13:29:55.895Z</time></trkpt><trkpt lat="32.9221367" lon="9.7213733"><ele>265.0</ele><time>2026-04-20T13:29:56.895Z</time></trkpt><trkpt lat="32.922185" lon="9.7212483"><ele>265.0</ele><time>2026-04-20T13:29:57.895Z</time></trkpt><trkpt lat="32.922255" lon="9.7211367"><ele>265.0</ele><time>2026-04-20T13:29:58.895Z</time></trkpt><trkpt lat="32.9223283" lon="9.7210383"><ele>265.0</ele><time>2026-04-20T13:29:59.895Z</time></trkpt><trkpt lat="32.9224167" lon="9.720945"><ele>265.0</ele><time>2026-04-20T13:30:00.895Z</time></trkpt><trkpt lat="32.9225" lon="9.7208717"><ele>265.0</ele><time>2026-04-20T13:30:01.895Z</time></trkpt><trkpt lat="32.9225917" lon="9.720795"><ele>263.75</ele><time>2026-04-20T13:30:02.895Z</time></trkpt><trkpt lat="32.92269" lon="9.7207133"><ele>262.5</ele><time>2026-04-20T13:30:03.895Z</time></trkpt><trkpt lat="32.92279" lon="9.72063"><ele>261.25</ele><time>2026-04-20T13:30:04.895Z</time></trkpt><trkpt lat="32.9228983" lon="9.72055"><ele>260.0</ele><time>2026-04-20T13:30:05.895Z</time></trkpt><trkpt lat="32.9229967" lon="9.7204683"><ele>260.0</ele><time>2026-04-20T13:30:06.895Z</time></trkpt><trkpt lat="32.9230983" lon="9.72039"><ele>260.0</ele><time>2026-04-20T13:30:07.895Z</time></trkpt><trkpt lat="32.9232033" lon="9.720315"><ele>260.0</ele><time>2026-04-20T13:30:08.895Z</time></trkpt><trkpt lat="32.9233017" lon="9.7202367"><ele>260.0</ele><time>2026-04-20T13:30:09.895Z</time></trkpt><trkpt lat="32.9233933" lon="9.7201567"><ele>260.75</ele><time>2026-04-20T13:30:10.895Z</time></trkpt><trkpt lat="32.923495" lon="9.72008"><ele>261.5</ele><time>2026-04-20T13:30:11.895Z</time></trkpt><trkpt lat="32.9235933" lon="9.72001"><ele>262.25</ele><time>2026-04-20T13:30:12.895Z</time></trkpt><trkpt lat="32.9236917" lon="9.71993"><ele>263.0</ele><time>2026-04-20T13:30:13.895Z</time></trkpt><trkpt lat="32.9237867" lon="9.7198483"><ele>263.0</ele><time>2026-04-20T13:30:14.895Z</time></trkpt><trkpt lat="32.9238817" lon="9.7197667"><ele>263.0</ele><time>2026-04-20T13:30:15.895Z</time></trkpt><trkpt lat="32.9239667" lon="9.719685"><ele>263.0</ele><time>2026-04-20T13:30:16.895Z</time></trkpt><trkpt lat="32.924055" lon="9.71961"><ele>263.0</ele><time>2026-04-20T13:30:17.895Z</time></trkpt><trkpt lat="32.9241383" lon="9.71953"><ele>263.0</ele><time>2026-04-20T13:30:18.895Z</time></trkpt><trkpt lat="32.9242167" lon="9.71945"><ele>263.0</ele><time>2026-04-20T13:30:19.895Z</time></trkpt><trkpt lat="32.9242933" lon="9.719375"><ele>263.0</ele><time>2026-04-20T13:30:20.895Z</time></trkpt><trkpt lat="32.9243767" lon="9.7193033"><ele>263.0</ele><time>2026-04-20T13:30:21.895Z</time></trkpt><trkpt lat="32.924465" lon="9.7192183"><ele>263.0</ele><time>2026-04-20T13:30:22.894Z</time></trkpt><trkpt lat="32.9245517" lon="9.71913"><ele>263.0</ele><time>2026-04-20T13:30:23.894Z</time></trkpt><trkpt lat="32.924645" lon="9.7190433"><ele>263.0</ele><time>2026-04-20T13:30:24.894Z</time></trkpt><trkpt lat="32.9247417" lon="9.7189667"><ele>263.0</ele><time>2026-04-20T13:30:25.894Z</time></trkpt><trkpt lat="32.9248417" lon="9.7188967"><ele>263.0</ele><time>2026-04-20T13:30:26.894Z</time></trkpt><trkpt lat="32.9249417" lon="9.7188167"><ele>263.0</ele><time>2026-04-20T13:30:27.894Z</time></trkpt><trkpt lat="32.9250417" lon="9.7187383"><ele>262.75</ele><time>2026-04-20T13:30:28.894Z</time></trkpt><trkpt lat="32.9251367" lon="9.71866"><ele>262.5</ele><time>2026-04-20T13:30:29.894Z</time></trkpt><trkpt lat="32.9252283" lon="9.7185817"><ele>262.25</ele><time>2026-04-20T13:30:30.894Z</time></trkpt><trkpt lat="32.92532" lon="9.7184967"><ele>262.0</ele><time>2026-04-20T13:30:31.894Z</time></trkpt><trkpt lat="32.9254067" lon="9.7184217"><ele>261.8</ele><time>2026-04-20T13:30:32.894Z</time></trkpt><trkpt lat="32.925495" lon="9.71834"><ele>261.6</ele><time>2026-04-20T13:30:33.894Z</time></trkpt><trkpt lat="32.9255817" lon="9.7182617"><ele>261.40000000000003</ele><time>2026-04-20T13:30:34.894Z</time></trkpt><trkpt lat="32.9256733" lon="9.71818"><ele>261.2</ele><time>2026-04-20T13:30:35.894Z</time></trkpt><trkpt lat="32.92575" lon="9.7180967"><ele>261.0</ele><time>2026-04-20T13:30:36.894Z</time></trkpt><trkpt lat="32.92583" lon="9.7180167"><ele>261.0</ele><time>2026-04-20T13:30:37.894Z</time></trkpt><trkpt lat="32.9259183" lon="9.7179417"><ele>261.0</ele><time>2026-04-20T13:30:38.894Z</time></trkpt><trkpt lat="32.92601" lon="9.7178567"><ele>261.0</ele><time>2026-04-20T13:30:39.894Z</time></trkpt><trkpt lat="32.9260967" lon="9.7177767"><ele>261.0</ele><time>2026-04-20T13:30:40.894Z</time></trkpt><trkpt lat="32.9261933" lon="9.7176983"><ele>261.0</ele><time>2026-04-20T13:30:41.894Z</time></trkpt><trkpt lat="32.92629" lon="9.717615"><ele>261.0</ele><time>2026-04-20T13:30:42.894Z</time></trkpt><trkpt lat="32.9263767" lon="9.7175367"><ele>261.0</ele><time>2026-04-20T13:30:43.894Z</time></trkpt><trkpt lat="32.92647" lon="9.7174617"><ele>261.0</ele><time>2026-04-20T13:30:44.894Z</time></trkpt><trkpt lat="32.9265633" lon="9.7173867"><ele>261.0</ele><time>2026-04-20T13:30:45.894Z</time></trkpt><trkpt lat="32.9266517" lon="9.717305"><ele>261.0</ele><time>2026-04-20T13:30:46.894Z</time></trkpt><trkpt lat="32.92674" lon="9.7172233"><ele>261.0</ele><time>2026-04-20T13:30:47.894Z</time></trkpt><trkpt lat="32.9268217" lon="9.7171367"><ele>261.0</ele><time>2026-04-20T13:30:48.894Z</time></trkpt><trkpt lat="32.9269033" lon="9.7170583"><ele>261.0</ele><time>2026-04-20T13:30:49.894Z</time></trkpt><trkpt lat="32.9269833" lon="9.71698"><ele>260.40000000000003</ele><time>2026-04-20T13:30:50.894Z</time></trkpt><trkpt lat="32.9270717" lon="9.7169"><ele>259.8</ele><time>2026-04-20T13:30:51.894Z</time></trkpt><trkpt lat="32.9271567" lon="9.71682"><ele>259.20000000000005</ele><time>2026-04-20T13:30:52.894Z</time></trkpt><trkpt lat="32.9272467" lon="9.7167567"><ele>258.6</ele><time>2026-04-20T13:30:53.894Z</time></trkpt><trkpt lat="32.9273333" lon="9.7166883"><ele>258.0</ele><time>2026-04-20T13:30:54.894Z</time></trkpt><trkpt lat="32.92743" lon="9.7166083"><ele>258.0</ele><time>2026-04-20T13:30:55.894Z</time></trkpt><trkpt lat="32.9275267" lon="9.7165383"><ele>258.0</ele><time>2026-04-20T13:30:56.894Z</time></trkpt><trkpt lat="32.927625" lon="9.71647"><ele>258.0</ele><time>2026-04-20T13:30:57.894Z</time></trkpt><trkpt lat="32.9277117" lon="9.7164117"><ele>258.0</ele><time>2026-04-20T13:30:58.894Z</time></trkpt><trkpt lat="32.9278017" lon="9.7163567"><ele>258.0</ele><time>2026-04-20T13:30:59.894Z</time></trkpt><trkpt lat="32.9278783" lon="9.7163017"><ele>258.0</ele><time>2026-04-20T13:31:00.894Z</time></trkpt><trkpt lat="32.92795" lon="9.7162517"><ele>258.0</ele><time>2026-04-20T13:31:01.894Z</time></trkpt><trkpt lat="32.928015" lon="9.7162167"><ele>258.0</ele><time>2026-04-20T13:31:02.894Z</time></trkpt><trkpt lat="32.9280867" lon="9.71617"><ele>258.0</ele><time>2026-04-20T13:31:03.894Z</time></trkpt><trkpt lat="32.928155" lon="9.7161267"><ele>258.0</ele><time>2026-04-20T13:31:04.894Z</time></trkpt><trkpt lat="32.9282333" lon="9.7160883"><ele>258.0</ele><time>2026-04-20T13:31:05.894Z</time></trkpt><trkpt lat="32.928305" lon="9.7160483"><ele>258.0</ele><time>2026-04-20T13:31:06.894Z</time></trkpt><trkpt lat="32.928385" lon="9.7160017"><ele>258.0</ele><time>2026-04-20T13:31:07.894Z</time></trkpt><trkpt lat="32.928465" lon="9.71595"><ele>258.0</ele><time>2026-04-20T13:31:08.894Z</time></trkpt><trkpt lat="32.9285533" lon="9.7159017"><ele>258.0</ele><time>2026-04-20T13:31:09.894Z</time></trkpt><trkpt lat="32.9286433" lon="9.7158583"><ele>258.0</ele><time>2026-04-20T13:31:10.894Z</time></trkpt><trkpt lat="32.9287317" lon="9.7158117"><ele>257.6</ele><time>2026-04-20T13:31:11.894Z</time></trkpt><trkpt lat="32.92882" lon="9.7157517"><ele>257.20000000000005</ele><time>2026-04-20T13:31:12.894Z</time></trkpt><trkpt lat="32.9289067" lon="9.7156867"><ele>256.8</ele><time>2026-04-20T13:31:13.894Z</time></trkpt><trkpt lat="32.9289833" lon="9.715625"><ele>256.40000000000003</ele><time>2026-04-20T13:31:14.894Z</time></trkpt><trkpt lat="32.9290517" lon="9.71556"><ele>256.0</ele><time>2026-04-20T13:31:15.894Z</time></trkpt><trkpt lat="32.9291167" lon="9.71549"><ele>255.99999999999997</ele><time>2026-04-20T13:31:16.894Z</time></trkpt><trkpt lat="32.929185" lon="9.7154217"><ele>256.0</ele><time>2026-04-20T13:31:17.894Z</time></trkpt><trkpt lat="32.9292583" lon="9.715355"><ele>256.0</ele><time>2026-04-20T13:31:18.894Z</time></trkpt><trkpt lat="32.9293217" lon="9.7152967"><ele>256.0</ele><time>2026-04-20T13:31:19.894Z</time></trkpt><trkpt lat="32.9293883" lon="9.7152483"><ele>255.99999999999997</ele><time>2026-04-20T13:31:20.894Z</time></trkpt><trkpt lat="32.9294533" lon="9.7151983"><ele>256.0</ele><time>2026-04-20T13:31:21.894Z</time></trkpt><trkpt lat="32.9295283" lon="9.7151467"><ele>256.40000000000003</ele><time>2026-04-20T13:31:22.894Z</time></trkpt><trkpt lat="32.9296117" lon="9.71508"><ele>256.8</ele><time>2026-04-20T13:31:23.894Z</time></trkpt><trkpt lat="32.9297" lon="9.715015"><ele>257.20000000000005</ele><time>2026-04-20T13:31:24.894Z</time></trkpt><trkpt lat="32.9297883" lon="9.7149583"><ele>257.6</ele><time>2026-04-20T13:31:25.894Z</time></trkpt><trkpt lat="32.9298833" lon="9.7149067"><ele>258.0</ele><time>2026-04-20T13:31:26.894Z</time></trkpt><trkpt lat="32.9299717" lon="9.714845"><ele>258.0</ele><time>2026-04-20T13:31:27.894Z</time></trkpt><trkpt lat="32.9300567" lon="9.7147833"><ele>258.0</ele><time>2026-04-20T13:31:28.894Z</time></trkpt><trkpt lat="32.9301467" lon="9.71472"><ele>258.0</ele><time>2026-04-20T13:31:29.894Z</time></trkpt><trkpt lat="32.9302283" lon="9.714655"><ele>258.0</ele><time>2026-04-20T13:31:30.894Z</time></trkpt><trkpt lat="32.93031" lon="9.714595"><ele>258.0</ele><time>2026-04-20T13:31:31.894Z</time></trkpt><trkpt lat="32.9303883" lon="9.7145367"><ele>258.0</ele><time>2026-04-20T13:31:32.894Z</time></trkpt><trkpt lat="32.930465" lon="9.714475"><ele>258.0</ele><time>2026-04-20T13:31:33.894Z</time></trkpt><trkpt lat="32.930605" lon="9.7143483"><ele>258.0</ele><time>2026-04-20T13:31:35.894Z</time></trkpt><trkpt lat="32.9306817" lon="9.7142883"><ele>258.0</ele><time>2026-04-20T13:31:36.894Z</time></trkpt><trkpt lat="32.93076" lon="9.7142217"><ele>257.8</ele><time>2026-04-20T13:31:37.894Z</time></trkpt><trkpt lat="32.93084" lon="9.7141567"><ele>257.6</ele><time>2026-04-20T13:31:38.894Z</time></trkpt><trkpt lat="32.9309233" lon="9.71409"><ele>257.4</ele><time>2026-04-20T13:31:39.894Z</time></trkpt><trkpt lat="32.931" lon="9.714035"><ele>257.2</ele><time>2026-04-20T13:31:40.894Z</time></trkpt><trkpt lat="32.93108" lon="9.71397"><ele>257.0</ele><time>2026-04-20T13:31:41.894Z</time></trkpt><trkpt lat="32.9311617" lon="9.7138967"><ele>257.0</ele><time>2026-04-20T13:31:42.894Z</time></trkpt><trkpt lat="32.9312433" lon="9.7138217"><ele>257.0</ele><time>2026-04-20T13:31:43.894Z</time></trkpt><trkpt lat="32.9313333" lon="9.713755"><ele>257.0</ele><time>2026-04-20T13:31:44.894Z</time></trkpt><trkpt lat="32.9314283" lon="9.7137017"><ele>257.0</ele><time>2026-04-20T13:31:45.894Z</time></trkpt><trkpt lat="32.9315267" lon="9.7136433"><ele>257.0</ele><time>2026-04-20T13:31:46.894Z</time></trkpt><trkpt lat="32.9316183" lon="9.7135817"><ele>256.8</ele><time>2026-04-20T13:31:47.894Z</time></trkpt><trkpt lat="32.9317033" lon="9.7135233"><ele>256.6</ele><time>2026-04-20T13:31:48.894Z</time></trkpt><trkpt lat="32.9317917" lon="9.7134667"><ele>256.40000000000003</ele><time>2026-04-20T13:31:49.894Z</time></trkpt><trkpt lat="32.931875" lon="9.7134067"><ele>256.2</ele><time>2026-04-20T13:31:50.894Z</time></trkpt><trkpt lat="32.9319683" lon="9.7133467"><ele>256.0</ele><time>2026-04-20T13:31:51.894Z</time></trkpt><trkpt lat="32.9320717" lon="9.713275"><ele>256.0</ele><time>2026-04-20T13:31:52.894Z</time></trkpt><trkpt lat="32.9321667" lon="9.7132133"><ele>256.0</ele><time>2026-04-20T13:31:53.894Z</time></trkpt><trkpt lat="32.9322683" lon="9.713145"><ele>256.0</ele><time>2026-04-20T13:31:54.894Z</time></trkpt><trkpt lat="32.9323717" lon="9.71306"><ele>256.0</ele><time>2026-04-20T13:31:55.894Z</time></trkpt><trkpt lat="32.9324767" lon="9.7129817"><ele>256.5</ele><time>2026-04-20T13:31:56.894Z</time></trkpt><trkpt lat="32.9325767" lon="9.7128983"><ele>257.0</ele><time>2026-04-20T13:31:57.894Z</time></trkpt><trkpt lat="32.93268" lon="9.71282"><ele>257.5</ele><time>2026-04-20T13:31:58.894Z</time></trkpt><trkpt lat="32.9327783" lon="9.712745"><ele>258.0</ele><time>2026-04-20T13:31:59.894Z</time></trkpt><trkpt lat="32.9328683" lon="9.712675"><ele>258.0</ele><time>2026-04-20T13:32:00.894Z</time></trkpt><trkpt lat="32.9329467" lon="9.7126133"><ele>258.0</ele><time>2026-04-20T13:32:01.894Z</time></trkpt><trkpt lat="32.9330217" lon="9.712565"><ele>258.0</ele><time>2026-04-20T13:32:02.894Z</time></trkpt><trkpt lat="32.93309" lon="9.7125117"><ele>258.0</ele><time>2026-04-20T13:32:03.894Z</time></trkpt><trkpt lat="32.9331533" lon="9.7124633"><ele>258.0</ele><time>2026-04-20T13:32:04.894Z</time></trkpt><trkpt lat="32.9332183" lon="9.71242"><ele>258.0</ele><time>2026-04-20T13:32:05.894Z</time></trkpt><trkpt lat="32.93328" lon="9.712385"><ele>258.0</ele><time>2026-04-20T13:32:06.894Z</time></trkpt><trkpt lat="32.9333817" lon="9.7123133"><ele>258.0</ele><time>2026-04-20T13:32:08.894Z</time></trkpt><trkpt lat="32.9334333" lon="9.7122567"><ele>258.0</ele><time>2026-04-20T13:32:09.894Z</time></trkpt><trkpt lat="32.933495" lon="9.7121983"><ele>258.0</ele><time>2026-04-20T13:32:10.894Z</time></trkpt><trkpt lat="32.9335517" lon="9.7121417"><ele>258.0</ele><time>2026-04-20T13:32:11.894Z</time></trkpt><trkpt lat="32.9336067" lon="9.7120833"><ele>258.0</ele><time>2026-04-20T13:32:12.894Z</time></trkpt><trkpt lat="32.9336733" lon="9.7119867"><ele>257.8</ele><time>2026-04-20T13:32:14.894Z</time></trkpt><trkpt lat="32.93376" lon="9.71189"><ele>257.6</ele><time>2026-04-20T13:32:16.894Z</time></trkpt><trkpt lat="32.9338483" lon="9.7118117"><ele>257.4</ele><time>2026-04-20T13:32:18.894Z</time></trkpt><trkpt lat="32.9339333" lon="9.7117383"><ele>257.2</ele><time>2026-04-20T13:32:20.894Z</time></trkpt><trkpt lat="32.93401" lon="9.7116617"><ele>257.0</ele><time>2026-04-20T13:32:22.894Z</time></trkpt><trkpt lat="32.93409" lon="9.7115933"><ele>257.0</ele><time>2026-04-20T13:32:24.894Z</time></trkpt><trkpt lat="32.9341883" lon="9.711505"><ele>257.0</ele><time>2026-04-20T13:32:26.894Z</time></trkpt><trkpt lat="32.934245" lon="9.7114533"><ele>257.0</ele><time>2026-04-20T13:32:27.894Z</time></trkpt><trkpt lat="32.9343417" lon="9.7113633"><ele>257.0</ele><time>2026-04-20T13:32:29.894Z</time></trkpt><trkpt lat="32.9344" lon="9.7113133"><ele>257.0</ele><time>2026-04-20T13:32:30.894Z</time></trkpt><trkpt lat="32.9344667" lon="9.7112583"><ele>256.6</ele><time>2026-04-20T13:32:31.894Z</time></trkpt><trkpt lat="32.9345367" lon="9.7112"><ele>256.2</ele><time>2026-04-20T13:32:32.894Z</time></trkpt><trkpt lat="32.93461" lon="9.7111317"><ele>255.8</ele><time>2026-04-20T13:32:33.894Z</time></trkpt><trkpt lat="32.9346783" lon="9.7110633"><ele>255.4</ele><time>2026-04-20T13:32:34.894Z</time></trkpt><trkpt lat="32.9347583" lon="9.7109967"><ele>255.0</ele><time>2026-04-20T13:32:35.894Z</time></trkpt><trkpt lat="32.9348417" lon="9.710935"><ele>255.0</ele><time>2026-04-20T13:32:36.894Z</time></trkpt><trkpt lat="32.934925" lon="9.7108817"><ele>255.0</ele><time>2026-04-20T13:32:37.894Z</time></trkpt><trkpt lat="32.9349983" lon="9.7108317"><ele>255.0</ele><time>2026-04-20T13:32:38.894Z</time></trkpt><trkpt lat="32.935075" lon="9.7107733"><ele>255.0</ele><time>2026-04-20T13:32:39.894Z</time></trkpt><trkpt lat="32.9351483" lon="9.7107067"><ele>255.0</ele><time>2026-04-20T13:32:40.894Z</time></trkpt><trkpt lat="32.9352267" lon="9.7106417"><ele>254.6</ele><time>2026-04-20T13:32:41.894Z</time></trkpt><trkpt lat="32.935305" lon="9.710575"><ele>254.2</ele><time>2026-04-20T13:32:42.894Z</time></trkpt><trkpt lat="32.93539" lon="9.7105"><ele>253.8</ele><time>2026-04-20T13:32:43.894Z</time></trkpt><trkpt lat="32.9354733" lon="9.7104233"><ele>253.4</ele><time>2026-04-20T13:32:44.894Z</time></trkpt><trkpt lat="32.93555" lon="9.710345"><ele>253.0</ele><time>2026-04-20T13:32:45.894Z</time></trkpt><trkpt lat="32.93563" lon="9.71027"><ele>252.8</ele><time>2026-04-20T13:32:46.894Z</time></trkpt><trkpt lat="32.9357033" lon="9.7101917"><ele>252.60000000000002</ele><time>2026-04-20T13:32:47.894Z</time></trkpt><trkpt lat="32.935785" lon="9.7101017"><ele>252.39999999999998</ele><time>2026-04-20T13:32:48.894Z</time></trkpt><trkpt lat="32.93587" lon="9.7100183"><ele>252.2</ele><time>2026-04-20T13:32:49.894Z</time></trkpt><trkpt lat="32.9359617" lon="9.70993"><ele>252.0</ele><time>2026-04-20T13:32:50.894Z</time></trkpt><trkpt lat="32.9360517" lon="9.709855"><ele>252.0</ele><time>2026-04-20T13:32:51.894Z</time></trkpt><trkpt lat="32.9361433" lon="9.7097817"><ele>252.0</ele><time>2026-04-20T13:32:52.894Z</time></trkpt><trkpt lat="32.9362383" lon="9.7097033"><ele>252.0</ele><time>2026-04-20T13:32:53.894Z</time></trkpt><trkpt lat="32.9363367" lon="9.7096283"><ele>252.0</ele><time>2026-04-20T13:32:54.894Z</time></trkpt><trkpt lat="32.9364383" lon="9.70956"><ele>252.0</ele><time>2026-04-20T13:32:55.894Z</time></trkpt><trkpt lat="32.936545" lon="9.709495"><ele>252.0</ele><time>2026-04-20T13:32:56.894Z</time></trkpt><trkpt lat="32.9366533" lon="9.7094283"><ele>252.0</ele><time>2026-04-20T13:32:57.894Z</time></trkpt><trkpt lat="32.9367483" lon="9.7093633"><ele>252.0</ele><time>2026-04-20T13:32:58.894Z</time></trkpt><trkpt lat="32.93684" lon="9.7093033"><ele>252.0</ele><time>2026-04-20T13:32:59.894Z</time></trkpt><trkpt lat="32.93693" lon="9.7092367"><ele>252.0</ele><time>2026-04-20T13:33:00.894Z</time></trkpt><trkpt lat="32.93702" lon="9.7091633"><ele>252.0</ele><time>2026-04-20T13:33:01.894Z</time></trkpt><trkpt lat="32.9371183" lon="9.7090933"><ele>252.0</ele><time>2026-04-20T13:33:02.894Z</time></trkpt><trkpt lat="32.937205" lon="9.70903"><ele>252.0</ele><time>2026-04-20T13:33:03.894Z</time></trkpt><trkpt lat="32.9372967" lon="9.708965"><ele>252.0</ele><time>2026-04-20T13:33:04.894Z</time></trkpt><trkpt lat="32.9373817" lon="9.7089133"><ele>252.0</ele><time>2026-04-20T13:33:05.894Z</time></trkpt><trkpt lat="32.937475" lon="9.7088583"><ele>252.0</ele><time>2026-04-20T13:33:06.894Z</time></trkpt><trkpt lat="32.9375717" lon="9.7088083"><ele>252.0</ele><time>2026-04-20T13:33:07.894Z</time></trkpt><trkpt lat="32.93767" lon="9.7087567"><ele>252.0</ele><time>2026-04-20T13:33:08.894Z</time></trkpt><trkpt lat="32.93777" lon="9.7087067"><ele>251.8</ele><time>2026-04-20T13:33:09.894Z</time></trkpt><trkpt lat="32.9378733" lon="9.70866"><ele>251.6</ele><time>2026-04-20T13:33:10.894Z</time></trkpt><trkpt lat="32.9379733" lon="9.70862"><ele>251.40000000000003</ele><time>2026-04-20T13:33:11.894Z</time></trkpt><trkpt lat="32.9380667" lon="9.7085617"><ele>251.20000000000002</ele><time>2026-04-20T13:33:12.894Z</time></trkpt><trkpt lat="32.9381517" lon="9.7085033"><ele>251.0</ele><time>2026-04-20T13:33:13.894Z</time></trkpt><trkpt lat="32.9382317" lon="9.708435"><ele>251.0</ele><time>2026-04-20T13:33:14.894Z</time></trkpt><trkpt lat="32.9383083" lon="9.7083667"><ele>251.00000000000003</ele><time>2026-04-20T13:33:15.894Z</time></trkpt><trkpt lat="32.938395" lon="9.7083"><ele>251.00000000000003</ele><time>2026-04-20T13:33:16.894Z</time></trkpt><trkpt lat="32.9384733" lon="9.7082383"><ele>251.0</ele><time>2026-04-20T13:33:17.894Z</time></trkpt><trkpt lat="32.9385467" lon="9.7081667"><ele>251.0</ele><time>2026-04-20T13:33:18.894Z</time></trkpt><trkpt lat="32.938615" lon="9.7080867"><ele>251.20000000000002</ele><time>2026-04-20T13:33:19.894Z</time></trkpt><trkpt lat="32.938685" lon="9.7079983"><ele>251.40000000000003</ele><time>2026-04-20T13:33:20.894Z</time></trkpt><trkpt lat="32.9387533" lon="9.707895"><ele>251.6</ele><time>2026-04-20T13:33:21.894Z</time></trkpt><trkpt lat="32.9388083" lon="9.7077983"><ele>251.8</ele><time>2026-04-20T13:33:22.894Z</time></trkpt><trkpt lat="32.9388617" lon="9.7076933"><ele>252.0</ele><time>2026-04-20T13:33:23.894Z</time></trkpt><trkpt lat="32.9389133" lon="9.7075867"><ele>252.0</ele><time>2026-04-20T13:33:24.894Z</time></trkpt><trkpt lat="32.9389667" lon="9.70747"><ele>252.0</ele><time>2026-04-20T13:33:25.894Z</time></trkpt><trkpt lat="32.9390167" lon="9.7073617"><ele>252.0</ele><time>2026-04-20T13:33:26.894Z</time></trkpt><trkpt lat="32.9390767" lon="9.707245"><ele>252.0</ele><time>2026-04-20T13:33:27.894Z</time></trkpt><trkpt lat="32.9391367" lon="9.707135"><ele>252.0</ele><time>2026-04-20T13:33:28.894Z</time></trkpt><trkpt lat="32.9392017" lon="9.70704"><ele>252.2</ele><time>2026-04-20T13:33:29.894Z</time></trkpt><trkpt lat="32.9392617" lon="9.7069533"><ele>252.39999999999998</ele><time>2026-04-20T13:33:30.894Z</time></trkpt><trkpt lat="32.93933" lon="9.7068733"><ele>252.60000000000002</ele><time>2026-04-20T13:33:31.894Z</time></trkpt><trkpt lat="32.93939" lon="9.7067833"><ele>252.8</ele><time>2026-04-20T13:33:32.894Z</time></trkpt><trkpt lat="32.9394467" lon="9.7066917"><ele>253.0</ele><time>2026-04-20T13:33:33.895Z</time></trkpt><trkpt lat="32.9395" lon="9.7065983"><ele>252.4</ele><time>2026-04-20T13:33:34.894Z</time></trkpt><trkpt lat="32.9395433" lon="9.7064967"><ele>251.8</ele><time>2026-04-20T13:33:35.894Z</time></trkpt><trkpt lat="32.93959" lon="9.70639"><ele>251.2</ele><time>2026-04-20T13:33:36.894Z</time></trkpt><trkpt lat="32.9396367" lon="9.7062867"><ele>250.6</ele><time>2026-04-20T13:33:37.894Z</time></trkpt><trkpt lat="32.93968" lon="9.7061717"><ele>250.0</ele><time>2026-04-20T13:33:38.893Z</time></trkpt><trkpt lat="32.93973" lon="9.70606"><ele>250.0</ele><time>2026-04-20T13:33:39.893Z</time></trkpt><trkpt lat="32.9397817" lon="9.70595"><ele>250.0</ele><time>2026-04-20T13:33:40.893Z</time></trkpt><trkpt lat="32.939825" lon="9.70584"><ele>250.0</ele><time>2026-04-20T13:33:41.893Z</time></trkpt><trkpt lat="32.9398783" lon="9.7057383"><ele>250.0</ele><time>2026-04-20T13:33:42.893Z</time></trkpt><trkpt lat="32.9399267" lon="9.7056183"><ele>250.0</ele><time>2026-04-20T13:33:43.893Z</time></trkpt><trkpt lat="32.9399817" lon="9.7054983"><ele>250.0</ele><time>2026-04-20T13:33:44.893Z</time></trkpt><trkpt lat="32.9400267" lon="9.7053933"><ele>250.0</ele><time>2026-04-20T13:33:45.893Z</time></trkpt><trkpt lat="32.9400717" lon="9.7052783"><ele>250.0</ele><time>2026-04-20T13:33:46.893Z</time></trkpt><trkpt lat="32.9401183" lon="9.7051567"><ele>250.0</ele><time>2026-04-20T13:33:47.893Z</time></trkpt><trkpt lat="32.940165" lon="9.7050367"><ele>250.0</ele><time>2026-04-20T13:33:48.893Z</time></trkpt><trkpt lat="32.9402183" lon="9.7049167"><ele>250.2</ele><time>2026-04-20T13:33:49.893Z</time></trkpt><trkpt lat="32.94027" lon="9.7047983"><ele>250.4</ele><time>2026-04-20T13:33:50.893Z</time></trkpt><trkpt lat="32.940325" lon="9.7046783"><ele>250.60000000000002</ele><time>2026-04-20T13:33:51.893Z</time></trkpt><trkpt lat="32.94038" lon="9.7045683"><ele>250.8</ele><time>2026-04-20T13:33:52.893Z</time></trkpt><trkpt lat="32.9404383" lon="9.704455"><ele>251.0</ele><time>2026-04-20T13:33:53.893Z</time></trkpt><trkpt lat="32.9404983" lon="9.704335"><ele>251.0</ele><time>2026-04-20T13:33:54.893Z</time></trkpt><trkpt lat="32.940565" lon="9.7042233"><ele>251.0</ele><time>2026-04-20T13:33:55.893Z</time></trkpt><trkpt lat="32.9406267" lon="9.7041183"><ele>251.0</ele><time>2026-04-20T13:33:56.893Z</time></trkpt><trkpt lat="32.9406833" lon="9.7040083"><ele>251.0</ele><time>2026-04-20T13:33:57.893Z</time></trkpt><trkpt lat="32.940805" lon="9.70378"><ele>251.0</ele><time>2026-04-20T13:33:59.893Z</time></trkpt><trkpt lat="32.9408617" lon="9.70367"><ele>251.00000000000003</ele><time>2026-04-20T13:34:00.893Z</time></trkpt><trkpt lat="32.9409183" lon="9.703555"><ele>251.00000000000003</ele><time>2026-04-20T13:34:01.893Z</time></trkpt><trkpt lat="32.9409717" lon="9.7034433"><ele>251.0</ele><time>2026-04-20T13:34:02.893Z</time></trkpt><trkpt lat="32.9410283" lon="9.703335"><ele>251.0</ele><time>2026-04-20T13:34:03.893Z</time></trkpt><trkpt lat="32.9410833" lon="9.703235"><ele>250.60000000000002</ele><time>2026-04-20T13:34:04.893Z</time></trkpt><trkpt lat="32.941135" lon="9.7031367"><ele>250.20000000000002</ele><time>2026-04-20T13:34:05.893Z</time></trkpt><trkpt lat="32.941185" lon="9.7030317"><ele>249.79999999999998</ele><time>2026-04-20T13:34:06.893Z</time></trkpt><trkpt lat="32.9412367" lon="9.70293"><ele>249.39999999999998</ele><time>2026-04-20T13:34:07.894Z</time></trkpt><trkpt lat="32.9412933" lon="9.702825"><ele>249.0</ele><time>2026-04-20T13:34:08.893Z</time></trkpt><trkpt lat="32.9413483" lon="9.7027283"><ele>249.0</ele><time>2026-04-20T13:34:09.893Z</time></trkpt><trkpt lat="32.9414083" lon="9.7026383"><ele>248.99999999999997</ele><time>2026-04-20T13:34:10.893Z</time></trkpt><trkpt lat="32.9414767" lon="9.7025467"><ele>248.99999999999997</ele><time>2026-04-20T13:34:11.893Z</time></trkpt><trkpt lat="32.9415517" lon="9.7024467"><ele>249.0</ele><time>2026-04-20T13:34:12.893Z</time></trkpt><trkpt lat="32.9416283" lon="9.7023417"><ele>249.0</ele><time>2026-04-20T13:34:13.893Z</time></trkpt><trkpt lat="32.9416967" lon="9.7022417"><ele>249.25</ele><time>2026-04-20T13:34:14.893Z</time></trkpt><trkpt lat="32.941765" lon="9.7021333"><ele>249.5</ele><time>2026-04-20T13:34:15.893Z</time></trkpt><trkpt lat="32.941835" lon="9.702025"><ele>249.75</ele><time>2026-04-20T13:34:16.893Z</time></trkpt><trkpt lat="32.9419033" lon="9.70192"><ele>250.0</ele><time>2026-04-20T13:34:17.893Z</time></trkpt><trkpt lat="32.94197" lon="9.70181"><ele>249.6</ele><time>2026-04-20T13:34:18.893Z</time></trkpt><trkpt lat="32.9420317" lon="9.7017117"><ele>249.2</ele><time>2026-04-20T13:34:19.893Z</time></trkpt><trkpt lat="32.942095" lon="9.7016"><ele>248.8</ele><time>2026-04-20T13:34:20.893Z</time></trkpt><trkpt lat="32.9421567" lon="9.7014917"><ele>248.4</ele><time>2026-04-20T13:34:21.893Z</time></trkpt><trkpt lat="32.9422283" lon="9.7013867"><ele>248.0</ele><time>2026-04-20T13:34:22.893Z</time></trkpt><trkpt lat="32.9422983" lon="9.7012867"><ele>248.0</ele><time>2026-04-20T13:34:23.893Z</time></trkpt><trkpt lat="32.9423733" lon="9.7011883"><ele>248.0</ele><time>2026-04-20T13:34:24.893Z</time></trkpt><trkpt lat="32.9424417" lon="9.7010967"><ele>248.0</ele><time>2026-04-20T13:34:25.893Z</time></trkpt><trkpt lat="32.942515" lon="9.7010017"><ele>248.0</ele><time>2026-04-20T13:34:26.893Z</time></trkpt><trkpt lat="32.9425983" lon="9.7009067"><ele>248.0</ele><time>2026-04-20T13:34:27.893Z</time></trkpt><trkpt lat="32.942665" lon="9.700815"><ele>248.0</ele><time>2026-04-20T13:34:28.893Z</time></trkpt><trkpt lat="32.942745" lon="9.7007067"><ele>248.0</ele><time>2026-04-20T13:34:29.893Z</time></trkpt><trkpt lat="32.9428267" lon="9.7006067"><ele>248.0</ele><time>2026-04-20T13:34:30.893Z</time></trkpt><trkpt lat="32.942905" lon="9.7005133"><ele>248.0</ele><time>2026-04-20T13:34:31.893Z</time></trkpt><trkpt lat="32.9429717" lon="9.70041"><ele>248.0</ele><time>2026-04-20T13:34:32.893Z</time></trkpt><trkpt lat="32.94304" lon="9.7003133"><ele>248.0</ele><time>2026-04-20T13:34:33.893Z</time></trkpt><trkpt lat="32.9430983" lon="9.7002133"><ele>248.0</ele><time>2026-04-20T13:34:34.893Z</time></trkpt><trkpt lat="32.94316" lon="9.7001083"><ele>248.0</ele><time>2026-04-20T13:34:35.893Z</time></trkpt><trkpt lat="32.9432233" lon="9.699995"><ele>248.0</ele><time>2026-04-20T13:34:36.893Z</time></trkpt><trkpt lat="32.9432783" lon="9.69988"><ele>248.16666666666669</ele><time>2026-04-20T13:34:37.893Z</time></trkpt><trkpt lat="32.9433267" lon="9.6997783"><ele>248.33333333333334</ele><time>2026-04-20T13:34:38.893Z</time></trkpt><trkpt lat="32.9433833" lon="9.6996833"><ele>248.5</ele><time>2026-04-20T13:34:39.893Z</time></trkpt><trkpt lat="32.94344" lon="9.6996017"><ele>248.66666666666669</ele><time>2026-04-20T13:34:40.893Z</time></trkpt><trkpt lat="32.9434933" lon="9.6995317"><ele>248.83333333333334</ele><time>2026-04-20T13:34:41.893Z</time></trkpt><trkpt lat="32.94355" lon="9.699465"><ele>249.0</ele><time>2026-04-20T13:34:42.893Z</time></trkpt><trkpt lat="32.9436167" lon="9.6993833"><ele>249.39999999999998</ele><time>2026-04-20T13:34:43.893Z</time></trkpt><trkpt lat="32.94369" lon="9.6992917"><ele>249.79999999999998</ele><time>2026-04-20T13:34:44.893Z</time></trkpt><trkpt lat="32.9437683" lon="9.6992033"><ele>250.20000000000002</ele><time>2026-04-20T13:34:45.893Z</time></trkpt><trkpt lat="32.94384" lon="9.6991083"><ele>250.60000000000002</ele><time>2026-04-20T13:34:46.893Z</time></trkpt><trkpt lat="32.9439133" lon="9.6990083"><ele>251.0</ele><time>2026-04-20T13:34:47.893Z</time></trkpt><trkpt lat="32.9439833" lon="9.698895"><ele>251.0</ele><time>2026-04-20T13:34:48.893Z</time></trkpt><trkpt lat="32.9440483" lon="9.69877"><ele>251.0</ele><time>2026-04-20T13:34:49.893Z</time></trkpt><trkpt lat="32.9441217" lon="9.6986517"><ele>251.0</ele><time>2026-04-20T13:34:50.893Z</time></trkpt><trkpt lat="32.9441883" lon="9.69854"><ele>251.0</ele><time>2026-04-20T13:34:51.893Z</time></trkpt><trkpt lat="32.9442483" lon="9.69842"><ele>250.5</ele><time>2026-04-20T13:34:52.893Z</time></trkpt><trkpt lat="32.9443183" lon="9.6983033"><ele>250.0</ele><time>2026-04-20T13:34:53.893Z</time></trkpt><trkpt lat="32.944385" lon="9.6981817"><ele>249.5</ele><time>2026-04-20T13:34:54.893Z</time></trkpt><trkpt lat="32.9444583" lon="9.6980567"><ele>249.0</ele><time>2026-04-20T13:34:55.893Z</time></trkpt><trkpt lat="32.9445333" lon="9.6979367"><ele>249.0</ele><time>2026-04-20T13:34:56.893Z</time></trkpt><trkpt lat="32.9445967" lon="9.6978133"><ele>249.0</ele><time>2026-04-20T13:34:57.893Z</time></trkpt><trkpt lat="32.944665" lon="9.6976933"><ele>249.0</ele><time>2026-04-20T13:34:58.893Z</time></trkpt><trkpt lat="32.9447267" lon="9.6975667"><ele>249.0</ele><time>2026-04-20T13:34:59.893Z</time></trkpt><trkpt lat="32.9447917" lon="9.697445"><ele>249.25</ele><time>2026-04-20T13:35:00.893Z</time></trkpt><trkpt lat="32.9448483" lon="9.69733"><ele>249.5</ele><time>2026-04-20T13:35:01.893Z</time></trkpt><trkpt lat="32.9449117" lon="9.6972133"><ele>249.75</ele><time>2026-04-20T13:35:02.893Z</time></trkpt><trkpt lat="32.9449783" lon="9.6970917"><ele>250.0</ele><time>2026-04-20T13:35:03.893Z</time></trkpt><trkpt lat="32.9450417" lon="9.6969567"><ele>249.5</ele><time>2026-04-20T13:35:04.893Z</time></trkpt><trkpt lat="32.9450933" lon="9.6968367"><ele>249.0</ele><time>2026-04-20T13:35:05.893Z</time></trkpt><trkpt lat="32.9451467" lon="9.6967167"><ele>248.5</ele><time>2026-04-20T13:35:06.893Z</time></trkpt><trkpt lat="32.9452083" lon="9.6965867"><ele>248.0</ele><time>2026-04-20T13:35:07.893Z</time></trkpt><trkpt lat="32.945285" lon="9.696465"><ele>248.0</ele><time>2026-04-20T13:35:08.893Z</time></trkpt><trkpt lat="32.9453633" lon="9.6963483"><ele>248.0</ele><time>2026-04-20T13:35:09.893Z</time></trkpt><trkpt lat="32.945435" lon="9.69624"><ele>248.0</ele><time>2026-04-20T13:35:10.893Z</time></trkpt><trkpt lat="32.94551" lon="9.6961317"><ele>248.0</ele><time>2026-04-20T13:35:11.893Z</time></trkpt><trkpt lat="32.945575" lon="9.6960233"><ele>248.2</ele><time>2026-04-20T13:35:12.893Z</time></trkpt><trkpt lat="32.945635" lon="9.695915"><ele>248.4</ele><time>2026-04-20T13:35:13.893Z</time></trkpt><trkpt lat="32.9457033" lon="9.6958067"><ele>248.59999999999997</ele><time>2026-04-20T13:35:14.893Z</time></trkpt><trkpt lat="32.945765" lon="9.6956983"><ele>248.79999999999998</ele><time>2026-04-20T13:35:15.893Z</time></trkpt><trkpt lat="32.9458283" lon="9.695585"><ele>249.0</ele><time>2026-04-20T13:35:16.893Z</time></trkpt><trkpt lat="32.9458917" lon="9.695485"><ele>249.0</ele><time>2026-04-20T13:35:17.893Z</time></trkpt><trkpt lat="32.945955" lon="9.695375"><ele>248.99999999999997</ele><time>2026-04-20T13:35:18.893Z</time></trkpt><trkpt lat="32.9460133" lon="9.695265"><ele>248.99999999999997</ele><time>2026-04-20T13:35:19.893Z</time></trkpt><trkpt lat="32.9460717" lon="9.6951583"><ele>249.0</ele><time>2026-04-20T13:35:20.893Z</time></trkpt><trkpt lat="32.94613" lon="9.69504"><ele>249.0</ele><time>2026-04-20T13:35:21.893Z</time></trkpt><trkpt lat="32.946195" lon="9.694925"><ele>249.0</ele><time>2026-04-20T13:35:22.893Z</time></trkpt><trkpt lat="32.94625" lon="9.6948017"><ele>249.0</ele><time>2026-04-20T13:35:23.893Z</time></trkpt><trkpt lat="32.9463033" lon="9.694675"><ele>249.0</ele><time>2026-04-20T13:35:24.893Z</time></trkpt><trkpt lat="32.9463567" lon="9.6945567"><ele>249.0</ele><time>2026-04-20T13:35:25.893Z</time></trkpt><trkpt lat="32.9464033" lon="9.6944467"><ele>248.6</ele><time>2026-04-20T13:35:26.893Z</time></trkpt><trkpt lat="32.946455" lon="9.694345"><ele>248.2</ele><time>2026-04-20T13:35:27.893Z</time></trkpt><trkpt lat="32.946505" lon="9.69425"><ele>247.79999999999998</ele><time>2026-04-20T13:35:28.893Z</time></trkpt><trkpt lat="32.94656" lon="9.69415"><ele>247.39999999999998</ele><time>2026-04-20T13:35:29.893Z</time></trkpt><trkpt lat="32.9466167" lon="9.6940517"><ele>247.0</ele><time>2026-04-20T13:35:30.893Z</time></trkpt><trkpt lat="32.946665" lon="9.6939533"><ele>247.2</ele><time>2026-04-20T13:35:31.893Z</time></trkpt><trkpt lat="32.9467167" lon="9.6938617"><ele>247.39999999999998</ele><time>2026-04-20T13:35:32.893Z</time></trkpt><trkpt lat="32.9467717" lon="9.6937683"><ele>247.60000000000002</ele><time>2026-04-20T13:35:33.893Z</time></trkpt><trkpt lat="32.94682" lon="9.6936683"><ele>247.8</ele><time>2026-04-20T13:35:34.893Z</time></trkpt><trkpt lat="32.9468733" lon="9.6935633"><ele>248.0</ele><time>2026-04-20T13:35:35.893Z</time></trkpt><trkpt lat="32.946925" lon="9.6934517"><ele>248.0</ele><time>2026-04-20T13:35:36.893Z</time></trkpt><trkpt lat="32.9469833" lon="9.6933317"><ele>248.0</ele><time>2026-04-20T13:35:37.893Z</time></trkpt><trkpt lat="32.9470383" lon="9.693215"><ele>248.0</ele><time>2026-04-20T13:35:38.893Z</time></trkpt><trkpt lat="32.947085" lon="9.69309"><ele>248.0</ele><time>2026-04-20T13:35:39.893Z</time></trkpt><trkpt lat="32.9471333" lon="9.692965"><ele>248.0</ele><time>2026-04-20T13:35:40.893Z</time></trkpt><trkpt lat="32.947175" lon="9.6928367"><ele>248.0</ele><time>2026-04-20T13:35:41.893Z</time></trkpt><trkpt lat="32.9472133" lon="9.6927167"><ele>248.0</ele><time>2026-04-20T13:35:42.893Z</time></trkpt><trkpt lat="32.9472617" lon="9.6925983"><ele>248.0</ele><time>2026-04-20T13:35:43.893Z</time></trkpt><trkpt lat="32.9473" lon="9.6924933"><ele>248.0</ele><time>2026-04-20T13:35:44.893Z</time></trkpt><trkpt lat="32.9473433" lon="9.6923983"><ele>247.60000000000002</ele><time>2026-04-20T13:35:45.893Z</time></trkpt><trkpt lat="32.94739" lon="9.6923017"><ele>247.20000000000002</ele><time>2026-04-20T13:35:46.893Z</time></trkpt><trkpt lat="32.94744" lon="9.6922017"><ele>246.8</ele><time>2026-04-20T13:35:47.893Z</time></trkpt><trkpt lat="32.9474967" lon="9.6920967"><ele>246.4</ele><time>2026-04-20T13:35:48.893Z</time></trkpt><trkpt lat="32.9475467" lon="9.6919883"><ele>246.0</ele><time>2026-04-20T13:35:49.893Z</time></trkpt><trkpt lat="32.9476" lon="9.691875"><ele>246.0</ele><time>2026-04-20T13:35:50.893Z</time></trkpt><trkpt lat="32.9476517" lon="9.6917633"><ele>246.00000000000003</ele><time>2026-04-20T13:35:51.893Z</time></trkpt><trkpt lat="32.9477017" lon="9.6916483"><ele>246.00000000000003</ele><time>2026-04-20T13:35:52.893Z</time></trkpt><trkpt lat="32.9477483" lon="9.69154"><ele>246.0</ele><time>2026-04-20T13:35:53.893Z</time></trkpt><trkpt lat="32.9477883" lon="9.6914233"><ele>246.0</ele><time>2026-04-20T13:35:54.893Z</time></trkpt><trkpt lat="32.947845" lon="9.6913017"><ele>246.0</ele><time>2026-04-20T13:35:55.893Z</time></trkpt><trkpt lat="32.947895" lon="9.6911767"><ele>246.00000000000003</ele><time>2026-04-20T13:35:56.893Z</time></trkpt><trkpt lat="32.947945" lon="9.691055"><ele>246.00000000000003</ele><time>2026-04-20T13:35:57.893Z</time></trkpt><trkpt lat="32.94799" lon="9.6909467"><ele>246.0</ele><time>2026-04-20T13:35:58.893Z</time></trkpt><trkpt lat="32.9480467" lon="9.690825"><ele>246.0</ele><time>2026-04-20T13:35:59.893Z</time></trkpt><trkpt lat="32.9481" lon="9.6907067"><ele>246.20000000000002</ele><time>2026-04-20T13:36:00.893Z</time></trkpt><trkpt lat="32.9481433" lon="9.6906"><ele>246.40000000000003</ele><time>2026-04-20T13:36:01.893Z</time></trkpt><trkpt lat="32.948195" lon="9.6904917"><ele>246.6</ele><time>2026-04-20T13:36:02.893Z</time></trkpt><trkpt lat="32.9482417" lon="9.6903833"><ele>246.8</ele><time>2026-04-20T13:36:03.893Z</time></trkpt><trkpt lat="32.94828" lon="9.6902617"><ele>247.0</ele><time>2026-04-20T13:36:04.893Z</time></trkpt><trkpt lat="32.9483183" lon="9.6901383"><ele>247.0</ele><time>2026-04-20T13:36:05.893Z</time></trkpt><trkpt lat="32.948365" lon="9.6900183"><ele>247.0</ele><time>2026-04-20T13:36:06.893Z</time></trkpt><trkpt lat="32.948405" lon="9.689895"><ele>247.0</ele><time>2026-04-20T13:36:07.893Z</time></trkpt><trkpt lat="32.948455" lon="9.6897683"><ele>247.0</ele><time>2026-04-20T13:36:08.893Z</time></trkpt><trkpt lat="32.948505" lon="9.6896433"><ele>246.6</ele><time>2026-04-20T13:36:09.893Z</time></trkpt><trkpt lat="32.9485683" lon="9.689525"><ele>246.2</ele><time>2026-04-20T13:36:10.893Z</time></trkpt><trkpt lat="32.94863" lon="9.689415"><ele>245.8</ele><time>2026-04-20T13:36:11.893Z</time></trkpt><trkpt lat="32.948685" lon="9.6893133"><ele>245.4</ele><time>2026-04-20T13:36:12.893Z</time></trkpt><trkpt lat="32.9487383" lon="9.689225"><ele>245.0</ele><time>2026-04-20T13:36:13.893Z</time></trkpt><trkpt lat="32.9487717" lon="9.6891433"><ele>245.00000000000003</ele><time>2026-04-20T13:36:14.893Z</time></trkpt><trkpt lat="32.9488083" lon="9.6890767"><ele>245.0</ele><time>2026-04-20T13:36:15.893Z</time></trkpt><trkpt lat="32.9488433" lon="9.6890117"><ele>245.0</ele><time>2026-04-20T13:36:16.893Z</time></trkpt><trkpt lat="32.948905" lon="9.6888833"><ele>245.0</ele><time>2026-04-20T13:36:18.893Z</time></trkpt><trkpt lat="32.94894" lon="9.688805"><ele>245.00000000000003</ele><time>2026-04-20T13:36:19.893Z</time></trkpt><trkpt lat="32.948975" lon="9.6887167"><ele>245.0</ele><time>2026-04-20T13:36:20.893Z</time></trkpt><trkpt lat="32.94902" lon="9.6886283"><ele>244.8</ele><time>2026-04-20T13:36:21.893Z</time></trkpt><trkpt lat="32.9490667" lon="9.68854"><ele>244.6</ele><time>2026-04-20T13:36:22.893Z</time></trkpt><trkpt lat="32.949125" lon="9.6884517"><ele>244.39999999999998</ele><time>2026-04-20T13:36:23.893Z</time></trkpt><trkpt lat="32.94918" lon="9.68835"><ele>244.2</ele><time>2026-04-20T13:36:24.893Z</time></trkpt><trkpt lat="32.9492417" lon="9.6882467"><ele>244.0</ele><time>2026-04-20T13:36:25.893Z</time></trkpt><trkpt lat="32.9492967" lon="9.6881417"><ele>243.79999999999998</ele><time>2026-04-20T13:36:26.893Z</time></trkpt><trkpt lat="32.9493433" lon="9.688025"><ele>243.59999999999997</ele><time>2026-04-20T13:36:27.893Z</time></trkpt><trkpt lat="32.9493833" lon="9.68791"><ele>243.4</ele><time>2026-04-20T13:36:28.893Z</time></trkpt><trkpt lat="32.9494217" lon="9.6877967"><ele>243.2</ele><time>2026-04-20T13:36:29.893Z</time></trkpt><trkpt lat="32.9494633" lon="9.6877067"><ele>243.0</ele><time>2026-04-20T13:36:30.893Z</time></trkpt><trkpt lat="32.9494967" lon="9.6876233"><ele>242.83333333333334</ele><time>2026-04-20T13:36:31.893Z</time></trkpt><trkpt lat="32.949535" lon="9.68754"><ele>242.66666666666669</ele><time>2026-04-20T13:36:32.893Z</time></trkpt><trkpt lat="32.949575" lon="9.6874517"><ele>242.5</ele><time>2026-04-20T13:36:33.893Z</time></trkpt><trkpt lat="32.9496183" lon="9.68736"><ele>242.33333333333334</ele><time>2026-04-20T13:36:34.893Z</time></trkpt><trkpt lat="32.9496717" lon="9.6872667"><ele>242.16666666666669</ele><time>2026-04-20T13:36:35.893Z</time></trkpt><trkpt lat="32.949735" lon="9.6871767"><ele>242.0</ele><time>2026-04-20T13:36:36.893Z</time></trkpt><trkpt lat="32.949795" lon="9.6870767"><ele>242.0</ele><time>2026-04-20T13:36:37.893Z</time></trkpt><trkpt lat="32.9498617" lon="9.686985"><ele>242.0</ele><time>2026-04-20T13:36:38.893Z</time></trkpt><trkpt lat="32.9499333" lon="9.6868883"><ele>242.0</ele><time>2026-04-20T13:36:39.893Z</time></trkpt><trkpt lat="32.9500033" lon="9.6867917"><ele>242.0</ele><time>2026-04-20T13:36:40.893Z</time></trkpt><trkpt lat="32.9500633" lon="9.6866933"><ele>242.0</ele><time>2026-04-20T13:36:41.893Z</time></trkpt><trkpt lat="32.950115" lon="9.6866133"><ele>242.00000000000003</ele><time>2026-04-20T13:36:42.893Z</time></trkpt><trkpt lat="32.95016" lon="9.6865383"><ele>242.0</ele><time>2026-04-20T13:36:43.893Z</time></trkpt><trkpt lat="32.950205" lon="9.6864517"><ele>242.0</ele><time>2026-04-20T13:36:44.893Z</time></trkpt><trkpt lat="32.9502483" lon="9.686365"><ele>242.0</ele><time>2026-04-20T13:36:45.893Z</time></trkpt><trkpt lat="32.9502967" lon="9.686265"><ele>242.00000000000003</ele><time>2026-04-20T13:36:46.893Z</time></trkpt><trkpt lat="32.9503467" lon="9.6861633"><ele>242.0</ele><time>2026-04-20T13:36:47.893Z</time></trkpt><trkpt lat="32.950395" lon="9.6860583"><ele>242.0</ele><time>2026-04-20T13:36:48.893Z</time></trkpt><trkpt lat="32.9504483" lon="9.6859483"><ele>242.0</ele><time>2026-04-20T13:36:49.893Z</time></trkpt><trkpt lat="32.9504883" lon="9.685845"><ele>242.0</ele><time>2026-04-20T13:36:50.893Z</time></trkpt><trkpt lat="32.9505217" lon="9.68575"><ele>242.0</ele><time>2026-04-20T13:36:51.893Z</time></trkpt><trkpt lat="32.9505433" lon="9.6856483"><ele>242.0</ele><time>2026-04-20T13:36:52.893Z</time></trkpt><trkpt lat="32.9505683" lon="9.6855417"><ele>242.0</ele><time>2026-04-20T13:36:53.893Z</time></trkpt><trkpt lat="32.9505967" lon="9.6854267"><ele>242.0</ele><time>2026-04-20T13:36:54.893Z</time></trkpt><trkpt lat="32.9506317" lon="9.6853183"><ele>242.0</ele><time>2026-04-20T13:36:55.893Z</time></trkpt><trkpt lat="32.9506817" lon="9.68521"><ele>242.0</ele><time>2026-04-20T13:36:56.893Z</time></trkpt><trkpt lat="32.9507467" lon="9.685115"><ele>242.0</ele><time>2026-04-20T13:36:57.893Z</time></trkpt><trkpt lat="32.95082" lon="9.6850233"><ele>241.25</ele><time>2026-04-20T13:36:58.893Z</time></trkpt><trkpt lat="32.9509133" lon="9.68494"><ele>240.5</ele><time>2026-04-20T13:36:59.892Z</time></trkpt><trkpt lat="32.951005" lon="9.6848567"><ele>239.75</ele><time>2026-04-20T13:37:00.892Z</time></trkpt><trkpt lat="32.9510883" lon="9.684765"><ele>239.0</ele><time>2026-04-20T13:37:01.892Z</time></trkpt><trkpt lat="32.951165" lon="9.68467"><ele>239.0</ele><time>2026-04-20T13:37:02.892Z</time></trkpt><trkpt lat="32.951235" lon="9.6845717"><ele>238.99999999999997</ele><time>2026-04-20T13:37:03.892Z</time></trkpt><trkpt lat="32.951295" lon="9.6844717"><ele>238.99999999999997</ele><time>2026-04-20T13:37:04.892Z</time></trkpt><trkpt lat="32.9513533" lon="9.68438"><ele>239.0</ele><time>2026-04-20T13:37:05.892Z</time></trkpt><trkpt lat="32.9514067" lon="9.68428"><ele>239.0</ele><time>2026-04-20T13:37:06.892Z</time></trkpt><trkpt lat="32.951455" lon="9.6841833"><ele>239.2</ele><time>2026-04-20T13:37:07.892Z</time></trkpt><trkpt lat="32.9515117" lon="9.6840833"><ele>239.39999999999998</ele><time>2026-04-20T13:37:08.892Z</time></trkpt><trkpt lat="32.95158" lon="9.6839883"><ele>239.6</ele><time>2026-04-20T13:37:09.892Z</time></trkpt><trkpt lat="32.9516467" lon="9.6838933"><ele>239.8</ele><time>2026-04-20T13:37:10.892Z</time></trkpt><trkpt lat="32.9517133" lon="9.6837983"><ele>240.0</ele><time>2026-04-20T13:37:11.892Z</time></trkpt><trkpt lat="32.9517783" lon="9.683695"><ele>239.4</ele><time>2026-04-20T13:37:12.892Z</time></trkpt><trkpt lat="32.9518467" lon="9.6835983"><ele>238.8</ele><time>2026-04-20T13:37:13.892Z</time></trkpt><trkpt lat="32.9519083" lon="9.6834933"><ele>238.2</ele><time>2026-04-20T13:37:14.892Z</time></trkpt><trkpt lat="32.9519767" lon="9.6833883"><ele>237.6</ele><time>2026-04-20T13:37:15.892Z</time></trkpt><trkpt lat="32.9520483" lon="9.6832883"><ele>237.0</ele><time>2026-04-20T13:37:16.892Z</time></trkpt><trkpt lat="32.9521267" lon="9.6831867"><ele>237.0</ele><time>2026-04-20T13:37:17.892Z</time></trkpt><trkpt lat="32.9522033" lon="9.68309"><ele>237.0</ele><time>2026-04-20T13:37:18.892Z</time></trkpt><trkpt lat="32.952275" lon="9.6830017"><ele>237.0</ele><time>2026-04-20T13:37:19.892Z</time></trkpt><trkpt lat="32.9523467" lon="9.682905"><ele>237.0</ele><time>2026-04-20T13:37:20.892Z</time></trkpt><trkpt lat="32.952415" lon="9.68281"><ele>237.0</ele><time>2026-04-20T13:37:21.892Z</time></trkpt><trkpt lat="32.9524783" lon="9.6827067"><ele>236.8</ele><time>2026-04-20T13:37:22.892Z</time></trkpt><trkpt lat="32.9525433" lon="9.682605"><ele>236.6</ele><time>2026-04-20T13:37:23.892Z</time></trkpt><trkpt lat="32.9526117" lon="9.6825117"><ele>236.40000000000003</ele><time>2026-04-20T13:37:24.892Z</time></trkpt><trkpt lat="32.952675" lon="9.682425"><ele>236.20000000000002</ele><time>2026-04-20T13:37:25.892Z</time></trkpt><trkpt lat="32.952735" lon="9.68234"><ele>236.0</ele><time>2026-04-20T13:37:26.892Z</time></trkpt><trkpt lat="32.9528033" lon="9.682245"><ele>236.0</ele><time>2026-04-20T13:37:27.892Z</time></trkpt><trkpt lat="32.9528617" lon="9.68215"><ele>236.00000000000003</ele><time>2026-04-20T13:37:28.892Z</time></trkpt><trkpt lat="32.9529133" lon="9.682055"><ele>236.00000000000003</ele><time>2026-04-20T13:37:29.892Z</time></trkpt><trkpt lat="32.9529583" lon="9.6819583"><ele>236.0</ele><time>2026-04-20T13:37:30.892Z</time></trkpt><trkpt lat="32.952995" lon="9.68186"><ele>236.0</ele><time>2026-04-20T13:37:31.892Z</time></trkpt><trkpt lat="32.953045" lon="9.68176"><ele>236.4</ele><time>2026-04-20T13:37:32.892Z</time></trkpt><trkpt lat="32.9530933" lon="9.68165"><ele>236.8</ele><time>2026-04-20T13:37:33.892Z</time></trkpt><trkpt lat="32.95315" lon="9.6815433"><ele>237.20000000000002</ele><time>2026-04-20T13:37:34.892Z</time></trkpt><trkpt lat="32.953215" lon="9.6814367"><ele>237.60000000000002</ele><time>2026-04-20T13:37:35.892Z</time></trkpt><trkpt lat="32.9532817" lon="9.681335"><ele>238.0</ele><time>2026-04-20T13:37:36.892Z</time></trkpt><trkpt lat="32.9533517" lon="9.6812283"><ele>238.0</ele><time>2026-04-20T13:37:37.892Z</time></trkpt><trkpt lat="32.9534117" lon="9.681115"><ele>238.0</ele><time>2026-04-20T13:37:38.892Z</time></trkpt><trkpt lat="32.9534767" lon="9.681005"><ele>238.0</ele><time>2026-04-20T13:37:39.892Z</time></trkpt><trkpt lat="32.95354" lon="9.6808867"><ele>238.0</ele><time>2026-04-20T13:37:40.892Z</time></trkpt><trkpt lat="32.9536083" lon="9.6807717"><ele>237.75</ele><time>2026-04-20T13:37:41.892Z</time></trkpt><trkpt lat="32.9536617" lon="9.6806517"><ele>237.5</ele><time>2026-04-20T13:37:42.892Z</time></trkpt><trkpt lat="32.953725" lon="9.68054"><ele>237.25</ele><time>2026-04-20T13:37:43.892Z</time></trkpt><trkpt lat="32.9537967" lon="9.6804183"><ele>237.0</ele><time>2026-04-20T13:37:44.892Z</time></trkpt><trkpt lat="32.9538617" lon="9.6803"><ele>237.0</ele><time>2026-04-20T13:37:45.892Z</time></trkpt><trkpt lat="32.95392" lon="9.6801917"><ele>237.0</ele><time>2026-04-20T13:37:46.892Z</time></trkpt><trkpt lat="32.9539783" lon="9.680085"><ele>237.0</ele><time>2026-04-20T13:37:47.892Z</time></trkpt><trkpt lat="32.9540467" lon="9.67997"><ele>237.0</ele><time>2026-04-20T13:37:48.892Z</time></trkpt><trkpt lat="32.9541083" lon="9.679865"><ele>237.0</ele><time>2026-04-20T13:37:49.892Z</time></trkpt><trkpt lat="32.95416" lon="9.6797483"><ele>237.2</ele><time>2026-04-20T13:37:50.892Z</time></trkpt><trkpt lat="32.954205" lon="9.6796483"><ele>237.39999999999998</ele><time>2026-04-20T13:37:51.892Z</time></trkpt><trkpt lat="32.954245" lon="9.679535"><ele>237.60000000000002</ele><time>2026-04-20T13:37:52.892Z</time></trkpt><trkpt lat="32.9542767" lon="9.6794267"><ele>237.8</ele><time>2026-04-20T13:37:53.892Z</time></trkpt><trkpt lat="32.9543083" lon="9.6793067"><ele>238.0</ele><time>2026-04-20T13:37:54.892Z</time></trkpt><trkpt lat="32.9543367" lon="9.67919"><ele>237.60000000000002</ele><time>2026-04-20T13:37:55.892Z</time></trkpt><trkpt lat="32.95437" lon="9.67908"><ele>237.20000000000002</ele><time>2026-04-20T13:37:56.892Z</time></trkpt><trkpt lat="32.95441" lon="9.6789567"><ele>236.8</ele><time>2026-04-20T13:37:57.892Z</time></trkpt><trkpt lat="32.9544517" lon="9.678835"><ele>236.4</ele><time>2026-04-20T13:37:58.892Z</time></trkpt><trkpt lat="32.9545033" lon="9.6787267"><ele>236.0</ele><time>2026-04-20T13:37:59.892Z</time></trkpt><trkpt lat="32.954555" lon="9.6786133"><ele>235.8</ele><time>2026-04-20T13:38:00.892Z</time></trkpt><trkpt lat="32.9546167" lon="9.6785067"><ele>235.60000000000002</ele><time>2026-04-20T13:38:01.892Z</time></trkpt><trkpt lat="32.9546733" lon="9.6783967"><ele>235.4</ele><time>2026-04-20T13:38:02.892Z</time></trkpt><trkpt lat="32.9547283" lon="9.6782933"><ele>235.2</ele><time>2026-04-20T13:38:03.892Z</time></trkpt><trkpt lat="32.9547817" lon="9.678195"><ele>235.0</ele><time>2026-04-20T13:38:04.892Z</time></trkpt><trkpt lat="32.9548383" lon="9.6780817"><ele>235.0</ele><time>2026-04-20T13:38:05.892Z</time></trkpt><trkpt lat="32.95489" lon="9.6779683"><ele>235.0</ele><time>2026-04-20T13:38:06.892Z</time></trkpt><trkpt lat="32.9549483" lon="9.67785"><ele>235.0</ele><time>2026-04-20T13:38:07.892Z</time></trkpt><trkpt lat="32.9550033" lon="9.6777333"><ele>235.0</ele><time>2026-04-20T13:38:08.892Z</time></trkpt><trkpt lat="32.9550633" lon="9.6776233"><ele>235.0</ele><time>2026-04-20T13:38:09.892Z</time></trkpt><trkpt lat="32.95513" lon="9.67751"><ele>235.0</ele><time>2026-04-20T13:38:10.892Z</time></trkpt><trkpt lat="32.9551917" lon="9.6773933"><ele>235.0</ele><time>2026-04-20T13:38:11.892Z</time></trkpt><trkpt lat="32.9552567" lon="9.6772817"><ele>235.0</ele><time>2026-04-20T13:38:12.892Z</time></trkpt><trkpt lat="32.9553217" lon="9.6771767"><ele>235.0</ele><time>2026-04-20T13:38:13.892Z</time></trkpt><trkpt lat="32.9553883" lon="9.6770667"><ele>235.0</ele><time>2026-04-20T13:38:14.892Z</time></trkpt><trkpt lat="32.9554517" lon="9.6769517"><ele>235.0</ele><time>2026-04-20T13:38:15.892Z</time></trkpt><trkpt lat="32.955515" lon="9.6768417"><ele>235.0</ele><time>2026-04-20T13:38:16.892Z</time></trkpt><trkpt lat="32.9555717" lon="9.676725"><ele>235.0</ele><time>2026-04-20T13:38:17.892Z</time></trkpt><trkpt lat="32.955625" lon="9.67661"><ele>234.8</ele><time>2026-04-20T13:38:18.892Z</time></trkpt><trkpt lat="32.9556717" lon="9.676495"><ele>234.6</ele><time>2026-04-20T13:38:19.892Z</time></trkpt><trkpt lat="32.9557133" lon="9.6763733"><ele>234.39999999999998</ele><time>2026-04-20T13:38:20.892Z</time></trkpt><trkpt lat="32.9557617" lon="9.6762617"><ele>234.2</ele><time>2026-04-20T13:38:21.892Z</time></trkpt><trkpt lat="32.9558017" lon="9.676145"><ele>234.0</ele><time>2026-04-20T13:38:22.892Z</time></trkpt><trkpt lat="32.9558433" lon="9.6760267"><ele>234.2</ele><time>2026-04-20T13:38:23.892Z</time></trkpt><trkpt lat="32.9558883" lon="9.67591"><ele>234.39999999999998</ele><time>2026-04-20T13:38:24.892Z</time></trkpt><trkpt lat="32.9559267" lon="9.675795"><ele>234.6</ele><time>2026-04-20T13:38:25.892Z</time></trkpt><trkpt lat="32.9559667" lon="9.67567"><ele>234.8</ele><time>2026-04-20T13:38:26.892Z</time></trkpt><trkpt lat="32.956015" lon="9.6755417"><ele>235.0</ele><time>2026-04-20T13:38:27.892Z</time></trkpt><trkpt lat="32.9560583" lon="9.6754267"><ele>235.0</ele><time>2026-04-20T13:38:28.892Z</time></trkpt><trkpt lat="32.9561133" lon="9.67531"><ele>235.0</ele><time>2026-04-20T13:38:29.892Z</time></trkpt><trkpt lat="32.9561617" lon="9.6751933"><ele>235.0</ele><time>2026-04-20T13:38:30.892Z</time></trkpt><trkpt lat="32.9562117" lon="9.675075"><ele>235.0</ele><time>2026-04-20T13:38:31.892Z</time></trkpt><trkpt lat="32.9562683" lon="9.67496"><ele>235.0</ele><time>2026-04-20T13:38:32.892Z</time></trkpt><trkpt lat="32.9563283" lon="9.674845"><ele>235.0</ele><time>2026-04-20T13:38:33.892Z</time></trkpt><trkpt lat="32.956375" lon="9.67473"><ele>235.0</ele><time>2026-04-20T13:38:34.892Z</time></trkpt><trkpt lat="32.9564283" lon="9.6746233"><ele>235.0</ele><time>2026-04-20T13:38:35.892Z</time></trkpt><trkpt lat="32.9564917" lon="9.6745167"><ele>235.0</ele><time>2026-04-20T13:38:36.892Z</time></trkpt><trkpt lat="32.95656" lon="9.67442"><ele>235.0</ele><time>2026-04-20T13:38:37.892Z</time></trkpt><trkpt lat="32.9566367" lon="9.6743367"><ele>235.0</ele><time>2026-04-20T13:38:38.892Z</time></trkpt><trkpt lat="32.9567083" lon="9.67425"><ele>235.0</ele><time>2026-04-20T13:38:39.892Z</time></trkpt><trkpt lat="32.9567883" lon="9.6741717"><ele>235.0</ele><time>2026-04-20T13:38:40.892Z</time></trkpt><trkpt lat="32.9568617" lon="9.6740883"><ele>235.0</ele><time>2026-04-20T13:38:41.892Z</time></trkpt><trkpt lat="32.9569233" lon="9.674005"><ele>235.0</ele><time>2026-04-20T13:38:42.892Z</time></trkpt><trkpt lat="32.9569833" lon="9.673905"><ele>235.0</ele><time>2026-04-20T13:38:43.892Z</time></trkpt><trkpt lat="32.9570417" lon="9.673805"><ele>235.0</ele><time>2026-04-20T13:38:44.892Z</time></trkpt><trkpt lat="32.9571" lon="9.6737117"><ele>235.0</ele><time>2026-04-20T13:38:45.892Z</time></trkpt><trkpt lat="32.9571617" lon="9.6736083"><ele>235.0</ele><time>2026-04-20T13:38:46.892Z</time></trkpt><trkpt lat="32.957225" lon="9.6735067"><ele>235.0</ele><time>2026-04-20T13:38:47.892Z</time></trkpt><trkpt lat="32.9572917" lon="9.673405"><ele>234.8</ele><time>2026-04-20T13:38:48.892Z</time></trkpt><trkpt lat="32.9573617" lon="9.6733"><ele>234.6</ele><time>2026-04-20T13:38:49.892Z</time></trkpt><trkpt lat="32.95743" lon="9.6732033"><ele>234.39999999999998</ele><time>2026-04-20T13:38:50.892Z</time></trkpt><trkpt lat="32.957505" lon="9.6730983"><ele>234.2</ele><time>2026-04-20T13:38:51.892Z</time></trkpt><trkpt lat="32.957575" lon="9.6729933"><ele>234.0</ele><time>2026-04-20T13:38:52.892Z</time></trkpt><trkpt lat="32.957655" lon="9.6728883"><ele>233.5</ele><time>2026-04-20T13:38:53.892Z</time></trkpt><trkpt lat="32.9577233" lon="9.6727783"><ele>233.0</ele><time>2026-04-20T13:38:54.892Z</time></trkpt><trkpt lat="32.9577783" lon="9.672665"><ele>232.5</ele><time>2026-04-20T13:38:55.892Z</time></trkpt><trkpt lat="32.957825" lon="9.6725417"><ele>232.0</ele><time>2026-04-20T13:38:56.892Z</time></trkpt><trkpt lat="32.9578783" lon="9.6724217"><ele>231.2</ele><time>2026-04-20T13:38:57.892Z</time></trkpt><trkpt lat="32.9579283" lon="9.6723017"><ele>230.39999999999998</ele><time>2026-04-20T13:38:58.892Z</time></trkpt><trkpt lat="32.9579817" lon="9.6721867"><ele>229.60000000000002</ele><time>2026-04-20T13:38:59.892Z</time></trkpt><trkpt lat="32.9580383" lon="9.67208"><ele>228.8</ele><time>2026-04-20T13:39:00.892Z</time></trkpt><trkpt lat="32.9581017" lon="9.67198"><ele>228.0</ele><time>2026-04-20T13:39:01.892Z</time></trkpt><trkpt lat="32.9581767" lon="9.67188"><ele>228.0</ele><time>2026-04-20T13:39:02.892Z</time></trkpt><trkpt lat="32.958255" lon="9.67178"><ele>228.0</ele><time>2026-04-20T13:39:03.892Z</time></trkpt><trkpt lat="32.958325" lon="9.671685"><ele>228.0</ele><time>2026-04-20T13:39:04.892Z</time></trkpt><trkpt lat="32.95839" lon="9.671585"><ele>228.0</ele><time>2026-04-20T13:39:05.892Z</time></trkpt><trkpt lat="32.9584567" lon="9.6714967"><ele>228.0</ele><time>2026-04-20T13:39:06.892Z</time></trkpt><trkpt lat="32.958525" lon="9.67141"><ele>228.0</ele><time>2026-04-20T13:39:07.892Z</time></trkpt><trkpt lat="32.9585933" lon="9.671325"><ele>228.0</ele><time>2026-04-20T13:39:08.892Z</time></trkpt><trkpt lat="32.9586667" lon="9.6712467"><ele>228.0</ele><time>2026-04-20T13:39:09.892Z</time></trkpt><trkpt lat="32.9587467" lon="9.67117"><ele>228.0</ele><time>2026-04-20T13:39:10.892Z</time></trkpt><trkpt lat="32.9588283" lon="9.67109"><ele>228.0</ele><time>2026-04-20T13:39:11.892Z</time></trkpt><trkpt lat="32.95891" lon="9.671005"><ele>228.0</ele><time>2026-04-20T13:39:12.892Z</time></trkpt><trkpt lat="32.9589817" lon="9.6709117"><ele>228.0</ele><time>2026-04-20T13:39:13.892Z</time></trkpt><trkpt lat="32.9590617" lon="9.6708167"><ele>228.0</ele><time>2026-04-20T13:39:14.892Z</time></trkpt><trkpt lat="32.9591367" lon="9.6707117"><ele>228.0</ele><time>2026-04-20T13:39:15.892Z</time></trkpt><trkpt lat="32.9592067" lon="9.670615"><ele>228.0</ele><time>2026-04-20T13:39:16.892Z</time></trkpt><trkpt lat="32.95928" lon="9.670515"><ele>228.2</ele><time>2026-04-20T13:39:17.892Z</time></trkpt><trkpt lat="32.9593567" lon="9.6704183"><ele>228.4</ele><time>2026-04-20T13:39:18.892Z</time></trkpt><trkpt lat="32.9594367" lon="9.6703183"><ele>228.59999999999997</ele><time>2026-04-20T13:39:19.892Z</time></trkpt><trkpt lat="32.9595083" lon="9.67022"><ele>228.79999999999998</ele><time>2026-04-20T13:39:20.892Z</time></trkpt><trkpt lat="32.9595833" lon="9.6701217"><ele>229.0</ele><time>2026-04-20T13:39:21.892Z</time></trkpt><trkpt lat="32.9596567" lon="9.67002"><ele>229.0</ele><time>2026-04-20T13:39:22.892Z</time></trkpt><trkpt lat="32.95973" lon="9.66992"><ele>229.0</ele><time>2026-04-20T13:39:23.892Z</time></trkpt><trkpt lat="32.9598017" lon="9.6698167"><ele>229.0</ele><time>2026-04-20T13:39:24.892Z</time></trkpt><trkpt lat="32.9598667" lon="9.66971"><ele>229.0</ele><time>2026-04-20T13:39:25.892Z</time></trkpt><trkpt lat="32.9599367" lon="9.6695967"><ele>229.0</ele><time>2026-04-20T13:39:26.892Z</time></trkpt><trkpt lat="32.9600083" lon="9.669485"><ele>229.0</ele><time>2026-04-20T13:39:27.892Z</time></trkpt><trkpt lat="32.9600883" lon="9.6693883"><ele>229.0</ele><time>2026-04-20T13:39:28.892Z</time></trkpt><trkpt lat="32.96016" lon="9.6692867"><ele>229.0</ele><time>2026-04-20T13:39:29.892Z</time></trkpt><trkpt lat="32.960235" lon="9.6691967"><ele>228.83333333333331</ele><time>2026-04-20T13:39:30.892Z</time></trkpt><trkpt lat="32.960305" lon="9.6691083"><ele>228.66666666666666</ele><time>2026-04-20T13:39:31.892Z</time></trkpt><trkpt lat="32.96036" lon="9.6690333"><ele>228.5</ele><time>2026-04-20T13:39:32.892Z</time></trkpt><trkpt lat="32.9604117" lon="9.6689783"><ele>228.33333333333331</ele><time>2026-04-20T13:39:33.892Z</time></trkpt><trkpt lat="32.960455" lon="9.6689167"><ele>228.16666666666666</ele><time>2026-04-20T13:39:34.892Z</time></trkpt><trkpt lat="32.9605" lon="9.66886"><ele>228.0</ele><time>2026-04-20T13:39:35.892Z</time></trkpt><trkpt lat="32.960545" lon="9.6687933"><ele>228.0</ele><time>2026-04-20T13:39:36.892Z</time></trkpt><trkpt lat="32.96059" lon="9.66873"><ele>228.0</ele><time>2026-04-20T13:39:37.892Z</time></trkpt><trkpt lat="32.9606367" lon="9.6686633"><ele>228.0</ele><time>2026-04-20T13:39:38.892Z</time></trkpt><trkpt lat="32.9606867" lon="9.6685867"><ele>228.0</ele><time>2026-04-20T13:39:39.892Z</time></trkpt><trkpt lat="32.96074" lon="9.6685017"><ele>228.0</ele><time>2026-04-20T13:39:40.892Z</time></trkpt><trkpt lat="32.9607933" lon="9.668415"><ele>228.0</ele><time>2026-04-20T13:39:41.892Z</time></trkpt><trkpt lat="32.9608483" lon="9.66832"><ele>227.75</ele><time>2026-04-20T13:39:42.892Z</time></trkpt><trkpt lat="32.9609117" lon="9.6682133"><ele>227.5</ele><time>2026-04-20T13:39:43.892Z</time></trkpt><trkpt lat="32.96098" lon="9.6680983"><ele>227.25</ele><time>2026-04-20T13:39:44.892Z</time></trkpt><trkpt lat="32.9610483" lon="9.6679817"><ele>227.0</ele><time>2026-04-20T13:39:45.892Z</time></trkpt><trkpt lat="32.9611217" lon="9.6678767"><ele>226.5</ele><time>2026-04-20T13:39:46.892Z</time></trkpt><trkpt lat="32.9612017" lon="9.6677717"><ele>226.0</ele><time>2026-04-20T13:39:47.892Z</time></trkpt><trkpt lat="32.96128" lon="9.667675"><ele>225.5</ele><time>2026-04-20T13:39:48.892Z</time></trkpt><trkpt lat="32.961365" lon="9.6675733"><ele>225.0</ele><time>2026-04-20T13:39:49.892Z</time></trkpt><trkpt lat="32.9614367" lon="9.6674617"><ele>225.0</ele><time>2026-04-20T13:39:50.892Z</time></trkpt><trkpt lat="32.9615133" lon="9.6673517"><ele>225.0</ele><time>2026-04-20T13:39:51.892Z</time></trkpt><trkpt lat="32.9615883" lon="9.667245"><ele>225.0</ele><time>2026-04-20T13:39:52.892Z</time></trkpt><trkpt lat="32.9616633" lon="9.66715"><ele>225.0</ele><time>2026-04-20T13:39:53.892Z</time></trkpt><trkpt lat="32.9617433" lon="9.667055"><ele>225.0</ele><time>2026-04-20T13:39:54.892Z</time></trkpt><trkpt lat="32.9618167" lon="9.66697"><ele>225.0</ele><time>2026-04-20T13:39:55.892Z</time></trkpt><trkpt lat="32.961895" lon="9.66689"><ele>225.0</ele><time>2026-04-20T13:39:56.892Z</time></trkpt><trkpt lat="32.961965" lon="9.6668183"><ele>225.0</ele><time>2026-04-20T13:39:57.892Z</time></trkpt><trkpt lat="32.9620467" lon="9.66675"><ele>225.0</ele><time>2026-04-20T13:39:58.892Z</time></trkpt><trkpt lat="32.9621367" lon="9.66668"><ele>225.0</ele><time>2026-04-20T13:39:59.892Z</time></trkpt><trkpt lat="32.9622283" lon="9.6666117"><ele>225.0</ele><time>2026-04-20T13:40:00.892Z</time></trkpt><trkpt lat="32.9623333" lon="9.666535"><ele>225.0</ele><time>2026-04-20T13:40:01.892Z</time></trkpt><trkpt lat="32.9624267" lon="9.6664633"><ele>225.0</ele><time>2026-04-20T13:40:02.892Z</time></trkpt><trkpt lat="32.96251" lon="9.6663917"><ele>225.0</ele><time>2026-04-20T13:40:03.892Z</time></trkpt><trkpt lat="32.9625917" lon="9.66631"><ele>225.0</ele><time>2026-04-20T13:40:04.892Z</time></trkpt><trkpt lat="32.96266" lon="9.666225"><ele>225.0</ele><time>2026-04-20T13:40:05.892Z</time></trkpt><trkpt lat="32.9627317" lon="9.6661433"><ele>225.0</ele><time>2026-04-20T13:40:06.892Z</time></trkpt><trkpt lat="32.962805" lon="9.6660717"><ele>225.0</ele><time>2026-04-20T13:40:07.892Z</time></trkpt><trkpt lat="32.9628867" lon="9.6659933"><ele>225.0</ele><time>2026-04-20T13:40:08.892Z</time></trkpt><trkpt lat="32.962965" lon="9.66592"><ele>225.0</ele><time>2026-04-20T13:40:09.892Z</time></trkpt><trkpt lat="32.963035" lon="9.6658383"><ele>225.0</ele><time>2026-04-20T13:40:10.892Z</time></trkpt><trkpt lat="32.963095" lon="9.6657617"><ele>225.0</ele><time>2026-04-20T13:40:11.892Z</time></trkpt><trkpt lat="32.96315" lon="9.6656883"><ele>225.0</ele><time>2026-04-20T13:40:12.892Z</time></trkpt><trkpt lat="32.9632083" lon="9.66561"><ele>225.0</ele><time>2026-04-20T13:40:13.892Z</time></trkpt><trkpt lat="32.9632617" lon="9.665545"><ele>225.0</ele><time>2026-04-20T13:40:14.892Z</time></trkpt><trkpt lat="32.9633383" lon="9.6654367"><ele>224.66666666666666</ele><time>2026-04-20T13:40:16.892Z</time></trkpt><trkpt lat="32.96342" lon="9.66533"><ele>224.33333333333331</ele><time>2026-04-20T13:40:18.892Z</time></trkpt><trkpt lat="32.9634717" lon="9.6652667"><ele>224.0</ele><time>2026-04-20T13:40:19.892Z</time></trkpt><trkpt lat="32.9635233" lon="9.6651983"><ele>223.66666666666666</ele><time>2026-04-20T13:40:20.892Z</time></trkpt><trkpt lat="32.9635767" lon="9.6651267"><ele>223.33333333333331</ele><time>2026-04-20T13:40:21.892Z</time></trkpt><trkpt lat="32.96364" lon="9.6650533"><ele>223.0</ele><time>2026-04-20T13:40:22.892Z</time></trkpt><trkpt lat="32.96371" lon="9.6649817"><ele>222.8</ele><time>2026-04-20T13:40:23.892Z</time></trkpt><trkpt lat="32.9637817" lon="9.664905"><ele>222.60000000000002</ele><time>2026-04-20T13:40:24.892Z</time></trkpt><trkpt lat="32.96385" lon="9.6648267"><ele>222.39999999999998</ele><time>2026-04-20T13:40:25.892Z</time></trkpt><trkpt lat="32.9639167" lon="9.664745"><ele>222.2</ele><time>2026-04-20T13:40:26.891Z</time></trkpt><trkpt lat="32.9639783" lon="9.6646617"><ele>222.0</ele><time>2026-04-20T13:40:27.891Z</time></trkpt><trkpt lat="32.9640283" lon="9.6645717"><ele>222.0</ele><time>2026-04-20T13:40:28.891Z</time></trkpt><trkpt lat="32.96408" lon="9.6644783"><ele>222.0</ele><time>2026-04-20T13:40:29.891Z</time></trkpt><trkpt lat="32.9641317" lon="9.6643783"><ele>222.0</ele><time>2026-04-20T13:40:30.891Z</time></trkpt><trkpt lat="32.964195" lon="9.66428"><ele>222.0</ele><time>2026-04-20T13:40:31.891Z</time></trkpt><trkpt lat="32.9642517" lon="9.66419"><ele>222.0</ele><time>2026-04-20T13:40:32.891Z</time></trkpt><trkpt lat="32.9643217" lon="9.6641067"><ele>222.2</ele><time>2026-04-20T13:40:33.891Z</time></trkpt><trkpt lat="32.9644017" lon="9.6640283"><ele>222.39999999999998</ele><time>2026-04-20T13:40:34.891Z</time></trkpt><trkpt lat="32.9644783" lon="9.66396"><ele>222.60000000000002</ele><time>2026-04-20T13:40:35.891Z</time></trkpt><trkpt lat="32.96456" lon="9.6638983"><ele>222.8</ele><time>2026-04-20T13:40:36.891Z</time></trkpt><trkpt lat="32.9646383" lon="9.6638317"><ele>223.0</ele><time>2026-04-20T13:40:37.891Z</time></trkpt><trkpt lat="32.9647133" lon="9.6637583"><ele>223.0</ele><time>2026-04-20T13:40:38.891Z</time></trkpt><trkpt lat="32.9647683" lon="9.663675"><ele>223.0</ele><time>2026-04-20T13:40:39.891Z</time></trkpt><trkpt lat="32.9648317" lon="9.663585"><ele>223.0</ele><time>2026-04-20T13:40:40.891Z</time></trkpt><trkpt lat="32.9648833" lon="9.6634933"><ele>223.0</ele><time>2026-04-20T13:40:41.891Z</time></trkpt><trkpt lat="32.9649417" lon="9.66341"><ele>223.0</ele><time>2026-04-20T13:40:42.891Z</time></trkpt><trkpt lat="32.965005" lon="9.663325"><ele>222.8</ele><time>2026-04-20T13:40:43.891Z</time></trkpt><trkpt lat="32.9650667" lon="9.663235"><ele>222.60000000000002</ele><time>2026-04-20T13:40:44.891Z</time></trkpt><trkpt lat="32.9651217" lon="9.663155"><ele>222.39999999999998</ele><time>2026-04-20T13:40:45.891Z</time></trkpt><trkpt lat="32.9651883" lon="9.6630767"><ele>222.2</ele><time>2026-04-20T13:40:46.891Z</time></trkpt><trkpt lat="32.9652617" lon="9.6630083"><ele>222.0</ele><time>2026-04-20T13:40:47.891Z</time></trkpt><trkpt lat="32.9653383" lon="9.662945"><ele>222.0</ele><time>2026-04-20T13:40:48.891Z</time></trkpt><trkpt lat="32.9654183" lon="9.66288"><ele>222.0</ele><time>2026-04-20T13:40:49.891Z</time></trkpt><trkpt lat="32.9655067" lon="9.6628183"><ele>222.0</ele><time>2026-04-20T13:40:50.891Z</time></trkpt><trkpt lat="32.9655883" lon="9.6627617"><ele>222.0</ele><time>2026-04-20T13:40:51.891Z</time></trkpt><trkpt lat="32.9656717" lon="9.6627"><ele>222.0</ele><time>2026-04-20T13:40:52.891Z</time></trkpt><trkpt lat="32.9657567" lon="9.6626433"><ele>221.8</ele><time>2026-04-20T13:40:53.891Z</time></trkpt><trkpt lat="32.96584" lon="9.6625717"><ele>221.6</ele><time>2026-04-20T13:40:54.891Z</time></trkpt><trkpt lat="32.9659217" lon="9.6625083"><ele>221.40000000000003</ele><time>2026-04-20T13:40:55.891Z</time></trkpt><trkpt lat="32.9660033" lon="9.6624467"><ele>221.20000000000002</ele><time>2026-04-20T13:40:56.891Z</time></trkpt><trkpt lat="32.9660833" lon="9.6623867"><ele>221.0</ele><time>2026-04-20T13:40:57.891Z</time></trkpt><trkpt lat="32.9661683" lon="9.6623283"><ele>221.0</ele><time>2026-04-20T13:40:58.891Z</time></trkpt><trkpt lat="32.9662567" lon="9.6622767"><ele>221.00000000000003</ele><time>2026-04-20T13:40:59.891Z</time></trkpt><trkpt lat="32.9663417" lon="9.6622167"><ele>221.00000000000003</ele><time>2026-04-20T13:41:00.892Z</time></trkpt><trkpt lat="32.9664167" lon="9.6621533"><ele>221.0</ele><time>2026-04-20T13:41:01.891Z</time></trkpt><trkpt lat="32.9664933" lon="9.6620833"><ele>221.0</ele><time>2026-04-20T13:41:02.891Z</time></trkpt><trkpt lat="32.9665683" lon="9.6620133"><ele>220.60000000000002</ele><time>2026-04-20T13:41:03.891Z</time></trkpt><trkpt lat="32.9666433" lon="9.6619383"><ele>220.20000000000002</ele><time>2026-04-20T13:41:04.891Z</time></trkpt><trkpt lat="32.9667183" lon="9.6618733"><ele>219.79999999999998</ele><time>2026-04-20T13:41:05.891Z</time></trkpt><trkpt lat="32.9667917" lon="9.6618133"><ele>219.39999999999998</ele><time>2026-04-20T13:41:06.891Z</time></trkpt><trkpt lat="32.96686" lon="9.6617533"><ele>219.0</ele><time>2026-04-20T13:41:07.891Z</time></trkpt><trkpt lat="32.9669267" lon="9.66169"><ele>218.79999999999998</ele><time>2026-04-20T13:41:08.891Z</time></trkpt><trkpt lat="32.9670067" lon="9.66163"><ele>218.59999999999997</ele><time>2026-04-20T13:41:09.891Z</time></trkpt><trkpt lat="32.9670867" lon="9.66157"><ele>218.4</ele><time>2026-04-20T13:41:10.891Z</time></trkpt><trkpt lat="32.9671783" lon="9.6615067"><ele>218.2</ele><time>2026-04-20T13:41:11.891Z</time></trkpt><trkpt lat="32.9672683" lon="9.66145"><ele>218.0</ele><time>2026-04-20T13:41:12.891Z</time></trkpt><trkpt lat="32.9673483" lon="9.6614033"><ele>218.00000000000003</ele><time>2026-04-20T13:41:13.891Z</time></trkpt><trkpt lat="32.967425" lon="9.6613667"><ele>218.0</ele><time>2026-04-20T13:41:14.891Z</time></trkpt><trkpt lat="32.9674967" lon="9.66132"><ele>218.0</ele><time>2026-04-20T13:41:15.891Z</time></trkpt><trkpt lat="32.9675617" lon="9.661285"><ele>218.0</ele><time>2026-04-20T13:41:16.891Z</time></trkpt><trkpt lat="32.9676267" lon="9.661245"><ele>218.00000000000003</ele><time>2026-04-20T13:41:17.891Z</time></trkpt><trkpt lat="32.9676983" lon="9.66119"><ele>218.0</ele><time>2026-04-20T13:41:18.891Z</time></trkpt><trkpt lat="32.9677667" lon="9.661135"><ele>218.0</ele><time>2026-04-20T13:41:19.891Z</time></trkpt><trkpt lat="32.9678217" lon="9.6610867"><ele>218.0</ele><time>2026-04-20T13:41:20.891Z</time></trkpt><trkpt lat="32.9678967" lon="9.6610283"><ele>218.0</ele><time>2026-04-20T13:41:22.891Z</time></trkpt><trkpt lat="32.9679517" lon="9.6609833"><ele>218.0</ele><time>2026-04-20T13:41:35.891Z</time></trkpt><trkpt lat="32.9680483" lon="9.6608883"><ele>218.0</ele><time>2026-04-20T13:41:37.891Z</time></trkpt><trkpt lat="32.9681367" lon="9.6607783"><ele>218.0</ele><time>2026-04-20T13:41:39.891Z</time></trkpt><trkpt lat="32.9681767" lon="9.660715"><ele>218.0</ele><time>2026-04-20T13:41:40.891Z</time></trkpt><trkpt lat="32.9682617" lon="9.660625"><ele>218.0</ele><time>2026-04-20T13:41:42.891Z</time></trkpt><trkpt lat="32.96834" lon="9.6605283"><ele>218.0</ele><time>2026-04-20T13:41:44.891Z</time></trkpt><trkpt lat="32.9684183" lon="9.6604333"><ele>218.0</ele><time>2026-04-20T13:41:46.891Z</time></trkpt><trkpt lat="32.9684683" lon="9.6603867"><ele>218.16666666666669</ele><time>2026-04-20T13:41:47.891Z</time></trkpt><trkpt lat="32.9685267" lon="9.66034"><ele>218.33333333333334</ele><time>2026-04-20T13:41:48.891Z</time></trkpt><trkpt lat="32.9685833" lon="9.6602933"><ele>218.5</ele><time>2026-04-20T13:41:49.891Z</time></trkpt><trkpt lat="32.96864" lon="9.6602433"><ele>218.66666666666669</ele><time>2026-04-20T13:41:50.891Z</time></trkpt><trkpt lat="32.968695" lon="9.660185"><ele>218.83333333333334</ele><time>2026-04-20T13:41:51.891Z</time></trkpt><trkpt lat="32.9687533" lon="9.66012"><ele>219.0</ele><time>2026-04-20T13:41:52.891Z</time></trkpt><trkpt lat="32.968815" lon="9.6600467"><ele>219.16666666666666</ele><time>2026-04-20T13:41:53.891Z</time></trkpt><trkpt lat="32.968875" lon="9.6599833"><ele>219.33333333333331</ele><time>2026-04-20T13:41:54.891Z</time></trkpt><trkpt lat="32.9689383" lon="9.6599183"><ele>219.5</ele><time>2026-04-20T13:41:55.891Z</time></trkpt><trkpt lat="32.969005" lon="9.659845"><ele>219.66666666666666</ele><time>2026-04-20T13:41:56.891Z</time></trkpt><trkpt lat="32.9690667" lon="9.6597767"><ele>219.83333333333331</ele><time>2026-04-20T13:41:57.891Z</time></trkpt><trkpt lat="32.9691283" lon="9.6597083"><ele>220.0</ele><time>2026-04-20T13:41:58.891Z</time></trkpt><trkpt lat="32.96919" lon="9.659635"><ele>219.49999999999997</ele><time>2026-04-20T13:41:59.891Z</time></trkpt><trkpt lat="32.9692467" lon="9.659565"><ele>219.0</ele><time>2026-04-20T13:42:00.891Z</time></trkpt><trkpt lat="32.9693" lon="9.6594933"><ele>218.5</ele><time>2026-04-20T13:42:01.891Z</time></trkpt><trkpt lat="32.9693533" lon="9.6594333"><ele>218.0</ele><time>2026-04-20T13:42:02.891Z</time></trkpt><trkpt lat="32.9694133" lon="9.6593633"><ele>217.49999999999997</ele><time>2026-04-20T13:42:03.891Z</time></trkpt><trkpt lat="32.9694683" lon="9.6593033"><ele>217.0</ele><time>2026-04-20T13:42:04.891Z</time></trkpt><trkpt lat="32.96952" lon="9.65924"><ele>216.6</ele><time>2026-04-20T13:42:05.891Z</time></trkpt><trkpt lat="32.969575" lon="9.6591817"><ele>216.2</ele><time>2026-04-20T13:42:06.891Z</time></trkpt><trkpt lat="32.9696433" lon="9.65912"><ele>215.8</ele><time>2026-04-20T13:42:07.891Z</time></trkpt><trkpt lat="32.9697233" lon="9.6590533"><ele>215.4</ele><time>2026-04-20T13:42:08.891Z</time></trkpt><trkpt lat="32.96981" lon="9.65899"><ele>215.0</ele><time>2026-04-20T13:42:09.891Z</time></trkpt><trkpt lat="32.969895" lon="9.658915"><ele>215.0</ele><time>2026-04-20T13:42:10.891Z</time></trkpt><trkpt lat="32.9699833" lon="9.658845"><ele>215.0</ele><time>2026-04-20T13:42:11.891Z</time></trkpt><trkpt lat="32.97007" lon="9.6587833"><ele>215.0</ele><time>2026-04-20T13:42:12.891Z</time></trkpt><trkpt lat="32.97014" lon="9.6587367"><ele>215.0</ele><time>2026-04-20T13:42:13.891Z</time></trkpt><trkpt lat="32.970205" lon="9.658685"><ele>215.0</ele><time>2026-04-20T13:42:14.891Z</time></trkpt><trkpt lat="32.97028" lon="9.6586283"><ele>215.4</ele><time>2026-04-20T13:42:15.891Z</time></trkpt><trkpt lat="32.97036" lon="9.65857"><ele>215.8</ele><time>2026-04-20T13:42:16.891Z</time></trkpt><trkpt lat="32.97044" lon="9.6585083"><ele>216.2</ele><time>2026-04-20T13:42:17.891Z</time></trkpt><trkpt lat="32.9705267" lon="9.6584533"><ele>216.6</ele><time>2026-04-20T13:42:18.891Z</time></trkpt><trkpt lat="32.9706183" lon="9.6583883"><ele>217.0</ele><time>2026-04-20T13:42:19.891Z</time></trkpt><trkpt lat="32.9707033" lon="9.6583283"><ele>217.0</ele><time>2026-04-20T13:42:20.891Z</time></trkpt><trkpt lat="32.9707933" lon="9.65826"><ele>217.0</ele><time>2026-04-20T13:42:21.891Z</time></trkpt><trkpt lat="32.9708867" lon="9.6581933"><ele>217.0</ele><time>2026-04-20T13:42:22.891Z</time></trkpt><trkpt lat="32.9709667" lon="9.6581233"><ele>217.0</ele><time>2026-04-20T13:42:23.891Z</time></trkpt><trkpt lat="32.9710367" lon="9.6580617"><ele>217.0</ele><time>2026-04-20T13:42:24.891Z</time></trkpt><trkpt lat="32.9711083" lon="9.6580033"><ele>216.8</ele><time>2026-04-20T13:42:25.891Z</time></trkpt><trkpt lat="32.971175" lon="9.65794"><ele>216.6</ele><time>2026-04-20T13:42:26.891Z</time></trkpt><trkpt lat="32.9712433" lon="9.6578733"><ele>216.40000000000003</ele><time>2026-04-20T13:42:27.891Z</time></trkpt><trkpt lat="32.9713033" lon="9.6577933"><ele>216.20000000000002</ele><time>2026-04-20T13:42:28.891Z</time></trkpt><trkpt lat="32.9713683" lon="9.657705"><ele>216.0</ele><time>2026-04-20T13:42:29.891Z</time></trkpt><trkpt lat="32.9714317" lon="9.6576033"><ele>216.0</ele><time>2026-04-20T13:42:30.891Z</time></trkpt><trkpt lat="32.9714933" lon="9.6575"><ele>216.00000000000003</ele><time>2026-04-20T13:42:31.891Z</time></trkpt><trkpt lat="32.9715517" lon="9.65739"><ele>216.00000000000003</ele><time>2026-04-20T13:42:32.891Z</time></trkpt><trkpt lat="32.9716067" lon="9.6572833"><ele>216.0</ele><time>2026-04-20T13:42:33.891Z</time></trkpt><trkpt lat="32.9716683" lon="9.6571733"><ele>216.0</ele><time>2026-04-20T13:42:34.891Z</time></trkpt><trkpt lat="32.971725" lon="9.6570533"><ele>216.0</ele><time>2026-04-20T13:42:35.891Z</time></trkpt><trkpt lat="32.971785" lon="9.6569383"><ele>216.00000000000003</ele><time>2026-04-20T13:42:36.891Z</time></trkpt><trkpt lat="32.971835" lon="9.65682"><ele>216.00000000000003</ele><time>2026-04-20T13:42:37.891Z</time></trkpt><trkpt lat="32.97188" lon="9.6567067"><ele>216.0</ele><time>2026-04-20T13:42:38.891Z</time></trkpt><trkpt lat="32.97193" lon="9.6566"><ele>216.0</ele><time>2026-04-20T13:42:39.891Z</time></trkpt><trkpt lat="32.9719783" lon="9.6564883"><ele>216.0</ele><time>2026-04-20T13:42:40.891Z</time></trkpt><trkpt lat="32.9720317" lon="9.65638"><ele>216.00000000000003</ele><time>2026-04-20T13:42:41.891Z</time></trkpt><trkpt lat="32.97208" lon="9.6562633"><ele>216.00000000000003</ele><time>2026-04-20T13:42:42.891Z</time></trkpt><trkpt lat="32.97213" lon="9.656145"><ele>216.0</ele><time>2026-04-20T13:42:43.891Z</time></trkpt><trkpt lat="32.9721883" lon="9.6560317"><ele>216.0</ele><time>2026-04-20T13:42:44.891Z</time></trkpt><trkpt lat="32.9722433" lon="9.6559183"><ele>215.75</ele><time>2026-04-20T13:42:45.891Z</time></trkpt><trkpt lat="32.9723" lon="9.655795"><ele>215.5</ele><time>2026-04-20T13:42:46.891Z</time></trkpt><trkpt lat="32.9723583" lon="9.6556767"><ele>215.25</ele><time>2026-04-20T13:42:47.891Z</time></trkpt><trkpt lat="32.9724133" lon="9.6555617"><ele>215.0</ele><time>2026-04-20T13:42:48.891Z</time></trkpt><trkpt lat="32.9724767" lon="9.6554583"><ele>215.2</ele><time>2026-04-20T13:42:49.891Z</time></trkpt><trkpt lat="32.9725433" lon="9.6553467"><ele>215.4</ele><time>2026-04-20T13:42:50.891Z</time></trkpt><trkpt lat="32.972595" lon="9.6552333"><ele>215.60000000000002</ele><time>2026-04-20T13:42:51.891Z</time></trkpt><trkpt lat="32.9726583" lon="9.655125"><ele>215.8</ele><time>2026-04-20T13:42:52.891Z</time></trkpt><trkpt lat="32.97272" lon="9.6550133"><ele>216.0</ele><time>2026-04-20T13:42:53.891Z</time></trkpt><trkpt lat="32.9727833" lon="9.6549017"><ele>216.0</ele><time>2026-04-20T13:42:54.891Z</time></trkpt><trkpt lat="32.9728383" lon="9.6548"><ele>216.00000000000003</ele><time>2026-04-20T13:42:55.891Z</time></trkpt><trkpt lat="32.9728933" lon="9.6547083"><ele>216.00000000000003</ele><time>2026-04-20T13:42:56.891Z</time></trkpt><trkpt lat="32.972945" lon="9.6546217"><ele>216.0</ele><time>2026-04-20T13:42:57.891Z</time></trkpt><trkpt lat="32.9730017" lon="9.6545367"><ele>216.0</ele><time>2026-04-20T13:42:58.891Z</time></trkpt><trkpt lat="32.9730583" lon="9.654445"><ele>216.0</ele><time>2026-04-20T13:42:59.891Z</time></trkpt><trkpt lat="32.9731183" lon="9.6543483"><ele>216.00000000000003</ele><time>2026-04-20T13:43:00.891Z</time></trkpt><trkpt lat="32.9731883" lon="9.65425"><ele>216.00000000000003</ele><time>2026-04-20T13:43:01.891Z</time></trkpt><trkpt lat="32.9732517" lon="9.6541533"><ele>216.0</ele><time>2026-04-20T13:43:02.891Z</time></trkpt><trkpt lat="32.9733217" lon="9.6540517"><ele>216.0</ele><time>2026-04-20T13:43:03.891Z</time></trkpt><trkpt lat="32.9734033" lon="9.6539517"><ele>216.0</ele><time>2026-04-20T13:43:04.891Z</time></trkpt><trkpt lat="32.9734817" lon="9.653845"><ele>216.0</ele><time>2026-04-20T13:43:05.891Z</time></trkpt><trkpt lat="32.97356" lon="9.6537433"><ele>216.0</ele><time>2026-04-20T13:43:06.891Z</time></trkpt><trkpt lat="32.9736333" lon="9.65364"><ele>216.0</ele><time>2026-04-20T13:43:07.891Z</time></trkpt><trkpt lat="32.973715" lon="9.6535467"><ele>215.5</ele><time>2026-04-20T13:43:08.891Z</time></trkpt><trkpt lat="32.973795" lon="9.6534483"><ele>215.0</ele><time>2026-04-20T13:43:09.891Z</time></trkpt><trkpt lat="32.9738733" lon="9.653345"><ele>214.5</ele><time>2026-04-20T13:43:10.891Z</time></trkpt><trkpt lat="32.9739517" lon="9.6532483"><ele>214.0</ele><time>2026-04-20T13:43:11.891Z</time></trkpt><trkpt lat="32.97402" lon="9.6531433"><ele>214.0</ele><time>2026-04-20T13:43:12.891Z</time></trkpt><trkpt lat="32.9740967" lon="9.6530417"><ele>214.0</ele><time>2026-04-20T13:43:13.891Z</time></trkpt><trkpt lat="32.9741767" lon="9.6529433"><ele>214.0</ele><time>2026-04-20T13:43:14.891Z</time></trkpt><trkpt lat="32.9742517" lon="9.6528467"><ele>214.0</ele><time>2026-04-20T13:43:15.891Z</time></trkpt><trkpt lat="32.97433" lon="9.6527467"><ele>213.79999999999998</ele><time>2026-04-20T13:43:16.891Z</time></trkpt><trkpt lat="32.9744" lon="9.6526417"><ele>213.59999999999997</ele><time>2026-04-20T13:43:17.891Z</time></trkpt><trkpt lat="32.9744667" lon="9.65254"><ele>213.4</ele><time>2026-04-20T13:43:18.891Z</time></trkpt><trkpt lat="32.974535" lon="9.6524433"><ele>213.2</ele><time>2026-04-20T13:43:19.891Z</time></trkpt><trkpt lat="32.97461" lon="9.6523467"><ele>213.0</ele><time>2026-04-20T13:43:20.891Z</time></trkpt><trkpt lat="32.974685" lon="9.6522533"><ele>213.0</ele><time>2026-04-20T13:43:21.891Z</time></trkpt><trkpt lat="32.9747567" lon="9.6521583"><ele>213.0</ele><time>2026-04-20T13:43:22.891Z</time></trkpt><trkpt lat="32.9748383" lon="9.6520683"><ele>213.0</ele><time>2026-04-20T13:43:23.891Z</time></trkpt><trkpt lat="32.9749217" lon="9.65198"><ele>213.0</ele><time>2026-04-20T13:43:24.891Z</time></trkpt><trkpt lat="32.9750083" lon="9.6518967"><ele>213.0</ele><time>2026-04-20T13:43:25.891Z</time></trkpt><trkpt lat="32.975095" lon="9.651815"><ele>213.0</ele><time>2026-04-20T13:43:26.891Z</time></trkpt><trkpt lat="32.9751833" lon="9.65174"><ele>213.0</ele><time>2026-04-20T13:43:27.891Z</time></trkpt><trkpt lat="32.9752733" lon="9.6516633"><ele>213.0</ele><time>2026-04-20T13:43:28.891Z</time></trkpt><trkpt lat="32.9753617" lon="9.6515933"><ele>213.0</ele><time>2026-04-20T13:43:29.891Z</time></trkpt><trkpt lat="32.9754517" lon="9.6515217"><ele>213.0</ele><time>2026-04-20T13:43:30.891Z</time></trkpt><trkpt lat="32.9755417" lon="9.65145"><ele>213.0</ele><time>2026-04-20T13:43:31.891Z</time></trkpt><trkpt lat="32.975635" lon="9.651385"><ele>213.0</ele><time>2026-04-20T13:43:32.891Z</time></trkpt><trkpt lat="32.975725" lon="9.65132"><ele>213.0</ele><time>2026-04-20T13:43:33.891Z</time></trkpt><trkpt lat="32.97581" lon="9.6512583"><ele>213.0</ele><time>2026-04-20T13:43:34.891Z</time></trkpt><trkpt lat="32.9758867" lon="9.6511983"><ele>213.0</ele><time>2026-04-20T13:43:35.891Z</time></trkpt><trkpt lat="32.9759683" lon="9.6511467"><ele>213.0</ele><time>2026-04-20T13:43:36.891Z</time></trkpt><trkpt lat="32.9760417" lon="9.65109"><ele>213.0</ele><time>2026-04-20T13:43:37.891Z</time></trkpt><trkpt lat="32.9761183" lon="9.6510383"><ele>213.0</ele><time>2026-04-20T13:43:38.891Z</time></trkpt><trkpt lat="32.97619" lon="9.6509967"><ele>213.0</ele><time>2026-04-20T13:43:39.891Z</time></trkpt><trkpt lat="32.9762433" lon="9.6509567"><ele>213.0</ele><time>2026-04-20T13:43:40.891Z</time></trkpt><trkpt lat="32.9763483" lon="9.6509117"><ele>213.0</ele><time>2026-04-20T13:43:42.891Z</time></trkpt><trkpt lat="32.9764367" lon="9.6508917"><ele>212.99999999999997</ele><time>2026-04-20T13:43:44.891Z</time></trkpt><trkpt lat="32.97651" lon="9.650885"><ele>213.0</ele><time>2026-04-20T13:43:46.891Z</time></trkpt><trkpt lat="32.9765933" lon="9.6508683"><ele>213.0</ele><time>2026-04-20T13:43:49.89Z</time></trkpt><trkpt lat="32.9766467" lon="9.6508133"><ele>213.0</ele><time>2026-04-20T13:43:52.89Z</time></trkpt><trkpt lat="32.9766317" lon="9.65074"><ele>213.0</ele><time>2026-04-20T13:49:44.889Z</time></trkpt><trkpt lat="32.97666" lon="9.6506417"><ele>212.99999999999997</ele><time>2026-04-20T13:49:47.889Z</time></trkpt><trkpt lat="32.9767083" lon="9.6505817"><ele>213.0</ele><time>2026-04-20T13:49:49.889Z</time></trkpt><trkpt lat="32.9767667" lon="9.6505217"><ele>212.83333333333334</ele><time>2026-04-20T13:49:51.889Z</time></trkpt><trkpt lat="32.9768567" lon="9.6504467"><ele>212.66666666666669</ele><time>2026-04-20T13:49:53.889Z</time></trkpt><trkpt lat="32.9769117" lon="9.6504"><ele>212.5</ele><time>2026-04-20T13:49:54.889Z</time></trkpt><trkpt lat="32.9769633" lon="9.6503517"><ele>212.33333333333334</ele><time>2026-04-20T13:49:55.889Z</time></trkpt><trkpt lat="32.9770233" lon="9.6503033"><ele>212.16666666666669</ele><time>2026-04-20T13:49:56.889Z</time></trkpt><trkpt lat="32.9770883" lon="9.6502583"><ele>212.0</ele><time>2026-04-20T13:49:57.889Z</time></trkpt><trkpt lat="32.977155" lon="9.6502183"><ele>212.00000000000003</ele><time>2026-04-20T13:49:58.889Z</time></trkpt><trkpt lat="32.9772233" lon="9.65018"><ele>212.0</ele><time>2026-04-20T13:49:59.889Z</time></trkpt><trkpt lat="32.9772983" lon="9.6501433"><ele>212.0</ele><time>2026-04-20T13:50:00.889Z</time></trkpt><trkpt lat="32.97738" lon="9.6500983"><ele>212.0</ele><time>2026-04-20T13:50:01.889Z</time></trkpt><trkpt lat="32.9774667" lon="9.6500483"><ele>212.00000000000003</ele><time>2026-04-20T13:50:02.889Z</time></trkpt><trkpt lat="32.9775383" lon="9.6499967"><ele>212.0</ele><time>2026-04-20T13:50:03.889Z</time></trkpt><trkpt lat="32.97762" lon="9.6499383"><ele>212.00000000000003</ele><time>2026-04-20T13:50:04.889Z</time></trkpt><trkpt lat="32.9776983" lon="9.6498817"><ele>212.0</ele><time>2026-04-20T13:50:05.889Z</time></trkpt><trkpt lat="32.97777" lon="9.6498283"><ele>212.0</ele><time>2026-04-20T13:50:06.889Z</time></trkpt><trkpt lat="32.9778483" lon="9.649775"><ele>212.0</ele><time>2026-04-20T13:50:07.889Z</time></trkpt><trkpt lat="32.9779233" lon="9.6497183"><ele>212.00000000000003</ele><time>2026-04-20T13:50:08.889Z</time></trkpt><trkpt lat="32.9779983" lon="9.6496617"><ele>212.0</ele><time>2026-04-20T13:50:09.889Z</time></trkpt><trkpt lat="32.978075" lon="9.6496"><ele>212.0</ele><time>2026-04-20T13:50:10.889Z</time></trkpt><trkpt lat="32.9781533" lon="9.64954"><ele>212.0</ele><time>2026-04-20T13:50:11.889Z</time></trkpt><trkpt lat="32.9782367" lon="9.6494817"><ele>212.0</ele><time>2026-04-20T13:50:12.889Z</time></trkpt><trkpt lat="32.9783267" lon="9.6494233"><ele>212.0</ele><time>2026-04-20T13:50:13.889Z</time></trkpt><trkpt lat="32.978415" lon="9.64936"><ele>212.0</ele><time>2026-04-20T13:50:14.889Z</time></trkpt><trkpt lat="32.9785033" lon="9.6492917"><ele>211.8</ele><time>2026-04-20T13:50:15.889Z</time></trkpt><trkpt lat="32.9785933" lon="9.6492283"><ele>211.6</ele><time>2026-04-20T13:50:16.889Z</time></trkpt><trkpt lat="32.9786883" lon="9.6491667"><ele>211.4</ele><time>2026-04-20T13:50:17.889Z</time></trkpt><trkpt lat="32.97878" lon="9.6490983"><ele>211.20000000000002</ele><time>2026-04-20T13:50:18.889Z</time></trkpt><trkpt lat="32.978865" lon="9.6490267"><ele>211.0</ele><time>2026-04-20T13:50:19.889Z</time></trkpt><trkpt lat="32.9789533" lon="9.6489433"><ele>211.0</ele><time>2026-04-20T13:50:20.889Z</time></trkpt><trkpt lat="32.979045" lon="9.648865"><ele>211.0</ele><time>2026-04-20T13:50:21.889Z</time></trkpt><trkpt lat="32.9791333" lon="9.6487833"><ele>211.0</ele><time>2026-04-20T13:50:22.889Z</time></trkpt><trkpt lat="32.9792183" lon="9.648705"><ele>211.0</ele><time>2026-04-20T13:50:23.889Z</time></trkpt><trkpt lat="32.9793" lon="9.6486317"><ele>211.0</ele><time>2026-04-20T13:50:24.889Z</time></trkpt><trkpt lat="32.9793667" lon="9.6485667"><ele>211.16666666666666</ele><time>2026-04-20T13:50:25.889Z</time></trkpt><trkpt lat="32.979435" lon="9.64851"><ele>211.33333333333331</ele><time>2026-04-20T13:50:26.889Z</time></trkpt><trkpt lat="32.9795017" lon="9.6484617"><ele>211.5</ele><time>2026-04-20T13:50:27.889Z</time></trkpt><trkpt lat="32.9795633" lon="9.6484283"><ele>211.66666666666669</ele><time>2026-04-20T13:50:28.889Z</time></trkpt><trkpt lat="32.9796667" lon="9.6483933"><ele>211.83333333333334</ele><time>2026-04-20T13:50:30.888Z</time></trkpt><trkpt lat="32.9797417" lon="9.6483733"><ele>212.0</ele><time>2026-04-20T13:50:32.888Z</time></trkpt><trkpt lat="32.9798317" lon="9.648395"><ele>212.00000000000003</ele><time>2026-04-20T13:50:35.888Z</time></trkpt><trkpt lat="32.9799233" lon="9.6484833"><ele>212.0</ele><time>2026-04-20T13:50:37.888Z</time></trkpt><trkpt lat="32.9799683" lon="9.6485367"><ele>212.0</ele><time>2026-04-20T13:50:38.888Z</time></trkpt><trkpt lat="32.980015" lon="9.6485933"><ele>212.0</ele><time>2026-04-20T13:50:39.888Z</time></trkpt><trkpt lat="32.9800633" lon="9.648645"><ele>212.00000000000003</ele><time>2026-04-20T13:50:40.888Z</time></trkpt><trkpt lat="32.9801383" lon="9.6487417"><ele>212.0</ele><time>2026-04-20T13:50:42.888Z</time></trkpt><trkpt lat="32.9802033" lon="9.6488133"><ele>212.00000000000003</ele><time>2026-04-20T13:50:44.888Z</time></trkpt><trkpt lat="32.9801917" lon="9.6487233"><ele>212.0</ele><time>2026-04-20T13:50:51.888Z</time></trkpt><trkpt lat="32.9801183" lon="9.6486683"><ele>212.0</ele><time>2026-04-20T13:50:53.888Z</time></trkpt><trkpt lat="32.9800267" lon="9.6485883"><ele>212.0</ele><time>2026-04-20T13:50:55.888Z</time></trkpt><trkpt lat="32.9799767" lon="9.648535"><ele>212.00000000000003</ele><time>2026-04-20T13:50:56.888Z</time></trkpt><trkpt lat="32.97992" lon="9.6484767"><ele>212.0</ele><time>2026-04-20T13:50:57.888Z</time></trkpt><trkpt lat="32.9798717" lon="9.64842"><ele>212.00000000000003</ele><time>2026-04-20T13:50:58.888Z</time></trkpt><trkpt lat="32.9798183" lon="9.6483733"><ele>212.0</ele><time>2026-04-20T13:50:59.888Z</time></trkpt><trkpt lat="32.9797633" lon="9.6483217"><ele>212.0</ele><time>2026-04-20T13:51:00.888Z</time></trkpt><trkpt lat="32.979715" lon="9.6482667"><ele>212.0</ele><time>2026-04-20T13:51:01.888Z</time></trkpt><trkpt lat="32.9796283" lon="9.6481667"><ele>212.00000000000003</ele><time>2026-04-20T13:51:03.888Z</time></trkpt><trkpt lat="32.979535" lon="9.6480667"><ele>212.0</ele><time>2026-04-20T13:51:05.888Z</time></trkpt><trkpt lat="32.9794817" lon="9.6480217"><ele>212.00000000000003</ele><time>2026-04-20T13:51:06.888Z</time></trkpt><trkpt lat="32.97943" lon="9.6479783"><ele>212.0</ele><time>2026-04-20T13:51:07.888Z</time></trkpt><trkpt lat="32.9793767" lon="9.6479183"><ele>212.0</ele><time>2026-04-20T13:51:08.888Z</time></trkpt><trkpt lat="32.9793183" lon="9.64785"><ele>212.0</ele><time>2026-04-20T13:51:09.888Z</time></trkpt><trkpt lat="32.9792483" lon="9.6477833"><ele>212.00000000000003</ele><time>2026-04-20T13:51:10.888Z</time></trkpt><trkpt lat="32.979175" lon="9.6477117"><ele>212.0</ele><time>2026-04-20T13:51:11.888Z</time></trkpt><trkpt lat="32.9791017" lon="9.6476333"><ele>211.8</ele><time>2026-04-20T13:51:12.888Z</time></trkpt><trkpt lat="32.9790283" lon="9.6475467"><ele>211.6</ele><time>2026-04-20T13:51:13.888Z</time></trkpt><trkpt lat="32.9789533" lon="9.6474633"><ele>211.4</ele><time>2026-04-20T13:51:14.888Z</time></trkpt><trkpt lat="32.978875" lon="9.647385"><ele>211.20000000000002</ele><time>2026-04-20T13:51:15.888Z</time></trkpt><trkpt lat="32.9787883" lon="9.6473017"><ele>211.0</ele><time>2026-04-20T13:51:16.888Z</time></trkpt><trkpt lat="32.9787033" lon="9.6472067"><ele>211.0</ele><time>2026-04-20T13:51:17.888Z</time></trkpt><trkpt lat="32.9786183" lon="9.64711"><ele>211.0</ele><time>2026-04-20T13:51:18.888Z</time></trkpt><trkpt lat="32.9785317" lon="9.6470217"><ele>211.0</ele><time>2026-04-20T13:51:19.888Z</time></trkpt><trkpt lat="32.9784483" lon="9.64693"><ele>211.0</ele><time>2026-04-20T13:51:20.888Z</time></trkpt><trkpt lat="32.97837" lon="9.6468367"><ele>210.8</ele><time>2026-04-20T13:51:21.888Z</time></trkpt><trkpt lat="32.9782917" lon="9.64675"><ele>210.60000000000002</ele><time>2026-04-20T13:51:22.888Z</time></trkpt><trkpt lat="32.9782117" lon="9.646665"><ele>210.4</ele><time>2026-04-20T13:51:23.888Z</time></trkpt><trkpt lat="32.9781333" lon="9.6465767"><ele>210.2</ele><time>2026-04-20T13:51:24.888Z</time></trkpt><trkpt lat="32.9780583" lon="9.6464933"><ele>210.0</ele><time>2026-04-20T13:51:25.888Z</time></trkpt><trkpt lat="32.9779883" lon="9.6464117"><ele>210.0</ele><time>2026-04-20T13:51:26.888Z</time></trkpt><trkpt lat="32.9779233" lon="9.6463367"><ele>210.0</ele><time>2026-04-20T13:51:27.888Z</time></trkpt><trkpt lat="32.9778683" lon="9.6462683"><ele>210.0</ele><time>2026-04-20T13:51:28.888Z</time></trkpt><trkpt lat="32.977835" lon="9.64619"><ele>210.0</ele><time>2026-04-20T13:51:29.888Z</time></trkpt><trkpt lat="32.9778267" lon="9.646105"><ele>210.0</ele><time>2026-04-20T13:51:30.888Z</time></trkpt><trkpt lat="32.9778467" lon="9.646015"><ele>210.0</ele><time>2026-04-20T13:51:31.888Z</time></trkpt><trkpt lat="32.9778783" lon="9.64593"><ele>210.0</ele><time>2026-04-20T13:51:32.888Z</time></trkpt><trkpt lat="32.97792" lon="9.6458467"><ele>210.0</ele><time>2026-04-20T13:51:33.888Z</time></trkpt><trkpt lat="32.9779683" lon="9.645765"><ele>210.0</ele><time>2026-04-20T13:51:34.888Z</time></trkpt><trkpt lat="32.9780117" lon="9.645675"><ele>210.0</ele><time>2026-04-20T13:51:35.888Z</time></trkpt><trkpt lat="32.9780533" lon="9.6455817"><ele>210.0</ele><time>2026-04-20T13:51:36.888Z</time></trkpt><trkpt lat="32.9781" lon="9.645485"><ele>210.0</ele><time>2026-04-20T13:51:37.888Z</time></trkpt><trkpt lat="32.9781483" lon="9.6453883"><ele>210.0</ele><time>2026-04-20T13:51:38.888Z</time></trkpt><trkpt lat="32.9781983" lon="9.6452883"><ele>210.0</ele><time>2026-04-20T13:51:39.888Z</time></trkpt><trkpt lat="32.978245" lon="9.6451833"><ele>210.0</ele><time>2026-04-20T13:51:40.888Z</time></trkpt><trkpt lat="32.978295" lon="9.6450783"><ele>210.0</ele><time>2026-04-20T13:51:41.888Z</time></trkpt><trkpt lat="32.9783467" lon="9.6449717"><ele>210.0</ele><time>2026-04-20T13:51:42.888Z</time></trkpt><trkpt lat="32.9784017" lon="9.644865"><ele>210.0</ele><time>2026-04-20T13:51:43.888Z</time></trkpt><trkpt lat="32.97846" lon="9.64476"><ele>210.0</ele><time>2026-04-20T13:51:44.888Z</time></trkpt><trkpt lat="32.9785217" lon="9.64465"><ele>210.0</ele><time>2026-04-20T13:51:45.888Z</time></trkpt><trkpt lat="32.9785833" lon="9.6445383"><ele>210.0</ele><time>2026-04-20T13:51:46.888Z</time></trkpt><trkpt lat="32.9786467" lon="9.64443"><ele>210.0</ele><time>2026-04-20T13:51:47.888Z</time></trkpt><trkpt lat="32.9787067" lon="9.6443117"><ele>210.0</ele><time>2026-04-20T13:51:48.888Z</time></trkpt><trkpt lat="32.97876" lon="9.6441983"><ele>210.0</ele><time>2026-04-20T13:51:49.888Z</time></trkpt><trkpt lat="32.9788167" lon="9.644085"><ele>210.0</ele><time>2026-04-20T13:51:50.888Z</time></trkpt><trkpt lat="32.9788817" lon="9.6439733"><ele>210.0</ele><time>2026-04-20T13:51:51.888Z</time></trkpt><trkpt lat="32.978935" lon="9.6438567"><ele>210.0</ele><time>2026-04-20T13:51:52.888Z</time></trkpt><trkpt lat="32.978995" lon="9.6437417"><ele>210.0</ele><time>2026-04-20T13:51:53.888Z</time></trkpt><trkpt lat="32.97904" lon="9.6436267"><ele>210.0</ele><time>2026-04-20T13:51:54.888Z</time></trkpt><trkpt lat="32.979095" lon="9.6435133"><ele>210.0</ele><time>2026-04-20T13:51:55.888Z</time></trkpt><trkpt lat="32.9791483" lon="9.6434"><ele>210.0</ele><time>2026-04-20T13:51:56.888Z</time></trkpt><trkpt lat="32.9792067" lon="9.64329"><ele>210.0</ele><time>2026-04-20T13:51:57.888Z</time></trkpt><trkpt lat="32.9792517" lon="9.64318"><ele>210.2</ele><time>2026-04-20T13:51:58.888Z</time></trkpt><trkpt lat="32.979295" lon="9.6430783"><ele>210.4</ele><time>2026-04-20T13:51:59.888Z</time></trkpt><trkpt lat="32.97933" lon="9.642975"><ele>210.60000000000002</ele><time>2026-04-20T13:52:00.888Z</time></trkpt><trkpt lat="32.9793633" lon="9.6428817"><ele>210.8</ele><time>2026-04-20T13:52:01.888Z</time></trkpt><trkpt lat="32.9794033" lon="9.64281"><ele>211.0</ele><time>2026-04-20T13:52:02.888Z</time></trkpt><trkpt lat="32.9794617" lon="9.6427"><ele>211.0</ele><time>2026-04-20T13:52:04.888Z</time></trkpt><trkpt lat="32.979535" lon="9.642695"><ele>211.0</ele><time>2026-04-20T13:52:07.888Z</time></trkpt><trkpt lat="32.979565" lon="9.642765"><ele>211.0</ele><time>2026-04-20T13:52:11.888Z</time></trkpt><trkpt lat="32.97965" lon="9.6427983"><ele>211.0</ele><time>2026-04-20T13:52:18.888Z</time></trkpt><trkpt lat="32.9796883" lon="9.6428783"><ele>211.0</ele><time>2026-04-20T13:52:21.888Z</time></trkpt><trkpt lat="32.9796167" lon="9.6428767"><ele>211.0</ele><time>2026-04-20T13:52:25.888Z</time></trkpt><trkpt lat="32.9795717" lon="9.6428233"><ele>211.0</ele><time>2026-04-20T13:52:29.888Z</time></trkpt><trkpt lat="32.9795583" lon="9.6427"><ele>210.20000000000002</ele><time>2026-04-20T14:01:52.885Z</time></trkpt><trkpt lat="32.9795683" lon="9.64261"><ele>209.4</ele><time>2026-04-20T14:01:54.885Z</time></trkpt><trkpt lat="32.9796167" lon="9.642525"><ele>208.6</ele><time>2026-04-20T14:01:56.885Z</time></trkpt><trkpt lat="32.9796967" lon="9.642435"><ele>207.8</ele><time>2026-04-20T14:01:58.885Z</time></trkpt><trkpt lat="32.9797883" lon="9.6423333"><ele>207.0</ele><time>2026-04-20T14:02:00.885Z</time></trkpt><trkpt lat="32.9798367" lon="9.6422817"><ele>207.00000000000003</ele><time>2026-04-20T14:02:01.885Z</time></trkpt><trkpt lat="32.97989" lon="9.642225"><ele>207.0</ele><time>2026-04-20T14:02:02.885Z</time></trkpt><trkpt lat="32.9799433" lon="9.6421683"><ele>207.0</ele><time>2026-04-20T14:02:03.885Z</time></trkpt><trkpt lat="32.9799983" lon="9.642115"><ele>207.0</ele><time>2026-04-20T14:02:04.885Z</time></trkpt><trkpt lat="32.9800483" lon="9.6420583"><ele>207.0</ele><time>2026-04-20T14:02:05.885Z</time></trkpt><trkpt lat="32.9801" lon="9.642005"><ele>207.00000000000003</ele><time>2026-04-20T14:02:06.885Z</time></trkpt><trkpt lat="32.980155" lon="9.6419467"><ele>207.0</ele><time>2026-04-20T14:02:07.885Z</time></trkpt><trkpt lat="32.9802083" lon="9.641885"><ele>207.83333333333334</ele><time>2026-04-20T14:02:08.885Z</time></trkpt><trkpt lat="32.9802667" lon="9.641825"><ele>208.66666666666669</ele><time>2026-04-20T14:02:09.885Z</time></trkpt><trkpt lat="32.9803233" lon="9.6417667"><ele>209.5</ele><time>2026-04-20T14:02:10.885Z</time></trkpt><trkpt lat="32.9803783" lon="9.6417117"><ele>210.33333333333334</ele><time>2026-04-20T14:02:11.885Z</time></trkpt><trkpt lat="32.9804367" lon="9.641655"><ele>211.16666666666669</ele><time>2026-04-20T14:02:12.885Z</time></trkpt><trkpt lat="32.980495" lon="9.641595"><ele>212.0</ele><time>2026-04-20T14:02:13.885Z</time></trkpt><trkpt lat="32.9805517" lon="9.6415333"><ele>212.00000000000003</ele><time>2026-04-20T14:02:14.885Z</time></trkpt><trkpt lat="32.9806083" lon="9.64147"><ele>212.0</ele><time>2026-04-20T14:02:15.885Z</time></trkpt><trkpt lat="32.9806633" lon="9.6414033"><ele>212.0</ele><time>2026-04-20T14:02:16.885Z</time></trkpt><trkpt lat="32.9807233" lon="9.6413283"><ele>212.0</ele><time>2026-04-20T14:02:17.885Z</time></trkpt><trkpt lat="32.9807867" lon="9.6412483"><ele>212.00000000000003</ele><time>2026-04-20T14:02:18.885Z</time></trkpt><trkpt lat="32.9808483" lon="9.64117"><ele>212.0</ele><time>2026-04-20T14:02:19.885Z</time></trkpt><trkpt lat="32.9809067" lon="9.6410817"><ele>212.2</ele><time>2026-04-20T14:02:20.885Z</time></trkpt><trkpt lat="32.9809633" lon="9.6409817"><ele>212.39999999999998</ele><time>2026-04-20T14:02:21.885Z</time></trkpt><trkpt lat="32.9810183" lon="9.6408783"><ele>212.60000000000002</ele><time>2026-04-20T14:02:22.885Z</time></trkpt><trkpt lat="32.98107" lon="9.640765"><ele>212.8</ele><time>2026-04-20T14:02:23.885Z</time></trkpt><trkpt lat="32.9811267" lon="9.6406517"><ele>213.0</ele><time>2026-04-20T14:02:24.885Z</time></trkpt><trkpt lat="32.981175" lon="9.6405367"><ele>213.0</ele><time>2026-04-20T14:02:25.885Z</time></trkpt><trkpt lat="32.9812117" lon="9.64042"><ele>213.0</ele><time>2026-04-20T14:02:26.885Z</time></trkpt><trkpt lat="32.9812567" lon="9.6403"><ele>213.0</ele><time>2026-04-20T14:02:27.885Z</time></trkpt><trkpt lat="32.9813133" lon="9.6401867"><ele>213.0</ele><time>2026-04-20T14:02:28.885Z</time></trkpt><trkpt lat="32.981365" lon="9.640075"><ele>213.0</ele><time>2026-04-20T14:02:29.885Z</time></trkpt><trkpt lat="32.9814183" lon="9.6399567"><ele>212.8</ele><time>2026-04-20T14:02:30.885Z</time></trkpt><trkpt lat="32.9814667" lon="9.639835"><ele>212.60000000000002</ele><time>2026-04-20T14:02:31.885Z</time></trkpt><trkpt lat="32.9815183" lon="9.6397117"><ele>212.39999999999998</ele><time>2026-04-20T14:02:32.885Z</time></trkpt><trkpt lat="32.9815667" lon="9.639595"><ele>212.2</ele><time>2026-04-20T14:02:33.885Z</time></trkpt><trkpt lat="32.9816167" lon="9.63948"><ele>212.0</ele><time>2026-04-20T14:02:34.885Z</time></trkpt><trkpt lat="32.9816633" lon="9.6393633"><ele>212.0</ele><time>2026-04-20T14:02:35.885Z</time></trkpt><trkpt lat="32.9817067" lon="9.639245"><ele>212.0</ele><time>2026-04-20T14:02:36.885Z</time></trkpt><trkpt lat="32.9817483" lon="9.6391217"><ele>212.0</ele><time>2026-04-20T14:02:37.885Z</time></trkpt><trkpt lat="32.9817983" lon="9.6390017"><ele>212.0</ele><time>2026-04-20T14:02:38.885Z</time></trkpt><trkpt lat="32.9818417" lon="9.6388817"><ele>212.0</ele><time>2026-04-20T14:02:39.885Z</time></trkpt><trkpt lat="32.9818883" lon="9.6387633"><ele>212.0</ele><time>2026-04-20T14:02:40.885Z</time></trkpt><trkpt lat="32.9819333" lon="9.6386467"><ele>212.0</ele><time>2026-04-20T14:02:41.885Z</time></trkpt><trkpt lat="32.9819817" lon="9.638535"><ele>212.0</ele><time>2026-04-20T14:02:42.885Z</time></trkpt><trkpt lat="32.9820183" lon="9.6384217"><ele>212.0</ele><time>2026-04-20T14:02:43.885Z</time></trkpt><trkpt lat="32.982055" lon="9.6383067"><ele>212.0</ele><time>2026-04-20T14:02:44.885Z</time></trkpt><trkpt lat="32.9821017" lon="9.6381917"><ele>212.0</ele><time>2026-04-20T14:02:45.885Z</time></trkpt><trkpt lat="32.9821567" lon="9.6380783"><ele>212.0</ele><time>2026-04-20T14:02:46.885Z</time></trkpt><trkpt lat="32.982205" lon="9.637965"><ele>212.0</ele><time>2026-04-20T14:02:47.885Z</time></trkpt><trkpt lat="32.9822433" lon="9.63785"><ele>212.0</ele><time>2026-04-20T14:02:48.885Z</time></trkpt><trkpt lat="32.9822917" lon="9.6377367"><ele>212.0</ele><time>2026-04-20T14:02:49.885Z</time></trkpt><trkpt lat="32.9823367" lon="9.637625"><ele>212.0</ele><time>2026-04-20T14:02:50.885Z</time></trkpt><trkpt lat="32.9823867" lon="9.637515"><ele>212.0</ele><time>2026-04-20T14:02:51.885Z</time></trkpt><trkpt lat="32.98243" lon="9.6374017"><ele>212.0</ele><time>2026-04-20T14:02:52.885Z</time></trkpt><trkpt lat="32.9824717" lon="9.6372817"><ele>212.0</ele><time>2026-04-20T14:02:53.885Z</time></trkpt><trkpt lat="32.9825183" lon="9.6371683"><ele>212.0</ele><time>2026-04-20T14:02:54.885Z</time></trkpt><trkpt lat="32.982565" lon="9.6370533"><ele>212.2</ele><time>2026-04-20T14:02:55.885Z</time></trkpt><trkpt lat="32.9826083" lon="9.6369383"><ele>212.39999999999998</ele><time>2026-04-20T14:02:56.885Z</time></trkpt><trkpt lat="32.9826517" lon="9.6368233"><ele>212.60000000000002</ele><time>2026-04-20T14:02:57.885Z</time></trkpt><trkpt lat="32.982695" lon="9.63671"><ele>212.8</ele><time>2026-04-20T14:02:58.885Z</time></trkpt><trkpt lat="32.98274" lon="9.6366017"><ele>213.0</ele><time>2026-04-20T14:02:59.885Z</time></trkpt><trkpt lat="32.9827867" lon="9.6365017"><ele>213.0</ele><time>2026-04-20T14:03:00.885Z</time></trkpt><trkpt lat="32.9828317" lon="9.63641"><ele>213.0</ele><time>2026-04-20T14:03:01.885Z</time></trkpt><trkpt lat="32.98287" lon="9.6363317"><ele>213.0</ele><time>2026-04-20T14:03:02.885Z</time></trkpt><trkpt lat="32.9828983" lon="9.6362567"><ele>213.0</ele><time>2026-04-20T14:03:03.885Z</time></trkpt><trkpt lat="32.982925" lon="9.6361883"><ele>213.0</ele><time>2026-04-20T14:03:04.885Z</time></trkpt><trkpt lat="32.982975" lon="9.63609"><ele>213.0</ele><time>2026-04-20T14:03:06.885Z</time></trkpt><trkpt lat="32.982985" lon="9.6359917"><ele>213.16666666666666</ele><time>2026-04-20T14:03:21.885Z</time></trkpt><trkpt lat="32.9829267" lon="9.6359067"><ele>213.33333333333331</ele><time>2026-04-20T14:03:23.885Z</time></trkpt><trkpt lat="32.9828217" lon="9.63584"><ele>213.5</ele><time>2026-04-20T14:03:25.885Z</time></trkpt><trkpt lat="32.9827583" lon="9.63581"><ele>213.66666666666666</ele><time>2026-04-20T14:03:26.885Z</time></trkpt><trkpt lat="32.982685" lon="9.6357733"><ele>213.83333333333331</ele><time>2026-04-20T14:03:27.885Z</time></trkpt><trkpt lat="32.9826067" lon="9.6357367"><ele>214.0</ele><time>2026-04-20T14:03:28.885Z</time></trkpt><trkpt lat="32.9825267" lon="9.6356867"><ele>213.6</ele><time>2026-04-20T14:03:29.885Z</time></trkpt><trkpt lat="32.9824317" lon="9.6356317"><ele>213.2</ele><time>2026-04-20T14:03:30.885Z</time></trkpt><trkpt lat="32.9823333" lon="9.6355733"><ele>212.79999999999998</ele><time>2026-04-20T14:03:31.885Z</time></trkpt><trkpt lat="32.982235" lon="9.6355183"><ele>212.39999999999998</ele><time>2026-04-20T14:03:32.885Z</time></trkpt><trkpt lat="32.9821367" lon="9.63546"><ele>212.0</ele><time>2026-04-20T14:03:33.885Z</time></trkpt><trkpt lat="32.9820367" lon="9.6353967"><ele>212.0</ele><time>2026-04-20T14:03:34.885Z</time></trkpt><trkpt lat="32.9819417" lon="9.63534"><ele>212.0</ele><time>2026-04-20T14:03:35.885Z</time></trkpt><trkpt lat="32.9818183" lon="9.635265"><ele>212.0</ele><time>2026-04-20T14:03:36.885Z</time></trkpt><trkpt lat="32.9817133" lon="9.6352117"><ele>212.0</ele><time>2026-04-20T14:03:37.885Z</time></trkpt><trkpt lat="32.9816117" lon="9.635155"><ele>211.75</ele><time>2026-04-20T14:03:38.885Z</time></trkpt><trkpt lat="32.9815067" lon="9.6350983"><ele>211.5</ele><time>2026-04-20T14:03:39.885Z</time></trkpt><trkpt lat="32.9813967" lon="9.6350417"><ele>211.25</ele><time>2026-04-20T14:03:40.885Z</time></trkpt><trkpt lat="32.9812883" lon="9.6349867"><ele>211.0</ele><time>2026-04-20T14:03:41.885Z</time></trkpt><trkpt lat="32.9811833" lon="9.634935"><ele>211.0</ele><time>2026-04-20T14:03:42.885Z</time></trkpt><trkpt lat="32.9810833" lon="9.6348767"><ele>211.0</ele><time>2026-04-20T14:03:43.885Z</time></trkpt><trkpt lat="32.9809833" lon="9.6348217"><ele>211.0</ele><time>2026-04-20T14:03:44.885Z</time></trkpt><trkpt lat="32.9808883" lon="9.634765"><ele>211.0</ele><time>2026-04-20T14:03:45.885Z</time></trkpt><trkpt lat="32.9807917" lon="9.63471"><ele>211.0</ele><time>2026-04-20T14:03:46.885Z</time></trkpt><trkpt lat="32.980695" lon="9.6346517"><ele>211.25</ele><time>2026-04-20T14:03:47.885Z</time></trkpt><trkpt lat="32.9805917" lon="9.634595"><ele>211.5</ele><time>2026-04-20T14:03:48.885Z</time></trkpt><trkpt lat="32.980485" lon="9.634535"><ele>211.75</ele><time>2026-04-20T14:03:49.885Z</time></trkpt><trkpt lat="32.980375" lon="9.6344733"><ele>212.0</ele><time>2026-04-20T14:03:50.884Z</time></trkpt><trkpt lat="32.98026" lon="9.6344133"><ele>212.0</ele><time>2026-04-20T14:03:51.884Z</time></trkpt><trkpt lat="32.9801667" lon="9.63436"><ele>212.0</ele><time>2026-04-20T14:03:52.884Z</time></trkpt><trkpt lat="32.9800583" lon="9.63431"><ele>212.0</ele><time>2026-04-20T14:03:53.884Z</time></trkpt><trkpt lat="32.9799583" lon="9.6342517"><ele>212.0</ele><time>2026-04-20T14:03:54.884Z</time></trkpt><trkpt lat="32.97985" lon="9.6341867"><ele>212.0</ele><time>2026-04-20T14:03:55.884Z</time></trkpt><trkpt lat="32.9797533" lon="9.634125"><ele>212.0</ele><time>2026-04-20T14:03:56.884Z</time></trkpt><trkpt lat="32.9796467" lon="9.6340567"><ele>212.0</ele><time>2026-04-20T14:03:57.884Z</time></trkpt><trkpt lat="32.9795383" lon="9.6339967"><ele>212.0</ele><time>2026-04-20T14:03:58.884Z</time></trkpt><trkpt lat="32.9794417" lon="9.633935"><ele>212.0</ele><time>2026-04-20T14:03:59.884Z</time></trkpt><trkpt lat="32.979345" lon="9.63388"><ele>212.0</ele><time>2026-04-20T14:04:00.884Z</time></trkpt><trkpt lat="32.97924" lon="9.633825"><ele>212.0</ele><time>2026-04-20T14:04:01.884Z</time></trkpt><trkpt lat="32.9791417" lon="9.6337683"><ele>212.0</ele><time>2026-04-20T14:04:02.884Z</time></trkpt><trkpt lat="32.97904" lon="9.6337017"><ele>212.0</ele><time>2026-04-20T14:04:03.884Z</time></trkpt><trkpt lat="32.978925" lon="9.6336383"><ele>211.75</ele><time>2026-04-20T14:04:04.884Z</time></trkpt><trkpt lat="32.9788067" lon="9.633575"><ele>211.5</ele><time>2026-04-20T14:04:05.884Z</time></trkpt><trkpt lat="32.9786933" lon="9.6335117"><ele>211.25</ele><time>2026-04-20T14:04:06.884Z</time></trkpt><trkpt lat="32.9785933" lon="9.6334617"><ele>211.0</ele><time>2026-04-20T14:04:07.884Z</time></trkpt><trkpt lat="32.978495" lon="9.6334167"><ele>211.0</ele><time>2026-04-20T14:04:08.884Z</time></trkpt><trkpt lat="32.9783967" lon="9.6333583"><ele>211.0</ele><time>2026-04-20T14:04:09.884Z</time></trkpt><trkpt lat="32.9783033" lon="9.6333017"><ele>211.0</ele><time>2026-04-20T14:04:10.884Z</time></trkpt><trkpt lat="32.97821" lon="9.6332433"><ele>211.0</ele><time>2026-04-20T14:04:11.884Z</time></trkpt><trkpt lat="32.9781133" lon="9.63319"><ele>211.0</ele><time>2026-04-20T14:04:12.884Z</time></trkpt><trkpt lat="32.97801" lon="9.63313"><ele>211.20000000000002</ele><time>2026-04-20T14:04:13.884Z</time></trkpt><trkpt lat="32.9779117" lon="9.6330733"><ele>211.4</ele><time>2026-04-20T14:04:14.884Z</time></trkpt><trkpt lat="32.977825" lon="9.6330267"><ele>211.6</ele><time>2026-04-20T14:04:15.884Z</time></trkpt><trkpt lat="32.9777367" lon="9.6329783"><ele>211.8</ele><time>2026-04-20T14:04:16.884Z</time></trkpt><trkpt lat="32.9776567" lon="9.6329267"><ele>212.0</ele><time>2026-04-20T14:04:17.884Z</time></trkpt><trkpt lat="32.977565" lon="9.6328717"><ele>211.6</ele><time>2026-04-20T14:04:18.884Z</time></trkpt><trkpt lat="32.97747" lon="9.6328183"><ele>211.2</ele><time>2026-04-20T14:04:19.884Z</time></trkpt><trkpt lat="32.977375" lon="9.632765"><ele>210.8</ele><time>2026-04-20T14:04:20.884Z</time></trkpt><trkpt lat="32.977275" lon="9.6327"><ele>210.4</ele><time>2026-04-20T14:04:21.884Z</time></trkpt><trkpt lat="32.977175" lon="9.6326533"><ele>210.0</ele><time>2026-04-20T14:04:22.884Z</time></trkpt><trkpt lat="32.97707" lon="9.632595"><ele>210.0</ele><time>2026-04-20T14:04:23.884Z</time></trkpt><trkpt lat="32.9769767" lon="9.6325417"><ele>210.0</ele><time>2026-04-20T14:04:24.884Z</time></trkpt><trkpt lat="32.97688" lon="9.6324817"><ele>210.0</ele><time>2026-04-20T14:04:25.884Z</time></trkpt><trkpt lat="32.9767833" lon="9.63242"><ele>210.0</ele><time>2026-04-20T14:04:26.884Z</time></trkpt><trkpt lat="32.976685" lon="9.6323567"><ele>210.0</ele><time>2026-04-20T14:04:27.884Z</time></trkpt><trkpt lat="32.9765817" lon="9.632305"><ele>210.0</ele><time>2026-04-20T14:04:28.884Z</time></trkpt><trkpt lat="32.9764767" lon="9.6322467"><ele>210.0</ele><time>2026-04-20T14:04:29.884Z</time></trkpt><trkpt lat="32.9763767" lon="9.6321967"><ele>210.0</ele><time>2026-04-20T14:04:30.884Z</time></trkpt><trkpt lat="32.9762917" lon="9.6321567"><ele>210.0</ele><time>2026-04-20T14:04:31.884Z</time></trkpt><trkpt lat="32.9762217" lon="9.6321133"><ele>210.0</ele><time>2026-04-20T14:04:32.884Z</time></trkpt><trkpt lat="32.97611" lon="9.6320667"><ele>210.0</ele><time>2026-04-20T14:04:34.884Z</time></trkpt><trkpt lat="32.9760467" lon="9.6321033"><ele>210.0</ele><time>2026-04-20T14:04:36.884Z</time></trkpt><trkpt lat="32.9759733" lon="9.632295"><ele>210.0</ele><time>2026-04-20T14:04:39.884Z</time></trkpt><trkpt lat="32.9759433" lon="9.63238"><ele>210.0</ele><time>2026-04-20T14:04:40.884Z</time></trkpt><trkpt lat="32.975905" lon="9.6324733"><ele>210.0</ele><time>2026-04-20T14:04:41.884Z</time></trkpt><trkpt lat="32.975865" lon="9.6325683"><ele>210.0</ele><time>2026-04-20T14:04:42.884Z</time></trkpt><trkpt lat="32.9758283" lon="9.6326633"><ele>210.0</ele><time>2026-04-20T14:04:43.884Z</time></trkpt><trkpt lat="32.975795" lon="9.6327567"><ele>210.0</ele><time>2026-04-20T14:04:44.884Z</time></trkpt><trkpt lat="32.9757633" lon="9.6328533"><ele>210.0</ele><time>2026-04-20T14:04:45.884Z</time></trkpt><trkpt lat="32.97573" lon="9.6329483"><ele>210.0</ele><time>2026-04-20T14:04:46.884Z</time></trkpt><trkpt lat="32.9756917" lon="9.6330333"><ele>210.0</ele><time>2026-04-20T14:04:47.884Z</time></trkpt><trkpt lat="32.9755967" lon="9.6331917"><ele>210.0</ele><time>2026-04-20T14:04:49.884Z</time></trkpt><trkpt lat="32.97557" lon="9.6332783"><ele>210.0</ele><time>2026-04-20T14:04:50.884Z</time></trkpt><trkpt lat="32.975545" lon="9.6333683"><ele>210.0</ele><time>2026-04-20T14:04:51.884Z</time></trkpt><trkpt lat="32.9755217" lon="9.6334433"><ele>210.0</ele><time>2026-04-20T14:04:52.884Z</time></trkpt><trkpt lat="32.9754767" lon="9.633545"><ele>210.0</ele><time>2026-04-20T14:04:54.884Z</time></trkpt><trkpt lat="32.9754133" lon="9.6335617"><ele>210.0</ele><time>2026-04-20T14:04:57.884Z</time></trkpt><trkpt lat="32.975365" lon="9.6335117"><ele>210.0</ele><time>2026-04-20T14:05:00.884Z</time></trkpt><trkpt lat="32.975305" lon="9.633455"><ele>210.0</ele><time>2026-04-20T14:05:03.884Z</time></trkpt></trkseg></trk></gpx>